<?xml version="1.0"?>
<gpx
 version="1.1"
 creator="Satmap Active 20"
 xmlns:xsi="http://www.w3.org/2001/XMLSchema-instance"
 xmlns="http://www.topografix.com/GPX/1/1"
 xmlns:satmap="http://www.satmap.com/updates/xmlschemas/GpxExtensions/v2/GpxExtensions_v2.xsd"
 xsi:schemaLocation="http://www.topografix.com/GPX/1/1 http://www.topografix.com/GPX/1/1/gpx.xsd">
<metadata>
<time>2019-09-27T09:29:31Z</time>
<extensions>
<satmap:platform>43</satmap:platform>
<satmap:software version="3.12.831">SM15.exe</satmap:software>
<satmap:username>Jim Grant</satmap:username>
<satmap:network_ids>
<satmap:network_id type="wifi">00-23-A7-EC-D5-78</satmap:network_id>
<satmap:network_id type="bluetooth">80-BB-EB-D7-5B-7C</satmap:network_id>
</satmap:network_ids>
<satmap:snap_type>simple</satmap:snap_type>
</extensions>
</metadata>
<trk>
<name>2019-09-27_0929</name>
<desc>Track 1</desc>
<number>1</number>
<trkseg>
<trkpt lat="52.937752" lon="-3.091353"><ele>197</ele><time>2019-09-27T09:29:31Z</time><name>PT1</name></trkpt>
<trkpt lat="52.937748" lon="-3.091365"><ele>197</ele><time>2019-09-27T09:29:41Z</time><name>PT2</name></trkpt>
<trkpt lat="52.937744" lon="-3.091369"><ele>197</ele><time>2019-09-27T09:29:42Z</time><name>PT3</name></trkpt>
<trkpt lat="52.937736" lon="-3.091369"><ele>197</ele><time>2019-09-27T09:29:43Z</time><name>PT4</name></trkpt>
<trkpt lat="52.937737" lon="-3.091373"><ele>197</ele><time>2019-09-27T09:29:52Z</time><name>PT5</name></trkpt>
<trkpt lat="52.937737" lon="-3.091375"><ele>197</ele><time>2019-09-27T09:29:53Z</time><name>PT6</name></trkpt>
<trkpt lat="52.937735" lon="-3.091378"><ele>196</ele><time>2019-09-27T09:29:54Z</time><name>PT7</name></trkpt>
<trkpt lat="52.937738" lon="-3.091397"><ele>195</ele><time>2019-09-27T09:29:58Z</time><name>PT8</name></trkpt>
<trkpt lat="52.937737" lon="-3.091423"><ele>195</ele><time>2019-09-27T09:29:59Z</time><name>PT9</name></trkpt>
<trkpt lat="52.937730" lon="-3.091407"><ele>195</ele><time>2019-09-27T09:30:00Z</time><name>PT10</name></trkpt>
<trkpt lat="52.937729" lon="-3.091410"><ele>195</ele><time>2019-09-27T09:30:16Z</time><name>PT11</name></trkpt>
<trkpt lat="52.937729" lon="-3.091416"><ele>195</ele><time>2019-09-27T09:30:17Z</time><name>PT12</name></trkpt>
<trkpt lat="52.937732" lon="-3.091406"><ele>195</ele><time>2019-09-27T09:30:26Z</time><name>PT13</name></trkpt>
<trkpt lat="52.937727" lon="-3.091405"><ele>195</ele><time>2019-09-27T09:30:27Z</time><name>PT14</name></trkpt>
<trkpt lat="52.937727" lon="-3.091405"><ele>195</ele><time>2019-09-27T09:30:28Z</time><name>PT15</name></trkpt>
<trkpt lat="52.937725" lon="-3.091406"><ele>195</ele><time>2019-09-27T09:30:55Z</time><name>PT16</name></trkpt>
<trkpt lat="52.937724" lon="-3.091400"><ele>195</ele><time>2019-09-27T09:30:56Z</time><name>PT17</name></trkpt>
<trkpt lat="52.937723" lon="-3.091401"><ele>194</ele><time>2019-09-27T09:30:57Z</time><name>PT18</name></trkpt>
<trkpt lat="52.937732" lon="-3.091395"><ele>193</ele><time>2019-09-27T09:30:58Z</time><name>PT19</name></trkpt>
<trkpt lat="52.937740" lon="-3.091387"><ele>193</ele><time>2019-09-27T09:31:01Z</time><name>PT20</name></trkpt>
<trkpt lat="52.937740" lon="-3.091372"><ele>194</ele><time>2019-09-27T09:31:02Z</time><name>PT21</name></trkpt>
<trkpt lat="52.937747" lon="-3.091375"><ele>194</ele><time>2019-09-27T09:31:03Z</time><name>PT22</name></trkpt>
<trkpt lat="52.937753" lon="-3.091374"><ele>194</ele><time>2019-09-27T09:31:04Z</time><name>PT23</name></trkpt>
<trkpt lat="52.937751" lon="-3.091384"><ele>195</ele><time>2019-09-27T09:31:33Z</time><name>PT24</name></trkpt>
<trkpt lat="52.937748" lon="-3.091390"><ele>195</ele><time>2019-09-27T09:31:34Z</time><name>PT25</name></trkpt>
<trkpt lat="52.937745" lon="-3.091394"><ele>195</ele><time>2019-09-27T09:31:35Z</time><name>PT26</name></trkpt>
<trkpt lat="52.937740" lon="-3.091389"><ele>195</ele><time>2019-09-27T09:31:39Z</time><name>PT27</name></trkpt>
<trkpt lat="52.937734" lon="-3.091385"><ele>195</ele><time>2019-09-27T09:31:40Z</time><name>PT28</name></trkpt>
<trkpt lat="52.937730" lon="-3.091379"><ele>195</ele><time>2019-09-27T09:31:41Z</time><name>PT29</name></trkpt>
<trkpt lat="52.937728" lon="-3.091372"><ele>194</ele><time>2019-09-27T09:31:42Z</time><name>PT30</name></trkpt>
<trkpt lat="52.937725" lon="-3.091364"><ele>194</ele><time>2019-09-27T09:31:46Z</time><name>PT31</name></trkpt>
<trkpt lat="52.937721" lon="-3.091366"><ele>194</ele><time>2019-09-27T09:31:47Z</time><name>PT32</name></trkpt>
<trkpt lat="52.937714" lon="-3.091379"><ele>193</ele><time>2019-09-27T09:31:48Z</time><name>PT33</name></trkpt>
<trkpt lat="52.937712" lon="-3.091380"><ele>193</ele><time>2019-09-27T09:31:49Z</time><name>PT34</name></trkpt>
<trkpt lat="52.937709" lon="-3.091376"><ele>193</ele><time>2019-09-27T09:31:50Z</time><name>PT35</name></trkpt>
<trkpt lat="52.937705" lon="-3.091378"><ele>193</ele><time>2019-09-27T09:31:51Z</time><name>PT36</name></trkpt>
<trkpt lat="52.937704" lon="-3.091375"><ele>193</ele><time>2019-09-27T09:31:52Z</time><name>PT37</name></trkpt>
<trkpt lat="52.937699" lon="-3.091376"><ele>193</ele><time>2019-09-27T09:31:53Z</time><name>PT38</name></trkpt>
<trkpt lat="52.937693" lon="-3.091371"><ele>194</ele><time>2019-09-27T09:31:54Z</time><name>PT39</name></trkpt>
<trkpt lat="52.937692" lon="-3.091369"><ele>194</ele><time>2019-09-27T09:31:55Z</time><name>PT40</name></trkpt>
<trkpt lat="52.937691" lon="-3.091368"><ele>194</ele><time>2019-09-27T09:31:56Z</time><name>PT41</name></trkpt>
<trkpt lat="52.937694" lon="-3.091369"><ele>194</ele><time>2019-09-27T09:32:02Z</time><name>PT42</name></trkpt>
<trkpt lat="52.937692" lon="-3.091371"><ele>194</ele><time>2019-09-27T09:32:03Z</time><name>PT43</name></trkpt>
<trkpt lat="52.937690" lon="-3.091368"><ele>194</ele><time>2019-09-27T09:32:04Z</time><name>PT44</name></trkpt>
<trkpt lat="52.937687" lon="-3.091365"><ele>194</ele><time>2019-09-27T09:32:05Z</time><name>PT45</name></trkpt>
<trkpt lat="52.937684" lon="-3.091353"><ele>194</ele><time>2019-09-27T09:32:08Z</time><name>PT46</name></trkpt>
<trkpt lat="52.937687" lon="-3.091355"><ele>194</ele><time>2019-09-27T09:32:09Z</time><name>PT47</name></trkpt>
<trkpt lat="52.937693" lon="-3.091364"><ele>195</ele><time>2019-09-27T09:32:10Z</time><name>PT48</name></trkpt>
<trkpt lat="52.937693" lon="-3.091360"><ele>194</ele><time>2019-09-27T09:32:12Z</time><name>PT49</name></trkpt>
<trkpt lat="52.937690" lon="-3.091357"><ele>194</ele><time>2019-09-27T09:32:13Z</time><name>PT50</name></trkpt>
<trkpt lat="52.937680" lon="-3.091357"><ele>195</ele><time>2019-09-27T09:32:37Z</time><name>PT51</name></trkpt>
<trkpt lat="52.937682" lon="-3.091363"><ele>195</ele><time>2019-09-27T09:32:38Z</time><name>PT52</name></trkpt>
<trkpt lat="52.937683" lon="-3.091335"><ele>196</ele><time>2019-09-27T09:32:43Z</time><name>PT53</name></trkpt>
<trkpt lat="52.937685" lon="-3.091334"><ele>195</ele><time>2019-09-27T09:32:44Z</time><name>PT54</name></trkpt>
<trkpt lat="52.937687" lon="-3.091339"><ele>194</ele><time>2019-09-27T09:32:45Z</time><name>PT55</name></trkpt>
<trkpt lat="52.937685" lon="-3.091341"><ele>194</ele><time>2019-09-27T09:32:52Z</time><name>PT56</name></trkpt>
<trkpt lat="52.937684" lon="-3.091342"><ele>194</ele><time>2019-09-27T09:32:53Z</time><name>PT57</name></trkpt>
<trkpt lat="52.937684" lon="-3.091344"><ele>194</ele><time>2019-09-27T09:32:54Z</time><name>PT58</name></trkpt>
<trkpt lat="52.937683" lon="-3.091347"><ele>194</ele><time>2019-09-27T09:32:55Z</time><name>PT59</name></trkpt>
<trkpt lat="52.937681" lon="-3.091352"><ele>193</ele><time>2019-09-27T09:32:56Z</time><name>PT60</name></trkpt>
<trkpt lat="52.937682" lon="-3.091351"><ele>194</ele><time>2019-09-27T09:32:57Z</time><name>PT61</name></trkpt>
<trkpt lat="52.937684" lon="-3.091352"><ele>194</ele><time>2019-09-27T09:32:58Z</time><name>PT62</name></trkpt>
<trkpt lat="52.937684" lon="-3.091356"><ele>194</ele><time>2019-09-27T09:32:59Z</time><name>PT63</name></trkpt>
<trkpt lat="52.937684" lon="-3.091357"><ele>194</ele><time>2019-09-27T09:33:00Z</time><name>PT64</name></trkpt>
<trkpt lat="52.937687" lon="-3.091364"><ele>193</ele><time>2019-09-27T09:33:01Z</time><name>PT65</name></trkpt>
<trkpt lat="52.937685" lon="-3.091366"><ele>193</ele><time>2019-09-27T09:33:02Z</time><name>PT66</name></trkpt>
<trkpt lat="52.937684" lon="-3.091367"><ele>193</ele><time>2019-09-27T09:33:03Z</time><name>PT67</name></trkpt>
<trkpt lat="52.937684" lon="-3.091370"><ele>193</ele><time>2019-09-27T09:33:04Z</time><name>PT68</name></trkpt>
<trkpt lat="52.937685" lon="-3.091368"><ele>193</ele><time>2019-09-27T09:33:05Z</time><name>PT69</name></trkpt>
<trkpt lat="52.937686" lon="-3.091373"><ele>193</ele><time>2019-09-27T09:33:06Z</time><name>PT70</name></trkpt>
<trkpt lat="52.937683" lon="-3.091372"><ele>193</ele><time>2019-09-27T09:33:07Z</time><name>PT71</name></trkpt>
<trkpt lat="52.937681" lon="-3.091372"><ele>193</ele><time>2019-09-27T09:33:18Z</time><name>PT72</name></trkpt>
<trkpt lat="52.937681" lon="-3.091371"><ele>193</ele><time>2019-09-27T09:33:19Z</time><name>PT73</name></trkpt>
<trkpt lat="52.937681" lon="-3.091370"><ele>193</ele><time>2019-09-27T09:33:20Z</time><name>PT74</name></trkpt>
<trkpt lat="52.937683" lon="-3.091379"><ele>193</ele><time>2019-09-27T09:33:25Z</time><name>PT75</name></trkpt>
<trkpt lat="52.937684" lon="-3.091382"><ele>193</ele><time>2019-09-27T09:33:26Z</time><name>PT76</name></trkpt>
<trkpt lat="52.937684" lon="-3.091380"><ele>192</ele><time>2019-09-27T09:33:27Z</time><name>PT77</name></trkpt>
<trkpt lat="52.937684" lon="-3.091380"><ele>192</ele><time>2019-09-27T09:33:28Z</time><name>PT78</name></trkpt>
<trkpt lat="52.937681" lon="-3.091384"><ele>192</ele><time>2019-09-27T09:33:29Z</time><name>PT79</name></trkpt>
<trkpt lat="52.937685" lon="-3.091382"><ele>193</ele><time>2019-09-27T09:33:58Z</time><name>PT80</name></trkpt>
<trkpt lat="52.937686" lon="-3.091375"><ele>193</ele><time>2019-09-27T09:33:59Z</time><name>PT81</name></trkpt>
<trkpt lat="52.937686" lon="-3.091368"><ele>193</ele><time>2019-09-27T09:34:00Z</time><name>PT82</name></trkpt>
<trkpt lat="52.937685" lon="-3.091359"><ele>193</ele><time>2019-09-27T09:34:10Z</time><name>PT83</name></trkpt>
<trkpt lat="52.937679" lon="-3.091368"><ele>193</ele><time>2019-09-27T09:34:11Z</time><name>PT84</name></trkpt>
<trkpt lat="52.937677" lon="-3.091368"><ele>193</ele><time>2019-09-27T09:34:12Z</time><name>PT85</name></trkpt>
<trkpt lat="52.937675" lon="-3.091363"><ele>193</ele><time>2019-09-27T09:34:15Z</time><name>PT86</name></trkpt>
<trkpt lat="52.937672" lon="-3.091370"><ele>193</ele><time>2019-09-27T09:34:16Z</time><name>PT87</name></trkpt>
<trkpt lat="52.937671" lon="-3.091371"><ele>193</ele><time>2019-09-27T09:34:17Z</time><name>PT88</name></trkpt>
<trkpt lat="52.937678" lon="-3.091353"><ele>195</ele><time>2019-09-27T09:34:27Z</time><name>PT89</name></trkpt>
<trkpt lat="52.937680" lon="-3.091350"><ele>195</ele><time>2019-09-27T09:34:28Z</time><name>PT90</name></trkpt>
<trkpt lat="52.937677" lon="-3.091350"><ele>195</ele><time>2019-09-27T09:34:29Z</time><name>PT91</name></trkpt>
<trkpt lat="52.937676" lon="-3.091345"><ele>195</ele><time>2019-09-27T09:34:30Z</time><name>PT92</name></trkpt>
<trkpt lat="52.937670" lon="-3.091342"><ele>195</ele><time>2019-09-27T09:34:31Z</time><name>PT93</name></trkpt>
<trkpt lat="52.937671" lon="-3.091344"><ele>194</ele><time>2019-09-27T09:34:35Z</time><name>PT94</name></trkpt>
<trkpt lat="52.937669" lon="-3.091336"><ele>195</ele><time>2019-09-27T09:34:36Z</time><name>PT95</name></trkpt>
<trkpt lat="52.937669" lon="-3.091328"><ele>195</ele><time>2019-09-27T09:34:37Z</time><name>PT96</name></trkpt>
<trkpt lat="52.937671" lon="-3.091323"><ele>194</ele><time>2019-09-27T09:34:38Z</time><name>PT97</name></trkpt>
<trkpt lat="52.937670" lon="-3.091323"><ele>194</ele><time>2019-09-27T09:34:44Z</time><name>PT98</name></trkpt>
<trkpt lat="52.937669" lon="-3.091319"><ele>194</ele><time>2019-09-27T09:34:45Z</time><name>PT99</name></trkpt>
<trkpt lat="52.937670" lon="-3.091310"><ele>194</ele><time>2019-09-27T09:34:46Z</time><name>PT100</name></trkpt>
<trkpt lat="52.937672" lon="-3.091310"><ele>195</ele><time>2019-09-27T09:34:47Z</time><name>PT101</name></trkpt>
<trkpt lat="52.937674" lon="-3.091307"><ele>195</ele><time>2019-09-27T09:34:48Z</time><name>PT102</name></trkpt>
<trkpt lat="52.937667" lon="-3.091307"><ele>195</ele><time>2019-09-27T09:34:53Z</time><name>PT103</name></trkpt>
<trkpt lat="52.937667" lon="-3.091315"><ele>195</ele><time>2019-09-27T09:34:54Z</time><name>PT104</name></trkpt>
<trkpt lat="52.937669" lon="-3.091320"><ele>195</ele><time>2019-09-27T09:34:55Z</time><name>PT105</name></trkpt>
<trkpt lat="52.937670" lon="-3.091310"><ele>195</ele><time>2019-09-27T09:34:56Z</time><name>PT106</name></trkpt>
<trkpt lat="52.937675" lon="-3.091288"><ele>195</ele><time>2019-09-27T09:34:57Z</time><name>PT107</name></trkpt>
<trkpt lat="52.937676" lon="-3.091284"><ele>195</ele><time>2019-09-27T09:34:58Z</time><name>PT108</name></trkpt>
<trkpt lat="52.937673" lon="-3.091290"><ele>195</ele><time>2019-09-27T09:35:07Z</time><name>PT109</name></trkpt>
<trkpt lat="52.937670" lon="-3.091291"><ele>195</ele><time>2019-09-27T09:35:08Z</time><name>PT110</name></trkpt>
<trkpt lat="52.937670" lon="-3.091291"><ele>194</ele><time>2019-09-27T09:35:09Z</time><name>PT111</name></trkpt>
<trkpt lat="52.937669" lon="-3.091291"><ele>194</ele><time>2019-09-27T09:35:14Z</time><name>PT112</name></trkpt>
<trkpt lat="52.937665" lon="-3.091309"><ele>195</ele><time>2019-09-27T09:35:15Z</time><name>PT113</name></trkpt>
<trkpt lat="52.937663" lon="-3.091321"><ele>196</ele><time>2019-09-27T09:35:16Z</time><name>PT114</name></trkpt>
<trkpt lat="52.937667" lon="-3.091330"><ele>195</ele><time>2019-09-27T09:35:17Z</time><name>PT115</name></trkpt>
<trkpt lat="52.937669" lon="-3.091325"><ele>195</ele><time>2019-09-27T09:35:18Z</time><name>PT116</name></trkpt>
<trkpt lat="52.937669" lon="-3.091324"><ele>196</ele><time>2019-09-27T09:35:19Z</time><name>PT117</name></trkpt>
<trkpt lat="52.937668" lon="-3.091323"><ele>195</ele><time>2019-09-27T09:35:20Z</time><name>PT118</name></trkpt>
<trkpt lat="52.937671" lon="-3.091322"><ele>195</ele><time>2019-09-27T09:36:41Z</time><name>PT119</name></trkpt>
<trkpt lat="52.937670" lon="-3.091320"><ele>196</ele><time>2019-09-27T09:36:42Z</time><name>PT120</name></trkpt>
<trkpt lat="52.937670" lon="-3.091319"><ele>196</ele><time>2019-09-27T09:36:43Z</time><name>PT121</name></trkpt>
<trkpt lat="52.937668" lon="-3.091318"><ele>196</ele><time>2019-09-27T09:36:46Z</time><name>PT122</name></trkpt>
<trkpt lat="52.937669" lon="-3.091321"><ele>196</ele><time>2019-09-27T09:36:47Z</time><name>PT123</name></trkpt>
<trkpt lat="52.937666" lon="-3.091323"><ele>196</ele><time>2019-09-27T09:36:48Z</time><name>PT124</name></trkpt>
<trkpt lat="52.937670" lon="-3.091329"><ele>196</ele><time>2019-09-27T09:36:49Z</time><name>PT125</name></trkpt>
<trkpt lat="52.937673" lon="-3.091331"><ele>196</ele><time>2019-09-27T09:36:50Z</time><name>PT126</name></trkpt>
<trkpt lat="52.937676" lon="-3.091327"><ele>196</ele><time>2019-09-27T09:36:51Z</time><name>PT127</name></trkpt>
<trkpt lat="52.937677" lon="-3.091331"><ele>196</ele><time>2019-09-27T09:36:52Z</time><name>PT128</name></trkpt>
<trkpt lat="52.937678" lon="-3.091340"><ele>196</ele><time>2019-09-27T09:36:53Z</time><name>PT129</name></trkpt>
<trkpt lat="52.937677" lon="-3.091350"><ele>196</ele><time>2019-09-27T09:36:54Z</time><name>PT130</name></trkpt>
<trkpt lat="52.937677" lon="-3.091359"><ele>196</ele><time>2019-09-27T09:36:55Z</time><name>PT131</name></trkpt>
<trkpt lat="52.937680" lon="-3.091363"><ele>196</ele><time>2019-09-27T09:36:56Z</time><name>PT132</name></trkpt>
<trkpt lat="52.937681" lon="-3.091371"><ele>196</ele><time>2019-09-27T09:36:57Z</time><name>PT133</name></trkpt>
<trkpt lat="52.937678" lon="-3.091373"><ele>195</ele><time>2019-09-27T09:36:58Z</time><name>PT134</name></trkpt>
<trkpt lat="52.937677" lon="-3.091374"><ele>195</ele><time>2019-09-27T09:36:59Z</time><name>PT135</name></trkpt>
<trkpt lat="52.937678" lon="-3.091374"><ele>195</ele><time>2019-09-27T09:37:26Z</time><name>PT136</name></trkpt>
<trkpt lat="52.937680" lon="-3.091374"><ele>195</ele><time>2019-09-27T09:37:27Z</time><name>PT137</name></trkpt>
<trkpt lat="52.937683" lon="-3.091378"><ele>194</ele><time>2019-09-27T09:37:29Z</time><name>PT138</name></trkpt>
<trkpt lat="52.937685" lon="-3.091373"><ele>194</ele><time>2019-09-27T09:37:30Z</time><name>PT139</name></trkpt>
<trkpt lat="52.937687" lon="-3.091373"><ele>194</ele><time>2019-09-27T09:37:31Z</time><name>PT140</name></trkpt>
<trkpt lat="52.937688" lon="-3.091370"><ele>194</ele><time>2019-09-27T09:37:32Z</time><name>PT141</name></trkpt>
<trkpt lat="52.937690" lon="-3.091380"><ele>194</ele><time>2019-09-27T09:37:33Z</time><name>PT142</name></trkpt>
<trkpt lat="52.937691" lon="-3.091381"><ele>194</ele><time>2019-09-27T09:37:34Z</time><name>PT143</name></trkpt>
<trkpt lat="52.937691" lon="-3.091383"><ele>193</ele><time>2019-09-27T09:37:35Z</time><name>PT144</name></trkpt>
<trkpt lat="52.937689" lon="-3.091377"><ele>194</ele><time>2019-09-27T09:37:41Z</time><name>PT145</name></trkpt>
<trkpt lat="52.937690" lon="-3.091383"><ele>194</ele><time>2019-09-27T09:37:42Z</time><name>PT146</name></trkpt>
<trkpt lat="52.937690" lon="-3.091385"><ele>194</ele><time>2019-09-27T09:37:43Z</time><name>PT147</name></trkpt>
<trkpt lat="52.937690" lon="-3.091384"><ele>194</ele><time>2019-09-27T09:37:44Z</time><name>PT148</name></trkpt>
<trkpt lat="52.937690" lon="-3.091384"><ele>194</ele><time>2019-09-27T09:37:45Z</time><name>PT149</name></trkpt>
<trkpt lat="52.937684" lon="-3.091381"><ele>194</ele><time>2019-09-27T09:37:46Z</time><name>PT150</name></trkpt>
<trkpt lat="52.937683" lon="-3.091382"><ele>194</ele><time>2019-09-27T09:37:47Z</time><name>PT151</name></trkpt>
<trkpt lat="52.937681" lon="-3.091383"><ele>194</ele><time>2019-09-27T09:37:48Z</time><name>PT152</name></trkpt>
<trkpt lat="52.937681" lon="-3.091385"><ele>194</ele><time>2019-09-27T09:37:49Z</time><name>PT153</name></trkpt>
<trkpt lat="52.937680" lon="-3.091386"><ele>194</ele><time>2019-09-27T09:38:06Z</time><name>PT154</name></trkpt>
<trkpt lat="52.937674" lon="-3.091387"><ele>194</ele><time>2019-09-27T09:38:07Z</time><name>PT155</name></trkpt>
<trkpt lat="52.937673" lon="-3.091386"><ele>194</ele><time>2019-09-27T09:38:08Z</time><name>PT156</name></trkpt>
<trkpt lat="52.937672" lon="-3.091384"><ele>194</ele><time>2019-09-27T09:38:09Z</time><name>PT157</name></trkpt>
<trkpt lat="52.937674" lon="-3.091384"><ele>194</ele><time>2019-09-27T09:38:19Z</time><name>PT158</name></trkpt>
<trkpt lat="52.937676" lon="-3.091384"><ele>194</ele><time>2019-09-27T09:38:20Z</time><name>PT159</name></trkpt>
<trkpt lat="52.937676" lon="-3.091383"><ele>194</ele><time>2019-09-27T09:38:21Z</time><name>PT160</name></trkpt>
<trkpt lat="52.937677" lon="-3.091379"><ele>194</ele><time>2019-09-27T09:38:36Z</time><name>PT161</name></trkpt>
<trkpt lat="52.937675" lon="-3.091375"><ele>194</ele><time>2019-09-27T09:38:37Z</time><name>PT162</name></trkpt>
<trkpt lat="52.937670" lon="-3.091370"><ele>194</ele><time>2019-09-27T09:38:38Z</time><name>PT163</name></trkpt>
<trkpt lat="52.937667" lon="-3.091363"><ele>194</ele><time>2019-09-27T09:38:39Z</time><name>PT164</name></trkpt>
<trkpt lat="52.937661" lon="-3.091363"><ele>194</ele><time>2019-09-27T09:38:40Z</time><name>PT165</name></trkpt>
<trkpt lat="52.937662" lon="-3.091359"><ele>194</ele><time>2019-09-27T09:38:41Z</time><name>PT166</name></trkpt>
<trkpt lat="52.937662" lon="-3.091357"><ele>194</ele><time>2019-09-27T09:38:42Z</time><name>PT167</name></trkpt>
<trkpt lat="52.937663" lon="-3.091355"><ele>193</ele><time>2019-09-27T09:38:43Z</time><name>PT168</name></trkpt>
<trkpt lat="52.937665" lon="-3.091353"><ele>193</ele><time>2019-09-27T09:38:44Z</time><name>PT169</name></trkpt>
<trkpt lat="52.937666" lon="-3.091352"><ele>193</ele><time>2019-09-27T09:38:45Z</time><name>PT170</name></trkpt>
<trkpt lat="52.937667" lon="-3.091348"><ele>193</ele><time>2019-09-27T09:38:46Z</time><name>PT171</name></trkpt>
<trkpt lat="52.937666" lon="-3.091344"><ele>194</ele><time>2019-09-27T09:38:47Z</time><name>PT172</name></trkpt>
<trkpt lat="52.937669" lon="-3.091335"><ele>195</ele><time>2019-09-27T09:39:08Z</time><name>PT173</name></trkpt>
<trkpt lat="52.937668" lon="-3.091351"><ele>195</ele><time>2019-09-27T09:39:09Z</time><name>PT174</name></trkpt>
<trkpt lat="52.937669" lon="-3.091357"><ele>195</ele><time>2019-09-27T09:39:10Z</time><name>PT175</name></trkpt>
<trkpt lat="52.937669" lon="-3.091356"><ele>195</ele><time>2019-09-27T09:39:11Z</time><name>PT176</name></trkpt>
<trkpt lat="52.937668" lon="-3.091351"><ele>195</ele><time>2019-09-27T09:39:12Z</time><name>PT177</name></trkpt>
<trkpt lat="52.937668" lon="-3.091351"><ele>195</ele><time>2019-09-27T09:39:13Z</time><name>PT178</name></trkpt>
<trkpt lat="52.937669" lon="-3.091349"><ele>195</ele><time>2019-09-27T09:39:14Z</time><name>PT179</name></trkpt>
<trkpt lat="52.937665" lon="-3.091346"><ele>195</ele><time>2019-09-27T09:39:15Z</time><name>PT180</name></trkpt>
<trkpt lat="52.937657" lon="-3.091345"><ele>194</ele><time>2019-09-27T09:39:16Z</time><name>PT181</name></trkpt>
<trkpt lat="52.937647" lon="-3.091343"><ele>194</ele><time>2019-09-27T09:39:17Z</time><name>PT182</name></trkpt>
<trkpt lat="52.937638" lon="-3.091341"><ele>195</ele><time>2019-09-27T09:39:18Z</time><name>PT183</name></trkpt>
<trkpt lat="52.937632" lon="-3.091339"><ele>194</ele><time>2019-09-27T09:39:19Z</time><name>PT184</name></trkpt>
<trkpt lat="52.937626" lon="-3.091339"><ele>194</ele><time>2019-09-27T09:39:20Z</time><name>PT185</name></trkpt>
<trkpt lat="52.937616" lon="-3.091340"><ele>194</ele><time>2019-09-27T09:39:21Z</time><name>PT186</name></trkpt>
<trkpt lat="52.937608" lon="-3.091340"><ele>194</ele><time>2019-09-27T09:39:22Z</time><name>PT187</name></trkpt>
<trkpt lat="52.937598" lon="-3.091340"><ele>194</ele><time>2019-09-27T09:39:23Z</time><name>PT188</name></trkpt>
<trkpt lat="52.937588" lon="-3.091340"><ele>194</ele><time>2019-09-27T09:39:24Z</time><name>PT189</name></trkpt>
<trkpt lat="52.937578" lon="-3.091342"><ele>194</ele><time>2019-09-27T09:39:25Z</time><name>PT190</name></trkpt>
<trkpt lat="52.937568" lon="-3.091344"><ele>194</ele><time>2019-09-27T09:39:26Z</time><name>PT191</name></trkpt>
<trkpt lat="52.937560" lon="-3.091352"><ele>194</ele><time>2019-09-27T09:39:27Z</time><name>PT192</name></trkpt>
<trkpt lat="52.937549" lon="-3.091353"><ele>194</ele><time>2019-09-27T09:39:28Z</time><name>PT193</name></trkpt>
<trkpt lat="52.937540" lon="-3.091357"><ele>194</ele><time>2019-09-27T09:39:29Z</time><name>PT194</name></trkpt>
<trkpt lat="52.937530" lon="-3.091362"><ele>194</ele><time>2019-09-27T09:39:30Z</time><name>PT195</name></trkpt>
<trkpt lat="52.937518" lon="-3.091365"><ele>194</ele><time>2019-09-27T09:39:31Z</time><name>PT196</name></trkpt>
<trkpt lat="52.937508" lon="-3.091368"><ele>194</ele><time>2019-09-27T09:39:32Z</time><name>PT197</name></trkpt>
<trkpt lat="52.937497" lon="-3.091376"><ele>195</ele><time>2019-09-27T09:39:33Z</time><name>PT198</name></trkpt>
<trkpt lat="52.937486" lon="-3.091380"><ele>195</ele><time>2019-09-27T09:39:34Z</time><name>PT199</name></trkpt>
<trkpt lat="52.937474" lon="-3.091384"><ele>195</ele><time>2019-09-27T09:39:35Z</time><name>PT200</name></trkpt>
<trkpt lat="52.937465" lon="-3.091389"><ele>195</ele><time>2019-09-27T09:39:36Z</time><name>PT201</name></trkpt>
<trkpt lat="52.937457" lon="-3.091396"><ele>195</ele><time>2019-09-27T09:39:37Z</time><name>PT202</name></trkpt>
<trkpt lat="52.937446" lon="-3.091399"><ele>195</ele><time>2019-09-27T09:39:38Z</time><name>PT203</name></trkpt>
<trkpt lat="52.937434" lon="-3.091403"><ele>195</ele><time>2019-09-27T09:39:39Z</time><name>PT204</name></trkpt>
<trkpt lat="52.937426" lon="-3.091405"><ele>195</ele><time>2019-09-27T09:39:40Z</time><name>PT205</name></trkpt>
<trkpt lat="52.937415" lon="-3.091407"><ele>195</ele><time>2019-09-27T09:39:41Z</time><name>PT206</name></trkpt>
<trkpt lat="52.937401" lon="-3.091409"><ele>195</ele><time>2019-09-27T09:39:42Z</time><name>PT207</name></trkpt>
<trkpt lat="52.937389" lon="-3.091411"><ele>195</ele><time>2019-09-27T09:39:43Z</time><name>PT208</name></trkpt>
<trkpt lat="52.937374" lon="-3.091410"><ele>195</ele><time>2019-09-27T09:39:44Z</time><name>PT209</name></trkpt>
<trkpt lat="52.937362" lon="-3.091410"><ele>195</ele><time>2019-09-27T09:39:45Z</time><name>PT210</name></trkpt>
<trkpt lat="52.937354" lon="-3.091407"><ele>194</ele><time>2019-09-27T09:39:46Z</time><name>PT211</name></trkpt>
<trkpt lat="52.937345" lon="-3.091408"><ele>194</ele><time>2019-09-27T09:39:47Z</time><name>PT212</name></trkpt>
<trkpt lat="52.937335" lon="-3.091408"><ele>194</ele><time>2019-09-27T09:39:48Z</time><name>PT213</name></trkpt>
<trkpt lat="52.937326" lon="-3.091407"><ele>194</ele><time>2019-09-27T09:39:49Z</time><name>PT214</name></trkpt>
<trkpt lat="52.937320" lon="-3.091408"><ele>194</ele><time>2019-09-27T09:39:50Z</time><name>PT215</name></trkpt>
<trkpt lat="52.937309" lon="-3.091408"><ele>194</ele><time>2019-09-27T09:39:51Z</time><name>PT216</name></trkpt>
<trkpt lat="52.937299" lon="-3.091409"><ele>194</ele><time>2019-09-27T09:39:52Z</time><name>PT217</name></trkpt>
<trkpt lat="52.937289" lon="-3.091411"><ele>194</ele><time>2019-09-27T09:39:53Z</time><name>PT218</name></trkpt>
<trkpt lat="52.937276" lon="-3.091408"><ele>195</ele><time>2019-09-27T09:39:54Z</time><name>PT219</name></trkpt>
<trkpt lat="52.937268" lon="-3.091410"><ele>195</ele><time>2019-09-27T09:39:55Z</time><name>PT220</name></trkpt>
<trkpt lat="52.937260" lon="-3.091410"><ele>195</ele><time>2019-09-27T09:39:56Z</time><name>PT221</name></trkpt>
<trkpt lat="52.937250" lon="-3.091411"><ele>195</ele><time>2019-09-27T09:39:57Z</time><name>PT222</name></trkpt>
<trkpt lat="52.937243" lon="-3.091410"><ele>195</ele><time>2019-09-27T09:39:58Z</time><name>PT223</name></trkpt>
<trkpt lat="52.937232" lon="-3.091408"><ele>195</ele><time>2019-09-27T09:39:59Z</time><name>PT224</name></trkpt>
<trkpt lat="52.937227" lon="-3.091407"><ele>196</ele><time>2019-09-27T09:40:00Z</time><name>PT225</name></trkpt>
<trkpt lat="52.937221" lon="-3.091407"><ele>195</ele><time>2019-09-27T09:40:01Z</time><name>PT226</name></trkpt>
<trkpt lat="52.937210" lon="-3.091404"><ele>196</ele><time>2019-09-27T09:40:02Z</time><name>PT227</name></trkpt>
<trkpt lat="52.937199" lon="-3.091405"><ele>195</ele><time>2019-09-27T09:40:03Z</time><name>PT228</name></trkpt>
<trkpt lat="52.937193" lon="-3.091404"><ele>196</ele><time>2019-09-27T09:40:04Z</time><name>PT229</name></trkpt>
<trkpt lat="52.937185" lon="-3.091405"><ele>195</ele><time>2019-09-27T09:40:05Z</time><name>PT230</name></trkpt>
<trkpt lat="52.937179" lon="-3.091402"><ele>195</ele><time>2019-09-27T09:40:06Z</time><name>PT231</name></trkpt>
<trkpt lat="52.937172" lon="-3.091394"><ele>194</ele><time>2019-09-27T09:40:07Z</time><name>PT232</name></trkpt>
<trkpt lat="52.937164" lon="-3.091390"><ele>195</ele><time>2019-09-27T09:40:08Z</time><name>PT233</name></trkpt>
<trkpt lat="52.937159" lon="-3.091386"><ele>194</ele><time>2019-09-27T09:40:09Z</time><name>PT234</name></trkpt>
<trkpt lat="52.937149" lon="-3.091382"><ele>194</ele><time>2019-09-27T09:40:10Z</time><name>PT235</name></trkpt>
<trkpt lat="52.937139" lon="-3.091372"><ele>193</ele><time>2019-09-27T09:40:11Z</time><name>PT236</name></trkpt>
<trkpt lat="52.937135" lon="-3.091365"><ele>193</ele><time>2019-09-27T09:40:12Z</time><name>PT237</name></trkpt>
<trkpt lat="52.937127" lon="-3.091357"><ele>193</ele><time>2019-09-27T09:40:13Z</time><name>PT238</name></trkpt>
<trkpt lat="52.937124" lon="-3.091356"><ele>192</ele><time>2019-09-27T09:40:14Z</time><name>PT239</name></trkpt>
<trkpt lat="52.937119" lon="-3.091351"><ele>192</ele><time>2019-09-27T09:40:15Z</time><name>PT240</name></trkpt>
<trkpt lat="52.937113" lon="-3.091343"><ele>191</ele><time>2019-09-27T09:40:16Z</time><name>PT241</name></trkpt>
<trkpt lat="52.937106" lon="-3.091324"><ele>190</ele><time>2019-09-27T09:40:17Z</time><name>PT242</name></trkpt>
<trkpt lat="52.937096" lon="-3.091311"><ele>189</ele><time>2019-09-27T09:40:18Z</time><name>PT243</name></trkpt>
<trkpt lat="52.937088" lon="-3.091295"><ele>189</ele><time>2019-09-27T09:40:19Z</time><name>PT244</name></trkpt>
<trkpt lat="52.937081" lon="-3.091280"><ele>189</ele><time>2019-09-27T09:40:20Z</time><name>PT245</name></trkpt>
<trkpt lat="52.937081" lon="-3.091268"><ele>188</ele><time>2019-09-27T09:40:21Z</time><name>PT246</name></trkpt>
<trkpt lat="52.937078" lon="-3.091253"><ele>189</ele><time>2019-09-27T09:40:22Z</time><name>PT247</name></trkpt>
<trkpt lat="52.937068" lon="-3.091241"><ele>189</ele><time>2019-09-27T09:40:23Z</time><name>PT248</name></trkpt>
<trkpt lat="52.937057" lon="-3.091230"><ele>189</ele><time>2019-09-27T09:40:24Z</time><name>PT249</name></trkpt>
<trkpt lat="52.937044" lon="-3.091223"><ele>189</ele><time>2019-09-27T09:40:25Z</time><name>PT250</name></trkpt>
<trkpt lat="52.937035" lon="-3.091214"><ele>189</ele><time>2019-09-27T09:40:26Z</time><name>PT251</name></trkpt>
<trkpt lat="52.937030" lon="-3.091204"><ele>189</ele><time>2019-09-27T09:40:27Z</time><name>PT252</name></trkpt>
<trkpt lat="52.937028" lon="-3.091188"><ele>188</ele><time>2019-09-27T09:40:28Z</time><name>PT253</name></trkpt>
<trkpt lat="52.937020" lon="-3.091176"><ele>189</ele><time>2019-09-27T09:40:29Z</time><name>PT254</name></trkpt>
<trkpt lat="52.937005" lon="-3.091150"><ele>190</ele><time>2019-09-27T09:40:30Z</time><name>PT255</name></trkpt>
<trkpt lat="52.936995" lon="-3.091140"><ele>191</ele><time>2019-09-27T09:40:31Z</time><name>PT256</name></trkpt>
<trkpt lat="52.936986" lon="-3.091130"><ele>191</ele><time>2019-09-27T09:40:32Z</time><name>PT257</name></trkpt>
<trkpt lat="52.936974" lon="-3.091119"><ele>192</ele><time>2019-09-27T09:40:33Z</time><name>PT258</name></trkpt>
<trkpt lat="52.936968" lon="-3.091107"><ele>191</ele><time>2019-09-27T09:40:34Z</time><name>PT259</name></trkpt>
<trkpt lat="52.936960" lon="-3.091096"><ele>191</ele><time>2019-09-27T09:40:35Z</time><name>PT260</name></trkpt>
<trkpt lat="52.936952" lon="-3.091086"><ele>191</ele><time>2019-09-27T09:40:36Z</time><name>PT261</name></trkpt>
<trkpt lat="52.936944" lon="-3.091081"><ele>191</ele><time>2019-09-27T09:40:37Z</time><name>PT262</name></trkpt>
<trkpt lat="52.936932" lon="-3.091075"><ele>191</ele><time>2019-09-27T09:40:38Z</time><name>PT263</name></trkpt>
<trkpt lat="52.936919" lon="-3.091067"><ele>192</ele><time>2019-09-27T09:40:39Z</time><name>PT264</name></trkpt>
<trkpt lat="52.936907" lon="-3.091057"><ele>192</ele><time>2019-09-27T09:40:40Z</time><name>PT265</name></trkpt>
<trkpt lat="52.936896" lon="-3.091055"><ele>192</ele><time>2019-09-27T09:40:41Z</time><name>PT266</name></trkpt>
<trkpt lat="52.936886" lon="-3.091052"><ele>192</ele><time>2019-09-27T09:40:42Z</time><name>PT267</name></trkpt>
<trkpt lat="52.936878" lon="-3.091049"><ele>191</ele><time>2019-09-27T09:40:43Z</time><name>PT268</name></trkpt>
<trkpt lat="52.936871" lon="-3.091044"><ele>191</ele><time>2019-09-27T09:40:44Z</time><name>PT269</name></trkpt>
<trkpt lat="52.936866" lon="-3.091036"><ele>191</ele><time>2019-09-27T09:40:45Z</time><name>PT270</name></trkpt>
<trkpt lat="52.936857" lon="-3.091026"><ele>190</ele><time>2019-09-27T09:40:46Z</time><name>PT271</name></trkpt>
<trkpt lat="52.936854" lon="-3.091022"><ele>190</ele><time>2019-09-27T09:40:47Z</time><name>PT272</name></trkpt>
<trkpt lat="52.936850" lon="-3.091018"><ele>190</ele><time>2019-09-27T09:40:48Z</time><name>PT273</name></trkpt>
<trkpt lat="52.936841" lon="-3.091014"><ele>191</ele><time>2019-09-27T09:40:49Z</time><name>PT274</name></trkpt>
<trkpt lat="52.936833" lon="-3.091013"><ele>191</ele><time>2019-09-27T09:40:50Z</time><name>PT275</name></trkpt>
<trkpt lat="52.936829" lon="-3.091013"><ele>190</ele><time>2019-09-27T09:40:51Z</time><name>PT276</name></trkpt>
<trkpt lat="52.936822" lon="-3.091010"><ele>190</ele><time>2019-09-27T09:40:52Z</time><name>PT277</name></trkpt>
<trkpt lat="52.936811" lon="-3.091009"><ele>190</ele><time>2019-09-27T09:40:53Z</time><name>PT278</name></trkpt>
<trkpt lat="52.936798" lon="-3.091006"><ele>189</ele><time>2019-09-27T09:40:54Z</time><name>PT279</name></trkpt>
<trkpt lat="52.936787" lon="-3.091003"><ele>189</ele><time>2019-09-27T09:40:55Z</time><name>PT280</name></trkpt>
<trkpt lat="52.936771" lon="-3.090998"><ele>189</ele><time>2019-09-27T09:40:56Z</time><name>PT281</name></trkpt>
<trkpt lat="52.936762" lon="-3.090991"><ele>189</ele><time>2019-09-27T09:40:57Z</time><name>PT282</name></trkpt>
<trkpt lat="52.936751" lon="-3.090986"><ele>189</ele><time>2019-09-27T09:40:58Z</time><name>PT283</name></trkpt>
<trkpt lat="52.936740" lon="-3.090987"><ele>189</ele><time>2019-09-27T09:40:59Z</time><name>PT284</name></trkpt>
<trkpt lat="52.936726" lon="-3.090988"><ele>190</ele><time>2019-09-27T09:41:00Z</time><name>PT285</name></trkpt>
<trkpt lat="52.936717" lon="-3.090986"><ele>190</ele><time>2019-09-27T09:41:01Z</time><name>PT286</name></trkpt>
<trkpt lat="52.936706" lon="-3.090985"><ele>190</ele><time>2019-09-27T09:41:02Z</time><name>PT287</name></trkpt>
<trkpt lat="52.936697" lon="-3.090987"><ele>191</ele><time>2019-09-27T09:41:03Z</time><name>PT288</name></trkpt>
<trkpt lat="52.936690" lon="-3.090989"><ele>190</ele><time>2019-09-27T09:41:04Z</time><name>PT289</name></trkpt>
<trkpt lat="52.936680" lon="-3.090994"><ele>190</ele><time>2019-09-27T09:41:05Z</time><name>PT290</name></trkpt>
<trkpt lat="52.936670" lon="-3.090997"><ele>190</ele><time>2019-09-27T09:41:06Z</time><name>PT291</name></trkpt>
<trkpt lat="52.936657" lon="-3.090997"><ele>191</ele><time>2019-09-27T09:41:07Z</time><name>PT292</name></trkpt>
<trkpt lat="52.936648" lon="-3.090999"><ele>192</ele><time>2019-09-27T09:41:08Z</time><name>PT293</name></trkpt>
<trkpt lat="52.936636" lon="-3.091003"><ele>192</ele><time>2019-09-27T09:41:09Z</time><name>PT294</name></trkpt>
<trkpt lat="52.936623" lon="-3.091010"><ele>192</ele><time>2019-09-27T09:41:10Z</time><name>PT295</name></trkpt>
<trkpt lat="52.936611" lon="-3.091020"><ele>192</ele><time>2019-09-27T09:41:11Z</time><name>PT296</name></trkpt>
<trkpt lat="52.936604" lon="-3.091024"><ele>192</ele><time>2019-09-27T09:41:12Z</time><name>PT297</name></trkpt>
<trkpt lat="52.936595" lon="-3.091031"><ele>193</ele><time>2019-09-27T09:41:13Z</time><name>PT298</name></trkpt>
<trkpt lat="52.936585" lon="-3.091036"><ele>193</ele><time>2019-09-27T09:41:14Z</time><name>PT299</name></trkpt>
<trkpt lat="52.936569" lon="-3.091040"><ele>193</ele><time>2019-09-27T09:41:15Z</time><name>PT300</name></trkpt>
<trkpt lat="52.936557" lon="-3.091046"><ele>193</ele><time>2019-09-27T09:41:16Z</time><name>PT301</name></trkpt>
<trkpt lat="52.936544" lon="-3.091056"><ele>194</ele><time>2019-09-27T09:41:17Z</time><name>PT302</name></trkpt>
<trkpt lat="52.936535" lon="-3.091063"><ele>194</ele><time>2019-09-27T09:41:18Z</time><name>PT303</name></trkpt>
<trkpt lat="52.936528" lon="-3.091066"><ele>194</ele><time>2019-09-27T09:41:19Z</time><name>PT304</name></trkpt>
<trkpt lat="52.936520" lon="-3.091078"><ele>194</ele><time>2019-09-27T09:41:20Z</time><name>PT305</name></trkpt>
<trkpt lat="52.936509" lon="-3.091088"><ele>194</ele><time>2019-09-27T09:41:21Z</time><name>PT306</name></trkpt>
<trkpt lat="52.936502" lon="-3.091096"><ele>194</ele><time>2019-09-27T09:41:22Z</time><name>PT307</name></trkpt>
<trkpt lat="52.936492" lon="-3.091103"><ele>194</ele><time>2019-09-27T09:41:23Z</time><name>PT308</name></trkpt>
<trkpt lat="52.936476" lon="-3.091110"><ele>194</ele><time>2019-09-27T09:41:24Z</time><name>PT309</name></trkpt>
<trkpt lat="52.936463" lon="-3.091115"><ele>193</ele><time>2019-09-27T09:41:25Z</time><name>PT310</name></trkpt>
<trkpt lat="52.936454" lon="-3.091121"><ele>193</ele><time>2019-09-27T09:41:26Z</time><name>PT311</name></trkpt>
<trkpt lat="52.936446" lon="-3.091124"><ele>192</ele><time>2019-09-27T09:41:27Z</time><name>PT312</name></trkpt>
<trkpt lat="52.936439" lon="-3.091131"><ele>192</ele><time>2019-09-27T09:41:28Z</time><name>PT313</name></trkpt>
<trkpt lat="52.936433" lon="-3.091136"><ele>191</ele><time>2019-09-27T09:41:29Z</time><name>PT314</name></trkpt>
<trkpt lat="52.936430" lon="-3.091137"><ele>191</ele><time>2019-09-27T09:41:30Z</time><name>PT315</name></trkpt>
<trkpt lat="52.936417" lon="-3.091146"><ele>192</ele><time>2019-09-27T09:41:31Z</time><name>PT316</name></trkpt>
<trkpt lat="52.936411" lon="-3.091153"><ele>192</ele><time>2019-09-27T09:41:32Z</time><name>PT317</name></trkpt>
<trkpt lat="52.936409" lon="-3.091151"><ele>192</ele><time>2019-09-27T09:41:33Z</time><name>PT318</name></trkpt>
<trkpt lat="52.936402" lon="-3.091150"><ele>193</ele><time>2019-09-27T09:41:34Z</time><name>PT319</name></trkpt>
<trkpt lat="52.936393" lon="-3.091154"><ele>192</ele><time>2019-09-27T09:41:35Z</time><name>PT320</name></trkpt>
<trkpt lat="52.936381" lon="-3.091160"><ele>192</ele><time>2019-09-27T09:41:36Z</time><name>PT321</name></trkpt>
<trkpt lat="52.936370" lon="-3.091172"><ele>191</ele><time>2019-09-27T09:41:37Z</time><name>PT322</name></trkpt>
<trkpt lat="52.936363" lon="-3.091182"><ele>191</ele><time>2019-09-27T09:41:38Z</time><name>PT323</name></trkpt>
<trkpt lat="52.936354" lon="-3.091186"><ele>191</ele><time>2019-09-27T09:41:39Z</time><name>PT324</name></trkpt>
<trkpt lat="52.936339" lon="-3.091192"><ele>191</ele><time>2019-09-27T09:41:40Z</time><name>PT325</name></trkpt>
<trkpt lat="52.936326" lon="-3.091194"><ele>190</ele><time>2019-09-27T09:41:41Z</time><name>PT326</name></trkpt>
<trkpt lat="52.936314" lon="-3.091202"><ele>191</ele><time>2019-09-27T09:41:42Z</time><name>PT327</name></trkpt>
<trkpt lat="52.936303" lon="-3.091209"><ele>191</ele><time>2019-09-27T09:41:43Z</time><name>PT328</name></trkpt>
<trkpt lat="52.936290" lon="-3.091218"><ele>191</ele><time>2019-09-27T09:41:44Z</time><name>PT329</name></trkpt>
<trkpt lat="52.936282" lon="-3.091226"><ele>192</ele><time>2019-09-27T09:41:45Z</time><name>PT330</name></trkpt>
<trkpt lat="52.936274" lon="-3.091235"><ele>192</ele><time>2019-09-27T09:41:46Z</time><name>PT331</name></trkpt>
<trkpt lat="52.936264" lon="-3.091245"><ele>192</ele><time>2019-09-27T09:41:47Z</time><name>PT332</name></trkpt>
<trkpt lat="52.936256" lon="-3.091252"><ele>192</ele><time>2019-09-27T09:41:48Z</time><name>PT333</name></trkpt>
<trkpt lat="52.936249" lon="-3.091262"><ele>193</ele><time>2019-09-27T09:41:49Z</time><name>PT334</name></trkpt>
<trkpt lat="52.936239" lon="-3.091270"><ele>192</ele><time>2019-09-27T09:41:50Z</time><name>PT335</name></trkpt>
<trkpt lat="52.936229" lon="-3.091277"><ele>193</ele><time>2019-09-27T09:41:51Z</time><name>PT336</name></trkpt>
<trkpt lat="52.936222" lon="-3.091279"><ele>192</ele><time>2019-09-27T09:41:52Z</time><name>PT337</name></trkpt>
<trkpt lat="52.936211" lon="-3.091286"><ele>192</ele><time>2019-09-27T09:41:53Z</time><name>PT338</name></trkpt>
<trkpt lat="52.936202" lon="-3.091298"><ele>192</ele><time>2019-09-27T09:41:54Z</time><name>PT339</name></trkpt>
<trkpt lat="52.936196" lon="-3.091306"><ele>192</ele><time>2019-09-27T09:41:55Z</time><name>PT340</name></trkpt>
<trkpt lat="52.936189" lon="-3.091315"><ele>192</ele><time>2019-09-27T09:41:56Z</time><name>PT341</name></trkpt>
<trkpt lat="52.936184" lon="-3.091322"><ele>192</ele><time>2019-09-27T09:41:57Z</time><name>PT342</name></trkpt>
<trkpt lat="52.936174" lon="-3.091326"><ele>192</ele><time>2019-09-27T09:41:58Z</time><name>PT343</name></trkpt>
<trkpt lat="52.936163" lon="-3.091323"><ele>191</ele><time>2019-09-27T09:42:02Z</time><name>PT344</name></trkpt>
<trkpt lat="52.936144" lon="-3.091323"><ele>190</ele><time>2019-09-27T09:42:03Z</time><name>PT345</name></trkpt>
<trkpt lat="52.936133" lon="-3.091333"><ele>191</ele><time>2019-09-27T09:42:04Z</time><name>PT346</name></trkpt>
<trkpt lat="52.936120" lon="-3.091332"><ele>191</ele><time>2019-09-27T09:42:05Z</time><name>PT347</name></trkpt>
<trkpt lat="52.936107" lon="-3.091334"><ele>191</ele><time>2019-09-27T09:42:06Z</time><name>PT348</name></trkpt>
<trkpt lat="52.936092" lon="-3.091336"><ele>190</ele><time>2019-09-27T09:42:07Z</time><name>PT349</name></trkpt>
<trkpt lat="52.936077" lon="-3.091337"><ele>190</ele><time>2019-09-27T09:42:08Z</time><name>PT350</name></trkpt>
<trkpt lat="52.936063" lon="-3.091343"><ele>190</ele><time>2019-09-27T09:42:09Z</time><name>PT351</name></trkpt>
<trkpt lat="52.936045" lon="-3.091347"><ele>190</ele><time>2019-09-27T09:42:10Z</time><name>PT352</name></trkpt>
<trkpt lat="52.936036" lon="-3.091354"><ele>190</ele><time>2019-09-27T09:42:11Z</time><name>PT353</name></trkpt>
<trkpt lat="52.936032" lon="-3.091361"><ele>190</ele><time>2019-09-27T09:42:12Z</time><name>PT354</name></trkpt>
<trkpt lat="52.936032" lon="-3.091370"><ele>190</ele><time>2019-09-27T09:42:13Z</time><name>PT355</name></trkpt>
<trkpt lat="52.936027" lon="-3.091380"><ele>190</ele><time>2019-09-27T09:42:14Z</time><name>PT356</name></trkpt>
<trkpt lat="52.936027" lon="-3.091391"><ele>190</ele><time>2019-09-27T09:42:15Z</time><name>PT357</name></trkpt>
<trkpt lat="52.936022" lon="-3.091411"><ele>189</ele><time>2019-09-27T09:42:23Z</time><name>PT358</name></trkpt>
<trkpt lat="52.936019" lon="-3.091432"><ele>188</ele><time>2019-09-27T09:42:24Z</time><name>PT359</name></trkpt>
<trkpt lat="52.936005" lon="-3.091495"><ele>190</ele><time>2019-09-27T09:42:31Z</time><name>PT360</name></trkpt>
<trkpt lat="52.936001" lon="-3.091553"><ele>188</ele><time>2019-09-27T09:42:32Z</time><name>PT361</name></trkpt>
<trkpt lat="52.935987" lon="-3.091600"><ele>187</ele><time>2019-09-27T09:42:33Z</time><name>PT362</name></trkpt>
<trkpt lat="52.935982" lon="-3.091664"><ele>186</ele><time>2019-09-27T09:42:34Z</time><name>PT363</name></trkpt>
<trkpt lat="52.935967" lon="-3.091698"><ele>185</ele><time>2019-09-27T09:42:35Z</time><name>PT364</name></trkpt>
<trkpt lat="52.935963" lon="-3.091720"><ele>184</ele><time>2019-09-27T09:42:36Z</time><name>PT365</name></trkpt>
<trkpt lat="52.935956" lon="-3.091740"><ele>184</ele><time>2019-09-27T09:42:37Z</time><name>PT366</name></trkpt>
<trkpt lat="52.935952" lon="-3.091767"><ele>183</ele><time>2019-09-27T09:42:38Z</time><name>PT367</name></trkpt>
<trkpt lat="52.935949" lon="-3.091788"><ele>183</ele><time>2019-09-27T09:42:39Z</time><name>PT368</name></trkpt>
<trkpt lat="52.935945" lon="-3.091815"><ele>181</ele><time>2019-09-27T09:42:40Z</time><name>PT369</name></trkpt>
<trkpt lat="52.935941" lon="-3.091834"><ele>181</ele><time>2019-09-27T09:42:41Z</time><name>PT370</name></trkpt>
<trkpt lat="52.935941" lon="-3.091868"><ele>181</ele><time>2019-09-27T09:42:43Z</time><name>PT371</name></trkpt>
<trkpt lat="52.935942" lon="-3.091889"><ele>180</ele><time>2019-09-27T09:42:44Z</time><name>PT372</name></trkpt>
<trkpt lat="52.935940" lon="-3.091900"><ele>181</ele><time>2019-09-27T09:42:45Z</time><name>PT373</name></trkpt>
<trkpt lat="52.935932" lon="-3.091917"><ele>180</ele><time>2019-09-27T09:42:46Z</time><name>PT374</name></trkpt>
<trkpt lat="52.935925" lon="-3.091928"><ele>180</ele><time>2019-09-27T09:42:47Z</time><name>PT375</name></trkpt>
<trkpt lat="52.935921" lon="-3.091934"><ele>180</ele><time>2019-09-27T09:42:48Z</time><name>PT376</name></trkpt>
<trkpt lat="52.935914" lon="-3.091955"><ele>180</ele><time>2019-09-27T09:42:49Z</time><name>PT377</name></trkpt>
<trkpt lat="52.935910" lon="-3.091969"><ele>180</ele><time>2019-09-27T09:42:50Z</time><name>PT378</name></trkpt>
<trkpt lat="52.935904" lon="-3.091982"><ele>180</ele><time>2019-09-27T09:42:51Z</time><name>PT379</name></trkpt>
<trkpt lat="52.935895" lon="-3.091998"><ele>179</ele><time>2019-09-27T09:42:52Z</time><name>PT380</name></trkpt>
<trkpt lat="52.935881" lon="-3.091999"><ele>179</ele><time>2019-09-27T09:42:53Z</time><name>PT381</name></trkpt>
<trkpt lat="52.935870" lon="-3.092017"><ele>180</ele><time>2019-09-27T09:42:54Z</time><name>PT382</name></trkpt>
<trkpt lat="52.935855" lon="-3.092035"><ele>180</ele><time>2019-09-27T09:42:55Z</time><name>PT383</name></trkpt>
<trkpt lat="52.935846" lon="-3.092062"><ele>180</ele><time>2019-09-27T09:42:56Z</time><name>PT384</name></trkpt>
<trkpt lat="52.935841" lon="-3.092078"><ele>181</ele><time>2019-09-27T09:42:57Z</time><name>PT385</name></trkpt>
<trkpt lat="52.935836" lon="-3.092086"><ele>181</ele><time>2019-09-27T09:42:58Z</time><name>PT386</name></trkpt>
<trkpt lat="52.935826" lon="-3.092099"><ele>181</ele><time>2019-09-27T09:42:59Z</time><name>PT387</name></trkpt>
<trkpt lat="52.935815" lon="-3.092107"><ele>180</ele><time>2019-09-27T09:43:00Z</time><name>PT388</name></trkpt>
<trkpt lat="52.935806" lon="-3.092113"><ele>180</ele><time>2019-09-27T09:43:01Z</time><name>PT389</name></trkpt>
<trkpt lat="52.935799" lon="-3.092123"><ele>180</ele><time>2019-09-27T09:43:02Z</time><name>PT390</name></trkpt>
<trkpt lat="52.935790" lon="-3.092131"><ele>180</ele><time>2019-09-27T09:43:03Z</time><name>PT391</name></trkpt>
<trkpt lat="52.935784" lon="-3.092140"><ele>180</ele><time>2019-09-27T09:43:04Z</time><name>PT392</name></trkpt>
<trkpt lat="52.935778" lon="-3.092149"><ele>180</ele><time>2019-09-27T09:43:05Z</time><name>PT393</name></trkpt>
<trkpt lat="52.935771" lon="-3.092159"><ele>180</ele><time>2019-09-27T09:43:06Z</time><name>PT394</name></trkpt>
<trkpt lat="52.935763" lon="-3.092171"><ele>180</ele><time>2019-09-27T09:43:07Z</time><name>PT395</name></trkpt>
<trkpt lat="52.935756" lon="-3.092174"><ele>180</ele><time>2019-09-27T09:43:08Z</time><name>PT396</name></trkpt>
<trkpt lat="52.935749" lon="-3.092191"><ele>180</ele><time>2019-09-27T09:43:09Z</time><name>PT397</name></trkpt>
<trkpt lat="52.935742" lon="-3.092202"><ele>180</ele><time>2019-09-27T09:43:10Z</time><name>PT398</name></trkpt>
<trkpt lat="52.935739" lon="-3.092213"><ele>180</ele><time>2019-09-27T09:43:11Z</time><name>PT399</name></trkpt>
<trkpt lat="52.935730" lon="-3.092218"><ele>179</ele><time>2019-09-27T09:43:12Z</time><name>PT400</name></trkpt>
<trkpt lat="52.935724" lon="-3.092231"><ele>179</ele><time>2019-09-27T09:43:13Z</time><name>PT401</name></trkpt>
<trkpt lat="52.935720" lon="-3.092240"><ele>178</ele><time>2019-09-27T09:43:14Z</time><name>PT402</name></trkpt>
<trkpt lat="52.935715" lon="-3.092246"><ele>179</ele><time>2019-09-27T09:43:15Z</time><name>PT403</name></trkpt>
<trkpt lat="52.935713" lon="-3.092251"><ele>179</ele><time>2019-09-27T09:43:16Z</time><name>PT404</name></trkpt>
<trkpt lat="52.935702" lon="-3.092278"><ele>179</ele><time>2019-09-27T09:43:57Z</time><name>PT405</name></trkpt>
<trkpt lat="52.935698" lon="-3.092286"><ele>179</ele><time>2019-09-27T09:43:58Z</time><name>PT406</name></trkpt>
<trkpt lat="52.935691" lon="-3.092289"><ele>179</ele><time>2019-09-27T09:43:59Z</time><name>PT407</name></trkpt>
<trkpt lat="52.935682" lon="-3.092303"><ele>179</ele><time>2019-09-27T09:44:00Z</time><name>PT408</name></trkpt>
<trkpt lat="52.935674" lon="-3.092312"><ele>179</ele><time>2019-09-27T09:44:01Z</time><name>PT409</name></trkpt>
<trkpt lat="52.935661" lon="-3.092315"><ele>179</ele><time>2019-09-27T09:44:02Z</time><name>PT410</name></trkpt>
<trkpt lat="52.935653" lon="-3.092320"><ele>179</ele><time>2019-09-27T09:44:03Z</time><name>PT411</name></trkpt>
<trkpt lat="52.935644" lon="-3.092320"><ele>178</ele><time>2019-09-27T09:44:10Z</time><name>PT412</name></trkpt>
<trkpt lat="52.935633" lon="-3.092335"><ele>178</ele><time>2019-09-27T09:44:11Z</time><name>PT413</name></trkpt>
<trkpt lat="52.935613" lon="-3.092361"><ele>178</ele><time>2019-09-27T09:44:13Z</time><name>PT414</name></trkpt>
<trkpt lat="52.935603" lon="-3.092371"><ele>178</ele><time>2019-09-27T09:44:14Z</time><name>PT415</name></trkpt>
<trkpt lat="52.935591" lon="-3.092372"><ele>177</ele><time>2019-09-27T09:44:15Z</time><name>PT416</name></trkpt>
<trkpt lat="52.935581" lon="-3.092385"><ele>177</ele><time>2019-09-27T09:44:16Z</time><name>PT417</name></trkpt>
<trkpt lat="52.935570" lon="-3.092391"><ele>177</ele><time>2019-09-27T09:44:17Z</time><name>PT418</name></trkpt>
<trkpt lat="52.935546" lon="-3.092418"><ele>176</ele><time>2019-09-27T09:44:19Z</time><name>PT419</name></trkpt>
<trkpt lat="52.935535" lon="-3.092426"><ele>176</ele><time>2019-09-27T09:44:20Z</time><name>PT420</name></trkpt>
<trkpt lat="52.935529" lon="-3.092435"><ele>176</ele><time>2019-09-27T09:44:21Z</time><name>PT421</name></trkpt>
<trkpt lat="52.935513" lon="-3.092442"><ele>176</ele><time>2019-09-27T09:44:22Z</time><name>PT422</name></trkpt>
<trkpt lat="52.935501" lon="-3.092448"><ele>176</ele><time>2019-09-27T09:44:23Z</time><name>PT423</name></trkpt>
<trkpt lat="52.935495" lon="-3.092459"><ele>175</ele><time>2019-09-27T09:44:24Z</time><name>PT424</name></trkpt>
<trkpt lat="52.935486" lon="-3.092460"><ele>175</ele><time>2019-09-27T09:44:25Z</time><name>PT425</name></trkpt>
<trkpt lat="52.935476" lon="-3.092458"><ele>175</ele><time>2019-09-27T09:44:26Z</time><name>PT426</name></trkpt>
<trkpt lat="52.935462" lon="-3.092461"><ele>175</ele><time>2019-09-27T09:44:27Z</time><name>PT427</name></trkpt>
<trkpt lat="52.935449" lon="-3.092470"><ele>175</ele><time>2019-09-27T09:44:28Z</time><name>PT428</name></trkpt>
<trkpt lat="52.935440" lon="-3.092474"><ele>175</ele><time>2019-09-27T09:44:29Z</time><name>PT429</name></trkpt>
<trkpt lat="52.935424" lon="-3.092488"><ele>174</ele><time>2019-09-27T09:44:30Z</time><name>PT430</name></trkpt>
<trkpt lat="52.935408" lon="-3.092504"><ele>173</ele><time>2019-09-27T09:44:31Z</time><name>PT431</name></trkpt>
<trkpt lat="52.935395" lon="-3.092511"><ele>173</ele><time>2019-09-27T09:44:32Z</time><name>PT432</name></trkpt>
<trkpt lat="52.935384" lon="-3.092514"><ele>173</ele><time>2019-09-27T09:44:33Z</time><name>PT433</name></trkpt>
<trkpt lat="52.935368" lon="-3.092516"><ele>172</ele><time>2019-09-27T09:44:34Z</time><name>PT434</name></trkpt>
<trkpt lat="52.935349" lon="-3.092526"><ele>172</ele><time>2019-09-27T09:44:35Z</time><name>PT435</name></trkpt>
<trkpt lat="52.935334" lon="-3.092532"><ele>172</ele><time>2019-09-27T09:44:36Z</time><name>PT436</name></trkpt>
<trkpt lat="52.935319" lon="-3.092535"><ele>171</ele><time>2019-09-27T09:44:37Z</time><name>PT437</name></trkpt>
<trkpt lat="52.935308" lon="-3.092544"><ele>171</ele><time>2019-09-27T09:44:38Z</time><name>PT438</name></trkpt>
<trkpt lat="52.935303" lon="-3.092544"><ele>170</ele><time>2019-09-27T09:44:39Z</time><name>PT439</name></trkpt>
<trkpt lat="52.935297" lon="-3.092549"><ele>170</ele><time>2019-09-27T09:44:40Z</time><name>PT440</name></trkpt>
<trkpt lat="52.935288" lon="-3.092552"><ele>170</ele><time>2019-09-27T09:44:41Z</time><name>PT441</name></trkpt>
<trkpt lat="52.935279" lon="-3.092555"><ele>169</ele><time>2019-09-27T09:44:42Z</time><name>PT442</name></trkpt>
<trkpt lat="52.935270" lon="-3.092552"><ele>168</ele><time>2019-09-27T09:44:43Z</time><name>PT443</name></trkpt>
<trkpt lat="52.935260" lon="-3.092555"><ele>167</ele><time>2019-09-27T09:44:44Z</time><name>PT444</name></trkpt>
<trkpt lat="52.935245" lon="-3.092555"><ele>167</ele><time>2019-09-27T09:44:45Z</time><name>PT445</name></trkpt>
<trkpt lat="52.935234" lon="-3.092563"><ele>168</ele><time>2019-09-27T09:44:46Z</time><name>PT446</name></trkpt>
<trkpt lat="52.935219" lon="-3.092563"><ele>168</ele><time>2019-09-27T09:44:47Z</time><name>PT447</name></trkpt>
<trkpt lat="52.935211" lon="-3.092569"><ele>168</ele><time>2019-09-27T09:44:48Z</time><name>PT448</name></trkpt>
<trkpt lat="52.935190" lon="-3.092573"><ele>167</ele><time>2019-09-27T09:44:49Z</time><name>PT449</name></trkpt>
<trkpt lat="52.935162" lon="-3.092579"><ele>166</ele><time>2019-09-27T09:44:50Z</time><name>PT450</name></trkpt>
<trkpt lat="52.935131" lon="-3.092587"><ele>165</ele><time>2019-09-27T09:44:51Z</time><name>PT451</name></trkpt>
<trkpt lat="52.935116" lon="-3.092589"><ele>164</ele><time>2019-09-27T09:44:52Z</time><name>PT452</name></trkpt>
<trkpt lat="52.935103" lon="-3.092595"><ele>163</ele><time>2019-09-27T09:44:53Z</time><name>PT453</name></trkpt>
<trkpt lat="52.935089" lon="-3.092601"><ele>163</ele><time>2019-09-27T09:44:54Z</time><name>PT454</name></trkpt>
<trkpt lat="52.935076" lon="-3.092602"><ele>162</ele><time>2019-09-27T09:44:55Z</time><name>PT455</name></trkpt>
<trkpt lat="52.935064" lon="-3.092607"><ele>160</ele><time>2019-09-27T09:44:56Z</time><name>PT456</name></trkpt>
<trkpt lat="52.935054" lon="-3.092606"><ele>157</ele><time>2019-09-27T09:44:57Z</time><name>PT457</name></trkpt>
<trkpt lat="52.935036" lon="-3.092605"><ele>157</ele><time>2019-09-27T09:44:58Z</time><name>PT458</name></trkpt>
<trkpt lat="52.935016" lon="-3.092605"><ele>158</ele><time>2019-09-27T09:44:59Z</time><name>PT459</name></trkpt>
<trkpt lat="52.935001" lon="-3.092610"><ele>158</ele><time>2019-09-27T09:45:00Z</time><name>PT460</name></trkpt>
<trkpt lat="52.934991" lon="-3.092612"><ele>157</ele><time>2019-09-27T09:45:01Z</time><name>PT461</name></trkpt>
<trkpt lat="52.934977" lon="-3.092613"><ele>157</ele><time>2019-09-27T09:45:02Z</time><name>PT462</name></trkpt>
<trkpt lat="52.934971" lon="-3.092617"><ele>156</ele><time>2019-09-27T09:45:03Z</time><name>PT463</name></trkpt>
<trkpt lat="52.934967" lon="-3.092618"><ele>156</ele><time>2019-09-27T09:45:04Z</time><name>PT464</name></trkpt>
<trkpt lat="52.934959" lon="-3.092624"><ele>155</ele><time>2019-09-27T09:45:05Z</time><name>PT465</name></trkpt>
<trkpt lat="52.934942" lon="-3.092628"><ele>158</ele><time>2019-09-27T09:45:06Z</time><name>PT466</name></trkpt>
<trkpt lat="52.934921" lon="-3.092620"><ele>157</ele><time>2019-09-27T09:45:07Z</time><name>PT467</name></trkpt>
<trkpt lat="52.934911" lon="-3.092620"><ele>156</ele><time>2019-09-27T09:45:08Z</time><name>PT468</name></trkpt>
<trkpt lat="52.934901" lon="-3.092621"><ele>156</ele><time>2019-09-27T09:45:09Z</time><name>PT469</name></trkpt>
<trkpt lat="52.934891" lon="-3.092621"><ele>156</ele><time>2019-09-27T09:45:10Z</time><name>PT470</name></trkpt>
<trkpt lat="52.934883" lon="-3.092618"><ele>156</ele><time>2019-09-27T09:45:11Z</time><name>PT471</name></trkpt>
<trkpt lat="52.934876" lon="-3.092613"><ele>156</ele><time>2019-09-27T09:45:12Z</time><name>PT472</name></trkpt>
<trkpt lat="52.934874" lon="-3.092609"><ele>155</ele><time>2019-09-27T09:45:13Z</time><name>PT473</name></trkpt>
<trkpt lat="52.934865" lon="-3.092606"><ele>154</ele><time>2019-09-27T09:45:14Z</time><name>PT474</name></trkpt>
<trkpt lat="52.934858" lon="-3.092600"><ele>153</ele><time>2019-09-27T09:45:15Z</time><name>PT475</name></trkpt>
<trkpt lat="52.934848" lon="-3.092594"><ele>153</ele><time>2019-09-27T09:45:16Z</time><name>PT476</name></trkpt>
<trkpt lat="52.934836" lon="-3.092589"><ele>152</ele><time>2019-09-27T09:45:18Z</time><name>PT477</name></trkpt>
<trkpt lat="52.934823" lon="-3.092584"><ele>152</ele><time>2019-09-27T09:45:19Z</time><name>PT478</name></trkpt>
<trkpt lat="52.934806" lon="-3.092592"><ele>154</ele><time>2019-09-27T09:45:20Z</time><name>PT479</name></trkpt>
<trkpt lat="52.934793" lon="-3.092595"><ele>154</ele><time>2019-09-27T09:45:21Z</time><name>PT480</name></trkpt>
<trkpt lat="52.934791" lon="-3.092593"><ele>154</ele><time>2019-09-27T09:45:22Z</time><name>PT481</name></trkpt>
<trkpt lat="52.934778" lon="-3.092599"><ele>154</ele><time>2019-09-27T09:45:23Z</time><name>PT482</name></trkpt>
<trkpt lat="52.934759" lon="-3.092609"><ele>156</ele><time>2019-09-27T09:45:24Z</time><name>PT483</name></trkpt>
<trkpt lat="52.934741" lon="-3.092616"><ele>157</ele><time>2019-09-27T09:45:25Z</time><name>PT484</name></trkpt>
<trkpt lat="52.934726" lon="-3.092617"><ele>159</ele><time>2019-09-27T09:45:26Z</time><name>PT485</name></trkpt>
<trkpt lat="52.934718" lon="-3.092620"><ele>159</ele><time>2019-09-27T09:45:27Z</time><name>PT486</name></trkpt>
<trkpt lat="52.934712" lon="-3.092624"><ele>159</ele><time>2019-09-27T09:45:28Z</time><name>PT487</name></trkpt>
<trkpt lat="52.934703" lon="-3.092621"><ele>160</ele><time>2019-09-27T09:45:29Z</time><name>PT488</name></trkpt>
<trkpt lat="52.934689" lon="-3.092626"><ele>160</ele><time>2019-09-27T09:45:30Z</time><name>PT489</name></trkpt>
<trkpt lat="52.934684" lon="-3.092631"><ele>160</ele><time>2019-09-27T09:45:31Z</time><name>PT490</name></trkpt>
<trkpt lat="52.934670" lon="-3.092633"><ele>161</ele><time>2019-09-27T09:45:32Z</time><name>PT491</name></trkpt>
<trkpt lat="52.934663" lon="-3.092629"><ele>160</ele><time>2019-09-27T09:45:33Z</time><name>PT492</name></trkpt>
<trkpt lat="52.934659" lon="-3.092628"><ele>159</ele><time>2019-09-27T09:45:34Z</time><name>PT493</name></trkpt>
<trkpt lat="52.934643" lon="-3.092628"><ele>159</ele><time>2019-09-27T09:45:35Z</time><name>PT494</name></trkpt>
<trkpt lat="52.934627" lon="-3.092628"><ele>159</ele><time>2019-09-27T09:45:36Z</time><name>PT495</name></trkpt>
<trkpt lat="52.934614" lon="-3.092632"><ele>159</ele><time>2019-09-27T09:45:37Z</time><name>PT496</name></trkpt>
<trkpt lat="52.934598" lon="-3.092638"><ele>158</ele><time>2019-09-27T09:45:38Z</time><name>PT497</name></trkpt>
<trkpt lat="52.934590" lon="-3.092636"><ele>157</ele><time>2019-09-27T09:45:39Z</time><name>PT498</name></trkpt>
<trkpt lat="52.934581" lon="-3.092640"><ele>156</ele><time>2019-09-27T09:45:40Z</time><name>PT499</name></trkpt>
<trkpt lat="52.934573" lon="-3.092646"><ele>156</ele><time>2019-09-27T09:45:41Z</time><name>PT500</name></trkpt>
<trkpt lat="52.934560" lon="-3.092653"><ele>157</ele><time>2019-09-27T09:45:42Z</time><name>PT501</name></trkpt>
<trkpt lat="52.934556" lon="-3.092653"><ele>156</ele><time>2019-09-27T09:45:43Z</time><name>PT502</name></trkpt>
<trkpt lat="52.934548" lon="-3.092650"><ele>154</ele><time>2019-09-27T09:45:44Z</time><name>PT503</name></trkpt>
<trkpt lat="52.934538" lon="-3.092656"><ele>154</ele><time>2019-09-27T09:45:45Z</time><name>PT504</name></trkpt>
<trkpt lat="52.934523" lon="-3.092654"><ele>154</ele><time>2019-09-27T09:45:46Z</time><name>PT505</name></trkpt>
<trkpt lat="52.934518" lon="-3.092652"><ele>153</ele><time>2019-09-27T09:45:47Z</time><name>PT506</name></trkpt>
<trkpt lat="52.934507" lon="-3.092649"><ele>152</ele><time>2019-09-27T09:45:48Z</time><name>PT507</name></trkpt>
<trkpt lat="52.934497" lon="-3.092644"><ele>152</ele><time>2019-09-27T09:45:49Z</time><name>PT508</name></trkpt>
<trkpt lat="52.934471" lon="-3.092631"><ele>152</ele><time>2019-09-27T09:45:50Z</time><name>PT509</name></trkpt>
<trkpt lat="52.934450" lon="-3.092632"><ele>153</ele><time>2019-09-27T09:45:51Z</time><name>PT510</name></trkpt>
<trkpt lat="52.934438" lon="-3.092633"><ele>153</ele><time>2019-09-27T09:45:52Z</time><name>PT511</name></trkpt>
<trkpt lat="52.934399" lon="-3.092634"><ele>154</ele><time>2019-09-27T09:45:53Z</time><name>PT512</name></trkpt>
<trkpt lat="52.934377" lon="-3.092636"><ele>155</ele><time>2019-09-27T09:45:54Z</time><name>PT513</name></trkpt>
<trkpt lat="52.934374" lon="-3.092630"><ele>153</ele><time>2019-09-27T09:45:55Z</time><name>PT514</name></trkpt>
<trkpt lat="52.934359" lon="-3.092623"><ele>155</ele><time>2019-09-27T09:45:56Z</time><name>PT515</name></trkpt>
<trkpt lat="52.934365" lon="-3.092608"><ele>151</ele><time>2019-09-27T09:45:57Z</time><name>PT516</name></trkpt>
<trkpt lat="52.934345" lon="-3.092597"><ele>152</ele><time>2019-09-27T09:45:58Z</time><name>PT517</name></trkpt>
<trkpt lat="52.934336" lon="-3.092591"><ele>151</ele><time>2019-09-27T09:45:59Z</time><name>PT518</name></trkpt>
<trkpt lat="52.934324" lon="-3.092587"><ele>151</ele><time>2019-09-27T09:46:00Z</time><name>PT519</name></trkpt>
<trkpt lat="52.934314" lon="-3.092572"><ele>151</ele><time>2019-09-27T09:46:01Z</time><name>PT520</name></trkpt>
<trkpt lat="52.934303" lon="-3.092564"><ele>151</ele><time>2019-09-27T09:46:02Z</time><name>PT521</name></trkpt>
<trkpt lat="52.934303" lon="-3.092557"><ele>149</ele><time>2019-09-27T09:46:03Z</time><name>PT522</name></trkpt>
<trkpt lat="52.934292" lon="-3.092557"><ele>149</ele><time>2019-09-27T09:46:04Z</time><name>PT523</name></trkpt>
<trkpt lat="52.934281" lon="-3.092550"><ele>148</ele><time>2019-09-27T09:46:05Z</time><name>PT524</name></trkpt>
<trkpt lat="52.934264" lon="-3.092546"><ele>149</ele><time>2019-09-27T09:46:06Z</time><name>PT525</name></trkpt>
<trkpt lat="52.934249" lon="-3.092551"><ele>149</ele><time>2019-09-27T09:46:07Z</time><name>PT526</name></trkpt>
<trkpt lat="52.934225" lon="-3.092552"><ele>151</ele><time>2019-09-27T09:46:08Z</time><name>PT527</name></trkpt>
<trkpt lat="52.934200" lon="-3.092560"><ele>152</ele><time>2019-09-27T09:46:09Z</time><name>PT528</name></trkpt>
<trkpt lat="52.934184" lon="-3.092573"><ele>152</ele><time>2019-09-27T09:46:10Z</time><name>PT529</name></trkpt>
<trkpt lat="52.934170" lon="-3.092581"><ele>152</ele><time>2019-09-27T09:46:11Z</time><name>PT530</name></trkpt>
<trkpt lat="52.934150" lon="-3.092594"><ele>153</ele><time>2019-09-27T09:46:12Z</time><name>PT531</name></trkpt>
<trkpt lat="52.934131" lon="-3.092606"><ele>154</ele><time>2019-09-27T09:46:13Z</time><name>PT532</name></trkpt>
<trkpt lat="52.934119" lon="-3.092616"><ele>154</ele><time>2019-09-27T09:46:14Z</time><name>PT533</name></trkpt>
<trkpt lat="52.934112" lon="-3.092628"><ele>154</ele><time>2019-09-27T09:46:15Z</time><name>PT534</name></trkpt>
<trkpt lat="52.934101" lon="-3.092646"><ele>154</ele><time>2019-09-27T09:46:16Z</time><name>PT535</name></trkpt>
<trkpt lat="52.934094" lon="-3.092663"><ele>154</ele><time>2019-09-27T09:46:17Z</time><name>PT536</name></trkpt>
<trkpt lat="52.934085" lon="-3.092680"><ele>154</ele><time>2019-09-27T09:46:18Z</time><name>PT537</name></trkpt>
<trkpt lat="52.934079" lon="-3.092697"><ele>153</ele><time>2019-09-27T09:46:19Z</time><name>PT538</name></trkpt>
<trkpt lat="52.934067" lon="-3.092721"><ele>153</ele><time>2019-09-27T09:46:20Z</time><name>PT539</name></trkpt>
<trkpt lat="52.934058" lon="-3.092741"><ele>153</ele><time>2019-09-27T09:46:21Z</time><name>PT540</name></trkpt>
<trkpt lat="52.934050" lon="-3.092760"><ele>153</ele><time>2019-09-27T09:46:22Z</time><name>PT541</name></trkpt>
<trkpt lat="52.934043" lon="-3.092775"><ele>152</ele><time>2019-09-27T09:46:23Z</time><name>PT542</name></trkpt>
<trkpt lat="52.934033" lon="-3.092791"><ele>152</ele><time>2019-09-27T09:46:24Z</time><name>PT543</name></trkpt>
<trkpt lat="52.934020" lon="-3.092808"><ele>152</ele><time>2019-09-27T09:46:25Z</time><name>PT544</name></trkpt>
<trkpt lat="52.934008" lon="-3.092825"><ele>153</ele><time>2019-09-27T09:46:26Z</time><name>PT545</name></trkpt>
<trkpt lat="52.934001" lon="-3.092839"><ele>152</ele><time>2019-09-27T09:46:27Z</time><name>PT546</name></trkpt>
<trkpt lat="52.933990" lon="-3.092857"><ele>153</ele><time>2019-09-27T09:46:28Z</time><name>PT547</name></trkpt>
<trkpt lat="52.933982" lon="-3.092878"><ele>152</ele><time>2019-09-27T09:46:29Z</time><name>PT548</name></trkpt>
<trkpt lat="52.933971" lon="-3.092894"><ele>152</ele><time>2019-09-27T09:46:30Z</time><name>PT549</name></trkpt>
<trkpt lat="52.933962" lon="-3.092909"><ele>152</ele><time>2019-09-27T09:46:31Z</time><name>PT550</name></trkpt>
<trkpt lat="52.933953" lon="-3.092925"><ele>151</ele><time>2019-09-27T09:46:32Z</time><name>PT551</name></trkpt>
<trkpt lat="52.933944" lon="-3.092942"><ele>151</ele><time>2019-09-27T09:46:33Z</time><name>PT552</name></trkpt>
<trkpt lat="52.933936" lon="-3.092956"><ele>151</ele><time>2019-09-27T09:46:34Z</time><name>PT553</name></trkpt>
<trkpt lat="52.933927" lon="-3.092969"><ele>151</ele><time>2019-09-27T09:46:35Z</time><name>PT554</name></trkpt>
<trkpt lat="52.933912" lon="-3.092983"><ele>151</ele><time>2019-09-27T09:46:36Z</time><name>PT555</name></trkpt>
<trkpt lat="52.933898" lon="-3.092997"><ele>151</ele><time>2019-09-27T09:46:37Z</time><name>PT556</name></trkpt>
<trkpt lat="52.933885" lon="-3.093009"><ele>151</ele><time>2019-09-27T09:46:38Z</time><name>PT557</name></trkpt>
<trkpt lat="52.933877" lon="-3.093016"><ele>151</ele><time>2019-09-27T09:46:39Z</time><name>PT558</name></trkpt>
<trkpt lat="52.933868" lon="-3.093024"><ele>151</ele><time>2019-09-27T09:46:40Z</time><name>PT559</name></trkpt>
<trkpt lat="52.933857" lon="-3.093030"><ele>151</ele><time>2019-09-27T09:46:41Z</time><name>PT560</name></trkpt>
<trkpt lat="52.933845" lon="-3.093038"><ele>151</ele><time>2019-09-27T09:46:42Z</time><name>PT561</name></trkpt>
<trkpt lat="52.933835" lon="-3.093047"><ele>150</ele><time>2019-09-27T09:46:43Z</time><name>PT562</name></trkpt>
<trkpt lat="52.933819" lon="-3.093054"><ele>150</ele><time>2019-09-27T09:46:44Z</time><name>PT563</name></trkpt>
<trkpt lat="52.933806" lon="-3.093062"><ele>150</ele><time>2019-09-27T09:46:45Z</time><name>PT564</name></trkpt>
<trkpt lat="52.933797" lon="-3.093068"><ele>150</ele><time>2019-09-27T09:46:46Z</time><name>PT565</name></trkpt>
<trkpt lat="52.933788" lon="-3.093072"><ele>150</ele><time>2019-09-27T09:46:47Z</time><name>PT566</name></trkpt>
<trkpt lat="52.933777" lon="-3.093079"><ele>150</ele><time>2019-09-27T09:46:48Z</time><name>PT567</name></trkpt>
<trkpt lat="52.933764" lon="-3.093087"><ele>150</ele><time>2019-09-27T09:46:49Z</time><name>PT568</name></trkpt>
<trkpt lat="52.933751" lon="-3.093096"><ele>151</ele><time>2019-09-27T09:46:50Z</time><name>PT569</name></trkpt>
<trkpt lat="52.933726" lon="-3.093118"><ele>150</ele><time>2019-09-27T09:46:52Z</time><name>PT570</name></trkpt>
<trkpt lat="52.933714" lon="-3.093125"><ele>149</ele><time>2019-09-27T09:46:53Z</time><name>PT571</name></trkpt>
<trkpt lat="52.933704" lon="-3.093132"><ele>149</ele><time>2019-09-27T09:46:54Z</time><name>PT572</name></trkpt>
<trkpt lat="52.933694" lon="-3.093137"><ele>148</ele><time>2019-09-27T09:46:55Z</time><name>PT573</name></trkpt>
<trkpt lat="52.933683" lon="-3.093144"><ele>148</ele><time>2019-09-27T09:46:56Z</time><name>PT574</name></trkpt>
<trkpt lat="52.933674" lon="-3.093152"><ele>148</ele><time>2019-09-27T09:46:57Z</time><name>PT575</name></trkpt>
<trkpt lat="52.933663" lon="-3.093158"><ele>148</ele><time>2019-09-27T09:46:58Z</time><name>PT576</name></trkpt>
<trkpt lat="52.933652" lon="-3.093166"><ele>147</ele><time>2019-09-27T09:46:59Z</time><name>PT577</name></trkpt>
<trkpt lat="52.933639" lon="-3.093172"><ele>148</ele><time>2019-09-27T09:47:00Z</time><name>PT578</name></trkpt>
<trkpt lat="52.933629" lon="-3.093176"><ele>147</ele><time>2019-09-27T09:47:01Z</time><name>PT579</name></trkpt>
<trkpt lat="52.933622" lon="-3.093180"><ele>147</ele><time>2019-09-27T09:47:02Z</time><name>PT580</name></trkpt>
<trkpt lat="52.933614" lon="-3.093186"><ele>147</ele><time>2019-09-27T09:47:03Z</time><name>PT581</name></trkpt>
<trkpt lat="52.933604" lon="-3.093191"><ele>146</ele><time>2019-09-27T09:47:04Z</time><name>PT582</name></trkpt>
<trkpt lat="52.933592" lon="-3.093198"><ele>146</ele><time>2019-09-27T09:47:05Z</time><name>PT583</name></trkpt>
<trkpt lat="52.933581" lon="-3.093205"><ele>146</ele><time>2019-09-27T09:47:06Z</time><name>PT584</name></trkpt>
<trkpt lat="52.933570" lon="-3.093211"><ele>146</ele><time>2019-09-27T09:47:07Z</time><name>PT585</name></trkpt>
<trkpt lat="52.933557" lon="-3.093217"><ele>146</ele><time>2019-09-27T09:47:08Z</time><name>PT586</name></trkpt>
<trkpt lat="52.933544" lon="-3.093223"><ele>146</ele><time>2019-09-27T09:47:09Z</time><name>PT587</name></trkpt>
<trkpt lat="52.933530" lon="-3.093232"><ele>146</ele><time>2019-09-27T09:47:10Z</time><name>PT588</name></trkpt>
<trkpt lat="52.933517" lon="-3.093239"><ele>146</ele><time>2019-09-27T09:47:11Z</time><name>PT589</name></trkpt>
<trkpt lat="52.933508" lon="-3.093247"><ele>145</ele><time>2019-09-27T09:47:12Z</time><name>PT590</name></trkpt>
<trkpt lat="52.933501" lon="-3.093253"><ele>145</ele><time>2019-09-27T09:47:13Z</time><name>PT591</name></trkpt>
<trkpt lat="52.933490" lon="-3.093259"><ele>145</ele><time>2019-09-27T09:47:14Z</time><name>PT592</name></trkpt>
<trkpt lat="52.933479" lon="-3.093267"><ele>145</ele><time>2019-09-27T09:47:15Z</time><name>PT593</name></trkpt>
<trkpt lat="52.933468" lon="-3.093274"><ele>145</ele><time>2019-09-27T09:47:16Z</time><name>PT594</name></trkpt>
<trkpt lat="52.933457" lon="-3.093283"><ele>144</ele><time>2019-09-27T09:47:17Z</time><name>PT595</name></trkpt>
<trkpt lat="52.933447" lon="-3.093293"><ele>144</ele><time>2019-09-27T09:47:18Z</time><name>PT596</name></trkpt>
<trkpt lat="52.933434" lon="-3.093301"><ele>143</ele><time>2019-09-27T09:47:19Z</time><name>PT597</name></trkpt>
<trkpt lat="52.933422" lon="-3.093313"><ele>143</ele><time>2019-09-27T09:47:20Z</time><name>PT598</name></trkpt>
<trkpt lat="52.933410" lon="-3.093324"><ele>142</ele><time>2019-09-27T09:47:21Z</time><name>PT599</name></trkpt>
<trkpt lat="52.933397" lon="-3.093331"><ele>142</ele><time>2019-09-27T09:47:22Z</time><name>PT600</name></trkpt>
<trkpt lat="52.933385" lon="-3.093336"><ele>142</ele><time>2019-09-27T09:47:23Z</time><name>PT601</name></trkpt>
<trkpt lat="52.933372" lon="-3.093342"><ele>142</ele><time>2019-09-27T09:47:24Z</time><name>PT602</name></trkpt>
<trkpt lat="52.933359" lon="-3.093349"><ele>142</ele><time>2019-09-27T09:47:25Z</time><name>PT603</name></trkpt>
<trkpt lat="52.933348" lon="-3.093355"><ele>142</ele><time>2019-09-27T09:47:26Z</time><name>PT604</name></trkpt>
<trkpt lat="52.933333" lon="-3.093362"><ele>142</ele><time>2019-09-27T09:47:27Z</time><name>PT605</name></trkpt>
<trkpt lat="52.933319" lon="-3.093368"><ele>143</ele><time>2019-09-27T09:47:28Z</time><name>PT606</name></trkpt>
<trkpt lat="52.933309" lon="-3.093374"><ele>143</ele><time>2019-09-27T09:47:29Z</time><name>PT607</name></trkpt>
<trkpt lat="52.933298" lon="-3.093381"><ele>142</ele><time>2019-09-27T09:47:30Z</time><name>PT608</name></trkpt>
<trkpt lat="52.933286" lon="-3.093389"><ele>141</ele><time>2019-09-27T09:47:31Z</time><name>PT609</name></trkpt>
<trkpt lat="52.933277" lon="-3.093396"><ele>141</ele><time>2019-09-27T09:47:32Z</time><name>PT610</name></trkpt>
<trkpt lat="52.933267" lon="-3.093402"><ele>140</ele><time>2019-09-27T09:47:33Z</time><name>PT611</name></trkpt>
<trkpt lat="52.933260" lon="-3.093412"><ele>140</ele><time>2019-09-27T09:47:34Z</time><name>PT612</name></trkpt>
<trkpt lat="52.933253" lon="-3.093420"><ele>139</ele><time>2019-09-27T09:47:35Z</time><name>PT613</name></trkpt>
<trkpt lat="52.933238" lon="-3.093428"><ele>140</ele><time>2019-09-27T09:47:36Z</time><name>PT614</name></trkpt>
<trkpt lat="52.933224" lon="-3.093435"><ele>140</ele><time>2019-09-27T09:47:37Z</time><name>PT615</name></trkpt>
<trkpt lat="52.933212" lon="-3.093441"><ele>140</ele><time>2019-09-27T09:47:38Z</time><name>PT616</name></trkpt>
<trkpt lat="52.933204" lon="-3.093451"><ele>139</ele><time>2019-09-27T09:47:39Z</time><name>PT617</name></trkpt>
<trkpt lat="52.933195" lon="-3.093465"><ele>138</ele><time>2019-09-27T09:47:40Z</time><name>PT618</name></trkpt>
<trkpt lat="52.933184" lon="-3.093474"><ele>138</ele><time>2019-09-27T09:47:41Z</time><name>PT619</name></trkpt>
<trkpt lat="52.933177" lon="-3.093481"><ele>137</ele><time>2019-09-27T09:47:42Z</time><name>PT620</name></trkpt>
<trkpt lat="52.933164" lon="-3.093491"><ele>137</ele><time>2019-09-27T09:47:43Z</time><name>PT621</name></trkpt>
<trkpt lat="52.933153" lon="-3.093500"><ele>137</ele><time>2019-09-27T09:47:44Z</time><name>PT622</name></trkpt>
<trkpt lat="52.933138" lon="-3.093508"><ele>137</ele><time>2019-09-27T09:47:45Z</time><name>PT623</name></trkpt>
<trkpt lat="52.933128" lon="-3.093516"><ele>137</ele><time>2019-09-27T09:47:46Z</time><name>PT624</name></trkpt>
<trkpt lat="52.933114" lon="-3.093524"><ele>136</ele><time>2019-09-27T09:47:47Z</time><name>PT625</name></trkpt>
<trkpt lat="52.933104" lon="-3.093530"><ele>136</ele><time>2019-09-27T09:47:48Z</time><name>PT626</name></trkpt>
<trkpt lat="52.933092" lon="-3.093537"><ele>136</ele><time>2019-09-27T09:47:49Z</time><name>PT627</name></trkpt>
<trkpt lat="52.933084" lon="-3.093545"><ele>135</ele><time>2019-09-27T09:47:50Z</time><name>PT628</name></trkpt>
<trkpt lat="52.933076" lon="-3.093555"><ele>135</ele><time>2019-09-27T09:47:51Z</time><name>PT629</name></trkpt>
<trkpt lat="52.933062" lon="-3.093562"><ele>135</ele><time>2019-09-27T09:47:52Z</time><name>PT630</name></trkpt>
<trkpt lat="52.933057" lon="-3.093574"><ele>134</ele><time>2019-09-27T09:47:53Z</time><name>PT631</name></trkpt>
<trkpt lat="52.933044" lon="-3.093583"><ele>134</ele><time>2019-09-27T09:47:54Z</time><name>PT632</name></trkpt>
<trkpt lat="52.933031" lon="-3.093595"><ele>134</ele><time>2019-09-27T09:47:55Z</time><name>PT633</name></trkpt>
<trkpt lat="52.933017" lon="-3.093603"><ele>134</ele><time>2019-09-27T09:47:56Z</time><name>PT634</name></trkpt>
<trkpt lat="52.932994" lon="-3.093619"><ele>134</ele><time>2019-09-27T09:47:58Z</time><name>PT635</name></trkpt>
<trkpt lat="52.932980" lon="-3.093627"><ele>134</ele><time>2019-09-27T09:47:59Z</time><name>PT636</name></trkpt>
<trkpt lat="52.932970" lon="-3.093636"><ele>134</ele><time>2019-09-27T09:48:00Z</time><name>PT637</name></trkpt>
<trkpt lat="52.932962" lon="-3.093644"><ele>133</ele><time>2019-09-27T09:48:01Z</time><name>PT638</name></trkpt>
<trkpt lat="52.932951" lon="-3.093650"><ele>133</ele><time>2019-09-27T09:48:02Z</time><name>PT639</name></trkpt>
<trkpt lat="52.932940" lon="-3.093656"><ele>132</ele><time>2019-09-27T09:48:03Z</time><name>PT640</name></trkpt>
<trkpt lat="52.932929" lon="-3.093660"><ele>132</ele><time>2019-09-27T09:48:04Z</time><name>PT641</name></trkpt>
<trkpt lat="52.932916" lon="-3.093670"><ele>132</ele><time>2019-09-27T09:48:05Z</time><name>PT642</name></trkpt>
<trkpt lat="52.932900" lon="-3.093675"><ele>132</ele><time>2019-09-27T09:48:06Z</time><name>PT643</name></trkpt>
<trkpt lat="52.932886" lon="-3.093682"><ele>132</ele><time>2019-09-27T09:48:07Z</time><name>PT644</name></trkpt>
<trkpt lat="52.932874" lon="-3.093690"><ele>132</ele><time>2019-09-27T09:48:08Z</time><name>PT645</name></trkpt>
<trkpt lat="52.932863" lon="-3.093700"><ele>132</ele><time>2019-09-27T09:48:09Z</time><name>PT646</name></trkpt>
<trkpt lat="52.932850" lon="-3.093709"><ele>133</ele><time>2019-09-27T09:48:10Z</time><name>PT647</name></trkpt>
<trkpt lat="52.932839" lon="-3.093719"><ele>133</ele><time>2019-09-27T09:48:11Z</time><name>PT648</name></trkpt>
<trkpt lat="52.932829" lon="-3.093728"><ele>133</ele><time>2019-09-27T09:48:12Z</time><name>PT649</name></trkpt>
<trkpt lat="52.932821" lon="-3.093743"><ele>133</ele><time>2019-09-27T09:48:13Z</time><name>PT650</name></trkpt>
<trkpt lat="52.932803" lon="-3.093770"><ele>132</ele><time>2019-09-27T09:48:15Z</time><name>PT651</name></trkpt>
<trkpt lat="52.932795" lon="-3.093780"><ele>132</ele><time>2019-09-27T09:48:16Z</time><name>PT652</name></trkpt>
<trkpt lat="52.932785" lon="-3.093790"><ele>132</ele><time>2019-09-27T09:48:17Z</time><name>PT653</name></trkpt>
<trkpt lat="52.932779" lon="-3.093797"><ele>132</ele><time>2019-09-27T09:48:18Z</time><name>PT654</name></trkpt>
<trkpt lat="52.932766" lon="-3.093803"><ele>132</ele><time>2019-09-27T09:48:19Z</time><name>PT655</name></trkpt>
<trkpt lat="52.932756" lon="-3.093810"><ele>132</ele><time>2019-09-27T09:48:20Z</time><name>PT656</name></trkpt>
<trkpt lat="52.932747" lon="-3.093817"><ele>131</ele><time>2019-09-27T09:48:21Z</time><name>PT657</name></trkpt>
<trkpt lat="52.932736" lon="-3.093826"><ele>132</ele><time>2019-09-27T09:48:22Z</time><name>PT658</name></trkpt>
<trkpt lat="52.932725" lon="-3.093837"><ele>132</ele><time>2019-09-27T09:48:23Z</time><name>PT659</name></trkpt>
<trkpt lat="52.932712" lon="-3.093845"><ele>132</ele><time>2019-09-27T09:48:24Z</time><name>PT660</name></trkpt>
<trkpt lat="52.932702" lon="-3.093855"><ele>131</ele><time>2019-09-27T09:48:25Z</time><name>PT661</name></trkpt>
<trkpt lat="52.932691" lon="-3.093864"><ele>131</ele><time>2019-09-27T09:48:26Z</time><name>PT662</name></trkpt>
<trkpt lat="52.932682" lon="-3.093872"><ele>131</ele><time>2019-09-27T09:48:27Z</time><name>PT663</name></trkpt>
<trkpt lat="52.932673" lon="-3.093879"><ele>130</ele><time>2019-09-27T09:48:28Z</time><name>PT664</name></trkpt>
<trkpt lat="52.932664" lon="-3.093887"><ele>130</ele><time>2019-09-27T09:48:29Z</time><name>PT665</name></trkpt>
<trkpt lat="52.932650" lon="-3.093892"><ele>130</ele><time>2019-09-27T09:48:30Z</time><name>PT666</name></trkpt>
<trkpt lat="52.932637" lon="-3.093901"><ele>131</ele><time>2019-09-27T09:48:31Z</time><name>PT667</name></trkpt>
<trkpt lat="52.932628" lon="-3.093909"><ele>130</ele><time>2019-09-27T09:48:32Z</time><name>PT668</name></trkpt>
<trkpt lat="52.932621" lon="-3.093917"><ele>130</ele><time>2019-09-27T09:48:33Z</time><name>PT669</name></trkpt>
<trkpt lat="52.932611" lon="-3.093926"><ele>130</ele><time>2019-09-27T09:48:34Z</time><name>PT670</name></trkpt>
<trkpt lat="52.932605" lon="-3.093940"><ele>129</ele><time>2019-09-27T09:48:35Z</time><name>PT671</name></trkpt>
<trkpt lat="52.932590" lon="-3.093948"><ele>130</ele><time>2019-09-27T09:48:36Z</time><name>PT672</name></trkpt>
<trkpt lat="52.932577" lon="-3.093957"><ele>130</ele><time>2019-09-27T09:48:37Z</time><name>PT673</name></trkpt>
<trkpt lat="52.932566" lon="-3.093969"><ele>130</ele><time>2019-09-27T09:48:38Z</time><name>PT674</name></trkpt>
<trkpt lat="52.932558" lon="-3.093978"><ele>130</ele><time>2019-09-27T09:48:39Z</time><name>PT675</name></trkpt>
<trkpt lat="52.932547" lon="-3.093987"><ele>130</ele><time>2019-09-27T09:48:40Z</time><name>PT676</name></trkpt>
<trkpt lat="52.932536" lon="-3.093997"><ele>130</ele><time>2019-09-27T09:48:41Z</time><name>PT677</name></trkpt>
<trkpt lat="52.932524" lon="-3.094005"><ele>130</ele><time>2019-09-27T09:48:42Z</time><name>PT678</name></trkpt>
<trkpt lat="52.932514" lon="-3.094014"><ele>130</ele><time>2019-09-27T09:48:43Z</time><name>PT679</name></trkpt>
<trkpt lat="52.932507" lon="-3.094024"><ele>129</ele><time>2019-09-27T09:48:44Z</time><name>PT680</name></trkpt>
<trkpt lat="52.932496" lon="-3.094033"><ele>129</ele><time>2019-09-27T09:48:45Z</time><name>PT681</name></trkpt>
<trkpt lat="52.932486" lon="-3.094043"><ele>129</ele><time>2019-09-27T09:48:46Z</time><name>PT682</name></trkpt>
<trkpt lat="52.932473" lon="-3.094053"><ele>129</ele><time>2019-09-27T09:48:47Z</time><name>PT683</name></trkpt>
<trkpt lat="52.932463" lon="-3.094065"><ele>129</ele><time>2019-09-27T09:48:48Z</time><name>PT684</name></trkpt>
<trkpt lat="52.932453" lon="-3.094076"><ele>129</ele><time>2019-09-27T09:48:49Z</time><name>PT685</name></trkpt>
<trkpt lat="52.932439" lon="-3.094086"><ele>129</ele><time>2019-09-27T09:48:50Z</time><name>PT686</name></trkpt>
<trkpt lat="52.932431" lon="-3.094095"><ele>129</ele><time>2019-09-27T09:48:51Z</time><name>PT687</name></trkpt>
<trkpt lat="52.932423" lon="-3.094106"><ele>128</ele><time>2019-09-27T09:48:52Z</time><name>PT688</name></trkpt>
<trkpt lat="52.932409" lon="-3.094113"><ele>128</ele><time>2019-09-27T09:48:53Z</time><name>PT689</name></trkpt>
<trkpt lat="52.932399" lon="-3.094121"><ele>128</ele><time>2019-09-27T09:48:54Z</time><name>PT690</name></trkpt>
<trkpt lat="52.932388" lon="-3.094131"><ele>128</ele><time>2019-09-27T09:48:55Z</time><name>PT691</name></trkpt>
<trkpt lat="52.932377" lon="-3.094142"><ele>129</ele><time>2019-09-27T09:48:56Z</time><name>PT692</name></trkpt>
<trkpt lat="52.932368" lon="-3.094151"><ele>129</ele><time>2019-09-27T09:48:57Z</time><name>PT693</name></trkpt>
<trkpt lat="52.932358" lon="-3.094159"><ele>129</ele><time>2019-09-27T09:48:58Z</time><name>PT694</name></trkpt>
<trkpt lat="52.932348" lon="-3.094164"><ele>130</ele><time>2019-09-27T09:48:59Z</time><name>PT695</name></trkpt>
<trkpt lat="52.932335" lon="-3.094173"><ele>130</ele><time>2019-09-27T09:49:00Z</time><name>PT696</name></trkpt>
<trkpt lat="52.932325" lon="-3.094182"><ele>130</ele><time>2019-09-27T09:49:01Z</time><name>PT697</name></trkpt>
<trkpt lat="52.932316" lon="-3.094190"><ele>130</ele><time>2019-09-27T09:49:02Z</time><name>PT698</name></trkpt>
<trkpt lat="52.932310" lon="-3.094197"><ele>129</ele><time>2019-09-27T09:49:03Z</time><name>PT699</name></trkpt>
<trkpt lat="52.932302" lon="-3.094204"><ele>130</ele><time>2019-09-27T09:49:04Z</time><name>PT700</name></trkpt>
<trkpt lat="52.932297" lon="-3.094216"><ele>129</ele><time>2019-09-27T09:49:05Z</time><name>PT701</name></trkpt>
<trkpt lat="52.932291" lon="-3.094227"><ele>128</ele><time>2019-09-27T09:49:06Z</time><name>PT702</name></trkpt>
<trkpt lat="52.932283" lon="-3.094238"><ele>128</ele><time>2019-09-27T09:49:07Z</time><name>PT703</name></trkpt>
<trkpt lat="52.932280" lon="-3.094246"><ele>127</ele><time>2019-09-27T09:49:08Z</time><name>PT704</name></trkpt>
<trkpt lat="52.932276" lon="-3.094252"><ele>127</ele><time>2019-09-27T09:49:09Z</time><name>PT705</name></trkpt>
<trkpt lat="52.932270" lon="-3.094261"><ele>126</ele><time>2019-09-27T09:49:10Z</time><name>PT706</name></trkpt>
<trkpt lat="52.932268" lon="-3.094271"><ele>126</ele><time>2019-09-27T09:49:11Z</time><name>PT707</name></trkpt>
<trkpt lat="52.932265" lon="-3.094279"><ele>125</ele><time>2019-09-27T09:49:12Z</time><name>PT708</name></trkpt>
<trkpt lat="52.932253" lon="-3.094291"><ele>124</ele><time>2019-09-27T09:49:13Z</time><name>PT709</name></trkpt>
<trkpt lat="52.932250" lon="-3.094302"><ele>123</ele><time>2019-09-27T09:49:14Z</time><name>PT710</name></trkpt>
<trkpt lat="52.932238" lon="-3.094311"><ele>123</ele><time>2019-09-27T09:49:15Z</time><name>PT711</name></trkpt>
<trkpt lat="52.932226" lon="-3.094323"><ele>123</ele><time>2019-09-27T09:49:16Z</time><name>PT712</name></trkpt>
<trkpt lat="52.932225" lon="-3.094327"><ele>123</ele><time>2019-09-27T09:49:17Z</time><name>PT713</name></trkpt>
<trkpt lat="52.932220" lon="-3.094328"><ele>123</ele><time>2019-09-27T09:49:18Z</time><name>PT714</name></trkpt>
<trkpt lat="52.932216" lon="-3.094329"><ele>123</ele><time>2019-09-27T09:49:19Z</time><name>PT715</name></trkpt>
<trkpt lat="52.932212" lon="-3.094350"><ele>122</ele><time>2019-09-27T09:49:30Z</time><name>PT716</name></trkpt>
<trkpt lat="52.932210" lon="-3.094348"><ele>123</ele><time>2019-09-27T09:49:31Z</time><name>PT717</name></trkpt>
<trkpt lat="52.932205" lon="-3.094350"><ele>124</ele><time>2019-09-27T09:49:32Z</time><name>PT718</name></trkpt>
<trkpt lat="52.932205" lon="-3.094361"><ele>123</ele><time>2019-09-27T09:49:33Z</time><name>PT719</name></trkpt>
<trkpt lat="52.932203" lon="-3.094362"><ele>123</ele><time>2019-09-27T09:49:34Z</time><name>PT720</name></trkpt>
<trkpt lat="52.932200" lon="-3.094378"><ele>124</ele><time>2019-09-27T09:49:38Z</time><name>PT721</name></trkpt>
<trkpt lat="52.932202" lon="-3.094384"><ele>123</ele><time>2019-09-27T09:49:39Z</time><name>PT722</name></trkpt>
<trkpt lat="52.932202" lon="-3.094397"><ele>123</ele><time>2019-09-27T09:49:40Z</time><name>PT723</name></trkpt>
<trkpt lat="52.932199" lon="-3.094396"><ele>123</ele><time>2019-09-27T09:49:41Z</time><name>PT724</name></trkpt>
<trkpt lat="52.932197" lon="-3.094404"><ele>123</ele><time>2019-09-27T09:49:42Z</time><name>PT725</name></trkpt>
<trkpt lat="52.932199" lon="-3.094396"><ele>123</ele><time>2019-09-27T09:49:43Z</time><name>PT726</name></trkpt>
<trkpt lat="52.932200" lon="-3.094391"><ele>123</ele><time>2019-09-27T09:49:44Z</time><name>PT727</name></trkpt>
<trkpt lat="52.932198" lon="-3.094400"><ele>123</ele><time>2019-09-27T09:49:45Z</time><name>PT728</name></trkpt>
<trkpt lat="52.932198" lon="-3.094392"><ele>123</ele><time>2019-09-27T09:49:48Z</time><name>PT729</name></trkpt>
<trkpt lat="52.932195" lon="-3.094398"><ele>123</ele><time>2019-09-27T09:49:49Z</time><name>PT730</name></trkpt>
<trkpt lat="52.932191" lon="-3.094405"><ele>123</ele><time>2019-09-27T09:49:50Z</time><name>PT731</name></trkpt>
<trkpt lat="52.932194" lon="-3.094409"><ele>124</ele><time>2019-09-27T09:50:00Z</time><name>PT732</name></trkpt>
<trkpt lat="52.932191" lon="-3.094415"><ele>123</ele><time>2019-09-27T09:50:01Z</time><name>PT733</name></trkpt>
<trkpt lat="52.932189" lon="-3.094422"><ele>123</ele><time>2019-09-27T09:50:02Z</time><name>PT734</name></trkpt>
<trkpt lat="52.932185" lon="-3.094424"><ele>122</ele><time>2019-09-27T09:50:03Z</time><name>PT735</name></trkpt>
<trkpt lat="52.932183" lon="-3.094425"><ele>122</ele><time>2019-09-27T09:50:04Z</time><name>PT736</name></trkpt>
<trkpt lat="52.932181" lon="-3.094434"><ele>122</ele><time>2019-09-27T09:50:22Z</time><name>PT737</name></trkpt>
<trkpt lat="52.932176" lon="-3.094447"><ele>122</ele><time>2019-09-27T09:50:23Z</time><name>PT738</name></trkpt>
<trkpt lat="52.932177" lon="-3.094455"><ele>122</ele><time>2019-09-27T09:50:24Z</time><name>PT739</name></trkpt>
<trkpt lat="52.932180" lon="-3.094455"><ele>122</ele><time>2019-09-27T09:50:25Z</time><name>PT740</name></trkpt>
<trkpt lat="52.932180" lon="-3.094472"><ele>121</ele><time>2019-09-27T09:50:26Z</time><name>PT741</name></trkpt>
<trkpt lat="52.932175" lon="-3.094472"><ele>121</ele><time>2019-09-27T09:50:27Z</time><name>PT742</name></trkpt>
<trkpt lat="52.932168" lon="-3.094475"><ele>121</ele><time>2019-09-27T09:50:28Z</time><name>PT743</name></trkpt>
<trkpt lat="52.932159" lon="-3.094473"><ele>121</ele><time>2019-09-27T09:50:29Z</time><name>PT744</name></trkpt>
<trkpt lat="52.932149" lon="-3.094479"><ele>121</ele><time>2019-09-27T09:50:30Z</time><name>PT745</name></trkpt>
<trkpt lat="52.932143" lon="-3.094495"><ele>121</ele><time>2019-09-27T09:50:33Z</time><name>PT746</name></trkpt>
<trkpt lat="52.932127" lon="-3.094509"><ele>121</ele><time>2019-09-27T09:50:34Z</time><name>PT747</name></trkpt>
<trkpt lat="52.932121" lon="-3.094513"><ele>120</ele><time>2019-09-27T09:50:35Z</time><name>PT748</name></trkpt>
<trkpt lat="52.932117" lon="-3.094518"><ele>120</ele><time>2019-09-27T09:50:36Z</time><name>PT749</name></trkpt>
<trkpt lat="52.932118" lon="-3.094530"><ele>121</ele><time>2019-09-27T09:50:37Z</time><name>PT750</name></trkpt>
<trkpt lat="52.932116" lon="-3.094537"><ele>120</ele><time>2019-09-27T09:50:38Z</time><name>PT751</name></trkpt>
<trkpt lat="52.932109" lon="-3.094538"><ele>120</ele><time>2019-09-27T09:50:39Z</time><name>PT752</name></trkpt>
<trkpt lat="52.932105" lon="-3.094542"><ele>119</ele><time>2019-09-27T09:50:40Z</time><name>PT753</name></trkpt>
<trkpt lat="52.932099" lon="-3.094544"><ele>119</ele><time>2019-09-27T09:50:41Z</time><name>PT754</name></trkpt>
<trkpt lat="52.932094" lon="-3.094544"><ele>120</ele><time>2019-09-27T09:50:42Z</time><name>PT755</name></trkpt>
<trkpt lat="52.932086" lon="-3.094544"><ele>120</ele><time>2019-09-27T09:50:55Z</time><name>PT756</name></trkpt>
<trkpt lat="52.932076" lon="-3.094527"><ele>121</ele><time>2019-09-27T09:50:56Z</time><name>PT757</name></trkpt>
<trkpt lat="52.932067" lon="-3.094510"><ele>121</ele><time>2019-09-27T09:50:57Z</time><name>PT758</name></trkpt>
<trkpt lat="52.932064" lon="-3.094512"><ele>120</ele><time>2019-09-27T09:51:07Z</time><name>PT759</name></trkpt>
<trkpt lat="52.932061" lon="-3.094525"><ele>118</ele><time>2019-09-27T09:51:08Z</time><name>PT760</name></trkpt>
<trkpt lat="52.932061" lon="-3.094533"><ele>118</ele><time>2019-09-27T09:51:09Z</time><name>PT761</name></trkpt>
<trkpt lat="52.932056" lon="-3.094531"><ele>118</ele><time>2019-09-27T09:51:10Z</time><name>PT762</name></trkpt>
<trkpt lat="52.932052" lon="-3.094541"><ele>117</ele><time>2019-09-27T09:51:11Z</time><name>PT763</name></trkpt>
<trkpt lat="52.932053" lon="-3.094544"><ele>117</ele><time>2019-09-27T09:51:12Z</time><name>PT764</name></trkpt>
<trkpt lat="52.932045" lon="-3.094541"><ele>117</ele><time>2019-09-27T09:51:13Z</time><name>PT765</name></trkpt>
<trkpt lat="52.932045" lon="-3.094552"><ele>116</ele><time>2019-09-27T09:51:14Z</time><name>PT766</name></trkpt>
<trkpt lat="52.932046" lon="-3.094562"><ele>116</ele><time>2019-09-27T09:51:15Z</time><name>PT767</name></trkpt>
<trkpt lat="52.932040" lon="-3.094559"><ele>116</ele><time>2019-09-27T09:51:19Z</time><name>PT768</name></trkpt>
<trkpt lat="52.932030" lon="-3.094573"><ele>115</ele><time>2019-09-27T09:51:20Z</time><name>PT769</name></trkpt>
<trkpt lat="52.932027" lon="-3.094578"><ele>114</ele><time>2019-09-27T09:51:21Z</time><name>PT770</name></trkpt>
<trkpt lat="52.932025" lon="-3.094583"><ele>114</ele><time>2019-09-27T09:51:22Z</time><name>PT771</name></trkpt>
<trkpt lat="52.932024" lon="-3.094600"><ele>113</ele><time>2019-09-27T09:51:23Z</time><name>PT772</name></trkpt>
<trkpt lat="52.932013" lon="-3.094627"><ele>113</ele><time>2019-09-27T09:51:37Z</time><name>PT773</name></trkpt>
<trkpt lat="52.932012" lon="-3.094635"><ele>113</ele><time>2019-09-27T09:51:38Z</time><name>PT774</name></trkpt>
<trkpt lat="52.931997" lon="-3.094651"><ele>112</ele><time>2019-09-27T09:51:39Z</time><name>PT775</name></trkpt>
<trkpt lat="52.931990" lon="-3.094703"><ele>111</ele><time>2019-09-27T09:51:40Z</time><name>PT776</name></trkpt>
<trkpt lat="52.931985" lon="-3.094702"><ele>110</ele><time>2019-09-27T09:51:41Z</time><name>PT777</name></trkpt>
<trkpt lat="52.931980" lon="-3.094698"><ele>109</ele><time>2019-09-27T09:51:42Z</time><name>PT778</name></trkpt>
<trkpt lat="52.931974" lon="-3.094698"><ele>109</ele><time>2019-09-27T09:51:43Z</time><name>PT779</name></trkpt>
<trkpt lat="52.931967" lon="-3.094699"><ele>109</ele><time>2019-09-27T09:51:44Z</time><name>PT780</name></trkpt>
<trkpt lat="52.931957" lon="-3.094706"><ele>108</ele><time>2019-09-27T09:51:45Z</time><name>PT781</name></trkpt>
<trkpt lat="52.931944" lon="-3.094713"><ele>109</ele><time>2019-09-27T09:51:46Z</time><name>PT782</name></trkpt>
<trkpt lat="52.931936" lon="-3.094718"><ele>108</ele><time>2019-09-27T09:51:47Z</time><name>PT783</name></trkpt>
<trkpt lat="52.931927" lon="-3.094722"><ele>109</ele><time>2019-09-27T09:51:48Z</time><name>PT784</name></trkpt>
<trkpt lat="52.931919" lon="-3.094722"><ele>109</ele><time>2019-09-27T09:51:49Z</time><name>PT785</name></trkpt>
<trkpt lat="52.931918" lon="-3.094726"><ele>109</ele><time>2019-09-27T09:51:50Z</time><name>PT786</name></trkpt>
<trkpt lat="52.931913" lon="-3.094729"><ele>109</ele><time>2019-09-27T09:51:51Z</time><name>PT787</name></trkpt>
<trkpt lat="52.931905" lon="-3.094731"><ele>109</ele><time>2019-09-27T09:51:52Z</time><name>PT788</name></trkpt>
<trkpt lat="52.931902" lon="-3.094736"><ele>109</ele><time>2019-09-27T09:51:53Z</time><name>PT789</name></trkpt>
<trkpt lat="52.931894" lon="-3.094737"><ele>109</ele><time>2019-09-27T09:51:54Z</time><name>PT790</name></trkpt>
<trkpt lat="52.931887" lon="-3.094741"><ele>109</ele><time>2019-09-27T09:51:55Z</time><name>PT791</name></trkpt>
<trkpt lat="52.931888" lon="-3.094741"><ele>109</ele><time>2019-09-27T09:51:56Z</time><name>PT792</name></trkpt>
<trkpt lat="52.931886" lon="-3.094745"><ele>109</ele><time>2019-09-27T09:51:57Z</time><name>PT793</name></trkpt>
<trkpt lat="52.931879" lon="-3.094750"><ele>109</ele><time>2019-09-27T09:51:58Z</time><name>PT794</name></trkpt>
<trkpt lat="52.931870" lon="-3.094758"><ele>109</ele><time>2019-09-27T09:51:59Z</time><name>PT795</name></trkpt>
<trkpt lat="52.931865" lon="-3.094762"><ele>109</ele><time>2019-09-27T09:52:00Z</time><name>PT796</name></trkpt>
<trkpt lat="52.931859" lon="-3.094763"><ele>109</ele><time>2019-09-27T09:52:01Z</time><name>PT797</name></trkpt>
<trkpt lat="52.931851" lon="-3.094753"><ele>109</ele><time>2019-09-27T09:52:02Z</time><name>PT798</name></trkpt>
<trkpt lat="52.931847" lon="-3.094754"><ele>108</ele><time>2019-09-27T09:52:03Z</time><name>PT799</name></trkpt>
<trkpt lat="52.931845" lon="-3.094755"><ele>108</ele><time>2019-09-27T09:52:04Z</time><name>PT800</name></trkpt>
<trkpt lat="52.931841" lon="-3.094760"><ele>107</ele><time>2019-09-27T09:52:05Z</time><name>PT801</name></trkpt>
<trkpt lat="52.931832" lon="-3.094767"><ele>108</ele><time>2019-09-27T09:52:06Z</time><name>PT802</name></trkpt>
<trkpt lat="52.931825" lon="-3.094772"><ele>109</ele><time>2019-09-27T09:52:07Z</time><name>PT803</name></trkpt>
<trkpt lat="52.931822" lon="-3.094775"><ele>108</ele><time>2019-09-27T09:52:08Z</time><name>PT804</name></trkpt>
<trkpt lat="52.931818" lon="-3.094778"><ele>108</ele><time>2019-09-27T09:52:09Z</time><name>PT805</name></trkpt>
<trkpt lat="52.931810" lon="-3.094781"><ele>108</ele><time>2019-09-27T09:52:10Z</time><name>PT806</name></trkpt>
<trkpt lat="52.931810" lon="-3.094788"><ele>108</ele><time>2019-09-27T09:52:11Z</time><name>PT807</name></trkpt>
<trkpt lat="52.931807" lon="-3.094791"><ele>107</ele><time>2019-09-27T09:52:12Z</time><name>PT808</name></trkpt>
<trkpt lat="52.931805" lon="-3.094795"><ele>107</ele><time>2019-09-27T09:52:13Z</time><name>PT809</name></trkpt>
<trkpt lat="52.931803" lon="-3.094800"><ele>107</ele><time>2019-09-27T09:52:14Z</time><name>PT810</name></trkpt>
<trkpt lat="52.931803" lon="-3.094804"><ele>107</ele><time>2019-09-27T09:52:15Z</time><name>PT811</name></trkpt>
<trkpt lat="52.931797" lon="-3.094811"><ele>107</ele><time>2019-09-27T09:52:16Z</time><name>PT812</name></trkpt>
<trkpt lat="52.931789" lon="-3.094821"><ele>107</ele><time>2019-09-27T09:52:17Z</time><name>PT813</name></trkpt>
<trkpt lat="52.931786" lon="-3.094827"><ele>106</ele><time>2019-09-27T09:52:18Z</time><name>PT814</name></trkpt>
<trkpt lat="52.931763" lon="-3.094839"><ele>110</ele><time>2019-09-27T09:52:19Z</time><name>PT815</name></trkpt>
<trkpt lat="52.931762" lon="-3.094840"><ele>108</ele><time>2019-09-27T09:52:20Z</time><name>PT816</name></trkpt>
<trkpt lat="52.931751" lon="-3.094860"><ele>107</ele><time>2019-09-27T09:52:22Z</time><name>PT817</name></trkpt>
<trkpt lat="52.931749" lon="-3.094865"><ele>107</ele><time>2019-09-27T09:52:23Z</time><name>PT818</name></trkpt>
<trkpt lat="52.931747" lon="-3.094875"><ele>106</ele><time>2019-09-27T09:52:24Z</time><name>PT819</name></trkpt>
<trkpt lat="52.931746" lon="-3.094881"><ele>105</ele><time>2019-09-27T09:52:25Z</time><name>PT820</name></trkpt>
<trkpt lat="52.931742" lon="-3.094890"><ele>104</ele><time>2019-09-27T09:52:26Z</time><name>PT821</name></trkpt>
<trkpt lat="52.931734" lon="-3.094904"><ele>104</ele><time>2019-09-27T09:52:27Z</time><name>PT822</name></trkpt>
<trkpt lat="52.931729" lon="-3.094913"><ele>105</ele><time>2019-09-27T09:52:28Z</time><name>PT823</name></trkpt>
<trkpt lat="52.931725" lon="-3.094927"><ele>104</ele><time>2019-09-27T09:52:29Z</time><name>PT824</name></trkpt>
<trkpt lat="52.931717" lon="-3.094943"><ele>104</ele><time>2019-09-27T09:52:30Z</time><name>PT825</name></trkpt>
<trkpt lat="52.931710" lon="-3.094956"><ele>104</ele><time>2019-09-27T09:52:31Z</time><name>PT826</name></trkpt>
<trkpt lat="52.931705" lon="-3.094965"><ele>104</ele><time>2019-09-27T09:52:32Z</time><name>PT827</name></trkpt>
<trkpt lat="52.931701" lon="-3.094982"><ele>103</ele><time>2019-09-27T09:52:33Z</time><name>PT828</name></trkpt>
<trkpt lat="52.931696" lon="-3.094993"><ele>103</ele><time>2019-09-27T09:52:34Z</time><name>PT829</name></trkpt>
<trkpt lat="52.931690" lon="-3.095004"><ele>103</ele><time>2019-09-27T09:52:35Z</time><name>PT830</name></trkpt>
<trkpt lat="52.931689" lon="-3.095013"><ele>102</ele><time>2019-09-27T09:52:36Z</time><name>PT831</name></trkpt>
<trkpt lat="52.931680" lon="-3.095020"><ele>102</ele><time>2019-09-27T09:52:37Z</time><name>PT832</name></trkpt>
<trkpt lat="52.931679" lon="-3.095032"><ele>102</ele><time>2019-09-27T09:52:38Z</time><name>PT833</name></trkpt>
<trkpt lat="52.931679" lon="-3.095042"><ele>101</ele><time>2019-09-27T09:52:39Z</time><name>PT834</name></trkpt>
<trkpt lat="52.931679" lon="-3.095052"><ele>101</ele><time>2019-09-27T09:52:40Z</time><name>PT835</name></trkpt>
<trkpt lat="52.931680" lon="-3.095060"><ele>100</ele><time>2019-09-27T09:52:41Z</time><name>PT836</name></trkpt>
<trkpt lat="52.931682" lon="-3.095072"><ele>99</ele><time>2019-09-27T09:52:42Z</time><name>PT837</name></trkpt>
<trkpt lat="52.931683" lon="-3.095078"><ele>99</ele><time>2019-09-27T09:52:43Z</time><name>PT838</name></trkpt>
<trkpt lat="52.931680" lon="-3.095091"><ele>100</ele><time>2019-09-27T09:52:44Z</time><name>PT839</name></trkpt>
<trkpt lat="52.931678" lon="-3.095105"><ele>99</ele><time>2019-09-27T09:52:45Z</time><name>PT840</name></trkpt>
<trkpt lat="52.931677" lon="-3.095115"><ele>100</ele><time>2019-09-27T09:52:46Z</time><name>PT841</name></trkpt>
<trkpt lat="52.931674" lon="-3.095129"><ele>100</ele><time>2019-09-27T09:52:47Z</time><name>PT842</name></trkpt>
<trkpt lat="52.931672" lon="-3.095145"><ele>100</ele><time>2019-09-27T09:52:48Z</time><name>PT843</name></trkpt>
<trkpt lat="52.931668" lon="-3.095155"><ele>99</ele><time>2019-09-27T09:52:49Z</time><name>PT844</name></trkpt>
<trkpt lat="52.931670" lon="-3.095170"><ele>98</ele><time>2019-09-27T09:52:50Z</time><name>PT845</name></trkpt>
<trkpt lat="52.931672" lon="-3.095180"><ele>98</ele><time>2019-09-27T09:52:51Z</time><name>PT846</name></trkpt>
<trkpt lat="52.931671" lon="-3.095194"><ele>98</ele><time>2019-09-27T09:52:52Z</time><name>PT847</name></trkpt>
<trkpt lat="52.931677" lon="-3.095198"><ele>96</ele><time>2019-09-27T09:52:53Z</time><name>PT848</name></trkpt>
<trkpt lat="52.931679" lon="-3.095206"><ele>96</ele><time>2019-09-27T09:52:54Z</time><name>PT849</name></trkpt>
<trkpt lat="52.931681" lon="-3.095213"><ele>95</ele><time>2019-09-27T09:52:55Z</time><name>PT850</name></trkpt>
<trkpt lat="52.931678" lon="-3.095221"><ele>95</ele><time>2019-09-27T09:52:56Z</time><name>PT851</name></trkpt>
<trkpt lat="52.931677" lon="-3.095236"><ele>95</ele><time>2019-09-27T09:52:57Z</time><name>PT852</name></trkpt>
<trkpt lat="52.931679" lon="-3.095251"><ele>95</ele><time>2019-09-27T09:52:58Z</time><name>PT853</name></trkpt>
<trkpt lat="52.931677" lon="-3.095259"><ele>94</ele><time>2019-09-27T09:52:59Z</time><name>PT854</name></trkpt>
<trkpt lat="52.931677" lon="-3.095284"><ele>94</ele><time>2019-09-27T09:53:00Z</time><name>PT855</name></trkpt>
<trkpt lat="52.931675" lon="-3.095311"><ele>94</ele><time>2019-09-27T09:53:01Z</time><name>PT856</name></trkpt>
<trkpt lat="52.931670" lon="-3.095331"><ele>95</ele><time>2019-09-27T09:53:02Z</time><name>PT857</name></trkpt>
<trkpt lat="52.931667" lon="-3.095354"><ele>96</ele><time>2019-09-27T09:53:03Z</time><name>PT858</name></trkpt>
<trkpt lat="52.931663" lon="-3.095378"><ele>97</ele><time>2019-09-27T09:53:04Z</time><name>PT859</name></trkpt>
<trkpt lat="52.931664" lon="-3.095392"><ele>98</ele><time>2019-09-27T09:53:05Z</time><name>PT860</name></trkpt>
<trkpt lat="52.931666" lon="-3.095410"><ele>98</ele><time>2019-09-27T09:53:06Z</time><name>PT861</name></trkpt>
<trkpt lat="52.931652" lon="-3.095442"><ele>102</ele><time>2019-09-27T09:53:07Z</time><name>PT862</name></trkpt>
<trkpt lat="52.931644" lon="-3.095452"><ele>103</ele><time>2019-09-27T09:53:08Z</time><name>PT863</name></trkpt>
<trkpt lat="52.931645" lon="-3.095457"><ele>103</ele><time>2019-09-27T09:53:09Z</time><name>PT864</name></trkpt>
<trkpt lat="52.931643" lon="-3.095460"><ele>103</ele><time>2019-09-27T09:53:10Z</time><name>PT865</name></trkpt>
<trkpt lat="52.931639" lon="-3.095465"><ele>104</ele><time>2019-09-27T09:53:11Z</time><name>PT866</name></trkpt>
<trkpt lat="52.931635" lon="-3.095468"><ele>105</ele><time>2019-09-27T09:53:12Z</time><name>PT867</name></trkpt>
<trkpt lat="52.931635" lon="-3.095468"><ele>105</ele><time>2019-09-27T09:53:13Z</time><name>PT868</name></trkpt>
<trkpt lat="52.931647" lon="-3.095507"><ele>103</ele><time>2019-09-27T09:53:19Z</time><name>PT869</name></trkpt>
<trkpt lat="52.931591" lon="-3.095575"><ele>103</ele><time>2019-09-27T09:53:21Z</time><name>PT870</name></trkpt>
<trkpt lat="52.931585" lon="-3.095588"><ele>102</ele><time>2019-09-27T09:53:22Z</time><name>PT871</name></trkpt>
<trkpt lat="52.931593" lon="-3.095583"><ele>102</ele><time>2019-09-27T09:53:23Z</time><name>PT872</name></trkpt>
<trkpt lat="52.931595" lon="-3.095589"><ele>101</ele><time>2019-09-27T09:53:24Z</time><name>PT873</name></trkpt>
<trkpt lat="52.931591" lon="-3.095595"><ele>101</ele><time>2019-09-27T09:53:25Z</time><name>PT874</name></trkpt>
<trkpt lat="52.931594" lon="-3.095592"><ele>100</ele><time>2019-09-27T09:53:26Z</time><name>PT875</name></trkpt>
<trkpt lat="52.931593" lon="-3.095593"><ele>100</ele><time>2019-09-27T09:53:27Z</time><name>PT876</name></trkpt>
<trkpt lat="52.931594" lon="-3.095594"><ele>100</ele><time>2019-09-27T09:53:28Z</time><name>PT877</name></trkpt>
<trkpt lat="52.931597" lon="-3.095597"><ele>100</ele><time>2019-09-27T09:53:29Z</time><name>PT878</name></trkpt>
<trkpt lat="52.931595" lon="-3.095600"><ele>100</ele><time>2019-09-27T09:53:31Z</time><name>PT879</name></trkpt>
<trkpt lat="52.931598" lon="-3.095577"><ele>102</ele><time>2019-09-27T09:53:32Z</time><name>PT880</name></trkpt>
<trkpt lat="52.931594" lon="-3.095564"><ele>102</ele><time>2019-09-27T09:53:33Z</time><name>PT881</name></trkpt>
<trkpt lat="52.931591" lon="-3.095557"><ele>101</ele><time>2019-09-27T09:53:34Z</time><name>PT882</name></trkpt>
<trkpt lat="52.931590" lon="-3.095548"><ele>101</ele><time>2019-09-27T09:53:35Z</time><name>PT883</name></trkpt>
<trkpt lat="52.931588" lon="-3.095539"><ele>101</ele><time>2019-09-27T09:53:36Z</time><name>PT884</name></trkpt>
<trkpt lat="52.931593" lon="-3.095607"><ele>103</ele><time>2019-09-27T09:53:46Z</time><name>PT885</name></trkpt>
<trkpt lat="52.931598" lon="-3.095629"><ele>102</ele><time>2019-09-27T09:53:47Z</time><name>PT886</name></trkpt>
<trkpt lat="52.931594" lon="-3.095645"><ele>103</ele><time>2019-09-27T09:53:48Z</time><name>PT887</name></trkpt>
<trkpt lat="52.931604" lon="-3.095653"><ele>98</ele><time>2019-09-27T09:53:49Z</time><name>PT888</name></trkpt>
<trkpt lat="52.931606" lon="-3.095670"><ele>98</ele><time>2019-09-27T09:53:50Z</time><name>PT889</name></trkpt>
<trkpt lat="52.931609" lon="-3.095677"><ele>97</ele><time>2019-09-27T09:53:51Z</time><name>PT890</name></trkpt>
<trkpt lat="52.931615" lon="-3.095687"><ele>97</ele><time>2019-09-27T09:53:52Z</time><name>PT891</name></trkpt>
<trkpt lat="52.931621" lon="-3.095696"><ele>97</ele><time>2019-09-27T09:53:53Z</time><name>PT892</name></trkpt>
<trkpt lat="52.931627" lon="-3.095704"><ele>95</ele><time>2019-09-27T09:53:54Z</time><name>PT893</name></trkpt>
<trkpt lat="52.931628" lon="-3.095722"><ele>96</ele><time>2019-09-27T09:53:55Z</time><name>PT894</name></trkpt>
<trkpt lat="52.931627" lon="-3.095729"><ele>95</ele><time>2019-09-27T09:53:56Z</time><name>PT895</name></trkpt>
<trkpt lat="52.931623" lon="-3.095741"><ele>95</ele><time>2019-09-27T09:53:57Z</time><name>PT896</name></trkpt>
<trkpt lat="52.931623" lon="-3.095756"><ele>95</ele><time>2019-09-27T09:53:58Z</time><name>PT897</name></trkpt>
<trkpt lat="52.931635" lon="-3.095775"><ele>95</ele><time>2019-09-27T09:53:59Z</time><name>PT898</name></trkpt>
<trkpt lat="52.931635" lon="-3.095793"><ele>95</ele><time>2019-09-27T09:54:00Z</time><name>PT899</name></trkpt>
<trkpt lat="52.931636" lon="-3.095799"><ele>95</ele><time>2019-09-27T09:54:01Z</time><name>PT900</name></trkpt>
<trkpt lat="52.931632" lon="-3.095807"><ele>95</ele><time>2019-09-27T09:54:02Z</time><name>PT901</name></trkpt>
<trkpt lat="52.931629" lon="-3.095838"><ele>95</ele><time>2019-09-27T09:54:04Z</time><name>PT902</name></trkpt>
<trkpt lat="52.931626" lon="-3.095858"><ele>95</ele><time>2019-09-27T09:54:05Z</time><name>PT903</name></trkpt>
<trkpt lat="52.931629" lon="-3.095868"><ele>94</ele><time>2019-09-27T09:54:06Z</time><name>PT904</name></trkpt>
<trkpt lat="52.931626" lon="-3.095877"><ele>95</ele><time>2019-09-27T09:54:07Z</time><name>PT905</name></trkpt>
<trkpt lat="52.931622" lon="-3.095896"><ele>95</ele><time>2019-09-27T09:54:08Z</time><name>PT906</name></trkpt>
<trkpt lat="52.931622" lon="-3.095910"><ele>95</ele><time>2019-09-27T09:54:09Z</time><name>PT907</name></trkpt>
<trkpt lat="52.931620" lon="-3.095918"><ele>95</ele><time>2019-09-27T09:54:10Z</time><name>PT908</name></trkpt>
<trkpt lat="52.931619" lon="-3.095935"><ele>94</ele><time>2019-09-27T09:54:11Z</time><name>PT909</name></trkpt>
<trkpt lat="52.931618" lon="-3.095940"><ele>94</ele><time>2019-09-27T09:54:12Z</time><name>PT910</name></trkpt>
<trkpt lat="52.931609" lon="-3.095952"><ele>96</ele><time>2019-09-27T09:54:13Z</time><name>PT911</name></trkpt>
<trkpt lat="52.931606" lon="-3.095963"><ele>96</ele><time>2019-09-27T09:54:14Z</time><name>PT912</name></trkpt>
<trkpt lat="52.931600" lon="-3.095998"><ele>95</ele><time>2019-09-27T09:54:21Z</time><name>PT913</name></trkpt>
<trkpt lat="52.931595" lon="-3.096007"><ele>94</ele><time>2019-09-27T09:54:22Z</time><name>PT914</name></trkpt>
<trkpt lat="52.931597" lon="-3.096017"><ele>94</ele><time>2019-09-27T09:54:29Z</time><name>PT915</name></trkpt>
<trkpt lat="52.931598" lon="-3.096025"><ele>94</ele><time>2019-09-27T09:54:30Z</time><name>PT916</name></trkpt>
<trkpt lat="52.931598" lon="-3.096037"><ele>94</ele><time>2019-09-27T09:54:31Z</time><name>PT917</name></trkpt>
<trkpt lat="52.931582" lon="-3.096050"><ele>95</ele><time>2019-09-27T09:54:34Z</time><name>PT918</name></trkpt>
<trkpt lat="52.931578" lon="-3.096032"><ele>95</ele><time>2019-09-27T09:54:35Z</time><name>PT919</name></trkpt>
<trkpt lat="52.931570" lon="-3.096025"><ele>96</ele><time>2019-09-27T09:54:36Z</time><name>PT920</name></trkpt>
<trkpt lat="52.931568" lon="-3.096044"><ele>95</ele><time>2019-09-27T09:54:49Z</time><name>PT921</name></trkpt>
<trkpt lat="52.931565" lon="-3.096068"><ele>96</ele><time>2019-09-27T09:54:50Z</time><name>PT922</name></trkpt>
<trkpt lat="52.931570" lon="-3.096080"><ele>95</ele><time>2019-09-27T09:54:51Z</time><name>PT923</name></trkpt>
<trkpt lat="52.931572" lon="-3.096091"><ele>94</ele><time>2019-09-27T09:54:52Z</time><name>PT924</name></trkpt>
<trkpt lat="52.931579" lon="-3.096107"><ele>94</ele><time>2019-09-27T09:54:53Z</time><name>PT925</name></trkpt>
<trkpt lat="52.931585" lon="-3.096114"><ele>93</ele><time>2019-09-27T09:54:54Z</time><name>PT926</name></trkpt>
<trkpt lat="52.931584" lon="-3.096123"><ele>93</ele><time>2019-09-27T09:54:55Z</time><name>PT927</name></trkpt>
<trkpt lat="52.931576" lon="-3.096131"><ele>93</ele><time>2019-09-27T09:54:56Z</time><name>PT928</name></trkpt>
<trkpt lat="52.931575" lon="-3.096142"><ele>93</ele><time>2019-09-27T09:54:57Z</time><name>PT929</name></trkpt>
<trkpt lat="52.931580" lon="-3.096159"><ele>92</ele><time>2019-09-27T09:54:58Z</time><name>PT930</name></trkpt>
<trkpt lat="52.931577" lon="-3.096170"><ele>93</ele><time>2019-09-27T09:54:59Z</time><name>PT931</name></trkpt>
<trkpt lat="52.931577" lon="-3.096180"><ele>93</ele><time>2019-09-27T09:55:00Z</time><name>PT932</name></trkpt>
<trkpt lat="52.931586" lon="-3.096196"><ele>92</ele><time>2019-09-27T09:55:01Z</time><name>PT933</name></trkpt>
<trkpt lat="52.931588" lon="-3.096212"><ele>92</ele><time>2019-09-27T09:55:02Z</time><name>PT934</name></trkpt>
<trkpt lat="52.931594" lon="-3.096226"><ele>91</ele><time>2019-09-27T09:55:03Z</time><name>PT935</name></trkpt>
<trkpt lat="52.931594" lon="-3.096242"><ele>91</ele><time>2019-09-27T09:55:04Z</time><name>PT936</name></trkpt>
<trkpt lat="52.931588" lon="-3.096254"><ele>92</ele><time>2019-09-27T09:55:05Z</time><name>PT937</name></trkpt>
<trkpt lat="52.931588" lon="-3.096258"><ele>93</ele><time>2019-09-27T09:55:06Z</time><name>PT938</name></trkpt>
<trkpt lat="52.931587" lon="-3.096264"><ele>93</ele><time>2019-09-27T09:55:07Z</time><name>PT939</name></trkpt>
<trkpt lat="52.931583" lon="-3.096271"><ele>93</ele><time>2019-09-27T09:55:08Z</time><name>PT940</name></trkpt>
<trkpt lat="52.931578" lon="-3.096282"><ele>95</ele><time>2019-09-27T09:55:09Z</time><name>PT941</name></trkpt>
<trkpt lat="52.931570" lon="-3.096295"><ele>95</ele><time>2019-09-27T09:55:10Z</time><name>PT942</name></trkpt>
<trkpt lat="52.931565" lon="-3.096309"><ele>96</ele><time>2019-09-27T09:55:11Z</time><name>PT943</name></trkpt>
<trkpt lat="52.931564" lon="-3.096316"><ele>95</ele><time>2019-09-27T09:55:12Z</time><name>PT944</name></trkpt>
<trkpt lat="52.931557" lon="-3.096325"><ele>95</ele><time>2019-09-27T09:55:13Z</time><name>PT945</name></trkpt>
<trkpt lat="52.931545" lon="-3.096353"><ele>96</ele><time>2019-09-27T09:55:14Z</time><name>PT946</name></trkpt>
<trkpt lat="52.931542" lon="-3.096363"><ele>97</ele><time>2019-09-27T09:55:15Z</time><name>PT947</name></trkpt>
<trkpt lat="52.931538" lon="-3.096375"><ele>97</ele><time>2019-09-27T09:55:16Z</time><name>PT948</name></trkpt>
<trkpt lat="52.931532" lon="-3.096388"><ele>97</ele><time>2019-09-27T09:55:17Z</time><name>PT949</name></trkpt>
<trkpt lat="52.931525" lon="-3.096405"><ele>98</ele><time>2019-09-27T09:55:18Z</time><name>PT950</name></trkpt>
<trkpt lat="52.931520" lon="-3.096424"><ele>98</ele><time>2019-09-27T09:55:19Z</time><name>PT951</name></trkpt>
<trkpt lat="52.931514" lon="-3.096443"><ele>99</ele><time>2019-09-27T09:55:20Z</time><name>PT952</name></trkpt>
<trkpt lat="52.931508" lon="-3.096460"><ele>99</ele><time>2019-09-27T09:55:21Z</time><name>PT953</name></trkpt>
<trkpt lat="52.931502" lon="-3.096470"><ele>98</ele><time>2019-09-27T09:55:22Z</time><name>PT954</name></trkpt>
<trkpt lat="52.931494" lon="-3.096481"><ele>99</ele><time>2019-09-27T09:55:23Z</time><name>PT955</name></trkpt>
<trkpt lat="52.931484" lon="-3.096490"><ele>99</ele><time>2019-09-27T09:55:24Z</time><name>PT956</name></trkpt>
<trkpt lat="52.931477" lon="-3.096499"><ele>98</ele><time>2019-09-27T09:55:25Z</time><name>PT957</name></trkpt>
<trkpt lat="52.931469" lon="-3.096508"><ele>98</ele><time>2019-09-27T09:55:26Z</time><name>PT958</name></trkpt>
<trkpt lat="52.931461" lon="-3.096515"><ele>98</ele><time>2019-09-27T09:55:27Z</time><name>PT959</name></trkpt>
<trkpt lat="52.931453" lon="-3.096525"><ele>97</ele><time>2019-09-27T09:55:28Z</time><name>PT960</name></trkpt>
<trkpt lat="52.931442" lon="-3.096539"><ele>97</ele><time>2019-09-27T09:55:29Z</time><name>PT961</name></trkpt>
<trkpt lat="52.931430" lon="-3.096550"><ele>98</ele><time>2019-09-27T09:55:30Z</time><name>PT962</name></trkpt>
<trkpt lat="52.931419" lon="-3.096559"><ele>98</ele><time>2019-09-27T09:55:31Z</time><name>PT963</name></trkpt>
<trkpt lat="52.931407" lon="-3.096566"><ele>97</ele><time>2019-09-27T09:55:32Z</time><name>PT964</name></trkpt>
<trkpt lat="52.931396" lon="-3.096573"><ele>97</ele><time>2019-09-27T09:55:33Z</time><name>PT965</name></trkpt>
<trkpt lat="52.931390" lon="-3.096576"><ele>96</ele><time>2019-09-27T09:55:34Z</time><name>PT966</name></trkpt>
<trkpt lat="52.931383" lon="-3.096579"><ele>95</ele><time>2019-09-27T09:55:35Z</time><name>PT967</name></trkpt>
<trkpt lat="52.931369" lon="-3.096588"><ele>95</ele><time>2019-09-27T09:55:36Z</time><name>PT968</name></trkpt>
<trkpt lat="52.931355" lon="-3.096597"><ele>96</ele><time>2019-09-27T09:55:37Z</time><name>PT969</name></trkpt>
<trkpt lat="52.931340" lon="-3.096606"><ele>97</ele><time>2019-09-27T09:55:38Z</time><name>PT970</name></trkpt>
<trkpt lat="52.931327" lon="-3.096620"><ele>97</ele><time>2019-09-27T09:55:39Z</time><name>PT971</name></trkpt>
<trkpt lat="52.931313" lon="-3.096631"><ele>98</ele><time>2019-09-27T09:55:40Z</time><name>PT972</name></trkpt>
<trkpt lat="52.931303" lon="-3.096635"><ele>97</ele><time>2019-09-27T09:55:41Z</time><name>PT973</name></trkpt>
<trkpt lat="52.931288" lon="-3.096641"><ele>97</ele><time>2019-09-27T09:55:42Z</time><name>PT974</name></trkpt>
<trkpt lat="52.931278" lon="-3.096642"><ele>97</ele><time>2019-09-27T09:55:43Z</time><name>PT975</name></trkpt>
<trkpt lat="52.931271" lon="-3.096641"><ele>96</ele><time>2019-09-27T09:55:44Z</time><name>PT976</name></trkpt>
<trkpt lat="52.931265" lon="-3.096639"><ele>96</ele><time>2019-09-27T09:55:45Z</time><name>PT977</name></trkpt>
<trkpt lat="52.931254" lon="-3.096637"><ele>95</ele><time>2019-09-27T09:55:46Z</time><name>PT978</name></trkpt>
<trkpt lat="52.931235" lon="-3.096640"><ele>97</ele><time>2019-09-27T09:55:47Z</time><name>PT979</name></trkpt>
<trkpt lat="52.931227" lon="-3.096628"><ele>95</ele><time>2019-09-27T09:55:48Z</time><name>PT980</name></trkpt>
<trkpt lat="52.931213" lon="-3.096632"><ele>95</ele><time>2019-09-27T09:55:49Z</time><name>PT981</name></trkpt>
<trkpt lat="52.931205" lon="-3.096638"><ele>95</ele><time>2019-09-27T09:55:50Z</time><name>PT982</name></trkpt>
<trkpt lat="52.931193" lon="-3.096645"><ele>96</ele><time>2019-09-27T09:55:51Z</time><name>PT983</name></trkpt>
<trkpt lat="52.931185" lon="-3.096648"><ele>95</ele><time>2019-09-27T09:55:52Z</time><name>PT984</name></trkpt>
<trkpt lat="52.931175" lon="-3.096652"><ele>95</ele><time>2019-09-27T09:55:53Z</time><name>PT985</name></trkpt>
<trkpt lat="52.931162" lon="-3.096656"><ele>96</ele><time>2019-09-27T09:55:54Z</time><name>PT986</name></trkpt>
<trkpt lat="52.931147" lon="-3.096659"><ele>96</ele><time>2019-09-27T09:55:55Z</time><name>PT987</name></trkpt>
<trkpt lat="52.931133" lon="-3.096661"><ele>97</ele><time>2019-09-27T09:55:56Z</time><name>PT988</name></trkpt>
<trkpt lat="52.931121" lon="-3.096666"><ele>97</ele><time>2019-09-27T09:55:57Z</time><name>PT989</name></trkpt>
<trkpt lat="52.931109" lon="-3.096668"><ele>97</ele><time>2019-09-27T09:55:58Z</time><name>PT990</name></trkpt>
<trkpt lat="52.931099" lon="-3.096670"><ele>97</ele><time>2019-09-27T09:55:59Z</time><name>PT991</name></trkpt>
<trkpt lat="52.931088" lon="-3.096672"><ele>97</ele><time>2019-09-27T09:56:00Z</time><name>PT992</name></trkpt>
<trkpt lat="52.931075" lon="-3.096676"><ele>97</ele><time>2019-09-27T09:56:01Z</time><name>PT993</name></trkpt>
<trkpt lat="52.931060" lon="-3.096680"><ele>97</ele><time>2019-09-27T09:56:02Z</time><name>PT994</name></trkpt>
<trkpt lat="52.931048" lon="-3.096682"><ele>98</ele><time>2019-09-27T09:56:03Z</time><name>PT995</name></trkpt>
<trkpt lat="52.931035" lon="-3.096683"><ele>98</ele><time>2019-09-27T09:56:04Z</time><name>PT996</name></trkpt>
<trkpt lat="52.931026" lon="-3.096685"><ele>98</ele><time>2019-09-27T09:56:05Z</time><name>PT997</name></trkpt>
<trkpt lat="52.931016" lon="-3.096687"><ele>99</ele><time>2019-09-27T09:56:06Z</time><name>PT998</name></trkpt>
<trkpt lat="52.931003" lon="-3.096685"><ele>99</ele><time>2019-09-27T09:56:07Z</time><name>PT999</name></trkpt>
<trkpt lat="52.930991" lon="-3.096683"><ele>99</ele><time>2019-09-27T09:56:08Z</time><name>PT1000</name></trkpt>
<trkpt lat="52.930981" lon="-3.096682"><ele>98</ele><time>2019-09-27T09:56:09Z</time><name>PT1001</name></trkpt>
<trkpt lat="52.930969" lon="-3.096682"><ele>99</ele><time>2019-09-27T09:56:10Z</time><name>PT1002</name></trkpt>
<trkpt lat="52.930954" lon="-3.096683"><ele>100</ele><time>2019-09-27T09:56:11Z</time><name>PT1003</name></trkpt>
<trkpt lat="52.930939" lon="-3.096686"><ele>100</ele><time>2019-09-27T09:56:12Z</time><name>PT1004</name></trkpt>
<trkpt lat="52.930929" lon="-3.096688"><ele>100</ele><time>2019-09-27T09:56:13Z</time><name>PT1005</name></trkpt>
<trkpt lat="52.930918" lon="-3.096691"><ele>100</ele><time>2019-09-27T09:56:14Z</time><name>PT1006</name></trkpt>
<trkpt lat="52.930905" lon="-3.096690"><ele>101</ele><time>2019-09-27T09:56:15Z</time><name>PT1007</name></trkpt>
<trkpt lat="52.930889" lon="-3.096690"><ele>101</ele><time>2019-09-27T09:56:16Z</time><name>PT1008</name></trkpt>
<trkpt lat="52.930879" lon="-3.096690"><ele>101</ele><time>2019-09-27T09:56:17Z</time><name>PT1009</name></trkpt>
<trkpt lat="52.930870" lon="-3.096689"><ele>101</ele><time>2019-09-27T09:56:18Z</time><name>PT1010</name></trkpt>
<trkpt lat="52.930853" lon="-3.096689"><ele>102</ele><time>2019-09-27T09:56:19Z</time><name>PT1011</name></trkpt>
<trkpt lat="52.930829" lon="-3.096694"><ele>102</ele><time>2019-09-27T09:56:20Z</time><name>PT1012</name></trkpt>
<trkpt lat="52.930819" lon="-3.096694"><ele>103</ele><time>2019-09-27T09:56:21Z</time><name>PT1013</name></trkpt>
<trkpt lat="52.930812" lon="-3.096692"><ele>103</ele><time>2019-09-27T09:56:22Z</time><name>PT1014</name></trkpt>
<trkpt lat="52.930807" lon="-3.096690"><ele>104</ele><time>2019-09-27T09:56:23Z</time><name>PT1015</name></trkpt>
<trkpt lat="52.930802" lon="-3.096690"><ele>104</ele><time>2019-09-27T09:56:24Z</time><name>PT1016</name></trkpt>
<trkpt lat="52.930796" lon="-3.096685"><ele>103</ele><time>2019-09-27T09:56:25Z</time><name>PT1017</name></trkpt>
<trkpt lat="52.930791" lon="-3.096685"><ele>104</ele><time>2019-09-27T09:56:26Z</time><name>PT1018</name></trkpt>
<trkpt lat="52.930781" lon="-3.096683"><ele>104</ele><time>2019-09-27T09:56:27Z</time><name>PT1019</name></trkpt>
<trkpt lat="52.930775" lon="-3.096678"><ele>104</ele><time>2019-09-27T09:56:28Z</time><name>PT1020</name></trkpt>
<trkpt lat="52.930772" lon="-3.096670"><ele>103</ele><time>2019-09-27T09:56:29Z</time><name>PT1021</name></trkpt>
<trkpt lat="52.930764" lon="-3.096669"><ele>104</ele><time>2019-09-27T09:56:30Z</time><name>PT1022</name></trkpt>
<trkpt lat="52.930756" lon="-3.096673"><ele>103</ele><time>2019-09-27T09:56:31Z</time><name>PT1023</name></trkpt>
<trkpt lat="52.930749" lon="-3.096677"><ele>102</ele><time>2019-09-27T09:56:32Z</time><name>PT1024</name></trkpt>
<trkpt lat="52.930744" lon="-3.096676"><ele>103</ele><time>2019-09-27T09:56:33Z</time><name>PT1025</name></trkpt>
<trkpt lat="52.930742" lon="-3.096677"><ele>103</ele><time>2019-09-27T09:56:34Z</time><name>PT1026</name></trkpt>
<trkpt lat="52.930737" lon="-3.096684"><ele>104</ele><time>2019-09-27T09:56:35Z</time><name>PT1027</name></trkpt>
<trkpt lat="52.930732" lon="-3.096686"><ele>104</ele><time>2019-09-27T09:56:36Z</time><name>PT1028</name></trkpt>
<trkpt lat="52.930731" lon="-3.096682"><ele>104</ele><time>2019-09-27T09:56:37Z</time><name>PT1029</name></trkpt>
<trkpt lat="52.930732" lon="-3.096676"><ele>104</ele><time>2019-09-27T09:56:38Z</time><name>PT1030</name></trkpt>
<trkpt lat="52.930732" lon="-3.096675"><ele>104</ele><time>2019-09-27T09:56:39Z</time><name>PT1031</name></trkpt>
<trkpt lat="52.930732" lon="-3.096674"><ele>104</ele><time>2019-09-27T09:56:40Z</time><name>PT1032</name></trkpt>
<trkpt lat="52.930731" lon="-3.096674"><ele>104</ele><time>2019-09-27T09:56:41Z</time><name>PT1033</name></trkpt>
<trkpt lat="52.930730" lon="-3.096670"><ele>105</ele><time>2019-09-27T09:56:50Z</time><name>PT1034</name></trkpt>
<trkpt lat="52.930728" lon="-3.096673"><ele>105</ele><time>2019-09-27T09:56:51Z</time><name>PT1035</name></trkpt>
<trkpt lat="52.930724" lon="-3.096659"><ele>105</ele><time>2019-09-27T09:56:52Z</time><name>PT1036</name></trkpt>
<trkpt lat="52.930725" lon="-3.096662"><ele>105</ele><time>2019-09-27T09:56:53Z</time><name>PT1037</name></trkpt>
<trkpt lat="52.930723" lon="-3.096661"><ele>105</ele><time>2019-09-27T09:57:03Z</time><name>PT1038</name></trkpt>
<trkpt lat="52.930708" lon="-3.096668"><ele>106</ele><time>2019-09-27T09:57:04Z</time><name>PT1039</name></trkpt>
<trkpt lat="52.930692" lon="-3.096676"><ele>106</ele><time>2019-09-27T09:57:05Z</time><name>PT1040</name></trkpt>
<trkpt lat="52.930678" lon="-3.096684"><ele>105</ele><time>2019-09-27T09:57:06Z</time><name>PT1041</name></trkpt>
<trkpt lat="52.930669" lon="-3.096690"><ele>105</ele><time>2019-09-27T09:57:07Z</time><name>PT1042</name></trkpt>
<trkpt lat="52.930662" lon="-3.096694"><ele>105</ele><time>2019-09-27T09:57:08Z</time><name>PT1043</name></trkpt>
<trkpt lat="52.930652" lon="-3.096697"><ele>105</ele><time>2019-09-27T09:57:09Z</time><name>PT1044</name></trkpt>
<trkpt lat="52.930642" lon="-3.096699"><ele>105</ele><time>2019-09-27T09:57:10Z</time><name>PT1045</name></trkpt>
<trkpt lat="52.930632" lon="-3.096701"><ele>105</ele><time>2019-09-27T09:57:11Z</time><name>PT1046</name></trkpt>
<trkpt lat="52.930617" lon="-3.096701"><ele>105</ele><time>2019-09-27T09:57:12Z</time><name>PT1047</name></trkpt>
<trkpt lat="52.930605" lon="-3.096696"><ele>105</ele><time>2019-09-27T09:57:13Z</time><name>PT1048</name></trkpt>
<trkpt lat="52.930599" lon="-3.096689"><ele>106</ele><time>2019-09-27T09:57:14Z</time><name>PT1049</name></trkpt>
<trkpt lat="52.930595" lon="-3.096690"><ele>105</ele><time>2019-09-27T09:57:15Z</time><name>PT1050</name></trkpt>
<trkpt lat="52.930593" lon="-3.096692"><ele>105</ele><time>2019-09-27T09:57:16Z</time><name>PT1051</name></trkpt>
<trkpt lat="52.930593" lon="-3.096693"><ele>105</ele><time>2019-09-27T09:57:17Z</time><name>PT1052</name></trkpt>
<trkpt lat="52.930591" lon="-3.096717"><ele>106</ele><time>2019-09-27T09:57:22Z</time><name>PT1053</name></trkpt>
<trkpt lat="52.930590" lon="-3.096725"><ele>106</ele><time>2019-09-27T09:57:23Z</time><name>PT1054</name></trkpt>
<trkpt lat="52.930595" lon="-3.096740"><ele>105</ele><time>2019-09-27T09:57:24Z</time><name>PT1055</name></trkpt>
<trkpt lat="52.930592" lon="-3.096741"><ele>105</ele><time>2019-09-27T09:57:25Z</time><name>PT1056</name></trkpt>
<trkpt lat="52.930584" lon="-3.096742"><ele>105</ele><time>2019-09-27T09:57:26Z</time><name>PT1057</name></trkpt>
<trkpt lat="52.930578" lon="-3.096741"><ele>105</ele><time>2019-09-27T09:57:27Z</time><name>PT1058</name></trkpt>
<trkpt lat="52.930568" lon="-3.096741"><ele>105</ele><time>2019-09-27T09:57:28Z</time><name>PT1059</name></trkpt>
<trkpt lat="52.930554" lon="-3.096739"><ele>106</ele><time>2019-09-27T09:57:29Z</time><name>PT1060</name></trkpt>
<trkpt lat="52.930552" lon="-3.096737"><ele>106</ele><time>2019-09-27T09:57:30Z</time><name>PT1061</name></trkpt>
<trkpt lat="52.930550" lon="-3.096733"><ele>106</ele><time>2019-09-27T09:57:31Z</time><name>PT1062</name></trkpt>
<trkpt lat="52.930547" lon="-3.096734"><ele>106</ele><time>2019-09-27T09:57:32Z</time><name>PT1063</name></trkpt>
<trkpt lat="52.930539" lon="-3.096737"><ele>106</ele><time>2019-09-27T09:57:33Z</time><name>PT1064</name></trkpt>
<trkpt lat="52.930531" lon="-3.096735"><ele>106</ele><time>2019-09-27T09:57:34Z</time><name>PT1065</name></trkpt>
<trkpt lat="52.930506" lon="-3.096732"><ele>106</ele><time>2019-09-27T09:57:36Z</time><name>PT1066</name></trkpt>
<trkpt lat="52.930501" lon="-3.096731"><ele>106</ele><time>2019-09-27T09:57:37Z</time><name>PT1067</name></trkpt>
<trkpt lat="52.930491" lon="-3.096728"><ele>107</ele><time>2019-09-27T09:57:38Z</time><name>PT1068</name></trkpt>
<trkpt lat="52.930487" lon="-3.096714"><ele>106</ele><time>2019-09-27T09:57:39Z</time><name>PT1069</name></trkpt>
<trkpt lat="52.930483" lon="-3.096712"><ele>106</ele><time>2019-09-27T09:57:40Z</time><name>PT1070</name></trkpt>
<trkpt lat="52.930473" lon="-3.096711"><ele>107</ele><time>2019-09-27T09:57:41Z</time><name>PT1071</name></trkpt>
<trkpt lat="52.930465" lon="-3.096708"><ele>107</ele><time>2019-09-27T09:57:42Z</time><name>PT1072</name></trkpt>
<trkpt lat="52.930454" lon="-3.096704"><ele>106</ele><time>2019-09-27T09:57:43Z</time><name>PT1073</name></trkpt>
<trkpt lat="52.930448" lon="-3.096701"><ele>106</ele><time>2019-09-27T09:57:44Z</time><name>PT1074</name></trkpt>
<trkpt lat="52.930439" lon="-3.096697"><ele>106</ele><time>2019-09-27T09:57:45Z</time><name>PT1075</name></trkpt>
<trkpt lat="52.930420" lon="-3.096696"><ele>107</ele><time>2019-09-27T09:57:46Z</time><name>PT1076</name></trkpt>
<trkpt lat="52.930409" lon="-3.096693"><ele>106</ele><time>2019-09-27T09:57:47Z</time><name>PT1077</name></trkpt>
<trkpt lat="52.930401" lon="-3.096691"><ele>106</ele><time>2019-09-27T09:57:48Z</time><name>PT1078</name></trkpt>
<trkpt lat="52.930401" lon="-3.096687"><ele>107</ele><time>2019-09-27T09:57:49Z</time><name>PT1079</name></trkpt>
<trkpt lat="52.930391" lon="-3.096680"><ele>107</ele><time>2019-09-27T09:57:50Z</time><name>PT1080</name></trkpt>
<trkpt lat="52.930380" lon="-3.096667"><ele>107</ele><time>2019-09-27T09:57:51Z</time><name>PT1081</name></trkpt>
<trkpt lat="52.930362" lon="-3.096653"><ele>108</ele><time>2019-09-27T09:57:52Z</time><name>PT1082</name></trkpt>
<trkpt lat="52.930351" lon="-3.096636"><ele>108</ele><time>2019-09-27T09:57:53Z</time><name>PT1083</name></trkpt>
<trkpt lat="52.930340" lon="-3.096616"><ele>108</ele><time>2019-09-27T09:57:54Z</time><name>PT1084</name></trkpt>
<trkpt lat="52.930330" lon="-3.096606"><ele>108</ele><time>2019-09-27T09:57:55Z</time><name>PT1085</name></trkpt>
<trkpt lat="52.930318" lon="-3.096604"><ele>109</ele><time>2019-09-27T09:57:56Z</time><name>PT1086</name></trkpt>
<trkpt lat="52.930305" lon="-3.096601"><ele>110</ele><time>2019-09-27T09:57:57Z</time><name>PT1087</name></trkpt>
<trkpt lat="52.930292" lon="-3.096598"><ele>110</ele><time>2019-09-27T09:57:58Z</time><name>PT1088</name></trkpt>
<trkpt lat="52.930279" lon="-3.096589"><ele>111</ele><time>2019-09-27T09:57:59Z</time><name>PT1089</name></trkpt>
<trkpt lat="52.930266" lon="-3.096577"><ele>111</ele><time>2019-09-27T09:58:00Z</time><name>PT1090</name></trkpt>
<trkpt lat="52.930259" lon="-3.096562"><ele>110</ele><time>2019-09-27T09:58:01Z</time><name>PT1091</name></trkpt>
<trkpt lat="52.930247" lon="-3.096559"><ele>110</ele><time>2019-09-27T09:58:02Z</time><name>PT1092</name></trkpt>
<trkpt lat="52.930228" lon="-3.096549"><ele>108</ele><time>2019-09-27T09:58:03Z</time><name>PT1093</name></trkpt>
<trkpt lat="52.930211" lon="-3.096552"><ele>110</ele><time>2019-09-27T09:58:04Z</time><name>PT1094</name></trkpt>
<trkpt lat="52.930200" lon="-3.096544"><ele>109</ele><time>2019-09-27T09:58:05Z</time><name>PT1095</name></trkpt>
<trkpt lat="52.930188" lon="-3.096544"><ele>110</ele><time>2019-09-27T09:58:06Z</time><name>PT1096</name></trkpt>
<trkpt lat="52.930181" lon="-3.096537"><ele>109</ele><time>2019-09-27T09:58:07Z</time><name>PT1097</name></trkpt>
<trkpt lat="52.930170" lon="-3.096530"><ele>108</ele><time>2019-09-27T09:58:08Z</time><name>PT1098</name></trkpt>
<trkpt lat="52.930160" lon="-3.096518"><ele>107</ele><time>2019-09-27T09:58:09Z</time><name>PT1099</name></trkpt>
<trkpt lat="52.930152" lon="-3.096505"><ele>107</ele><time>2019-09-27T09:58:10Z</time><name>PT1100</name></trkpt>
<trkpt lat="52.930148" lon="-3.096500"><ele>107</ele><time>2019-09-27T09:58:11Z</time><name>PT1101</name></trkpt>
<trkpt lat="52.930138" lon="-3.096496"><ele>106</ele><time>2019-09-27T09:58:12Z</time><name>PT1102</name></trkpt>
<trkpt lat="52.930125" lon="-3.096490"><ele>107</ele><time>2019-09-27T09:58:13Z</time><name>PT1103</name></trkpt>
<trkpt lat="52.930111" lon="-3.096481"><ele>107</ele><time>2019-09-27T09:58:14Z</time><name>PT1104</name></trkpt>
<trkpt lat="52.930097" lon="-3.096468"><ele>107</ele><time>2019-09-27T09:58:15Z</time><name>PT1105</name></trkpt>
<trkpt lat="52.930090" lon="-3.096459"><ele>107</ele><time>2019-09-27T09:58:16Z</time><name>PT1106</name></trkpt>
<trkpt lat="52.930082" lon="-3.096449"><ele>107</ele><time>2019-09-27T09:58:17Z</time><name>PT1107</name></trkpt>
<trkpt lat="52.930073" lon="-3.096437"><ele>107</ele><time>2019-09-27T09:58:18Z</time><name>PT1108</name></trkpt>
<trkpt lat="52.930063" lon="-3.096428"><ele>106</ele><time>2019-09-27T09:58:19Z</time><name>PT1109</name></trkpt>
<trkpt lat="52.930057" lon="-3.096413"><ele>107</ele><time>2019-09-27T09:58:20Z</time><name>PT1110</name></trkpt>
<trkpt lat="52.930050" lon="-3.096401"><ele>106</ele><time>2019-09-27T09:58:21Z</time><name>PT1111</name></trkpt>
<trkpt lat="52.930045" lon="-3.096390"><ele>106</ele><time>2019-09-27T09:58:22Z</time><name>PT1112</name></trkpt>
<trkpt lat="52.930041" lon="-3.096374"><ele>105</ele><time>2019-09-27T09:58:23Z</time><name>PT1113</name></trkpt>
<trkpt lat="52.930038" lon="-3.096350"><ele>105</ele><time>2019-09-27T09:58:24Z</time><name>PT1114</name></trkpt>
<trkpt lat="52.930025" lon="-3.096343"><ele>105</ele><time>2019-09-27T09:58:25Z</time><name>PT1115</name></trkpt>
<trkpt lat="52.930016" lon="-3.096332"><ele>105</ele><time>2019-09-27T09:58:26Z</time><name>PT1116</name></trkpt>
<trkpt lat="52.930009" lon="-3.096316"><ele>106</ele><time>2019-09-27T09:58:27Z</time><name>PT1117</name></trkpt>
<trkpt lat="52.930001" lon="-3.096303"><ele>107</ele><time>2019-09-27T09:58:28Z</time><name>PT1118</name></trkpt>
<trkpt lat="52.929993" lon="-3.096288"><ele>107</ele><time>2019-09-27T09:58:29Z</time><name>PT1119</name></trkpt>
<trkpt lat="52.929981" lon="-3.096275"><ele>107</ele><time>2019-09-27T09:58:30Z</time><name>PT1120</name></trkpt>
<trkpt lat="52.929979" lon="-3.096245"><ele>106</ele><time>2019-09-27T09:58:31Z</time><name>PT1121</name></trkpt>
<trkpt lat="52.929979" lon="-3.096230"><ele>107</ele><time>2019-09-27T09:58:32Z</time><name>PT1122</name></trkpt>
<trkpt lat="52.929977" lon="-3.096216"><ele>106</ele><time>2019-09-27T09:58:33Z</time><name>PT1123</name></trkpt>
<trkpt lat="52.929968" lon="-3.096209"><ele>107</ele><time>2019-09-27T09:58:34Z</time><name>PT1124</name></trkpt>
<trkpt lat="52.929958" lon="-3.096206"><ele>107</ele><time>2019-09-27T09:58:35Z</time><name>PT1125</name></trkpt>
<trkpt lat="52.929944" lon="-3.096207"><ele>107</ele><time>2019-09-27T09:58:36Z</time><name>PT1126</name></trkpt>
<trkpt lat="52.929935" lon="-3.096202"><ele>107</ele><time>2019-09-27T09:58:37Z</time><name>PT1127</name></trkpt>
<trkpt lat="52.929931" lon="-3.096194"><ele>108</ele><time>2019-09-27T09:58:38Z</time><name>PT1128</name></trkpt>
<trkpt lat="52.929925" lon="-3.096187"><ele>109</ele><time>2019-09-27T09:58:39Z</time><name>PT1129</name></trkpt>
<trkpt lat="52.929914" lon="-3.096179"><ele>110</ele><time>2019-09-27T09:58:40Z</time><name>PT1130</name></trkpt>
<trkpt lat="52.929905" lon="-3.096173"><ele>111</ele><time>2019-09-27T09:58:41Z</time><name>PT1131</name></trkpt>
<trkpt lat="52.929906" lon="-3.096166"><ele>113</ele><time>2019-09-27T09:58:42Z</time><name>PT1132</name></trkpt>
<trkpt lat="52.929902" lon="-3.096161"><ele>115</ele><time>2019-09-27T09:58:43Z</time><name>PT1133</name></trkpt>
<trkpt lat="52.929896" lon="-3.096154"><ele>116</ele><time>2019-09-27T09:58:44Z</time><name>PT1134</name></trkpt>
<trkpt lat="52.929887" lon="-3.096147"><ele>116</ele><time>2019-09-27T09:58:45Z</time><name>PT1135</name></trkpt>
<trkpt lat="52.929877" lon="-3.096144"><ele>117</ele><time>2019-09-27T09:58:46Z</time><name>PT1136</name></trkpt>
<trkpt lat="52.929868" lon="-3.096140"><ele>118</ele><time>2019-09-27T09:58:47Z</time><name>PT1137</name></trkpt>
<trkpt lat="52.929861" lon="-3.096140"><ele>118</ele><time>2019-09-27T09:58:48Z</time><name>PT1138</name></trkpt>
<trkpt lat="52.929859" lon="-3.096141"><ele>118</ele><time>2019-09-27T09:58:49Z</time><name>PT1139</name></trkpt>
<trkpt lat="52.929859" lon="-3.096144"><ele>119</ele><time>2019-09-27T09:58:50Z</time><name>PT1140</name></trkpt>
<trkpt lat="52.929855" lon="-3.096141"><ele>119</ele><time>2019-09-27T09:58:51Z</time><name>PT1141</name></trkpt>
<trkpt lat="52.929848" lon="-3.096141"><ele>120</ele><time>2019-09-27T09:58:52Z</time><name>PT1142</name></trkpt>
<trkpt lat="52.929840" lon="-3.096140"><ele>120</ele><time>2019-09-27T09:58:53Z</time><name>PT1143</name></trkpt>
<trkpt lat="52.929835" lon="-3.096140"><ele>120</ele><time>2019-09-27T09:58:54Z</time><name>PT1144</name></trkpt>
<trkpt lat="52.929826" lon="-3.096140"><ele>121</ele><time>2019-09-27T09:58:55Z</time><name>PT1145</name></trkpt>
<trkpt lat="52.929815" lon="-3.096142"><ele>120</ele><time>2019-09-27T09:58:56Z</time><name>PT1146</name></trkpt>
<trkpt lat="52.929806" lon="-3.096142"><ele>121</ele><time>2019-09-27T09:58:57Z</time><name>PT1147</name></trkpt>
<trkpt lat="52.929798" lon="-3.096143"><ele>121</ele><time>2019-09-27T09:58:58Z</time><name>PT1148</name></trkpt>
<trkpt lat="52.929796" lon="-3.096140"><ele>122</ele><time>2019-09-27T09:58:59Z</time><name>PT1149</name></trkpt>
<trkpt lat="52.929790" lon="-3.096129"><ele>121</ele><time>2019-09-27T09:59:00Z</time><name>PT1150</name></trkpt>
<trkpt lat="52.929785" lon="-3.096121"><ele>122</ele><time>2019-09-27T09:59:01Z</time><name>PT1151</name></trkpt>
<trkpt lat="52.929781" lon="-3.096118"><ele>122</ele><time>2019-09-27T09:59:02Z</time><name>PT1152</name></trkpt>
<trkpt lat="52.929774" lon="-3.096119"><ele>122</ele><time>2019-09-27T09:59:03Z</time><name>PT1153</name></trkpt>
<trkpt lat="52.929770" lon="-3.096121"><ele>121</ele><time>2019-09-27T09:59:04Z</time><name>PT1154</name></trkpt>
<trkpt lat="52.929761" lon="-3.096117"><ele>122</ele><time>2019-09-27T09:59:05Z</time><name>PT1155</name></trkpt>
<trkpt lat="52.929751" lon="-3.096120"><ele>122</ele><time>2019-09-27T09:59:06Z</time><name>PT1156</name></trkpt>
<trkpt lat="52.929744" lon="-3.096118"><ele>122</ele><time>2019-09-27T09:59:07Z</time><name>PT1157</name></trkpt>
<trkpt lat="52.929737" lon="-3.096113"><ele>122</ele><time>2019-09-27T09:59:08Z</time><name>PT1158</name></trkpt>
<trkpt lat="52.929730" lon="-3.096113"><ele>122</ele><time>2019-09-27T09:59:09Z</time><name>PT1159</name></trkpt>
<trkpt lat="52.929721" lon="-3.096111"><ele>122</ele><time>2019-09-27T09:59:10Z</time><name>PT1160</name></trkpt>
<trkpt lat="52.929709" lon="-3.096113"><ele>121</ele><time>2019-09-27T09:59:11Z</time><name>PT1161</name></trkpt>
<trkpt lat="52.929702" lon="-3.096120"><ele>120</ele><time>2019-09-27T09:59:12Z</time><name>PT1162</name></trkpt>
<trkpt lat="52.929698" lon="-3.096126"><ele>120</ele><time>2019-09-27T09:59:13Z</time><name>PT1163</name></trkpt>
<trkpt lat="52.929686" lon="-3.096129"><ele>118</ele><time>2019-09-27T09:59:14Z</time><name>PT1164</name></trkpt>
<trkpt lat="52.929672" lon="-3.096135"><ele>118</ele><time>2019-09-27T09:59:15Z</time><name>PT1165</name></trkpt>
<trkpt lat="52.929652" lon="-3.096143"><ele>119</ele><time>2019-09-27T09:59:16Z</time><name>PT1166</name></trkpt>
<trkpt lat="52.929631" lon="-3.096152"><ele>120</ele><time>2019-09-27T09:59:17Z</time><name>PT1167</name></trkpt>
<trkpt lat="52.929621" lon="-3.096158"><ele>120</ele><time>2019-09-27T09:59:18Z</time><name>PT1168</name></trkpt>
<trkpt lat="52.929607" lon="-3.096165"><ele>121</ele><time>2019-09-27T09:59:19Z</time><name>PT1169</name></trkpt>
<trkpt lat="52.929594" lon="-3.096172"><ele>122</ele><time>2019-09-27T09:59:20Z</time><name>PT1170</name></trkpt>
<trkpt lat="52.929581" lon="-3.096182"><ele>122</ele><time>2019-09-27T09:59:21Z</time><name>PT1171</name></trkpt>
<trkpt lat="52.929571" lon="-3.096190"><ele>122</ele><time>2019-09-27T09:59:22Z</time><name>PT1172</name></trkpt>
<trkpt lat="52.929564" lon="-3.096199"><ele>123</ele><time>2019-09-27T09:59:23Z</time><name>PT1173</name></trkpt>
<trkpt lat="52.929556" lon="-3.096207"><ele>123</ele><time>2019-09-27T09:59:24Z</time><name>PT1174</name></trkpt>
<trkpt lat="52.929551" lon="-3.096213"><ele>123</ele><time>2019-09-27T09:59:25Z</time><name>PT1175</name></trkpt>
<trkpt lat="52.929545" lon="-3.096221"><ele>124</ele><time>2019-09-27T09:59:26Z</time><name>PT1176</name></trkpt>
<trkpt lat="52.929540" lon="-3.096227"><ele>124</ele><time>2019-09-27T09:59:27Z</time><name>PT1177</name></trkpt>
<trkpt lat="52.929530" lon="-3.096236"><ele>124</ele><time>2019-09-27T09:59:28Z</time><name>PT1178</name></trkpt>
<trkpt lat="52.929524" lon="-3.096248"><ele>124</ele><time>2019-09-27T09:59:29Z</time><name>PT1179</name></trkpt>
<trkpt lat="52.929525" lon="-3.096260"><ele>125</ele><time>2019-09-27T09:59:30Z</time><name>PT1180</name></trkpt>
<trkpt lat="52.929521" lon="-3.096269"><ele>125</ele><time>2019-09-27T09:59:31Z</time><name>PT1181</name></trkpt>
<trkpt lat="52.929512" lon="-3.096281"><ele>125</ele><time>2019-09-27T09:59:32Z</time><name>PT1182</name></trkpt>
<trkpt lat="52.929508" lon="-3.096289"><ele>125</ele><time>2019-09-27T09:59:33Z</time><name>PT1183</name></trkpt>
<trkpt lat="52.929503" lon="-3.096299"><ele>125</ele><time>2019-09-27T09:59:34Z</time><name>PT1184</name></trkpt>
<trkpt lat="52.929497" lon="-3.096312"><ele>124</ele><time>2019-09-27T09:59:35Z</time><name>PT1185</name></trkpt>
<trkpt lat="52.929491" lon="-3.096322"><ele>125</ele><time>2019-09-27T09:59:36Z</time><name>PT1186</name></trkpt>
<trkpt lat="52.929486" lon="-3.096329"><ele>125</ele><time>2019-09-27T09:59:37Z</time><name>PT1187</name></trkpt>
<trkpt lat="52.929471" lon="-3.096329"><ele>122</ele><time>2019-09-27T09:59:38Z</time><name>PT1188</name></trkpt>
<trkpt lat="52.929469" lon="-3.096338"><ele>122</ele><time>2019-09-27T09:59:39Z</time><name>PT1189</name></trkpt>
<trkpt lat="52.929470" lon="-3.096342"><ele>121</ele><time>2019-09-27T09:59:40Z</time><name>PT1190</name></trkpt>
<trkpt lat="52.929463" lon="-3.096349"><ele>122</ele><time>2019-09-27T09:59:41Z</time><name>PT1191</name></trkpt>
<trkpt lat="52.929456" lon="-3.096359"><ele>121</ele><time>2019-09-27T09:59:42Z</time><name>PT1192</name></trkpt>
<trkpt lat="52.929449" lon="-3.096372"><ele>122</ele><time>2019-09-27T09:59:43Z</time><name>PT1193</name></trkpt>
<trkpt lat="52.929442" lon="-3.096381"><ele>122</ele><time>2019-09-27T09:59:44Z</time><name>PT1194</name></trkpt>
<trkpt lat="52.929440" lon="-3.096387"><ele>122</ele><time>2019-09-27T09:59:45Z</time><name>PT1195</name></trkpt>
<trkpt lat="52.929436" lon="-3.096397"><ele>124</ele><time>2019-09-27T09:59:46Z</time><name>PT1196</name></trkpt>
<trkpt lat="52.929432" lon="-3.096405"><ele>124</ele><time>2019-09-27T09:59:47Z</time><name>PT1197</name></trkpt>
<trkpt lat="52.929423" lon="-3.096419"><ele>125</ele><time>2019-09-27T09:59:48Z</time><name>PT1198</name></trkpt>
<trkpt lat="52.929418" lon="-3.096431"><ele>126</ele><time>2019-09-27T09:59:49Z</time><name>PT1199</name></trkpt>
<trkpt lat="52.929414" lon="-3.096446"><ele>127</ele><time>2019-09-27T09:59:50Z</time><name>PT1200</name></trkpt>
<trkpt lat="52.929408" lon="-3.096459"><ele>127</ele><time>2019-09-27T09:59:51Z</time><name>PT1201</name></trkpt>
<trkpt lat="52.929402" lon="-3.096470"><ele>128</ele><time>2019-09-27T09:59:52Z</time><name>PT1202</name></trkpt>
<trkpt lat="52.929403" lon="-3.096482"><ele>128</ele><time>2019-09-27T09:59:53Z</time><name>PT1203</name></trkpt>
<trkpt lat="52.929397" lon="-3.096491"><ele>129</ele><time>2019-09-27T09:59:54Z</time><name>PT1204</name></trkpt>
<trkpt lat="52.929391" lon="-3.096505"><ele>129</ele><time>2019-09-27T09:59:55Z</time><name>PT1205</name></trkpt>
<trkpt lat="52.929384" lon="-3.096517"><ele>129</ele><time>2019-09-27T09:59:56Z</time><name>PT1206</name></trkpt>
<trkpt lat="52.929378" lon="-3.096529"><ele>129</ele><time>2019-09-27T09:59:57Z</time><name>PT1207</name></trkpt>
<trkpt lat="52.929369" lon="-3.096545"><ele>129</ele><time>2019-09-27T09:59:58Z</time><name>PT1208</name></trkpt>
<trkpt lat="52.929360" lon="-3.096559"><ele>129</ele><time>2019-09-27T09:59:59Z</time><name>PT1209</name></trkpt>
<trkpt lat="52.929350" lon="-3.096572"><ele>129</ele><time>2019-09-27T10:00:00Z</time><name>PT1210</name></trkpt>
<trkpt lat="52.929341" lon="-3.096586"><ele>129</ele><time>2019-09-27T10:00:01Z</time><name>PT1211</name></trkpt>
<trkpt lat="52.929332" lon="-3.096601"><ele>130</ele><time>2019-09-27T10:00:02Z</time><name>PT1212</name></trkpt>
<trkpt lat="52.929324" lon="-3.096615"><ele>130</ele><time>2019-09-27T10:00:03Z</time><name>PT1213</name></trkpt>
<trkpt lat="52.929313" lon="-3.096623"><ele>129</ele><time>2019-09-27T10:00:04Z</time><name>PT1214</name></trkpt>
<trkpt lat="52.929302" lon="-3.096630"><ele>129</ele><time>2019-09-27T10:00:05Z</time><name>PT1215</name></trkpt>
<trkpt lat="52.929291" lon="-3.096639"><ele>129</ele><time>2019-09-27T10:00:06Z</time><name>PT1216</name></trkpt>
<trkpt lat="52.929283" lon="-3.096647"><ele>129</ele><time>2019-09-27T10:00:07Z</time><name>PT1217</name></trkpt>
<trkpt lat="52.929277" lon="-3.096660"><ele>129</ele><time>2019-09-27T10:00:08Z</time><name>PT1218</name></trkpt>
<trkpt lat="52.929275" lon="-3.096671"><ele>130</ele><time>2019-09-27T10:00:09Z</time><name>PT1219</name></trkpt>
<trkpt lat="52.929269" lon="-3.096680"><ele>130</ele><time>2019-09-27T10:00:10Z</time><name>PT1220</name></trkpt>
<trkpt lat="52.929266" lon="-3.096692"><ele>130</ele><time>2019-09-27T10:00:11Z</time><name>PT1221</name></trkpt>
<trkpt lat="52.929263" lon="-3.096703"><ele>130</ele><time>2019-09-27T10:00:12Z</time><name>PT1222</name></trkpt>
<trkpt lat="52.929260" lon="-3.096712"><ele>130</ele><time>2019-09-27T10:00:13Z</time><name>PT1223</name></trkpt>
<trkpt lat="52.929252" lon="-3.096722"><ele>131</ele><time>2019-09-27T10:00:14Z</time><name>PT1224</name></trkpt>
<trkpt lat="52.929247" lon="-3.096738"><ele>131</ele><time>2019-09-27T10:00:15Z</time><name>PT1225</name></trkpt>
<trkpt lat="52.929243" lon="-3.096753"><ele>131</ele><time>2019-09-27T10:00:16Z</time><name>PT1226</name></trkpt>
<trkpt lat="52.929240" lon="-3.096763"><ele>130</ele><time>2019-09-27T10:00:17Z</time><name>PT1227</name></trkpt>
<trkpt lat="52.929238" lon="-3.096770"><ele>130</ele><time>2019-09-27T10:00:18Z</time><name>PT1228</name></trkpt>
<trkpt lat="52.929241" lon="-3.096779"><ele>131</ele><time>2019-09-27T10:00:20Z</time><name>PT1229</name></trkpt>
<trkpt lat="52.929241" lon="-3.096783"><ele>132</ele><time>2019-09-27T10:00:21Z</time><name>PT1230</name></trkpt>
<trkpt lat="52.929236" lon="-3.096785"><ele>131</ele><time>2019-09-27T10:00:22Z</time><name>PT1231</name></trkpt>
<trkpt lat="52.929233" lon="-3.096784"><ele>131</ele><time>2019-09-27T10:00:23Z</time><name>PT1232</name></trkpt>
<trkpt lat="52.929229" lon="-3.096782"><ele>131</ele><time>2019-09-27T10:00:24Z</time><name>PT1233</name></trkpt>
<trkpt lat="52.929235" lon="-3.096783"><ele>131</ele><time>2019-09-27T10:00:25Z</time><name>PT1234</name></trkpt>
<trkpt lat="52.929229" lon="-3.096780"><ele>131</ele><time>2019-09-27T10:00:26Z</time><name>PT1235</name></trkpt>
<trkpt lat="52.929222" lon="-3.096772"><ele>131</ele><time>2019-09-27T10:00:27Z</time><name>PT1236</name></trkpt>
<trkpt lat="52.929220" lon="-3.096769"><ele>131</ele><time>2019-09-27T10:00:28Z</time><name>PT1237</name></trkpt>
<trkpt lat="52.929217" lon="-3.096767"><ele>131</ele><time>2019-09-27T10:00:29Z</time><name>PT1238</name></trkpt>
<trkpt lat="52.929210" lon="-3.096763"><ele>131</ele><time>2019-09-27T10:00:30Z</time><name>PT1239</name></trkpt>
<trkpt lat="52.929202" lon="-3.096763"><ele>131</ele><time>2019-09-27T10:00:31Z</time><name>PT1240</name></trkpt>
<trkpt lat="52.929184" lon="-3.096767"><ele>132</ele><time>2019-09-27T10:00:32Z</time><name>PT1241</name></trkpt>
<trkpt lat="52.929177" lon="-3.096766"><ele>133</ele><time>2019-09-27T10:00:33Z</time><name>PT1242</name></trkpt>
<trkpt lat="52.929168" lon="-3.096764"><ele>132</ele><time>2019-09-27T10:00:34Z</time><name>PT1243</name></trkpt>
<trkpt lat="52.929160" lon="-3.096772"><ele>132</ele><time>2019-09-27T10:00:35Z</time><name>PT1244</name></trkpt>
<trkpt lat="52.929148" lon="-3.096785"><ele>133</ele><time>2019-09-27T10:00:36Z</time><name>PT1245</name></trkpt>
<trkpt lat="52.929132" lon="-3.096799"><ele>134</ele><time>2019-09-27T10:00:37Z</time><name>PT1246</name></trkpt>
<trkpt lat="52.929121" lon="-3.096814"><ele>134</ele><time>2019-09-27T10:00:38Z</time><name>PT1247</name></trkpt>
<trkpt lat="52.929109" lon="-3.096828"><ele>135</ele><time>2019-09-27T10:00:39Z</time><name>PT1248</name></trkpt>
<trkpt lat="52.929098" lon="-3.096843"><ele>135</ele><time>2019-09-27T10:00:40Z</time><name>PT1249</name></trkpt>
<trkpt lat="52.929092" lon="-3.096857"><ele>135</ele><time>2019-09-27T10:00:41Z</time><name>PT1250</name></trkpt>
<trkpt lat="52.929083" lon="-3.096866"><ele>135</ele><time>2019-09-27T10:00:42Z</time><name>PT1251</name></trkpt>
<trkpt lat="52.929075" lon="-3.096875"><ele>135</ele><time>2019-09-27T10:00:43Z</time><name>PT1252</name></trkpt>
<trkpt lat="52.929072" lon="-3.096886"><ele>134</ele><time>2019-09-27T10:00:44Z</time><name>PT1253</name></trkpt>
<trkpt lat="52.929070" lon="-3.096909"><ele>134</ele><time>2019-09-27T10:00:46Z</time><name>PT1254</name></trkpt>
<trkpt lat="52.929068" lon="-3.096919"><ele>134</ele><time>2019-09-27T10:00:47Z</time><name>PT1255</name></trkpt>
<trkpt lat="52.929066" lon="-3.096933"><ele>134</ele><time>2019-09-27T10:00:48Z</time><name>PT1256</name></trkpt>
<trkpt lat="52.929062" lon="-3.096946"><ele>134</ele><time>2019-09-27T10:00:49Z</time><name>PT1257</name></trkpt>
<trkpt lat="52.929057" lon="-3.096960"><ele>134</ele><time>2019-09-27T10:00:50Z</time><name>PT1258</name></trkpt>
<trkpt lat="52.929054" lon="-3.096978"><ele>135</ele><time>2019-09-27T10:00:51Z</time><name>PT1259</name></trkpt>
<trkpt lat="52.929051" lon="-3.096994"><ele>135</ele><time>2019-09-27T10:00:52Z</time><name>PT1260</name></trkpt>
<trkpt lat="52.929046" lon="-3.097007"><ele>135</ele><time>2019-09-27T10:00:53Z</time><name>PT1261</name></trkpt>
<trkpt lat="52.929044" lon="-3.097018"><ele>135</ele><time>2019-09-27T10:00:54Z</time><name>PT1262</name></trkpt>
<trkpt lat="52.929041" lon="-3.097032"><ele>135</ele><time>2019-09-27T10:00:55Z</time><name>PT1263</name></trkpt>
<trkpt lat="52.929039" lon="-3.097046"><ele>136</ele><time>2019-09-27T10:00:56Z</time><name>PT1264</name></trkpt>
<trkpt lat="52.929037" lon="-3.097062"><ele>136</ele><time>2019-09-27T10:00:57Z</time><name>PT1265</name></trkpt>
<trkpt lat="52.929034" lon="-3.097076"><ele>136</ele><time>2019-09-27T10:00:58Z</time><name>PT1266</name></trkpt>
<trkpt lat="52.929032" lon="-3.097086"><ele>136</ele><time>2019-09-27T10:00:59Z</time><name>PT1267</name></trkpt>
<trkpt lat="52.929029" lon="-3.097101"><ele>136</ele><time>2019-09-27T10:01:00Z</time><name>PT1268</name></trkpt>
<trkpt lat="52.929025" lon="-3.097114"><ele>136</ele><time>2019-09-27T10:01:01Z</time><name>PT1269</name></trkpt>
<trkpt lat="52.929026" lon="-3.097129"><ele>136</ele><time>2019-09-27T10:01:02Z</time><name>PT1270</name></trkpt>
<trkpt lat="52.929022" lon="-3.097141"><ele>136</ele><time>2019-09-27T10:01:03Z</time><name>PT1271</name></trkpt>
<trkpt lat="52.929017" lon="-3.097159"><ele>136</ele><time>2019-09-27T10:01:04Z</time><name>PT1272</name></trkpt>
<trkpt lat="52.929013" lon="-3.097178"><ele>137</ele><time>2019-09-27T10:01:05Z</time><name>PT1273</name></trkpt>
<trkpt lat="52.929011" lon="-3.097193"><ele>137</ele><time>2019-09-27T10:01:06Z</time><name>PT1274</name></trkpt>
<trkpt lat="52.929008" lon="-3.097206"><ele>137</ele><time>2019-09-27T10:01:07Z</time><name>PT1275</name></trkpt>
<trkpt lat="52.929003" lon="-3.097219"><ele>137</ele><time>2019-09-27T10:01:08Z</time><name>PT1276</name></trkpt>
<trkpt lat="52.929000" lon="-3.097230"><ele>137</ele><time>2019-09-27T10:01:09Z</time><name>PT1277</name></trkpt>
<trkpt lat="52.928993" lon="-3.097241"><ele>136</ele><time>2019-09-27T10:01:10Z</time><name>PT1278</name></trkpt>
<trkpt lat="52.928988" lon="-3.097255"><ele>136</ele><time>2019-09-27T10:01:11Z</time><name>PT1279</name></trkpt>
<trkpt lat="52.928986" lon="-3.097266"><ele>137</ele><time>2019-09-27T10:01:12Z</time><name>PT1280</name></trkpt>
<trkpt lat="52.928982" lon="-3.097282"><ele>137</ele><time>2019-09-27T10:01:13Z</time><name>PT1281</name></trkpt>
<trkpt lat="52.928980" lon="-3.097293"><ele>136</ele><time>2019-09-27T10:01:14Z</time><name>PT1282</name></trkpt>
<trkpt lat="52.928975" lon="-3.097302"><ele>135</ele><time>2019-09-27T10:01:15Z</time><name>PT1283</name></trkpt>
<trkpt lat="52.928971" lon="-3.097310"><ele>135</ele><time>2019-09-27T10:01:16Z</time><name>PT1284</name></trkpt>
<trkpt lat="52.928972" lon="-3.097322"><ele>135</ele><time>2019-09-27T10:01:17Z</time><name>PT1285</name></trkpt>
<trkpt lat="52.928970" lon="-3.097336"><ele>134</ele><time>2019-09-27T10:01:18Z</time><name>PT1286</name></trkpt>
<trkpt lat="52.928968" lon="-3.097347"><ele>134</ele><time>2019-09-27T10:01:19Z</time><name>PT1287</name></trkpt>
<trkpt lat="52.928962" lon="-3.097355"><ele>135</ele><time>2019-09-27T10:01:20Z</time><name>PT1288</name></trkpt>
<trkpt lat="52.928959" lon="-3.097370"><ele>135</ele><time>2019-09-27T10:01:21Z</time><name>PT1289</name></trkpt>
<trkpt lat="52.928957" lon="-3.097383"><ele>135</ele><time>2019-09-27T10:01:22Z</time><name>PT1290</name></trkpt>
<trkpt lat="52.928955" lon="-3.097394"><ele>135</ele><time>2019-09-27T10:01:23Z</time><name>PT1291</name></trkpt>
<trkpt lat="52.928950" lon="-3.097400"><ele>135</ele><time>2019-09-27T10:01:24Z</time><name>PT1292</name></trkpt>
<trkpt lat="52.928946" lon="-3.097412"><ele>134</ele><time>2019-09-27T10:01:25Z</time><name>PT1293</name></trkpt>
<trkpt lat="52.928940" lon="-3.097426"><ele>135</ele><time>2019-09-27T10:01:26Z</time><name>PT1294</name></trkpt>
<trkpt lat="52.928939" lon="-3.097441"><ele>135</ele><time>2019-09-27T10:01:27Z</time><name>PT1295</name></trkpt>
<trkpt lat="52.928935" lon="-3.097451"><ele>135</ele><time>2019-09-27T10:01:28Z</time><name>PT1296</name></trkpt>
<trkpt lat="52.928931" lon="-3.097460"><ele>135</ele><time>2019-09-27T10:01:29Z</time><name>PT1297</name></trkpt>
<trkpt lat="52.928925" lon="-3.097473"><ele>136</ele><time>2019-09-27T10:01:30Z</time><name>PT1298</name></trkpt>
<trkpt lat="52.928920" lon="-3.097483"><ele>136</ele><time>2019-09-27T10:01:31Z</time><name>PT1299</name></trkpt>
<trkpt lat="52.928918" lon="-3.097501"><ele>135</ele><time>2019-09-27T10:01:32Z</time><name>PT1300</name></trkpt>
<trkpt lat="52.928916" lon="-3.097517"><ele>136</ele><time>2019-09-27T10:01:33Z</time><name>PT1301</name></trkpt>
<trkpt lat="52.928910" lon="-3.097530"><ele>136</ele><time>2019-09-27T10:01:34Z</time><name>PT1302</name></trkpt>
<trkpt lat="52.928905" lon="-3.097553"><ele>136</ele><time>2019-09-27T10:01:35Z</time><name>PT1303</name></trkpt>
<trkpt lat="52.928901" lon="-3.097568"><ele>137</ele><time>2019-09-27T10:01:36Z</time><name>PT1304</name></trkpt>
<trkpt lat="52.928896" lon="-3.097581"><ele>137</ele><time>2019-09-27T10:01:37Z</time><name>PT1305</name></trkpt>
<trkpt lat="52.928891" lon="-3.097593"><ele>138</ele><time>2019-09-27T10:01:38Z</time><name>PT1306</name></trkpt>
<trkpt lat="52.928888" lon="-3.097609"><ele>138</ele><time>2019-09-27T10:01:39Z</time><name>PT1307</name></trkpt>
<trkpt lat="52.928886" lon="-3.097621"><ele>138</ele><time>2019-09-27T10:01:40Z</time><name>PT1308</name></trkpt>
<trkpt lat="52.928883" lon="-3.097636"><ele>138</ele><time>2019-09-27T10:01:41Z</time><name>PT1309</name></trkpt>
<trkpt lat="52.928886" lon="-3.097660"><ele>138</ele><time>2019-09-27T10:01:42Z</time><name>PT1310</name></trkpt>
<trkpt lat="52.928881" lon="-3.097675"><ele>138</ele><time>2019-09-27T10:01:43Z</time><name>PT1311</name></trkpt>
<trkpt lat="52.928879" lon="-3.097688"><ele>138</ele><time>2019-09-27T10:01:44Z</time><name>PT1312</name></trkpt>
<trkpt lat="52.928880" lon="-3.097706"><ele>138</ele><time>2019-09-27T10:01:45Z</time><name>PT1313</name></trkpt>
<trkpt lat="52.928878" lon="-3.097722"><ele>138</ele><time>2019-09-27T10:01:46Z</time><name>PT1314</name></trkpt>
<trkpt lat="52.928876" lon="-3.097737"><ele>138</ele><time>2019-09-27T10:01:47Z</time><name>PT1315</name></trkpt>
<trkpt lat="52.928874" lon="-3.097752"><ele>138</ele><time>2019-09-27T10:01:48Z</time><name>PT1316</name></trkpt>
<trkpt lat="52.928869" lon="-3.097765"><ele>139</ele><time>2019-09-27T10:01:49Z</time><name>PT1317</name></trkpt>
<trkpt lat="52.928863" lon="-3.097778"><ele>139</ele><time>2019-09-27T10:01:50Z</time><name>PT1318</name></trkpt>
<trkpt lat="52.928860" lon="-3.097790"><ele>140</ele><time>2019-09-27T10:01:51Z</time><name>PT1319</name></trkpt>
<trkpt lat="52.928855" lon="-3.097798"><ele>140</ele><time>2019-09-27T10:01:52Z</time><name>PT1320</name></trkpt>
<trkpt lat="52.928854" lon="-3.097813"><ele>140</ele><time>2019-09-27T10:01:53Z</time><name>PT1321</name></trkpt>
<trkpt lat="52.928850" lon="-3.097824"><ele>140</ele><time>2019-09-27T10:01:54Z</time><name>PT1322</name></trkpt>
<trkpt lat="52.928844" lon="-3.097837"><ele>141</ele><time>2019-09-27T10:01:55Z</time><name>PT1323</name></trkpt>
<trkpt lat="52.928837" lon="-3.097851"><ele>142</ele><time>2019-09-27T10:01:56Z</time><name>PT1324</name></trkpt>
<trkpt lat="52.928831" lon="-3.097862"><ele>142</ele><time>2019-09-27T10:01:57Z</time><name>PT1325</name></trkpt>
<trkpt lat="52.928824" lon="-3.097873"><ele>142</ele><time>2019-09-27T10:01:58Z</time><name>PT1326</name></trkpt>
<trkpt lat="52.928818" lon="-3.097883"><ele>142</ele><time>2019-09-27T10:01:59Z</time><name>PT1327</name></trkpt>
<trkpt lat="52.928811" lon="-3.097896"><ele>142</ele><time>2019-09-27T10:02:00Z</time><name>PT1328</name></trkpt>
<trkpt lat="52.928806" lon="-3.097903"><ele>143</ele><time>2019-09-27T10:02:01Z</time><name>PT1329</name></trkpt>
<trkpt lat="52.928803" lon="-3.097910"><ele>142</ele><time>2019-09-27T10:02:02Z</time><name>PT1330</name></trkpt>
<trkpt lat="52.928795" lon="-3.097926"><ele>143</ele><time>2019-09-27T10:02:03Z</time><name>PT1331</name></trkpt>
<trkpt lat="52.928788" lon="-3.097938"><ele>143</ele><time>2019-09-27T10:02:04Z</time><name>PT1332</name></trkpt>
<trkpt lat="52.928782" lon="-3.097952"><ele>144</ele><time>2019-09-27T10:02:05Z</time><name>PT1333</name></trkpt>
<trkpt lat="52.928776" lon="-3.097965"><ele>144</ele><time>2019-09-27T10:02:06Z</time><name>PT1334</name></trkpt>
<trkpt lat="52.928766" lon="-3.097980"><ele>146</ele><time>2019-09-27T10:02:07Z</time><name>PT1335</name></trkpt>
<trkpt lat="52.928762" lon="-3.097990"><ele>146</ele><time>2019-09-27T10:02:08Z</time><name>PT1336</name></trkpt>
<trkpt lat="52.928757" lon="-3.097999"><ele>146</ele><time>2019-09-27T10:02:09Z</time><name>PT1337</name></trkpt>
<trkpt lat="52.928752" lon="-3.098011"><ele>147</ele><time>2019-09-27T10:02:10Z</time><name>PT1338</name></trkpt>
<trkpt lat="52.928740" lon="-3.098016"><ele>148</ele><time>2019-09-27T10:02:11Z</time><name>PT1339</name></trkpt>
<trkpt lat="52.928737" lon="-3.098026"><ele>147</ele><time>2019-09-27T10:02:12Z</time><name>PT1340</name></trkpt>
<trkpt lat="52.928733" lon="-3.098035"><ele>148</ele><time>2019-09-27T10:02:13Z</time><name>PT1341</name></trkpt>
<trkpt lat="52.928730" lon="-3.098040"><ele>148</ele><time>2019-09-27T10:02:14Z</time><name>PT1342</name></trkpt>
<trkpt lat="52.928726" lon="-3.098052"><ele>148</ele><time>2019-09-27T10:02:15Z</time><name>PT1343</name></trkpt>
<trkpt lat="52.928716" lon="-3.098064"><ele>148</ele><time>2019-09-27T10:02:17Z</time><name>PT1344</name></trkpt>
<trkpt lat="52.928709" lon="-3.098074"><ele>148</ele><time>2019-09-27T10:02:18Z</time><name>PT1345</name></trkpt>
<trkpt lat="52.928703" lon="-3.098084"><ele>148</ele><time>2019-09-27T10:02:19Z</time><name>PT1346</name></trkpt>
<trkpt lat="52.928699" lon="-3.098094"><ele>148</ele><time>2019-09-27T10:02:20Z</time><name>PT1347</name></trkpt>
<trkpt lat="52.928694" lon="-3.098106"><ele>148</ele><time>2019-09-27T10:02:21Z</time><name>PT1348</name></trkpt>
<trkpt lat="52.928686" lon="-3.098116"><ele>149</ele><time>2019-09-27T10:02:22Z</time><name>PT1349</name></trkpt>
<trkpt lat="52.928681" lon="-3.098123"><ele>149</ele><time>2019-09-27T10:02:23Z</time><name>PT1350</name></trkpt>
<trkpt lat="52.928675" lon="-3.098133"><ele>149</ele><time>2019-09-27T10:02:24Z</time><name>PT1351</name></trkpt>
<trkpt lat="52.928670" lon="-3.098143"><ele>149</ele><time>2019-09-27T10:02:25Z</time><name>PT1352</name></trkpt>
<trkpt lat="52.928667" lon="-3.098152"><ele>149</ele><time>2019-09-27T10:02:26Z</time><name>PT1353</name></trkpt>
<trkpt lat="52.928661" lon="-3.098163"><ele>149</ele><time>2019-09-27T10:02:27Z</time><name>PT1354</name></trkpt>
<trkpt lat="52.928653" lon="-3.098178"><ele>149</ele><time>2019-09-27T10:02:28Z</time><name>PT1355</name></trkpt>
<trkpt lat="52.928649" lon="-3.098191"><ele>149</ele><time>2019-09-27T10:02:29Z</time><name>PT1356</name></trkpt>
<trkpt lat="52.928645" lon="-3.098209"><ele>149</ele><time>2019-09-27T10:02:30Z</time><name>PT1357</name></trkpt>
<trkpt lat="52.928641" lon="-3.098217"><ele>149</ele><time>2019-09-27T10:02:31Z</time><name>PT1358</name></trkpt>
<trkpt lat="52.928634" lon="-3.098226"><ele>149</ele><time>2019-09-27T10:02:32Z</time><name>PT1359</name></trkpt>
<trkpt lat="52.928629" lon="-3.098235"><ele>149</ele><time>2019-09-27T10:02:33Z</time><name>PT1360</name></trkpt>
<trkpt lat="52.928624" lon="-3.098249"><ele>149</ele><time>2019-09-27T10:02:34Z</time><name>PT1361</name></trkpt>
<trkpt lat="52.928619" lon="-3.098262"><ele>149</ele><time>2019-09-27T10:02:35Z</time><name>PT1362</name></trkpt>
<trkpt lat="52.928611" lon="-3.098279"><ele>150</ele><time>2019-09-27T10:02:36Z</time><name>PT1363</name></trkpt>
<trkpt lat="52.928606" lon="-3.098293"><ele>150</ele><time>2019-09-27T10:02:37Z</time><name>PT1364</name></trkpt>
<trkpt lat="52.928600" lon="-3.098311"><ele>150</ele><time>2019-09-27T10:02:38Z</time><name>PT1365</name></trkpt>
<trkpt lat="52.928592" lon="-3.098322"><ele>150</ele><time>2019-09-27T10:02:39Z</time><name>PT1366</name></trkpt>
<trkpt lat="52.928587" lon="-3.098330"><ele>150</ele><time>2019-09-27T10:02:40Z</time><name>PT1367</name></trkpt>
<trkpt lat="52.928583" lon="-3.098345"><ele>150</ele><time>2019-09-27T10:02:41Z</time><name>PT1368</name></trkpt>
<trkpt lat="52.928578" lon="-3.098359"><ele>150</ele><time>2019-09-27T10:02:42Z</time><name>PT1369</name></trkpt>
<trkpt lat="52.928577" lon="-3.098370"><ele>150</ele><time>2019-09-27T10:02:43Z</time><name>PT1370</name></trkpt>
<trkpt lat="52.928575" lon="-3.098385"><ele>150</ele><time>2019-09-27T10:02:44Z</time><name>PT1371</name></trkpt>
<trkpt lat="52.928575" lon="-3.098403"><ele>150</ele><time>2019-09-27T10:02:45Z</time><name>PT1372</name></trkpt>
<trkpt lat="52.928577" lon="-3.098425"><ele>150</ele><time>2019-09-27T10:02:46Z</time><name>PT1373</name></trkpt>
<trkpt lat="52.928574" lon="-3.098445"><ele>150</ele><time>2019-09-27T10:02:47Z</time><name>PT1374</name></trkpt>
<trkpt lat="52.928572" lon="-3.098456"><ele>150</ele><time>2019-09-27T10:02:48Z</time><name>PT1375</name></trkpt>
<trkpt lat="52.928571" lon="-3.098473"><ele>151</ele><time>2019-09-27T10:02:49Z</time><name>PT1376</name></trkpt>
<trkpt lat="52.928566" lon="-3.098495"><ele>151</ele><time>2019-09-27T10:02:50Z</time><name>PT1377</name></trkpt>
<trkpt lat="52.928561" lon="-3.098513"><ele>152</ele><time>2019-09-27T10:02:51Z</time><name>PT1378</name></trkpt>
<trkpt lat="52.928559" lon="-3.098522"><ele>152</ele><time>2019-09-27T10:02:52Z</time><name>PT1379</name></trkpt>
<trkpt lat="52.928557" lon="-3.098541"><ele>153</ele><time>2019-09-27T10:02:53Z</time><name>PT1380</name></trkpt>
<trkpt lat="52.928554" lon="-3.098553"><ele>153</ele><time>2019-09-27T10:02:54Z</time><name>PT1381</name></trkpt>
<trkpt lat="52.928549" lon="-3.098555"><ele>154</ele><time>2019-09-27T10:02:55Z</time><name>PT1382</name></trkpt>
<trkpt lat="52.928541" lon="-3.098559"><ele>154</ele><time>2019-09-27T10:02:56Z</time><name>PT1383</name></trkpt>
<trkpt lat="52.928536" lon="-3.098559"><ele>155</ele><time>2019-09-27T10:02:57Z</time><name>PT1384</name></trkpt>
<trkpt lat="52.928531" lon="-3.098561"><ele>155</ele><time>2019-09-27T10:02:58Z</time><name>PT1385</name></trkpt>
<trkpt lat="52.928520" lon="-3.098560"><ele>155</ele><time>2019-09-27T10:02:59Z</time><name>PT1386</name></trkpt>
<trkpt lat="52.928511" lon="-3.098559"><ele>155</ele><time>2019-09-27T10:03:00Z</time><name>PT1387</name></trkpt>
<trkpt lat="52.928509" lon="-3.098563"><ele>155</ele><time>2019-09-27T10:03:01Z</time><name>PT1388</name></trkpt>
<trkpt lat="52.928512" lon="-3.098565"><ele>155</ele><time>2019-09-27T10:03:02Z</time><name>PT1389</name></trkpt>
<trkpt lat="52.928510" lon="-3.098565"><ele>156</ele><time>2019-09-27T10:03:03Z</time><name>PT1390</name></trkpt>
<trkpt lat="52.928508" lon="-3.098568"><ele>156</ele><time>2019-09-27T10:03:04Z</time><name>PT1391</name></trkpt>
<trkpt lat="52.928505" lon="-3.098572"><ele>157</ele><time>2019-09-27T10:03:08Z</time><name>PT1392</name></trkpt>
<trkpt lat="52.928500" lon="-3.098583"><ele>157</ele><time>2019-09-27T10:03:09Z</time><name>PT1393</name></trkpt>
<trkpt lat="52.928492" lon="-3.098577"><ele>157</ele><time>2019-09-27T10:03:10Z</time><name>PT1394</name></trkpt>
<trkpt lat="52.928486" lon="-3.098577"><ele>157</ele><time>2019-09-27T10:03:11Z</time><name>PT1395</name></trkpt>
<trkpt lat="52.928479" lon="-3.098581"><ele>157</ele><time>2019-09-27T10:03:12Z</time><name>PT1396</name></trkpt>
<trkpt lat="52.928460" lon="-3.098589"><ele>157</ele><time>2019-09-27T10:03:14Z</time><name>PT1397</name></trkpt>
<trkpt lat="52.928454" lon="-3.098600"><ele>157</ele><time>2019-09-27T10:03:15Z</time><name>PT1398</name></trkpt>
<trkpt lat="52.928445" lon="-3.098604"><ele>157</ele><time>2019-09-27T10:03:16Z</time><name>PT1399</name></trkpt>
<trkpt lat="52.928438" lon="-3.098611"><ele>157</ele><time>2019-09-27T10:03:17Z</time><name>PT1400</name></trkpt>
<trkpt lat="52.928432" lon="-3.098615"><ele>157</ele><time>2019-09-27T10:03:18Z</time><name>PT1401</name></trkpt>
<trkpt lat="52.928425" lon="-3.098617"><ele>157</ele><time>2019-09-27T10:03:19Z</time><name>PT1402</name></trkpt>
<trkpt lat="52.928420" lon="-3.098621"><ele>157</ele><time>2019-09-27T10:03:20Z</time><name>PT1403</name></trkpt>
<trkpt lat="52.928418" lon="-3.098631"><ele>157</ele><time>2019-09-27T10:03:27Z</time><name>PT1404</name></trkpt>
<trkpt lat="52.928410" lon="-3.098644"><ele>158</ele><time>2019-09-27T10:03:28Z</time><name>PT1405</name></trkpt>
<trkpt lat="52.928401" lon="-3.098654"><ele>158</ele><time>2019-09-27T10:03:29Z</time><name>PT1406</name></trkpt>
<trkpt lat="52.928396" lon="-3.098662"><ele>158</ele><time>2019-09-27T10:03:30Z</time><name>PT1407</name></trkpt>
<trkpt lat="52.928389" lon="-3.098666"><ele>158</ele><time>2019-09-27T10:03:31Z</time><name>PT1408</name></trkpt>
<trkpt lat="52.928380" lon="-3.098666"><ele>157</ele><time>2019-09-27T10:03:32Z</time><name>PT1409</name></trkpt>
<trkpt lat="52.928371" lon="-3.098667"><ele>157</ele><time>2019-09-27T10:03:33Z</time><name>PT1410</name></trkpt>
<trkpt lat="52.928364" lon="-3.098677"><ele>157</ele><time>2019-09-27T10:03:34Z</time><name>PT1411</name></trkpt>
<trkpt lat="52.928359" lon="-3.098683"><ele>157</ele><time>2019-09-27T10:03:35Z</time><name>PT1412</name></trkpt>
<trkpt lat="52.928351" lon="-3.098691"><ele>158</ele><time>2019-09-27T10:03:36Z</time><name>PT1413</name></trkpt>
<trkpt lat="52.928343" lon="-3.098696"><ele>157</ele><time>2019-09-27T10:03:37Z</time><name>PT1414</name></trkpt>
<trkpt lat="52.928338" lon="-3.098702"><ele>158</ele><time>2019-09-27T10:03:38Z</time><name>PT1415</name></trkpt>
<trkpt lat="52.928324" lon="-3.098707"><ele>159</ele><time>2019-09-27T10:03:39Z</time><name>PT1416</name></trkpt>
<trkpt lat="52.928314" lon="-3.098710"><ele>159</ele><time>2019-09-27T10:03:40Z</time><name>PT1417</name></trkpt>
<trkpt lat="52.928310" lon="-3.098712"><ele>159</ele><time>2019-09-27T10:03:41Z</time><name>PT1418</name></trkpt>
<trkpt lat="52.928304" lon="-3.098720"><ele>159</ele><time>2019-09-27T10:03:42Z</time><name>PT1419</name></trkpt>
<trkpt lat="52.928298" lon="-3.098725"><ele>160</ele><time>2019-09-27T10:03:43Z</time><name>PT1420</name></trkpt>
<trkpt lat="52.928292" lon="-3.098730"><ele>160</ele><time>2019-09-27T10:03:44Z</time><name>PT1421</name></trkpt>
<trkpt lat="52.928285" lon="-3.098736"><ele>160</ele><time>2019-09-27T10:03:45Z</time><name>PT1422</name></trkpt>
<trkpt lat="52.928279" lon="-3.098742"><ele>160</ele><time>2019-09-27T10:03:46Z</time><name>PT1423</name></trkpt>
<trkpt lat="52.928274" lon="-3.098748"><ele>161</ele><time>2019-09-27T10:03:47Z</time><name>PT1424</name></trkpt>
<trkpt lat="52.928268" lon="-3.098752"><ele>161</ele><time>2019-09-27T10:03:48Z</time><name>PT1425</name></trkpt>
<trkpt lat="52.928265" lon="-3.098754"><ele>160</ele><time>2019-09-27T10:03:49Z</time><name>PT1426</name></trkpt>
<trkpt lat="52.928261" lon="-3.098764"><ele>161</ele><time>2019-09-27T10:03:50Z</time><name>PT1427</name></trkpt>
<trkpt lat="52.928255" lon="-3.098769"><ele>161</ele><time>2019-09-27T10:03:51Z</time><name>PT1428</name></trkpt>
<trkpt lat="52.928250" lon="-3.098773"><ele>161</ele><time>2019-09-27T10:03:52Z</time><name>PT1429</name></trkpt>
<trkpt lat="52.928242" lon="-3.098772"><ele>161</ele><time>2019-09-27T10:03:53Z</time><name>PT1430</name></trkpt>
<trkpt lat="52.928236" lon="-3.098773"><ele>162</ele><time>2019-09-27T10:03:54Z</time><name>PT1431</name></trkpt>
<trkpt lat="52.928234" lon="-3.098778"><ele>161</ele><time>2019-09-27T10:03:55Z</time><name>PT1432</name></trkpt>
<trkpt lat="52.928230" lon="-3.098780"><ele>161</ele><time>2019-09-27T10:03:56Z</time><name>PT1433</name></trkpt>
<trkpt lat="52.928224" lon="-3.098784"><ele>162</ele><time>2019-09-27T10:03:57Z</time><name>PT1434</name></trkpt>
<trkpt lat="52.928219" lon="-3.098788"><ele>162</ele><time>2019-09-27T10:03:58Z</time><name>PT1435</name></trkpt>
<trkpt lat="52.928216" lon="-3.098789"><ele>162</ele><time>2019-09-27T10:03:59Z</time><name>PT1436</name></trkpt>
<trkpt lat="52.928209" lon="-3.098793"><ele>163</ele><time>2019-09-27T10:04:00Z</time><name>PT1437</name></trkpt>
<trkpt lat="52.928206" lon="-3.098795"><ele>163</ele><time>2019-09-27T10:04:01Z</time><name>PT1438</name></trkpt>
<trkpt lat="52.928196" lon="-3.098826"><ele>164</ele><time>2019-09-27T10:04:24Z</time><name>PT1439</name></trkpt>
<trkpt lat="52.928191" lon="-3.098839"><ele>164</ele><time>2019-09-27T10:04:25Z</time><name>PT1440</name></trkpt>
<trkpt lat="52.928187" lon="-3.098852"><ele>164</ele><time>2019-09-27T10:04:26Z</time><name>PT1441</name></trkpt>
<trkpt lat="52.928186" lon="-3.098859"><ele>164</ele><time>2019-09-27T10:04:27Z</time><name>PT1442</name></trkpt>
<trkpt lat="52.928184" lon="-3.098860"><ele>163</ele><time>2019-09-27T10:04:28Z</time><name>PT1443</name></trkpt>
<trkpt lat="52.928167" lon="-3.098896"><ele>165</ele><time>2019-09-27T10:05:31Z</time><name>PT1444</name></trkpt>
<trkpt lat="52.928156" lon="-3.098911"><ele>165</ele><time>2019-09-27T10:05:32Z</time><name>PT1445</name></trkpt>
<trkpt lat="52.928152" lon="-3.098921"><ele>166</ele><time>2019-09-27T10:05:33Z</time><name>PT1446</name></trkpt>
<trkpt lat="52.928144" lon="-3.098930"><ele>166</ele><time>2019-09-27T10:05:34Z</time><name>PT1447</name></trkpt>
<trkpt lat="52.928136" lon="-3.098938"><ele>166</ele><time>2019-09-27T10:05:35Z</time><name>PT1448</name></trkpt>
<trkpt lat="52.928131" lon="-3.098944"><ele>166</ele><time>2019-09-27T10:05:36Z</time><name>PT1449</name></trkpt>
<trkpt lat="52.928120" lon="-3.098945"><ele>166</ele><time>2019-09-27T10:05:37Z</time><name>PT1450</name></trkpt>
<trkpt lat="52.928112" lon="-3.098953"><ele>167</ele><time>2019-09-27T10:05:38Z</time><name>PT1451</name></trkpt>
<trkpt lat="52.928106" lon="-3.098960"><ele>167</ele><time>2019-09-27T10:05:39Z</time><name>PT1452</name></trkpt>
<trkpt lat="52.928099" lon="-3.098968"><ele>167</ele><time>2019-09-27T10:05:40Z</time><name>PT1453</name></trkpt>
<trkpt lat="52.928092" lon="-3.098975"><ele>167</ele><time>2019-09-27T10:05:41Z</time><name>PT1454</name></trkpt>
<trkpt lat="52.928085" lon="-3.098981"><ele>168</ele><time>2019-09-27T10:05:42Z</time><name>PT1455</name></trkpt>
<trkpt lat="52.928077" lon="-3.098986"><ele>168</ele><time>2019-09-27T10:05:43Z</time><name>PT1456</name></trkpt>
<trkpt lat="52.928072" lon="-3.098990"><ele>169</ele><time>2019-09-27T10:05:44Z</time><name>PT1457</name></trkpt>
<trkpt lat="52.928067" lon="-3.098997"><ele>169</ele><time>2019-09-27T10:05:45Z</time><name>PT1458</name></trkpt>
<trkpt lat="52.928062" lon="-3.099004"><ele>169</ele><time>2019-09-27T10:05:46Z</time><name>PT1459</name></trkpt>
<trkpt lat="52.928058" lon="-3.099008"><ele>170</ele><time>2019-09-27T10:05:47Z</time><name>PT1460</name></trkpt>
<trkpt lat="52.928056" lon="-3.099029"><ele>170</ele><time>2019-09-27T10:05:52Z</time><name>PT1461</name></trkpt>
<trkpt lat="52.928049" lon="-3.099042"><ele>169</ele><time>2019-09-27T10:05:53Z</time><name>PT1462</name></trkpt>
<trkpt lat="52.928041" lon="-3.099050"><ele>169</ele><time>2019-09-27T10:05:54Z</time><name>PT1463</name></trkpt>
<trkpt lat="52.928034" lon="-3.099059"><ele>169</ele><time>2019-09-27T10:05:55Z</time><name>PT1464</name></trkpt>
<trkpt lat="52.928029" lon="-3.099064"><ele>169</ele><time>2019-09-27T10:05:56Z</time><name>PT1465</name></trkpt>
<trkpt lat="52.928021" lon="-3.099068"><ele>169</ele><time>2019-09-27T10:05:57Z</time><name>PT1466</name></trkpt>
<trkpt lat="52.928013" lon="-3.099077"><ele>169</ele><time>2019-09-27T10:05:58Z</time><name>PT1467</name></trkpt>
<trkpt lat="52.928003" lon="-3.099086"><ele>170</ele><time>2019-09-27T10:05:59Z</time><name>PT1468</name></trkpt>
<trkpt lat="52.927996" lon="-3.099092"><ele>170</ele><time>2019-09-27T10:06:00Z</time><name>PT1469</name></trkpt>
<trkpt lat="52.927987" lon="-3.099101"><ele>170</ele><time>2019-09-27T10:06:01Z</time><name>PT1470</name></trkpt>
<trkpt lat="52.927979" lon="-3.099108"><ele>171</ele><time>2019-09-27T10:06:02Z</time><name>PT1471</name></trkpt>
<trkpt lat="52.927972" lon="-3.099117"><ele>171</ele><time>2019-09-27T10:06:03Z</time><name>PT1472</name></trkpt>
<trkpt lat="52.927968" lon="-3.099122"><ele>170</ele><time>2019-09-27T10:06:04Z</time><name>PT1473</name></trkpt>
<trkpt lat="52.927961" lon="-3.099129"><ele>171</ele><time>2019-09-27T10:06:05Z</time><name>PT1474</name></trkpt>
<trkpt lat="52.927954" lon="-3.099135"><ele>171</ele><time>2019-09-27T10:06:06Z</time><name>PT1475</name></trkpt>
<trkpt lat="52.927948" lon="-3.099140"><ele>171</ele><time>2019-09-27T10:06:07Z</time><name>PT1476</name></trkpt>
<trkpt lat="52.927942" lon="-3.099149"><ele>171</ele><time>2019-09-27T10:06:08Z</time><name>PT1477</name></trkpt>
<trkpt lat="52.927937" lon="-3.099154"><ele>172</ele><time>2019-09-27T10:06:09Z</time><name>PT1478</name></trkpt>
<trkpt lat="52.927933" lon="-3.099161"><ele>171</ele><time>2019-09-27T10:06:10Z</time><name>PT1479</name></trkpt>
<trkpt lat="52.927925" lon="-3.099166"><ele>172</ele><time>2019-09-27T10:06:11Z</time><name>PT1480</name></trkpt>
<trkpt lat="52.927915" lon="-3.099168"><ele>172</ele><time>2019-09-27T10:06:12Z</time><name>PT1481</name></trkpt>
<trkpt lat="52.927909" lon="-3.099178"><ele>173</ele><time>2019-09-27T10:06:13Z</time><name>PT1482</name></trkpt>
<trkpt lat="52.927901" lon="-3.099183"><ele>173</ele><time>2019-09-27T10:06:14Z</time><name>PT1483</name></trkpt>
<trkpt lat="52.927893" lon="-3.099191"><ele>173</ele><time>2019-09-27T10:06:15Z</time><name>PT1484</name></trkpt>
<trkpt lat="52.927882" lon="-3.099198"><ele>174</ele><time>2019-09-27T10:06:16Z</time><name>PT1485</name></trkpt>
<trkpt lat="52.927876" lon="-3.099205"><ele>174</ele><time>2019-09-27T10:06:17Z</time><name>PT1486</name></trkpt>
<trkpt lat="52.927873" lon="-3.099214"><ele>174</ele><time>2019-09-27T10:06:18Z</time><name>PT1487</name></trkpt>
<trkpt lat="52.927866" lon="-3.099222"><ele>175</ele><time>2019-09-27T10:06:19Z</time><name>PT1488</name></trkpt>
<trkpt lat="52.927859" lon="-3.099227"><ele>175</ele><time>2019-09-27T10:06:20Z</time><name>PT1489</name></trkpt>
<trkpt lat="52.927853" lon="-3.099228"><ele>175</ele><time>2019-09-27T10:06:21Z</time><name>PT1490</name></trkpt>
<trkpt lat="52.927846" lon="-3.099234"><ele>175</ele><time>2019-09-27T10:06:22Z</time><name>PT1491</name></trkpt>
<trkpt lat="52.927839" lon="-3.099238"><ele>176</ele><time>2019-09-27T10:06:23Z</time><name>PT1492</name></trkpt>
<trkpt lat="52.927832" lon="-3.099243"><ele>176</ele><time>2019-09-27T10:06:24Z</time><name>PT1493</name></trkpt>
<trkpt lat="52.927827" lon="-3.099250"><ele>176</ele><time>2019-09-27T10:06:25Z</time><name>PT1494</name></trkpt>
<trkpt lat="52.927818" lon="-3.099257"><ele>177</ele><time>2019-09-27T10:06:26Z</time><name>PT1495</name></trkpt>
<trkpt lat="52.927812" lon="-3.099264"><ele>177</ele><time>2019-09-27T10:06:27Z</time><name>PT1496</name></trkpt>
<trkpt lat="52.927808" lon="-3.099276"><ele>177</ele><time>2019-09-27T10:06:28Z</time><name>PT1497</name></trkpt>
<trkpt lat="52.927804" lon="-3.099281"><ele>177</ele><time>2019-09-27T10:06:29Z</time><name>PT1498</name></trkpt>
<trkpt lat="52.927800" lon="-3.099283"><ele>178</ele><time>2019-09-27T10:06:30Z</time><name>PT1499</name></trkpt>
<trkpt lat="52.927798" lon="-3.099281"><ele>178</ele><time>2019-09-27T10:06:31Z</time><name>PT1500</name></trkpt>
<trkpt lat="52.927796" lon="-3.099281"><ele>179</ele><time>2019-09-27T10:06:32Z</time><name>PT1501</name></trkpt>
<trkpt lat="52.927796" lon="-3.099288"><ele>180</ele><time>2019-09-27T10:06:43Z</time><name>PT1502</name></trkpt>
<trkpt lat="52.927794" lon="-3.099303"><ele>180</ele><time>2019-09-27T10:06:44Z</time><name>PT1503</name></trkpt>
<trkpt lat="52.927788" lon="-3.099299"><ele>180</ele><time>2019-09-27T10:06:45Z</time><name>PT1504</name></trkpt>
<trkpt lat="52.927781" lon="-3.099304"><ele>180</ele><time>2019-09-27T10:06:46Z</time><name>PT1505</name></trkpt>
<trkpt lat="52.927776" lon="-3.099309"><ele>181</ele><time>2019-09-27T10:06:47Z</time><name>PT1506</name></trkpt>
<trkpt lat="52.927770" lon="-3.099313"><ele>181</ele><time>2019-09-27T10:06:48Z</time><name>PT1507</name></trkpt>
<trkpt lat="52.927765" lon="-3.099318"><ele>181</ele><time>2019-09-27T10:06:49Z</time><name>PT1508</name></trkpt>
<trkpt lat="52.927759" lon="-3.099325"><ele>181</ele><time>2019-09-27T10:06:50Z</time><name>PT1509</name></trkpt>
<trkpt lat="52.927754" lon="-3.099332"><ele>181</ele><time>2019-09-27T10:06:51Z</time><name>PT1510</name></trkpt>
<trkpt lat="52.927749" lon="-3.099341"><ele>181</ele><time>2019-09-27T10:06:52Z</time><name>PT1511</name></trkpt>
<trkpt lat="52.927743" lon="-3.099347"><ele>181</ele><time>2019-09-27T10:06:53Z</time><name>PT1512</name></trkpt>
<trkpt lat="52.927737" lon="-3.099354"><ele>181</ele><time>2019-09-27T10:06:54Z</time><name>PT1513</name></trkpt>
<trkpt lat="52.927732" lon="-3.099360"><ele>181</ele><time>2019-09-27T10:06:55Z</time><name>PT1514</name></trkpt>
<trkpt lat="52.927728" lon="-3.099367"><ele>181</ele><time>2019-09-27T10:06:56Z</time><name>PT1515</name></trkpt>
<trkpt lat="52.927722" lon="-3.099376"><ele>181</ele><time>2019-09-27T10:06:57Z</time><name>PT1516</name></trkpt>
<trkpt lat="52.927716" lon="-3.099380"><ele>181</ele><time>2019-09-27T10:06:58Z</time><name>PT1517</name></trkpt>
<trkpt lat="52.927709" lon="-3.099387"><ele>181</ele><time>2019-09-27T10:06:59Z</time><name>PT1518</name></trkpt>
<trkpt lat="52.927703" lon="-3.099394"><ele>181</ele><time>2019-09-27T10:07:00Z</time><name>PT1519</name></trkpt>
<trkpt lat="52.927698" lon="-3.099402"><ele>182</ele><time>2019-09-27T10:07:01Z</time><name>PT1520</name></trkpt>
<trkpt lat="52.927696" lon="-3.099408"><ele>181</ele><time>2019-09-27T10:07:02Z</time><name>PT1521</name></trkpt>
<trkpt lat="52.927691" lon="-3.099412"><ele>181</ele><time>2019-09-27T10:07:03Z</time><name>PT1522</name></trkpt>
<trkpt lat="52.927684" lon="-3.099419"><ele>181</ele><time>2019-09-27T10:07:04Z</time><name>PT1523</name></trkpt>
<trkpt lat="52.927680" lon="-3.099429"><ele>181</ele><time>2019-09-27T10:07:05Z</time><name>PT1524</name></trkpt>
<trkpt lat="52.927675" lon="-3.099438"><ele>182</ele><time>2019-09-27T10:07:06Z</time><name>PT1525</name></trkpt>
<trkpt lat="52.927670" lon="-3.099445"><ele>182</ele><time>2019-09-27T10:07:07Z</time><name>PT1526</name></trkpt>
<trkpt lat="52.927662" lon="-3.099469"><ele>181</ele><time>2019-09-27T10:07:09Z</time><name>PT1527</name></trkpt>
<trkpt lat="52.927655" lon="-3.099475"><ele>182</ele><time>2019-09-27T10:07:10Z</time><name>PT1528</name></trkpt>
<trkpt lat="52.927648" lon="-3.099476"><ele>182</ele><time>2019-09-27T10:07:11Z</time><name>PT1529</name></trkpt>
<trkpt lat="52.927641" lon="-3.099481"><ele>182</ele><time>2019-09-27T10:07:12Z</time><name>PT1530</name></trkpt>
<trkpt lat="52.927634" lon="-3.099489"><ele>182</ele><time>2019-09-27T10:07:13Z</time><name>PT1531</name></trkpt>
<trkpt lat="52.927628" lon="-3.099497"><ele>183</ele><time>2019-09-27T10:07:14Z</time><name>PT1532</name></trkpt>
<trkpt lat="52.927622" lon="-3.099504"><ele>183</ele><time>2019-09-27T10:07:15Z</time><name>PT1533</name></trkpt>
<trkpt lat="52.927617" lon="-3.099513"><ele>183</ele><time>2019-09-27T10:07:16Z</time><name>PT1534</name></trkpt>
<trkpt lat="52.927613" lon="-3.099520"><ele>183</ele><time>2019-09-27T10:07:17Z</time><name>PT1535</name></trkpt>
<trkpt lat="52.927607" lon="-3.099528"><ele>184</ele><time>2019-09-27T10:07:18Z</time><name>PT1536</name></trkpt>
<trkpt lat="52.927602" lon="-3.099535"><ele>184</ele><time>2019-09-27T10:07:19Z</time><name>PT1537</name></trkpt>
<trkpt lat="52.927595" lon="-3.099542"><ele>184</ele><time>2019-09-27T10:07:20Z</time><name>PT1538</name></trkpt>
<trkpt lat="52.927589" lon="-3.099549"><ele>184</ele><time>2019-09-27T10:07:21Z</time><name>PT1539</name></trkpt>
<trkpt lat="52.927582" lon="-3.099560"><ele>185</ele><time>2019-09-27T10:07:22Z</time><name>PT1540</name></trkpt>
<trkpt lat="52.927575" lon="-3.099564"><ele>185</ele><time>2019-09-27T10:07:23Z</time><name>PT1541</name></trkpt>
<trkpt lat="52.927570" lon="-3.099569"><ele>185</ele><time>2019-09-27T10:07:24Z</time><name>PT1542</name></trkpt>
<trkpt lat="52.927565" lon="-3.099576"><ele>185</ele><time>2019-09-27T10:07:25Z</time><name>PT1543</name></trkpt>
<trkpt lat="52.927562" lon="-3.099584"><ele>184</ele><time>2019-09-27T10:07:26Z</time><name>PT1544</name></trkpt>
<trkpt lat="52.927556" lon="-3.099591"><ele>184</ele><time>2019-09-27T10:07:27Z</time><name>PT1545</name></trkpt>
<trkpt lat="52.927550" lon="-3.099600"><ele>185</ele><time>2019-09-27T10:07:28Z</time><name>PT1546</name></trkpt>
<trkpt lat="52.927545" lon="-3.099607"><ele>185</ele><time>2019-09-27T10:07:29Z</time><name>PT1547</name></trkpt>
<trkpt lat="52.927539" lon="-3.099616"><ele>185</ele><time>2019-09-27T10:07:30Z</time><name>PT1548</name></trkpt>
<trkpt lat="52.927533" lon="-3.099625"><ele>185</ele><time>2019-09-27T10:07:31Z</time><name>PT1549</name></trkpt>
<trkpt lat="52.927526" lon="-3.099633"><ele>185</ele><time>2019-09-27T10:07:32Z</time><name>PT1550</name></trkpt>
<trkpt lat="52.927523" lon="-3.099640"><ele>185</ele><time>2019-09-27T10:07:33Z</time><name>PT1551</name></trkpt>
<trkpt lat="52.927526" lon="-3.099639"><ele>185</ele><time>2019-09-27T10:07:34Z</time><name>PT1552</name></trkpt>
<trkpt lat="52.927527" lon="-3.099640"><ele>185</ele><time>2019-09-27T10:07:35Z</time><name>PT1553</name></trkpt>
<trkpt lat="52.927528" lon="-3.099640"><ele>185</ele><time>2019-09-27T10:07:36Z</time><name>PT1554</name></trkpt>
<trkpt lat="52.927529" lon="-3.099639"><ele>185</ele><time>2019-09-27T10:07:37Z</time><name>PT1555</name></trkpt>
<trkpt lat="52.927529" lon="-3.099640"><ele>185</ele><time>2019-09-27T10:07:38Z</time><name>PT1556</name></trkpt>
<trkpt lat="52.927529" lon="-3.099640"><ele>185</ele><time>2019-09-27T10:07:39Z</time><name>PT1557</name></trkpt>
<trkpt lat="52.927529" lon="-3.099641"><ele>186</ele><time>2019-09-27T10:07:40Z</time><name>PT1558</name></trkpt>
<trkpt lat="52.927527" lon="-3.099653"><ele>187</ele><time>2019-09-27T10:07:56Z</time><name>PT1559</name></trkpt>
<trkpt lat="52.927520" lon="-3.099664"><ele>187</ele><time>2019-09-27T10:07:57Z</time><name>PT1560</name></trkpt>
<trkpt lat="52.927515" lon="-3.099678"><ele>187</ele><time>2019-09-27T10:07:58Z</time><name>PT1561</name></trkpt>
<trkpt lat="52.927507" lon="-3.099689"><ele>187</ele><time>2019-09-27T10:07:59Z</time><name>PT1562</name></trkpt>
<trkpt lat="52.927499" lon="-3.099698"><ele>188</ele><time>2019-09-27T10:08:00Z</time><name>PT1563</name></trkpt>
<trkpt lat="52.927491" lon="-3.099703"><ele>188</ele><time>2019-09-27T10:08:01Z</time><name>PT1564</name></trkpt>
<trkpt lat="52.927479" lon="-3.099702"><ele>188</ele><time>2019-09-27T10:08:02Z</time><name>PT1565</name></trkpt>
<trkpt lat="52.927472" lon="-3.099713"><ele>188</ele><time>2019-09-27T10:08:03Z</time><name>PT1566</name></trkpt>
<trkpt lat="52.927464" lon="-3.099717"><ele>188</ele><time>2019-09-27T10:08:04Z</time><name>PT1567</name></trkpt>
<trkpt lat="52.927458" lon="-3.099728"><ele>188</ele><time>2019-09-27T10:08:05Z</time><name>PT1568</name></trkpt>
<trkpt lat="52.927451" lon="-3.099737"><ele>188</ele><time>2019-09-27T10:08:06Z</time><name>PT1569</name></trkpt>
<trkpt lat="52.927445" lon="-3.099744"><ele>189</ele><time>2019-09-27T10:08:07Z</time><name>PT1570</name></trkpt>
<trkpt lat="52.927443" lon="-3.099759"><ele>188</ele><time>2019-09-27T10:08:08Z</time><name>PT1571</name></trkpt>
<trkpt lat="52.927437" lon="-3.099774"><ele>188</ele><time>2019-09-27T10:08:09Z</time><name>PT1572</name></trkpt>
<trkpt lat="52.927433" lon="-3.099786"><ele>188</ele><time>2019-09-27T10:08:10Z</time><name>PT1573</name></trkpt>
<trkpt lat="52.927428" lon="-3.099796"><ele>188</ele><time>2019-09-27T10:08:11Z</time><name>PT1574</name></trkpt>
<trkpt lat="52.927421" lon="-3.099802"><ele>188</ele><time>2019-09-27T10:08:12Z</time><name>PT1575</name></trkpt>
<trkpt lat="52.927414" lon="-3.099810"><ele>188</ele><time>2019-09-27T10:08:13Z</time><name>PT1576</name></trkpt>
<trkpt lat="52.927409" lon="-3.099822"><ele>189</ele><time>2019-09-27T10:08:14Z</time><name>PT1577</name></trkpt>
<trkpt lat="52.927403" lon="-3.099835"><ele>189</ele><time>2019-09-27T10:08:15Z</time><name>PT1578</name></trkpt>
<trkpt lat="52.927398" lon="-3.099846"><ele>189</ele><time>2019-09-27T10:08:16Z</time><name>PT1579</name></trkpt>
<trkpt lat="52.927391" lon="-3.099854"><ele>189</ele><time>2019-09-27T10:08:17Z</time><name>PT1580</name></trkpt>
<trkpt lat="52.927385" lon="-3.099864"><ele>190</ele><time>2019-09-27T10:08:18Z</time><name>PT1581</name></trkpt>
<trkpt lat="52.927381" lon="-3.099874"><ele>190</ele><time>2019-09-27T10:08:19Z</time><name>PT1582</name></trkpt>
<trkpt lat="52.927376" lon="-3.099884"><ele>190</ele><time>2019-09-27T10:08:20Z</time><name>PT1583</name></trkpt>
<trkpt lat="52.927370" lon="-3.099886"><ele>190</ele><time>2019-09-27T10:08:21Z</time><name>PT1584</name></trkpt>
<trkpt lat="52.927359" lon="-3.099901"><ele>191</ele><time>2019-09-27T10:08:23Z</time><name>PT1585</name></trkpt>
<trkpt lat="52.927353" lon="-3.099911"><ele>191</ele><time>2019-09-27T10:08:24Z</time><name>PT1586</name></trkpt>
<trkpt lat="52.927348" lon="-3.099922"><ele>191</ele><time>2019-09-27T10:08:25Z</time><name>PT1587</name></trkpt>
<trkpt lat="52.927343" lon="-3.099932"><ele>191</ele><time>2019-09-27T10:08:26Z</time><name>PT1588</name></trkpt>
<trkpt lat="52.927341" lon="-3.099940"><ele>191</ele><time>2019-09-27T10:08:27Z</time><name>PT1589</name></trkpt>
<trkpt lat="52.927338" lon="-3.099953"><ele>191</ele><time>2019-09-27T10:08:28Z</time><name>PT1590</name></trkpt>
<trkpt lat="52.927333" lon="-3.099958"><ele>191</ele><time>2019-09-27T10:08:29Z</time><name>PT1591</name></trkpt>
<trkpt lat="52.927329" lon="-3.099964"><ele>191</ele><time>2019-09-27T10:08:30Z</time><name>PT1592</name></trkpt>
<trkpt lat="52.927324" lon="-3.099975"><ele>191</ele><time>2019-09-27T10:08:31Z</time><name>PT1593</name></trkpt>
<trkpt lat="52.927320" lon="-3.099981"><ele>191</ele><time>2019-09-27T10:08:32Z</time><name>PT1594</name></trkpt>
<trkpt lat="52.927316" lon="-3.099987"><ele>191</ele><time>2019-09-27T10:08:33Z</time><name>PT1595</name></trkpt>
<trkpt lat="52.927311" lon="-3.099996"><ele>191</ele><time>2019-09-27T10:08:34Z</time><name>PT1596</name></trkpt>
<trkpt lat="52.927306" lon="-3.100004"><ele>191</ele><time>2019-09-27T10:08:35Z</time><name>PT1597</name></trkpt>
<trkpt lat="52.927300" lon="-3.100015"><ele>191</ele><time>2019-09-27T10:08:36Z</time><name>PT1598</name></trkpt>
<trkpt lat="52.927295" lon="-3.100023"><ele>192</ele><time>2019-09-27T10:08:37Z</time><name>PT1599</name></trkpt>
<trkpt lat="52.927292" lon="-3.100029"><ele>192</ele><time>2019-09-27T10:08:38Z</time><name>PT1600</name></trkpt>
<trkpt lat="52.927287" lon="-3.100034"><ele>192</ele><time>2019-09-27T10:08:39Z</time><name>PT1601</name></trkpt>
<trkpt lat="52.927284" lon="-3.100040"><ele>192</ele><time>2019-09-27T10:08:40Z</time><name>PT1602</name></trkpt>
<trkpt lat="52.927278" lon="-3.100046"><ele>192</ele><time>2019-09-27T10:08:41Z</time><name>PT1603</name></trkpt>
<trkpt lat="52.927273" lon="-3.100056"><ele>192</ele><time>2019-09-27T10:08:42Z</time><name>PT1604</name></trkpt>
<trkpt lat="52.927269" lon="-3.100065"><ele>193</ele><time>2019-09-27T10:08:43Z</time><name>PT1605</name></trkpt>
<trkpt lat="52.927263" lon="-3.100072"><ele>193</ele><time>2019-09-27T10:08:44Z</time><name>PT1606</name></trkpt>
<trkpt lat="52.927258" lon="-3.100078"><ele>193</ele><time>2019-09-27T10:08:45Z</time><name>PT1607</name></trkpt>
<trkpt lat="52.927253" lon="-3.100085"><ele>193</ele><time>2019-09-27T10:08:46Z</time><name>PT1608</name></trkpt>
<trkpt lat="52.927248" lon="-3.100089"><ele>194</ele><time>2019-09-27T10:08:47Z</time><name>PT1609</name></trkpt>
<trkpt lat="52.927242" lon="-3.100096"><ele>194</ele><time>2019-09-27T10:08:48Z</time><name>PT1610</name></trkpt>
<trkpt lat="52.927236" lon="-3.100102"><ele>194</ele><time>2019-09-27T10:08:49Z</time><name>PT1611</name></trkpt>
<trkpt lat="52.927231" lon="-3.100110"><ele>194</ele><time>2019-09-27T10:08:50Z</time><name>PT1612</name></trkpt>
<trkpt lat="52.927228" lon="-3.100115"><ele>194</ele><time>2019-09-27T10:08:51Z</time><name>PT1613</name></trkpt>
<trkpt lat="52.927226" lon="-3.100114"><ele>195</ele><time>2019-09-27T10:08:52Z</time><name>PT1614</name></trkpt>
<trkpt lat="52.927225" lon="-3.100114"><ele>195</ele><time>2019-09-27T10:08:53Z</time><name>PT1615</name></trkpt>
<trkpt lat="52.927226" lon="-3.100119"><ele>195</ele><time>2019-09-27T10:08:54Z</time><name>PT1616</name></trkpt>
<trkpt lat="52.927227" lon="-3.100126"><ele>195</ele><time>2019-09-27T10:08:55Z</time><name>PT1617</name></trkpt>
<trkpt lat="52.927225" lon="-3.100129"><ele>196</ele><time>2019-09-27T10:09:21Z</time><name>PT1618</name></trkpt>
<trkpt lat="52.927219" lon="-3.100134"><ele>196</ele><time>2019-09-27T10:09:22Z</time><name>PT1619</name></trkpt>
<trkpt lat="52.927212" lon="-3.100145"><ele>196</ele><time>2019-09-27T10:09:23Z</time><name>PT1620</name></trkpt>
<trkpt lat="52.927206" lon="-3.100151"><ele>196</ele><time>2019-09-27T10:09:24Z</time><name>PT1621</name></trkpt>
<trkpt lat="52.927199" lon="-3.100160"><ele>196</ele><time>2019-09-27T10:09:25Z</time><name>PT1622</name></trkpt>
<trkpt lat="52.927195" lon="-3.100172"><ele>196</ele><time>2019-09-27T10:09:26Z</time><name>PT1623</name></trkpt>
<trkpt lat="52.927188" lon="-3.100183"><ele>196</ele><time>2019-09-27T10:09:27Z</time><name>PT1624</name></trkpt>
<trkpt lat="52.927181" lon="-3.100194"><ele>197</ele><time>2019-09-27T10:09:28Z</time><name>PT1625</name></trkpt>
<trkpt lat="52.927171" lon="-3.100198"><ele>197</ele><time>2019-09-27T10:09:29Z</time><name>PT1626</name></trkpt>
<trkpt lat="52.927167" lon="-3.100205"><ele>197</ele><time>2019-09-27T10:09:30Z</time><name>PT1627</name></trkpt>
<trkpt lat="52.927160" lon="-3.100213"><ele>197</ele><time>2019-09-27T10:09:31Z</time><name>PT1628</name></trkpt>
<trkpt lat="52.927154" lon="-3.100217"><ele>197</ele><time>2019-09-27T10:09:32Z</time><name>PT1629</name></trkpt>
<trkpt lat="52.927149" lon="-3.100226"><ele>197</ele><time>2019-09-27T10:09:33Z</time><name>PT1630</name></trkpt>
<trkpt lat="52.927146" lon="-3.100237"><ele>197</ele><time>2019-09-27T10:09:34Z</time><name>PT1631</name></trkpt>
<trkpt lat="52.927139" lon="-3.100245"><ele>197</ele><time>2019-09-27T10:09:35Z</time><name>PT1632</name></trkpt>
<trkpt lat="52.927134" lon="-3.100255"><ele>197</ele><time>2019-09-27T10:09:36Z</time><name>PT1633</name></trkpt>
<trkpt lat="52.927119" lon="-3.100272"><ele>197</ele><time>2019-09-27T10:09:38Z</time><name>PT1634</name></trkpt>
<trkpt lat="52.927114" lon="-3.100278"><ele>197</ele><time>2019-09-27T10:09:39Z</time><name>PT1635</name></trkpt>
<trkpt lat="52.927109" lon="-3.100291"><ele>197</ele><time>2019-09-27T10:09:40Z</time><name>PT1636</name></trkpt>
<trkpt lat="52.927105" lon="-3.100301"><ele>197</ele><time>2019-09-27T10:09:41Z</time><name>PT1637</name></trkpt>
<trkpt lat="52.927102" lon="-3.100309"><ele>197</ele><time>2019-09-27T10:09:42Z</time><name>PT1638</name></trkpt>
<trkpt lat="52.927097" lon="-3.100316"><ele>197</ele><time>2019-09-27T10:09:43Z</time><name>PT1639</name></trkpt>
<trkpt lat="52.927091" lon="-3.100324"><ele>197</ele><time>2019-09-27T10:09:44Z</time><name>PT1640</name></trkpt>
<trkpt lat="52.927087" lon="-3.100333"><ele>198</ele><time>2019-09-27T10:09:45Z</time><name>PT1641</name></trkpt>
<trkpt lat="52.927083" lon="-3.100342"><ele>198</ele><time>2019-09-27T10:09:46Z</time><name>PT1642</name></trkpt>
<trkpt lat="52.927079" lon="-3.100354"><ele>197</ele><time>2019-09-27T10:09:47Z</time><name>PT1643</name></trkpt>
<trkpt lat="52.927074" lon="-3.100362"><ele>198</ele><time>2019-09-27T10:09:48Z</time><name>PT1644</name></trkpt>
<trkpt lat="52.927068" lon="-3.100369"><ele>198</ele><time>2019-09-27T10:09:49Z</time><name>PT1645</name></trkpt>
<trkpt lat="52.927065" lon="-3.100377"><ele>198</ele><time>2019-09-27T10:09:50Z</time><name>PT1646</name></trkpt>
<trkpt lat="52.927063" lon="-3.100388"><ele>198</ele><time>2019-09-27T10:09:51Z</time><name>PT1647</name></trkpt>
<trkpt lat="52.927060" lon="-3.100394"><ele>198</ele><time>2019-09-27T10:09:52Z</time><name>PT1648</name></trkpt>
<trkpt lat="52.927053" lon="-3.100403"><ele>199</ele><time>2019-09-27T10:09:53Z</time><name>PT1649</name></trkpt>
<trkpt lat="52.927048" lon="-3.100412"><ele>199</ele><time>2019-09-27T10:09:54Z</time><name>PT1650</name></trkpt>
<trkpt lat="52.927043" lon="-3.100422"><ele>200</ele><time>2019-09-27T10:09:55Z</time><name>PT1651</name></trkpt>
<trkpt lat="52.927037" lon="-3.100430"><ele>200</ele><time>2019-09-27T10:09:56Z</time><name>PT1652</name></trkpt>
<trkpt lat="52.927035" lon="-3.100436"><ele>200</ele><time>2019-09-27T10:09:57Z</time><name>PT1653</name></trkpt>
<trkpt lat="52.927029" lon="-3.100446"><ele>200</ele><time>2019-09-27T10:09:58Z</time><name>PT1654</name></trkpt>
<trkpt lat="52.927024" lon="-3.100454"><ele>201</ele><time>2019-09-27T10:09:59Z</time><name>PT1655</name></trkpt>
<trkpt lat="52.927019" lon="-3.100463"><ele>201</ele><time>2019-09-27T10:10:00Z</time><name>PT1656</name></trkpt>
<trkpt lat="52.927013" lon="-3.100472"><ele>201</ele><time>2019-09-27T10:10:01Z</time><name>PT1657</name></trkpt>
<trkpt lat="52.927010" lon="-3.100480"><ele>202</ele><time>2019-09-27T10:10:02Z</time><name>PT1658</name></trkpt>
<trkpt lat="52.927009" lon="-3.100491"><ele>202</ele><time>2019-09-27T10:10:03Z</time><name>PT1659</name></trkpt>
<trkpt lat="52.927006" lon="-3.100499"><ele>203</ele><time>2019-09-27T10:10:04Z</time><name>PT1660</name></trkpt>
<trkpt lat="52.927003" lon="-3.100508"><ele>203</ele><time>2019-09-27T10:10:05Z</time><name>PT1661</name></trkpt>
<trkpt lat="52.926999" lon="-3.100515"><ele>203</ele><time>2019-09-27T10:10:06Z</time><name>PT1662</name></trkpt>
<trkpt lat="52.926994" lon="-3.100519"><ele>203</ele><time>2019-09-27T10:10:07Z</time><name>PT1663</name></trkpt>
<trkpt lat="52.926990" lon="-3.100524"><ele>203</ele><time>2019-09-27T10:10:08Z</time><name>PT1664</name></trkpt>
<trkpt lat="52.926985" lon="-3.100531"><ele>204</ele><time>2019-09-27T10:10:09Z</time><name>PT1665</name></trkpt>
<trkpt lat="52.926978" lon="-3.100541"><ele>204</ele><time>2019-09-27T10:10:10Z</time><name>PT1666</name></trkpt>
<trkpt lat="52.926975" lon="-3.100550"><ele>204</ele><time>2019-09-27T10:10:11Z</time><name>PT1667</name></trkpt>
<trkpt lat="52.926969" lon="-3.100558"><ele>204</ele><time>2019-09-27T10:10:12Z</time><name>PT1668</name></trkpt>
<trkpt lat="52.926964" lon="-3.100562"><ele>204</ele><time>2019-09-27T10:10:13Z</time><name>PT1669</name></trkpt>
<trkpt lat="52.926962" lon="-3.100566"><ele>203</ele><time>2019-09-27T10:10:14Z</time><name>PT1670</name></trkpt>
<trkpt lat="52.926961" lon="-3.100570"><ele>203</ele><time>2019-09-27T10:10:15Z</time><name>PT1671</name></trkpt>
<trkpt lat="52.926962" lon="-3.100569"><ele>203</ele><time>2019-09-27T10:10:16Z</time><name>PT1672</name></trkpt>
<trkpt lat="52.926961" lon="-3.100566"><ele>203</ele><time>2019-09-27T10:10:17Z</time><name>PT1673</name></trkpt>
<trkpt lat="52.926963" lon="-3.100571"><ele>203</ele><time>2019-09-27T10:10:20Z</time><name>PT1674</name></trkpt>
<trkpt lat="52.926963" lon="-3.100571"><ele>203</ele><time>2019-09-27T10:10:21Z</time><name>PT1675</name></trkpt>
<trkpt lat="52.926962" lon="-3.100570"><ele>203</ele><time>2019-09-27T10:10:22Z</time><name>PT1676</name></trkpt>
<trkpt lat="52.926965" lon="-3.100575"><ele>203</ele><time>2019-09-27T10:10:41Z</time><name>PT1677</name></trkpt>
<trkpt lat="52.926960" lon="-3.100583"><ele>203</ele><time>2019-09-27T10:10:42Z</time><name>PT1678</name></trkpt>
<trkpt lat="52.926954" lon="-3.100590"><ele>203</ele><time>2019-09-27T10:10:43Z</time><name>PT1679</name></trkpt>
<trkpt lat="52.926950" lon="-3.100601"><ele>203</ele><time>2019-09-27T10:10:44Z</time><name>PT1680</name></trkpt>
<trkpt lat="52.926945" lon="-3.100608"><ele>203</ele><time>2019-09-27T10:10:45Z</time><name>PT1681</name></trkpt>
<trkpt lat="52.926937" lon="-3.100614"><ele>203</ele><time>2019-09-27T10:10:46Z</time><name>PT1682</name></trkpt>
<trkpt lat="52.926934" lon="-3.100622"><ele>203</ele><time>2019-09-27T10:10:47Z</time><name>PT1683</name></trkpt>
<trkpt lat="52.926929" lon="-3.100632"><ele>203</ele><time>2019-09-27T10:10:48Z</time><name>PT1684</name></trkpt>
<trkpt lat="52.926929" lon="-3.100642"><ele>203</ele><time>2019-09-27T10:10:49Z</time><name>PT1685</name></trkpt>
<trkpt lat="52.926923" lon="-3.100649"><ele>203</ele><time>2019-09-27T10:10:50Z</time><name>PT1686</name></trkpt>
<trkpt lat="52.926919" lon="-3.100653"><ele>204</ele><time>2019-09-27T10:10:51Z</time><name>PT1687</name></trkpt>
<trkpt lat="52.926912" lon="-3.100660"><ele>203</ele><time>2019-09-27T10:10:52Z</time><name>PT1688</name></trkpt>
<trkpt lat="52.926910" lon="-3.100667"><ele>204</ele><time>2019-09-27T10:10:53Z</time><name>PT1689</name></trkpt>
<trkpt lat="52.926905" lon="-3.100680"><ele>204</ele><time>2019-09-27T10:10:54Z</time><name>PT1690</name></trkpt>
<trkpt lat="52.926901" lon="-3.100689"><ele>204</ele><time>2019-09-27T10:10:55Z</time><name>PT1691</name></trkpt>
<trkpt lat="52.926896" lon="-3.100695"><ele>204</ele><time>2019-09-27T10:10:56Z</time><name>PT1692</name></trkpt>
<trkpt lat="52.926889" lon="-3.100697"><ele>204</ele><time>2019-09-27T10:10:57Z</time><name>PT1693</name></trkpt>
<trkpt lat="52.926885" lon="-3.100705"><ele>204</ele><time>2019-09-27T10:10:58Z</time><name>PT1694</name></trkpt>
<trkpt lat="52.926880" lon="-3.100711"><ele>204</ele><time>2019-09-27T10:10:59Z</time><name>PT1695</name></trkpt>
<trkpt lat="52.926875" lon="-3.100719"><ele>204</ele><time>2019-09-27T10:11:00Z</time><name>PT1696</name></trkpt>
<trkpt lat="52.926871" lon="-3.100728"><ele>204</ele><time>2019-09-27T10:11:01Z</time><name>PT1697</name></trkpt>
<trkpt lat="52.926865" lon="-3.100735"><ele>205</ele><time>2019-09-27T10:11:02Z</time><name>PT1698</name></trkpt>
<trkpt lat="52.926860" lon="-3.100740"><ele>206</ele><time>2019-09-27T10:11:03Z</time><name>PT1699</name></trkpt>
<trkpt lat="52.926856" lon="-3.100744"><ele>206</ele><time>2019-09-27T10:11:04Z</time><name>PT1700</name></trkpt>
<trkpt lat="52.926853" lon="-3.100747"><ele>206</ele><time>2019-09-27T10:11:05Z</time><name>PT1701</name></trkpt>
<trkpt lat="52.926847" lon="-3.100755"><ele>206</ele><time>2019-09-27T10:11:06Z</time><name>PT1702</name></trkpt>
<trkpt lat="52.926840" lon="-3.100755"><ele>206</ele><time>2019-09-27T10:11:07Z</time><name>PT1703</name></trkpt>
<trkpt lat="52.926838" lon="-3.100753"><ele>206</ele><time>2019-09-27T10:11:08Z</time><name>PT1704</name></trkpt>
<trkpt lat="52.926837" lon="-3.100753"><ele>206</ele><time>2019-09-27T10:11:09Z</time><name>PT1705</name></trkpt>
<trkpt lat="52.926832" lon="-3.100754"><ele>206</ele><time>2019-09-27T10:11:10Z</time><name>PT1706</name></trkpt>
<trkpt lat="52.926832" lon="-3.100755"><ele>206</ele><time>2019-09-27T10:11:11Z</time><name>PT1707</name></trkpt>
<trkpt lat="52.926833" lon="-3.100764"><ele>206</ele><time>2019-09-27T10:11:12Z</time><name>PT1708</name></trkpt>
<trkpt lat="52.926833" lon="-3.100767"><ele>206</ele><time>2019-09-27T10:11:13Z</time><name>PT1709</name></trkpt>
<trkpt lat="52.926830" lon="-3.100770"><ele>207</ele><time>2019-09-27T10:11:14Z</time><name>PT1710</name></trkpt>
<trkpt lat="52.926827" lon="-3.100770"><ele>207</ele><time>2019-09-27T10:11:15Z</time><name>PT1711</name></trkpt>
<trkpt lat="52.926827" lon="-3.100767"><ele>207</ele><time>2019-09-27T10:11:31Z</time><name>PT1712</name></trkpt>
<trkpt lat="52.926824" lon="-3.100776"><ele>207</ele><time>2019-09-27T10:11:32Z</time><name>PT1713</name></trkpt>
<trkpt lat="52.926819" lon="-3.100780"><ele>207</ele><time>2019-09-27T10:11:33Z</time><name>PT1714</name></trkpt>
<trkpt lat="52.926813" lon="-3.100789"><ele>208</ele><time>2019-09-27T10:11:34Z</time><name>PT1715</name></trkpt>
<trkpt lat="52.926809" lon="-3.100794"><ele>209</ele><time>2019-09-27T10:11:35Z</time><name>PT1716</name></trkpt>
<trkpt lat="52.926801" lon="-3.100798"><ele>209</ele><time>2019-09-27T10:11:36Z</time><name>PT1717</name></trkpt>
<trkpt lat="52.926793" lon="-3.100802"><ele>209</ele><time>2019-09-27T10:11:37Z</time><name>PT1718</name></trkpt>
<trkpt lat="52.926787" lon="-3.100806"><ele>209</ele><time>2019-09-27T10:11:38Z</time><name>PT1719</name></trkpt>
<trkpt lat="52.926782" lon="-3.100810"><ele>209</ele><time>2019-09-27T10:11:39Z</time><name>PT1720</name></trkpt>
<trkpt lat="52.926777" lon="-3.100816"><ele>209</ele><time>2019-09-27T10:11:40Z</time><name>PT1721</name></trkpt>
<trkpt lat="52.926770" lon="-3.100819"><ele>209</ele><time>2019-09-27T10:11:41Z</time><name>PT1722</name></trkpt>
<trkpt lat="52.926764" lon="-3.100823"><ele>209</ele><time>2019-09-27T10:11:42Z</time><name>PT1723</name></trkpt>
<trkpt lat="52.926760" lon="-3.100830"><ele>209</ele><time>2019-09-27T10:11:43Z</time><name>PT1724</name></trkpt>
<trkpt lat="52.926755" lon="-3.100832"><ele>210</ele><time>2019-09-27T10:11:44Z</time><name>PT1725</name></trkpt>
<trkpt lat="52.926749" lon="-3.100842"><ele>211</ele><time>2019-09-27T10:11:45Z</time><name>PT1726</name></trkpt>
<trkpt lat="52.926745" lon="-3.100847"><ele>211</ele><time>2019-09-27T10:11:46Z</time><name>PT1727</name></trkpt>
<trkpt lat="52.926742" lon="-3.100855"><ele>212</ele><time>2019-09-27T10:11:47Z</time><name>PT1728</name></trkpt>
<trkpt lat="52.926734" lon="-3.100859"><ele>211</ele><time>2019-09-27T10:11:48Z</time><name>PT1729</name></trkpt>
<trkpt lat="52.926728" lon="-3.100865"><ele>212</ele><time>2019-09-27T10:11:49Z</time><name>PT1730</name></trkpt>
<trkpt lat="52.926724" lon="-3.100877"><ele>211</ele><time>2019-09-27T10:11:50Z</time><name>PT1731</name></trkpt>
<trkpt lat="52.926718" lon="-3.100884"><ele>211</ele><time>2019-09-27T10:11:51Z</time><name>PT1732</name></trkpt>
<trkpt lat="52.926716" lon="-3.100891"><ele>212</ele><time>2019-09-27T10:11:52Z</time><name>PT1733</name></trkpt>
<trkpt lat="52.926715" lon="-3.100895"><ele>211</ele><time>2019-09-27T10:11:53Z</time><name>PT1734</name></trkpt>
<trkpt lat="52.926714" lon="-3.100898"><ele>212</ele><time>2019-09-27T10:11:54Z</time><name>PT1735</name></trkpt>
<trkpt lat="52.926713" lon="-3.100899"><ele>212</ele><time>2019-09-27T10:11:55Z</time><name>PT1736</name></trkpt>
<trkpt lat="52.926708" lon="-3.100902"><ele>212</ele><time>2019-09-27T10:11:58Z</time><name>PT1737</name></trkpt>
<trkpt lat="52.926709" lon="-3.100910"><ele>212</ele><time>2019-09-27T10:11:59Z</time><name>PT1738</name></trkpt>
<trkpt lat="52.926706" lon="-3.100919"><ele>212</ele><time>2019-09-27T10:12:00Z</time><name>PT1739</name></trkpt>
<trkpt lat="52.926692" lon="-3.100926"><ele>212</ele><time>2019-09-27T10:12:01Z</time><name>PT1740</name></trkpt>
<trkpt lat="52.926689" lon="-3.100936"><ele>212</ele><time>2019-09-27T10:12:02Z</time><name>PT1741</name></trkpt>
<trkpt lat="52.926686" lon="-3.100950"><ele>212</ele><time>2019-09-27T10:12:03Z</time><name>PT1742</name></trkpt>
<trkpt lat="52.926685" lon="-3.100963"><ele>213</ele><time>2019-09-27T10:12:04Z</time><name>PT1743</name></trkpt>
<trkpt lat="52.926681" lon="-3.100987"><ele>213</ele><time>2019-09-27T10:12:05Z</time><name>PT1744</name></trkpt>
<trkpt lat="52.926676" lon="-3.100988"><ele>216</ele><time>2019-09-27T10:12:06Z</time><name>PT1745</name></trkpt>
<trkpt lat="52.926667" lon="-3.100987"><ele>215</ele><time>2019-09-27T10:12:07Z</time><name>PT1746</name></trkpt>
<trkpt lat="52.926666" lon="-3.100987"><ele>215</ele><time>2019-09-27T10:12:08Z</time><name>PT1747</name></trkpt>
<trkpt lat="52.926654" lon="-3.100990"><ele>216</ele><time>2019-09-27T10:12:09Z</time><name>PT1748</name></trkpt>
<trkpt lat="52.926651" lon="-3.100994"><ele>215</ele><time>2019-09-27T10:12:10Z</time><name>PT1749</name></trkpt>
<trkpt lat="52.926646" lon="-3.100998"><ele>215</ele><time>2019-09-27T10:12:11Z</time><name>PT1750</name></trkpt>
<trkpt lat="52.926641" lon="-3.101004"><ele>215</ele><time>2019-09-27T10:12:12Z</time><name>PT1751</name></trkpt>
<trkpt lat="52.926636" lon="-3.101009"><ele>215</ele><time>2019-09-27T10:12:13Z</time><name>PT1752</name></trkpt>
<trkpt lat="52.926632" lon="-3.101012"><ele>215</ele><time>2019-09-27T10:12:14Z</time><name>PT1753</name></trkpt>
<trkpt lat="52.926624" lon="-3.101013"><ele>214</ele><time>2019-09-27T10:12:15Z</time><name>PT1754</name></trkpt>
<trkpt lat="52.926620" lon="-3.101014"><ele>214</ele><time>2019-09-27T10:12:16Z</time><name>PT1755</name></trkpt>
<trkpt lat="52.926619" lon="-3.101015"><ele>215</ele><time>2019-09-27T10:12:17Z</time><name>PT1756</name></trkpt>
<trkpt lat="52.926615" lon="-3.101017"><ele>214</ele><time>2019-09-27T10:12:18Z</time><name>PT1757</name></trkpt>
<trkpt lat="52.926608" lon="-3.101020"><ele>216</ele><time>2019-09-27T10:12:19Z</time><name>PT1758</name></trkpt>
<trkpt lat="52.926606" lon="-3.101020"><ele>215</ele><time>2019-09-27T10:12:20Z</time><name>PT1759</name></trkpt>
<trkpt lat="52.926599" lon="-3.100980"><ele>216</ele><time>2019-09-27T10:12:32Z</time><name>PT1760</name></trkpt>
<trkpt lat="52.926602" lon="-3.100998"><ele>215</ele><time>2019-09-27T10:12:33Z</time><name>PT1761</name></trkpt>
<trkpt lat="52.926602" lon="-3.101010"><ele>215</ele><time>2019-09-27T10:12:34Z</time><name>PT1762</name></trkpt>
<trkpt lat="52.926599" lon="-3.101020"><ele>215</ele><time>2019-09-27T10:12:35Z</time><name>PT1763</name></trkpt>
<trkpt lat="52.926595" lon="-3.101032"><ele>216</ele><time>2019-09-27T10:12:36Z</time><name>PT1764</name></trkpt>
<trkpt lat="52.926590" lon="-3.101041"><ele>216</ele><time>2019-09-27T10:12:37Z</time><name>PT1765</name></trkpt>
<trkpt lat="52.926585" lon="-3.101045"><ele>216</ele><time>2019-09-27T10:12:38Z</time><name>PT1766</name></trkpt>
<trkpt lat="52.926579" lon="-3.101054"><ele>217</ele><time>2019-09-27T10:12:39Z</time><name>PT1767</name></trkpt>
<trkpt lat="52.926572" lon="-3.101059"><ele>216</ele><time>2019-09-27T10:12:40Z</time><name>PT1768</name></trkpt>
<trkpt lat="52.926565" lon="-3.101067"><ele>216</ele><time>2019-09-27T10:12:41Z</time><name>PT1769</name></trkpt>
<trkpt lat="52.926564" lon="-3.101077"><ele>217</ele><time>2019-09-27T10:12:42Z</time><name>PT1770</name></trkpt>
<trkpt lat="52.926558" lon="-3.101085"><ele>217</ele><time>2019-09-27T10:12:43Z</time><name>PT1771</name></trkpt>
<trkpt lat="52.926551" lon="-3.101089"><ele>217</ele><time>2019-09-27T10:12:44Z</time><name>PT1772</name></trkpt>
<trkpt lat="52.926544" lon="-3.101096"><ele>217</ele><time>2019-09-27T10:12:45Z</time><name>PT1773</name></trkpt>
<trkpt lat="52.926541" lon="-3.101104"><ele>217</ele><time>2019-09-27T10:12:46Z</time><name>PT1774</name></trkpt>
<trkpt lat="52.926536" lon="-3.101112"><ele>218</ele><time>2019-09-27T10:12:47Z</time><name>PT1775</name></trkpt>
<trkpt lat="52.926530" lon="-3.101126"><ele>218</ele><time>2019-09-27T10:12:48Z</time><name>PT1776</name></trkpt>
<trkpt lat="52.926525" lon="-3.101139"><ele>218</ele><time>2019-09-27T10:12:49Z</time><name>PT1777</name></trkpt>
<trkpt lat="52.926518" lon="-3.101147"><ele>218</ele><time>2019-09-27T10:12:50Z</time><name>PT1778</name></trkpt>
<trkpt lat="52.926514" lon="-3.101154"><ele>219</ele><time>2019-09-27T10:12:51Z</time><name>PT1779</name></trkpt>
<trkpt lat="52.926506" lon="-3.101159"><ele>219</ele><time>2019-09-27T10:12:52Z</time><name>PT1780</name></trkpt>
<trkpt lat="52.926501" lon="-3.101166"><ele>219</ele><time>2019-09-27T10:12:53Z</time><name>PT1781</name></trkpt>
<trkpt lat="52.926498" lon="-3.101171"><ele>219</ele><time>2019-09-27T10:12:54Z</time><name>PT1782</name></trkpt>
<trkpt lat="52.926494" lon="-3.101177"><ele>219</ele><time>2019-09-27T10:12:55Z</time><name>PT1783</name></trkpt>
<trkpt lat="52.926479" lon="-3.101177"><ele>220</ele><time>2019-09-27T10:13:03Z</time><name>PT1784</name></trkpt>
<trkpt lat="52.926483" lon="-3.101192"><ele>220</ele><time>2019-09-27T10:13:04Z</time><name>PT1785</name></trkpt>
<trkpt lat="52.926479" lon="-3.101187"><ele>220</ele><time>2019-09-27T10:13:05Z</time><name>PT1786</name></trkpt>
<trkpt lat="52.926480" lon="-3.101189"><ele>220</ele><time>2019-09-27T10:13:08Z</time><name>PT1787</name></trkpt>
<trkpt lat="52.926484" lon="-3.101188"><ele>219</ele><time>2019-09-27T10:13:09Z</time><name>PT1788</name></trkpt>
<trkpt lat="52.926494" lon="-3.101189"><ele>220</ele><time>2019-09-27T10:13:10Z</time><name>PT1789</name></trkpt>
<trkpt lat="52.926501" lon="-3.101188"><ele>220</ele><time>2019-09-27T10:13:11Z</time><name>PT1790</name></trkpt>
<trkpt lat="52.926497" lon="-3.101189"><ele>220</ele><time>2019-09-27T10:13:12Z</time><name>PT1791</name></trkpt>
<trkpt lat="52.926497" lon="-3.101191"><ele>220</ele><time>2019-09-27T10:13:17Z</time><name>PT1792</name></trkpt>
<trkpt lat="52.926497" lon="-3.101192"><ele>221</ele><time>2019-09-27T10:13:18Z</time><name>PT1793</name></trkpt>
<trkpt lat="52.926498" lon="-3.101192"><ele>221</ele><time>2019-09-27T10:13:19Z</time><name>PT1794</name></trkpt>
<trkpt lat="52.926498" lon="-3.101192"><ele>221</ele><time>2019-09-27T10:13:29Z</time><name>PT1795</name></trkpt>
<trkpt lat="52.926495" lon="-3.101209"><ele>220</ele><time>2019-09-27T10:13:30Z</time><name>PT1796</name></trkpt>
<trkpt lat="52.926489" lon="-3.101220"><ele>220</ele><time>2019-09-27T10:13:31Z</time><name>PT1797</name></trkpt>
<trkpt lat="52.926486" lon="-3.101227"><ele>221</ele><time>2019-09-27T10:13:32Z</time><name>PT1798</name></trkpt>
<trkpt lat="52.926479" lon="-3.101233"><ele>221</ele><time>2019-09-27T10:13:33Z</time><name>PT1799</name></trkpt>
<trkpt lat="52.926474" lon="-3.101239"><ele>221</ele><time>2019-09-27T10:13:34Z</time><name>PT1800</name></trkpt>
<trkpt lat="52.926468" lon="-3.101245"><ele>221</ele><time>2019-09-27T10:13:35Z</time><name>PT1801</name></trkpt>
<trkpt lat="52.926464" lon="-3.101252"><ele>221</ele><time>2019-09-27T10:13:36Z</time><name>PT1802</name></trkpt>
<trkpt lat="52.926462" lon="-3.101257"><ele>222</ele><time>2019-09-27T10:13:37Z</time><name>PT1803</name></trkpt>
<trkpt lat="52.926458" lon="-3.101264"><ele>222</ele><time>2019-09-27T10:13:38Z</time><name>PT1804</name></trkpt>
<trkpt lat="52.926453" lon="-3.101274"><ele>222</ele><time>2019-09-27T10:13:39Z</time><name>PT1805</name></trkpt>
<trkpt lat="52.926448" lon="-3.101280"><ele>223</ele><time>2019-09-27T10:13:40Z</time><name>PT1806</name></trkpt>
<trkpt lat="52.926443" lon="-3.101292"><ele>223</ele><time>2019-09-27T10:13:41Z</time><name>PT1807</name></trkpt>
<trkpt lat="52.926423" lon="-3.101317"><ele>222</ele><time>2019-09-27T10:13:42Z</time><name>PT1808</name></trkpt>
<trkpt lat="52.926418" lon="-3.101321"><ele>221</ele><time>2019-09-27T10:13:43Z</time><name>PT1809</name></trkpt>
<trkpt lat="52.926413" lon="-3.101329"><ele>221</ele><time>2019-09-27T10:13:44Z</time><name>PT1810</name></trkpt>
<trkpt lat="52.926411" lon="-3.101337"><ele>221</ele><time>2019-09-27T10:13:45Z</time><name>PT1811</name></trkpt>
<trkpt lat="52.926410" lon="-3.101346"><ele>221</ele><time>2019-09-27T10:13:46Z</time><name>PT1812</name></trkpt>
<trkpt lat="52.926409" lon="-3.101353"><ele>221</ele><time>2019-09-27T10:13:47Z</time><name>PT1813</name></trkpt>
<trkpt lat="52.926405" lon="-3.101359"><ele>221</ele><time>2019-09-27T10:13:48Z</time><name>PT1814</name></trkpt>
<trkpt lat="52.926398" lon="-3.101376"><ele>221</ele><time>2019-09-27T10:13:49Z</time><name>PT1815</name></trkpt>
<trkpt lat="52.926394" lon="-3.101381"><ele>222</ele><time>2019-09-27T10:13:50Z</time><name>PT1816</name></trkpt>
<trkpt lat="52.926389" lon="-3.101383"><ele>222</ele><time>2019-09-27T10:13:51Z</time><name>PT1817</name></trkpt>
<trkpt lat="52.926388" lon="-3.101386"><ele>222</ele><time>2019-09-27T10:13:52Z</time><name>PT1818</name></trkpt>
<trkpt lat="52.926379" lon="-3.101393"><ele>222</ele><time>2019-09-27T10:13:53Z</time><name>PT1819</name></trkpt>
<trkpt lat="52.926373" lon="-3.101404"><ele>223</ele><time>2019-09-27T10:13:54Z</time><name>PT1820</name></trkpt>
<trkpt lat="52.926370" lon="-3.101408"><ele>223</ele><time>2019-09-27T10:13:55Z</time><name>PT1821</name></trkpt>
<trkpt lat="52.926367" lon="-3.101416"><ele>224</ele><time>2019-09-27T10:13:56Z</time><name>PT1822</name></trkpt>
<trkpt lat="52.926364" lon="-3.101422"><ele>224</ele><time>2019-09-27T10:13:57Z</time><name>PT1823</name></trkpt>
<trkpt lat="52.926358" lon="-3.101430"><ele>224</ele><time>2019-09-27T10:13:58Z</time><name>PT1824</name></trkpt>
<trkpt lat="52.926351" lon="-3.101436"><ele>224</ele><time>2019-09-27T10:13:59Z</time><name>PT1825</name></trkpt>
<trkpt lat="52.926348" lon="-3.101440"><ele>223</ele><time>2019-09-27T10:14:00Z</time><name>PT1826</name></trkpt>
<trkpt lat="52.926344" lon="-3.101447"><ele>223</ele><time>2019-09-27T10:14:01Z</time><name>PT1827</name></trkpt>
<trkpt lat="52.926340" lon="-3.101457"><ele>224</ele><time>2019-09-27T10:14:02Z</time><name>PT1828</name></trkpt>
<trkpt lat="52.926342" lon="-3.101452"><ele>225</ele><time>2019-09-27T10:14:03Z</time><name>PT1829</name></trkpt>
<trkpt lat="52.926341" lon="-3.101454"><ele>224</ele><time>2019-09-27T10:14:04Z</time><name>PT1830</name></trkpt>
<trkpt lat="52.926341" lon="-3.101455"><ele>224</ele><time>2019-09-27T10:14:05Z</time><name>PT1831</name></trkpt>
<trkpt lat="52.926344" lon="-3.101454"><ele>224</ele><time>2019-09-27T10:14:06Z</time><name>PT1832</name></trkpt>
<trkpt lat="52.926344" lon="-3.101458"><ele>224</ele><time>2019-09-27T10:14:07Z</time><name>PT1833</name></trkpt>
<trkpt lat="52.926344" lon="-3.101462"><ele>224</ele><time>2019-09-27T10:14:08Z</time><name>PT1834</name></trkpt>
<trkpt lat="52.926344" lon="-3.101467"><ele>224</ele><time>2019-09-27T10:14:29Z</time><name>PT1835</name></trkpt>
<trkpt lat="52.926339" lon="-3.101479"><ele>223</ele><time>2019-09-27T10:14:30Z</time><name>PT1836</name></trkpt>
<trkpt lat="52.926334" lon="-3.101492"><ele>223</ele><time>2019-09-27T10:14:31Z</time><name>PT1837</name></trkpt>
<trkpt lat="52.926334" lon="-3.101502"><ele>223</ele><time>2019-09-27T10:14:32Z</time><name>PT1838</name></trkpt>
<trkpt lat="52.926330" lon="-3.101514"><ele>223</ele><time>2019-09-27T10:14:33Z</time><name>PT1839</name></trkpt>
<trkpt lat="52.926328" lon="-3.101523"><ele>224</ele><time>2019-09-27T10:14:34Z</time><name>PT1840</name></trkpt>
<trkpt lat="52.926329" lon="-3.101532"><ele>224</ele><time>2019-09-27T10:14:35Z</time><name>PT1841</name></trkpt>
<trkpt lat="52.926325" lon="-3.101542"><ele>225</ele><time>2019-09-27T10:14:36Z</time><name>PT1842</name></trkpt>
<trkpt lat="52.926321" lon="-3.101550"><ele>225</ele><time>2019-09-27T10:14:37Z</time><name>PT1843</name></trkpt>
<trkpt lat="52.926314" lon="-3.101557"><ele>227</ele><time>2019-09-27T10:14:38Z</time><name>PT1844</name></trkpt>
<trkpt lat="52.926314" lon="-3.101565"><ele>227</ele><time>2019-09-27T10:14:39Z</time><name>PT1845</name></trkpt>
<trkpt lat="52.926310" lon="-3.101572"><ele>227</ele><time>2019-09-27T10:14:40Z</time><name>PT1846</name></trkpt>
<trkpt lat="52.926300" lon="-3.101582"><ele>227</ele><time>2019-09-27T10:14:41Z</time><name>PT1847</name></trkpt>
<trkpt lat="52.926294" lon="-3.101589"><ele>227</ele><time>2019-09-27T10:14:42Z</time><name>PT1848</name></trkpt>
<trkpt lat="52.926289" lon="-3.101600"><ele>227</ele><time>2019-09-27T10:14:43Z</time><name>PT1849</name></trkpt>
<trkpt lat="52.926282" lon="-3.101610"><ele>227</ele><time>2019-09-27T10:14:44Z</time><name>PT1850</name></trkpt>
<trkpt lat="52.926275" lon="-3.101616"><ele>227</ele><time>2019-09-27T10:14:45Z</time><name>PT1851</name></trkpt>
<trkpt lat="52.926265" lon="-3.101622"><ele>227</ele><time>2019-09-27T10:14:46Z</time><name>PT1852</name></trkpt>
<trkpt lat="52.926261" lon="-3.101626"><ele>228</ele><time>2019-09-27T10:14:47Z</time><name>PT1853</name></trkpt>
<trkpt lat="52.926256" lon="-3.101625"><ele>228</ele><time>2019-09-27T10:14:48Z</time><name>PT1854</name></trkpt>
<trkpt lat="52.926244" lon="-3.101627"><ele>229</ele><time>2019-09-27T10:14:49Z</time><name>PT1855</name></trkpt>
<trkpt lat="52.926241" lon="-3.101623"><ele>229</ele><time>2019-09-27T10:14:50Z</time><name>PT1856</name></trkpt>
<trkpt lat="52.926232" lon="-3.101618"><ele>230</ele><time>2019-09-27T10:14:51Z</time><name>PT1857</name></trkpt>
<trkpt lat="52.926226" lon="-3.101619"><ele>230</ele><time>2019-09-27T10:14:52Z</time><name>PT1858</name></trkpt>
<trkpt lat="52.926221" lon="-3.101615"><ele>231</ele><time>2019-09-27T10:14:53Z</time><name>PT1859</name></trkpt>
<trkpt lat="52.926215" lon="-3.101611"><ele>232</ele><time>2019-09-27T10:14:54Z</time><name>PT1860</name></trkpt>
<trkpt lat="52.926199" lon="-3.101611"><ele>232</ele><time>2019-09-27T10:14:55Z</time><name>PT1861</name></trkpt>
<trkpt lat="52.926197" lon="-3.101615"><ele>232</ele><time>2019-09-27T10:14:56Z</time><name>PT1862</name></trkpt>
<trkpt lat="52.926191" lon="-3.101619"><ele>232</ele><time>2019-09-27T10:14:57Z</time><name>PT1863</name></trkpt>
<trkpt lat="52.926182" lon="-3.101625"><ele>232</ele><time>2019-09-27T10:14:58Z</time><name>PT1864</name></trkpt>
<trkpt lat="52.926172" lon="-3.101630"><ele>232</ele><time>2019-09-27T10:14:59Z</time><name>PT1865</name></trkpt>
<trkpt lat="52.926164" lon="-3.101632"><ele>233</ele><time>2019-09-27T10:15:00Z</time><name>PT1866</name></trkpt>
<trkpt lat="52.926156" lon="-3.101637"><ele>233</ele><time>2019-09-27T10:15:01Z</time><name>PT1867</name></trkpt>
<trkpt lat="52.926146" lon="-3.101643"><ele>233</ele><time>2019-09-27T10:15:02Z</time><name>PT1868</name></trkpt>
<trkpt lat="52.926137" lon="-3.101652"><ele>233</ele><time>2019-09-27T10:15:03Z</time><name>PT1869</name></trkpt>
<trkpt lat="52.926126" lon="-3.101658"><ele>233</ele><time>2019-09-27T10:15:04Z</time><name>PT1870</name></trkpt>
<trkpt lat="52.926117" lon="-3.101661"><ele>234</ele><time>2019-09-27T10:15:05Z</time><name>PT1871</name></trkpt>
<trkpt lat="52.926109" lon="-3.101665"><ele>233</ele><time>2019-09-27T10:15:06Z</time><name>PT1872</name></trkpt>
<trkpt lat="52.926102" lon="-3.101669"><ele>234</ele><time>2019-09-27T10:15:07Z</time><name>PT1873</name></trkpt>
<trkpt lat="52.926094" lon="-3.101669"><ele>234</ele><time>2019-09-27T10:15:08Z</time><name>PT1874</name></trkpt>
<trkpt lat="52.926086" lon="-3.101677"><ele>234</ele><time>2019-09-27T10:15:09Z</time><name>PT1875</name></trkpt>
<trkpt lat="52.926078" lon="-3.101681"><ele>235</ele><time>2019-09-27T10:15:10Z</time><name>PT1876</name></trkpt>
<trkpt lat="52.926069" lon="-3.101683"><ele>235</ele><time>2019-09-27T10:15:11Z</time><name>PT1877</name></trkpt>
<trkpt lat="52.926058" lon="-3.101686"><ele>235</ele><time>2019-09-27T10:15:12Z</time><name>PT1878</name></trkpt>
<trkpt lat="52.926050" lon="-3.101686"><ele>236</ele><time>2019-09-27T10:15:13Z</time><name>PT1879</name></trkpt>
<trkpt lat="52.926043" lon="-3.101690"><ele>236</ele><time>2019-09-27T10:15:14Z</time><name>PT1880</name></trkpt>
<trkpt lat="52.926039" lon="-3.101686"><ele>236</ele><time>2019-09-27T10:15:15Z</time><name>PT1881</name></trkpt>
<trkpt lat="52.926038" lon="-3.101689"><ele>235</ele><time>2019-09-27T10:15:16Z</time><name>PT1882</name></trkpt>
<trkpt lat="52.926022" lon="-3.101697"><ele>234</ele><time>2019-09-27T10:15:17Z</time><name>PT1883</name></trkpt>
<trkpt lat="52.926024" lon="-3.101690"><ele>235</ele><time>2019-09-27T10:15:22Z</time><name>PT1884</name></trkpt>
<trkpt lat="52.926027" lon="-3.101677"><ele>236</ele><time>2019-09-27T10:15:23Z</time><name>PT1885</name></trkpt>
<trkpt lat="52.926034" lon="-3.101676"><ele>236</ele><time>2019-09-27T10:15:24Z</time><name>PT1886</name></trkpt>
<trkpt lat="52.926034" lon="-3.101675"><ele>236</ele><time>2019-09-27T10:15:25Z</time><name>PT1887</name></trkpt>
<trkpt lat="52.926031" lon="-3.101681"><ele>237</ele><time>2019-09-27T10:15:26Z</time><name>PT1888</name></trkpt>
<trkpt lat="52.926029" lon="-3.101684"><ele>237</ele><time>2019-09-27T10:15:27Z</time><name>PT1889</name></trkpt>
<trkpt lat="52.926029" lon="-3.101694"><ele>236</ele><time>2019-09-27T10:15:28Z</time><name>PT1890</name></trkpt>
<trkpt lat="52.926029" lon="-3.101693"><ele>236</ele><time>2019-09-27T10:15:29Z</time><name>PT1891</name></trkpt>
<trkpt lat="52.926026" lon="-3.101694"><ele>236</ele><time>2019-09-27T10:15:30Z</time><name>PT1892</name></trkpt>
<trkpt lat="52.926026" lon="-3.101697"><ele>236</ele><time>2019-09-27T10:15:31Z</time><name>PT1893</name></trkpt>
<trkpt lat="52.926024" lon="-3.101699"><ele>236</ele><time>2019-09-27T10:15:32Z</time><name>PT1894</name></trkpt>
<trkpt lat="52.926015" lon="-3.101699"><ele>236</ele><time>2019-09-27T10:15:33Z</time><name>PT1895</name></trkpt>
<trkpt lat="52.926007" lon="-3.101698"><ele>237</ele><time>2019-09-27T10:15:34Z</time><name>PT1896</name></trkpt>
<trkpt lat="52.926000" lon="-3.101702"><ele>237</ele><time>2019-09-27T10:15:35Z</time><name>PT1897</name></trkpt>
<trkpt lat="52.925991" lon="-3.101704"><ele>237</ele><time>2019-09-27T10:15:36Z</time><name>PT1898</name></trkpt>
<trkpt lat="52.925983" lon="-3.101704"><ele>237</ele><time>2019-09-27T10:15:37Z</time><name>PT1899</name></trkpt>
<trkpt lat="52.925976" lon="-3.101703"><ele>238</ele><time>2019-09-27T10:15:38Z</time><name>PT1900</name></trkpt>
<trkpt lat="52.925971" lon="-3.101705"><ele>238</ele><time>2019-09-27T10:15:39Z</time><name>PT1901</name></trkpt>
<trkpt lat="52.925966" lon="-3.101708"><ele>237</ele><time>2019-09-27T10:15:40Z</time><name>PT1902</name></trkpt>
<trkpt lat="52.925956" lon="-3.101707"><ele>238</ele><time>2019-09-27T10:15:41Z</time><name>PT1903</name></trkpt>
<trkpt lat="52.925950" lon="-3.101712"><ele>237</ele><time>2019-09-27T10:15:42Z</time><name>PT1904</name></trkpt>
<trkpt lat="52.925945" lon="-3.101718"><ele>237</ele><time>2019-09-27T10:15:43Z</time><name>PT1905</name></trkpt>
<trkpt lat="52.925936" lon="-3.101723"><ele>237</ele><time>2019-09-27T10:15:44Z</time><name>PT1906</name></trkpt>
<trkpt lat="52.925927" lon="-3.101727"><ele>237</ele><time>2019-09-27T10:15:45Z</time><name>PT1907</name></trkpt>
<trkpt lat="52.925921" lon="-3.101731"><ele>237</ele><time>2019-09-27T10:15:46Z</time><name>PT1908</name></trkpt>
<trkpt lat="52.925915" lon="-3.101733"><ele>237</ele><time>2019-09-27T10:15:47Z</time><name>PT1909</name></trkpt>
<trkpt lat="52.925909" lon="-3.101737"><ele>237</ele><time>2019-09-27T10:15:48Z</time><name>PT1910</name></trkpt>
<trkpt lat="52.925899" lon="-3.101742"><ele>238</ele><time>2019-09-27T10:15:49Z</time><name>PT1911</name></trkpt>
<trkpt lat="52.925893" lon="-3.101747"><ele>239</ele><time>2019-09-27T10:15:50Z</time><name>PT1912</name></trkpt>
<trkpt lat="52.925889" lon="-3.101749"><ele>239</ele><time>2019-09-27T10:15:51Z</time><name>PT1913</name></trkpt>
<trkpt lat="52.925876" lon="-3.101747"><ele>240</ele><time>2019-09-27T10:15:53Z</time><name>PT1914</name></trkpt>
<trkpt lat="52.925869" lon="-3.101747"><ele>240</ele><time>2019-09-27T10:15:54Z</time><name>PT1915</name></trkpt>
<trkpt lat="52.925863" lon="-3.101750"><ele>240</ele><time>2019-09-27T10:15:55Z</time><name>PT1916</name></trkpt>
<trkpt lat="52.925858" lon="-3.101752"><ele>240</ele><time>2019-09-27T10:15:56Z</time><name>PT1917</name></trkpt>
<trkpt lat="52.925849" lon="-3.101756"><ele>240</ele><time>2019-09-27T10:15:57Z</time><name>PT1918</name></trkpt>
<trkpt lat="52.925843" lon="-3.101762"><ele>240</ele><time>2019-09-27T10:15:58Z</time><name>PT1919</name></trkpt>
<trkpt lat="52.925837" lon="-3.101770"><ele>239</ele><time>2019-09-27T10:15:59Z</time><name>PT1920</name></trkpt>
<trkpt lat="52.925827" lon="-3.101768"><ele>238</ele><time>2019-09-27T10:16:00Z</time><name>PT1921</name></trkpt>
<trkpt lat="52.925822" lon="-3.101770"><ele>238</ele><time>2019-09-27T10:16:01Z</time><name>PT1922</name></trkpt>
<trkpt lat="52.925819" lon="-3.101774"><ele>239</ele><time>2019-09-27T10:16:02Z</time><name>PT1923</name></trkpt>
<trkpt lat="52.925816" lon="-3.101780"><ele>239</ele><time>2019-09-27T10:16:03Z</time><name>PT1924</name></trkpt>
<trkpt lat="52.925814" lon="-3.101787"><ele>240</ele><time>2019-09-27T10:16:05Z</time><name>PT1925</name></trkpt>
<trkpt lat="52.925806" lon="-3.101805"><ele>241</ele><time>2019-09-27T10:16:09Z</time><name>PT1926</name></trkpt>
<trkpt lat="52.925794" lon="-3.101816"><ele>241</ele><time>2019-09-27T10:16:10Z</time><name>PT1927</name></trkpt>
<trkpt lat="52.925781" lon="-3.101812"><ele>241</ele><time>2019-09-27T10:16:11Z</time><name>PT1928</name></trkpt>
<trkpt lat="52.925773" lon="-3.101822"><ele>242</ele><time>2019-09-27T10:16:12Z</time><name>PT1929</name></trkpt>
<trkpt lat="52.925767" lon="-3.101844"><ele>242</ele><time>2019-09-27T10:16:13Z</time><name>PT1930</name></trkpt>
<trkpt lat="52.925754" lon="-3.101848"><ele>242</ele><time>2019-09-27T10:16:14Z</time><name>PT1931</name></trkpt>
<trkpt lat="52.925745" lon="-3.101856"><ele>242</ele><time>2019-09-27T10:16:15Z</time><name>PT1932</name></trkpt>
<trkpt lat="52.925737" lon="-3.101866"><ele>242</ele><time>2019-09-27T10:16:16Z</time><name>PT1933</name></trkpt>
<trkpt lat="52.925731" lon="-3.101871"><ele>243</ele><time>2019-09-27T10:16:17Z</time><name>PT1934</name></trkpt>
<trkpt lat="52.925725" lon="-3.101877"><ele>243</ele><time>2019-09-27T10:16:18Z</time><name>PT1935</name></trkpt>
<trkpt lat="52.925718" lon="-3.101882"><ele>243</ele><time>2019-09-27T10:16:19Z</time><name>PT1936</name></trkpt>
<trkpt lat="52.925716" lon="-3.101887"><ele>243</ele><time>2019-09-27T10:16:20Z</time><name>PT1937</name></trkpt>
<trkpt lat="52.925710" lon="-3.101892"><ele>244</ele><time>2019-09-27T10:16:21Z</time><name>PT1938</name></trkpt>
<trkpt lat="52.925703" lon="-3.101896"><ele>244</ele><time>2019-09-27T10:16:22Z</time><name>PT1939</name></trkpt>
<trkpt lat="52.925697" lon="-3.101899"><ele>244</ele><time>2019-09-27T10:16:23Z</time><name>PT1940</name></trkpt>
<trkpt lat="52.925693" lon="-3.101903"><ele>245</ele><time>2019-09-27T10:16:24Z</time><name>PT1941</name></trkpt>
<trkpt lat="52.925688" lon="-3.101908"><ele>245</ele><time>2019-09-27T10:16:25Z</time><name>PT1942</name></trkpt>
<trkpt lat="52.925682" lon="-3.101911"><ele>245</ele><time>2019-09-27T10:16:26Z</time><name>PT1943</name></trkpt>
<trkpt lat="52.925675" lon="-3.101914"><ele>245</ele><time>2019-09-27T10:16:27Z</time><name>PT1944</name></trkpt>
<trkpt lat="52.925666" lon="-3.101924"><ele>245</ele><time>2019-09-27T10:16:28Z</time><name>PT1945</name></trkpt>
<trkpt lat="52.925660" lon="-3.101931"><ele>245</ele><time>2019-09-27T10:16:29Z</time><name>PT1946</name></trkpt>
<trkpt lat="52.925654" lon="-3.101938"><ele>245</ele><time>2019-09-27T10:16:30Z</time><name>PT1947</name></trkpt>
<trkpt lat="52.925649" lon="-3.101942"><ele>245</ele><time>2019-09-27T10:16:31Z</time><name>PT1948</name></trkpt>
<trkpt lat="52.925642" lon="-3.101946"><ele>246</ele><time>2019-09-27T10:16:32Z</time><name>PT1949</name></trkpt>
<trkpt lat="52.925636" lon="-3.101951"><ele>246</ele><time>2019-09-27T10:16:33Z</time><name>PT1950</name></trkpt>
<trkpt lat="52.925633" lon="-3.101964"><ele>246</ele><time>2019-09-27T10:16:35Z</time><name>PT1951</name></trkpt>
<trkpt lat="52.925624" lon="-3.101966"><ele>246</ele><time>2019-09-27T10:16:36Z</time><name>PT1952</name></trkpt>
<trkpt lat="52.925619" lon="-3.101965"><ele>246</ele><time>2019-09-27T10:16:37Z</time><name>PT1953</name></trkpt>
<trkpt lat="52.925616" lon="-3.101963"><ele>245</ele><time>2019-09-27T10:16:38Z</time><name>PT1954</name></trkpt>
<trkpt lat="52.925616" lon="-3.101959"><ele>245</ele><time>2019-09-27T10:16:39Z</time><name>PT1955</name></trkpt>
<trkpt lat="52.925612" lon="-3.101959"><ele>246</ele><time>2019-09-27T10:16:40Z</time><name>PT1956</name></trkpt>
<trkpt lat="52.925609" lon="-3.101957"><ele>246</ele><time>2019-09-27T10:16:41Z</time><name>PT1957</name></trkpt>
<trkpt lat="52.925600" lon="-3.101958"><ele>247</ele><time>2019-09-27T10:16:52Z</time><name>PT1958</name></trkpt>
<trkpt lat="52.925595" lon="-3.101957"><ele>247</ele><time>2019-09-27T10:16:53Z</time><name>PT1959</name></trkpt>
<trkpt lat="52.925593" lon="-3.101956"><ele>247</ele><time>2019-09-27T10:16:54Z</time><name>PT1960</name></trkpt>
<trkpt lat="52.925589" lon="-3.101961"><ele>247</ele><time>2019-09-27T10:16:55Z</time><name>PT1961</name></trkpt>
<trkpt lat="52.925581" lon="-3.101969"><ele>247</ele><time>2019-09-27T10:16:56Z</time><name>PT1962</name></trkpt>
<trkpt lat="52.925563" lon="-3.101989"><ele>247</ele><time>2019-09-27T10:16:57Z</time><name>PT1963</name></trkpt>
<trkpt lat="52.925554" lon="-3.102001"><ele>247</ele><time>2019-09-27T10:16:58Z</time><name>PT1964</name></trkpt>
<trkpt lat="52.925551" lon="-3.102018"><ele>247</ele><time>2019-09-27T10:16:59Z</time><name>PT1965</name></trkpt>
<trkpt lat="52.925546" lon="-3.102026"><ele>247</ele><time>2019-09-27T10:17:00Z</time><name>PT1966</name></trkpt>
<trkpt lat="52.925540" lon="-3.102028"><ele>248</ele><time>2019-09-27T10:17:01Z</time><name>PT1967</name></trkpt>
<trkpt lat="52.925532" lon="-3.102032"><ele>248</ele><time>2019-09-27T10:17:02Z</time><name>PT1968</name></trkpt>
<trkpt lat="52.925528" lon="-3.102034"><ele>249</ele><time>2019-09-27T10:17:03Z</time><name>PT1969</name></trkpt>
<trkpt lat="52.925527" lon="-3.102041"><ele>249</ele><time>2019-09-27T10:17:04Z</time><name>PT1970</name></trkpt>
<trkpt lat="52.925527" lon="-3.102049"><ele>249</ele><time>2019-09-27T10:17:05Z</time><name>PT1971</name></trkpt>
<trkpt lat="52.925523" lon="-3.102058"><ele>249</ele><time>2019-09-27T10:17:06Z</time><name>PT1972</name></trkpt>
<trkpt lat="52.925521" lon="-3.102061"><ele>250</ele><time>2019-09-27T10:17:07Z</time><name>PT1973</name></trkpt>
<trkpt lat="52.925520" lon="-3.102065"><ele>250</ele><time>2019-09-27T10:17:08Z</time><name>PT1974</name></trkpt>
<trkpt lat="52.925519" lon="-3.102069"><ele>250</ele><time>2019-09-27T10:17:09Z</time><name>PT1975</name></trkpt>
<trkpt lat="52.925524" lon="-3.102080"><ele>250</ele><time>2019-09-27T10:17:12Z</time><name>PT1976</name></trkpt>
<trkpt lat="52.925522" lon="-3.102088"><ele>250</ele><time>2019-09-27T10:17:13Z</time><name>PT1977</name></trkpt>
<trkpt lat="52.925517" lon="-3.102095"><ele>250</ele><time>2019-09-27T10:17:14Z</time><name>PT1978</name></trkpt>
<trkpt lat="52.925513" lon="-3.102110"><ele>250</ele><time>2019-09-27T10:17:16Z</time><name>PT1979</name></trkpt>
<trkpt lat="52.925511" lon="-3.102124"><ele>251</ele><time>2019-09-27T10:17:18Z</time><name>PT1980</name></trkpt>
<trkpt lat="52.925509" lon="-3.102129"><ele>251</ele><time>2019-09-27T10:17:19Z</time><name>PT1981</name></trkpt>
<trkpt lat="52.925511" lon="-3.102127"><ele>251</ele><time>2019-09-27T10:17:45Z</time><name>PT1982</name></trkpt>
<trkpt lat="52.925509" lon="-3.102128"><ele>250</ele><time>2019-09-27T10:17:46Z</time><name>PT1983</name></trkpt>
<trkpt lat="52.925502" lon="-3.102143"><ele>251</ele><time>2019-09-27T10:17:47Z</time><name>PT1984</name></trkpt>
<trkpt lat="52.925493" lon="-3.102149"><ele>250</ele><time>2019-09-27T10:17:48Z</time><name>PT1985</name></trkpt>
<trkpt lat="52.925483" lon="-3.102151"><ele>250</ele><time>2019-09-27T10:17:49Z</time><name>PT1986</name></trkpt>
<trkpt lat="52.925481" lon="-3.102153"><ele>250</ele><time>2019-09-27T10:17:50Z</time><name>PT1987</name></trkpt>
<trkpt lat="52.925472" lon="-3.102149"><ele>250</ele><time>2019-09-27T10:17:51Z</time><name>PT1988</name></trkpt>
<trkpt lat="52.925471" lon="-3.102149"><ele>249</ele><time>2019-09-27T10:18:08Z</time><name>PT1989</name></trkpt>
<trkpt lat="52.925470" lon="-3.102151"><ele>249</ele><time>2019-09-27T10:18:09Z</time><name>PT1990</name></trkpt>
<trkpt lat="52.925473" lon="-3.102147"><ele>249</ele><time>2019-09-27T10:18:17Z</time><name>PT1991</name></trkpt>
<trkpt lat="52.925473" lon="-3.102155"><ele>249</ele><time>2019-09-27T10:18:18Z</time><name>PT1992</name></trkpt>
<trkpt lat="52.925475" lon="-3.102163"><ele>249</ele><time>2019-09-27T10:18:19Z</time><name>PT1993</name></trkpt>
<trkpt lat="52.925475" lon="-3.102171"><ele>249</ele><time>2019-09-27T10:18:20Z</time><name>PT1994</name></trkpt>
<trkpt lat="52.925476" lon="-3.102174"><ele>250</ele><time>2019-09-27T10:18:22Z</time><name>PT1995</name></trkpt>
<trkpt lat="52.925473" lon="-3.102172"><ele>249</ele><time>2019-09-27T10:18:23Z</time><name>PT1996</name></trkpt>
<trkpt lat="52.925468" lon="-3.102168"><ele>250</ele><time>2019-09-27T10:18:24Z</time><name>PT1997</name></trkpt>
<trkpt lat="52.925465" lon="-3.102172"><ele>249</ele><time>2019-09-27T10:18:25Z</time><name>PT1998</name></trkpt>
<trkpt lat="52.925463" lon="-3.102175"><ele>249</ele><time>2019-09-27T10:18:26Z</time><name>PT1999</name></trkpt>
<trkpt lat="52.925451" lon="-3.102179"><ele>250</ele><time>2019-09-27T10:19:32Z</time><name>PT2000</name></trkpt>
<trkpt lat="52.925451" lon="-3.102175"><ele>250</ele><time>2019-09-27T10:19:33Z</time><name>PT2001</name></trkpt>
<trkpt lat="52.925453" lon="-3.102170"><ele>250</ele><time>2019-09-27T10:19:34Z</time><name>PT2002</name></trkpt>
<trkpt lat="52.925454" lon="-3.102170"><ele>250</ele><time>2019-09-27T10:19:35Z</time><name>PT2003</name></trkpt>
<trkpt lat="52.925454" lon="-3.102171"><ele>250</ele><time>2019-09-27T10:19:36Z</time><name>PT2004</name></trkpt>
<trkpt lat="52.925455" lon="-3.102167"><ele>250</ele><time>2019-09-27T10:19:37Z</time><name>PT2005</name></trkpt>
<trkpt lat="52.925454" lon="-3.102166"><ele>250</ele><time>2019-09-27T10:19:38Z</time><name>PT2006</name></trkpt>
<trkpt lat="52.925454" lon="-3.102169"><ele>250</ele><time>2019-09-27T10:19:39Z</time><name>PT2007</name></trkpt>
<trkpt lat="52.925456" lon="-3.102175"><ele>250</ele><time>2019-09-27T10:19:40Z</time><name>PT2008</name></trkpt>
<trkpt lat="52.925457" lon="-3.102174"><ele>250</ele><time>2019-09-27T10:19:41Z</time><name>PT2009</name></trkpt>
<trkpt lat="52.925456" lon="-3.102171"><ele>250</ele><time>2019-09-27T10:19:42Z</time><name>PT2010</name></trkpt>
<trkpt lat="52.925457" lon="-3.102173"><ele>251</ele><time>2019-09-27T10:19:43Z</time><name>PT2011</name></trkpt>
<trkpt lat="52.925458" lon="-3.102176"><ele>251</ele><time>2019-09-27T10:19:44Z</time><name>PT2012</name></trkpt>
<trkpt lat="52.925459" lon="-3.102178"><ele>251</ele><time>2019-09-27T10:19:45Z</time><name>PT2013</name></trkpt>
<trkpt lat="52.925458" lon="-3.102195"><ele>251</ele><time>2019-09-27T10:20:29Z</time><name>PT2014</name></trkpt>
<trkpt lat="52.925455" lon="-3.102190"><ele>251</ele><time>2019-09-27T10:20:30Z</time><name>PT2015</name></trkpt>
<trkpt lat="52.925456" lon="-3.102200"><ele>250</ele><time>2019-09-27T10:20:31Z</time><name>PT2016</name></trkpt>
<trkpt lat="52.925453" lon="-3.102211"><ele>250</ele><time>2019-09-27T10:20:32Z</time><name>PT2017</name></trkpt>
<trkpt lat="52.925451" lon="-3.102221"><ele>250</ele><time>2019-09-27T10:20:33Z</time><name>PT2018</name></trkpt>
<trkpt lat="52.925445" lon="-3.102233"><ele>251</ele><time>2019-09-27T10:20:34Z</time><name>PT2019</name></trkpt>
<trkpt lat="52.925440" lon="-3.102252"><ele>251</ele><time>2019-09-27T10:20:35Z</time><name>PT2020</name></trkpt>
<trkpt lat="52.925443" lon="-3.102266"><ele>250</ele><time>2019-09-27T10:20:36Z</time><name>PT2021</name></trkpt>
<trkpt lat="52.925446" lon="-3.102277"><ele>251</ele><time>2019-09-27T10:20:37Z</time><name>PT2022</name></trkpt>
<trkpt lat="52.925445" lon="-3.102291"><ele>251</ele><time>2019-09-27T10:20:38Z</time><name>PT2023</name></trkpt>
<trkpt lat="52.925440" lon="-3.102307"><ele>251</ele><time>2019-09-27T10:20:39Z</time><name>PT2024</name></trkpt>
<trkpt lat="52.925433" lon="-3.102328"><ele>251</ele><time>2019-09-27T10:20:40Z</time><name>PT2025</name></trkpt>
<trkpt lat="52.925427" lon="-3.102343"><ele>250</ele><time>2019-09-27T10:20:41Z</time><name>PT2026</name></trkpt>
<trkpt lat="52.925424" lon="-3.102356"><ele>249</ele><time>2019-09-27T10:20:42Z</time><name>PT2027</name></trkpt>
<trkpt lat="52.925421" lon="-3.102369"><ele>248</ele><time>2019-09-27T10:20:43Z</time><name>PT2028</name></trkpt>
<trkpt lat="52.925423" lon="-3.102385"><ele>249</ele><time>2019-09-27T10:20:44Z</time><name>PT2029</name></trkpt>
<trkpt lat="52.925425" lon="-3.102405"><ele>248</ele><time>2019-09-27T10:20:45Z</time><name>PT2030</name></trkpt>
<trkpt lat="52.925423" lon="-3.102425"><ele>249</ele><time>2019-09-27T10:20:46Z</time><name>PT2031</name></trkpt>
<trkpt lat="52.925424" lon="-3.102442"><ele>248</ele><time>2019-09-27T10:20:47Z</time><name>PT2032</name></trkpt>
<trkpt lat="52.925429" lon="-3.102462"><ele>248</ele><time>2019-09-27T10:20:48Z</time><name>PT2033</name></trkpt>
<trkpt lat="52.925425" lon="-3.102479"><ele>247</ele><time>2019-09-27T10:20:49Z</time><name>PT2034</name></trkpt>
<trkpt lat="52.925429" lon="-3.102500"><ele>245</ele><time>2019-09-27T10:20:50Z</time><name>PT2035</name></trkpt>
<trkpt lat="52.925432" lon="-3.102517"><ele>245</ele><time>2019-09-27T10:20:51Z</time><name>PT2036</name></trkpt>
<trkpt lat="52.925434" lon="-3.102539"><ele>245</ele><time>2019-09-27T10:20:52Z</time><name>PT2037</name></trkpt>
<trkpt lat="52.925433" lon="-3.102557"><ele>245</ele><time>2019-09-27T10:20:53Z</time><name>PT2038</name></trkpt>
<trkpt lat="52.925430" lon="-3.102568"><ele>245</ele><time>2019-09-27T10:20:54Z</time><name>PT2039</name></trkpt>
<trkpt lat="52.925427" lon="-3.102585"><ele>245</ele><time>2019-09-27T10:20:55Z</time><name>PT2040</name></trkpt>
<trkpt lat="52.925423" lon="-3.102600"><ele>245</ele><time>2019-09-27T10:20:56Z</time><name>PT2041</name></trkpt>
<trkpt lat="52.925426" lon="-3.102616"><ele>245</ele><time>2019-09-27T10:20:57Z</time><name>PT2042</name></trkpt>
<trkpt lat="52.925430" lon="-3.102633"><ele>245</ele><time>2019-09-27T10:20:58Z</time><name>PT2043</name></trkpt>
<trkpt lat="52.925429" lon="-3.102648"><ele>245</ele><time>2019-09-27T10:20:59Z</time><name>PT2044</name></trkpt>
<trkpt lat="52.925427" lon="-3.102660"><ele>246</ele><time>2019-09-27T10:21:00Z</time><name>PT2045</name></trkpt>
<trkpt lat="52.925421" lon="-3.102676"><ele>246</ele><time>2019-09-27T10:21:01Z</time><name>PT2046</name></trkpt>
<trkpt lat="52.925418" lon="-3.102689"><ele>246</ele><time>2019-09-27T10:21:02Z</time><name>PT2047</name></trkpt>
<trkpt lat="52.925421" lon="-3.102702"><ele>246</ele><time>2019-09-27T10:21:03Z</time><name>PT2048</name></trkpt>
<trkpt lat="52.925421" lon="-3.102719"><ele>246</ele><time>2019-09-27T10:21:04Z</time><name>PT2049</name></trkpt>
<trkpt lat="52.925418" lon="-3.102736"><ele>247</ele><time>2019-09-27T10:21:05Z</time><name>PT2050</name></trkpt>
<trkpt lat="52.925415" lon="-3.102743"><ele>246</ele><time>2019-09-27T10:21:06Z</time><name>PT2051</name></trkpt>
<trkpt lat="52.925418" lon="-3.102752"><ele>246</ele><time>2019-09-27T10:21:07Z</time><name>PT2052</name></trkpt>
<trkpt lat="52.925416" lon="-3.102772"><ele>245</ele><time>2019-09-27T10:21:08Z</time><name>PT2053</name></trkpt>
<trkpt lat="52.925414" lon="-3.102788"><ele>245</ele><time>2019-09-27T10:21:09Z</time><name>PT2054</name></trkpt>
<trkpt lat="52.925416" lon="-3.102810"><ele>245</ele><time>2019-09-27T10:21:10Z</time><name>PT2055</name></trkpt>
<trkpt lat="52.925418" lon="-3.102829"><ele>244</ele><time>2019-09-27T10:21:11Z</time><name>PT2056</name></trkpt>
<trkpt lat="52.925423" lon="-3.102844"><ele>245</ele><time>2019-09-27T10:21:12Z</time><name>PT2057</name></trkpt>
<trkpt lat="52.925422" lon="-3.102864"><ele>245</ele><time>2019-09-27T10:21:13Z</time><name>PT2058</name></trkpt>
<trkpt lat="52.925422" lon="-3.102876"><ele>244</ele><time>2019-09-27T10:21:14Z</time><name>PT2059</name></trkpt>
<trkpt lat="52.925421" lon="-3.102891"><ele>245</ele><time>2019-09-27T10:21:15Z</time><name>PT2060</name></trkpt>
<trkpt lat="52.925423" lon="-3.102907"><ele>244</ele><time>2019-09-27T10:21:16Z</time><name>PT2061</name></trkpt>
<trkpt lat="52.925421" lon="-3.102920"><ele>244</ele><time>2019-09-27T10:21:17Z</time><name>PT2062</name></trkpt>
<trkpt lat="52.925421" lon="-3.102932"><ele>244</ele><time>2019-09-27T10:21:18Z</time><name>PT2063</name></trkpt>
<trkpt lat="52.925423" lon="-3.102947"><ele>244</ele><time>2019-09-27T10:21:19Z</time><name>PT2064</name></trkpt>
<trkpt lat="52.925424" lon="-3.102960"><ele>245</ele><time>2019-09-27T10:21:20Z</time><name>PT2065</name></trkpt>
<trkpt lat="52.925420" lon="-3.102973"><ele>245</ele><time>2019-09-27T10:21:21Z</time><name>PT2066</name></trkpt>
<trkpt lat="52.925420" lon="-3.102985"><ele>245</ele><time>2019-09-27T10:21:22Z</time><name>PT2067</name></trkpt>
<trkpt lat="52.925415" lon="-3.103000"><ele>247</ele><time>2019-09-27T10:21:23Z</time><name>PT2068</name></trkpt>
<trkpt lat="52.925417" lon="-3.103022"><ele>247</ele><time>2019-09-27T10:21:24Z</time><name>PT2069</name></trkpt>
<trkpt lat="52.925415" lon="-3.103036"><ele>247</ele><time>2019-09-27T10:21:25Z</time><name>PT2070</name></trkpt>
<trkpt lat="52.925412" lon="-3.103054"><ele>248</ele><time>2019-09-27T10:21:26Z</time><name>PT2071</name></trkpt>
<trkpt lat="52.925409" lon="-3.103075"><ele>248</ele><time>2019-09-27T10:21:27Z</time><name>PT2072</name></trkpt>
<trkpt lat="52.925407" lon="-3.103097"><ele>248</ele><time>2019-09-27T10:21:28Z</time><name>PT2073</name></trkpt>
<trkpt lat="52.925408" lon="-3.103116"><ele>248</ele><time>2019-09-27T10:21:29Z</time><name>PT2074</name></trkpt>
<trkpt lat="52.925407" lon="-3.103132"><ele>248</ele><time>2019-09-27T10:21:30Z</time><name>PT2075</name></trkpt>
<trkpt lat="52.925402" lon="-3.103150"><ele>249</ele><time>2019-09-27T10:21:31Z</time><name>PT2076</name></trkpt>
<trkpt lat="52.925399" lon="-3.103168"><ele>250</ele><time>2019-09-27T10:21:32Z</time><name>PT2077</name></trkpt>
<trkpt lat="52.925394" lon="-3.103183"><ele>250</ele><time>2019-09-27T10:21:33Z</time><name>PT2078</name></trkpt>
<trkpt lat="52.925392" lon="-3.103202"><ele>250</ele><time>2019-09-27T10:21:34Z</time><name>PT2079</name></trkpt>
<trkpt lat="52.925389" lon="-3.103223"><ele>250</ele><time>2019-09-27T10:21:35Z</time><name>PT2080</name></trkpt>
<trkpt lat="52.925387" lon="-3.103238"><ele>251</ele><time>2019-09-27T10:21:36Z</time><name>PT2081</name></trkpt>
<trkpt lat="52.925384" lon="-3.103251"><ele>251</ele><time>2019-09-27T10:21:37Z</time><name>PT2082</name></trkpt>
<trkpt lat="52.925379" lon="-3.103270"><ele>251</ele><time>2019-09-27T10:21:38Z</time><name>PT2083</name></trkpt>
<trkpt lat="52.925373" lon="-3.103289"><ele>252</ele><time>2019-09-27T10:21:39Z</time><name>PT2084</name></trkpt>
<trkpt lat="52.925371" lon="-3.103303"><ele>252</ele><time>2019-09-27T10:21:40Z</time><name>PT2085</name></trkpt>
<trkpt lat="52.925372" lon="-3.103321"><ele>252</ele><time>2019-09-27T10:21:41Z</time><name>PT2086</name></trkpt>
<trkpt lat="52.925372" lon="-3.103335"><ele>253</ele><time>2019-09-27T10:21:42Z</time><name>PT2087</name></trkpt>
<trkpt lat="52.925372" lon="-3.103347"><ele>253</ele><time>2019-09-27T10:21:43Z</time><name>PT2088</name></trkpt>
<trkpt lat="52.925369" lon="-3.103362"><ele>253</ele><time>2019-09-27T10:21:44Z</time><name>PT2089</name></trkpt>
<trkpt lat="52.925366" lon="-3.103377"><ele>254</ele><time>2019-09-27T10:21:45Z</time><name>PT2090</name></trkpt>
<trkpt lat="52.925365" lon="-3.103388"><ele>255</ele><time>2019-09-27T10:21:46Z</time><name>PT2091</name></trkpt>
<trkpt lat="52.925363" lon="-3.103396"><ele>255</ele><time>2019-09-27T10:21:47Z</time><name>PT2092</name></trkpt>
<trkpt lat="52.925361" lon="-3.103400"><ele>254</ele><time>2019-09-27T10:21:52Z</time><name>PT2093</name></trkpt>
<trkpt lat="52.925357" lon="-3.103415"><ele>255</ele><time>2019-09-27T10:21:53Z</time><name>PT2094</name></trkpt>
<trkpt lat="52.925356" lon="-3.103438"><ele>255</ele><time>2019-09-27T10:21:54Z</time><name>PT2095</name></trkpt>
<trkpt lat="52.925356" lon="-3.103463"><ele>254</ele><time>2019-09-27T10:21:55Z</time><name>PT2096</name></trkpt>
<trkpt lat="52.925356" lon="-3.103490"><ele>254</ele><time>2019-09-27T10:21:56Z</time><name>PT2097</name></trkpt>
<trkpt lat="52.925348" lon="-3.103506"><ele>255</ele><time>2019-09-27T10:21:57Z</time><name>PT2098</name></trkpt>
<trkpt lat="52.925346" lon="-3.103519"><ele>255</ele><time>2019-09-27T10:21:58Z</time><name>PT2099</name></trkpt>
<trkpt lat="52.925346" lon="-3.103544"><ele>254</ele><time>2019-09-27T10:21:59Z</time><name>PT2100</name></trkpt>
<trkpt lat="52.925344" lon="-3.103557"><ele>255</ele><time>2019-09-27T10:22:00Z</time><name>PT2101</name></trkpt>
<trkpt lat="52.925338" lon="-3.103569"><ele>254</ele><time>2019-09-27T10:22:01Z</time><name>PT2102</name></trkpt>
<trkpt lat="52.925337" lon="-3.103580"><ele>254</ele><time>2019-09-27T10:22:02Z</time><name>PT2103</name></trkpt>
<trkpt lat="52.925332" lon="-3.103596"><ele>254</ele><time>2019-09-27T10:22:03Z</time><name>PT2104</name></trkpt>
<trkpt lat="52.925327" lon="-3.103611"><ele>254</ele><time>2019-09-27T10:22:04Z</time><name>PT2105</name></trkpt>
<trkpt lat="52.925327" lon="-3.103627"><ele>254</ele><time>2019-09-27T10:22:05Z</time><name>PT2106</name></trkpt>
<trkpt lat="52.925324" lon="-3.103641"><ele>255</ele><time>2019-09-27T10:22:06Z</time><name>PT2107</name></trkpt>
<trkpt lat="52.925325" lon="-3.103653"><ele>255</ele><time>2019-09-27T10:22:07Z</time><name>PT2108</name></trkpt>
<trkpt lat="52.925325" lon="-3.103670"><ele>255</ele><time>2019-09-27T10:22:08Z</time><name>PT2109</name></trkpt>
<trkpt lat="52.925322" lon="-3.103683"><ele>255</ele><time>2019-09-27T10:22:09Z</time><name>PT2110</name></trkpt>
<trkpt lat="52.925320" lon="-3.103695"><ele>256</ele><time>2019-09-27T10:22:10Z</time><name>PT2111</name></trkpt>
<trkpt lat="52.925320" lon="-3.103706"><ele>256</ele><time>2019-09-27T10:22:11Z</time><name>PT2112</name></trkpt>
<trkpt lat="52.925319" lon="-3.103717"><ele>256</ele><time>2019-09-27T10:22:12Z</time><name>PT2113</name></trkpt>
<trkpt lat="52.925322" lon="-3.103727"><ele>256</ele><time>2019-09-27T10:22:13Z</time><name>PT2114</name></trkpt>
<trkpt lat="52.925322" lon="-3.103733"><ele>256</ele><time>2019-09-27T10:22:14Z</time><name>PT2115</name></trkpt>
<trkpt lat="52.925321" lon="-3.103743"><ele>257</ele><time>2019-09-27T10:22:15Z</time><name>PT2116</name></trkpt>
<trkpt lat="52.925319" lon="-3.103754"><ele>256</ele><time>2019-09-27T10:22:16Z</time><name>PT2117</name></trkpt>
<trkpt lat="52.925320" lon="-3.103761"><ele>257</ele><time>2019-09-27T10:22:17Z</time><name>PT2118</name></trkpt>
<trkpt lat="52.925321" lon="-3.103769"><ele>257</ele><time>2019-09-27T10:22:18Z</time><name>PT2119</name></trkpt>
<trkpt lat="52.925316" lon="-3.103779"><ele>257</ele><time>2019-09-27T10:22:19Z</time><name>PT2120</name></trkpt>
<trkpt lat="52.925314" lon="-3.103791"><ele>258</ele><time>2019-09-27T10:22:20Z</time><name>PT2121</name></trkpt>
<trkpt lat="52.925312" lon="-3.103810"><ele>259</ele><time>2019-09-27T10:22:21Z</time><name>PT2122</name></trkpt>
<trkpt lat="52.925301" lon="-3.103836"><ele>259</ele><time>2019-09-27T10:22:22Z</time><name>PT2123</name></trkpt>
<trkpt lat="52.925302" lon="-3.103846"><ele>259</ele><time>2019-09-27T10:22:23Z</time><name>PT2124</name></trkpt>
<trkpt lat="52.925300" lon="-3.103858"><ele>259</ele><time>2019-09-27T10:22:24Z</time><name>PT2125</name></trkpt>
<trkpt lat="52.925295" lon="-3.103875"><ele>258</ele><time>2019-09-27T10:22:25Z</time><name>PT2126</name></trkpt>
<trkpt lat="52.925291" lon="-3.103886"><ele>258</ele><time>2019-09-27T10:22:26Z</time><name>PT2127</name></trkpt>
<trkpt lat="52.925291" lon="-3.103894"><ele>259</ele><time>2019-09-27T10:22:27Z</time><name>PT2128</name></trkpt>
<trkpt lat="52.925287" lon="-3.103900"><ele>260</ele><time>2019-09-27T10:22:28Z</time><name>PT2129</name></trkpt>
<trkpt lat="52.925286" lon="-3.103909"><ele>260</ele><time>2019-09-27T10:22:29Z</time><name>PT2130</name></trkpt>
<trkpt lat="52.925284" lon="-3.103922"><ele>260</ele><time>2019-09-27T10:22:30Z</time><name>PT2131</name></trkpt>
<trkpt lat="52.925282" lon="-3.103932"><ele>260</ele><time>2019-09-27T10:22:31Z</time><name>PT2132</name></trkpt>
<trkpt lat="52.925280" lon="-3.103943"><ele>261</ele><time>2019-09-27T10:22:32Z</time><name>PT2133</name></trkpt>
<trkpt lat="52.925276" lon="-3.103956"><ele>261</ele><time>2019-09-27T10:22:33Z</time><name>PT2134</name></trkpt>
<trkpt lat="52.925274" lon="-3.103967"><ele>261</ele><time>2019-09-27T10:22:34Z</time><name>PT2135</name></trkpt>
<trkpt lat="52.925271" lon="-3.103978"><ele>261</ele><time>2019-09-27T10:22:35Z</time><name>PT2136</name></trkpt>
<trkpt lat="52.925261" lon="-3.104003"><ele>261</ele><time>2019-09-27T10:22:37Z</time><name>PT2137</name></trkpt>
<trkpt lat="52.925257" lon="-3.104014"><ele>261</ele><time>2019-09-27T10:22:38Z</time><name>PT2138</name></trkpt>
<trkpt lat="52.925250" lon="-3.104028"><ele>260</ele><time>2019-09-27T10:22:39Z</time><name>PT2139</name></trkpt>
<trkpt lat="52.925243" lon="-3.104044"><ele>259</ele><time>2019-09-27T10:22:40Z</time><name>PT2140</name></trkpt>
<trkpt lat="52.925242" lon="-3.104056"><ele>260</ele><time>2019-09-27T10:22:41Z</time><name>PT2141</name></trkpt>
<trkpt lat="52.925240" lon="-3.104068"><ele>260</ele><time>2019-09-27T10:22:42Z</time><name>PT2142</name></trkpt>
<trkpt lat="52.925234" lon="-3.104080"><ele>260</ele><time>2019-09-27T10:22:43Z</time><name>PT2143</name></trkpt>
<trkpt lat="52.925234" lon="-3.104093"><ele>260</ele><time>2019-09-27T10:22:44Z</time><name>PT2144</name></trkpt>
<trkpt lat="52.925232" lon="-3.104105"><ele>261</ele><time>2019-09-27T10:22:45Z</time><name>PT2145</name></trkpt>
<trkpt lat="52.925230" lon="-3.104118"><ele>261</ele><time>2019-09-27T10:22:46Z</time><name>PT2146</name></trkpt>
<trkpt lat="52.925227" lon="-3.104131"><ele>260</ele><time>2019-09-27T10:22:47Z</time><name>PT2147</name></trkpt>
<trkpt lat="52.925222" lon="-3.104140"><ele>260</ele><time>2019-09-27T10:22:48Z</time><name>PT2148</name></trkpt>
<trkpt lat="52.925219" lon="-3.104152"><ele>261</ele><time>2019-09-27T10:22:49Z</time><name>PT2149</name></trkpt>
<trkpt lat="52.925216" lon="-3.104163"><ele>261</ele><time>2019-09-27T10:22:50Z</time><name>PT2150</name></trkpt>
<trkpt lat="52.925212" lon="-3.104174"><ele>261</ele><time>2019-09-27T10:22:51Z</time><name>PT2151</name></trkpt>
<trkpt lat="52.925209" lon="-3.104184"><ele>261</ele><time>2019-09-27T10:22:52Z</time><name>PT2152</name></trkpt>
<trkpt lat="52.925210" lon="-3.104197"><ele>262</ele><time>2019-09-27T10:22:53Z</time><name>PT2153</name></trkpt>
<trkpt lat="52.925207" lon="-3.104210"><ele>262</ele><time>2019-09-27T10:22:54Z</time><name>PT2154</name></trkpt>
<trkpt lat="52.925204" lon="-3.104223"><ele>261</ele><time>2019-09-27T10:22:55Z</time><name>PT2155</name></trkpt>
<trkpt lat="52.925199" lon="-3.104233"><ele>261</ele><time>2019-09-27T10:22:56Z</time><name>PT2156</name></trkpt>
<trkpt lat="52.925193" lon="-3.104247"><ele>261</ele><time>2019-09-27T10:22:57Z</time><name>PT2157</name></trkpt>
<trkpt lat="52.925190" lon="-3.104260"><ele>261</ele><time>2019-09-27T10:22:58Z</time><name>PT2158</name></trkpt>
<trkpt lat="52.925186" lon="-3.104271"><ele>261</ele><time>2019-09-27T10:22:59Z</time><name>PT2159</name></trkpt>
<trkpt lat="52.925183" lon="-3.104281"><ele>261</ele><time>2019-09-27T10:23:00Z</time><name>PT2160</name></trkpt>
<trkpt lat="52.925179" lon="-3.104289"><ele>261</ele><time>2019-09-27T10:23:01Z</time><name>PT2161</name></trkpt>
<trkpt lat="52.925176" lon="-3.104302"><ele>261</ele><time>2019-09-27T10:23:02Z</time><name>PT2162</name></trkpt>
<trkpt lat="52.925173" lon="-3.104317"><ele>261</ele><time>2019-09-27T10:23:03Z</time><name>PT2163</name></trkpt>
<trkpt lat="52.925169" lon="-3.104326"><ele>261</ele><time>2019-09-27T10:23:04Z</time><name>PT2164</name></trkpt>
<trkpt lat="52.925166" lon="-3.104336"><ele>262</ele><time>2019-09-27T10:23:05Z</time><name>PT2165</name></trkpt>
<trkpt lat="52.925160" lon="-3.104352"><ele>261</ele><time>2019-09-27T10:23:06Z</time><name>PT2166</name></trkpt>
<trkpt lat="52.925156" lon="-3.104367"><ele>261</ele><time>2019-09-27T10:23:07Z</time><name>PT2167</name></trkpt>
<trkpt lat="52.925147" lon="-3.104369"><ele>261</ele><time>2019-09-27T10:23:08Z</time><name>PT2168</name></trkpt>
<trkpt lat="52.925141" lon="-3.104381"><ele>261</ele><time>2019-09-27T10:23:09Z</time><name>PT2169</name></trkpt>
<trkpt lat="52.925140" lon="-3.104395"><ele>261</ele><time>2019-09-27T10:23:10Z</time><name>PT2170</name></trkpt>
<trkpt lat="52.925137" lon="-3.104404"><ele>262</ele><time>2019-09-27T10:23:11Z</time><name>PT2171</name></trkpt>
<trkpt lat="52.925133" lon="-3.104414"><ele>262</ele><time>2019-09-27T10:23:12Z</time><name>PT2172</name></trkpt>
<trkpt lat="52.925128" lon="-3.104424"><ele>262</ele><time>2019-09-27T10:23:13Z</time><name>PT2173</name></trkpt>
<trkpt lat="52.925130" lon="-3.104435"><ele>264</ele><time>2019-09-27T10:23:14Z</time><name>PT2174</name></trkpt>
<trkpt lat="52.925127" lon="-3.104443"><ele>264</ele><time>2019-09-27T10:23:15Z</time><name>PT2175</name></trkpt>
<trkpt lat="52.925123" lon="-3.104451"><ele>264</ele><time>2019-09-27T10:23:16Z</time><name>PT2176</name></trkpt>
<trkpt lat="52.925120" lon="-3.104458"><ele>264</ele><time>2019-09-27T10:23:17Z</time><name>PT2177</name></trkpt>
<trkpt lat="52.925116" lon="-3.104462"><ele>265</ele><time>2019-09-27T10:23:18Z</time><name>PT2178</name></trkpt>
<trkpt lat="52.925110" lon="-3.104471"><ele>265</ele><time>2019-09-27T10:23:19Z</time><name>PT2179</name></trkpt>
<trkpt lat="52.925107" lon="-3.104479"><ele>265</ele><time>2019-09-27T10:23:20Z</time><name>PT2180</name></trkpt>
<trkpt lat="52.925103" lon="-3.104488"><ele>265</ele><time>2019-09-27T10:23:21Z</time><name>PT2181</name></trkpt>
<trkpt lat="52.925103" lon="-3.104492"><ele>264</ele><time>2019-09-27T10:23:22Z</time><name>PT2182</name></trkpt>
<trkpt lat="52.925102" lon="-3.104500"><ele>264</ele><time>2019-09-27T10:23:23Z</time><name>PT2183</name></trkpt>
<trkpt lat="52.925099" lon="-3.104512"><ele>264</ele><time>2019-09-27T10:23:24Z</time><name>PT2184</name></trkpt>
<trkpt lat="52.925093" lon="-3.104526"><ele>263</ele><time>2019-09-27T10:23:25Z</time><name>PT2185</name></trkpt>
<trkpt lat="52.925092" lon="-3.104534"><ele>264</ele><time>2019-09-27T10:23:26Z</time><name>PT2186</name></trkpt>
<trkpt lat="52.925090" lon="-3.104545"><ele>264</ele><time>2019-09-27T10:23:27Z</time><name>PT2187</name></trkpt>
<trkpt lat="52.925088" lon="-3.104557"><ele>264</ele><time>2019-09-27T10:23:28Z</time><name>PT2188</name></trkpt>
<trkpt lat="52.925087" lon="-3.104569"><ele>264</ele><time>2019-09-27T10:23:29Z</time><name>PT2189</name></trkpt>
<trkpt lat="52.925085" lon="-3.104585"><ele>263</ele><time>2019-09-27T10:23:30Z</time><name>PT2190</name></trkpt>
<trkpt lat="52.925084" lon="-3.104595"><ele>263</ele><time>2019-09-27T10:23:31Z</time><name>PT2191</name></trkpt>
<trkpt lat="52.925080" lon="-3.104609"><ele>263</ele><time>2019-09-27T10:23:32Z</time><name>PT2192</name></trkpt>
<trkpt lat="52.925077" lon="-3.104623"><ele>263</ele><time>2019-09-27T10:23:33Z</time><name>PT2193</name></trkpt>
<trkpt lat="52.925074" lon="-3.104635"><ele>263</ele><time>2019-09-27T10:23:34Z</time><name>PT2194</name></trkpt>
<trkpt lat="52.925070" lon="-3.104649"><ele>263</ele><time>2019-09-27T10:23:35Z</time><name>PT2195</name></trkpt>
<trkpt lat="52.925069" lon="-3.104659"><ele>263</ele><time>2019-09-27T10:23:36Z</time><name>PT2196</name></trkpt>
<trkpt lat="52.925065" lon="-3.104669"><ele>264</ele><time>2019-09-27T10:23:37Z</time><name>PT2197</name></trkpt>
<trkpt lat="52.925061" lon="-3.104679"><ele>264</ele><time>2019-09-27T10:23:38Z</time><name>PT2198</name></trkpt>
<trkpt lat="52.925056" lon="-3.104686"><ele>263</ele><time>2019-09-27T10:23:39Z</time><name>PT2199</name></trkpt>
<trkpt lat="52.925051" lon="-3.104694"><ele>263</ele><time>2019-09-27T10:23:40Z</time><name>PT2200</name></trkpt>
<trkpt lat="52.925042" lon="-3.104705"><ele>264</ele><time>2019-09-27T10:23:41Z</time><name>PT2201</name></trkpt>
<trkpt lat="52.925040" lon="-3.104713"><ele>264</ele><time>2019-09-27T10:23:42Z</time><name>PT2202</name></trkpt>
<trkpt lat="52.925043" lon="-3.104731"><ele>265</ele><time>2019-09-27T10:23:43Z</time><name>PT2203</name></trkpt>
<trkpt lat="52.925041" lon="-3.104739"><ele>265</ele><time>2019-09-27T10:23:44Z</time><name>PT2204</name></trkpt>
<trkpt lat="52.925032" lon="-3.104755"><ele>265</ele><time>2019-09-27T10:23:45Z</time><name>PT2205</name></trkpt>
<trkpt lat="52.925028" lon="-3.104768"><ele>266</ele><time>2019-09-27T10:23:46Z</time><name>PT2206</name></trkpt>
<trkpt lat="52.925027" lon="-3.104781"><ele>266</ele><time>2019-09-27T10:23:47Z</time><name>PT2207</name></trkpt>
<trkpt lat="52.925025" lon="-3.104792"><ele>266</ele><time>2019-09-27T10:23:48Z</time><name>PT2208</name></trkpt>
<trkpt lat="52.925018" lon="-3.104806"><ele>266</ele><time>2019-09-27T10:23:49Z</time><name>PT2209</name></trkpt>
<trkpt lat="52.925013" lon="-3.104818"><ele>266</ele><time>2019-09-27T10:23:50Z</time><name>PT2210</name></trkpt>
<trkpt lat="52.925011" lon="-3.104828"><ele>266</ele><time>2019-09-27T10:23:51Z</time><name>PT2211</name></trkpt>
<trkpt lat="52.925010" lon="-3.104836"><ele>266</ele><time>2019-09-27T10:23:52Z</time><name>PT2212</name></trkpt>
<trkpt lat="52.925007" lon="-3.104850"><ele>267</ele><time>2019-09-27T10:23:53Z</time><name>PT2213</name></trkpt>
<trkpt lat="52.925007" lon="-3.104858"><ele>267</ele><time>2019-09-27T10:23:54Z</time><name>PT2214</name></trkpt>
<trkpt lat="52.925003" lon="-3.104870"><ele>267</ele><time>2019-09-27T10:23:55Z</time><name>PT2215</name></trkpt>
<trkpt lat="52.924998" lon="-3.104879"><ele>267</ele><time>2019-09-27T10:23:56Z</time><name>PT2216</name></trkpt>
<trkpt lat="52.924995" lon="-3.104886"><ele>266</ele><time>2019-09-27T10:23:57Z</time><name>PT2217</name></trkpt>
<trkpt lat="52.924994" lon="-3.104897"><ele>266</ele><time>2019-09-27T10:23:58Z</time><name>PT2218</name></trkpt>
<trkpt lat="52.924992" lon="-3.104905"><ele>266</ele><time>2019-09-27T10:23:59Z</time><name>PT2219</name></trkpt>
<trkpt lat="52.924988" lon="-3.104913"><ele>266</ele><time>2019-09-27T10:24:00Z</time><name>PT2220</name></trkpt>
<trkpt lat="52.924986" lon="-3.104922"><ele>265</ele><time>2019-09-27T10:24:01Z</time><name>PT2221</name></trkpt>
<trkpt lat="52.924982" lon="-3.104933"><ele>265</ele><time>2019-09-27T10:24:02Z</time><name>PT2222</name></trkpt>
<trkpt lat="52.924977" lon="-3.104945"><ele>264</ele><time>2019-09-27T10:24:03Z</time><name>PT2223</name></trkpt>
<trkpt lat="52.924975" lon="-3.104954"><ele>264</ele><time>2019-09-27T10:24:04Z</time><name>PT2224</name></trkpt>
<trkpt lat="52.924972" lon="-3.104963"><ele>266</ele><time>2019-09-27T10:24:05Z</time><name>PT2225</name></trkpt>
<trkpt lat="52.924972" lon="-3.104974"><ele>266</ele><time>2019-09-27T10:24:06Z</time><name>PT2226</name></trkpt>
<trkpt lat="52.924973" lon="-3.104980"><ele>266</ele><time>2019-09-27T10:24:07Z</time><name>PT2227</name></trkpt>
<trkpt lat="52.924971" lon="-3.104985"><ele>266</ele><time>2019-09-27T10:24:08Z</time><name>PT2228</name></trkpt>
<trkpt lat="52.924971" lon="-3.104994"><ele>266</ele><time>2019-09-27T10:24:09Z</time><name>PT2229</name></trkpt>
<trkpt lat="52.924969" lon="-3.105001"><ele>266</ele><time>2019-09-27T10:24:10Z</time><name>PT2230</name></trkpt>
<trkpt lat="52.924959" lon="-3.105024"><ele>265</ele><time>2019-09-27T10:24:12Z</time><name>PT2231</name></trkpt>
<trkpt lat="52.924957" lon="-3.105036"><ele>266</ele><time>2019-09-27T10:24:13Z</time><name>PT2232</name></trkpt>
<trkpt lat="52.924954" lon="-3.105049"><ele>266</ele><time>2019-09-27T10:24:14Z</time><name>PT2233</name></trkpt>
<trkpt lat="52.924952" lon="-3.105060"><ele>267</ele><time>2019-09-27T10:24:15Z</time><name>PT2234</name></trkpt>
<trkpt lat="52.924949" lon="-3.105076"><ele>267</ele><time>2019-09-27T10:24:16Z</time><name>PT2235</name></trkpt>
<trkpt lat="52.924943" lon="-3.105084"><ele>267</ele><time>2019-09-27T10:24:17Z</time><name>PT2236</name></trkpt>
<trkpt lat="52.924940" lon="-3.105091"><ele>267</ele><time>2019-09-27T10:24:18Z</time><name>PT2237</name></trkpt>
<trkpt lat="52.924939" lon="-3.105098"><ele>267</ele><time>2019-09-27T10:24:19Z</time><name>PT2238</name></trkpt>
<trkpt lat="52.924934" lon="-3.105109"><ele>267</ele><time>2019-09-27T10:24:20Z</time><name>PT2239</name></trkpt>
<trkpt lat="52.924930" lon="-3.105118"><ele>267</ele><time>2019-09-27T10:24:21Z</time><name>PT2240</name></trkpt>
<trkpt lat="52.924927" lon="-3.105125"><ele>267</ele><time>2019-09-27T10:24:22Z</time><name>PT2241</name></trkpt>
<trkpt lat="52.924926" lon="-3.105132"><ele>267</ele><time>2019-09-27T10:24:23Z</time><name>PT2242</name></trkpt>
<trkpt lat="52.924922" lon="-3.105143"><ele>268</ele><time>2019-09-27T10:24:24Z</time><name>PT2243</name></trkpt>
<trkpt lat="52.924921" lon="-3.105152"><ele>269</ele><time>2019-09-27T10:24:25Z</time><name>PT2244</name></trkpt>
<trkpt lat="52.924914" lon="-3.105162"><ele>268</ele><time>2019-09-27T10:24:26Z</time><name>PT2245</name></trkpt>
<trkpt lat="52.924912" lon="-3.105167"><ele>268</ele><time>2019-09-27T10:24:27Z</time><name>PT2246</name></trkpt>
<trkpt lat="52.924908" lon="-3.105174"><ele>268</ele><time>2019-09-27T10:24:28Z</time><name>PT2247</name></trkpt>
<trkpt lat="52.924909" lon="-3.105179"><ele>269</ele><time>2019-09-27T10:24:29Z</time><name>PT2248</name></trkpt>
<trkpt lat="52.924905" lon="-3.105191"><ele>269</ele><time>2019-09-27T10:24:30Z</time><name>PT2249</name></trkpt>
<trkpt lat="52.924899" lon="-3.105203"><ele>269</ele><time>2019-09-27T10:24:31Z</time><name>PT2250</name></trkpt>
<trkpt lat="52.924900" lon="-3.105207"><ele>269</ele><time>2019-09-27T10:24:32Z</time><name>PT2251</name></trkpt>
<trkpt lat="52.924902" lon="-3.105213"><ele>269</ele><time>2019-09-27T10:24:33Z</time><name>PT2252</name></trkpt>
<trkpt lat="52.924903" lon="-3.105218"><ele>270</ele><time>2019-09-27T10:24:34Z</time><name>PT2253</name></trkpt>
<trkpt lat="52.924904" lon="-3.105225"><ele>270</ele><time>2019-09-27T10:24:35Z</time><name>PT2254</name></trkpt>
<trkpt lat="52.924903" lon="-3.105230"><ele>270</ele><time>2019-09-27T10:24:36Z</time><name>PT2255</name></trkpt>
<trkpt lat="52.924901" lon="-3.105238"><ele>270</ele><time>2019-09-27T10:24:37Z</time><name>PT2256</name></trkpt>
<trkpt lat="52.924902" lon="-3.105249"><ele>270</ele><time>2019-09-27T10:24:38Z</time><name>PT2257</name></trkpt>
<trkpt lat="52.924899" lon="-3.105257"><ele>270</ele><time>2019-09-27T10:24:39Z</time><name>PT2258</name></trkpt>
<trkpt lat="52.924897" lon="-3.105265"><ele>271</ele><time>2019-09-27T10:24:40Z</time><name>PT2259</name></trkpt>
<trkpt lat="52.924894" lon="-3.105270"><ele>270</ele><time>2019-09-27T10:24:41Z</time><name>PT2260</name></trkpt>
<trkpt lat="52.924887" lon="-3.105282"><ele>270</ele><time>2019-09-27T10:24:43Z</time><name>PT2261</name></trkpt>
<trkpt lat="52.924885" lon="-3.105293"><ele>270</ele><time>2019-09-27T10:24:44Z</time><name>PT2262</name></trkpt>
<trkpt lat="52.924881" lon="-3.105302"><ele>269</ele><time>2019-09-27T10:24:45Z</time><name>PT2263</name></trkpt>
<trkpt lat="52.924880" lon="-3.105311"><ele>269</ele><time>2019-09-27T10:24:46Z</time><name>PT2264</name></trkpt>
<trkpt lat="52.924878" lon="-3.105316"><ele>269</ele><time>2019-09-27T10:24:47Z</time><name>PT2265</name></trkpt>
<trkpt lat="52.924874" lon="-3.105325"><ele>269</ele><time>2019-09-27T10:24:48Z</time><name>PT2266</name></trkpt>
<trkpt lat="52.924869" lon="-3.105334"><ele>269</ele><time>2019-09-27T10:24:49Z</time><name>PT2267</name></trkpt>
<trkpt lat="52.924865" lon="-3.105340"><ele>269</ele><time>2019-09-27T10:24:50Z</time><name>PT2268</name></trkpt>
<trkpt lat="52.924862" lon="-3.105349"><ele>269</ele><time>2019-09-27T10:24:51Z</time><name>PT2269</name></trkpt>
<trkpt lat="52.924860" lon="-3.105361"><ele>269</ele><time>2019-09-27T10:24:52Z</time><name>PT2270</name></trkpt>
<trkpt lat="52.924857" lon="-3.105372"><ele>269</ele><time>2019-09-27T10:24:53Z</time><name>PT2271</name></trkpt>
<trkpt lat="52.924852" lon="-3.105386"><ele>270</ele><time>2019-09-27T10:24:54Z</time><name>PT2272</name></trkpt>
<trkpt lat="52.924851" lon="-3.105400"><ele>269</ele><time>2019-09-27T10:24:55Z</time><name>PT2273</name></trkpt>
<trkpt lat="52.924849" lon="-3.105416"><ele>270</ele><time>2019-09-27T10:24:56Z</time><name>PT2274</name></trkpt>
<trkpt lat="52.924842" lon="-3.105441"><ele>269</ele><time>2019-09-27T10:24:57Z</time><name>PT2275</name></trkpt>
<trkpt lat="52.924835" lon="-3.105457"><ele>269</ele><time>2019-09-27T10:24:58Z</time><name>PT2276</name></trkpt>
<trkpt lat="52.924832" lon="-3.105476"><ele>269</ele><time>2019-09-27T10:24:59Z</time><name>PT2277</name></trkpt>
<trkpt lat="52.924825" lon="-3.105487"><ele>268</ele><time>2019-09-27T10:25:00Z</time><name>PT2278</name></trkpt>
<trkpt lat="52.924819" lon="-3.105499"><ele>268</ele><time>2019-09-27T10:25:01Z</time><name>PT2279</name></trkpt>
<trkpt lat="52.924812" lon="-3.105504"><ele>267</ele><time>2019-09-27T10:25:02Z</time><name>PT2280</name></trkpt>
<trkpt lat="52.924808" lon="-3.105516"><ele>267</ele><time>2019-09-27T10:25:03Z</time><name>PT2281</name></trkpt>
<trkpt lat="52.924802" lon="-3.105530"><ele>268</ele><time>2019-09-27T10:25:04Z</time><name>PT2282</name></trkpt>
<trkpt lat="52.924799" lon="-3.105537"><ele>268</ele><time>2019-09-27T10:25:05Z</time><name>PT2283</name></trkpt>
<trkpt lat="52.924799" lon="-3.105548"><ele>268</ele><time>2019-09-27T10:25:06Z</time><name>PT2284</name></trkpt>
<trkpt lat="52.924799" lon="-3.105552"><ele>268</ele><time>2019-09-27T10:25:07Z</time><name>PT2285</name></trkpt>
<trkpt lat="52.924791" lon="-3.105563"><ele>268</ele><time>2019-09-27T10:25:08Z</time><name>PT2286</name></trkpt>
<trkpt lat="52.924790" lon="-3.105577"><ele>268</ele><time>2019-09-27T10:25:09Z</time><name>PT2287</name></trkpt>
<trkpt lat="52.924785" lon="-3.105590"><ele>268</ele><time>2019-09-27T10:25:10Z</time><name>PT2288</name></trkpt>
<trkpt lat="52.924779" lon="-3.105605"><ele>268</ele><time>2019-09-27T10:25:11Z</time><name>PT2289</name></trkpt>
<trkpt lat="52.924773" lon="-3.105617"><ele>268</ele><time>2019-09-27T10:25:12Z</time><name>PT2290</name></trkpt>
<trkpt lat="52.924767" lon="-3.105629"><ele>268</ele><time>2019-09-27T10:25:13Z</time><name>PT2291</name></trkpt>
<trkpt lat="52.924765" lon="-3.105641"><ele>268</ele><time>2019-09-27T10:25:14Z</time><name>PT2292</name></trkpt>
<trkpt lat="52.924761" lon="-3.105658"><ele>269</ele><time>2019-09-27T10:25:15Z</time><name>PT2293</name></trkpt>
<trkpt lat="52.924758" lon="-3.105668"><ele>269</ele><time>2019-09-27T10:25:16Z</time><name>PT2294</name></trkpt>
<trkpt lat="52.924756" lon="-3.105676"><ele>269</ele><time>2019-09-27T10:25:17Z</time><name>PT2295</name></trkpt>
<trkpt lat="52.924753" lon="-3.105685"><ele>269</ele><time>2019-09-27T10:25:18Z</time><name>PT2296</name></trkpt>
<trkpt lat="52.924749" lon="-3.105693"><ele>268</ele><time>2019-09-27T10:25:19Z</time><name>PT2297</name></trkpt>
<trkpt lat="52.924744" lon="-3.105704"><ele>268</ele><time>2019-09-27T10:25:20Z</time><name>PT2298</name></trkpt>
<trkpt lat="52.924740" lon="-3.105714"><ele>268</ele><time>2019-09-27T10:25:21Z</time><name>PT2299</name></trkpt>
<trkpt lat="52.924734" lon="-3.105722"><ele>268</ele><time>2019-09-27T10:25:22Z</time><name>PT2300</name></trkpt>
<trkpt lat="52.924728" lon="-3.105732"><ele>268</ele><time>2019-09-27T10:25:23Z</time><name>PT2301</name></trkpt>
<trkpt lat="52.924723" lon="-3.105743"><ele>269</ele><time>2019-09-27T10:25:24Z</time><name>PT2302</name></trkpt>
<trkpt lat="52.924720" lon="-3.105756"><ele>269</ele><time>2019-09-27T10:25:25Z</time><name>PT2303</name></trkpt>
<trkpt lat="52.924718" lon="-3.105761"><ele>270</ele><time>2019-09-27T10:25:26Z</time><name>PT2304</name></trkpt>
<trkpt lat="52.924716" lon="-3.105770"><ele>270</ele><time>2019-09-27T10:25:27Z</time><name>PT2305</name></trkpt>
<trkpt lat="52.924712" lon="-3.105773"><ele>271</ele><time>2019-09-27T10:25:28Z</time><name>PT2306</name></trkpt>
<trkpt lat="52.924703" lon="-3.105788"><ele>271</ele><time>2019-09-27T10:25:29Z</time><name>PT2307</name></trkpt>
<trkpt lat="52.924701" lon="-3.105799"><ele>272</ele><time>2019-09-27T10:25:30Z</time><name>PT2308</name></trkpt>
<trkpt lat="52.924696" lon="-3.105807"><ele>272</ele><time>2019-09-27T10:25:31Z</time><name>PT2309</name></trkpt>
<trkpt lat="52.924693" lon="-3.105820"><ele>272</ele><time>2019-09-27T10:25:32Z</time><name>PT2310</name></trkpt>
<trkpt lat="52.924689" lon="-3.105832"><ele>273</ele><time>2019-09-27T10:25:33Z</time><name>PT2311</name></trkpt>
<trkpt lat="52.924688" lon="-3.105838"><ele>273</ele><time>2019-09-27T10:25:34Z</time><name>PT2312</name></trkpt>
<trkpt lat="52.924685" lon="-3.105849"><ele>273</ele><time>2019-09-27T10:25:35Z</time><name>PT2313</name></trkpt>
<trkpt lat="52.924684" lon="-3.105856"><ele>273</ele><time>2019-09-27T10:25:36Z</time><name>PT2314</name></trkpt>
<trkpt lat="52.924682" lon="-3.105862"><ele>273</ele><time>2019-09-27T10:25:37Z</time><name>PT2315</name></trkpt>
<trkpt lat="52.924677" lon="-3.105871"><ele>273</ele><time>2019-09-27T10:25:38Z</time><name>PT2316</name></trkpt>
<trkpt lat="52.924672" lon="-3.105881"><ele>273</ele><time>2019-09-27T10:25:39Z</time><name>PT2317</name></trkpt>
<trkpt lat="52.924667" lon="-3.105889"><ele>273</ele><time>2019-09-27T10:25:40Z</time><name>PT2318</name></trkpt>
<trkpt lat="52.924667" lon="-3.105899"><ele>273</ele><time>2019-09-27T10:25:41Z</time><name>PT2319</name></trkpt>
<trkpt lat="52.924668" lon="-3.105913"><ele>273</ele><time>2019-09-27T10:25:42Z</time><name>PT2320</name></trkpt>
<trkpt lat="52.924664" lon="-3.105928"><ele>274</ele><time>2019-09-27T10:25:43Z</time><name>PT2321</name></trkpt>
<trkpt lat="52.924662" lon="-3.105936"><ele>274</ele><time>2019-09-27T10:25:44Z</time><name>PT2322</name></trkpt>
<trkpt lat="52.924660" lon="-3.105945"><ele>274</ele><time>2019-09-27T10:25:45Z</time><name>PT2323</name></trkpt>
<trkpt lat="52.924661" lon="-3.105948"><ele>275</ele><time>2019-09-27T10:25:46Z</time><name>PT2324</name></trkpt>
<trkpt lat="52.924663" lon="-3.105955"><ele>276</ele><time>2019-09-27T10:25:47Z</time><name>PT2325</name></trkpt>
<trkpt lat="52.924653" lon="-3.105963"><ele>275</ele><time>2019-09-27T10:25:48Z</time><name>PT2326</name></trkpt>
<trkpt lat="52.924648" lon="-3.105969"><ele>275</ele><time>2019-09-27T10:25:49Z</time><name>PT2327</name></trkpt>
<trkpt lat="52.924644" lon="-3.105979"><ele>276</ele><time>2019-09-27T10:25:50Z</time><name>PT2328</name></trkpt>
<trkpt lat="52.924635" lon="-3.105988"><ele>276</ele><time>2019-09-27T10:25:51Z</time><name>PT2329</name></trkpt>
<trkpt lat="52.924636" lon="-3.106002"><ele>277</ele><time>2019-09-27T10:25:52Z</time><name>PT2330</name></trkpt>
<trkpt lat="52.924637" lon="-3.106014"><ele>276</ele><time>2019-09-27T10:25:53Z</time><name>PT2331</name></trkpt>
<trkpt lat="52.924633" lon="-3.106024"><ele>276</ele><time>2019-09-27T10:25:54Z</time><name>PT2332</name></trkpt>
<trkpt lat="52.924626" lon="-3.106033"><ele>277</ele><time>2019-09-27T10:25:55Z</time><name>PT2333</name></trkpt>
<trkpt lat="52.924619" lon="-3.106047"><ele>277</ele><time>2019-09-27T10:25:56Z</time><name>PT2334</name></trkpt>
<trkpt lat="52.924616" lon="-3.106055"><ele>277</ele><time>2019-09-27T10:25:57Z</time><name>PT2335</name></trkpt>
<trkpt lat="52.924606" lon="-3.106075"><ele>276</ele><time>2019-09-27T10:25:58Z</time><name>PT2336</name></trkpt>
<trkpt lat="52.924602" lon="-3.106092"><ele>276</ele><time>2019-09-27T10:25:59Z</time><name>PT2337</name></trkpt>
<trkpt lat="52.924594" lon="-3.106115"><ele>275</ele><time>2019-09-27T10:26:00Z</time><name>PT2338</name></trkpt>
<trkpt lat="52.924589" lon="-3.106138"><ele>274</ele><time>2019-09-27T10:26:01Z</time><name>PT2339</name></trkpt>
<trkpt lat="52.924586" lon="-3.106154"><ele>275</ele><time>2019-09-27T10:26:02Z</time><name>PT2340</name></trkpt>
<trkpt lat="52.924583" lon="-3.106170"><ele>275</ele><time>2019-09-27T10:26:03Z</time><name>PT2341</name></trkpt>
<trkpt lat="52.924579" lon="-3.106191"><ele>275</ele><time>2019-09-27T10:26:04Z</time><name>PT2342</name></trkpt>
<trkpt lat="52.924576" lon="-3.106214"><ele>275</ele><time>2019-09-27T10:26:05Z</time><name>PT2343</name></trkpt>
<trkpt lat="52.924572" lon="-3.106230"><ele>275</ele><time>2019-09-27T10:26:06Z</time><name>PT2344</name></trkpt>
<trkpt lat="52.924569" lon="-3.106245"><ele>275</ele><time>2019-09-27T10:26:07Z</time><name>PT2345</name></trkpt>
<trkpt lat="52.924562" lon="-3.106259"><ele>276</ele><time>2019-09-27T10:26:08Z</time><name>PT2346</name></trkpt>
<trkpt lat="52.924558" lon="-3.106270"><ele>276</ele><time>2019-09-27T10:26:09Z</time><name>PT2347</name></trkpt>
<trkpt lat="52.924552" lon="-3.106280"><ele>277</ele><time>2019-09-27T10:26:10Z</time><name>PT2348</name></trkpt>
<trkpt lat="52.924551" lon="-3.106291"><ele>277</ele><time>2019-09-27T10:26:12Z</time><name>PT2349</name></trkpt>
<trkpt lat="52.924548" lon="-3.106304"><ele>276</ele><time>2019-09-27T10:26:13Z</time><name>PT2350</name></trkpt>
<trkpt lat="52.924549" lon="-3.106318"><ele>276</ele><time>2019-09-27T10:26:14Z</time><name>PT2351</name></trkpt>
<trkpt lat="52.924549" lon="-3.106329"><ele>276</ele><time>2019-09-27T10:26:15Z</time><name>PT2352</name></trkpt>
<trkpt lat="52.924550" lon="-3.106354"><ele>276</ele><time>2019-09-27T10:26:16Z</time><name>PT2353</name></trkpt>
<trkpt lat="52.924546" lon="-3.106370"><ele>276</ele><time>2019-09-27T10:26:17Z</time><name>PT2354</name></trkpt>
<trkpt lat="52.924539" lon="-3.106391"><ele>276</ele><time>2019-09-27T10:26:18Z</time><name>PT2355</name></trkpt>
<trkpt lat="52.924539" lon="-3.106403"><ele>276</ele><time>2019-09-27T10:26:19Z</time><name>PT2356</name></trkpt>
<trkpt lat="52.924537" lon="-3.106428"><ele>276</ele><time>2019-09-27T10:26:20Z</time><name>PT2357</name></trkpt>
<trkpt lat="52.924536" lon="-3.106443"><ele>276</ele><time>2019-09-27T10:26:21Z</time><name>PT2358</name></trkpt>
<trkpt lat="52.924536" lon="-3.106462"><ele>275</ele><time>2019-09-27T10:26:22Z</time><name>PT2359</name></trkpt>
<trkpt lat="52.924535" lon="-3.106477"><ele>275</ele><time>2019-09-27T10:26:23Z</time><name>PT2360</name></trkpt>
<trkpt lat="52.924529" lon="-3.106488"><ele>275</ele><time>2019-09-27T10:26:24Z</time><name>PT2361</name></trkpt>
<trkpt lat="52.924523" lon="-3.106497"><ele>275</ele><time>2019-09-27T10:26:25Z</time><name>PT2362</name></trkpt>
<trkpt lat="52.924521" lon="-3.106508"><ele>275</ele><time>2019-09-27T10:26:26Z</time><name>PT2363</name></trkpt>
<trkpt lat="52.924517" lon="-3.106520"><ele>276</ele><time>2019-09-27T10:26:27Z</time><name>PT2364</name></trkpt>
<trkpt lat="52.924511" lon="-3.106534"><ele>276</ele><time>2019-09-27T10:26:28Z</time><name>PT2365</name></trkpt>
<trkpt lat="52.924498" lon="-3.106539"><ele>277</ele><time>2019-09-27T10:26:29Z</time><name>PT2366</name></trkpt>
<trkpt lat="52.924494" lon="-3.106549"><ele>277</ele><time>2019-09-27T10:26:30Z</time><name>PT2367</name></trkpt>
<trkpt lat="52.924489" lon="-3.106561"><ele>276</ele><time>2019-09-27T10:26:31Z</time><name>PT2368</name></trkpt>
<trkpt lat="52.924487" lon="-3.106569"><ele>275</ele><time>2019-09-27T10:26:32Z</time><name>PT2369</name></trkpt>
<trkpt lat="52.924486" lon="-3.106579"><ele>275</ele><time>2019-09-27T10:26:33Z</time><name>PT2370</name></trkpt>
<trkpt lat="52.924483" lon="-3.106586"><ele>276</ele><time>2019-09-27T10:26:34Z</time><name>PT2371</name></trkpt>
<trkpt lat="52.924481" lon="-3.106598"><ele>275</ele><time>2019-09-27T10:26:35Z</time><name>PT2372</name></trkpt>
<trkpt lat="52.924488" lon="-3.106605"><ele>276</ele><time>2019-09-27T10:26:36Z</time><name>PT2373</name></trkpt>
<trkpt lat="52.924487" lon="-3.106612"><ele>277</ele><time>2019-09-27T10:26:37Z</time><name>PT2374</name></trkpt>
<trkpt lat="52.924485" lon="-3.106620"><ele>277</ele><time>2019-09-27T10:26:38Z</time><name>PT2375</name></trkpt>
<trkpt lat="52.924484" lon="-3.106631"><ele>277</ele><time>2019-09-27T10:26:39Z</time><name>PT2376</name></trkpt>
<trkpt lat="52.924481" lon="-3.106641"><ele>277</ele><time>2019-09-27T10:26:40Z</time><name>PT2377</name></trkpt>
<trkpt lat="52.924466" lon="-3.106656"><ele>277</ele><time>2019-09-27T10:26:41Z</time><name>PT2378</name></trkpt>
<trkpt lat="52.924455" lon="-3.106676"><ele>277</ele><time>2019-09-27T10:26:42Z</time><name>PT2379</name></trkpt>
<trkpt lat="52.924452" lon="-3.106686"><ele>277</ele><time>2019-09-27T10:26:43Z</time><name>PT2380</name></trkpt>
<trkpt lat="52.924446" lon="-3.106694"><ele>277</ele><time>2019-09-27T10:26:44Z</time><name>PT2381</name></trkpt>
<trkpt lat="52.924446" lon="-3.106704"><ele>277</ele><time>2019-09-27T10:26:45Z</time><name>PT2382</name></trkpt>
<trkpt lat="52.924439" lon="-3.106713"><ele>278</ele><time>2019-09-27T10:26:46Z</time><name>PT2383</name></trkpt>
<trkpt lat="52.924438" lon="-3.106721"><ele>278</ele><time>2019-09-27T10:26:47Z</time><name>PT2384</name></trkpt>
<trkpt lat="52.924435" lon="-3.106733"><ele>278</ele><time>2019-09-27T10:26:48Z</time><name>PT2385</name></trkpt>
<trkpt lat="52.924436" lon="-3.106741"><ele>279</ele><time>2019-09-27T10:26:49Z</time><name>PT2386</name></trkpt>
<trkpt lat="52.924435" lon="-3.106748"><ele>279</ele><time>2019-09-27T10:26:50Z</time><name>PT2387</name></trkpt>
<trkpt lat="52.924435" lon="-3.106755"><ele>279</ele><time>2019-09-27T10:26:51Z</time><name>PT2388</name></trkpt>
<trkpt lat="52.924434" lon="-3.106769"><ele>279</ele><time>2019-09-27T10:26:52Z</time><name>PT2389</name></trkpt>
<trkpt lat="52.924437" lon="-3.106798"><ele>278</ele><time>2019-09-27T10:26:56Z</time><name>PT2390</name></trkpt>
<trkpt lat="52.924433" lon="-3.106813"><ele>278</ele><time>2019-09-27T10:26:57Z</time><name>PT2391</name></trkpt>
<trkpt lat="52.924428" lon="-3.106825"><ele>278</ele><time>2019-09-27T10:26:58Z</time><name>PT2392</name></trkpt>
<trkpt lat="52.924423" lon="-3.106849"><ele>278</ele><time>2019-09-27T10:26:59Z</time><name>PT2393</name></trkpt>
<trkpt lat="52.924419" lon="-3.106865"><ele>278</ele><time>2019-09-27T10:27:00Z</time><name>PT2394</name></trkpt>
<trkpt lat="52.924415" lon="-3.106877"><ele>278</ele><time>2019-09-27T10:27:01Z</time><name>PT2395</name></trkpt>
<trkpt lat="52.924411" lon="-3.106905"><ele>278</ele><time>2019-09-27T10:27:02Z</time><name>PT2396</name></trkpt>
<trkpt lat="52.924404" lon="-3.106915"><ele>279</ele><time>2019-09-27T10:27:03Z</time><name>PT2397</name></trkpt>
<trkpt lat="52.924398" lon="-3.106928"><ele>279</ele><time>2019-09-27T10:27:04Z</time><name>PT2398</name></trkpt>
<trkpt lat="52.924395" lon="-3.106943"><ele>280</ele><time>2019-09-27T10:27:05Z</time><name>PT2399</name></trkpt>
<trkpt lat="52.924389" lon="-3.106955"><ele>279</ele><time>2019-09-27T10:27:06Z</time><name>PT2400</name></trkpt>
<trkpt lat="52.924386" lon="-3.106968"><ele>279</ele><time>2019-09-27T10:27:07Z</time><name>PT2401</name></trkpt>
<trkpt lat="52.924383" lon="-3.106980"><ele>279</ele><time>2019-09-27T10:27:08Z</time><name>PT2402</name></trkpt>
<trkpt lat="52.924382" lon="-3.106987"><ele>280</ele><time>2019-09-27T10:27:09Z</time><name>PT2403</name></trkpt>
<trkpt lat="52.924380" lon="-3.106993"><ele>280</ele><time>2019-09-27T10:27:10Z</time><name>PT2404</name></trkpt>
<trkpt lat="52.924372" lon="-3.107003"><ele>279</ele><time>2019-09-27T10:27:11Z</time><name>PT2405</name></trkpt>
<trkpt lat="52.924369" lon="-3.107009"><ele>280</ele><time>2019-09-27T10:27:12Z</time><name>PT2406</name></trkpt>
<trkpt lat="52.924369" lon="-3.107016"><ele>280</ele><time>2019-09-27T10:27:13Z</time><name>PT2407</name></trkpt>
<trkpt lat="52.924367" lon="-3.107025"><ele>281</ele><time>2019-09-27T10:27:14Z</time><name>PT2408</name></trkpt>
<trkpt lat="52.924363" lon="-3.107037"><ele>281</ele><time>2019-09-27T10:27:15Z</time><name>PT2409</name></trkpt>
<trkpt lat="52.924364" lon="-3.107050"><ele>282</ele><time>2019-09-27T10:27:16Z</time><name>PT2410</name></trkpt>
<trkpt lat="52.924363" lon="-3.107063"><ele>282</ele><time>2019-09-27T10:27:17Z</time><name>PT2411</name></trkpt>
<trkpt lat="52.924361" lon="-3.107073"><ele>283</ele><time>2019-09-27T10:27:18Z</time><name>PT2412</name></trkpt>
<trkpt lat="52.924359" lon="-3.107081"><ele>283</ele><time>2019-09-27T10:27:19Z</time><name>PT2413</name></trkpt>
<trkpt lat="52.924361" lon="-3.107088"><ele>284</ele><time>2019-09-27T10:27:20Z</time><name>PT2414</name></trkpt>
<trkpt lat="52.924363" lon="-3.107097"><ele>285</ele><time>2019-09-27T10:27:21Z</time><name>PT2415</name></trkpt>
<trkpt lat="52.924358" lon="-3.107106"><ele>285</ele><time>2019-09-27T10:27:22Z</time><name>PT2416</name></trkpt>
<trkpt lat="52.924353" lon="-3.107116"><ele>285</ele><time>2019-09-27T10:27:23Z</time><name>PT2417</name></trkpt>
<trkpt lat="52.924352" lon="-3.107122"><ele>285</ele><time>2019-09-27T10:27:24Z</time><name>PT2418</name></trkpt>
<trkpt lat="52.924347" lon="-3.107135"><ele>286</ele><time>2019-09-27T10:27:25Z</time><name>PT2419</name></trkpt>
<trkpt lat="52.924344" lon="-3.107146"><ele>285</ele><time>2019-09-27T10:27:26Z</time><name>PT2420</name></trkpt>
<trkpt lat="52.924344" lon="-3.107155"><ele>286</ele><time>2019-09-27T10:27:27Z</time><name>PT2421</name></trkpt>
<trkpt lat="52.924340" lon="-3.107164"><ele>285</ele><time>2019-09-27T10:27:28Z</time><name>PT2422</name></trkpt>
<trkpt lat="52.924336" lon="-3.107172"><ele>285</ele><time>2019-09-27T10:27:29Z</time><name>PT2423</name></trkpt>
<trkpt lat="52.924333" lon="-3.107182"><ele>286</ele><time>2019-09-27T10:27:30Z</time><name>PT2424</name></trkpt>
<trkpt lat="52.924335" lon="-3.107192"><ele>286</ele><time>2019-09-27T10:27:31Z</time><name>PT2425</name></trkpt>
<trkpt lat="52.924334" lon="-3.107202"><ele>286</ele><time>2019-09-27T10:27:32Z</time><name>PT2426</name></trkpt>
<trkpt lat="52.924340" lon="-3.107205"><ele>287</ele><time>2019-09-27T10:27:33Z</time><name>PT2427</name></trkpt>
<trkpt lat="52.924340" lon="-3.107212"><ele>287</ele><time>2019-09-27T10:27:34Z</time><name>PT2428</name></trkpt>
<trkpt lat="52.924338" lon="-3.107219"><ele>287</ele><time>2019-09-27T10:27:35Z</time><name>PT2429</name></trkpt>
<trkpt lat="52.924337" lon="-3.107222"><ele>288</ele><time>2019-09-27T10:27:36Z</time><name>PT2430</name></trkpt>
<trkpt lat="52.924334" lon="-3.107229"><ele>287</ele><time>2019-09-27T10:27:37Z</time><name>PT2431</name></trkpt>
<trkpt lat="52.924332" lon="-3.107238"><ele>287</ele><time>2019-09-27T10:27:38Z</time><name>PT2432</name></trkpt>
<trkpt lat="52.924327" lon="-3.107242"><ele>287</ele><time>2019-09-27T10:27:39Z</time><name>PT2433</name></trkpt>
<trkpt lat="52.924325" lon="-3.107246"><ele>287</ele><time>2019-09-27T10:27:40Z</time><name>PT2434</name></trkpt>
<trkpt lat="52.924325" lon="-3.107249"><ele>287</ele><time>2019-09-27T10:27:41Z</time><name>PT2435</name></trkpt>
<trkpt lat="52.924324" lon="-3.107255"><ele>287</ele><time>2019-09-27T10:27:42Z</time><name>PT2436</name></trkpt>
<trkpt lat="52.924325" lon="-3.107261"><ele>287</ele><time>2019-09-27T10:27:43Z</time><name>PT2437</name></trkpt>
<trkpt lat="52.924328" lon="-3.107274"><ele>286</ele><time>2019-09-27T10:27:45Z</time><name>PT2438</name></trkpt>
<trkpt lat="52.924326" lon="-3.107287"><ele>286</ele><time>2019-09-27T10:27:46Z</time><name>PT2439</name></trkpt>
<trkpt lat="52.924325" lon="-3.107300"><ele>286</ele><time>2019-09-27T10:27:47Z</time><name>PT2440</name></trkpt>
<trkpt lat="52.924321" lon="-3.107314"><ele>286</ele><time>2019-09-27T10:27:48Z</time><name>PT2441</name></trkpt>
<trkpt lat="52.924316" lon="-3.107334"><ele>286</ele><time>2019-09-27T10:27:49Z</time><name>PT2442</name></trkpt>
<trkpt lat="52.924312" lon="-3.107347"><ele>285</ele><time>2019-09-27T10:27:50Z</time><name>PT2443</name></trkpt>
<trkpt lat="52.924307" lon="-3.107356"><ele>285</ele><time>2019-09-27T10:27:51Z</time><name>PT2444</name></trkpt>
<trkpt lat="52.924303" lon="-3.107358"><ele>285</ele><time>2019-09-27T10:27:52Z</time><name>PT2445</name></trkpt>
<trkpt lat="52.924298" lon="-3.107372"><ele>285</ele><time>2019-09-27T10:27:53Z</time><name>PT2446</name></trkpt>
<trkpt lat="52.924293" lon="-3.107384"><ele>285</ele><time>2019-09-27T10:27:54Z</time><name>PT2447</name></trkpt>
<trkpt lat="52.924286" lon="-3.107397"><ele>285</ele><time>2019-09-27T10:27:55Z</time><name>PT2448</name></trkpt>
<trkpt lat="52.924281" lon="-3.107409"><ele>286</ele><time>2019-09-27T10:27:56Z</time><name>PT2449</name></trkpt>
<trkpt lat="52.924278" lon="-3.107425"><ele>286</ele><time>2019-09-27T10:27:57Z</time><name>PT2450</name></trkpt>
<trkpt lat="52.924277" lon="-3.107429"><ele>286</ele><time>2019-09-27T10:27:58Z</time><name>PT2451</name></trkpt>
<trkpt lat="52.924277" lon="-3.107443"><ele>286</ele><time>2019-09-27T10:27:59Z</time><name>PT2452</name></trkpt>
<trkpt lat="52.924277" lon="-3.107451"><ele>286</ele><time>2019-09-27T10:28:00Z</time><name>PT2453</name></trkpt>
<trkpt lat="52.924274" lon="-3.107457"><ele>286</ele><time>2019-09-27T10:28:01Z</time><name>PT2454</name></trkpt>
<trkpt lat="52.924268" lon="-3.107469"><ele>286</ele><time>2019-09-27T10:28:02Z</time><name>PT2455</name></trkpt>
<trkpt lat="52.924261" lon="-3.107484"><ele>286</ele><time>2019-09-27T10:28:03Z</time><name>PT2456</name></trkpt>
<trkpt lat="52.924257" lon="-3.107495"><ele>287</ele><time>2019-09-27T10:28:04Z</time><name>PT2457</name></trkpt>
<trkpt lat="52.924253" lon="-3.107505"><ele>287</ele><time>2019-09-27T10:28:05Z</time><name>PT2458</name></trkpt>
<trkpt lat="52.924254" lon="-3.107513"><ele>287</ele><time>2019-09-27T10:28:06Z</time><name>PT2459</name></trkpt>
<trkpt lat="52.924249" lon="-3.107520"><ele>288</ele><time>2019-09-27T10:28:07Z</time><name>PT2460</name></trkpt>
<trkpt lat="52.924243" lon="-3.107538"><ele>287</ele><time>2019-09-27T10:28:08Z</time><name>PT2461</name></trkpt>
<trkpt lat="52.924240" lon="-3.107548"><ele>288</ele><time>2019-09-27T10:28:09Z</time><name>PT2462</name></trkpt>
<trkpt lat="52.924238" lon="-3.107558"><ele>287</ele><time>2019-09-27T10:28:10Z</time><name>PT2463</name></trkpt>
<trkpt lat="52.924237" lon="-3.107565"><ele>287</ele><time>2019-09-27T10:28:11Z</time><name>PT2464</name></trkpt>
<trkpt lat="52.924236" lon="-3.107572"><ele>287</ele><time>2019-09-27T10:28:12Z</time><name>PT2465</name></trkpt>
<trkpt lat="52.924232" lon="-3.107579"><ele>288</ele><time>2019-09-27T10:28:13Z</time><name>PT2466</name></trkpt>
<trkpt lat="52.924229" lon="-3.107588"><ele>288</ele><time>2019-09-27T10:28:14Z</time><name>PT2467</name></trkpt>
<trkpt lat="52.924227" lon="-3.107598"><ele>288</ele><time>2019-09-27T10:28:15Z</time><name>PT2468</name></trkpt>
<trkpt lat="52.924223" lon="-3.107603"><ele>288</ele><time>2019-09-27T10:28:16Z</time><name>PT2469</name></trkpt>
<trkpt lat="52.924221" lon="-3.107612"><ele>288</ele><time>2019-09-27T10:28:17Z</time><name>PT2470</name></trkpt>
<trkpt lat="52.924218" lon="-3.107620"><ele>288</ele><time>2019-09-27T10:28:18Z</time><name>PT2471</name></trkpt>
<trkpt lat="52.924215" lon="-3.107630"><ele>288</ele><time>2019-09-27T10:28:19Z</time><name>PT2472</name></trkpt>
<trkpt lat="52.924216" lon="-3.107635"><ele>289</ele><time>2019-09-27T10:28:20Z</time><name>PT2473</name></trkpt>
<trkpt lat="52.924217" lon="-3.107641"><ele>289</ele><time>2019-09-27T10:28:21Z</time><name>PT2474</name></trkpt>
<trkpt lat="52.924215" lon="-3.107648"><ele>290</ele><time>2019-09-27T10:28:22Z</time><name>PT2475</name></trkpt>
<trkpt lat="52.924211" lon="-3.107660"><ele>289</ele><time>2019-09-27T10:28:23Z</time><name>PT2476</name></trkpt>
<trkpt lat="52.924209" lon="-3.107669"><ele>290</ele><time>2019-09-27T10:28:24Z</time><name>PT2477</name></trkpt>
<trkpt lat="52.924209" lon="-3.107675"><ele>290</ele><time>2019-09-27T10:28:25Z</time><name>PT2478</name></trkpt>
<trkpt lat="52.924207" lon="-3.107686"><ele>291</ele><time>2019-09-27T10:28:26Z</time><name>PT2479</name></trkpt>
<trkpt lat="52.924201" lon="-3.107695"><ele>292</ele><time>2019-09-27T10:28:27Z</time><name>PT2480</name></trkpt>
<trkpt lat="52.924195" lon="-3.107707"><ele>292</ele><time>2019-09-27T10:28:28Z</time><name>PT2481</name></trkpt>
<trkpt lat="52.924193" lon="-3.107714"><ele>292</ele><time>2019-09-27T10:28:29Z</time><name>PT2482</name></trkpt>
<trkpt lat="52.924194" lon="-3.107725"><ele>292</ele><time>2019-09-27T10:28:30Z</time><name>PT2483</name></trkpt>
<trkpt lat="52.924196" lon="-3.107734"><ele>293</ele><time>2019-09-27T10:28:31Z</time><name>PT2484</name></trkpt>
<trkpt lat="52.924194" lon="-3.107749"><ele>293</ele><time>2019-09-27T10:28:32Z</time><name>PT2485</name></trkpt>
<trkpt lat="52.924190" lon="-3.107757"><ele>293</ele><time>2019-09-27T10:28:33Z</time><name>PT2486</name></trkpt>
<trkpt lat="52.924186" lon="-3.107767"><ele>293</ele><time>2019-09-27T10:28:34Z</time><name>PT2487</name></trkpt>
<trkpt lat="52.924181" lon="-3.107777"><ele>293</ele><time>2019-09-27T10:28:35Z</time><name>PT2488</name></trkpt>
<trkpt lat="52.924184" lon="-3.107803"><ele>293</ele><time>2019-09-27T10:28:39Z</time><name>PT2489</name></trkpt>
<trkpt lat="52.924184" lon="-3.107826"><ele>293</ele><time>2019-09-27T10:28:40Z</time><name>PT2490</name></trkpt>
<trkpt lat="52.924182" lon="-3.107841"><ele>293</ele><time>2019-09-27T10:28:41Z</time><name>PT2491</name></trkpt>
<trkpt lat="52.924180" lon="-3.107850"><ele>293</ele><time>2019-09-27T10:28:42Z</time><name>PT2492</name></trkpt>
<trkpt lat="52.924178" lon="-3.107865"><ele>292</ele><time>2019-09-27T10:28:43Z</time><name>PT2493</name></trkpt>
<trkpt lat="52.924178" lon="-3.107877"><ele>293</ele><time>2019-09-27T10:28:44Z</time><name>PT2494</name></trkpt>
<trkpt lat="52.924176" lon="-3.107886"><ele>293</ele><time>2019-09-27T10:28:45Z</time><name>PT2495</name></trkpt>
<trkpt lat="52.924175" lon="-3.107896"><ele>293</ele><time>2019-09-27T10:28:46Z</time><name>PT2496</name></trkpt>
<trkpt lat="52.924175" lon="-3.107904"><ele>294</ele><time>2019-09-27T10:28:47Z</time><name>PT2497</name></trkpt>
<trkpt lat="52.924177" lon="-3.107917"><ele>294</ele><time>2019-09-27T10:28:48Z</time><name>PT2498</name></trkpt>
<trkpt lat="52.924172" lon="-3.107933"><ele>293</ele><time>2019-09-27T10:28:49Z</time><name>PT2499</name></trkpt>
<trkpt lat="52.924167" lon="-3.107944"><ele>294</ele><time>2019-09-27T10:28:50Z</time><name>PT2500</name></trkpt>
<trkpt lat="52.924162" lon="-3.107955"><ele>294</ele><time>2019-09-27T10:28:51Z</time><name>PT2501</name></trkpt>
<trkpt lat="52.924158" lon="-3.107967"><ele>293</ele><time>2019-09-27T10:28:52Z</time><name>PT2502</name></trkpt>
<trkpt lat="52.924154" lon="-3.107977"><ele>293</ele><time>2019-09-27T10:28:53Z</time><name>PT2503</name></trkpt>
<trkpt lat="52.924151" lon="-3.107988"><ele>293</ele><time>2019-09-27T10:28:54Z</time><name>PT2504</name></trkpt>
<trkpt lat="52.924150" lon="-3.107999"><ele>293</ele><time>2019-09-27T10:28:55Z</time><name>PT2505</name></trkpt>
<trkpt lat="52.924148" lon="-3.108008"><ele>293</ele><time>2019-09-27T10:28:56Z</time><name>PT2506</name></trkpt>
<trkpt lat="52.924143" lon="-3.108019"><ele>293</ele><time>2019-09-27T10:28:57Z</time><name>PT2507</name></trkpt>
<trkpt lat="52.924136" lon="-3.108035"><ele>293</ele><time>2019-09-27T10:28:58Z</time><name>PT2508</name></trkpt>
<trkpt lat="52.924126" lon="-3.108047"><ele>293</ele><time>2019-09-27T10:28:59Z</time><name>PT2509</name></trkpt>
<trkpt lat="52.924122" lon="-3.108059"><ele>293</ele><time>2019-09-27T10:29:00Z</time><name>PT2510</name></trkpt>
<trkpt lat="52.924119" lon="-3.108071"><ele>294</ele><time>2019-09-27T10:29:01Z</time><name>PT2511</name></trkpt>
<trkpt lat="52.924115" lon="-3.108084"><ele>294</ele><time>2019-09-27T10:29:02Z</time><name>PT2512</name></trkpt>
<trkpt lat="52.924114" lon="-3.108095"><ele>294</ele><time>2019-09-27T10:29:03Z</time><name>PT2513</name></trkpt>
<trkpt lat="52.924111" lon="-3.108102"><ele>294</ele><time>2019-09-27T10:29:04Z</time><name>PT2514</name></trkpt>
<trkpt lat="52.924112" lon="-3.108115"><ele>294</ele><time>2019-09-27T10:29:05Z</time><name>PT2515</name></trkpt>
<trkpt lat="52.924110" lon="-3.108128"><ele>294</ele><time>2019-09-27T10:29:06Z</time><name>PT2516</name></trkpt>
<trkpt lat="52.924107" lon="-3.108138"><ele>294</ele><time>2019-09-27T10:29:07Z</time><name>PT2517</name></trkpt>
<trkpt lat="52.924105" lon="-3.108147"><ele>295</ele><time>2019-09-27T10:29:08Z</time><name>PT2518</name></trkpt>
<trkpt lat="52.924097" lon="-3.108161"><ele>294</ele><time>2019-09-27T10:29:09Z</time><name>PT2519</name></trkpt>
<trkpt lat="52.924091" lon="-3.108176"><ele>294</ele><time>2019-09-27T10:29:10Z</time><name>PT2520</name></trkpt>
<trkpt lat="52.924087" lon="-3.108184"><ele>294</ele><time>2019-09-27T10:29:11Z</time><name>PT2521</name></trkpt>
<trkpt lat="52.924080" lon="-3.108194"><ele>294</ele><time>2019-09-27T10:29:12Z</time><name>PT2522</name></trkpt>
<trkpt lat="52.924080" lon="-3.108213"><ele>295</ele><time>2019-09-27T10:29:13Z</time><name>PT2523</name></trkpt>
<trkpt lat="52.924080" lon="-3.108222"><ele>295</ele><time>2019-09-27T10:29:14Z</time><name>PT2524</name></trkpt>
<trkpt lat="52.924079" lon="-3.108230"><ele>295</ele><time>2019-09-27T10:29:15Z</time><name>PT2525</name></trkpt>
<trkpt lat="52.924077" lon="-3.108240"><ele>295</ele><time>2019-09-27T10:29:16Z</time><name>PT2526</name></trkpt>
<trkpt lat="52.924073" lon="-3.108248"><ele>295</ele><time>2019-09-27T10:29:17Z</time><name>PT2527</name></trkpt>
<trkpt lat="52.924071" lon="-3.108258"><ele>295</ele><time>2019-09-27T10:29:18Z</time><name>PT2528</name></trkpt>
<trkpt lat="52.924074" lon="-3.108265"><ele>296</ele><time>2019-09-27T10:29:19Z</time><name>PT2529</name></trkpt>
<trkpt lat="52.924075" lon="-3.108273"><ele>296</ele><time>2019-09-27T10:29:20Z</time><name>PT2530</name></trkpt>
<trkpt lat="52.924073" lon="-3.108279"><ele>297</ele><time>2019-09-27T10:29:21Z</time><name>PT2531</name></trkpt>
<trkpt lat="52.924074" lon="-3.108288"><ele>297</ele><time>2019-09-27T10:29:24Z</time><name>PT2532</name></trkpt>
<trkpt lat="52.924073" lon="-3.108304"><ele>296</ele><time>2019-09-27T10:29:25Z</time><name>PT2533</name></trkpt>
<trkpt lat="52.924075" lon="-3.108311"><ele>296</ele><time>2019-09-27T10:29:26Z</time><name>PT2534</name></trkpt>
<trkpt lat="52.924074" lon="-3.108322"><ele>296</ele><time>2019-09-27T10:29:27Z</time><name>PT2535</name></trkpt>
<trkpt lat="52.924070" lon="-3.108334"><ele>296</ele><time>2019-09-27T10:29:28Z</time><name>PT2536</name></trkpt>
<trkpt lat="52.924066" lon="-3.108356"><ele>296</ele><time>2019-09-27T10:29:29Z</time><name>PT2537</name></trkpt>
<trkpt lat="52.924065" lon="-3.108369"><ele>296</ele><time>2019-09-27T10:29:30Z</time><name>PT2538</name></trkpt>
<trkpt lat="52.924062" lon="-3.108382"><ele>296</ele><time>2019-09-27T10:29:31Z</time><name>PT2539</name></trkpt>
<trkpt lat="52.924059" lon="-3.108396"><ele>296</ele><time>2019-09-27T10:29:32Z</time><name>PT2540</name></trkpt>
<trkpt lat="52.924057" lon="-3.108407"><ele>296</ele><time>2019-09-27T10:29:33Z</time><name>PT2541</name></trkpt>
<trkpt lat="52.924057" lon="-3.108416"><ele>296</ele><time>2019-09-27T10:29:34Z</time><name>PT2542</name></trkpt>
<trkpt lat="52.924055" lon="-3.108428"><ele>296</ele><time>2019-09-27T10:29:35Z</time><name>PT2543</name></trkpt>
<trkpt lat="52.924055" lon="-3.108439"><ele>296</ele><time>2019-09-27T10:29:36Z</time><name>PT2544</name></trkpt>
<trkpt lat="52.924052" lon="-3.108445"><ele>296</ele><time>2019-09-27T10:29:37Z</time><name>PT2545</name></trkpt>
<trkpt lat="52.924047" lon="-3.108460"><ele>297</ele><time>2019-09-27T10:29:38Z</time><name>PT2546</name></trkpt>
<trkpt lat="52.924045" lon="-3.108470"><ele>297</ele><time>2019-09-27T10:29:39Z</time><name>PT2547</name></trkpt>
<trkpt lat="52.924043" lon="-3.108483"><ele>296</ele><time>2019-09-27T10:29:40Z</time><name>PT2548</name></trkpt>
<trkpt lat="52.924043" lon="-3.108498"><ele>296</ele><time>2019-09-27T10:29:41Z</time><name>PT2549</name></trkpt>
<trkpt lat="52.924040" lon="-3.108508"><ele>296</ele><time>2019-09-27T10:29:42Z</time><name>PT2550</name></trkpt>
<trkpt lat="52.924035" lon="-3.108521"><ele>296</ele><time>2019-09-27T10:29:43Z</time><name>PT2551</name></trkpt>
<trkpt lat="52.924033" lon="-3.108532"><ele>296</ele><time>2019-09-27T10:29:44Z</time><name>PT2552</name></trkpt>
<trkpt lat="52.924030" lon="-3.108543"><ele>296</ele><time>2019-09-27T10:29:45Z</time><name>PT2553</name></trkpt>
<trkpt lat="52.924028" lon="-3.108552"><ele>296</ele><time>2019-09-27T10:29:46Z</time><name>PT2554</name></trkpt>
<trkpt lat="52.924026" lon="-3.108558"><ele>295</ele><time>2019-09-27T10:29:47Z</time><name>PT2555</name></trkpt>
<trkpt lat="52.924020" lon="-3.108568"><ele>296</ele><time>2019-09-27T10:29:48Z</time><name>PT2556</name></trkpt>
<trkpt lat="52.924017" lon="-3.108572"><ele>295</ele><time>2019-09-27T10:29:49Z</time><name>PT2557</name></trkpt>
<trkpt lat="52.924014" lon="-3.108581"><ele>295</ele><time>2019-09-27T10:29:50Z</time><name>PT2558</name></trkpt>
<trkpt lat="52.924009" lon="-3.108587"><ele>295</ele><time>2019-09-27T10:29:51Z</time><name>PT2559</name></trkpt>
<trkpt lat="52.924008" lon="-3.108594"><ele>295</ele><time>2019-09-27T10:29:52Z</time><name>PT2560</name></trkpt>
<trkpt lat="52.924004" lon="-3.108606"><ele>295</ele><time>2019-09-27T10:29:53Z</time><name>PT2561</name></trkpt>
<trkpt lat="52.923999" lon="-3.108615"><ele>295</ele><time>2019-09-27T10:29:54Z</time><name>PT2562</name></trkpt>
<trkpt lat="52.923996" lon="-3.108626"><ele>295</ele><time>2019-09-27T10:29:55Z</time><name>PT2563</name></trkpt>
<trkpt lat="52.923994" lon="-3.108635"><ele>295</ele><time>2019-09-27T10:29:56Z</time><name>PT2564</name></trkpt>
<trkpt lat="52.923989" lon="-3.108644"><ele>295</ele><time>2019-09-27T10:29:57Z</time><name>PT2565</name></trkpt>
<trkpt lat="52.923990" lon="-3.108676"><ele>296</ele><time>2019-09-27T10:30:03Z</time><name>PT2566</name></trkpt>
<trkpt lat="52.923983" lon="-3.108699"><ele>296</ele><time>2019-09-27T10:30:04Z</time><name>PT2567</name></trkpt>
<trkpt lat="52.923981" lon="-3.108721"><ele>296</ele><time>2019-09-27T10:30:05Z</time><name>PT2568</name></trkpt>
<trkpt lat="52.923978" lon="-3.108742"><ele>295</ele><time>2019-09-27T10:30:06Z</time><name>PT2569</name></trkpt>
<trkpt lat="52.923969" lon="-3.108765"><ele>295</ele><time>2019-09-27T10:30:07Z</time><name>PT2570</name></trkpt>
<trkpt lat="52.923963" lon="-3.108783"><ele>296</ele><time>2019-09-27T10:30:08Z</time><name>PT2571</name></trkpt>
<trkpt lat="52.923959" lon="-3.108795"><ele>296</ele><time>2019-09-27T10:30:09Z</time><name>PT2572</name></trkpt>
<trkpt lat="52.923956" lon="-3.108807"><ele>296</ele><time>2019-09-27T10:30:10Z</time><name>PT2573</name></trkpt>
<trkpt lat="52.923954" lon="-3.108819"><ele>297</ele><time>2019-09-27T10:30:11Z</time><name>PT2574</name></trkpt>
<trkpt lat="52.923949" lon="-3.108831"><ele>296</ele><time>2019-09-27T10:30:12Z</time><name>PT2575</name></trkpt>
<trkpt lat="52.923944" lon="-3.108843"><ele>296</ele><time>2019-09-27T10:30:13Z</time><name>PT2576</name></trkpt>
<trkpt lat="52.923941" lon="-3.108856"><ele>296</ele><time>2019-09-27T10:30:14Z</time><name>PT2577</name></trkpt>
<trkpt lat="52.923935" lon="-3.108859"><ele>296</ele><time>2019-09-27T10:30:15Z</time><name>PT2578</name></trkpt>
<trkpt lat="52.923930" lon="-3.108879"><ele>296</ele><time>2019-09-27T10:30:16Z</time><name>PT2579</name></trkpt>
<trkpt lat="52.923928" lon="-3.108892"><ele>296</ele><time>2019-09-27T10:30:17Z</time><name>PT2580</name></trkpt>
<trkpt lat="52.923926" lon="-3.108904"><ele>296</ele><time>2019-09-27T10:30:18Z</time><name>PT2581</name></trkpt>
<trkpt lat="52.923924" lon="-3.108902"><ele>296</ele><time>2019-09-27T10:30:19Z</time><name>PT2582</name></trkpt>
<trkpt lat="52.923920" lon="-3.108905"><ele>297</ele><time>2019-09-27T10:31:06Z</time><name>PT2583</name></trkpt>
<trkpt lat="52.923916" lon="-3.108922"><ele>298</ele><time>2019-09-27T10:31:07Z</time><name>PT2584</name></trkpt>
<trkpt lat="52.923911" lon="-3.108934"><ele>299</ele><time>2019-09-27T10:31:08Z</time><name>PT2585</name></trkpt>
<trkpt lat="52.923900" lon="-3.108972"><ele>300</ele><time>2019-09-27T10:31:09Z</time><name>PT2586</name></trkpt>
<trkpt lat="52.923896" lon="-3.108994"><ele>301</ele><time>2019-09-27T10:31:10Z</time><name>PT2587</name></trkpt>
<trkpt lat="52.923890" lon="-3.109010"><ele>301</ele><time>2019-09-27T10:31:11Z</time><name>PT2588</name></trkpt>
<trkpt lat="52.923882" lon="-3.109025"><ele>301</ele><time>2019-09-27T10:31:12Z</time><name>PT2589</name></trkpt>
<trkpt lat="52.923876" lon="-3.109037"><ele>301</ele><time>2019-09-27T10:31:13Z</time><name>PT2590</name></trkpt>
<trkpt lat="52.923868" lon="-3.109048"><ele>301</ele><time>2019-09-27T10:31:14Z</time><name>PT2591</name></trkpt>
<trkpt lat="52.923862" lon="-3.109060"><ele>301</ele><time>2019-09-27T10:31:15Z</time><name>PT2592</name></trkpt>
<trkpt lat="52.923859" lon="-3.109070"><ele>301</ele><time>2019-09-27T10:31:16Z</time><name>PT2593</name></trkpt>
<trkpt lat="52.923857" lon="-3.109089"><ele>301</ele><time>2019-09-27T10:31:19Z</time><name>PT2594</name></trkpt>
<trkpt lat="52.923856" lon="-3.109120"><ele>300</ele><time>2019-09-27T10:31:20Z</time><name>PT2595</name></trkpt>
<trkpt lat="52.923845" lon="-3.109134"><ele>301</ele><time>2019-09-27T10:31:21Z</time><name>PT2596</name></trkpt>
<trkpt lat="52.923835" lon="-3.109144"><ele>301</ele><time>2019-09-27T10:31:22Z</time><name>PT2597</name></trkpt>
<trkpt lat="52.923827" lon="-3.109154"><ele>301</ele><time>2019-09-27T10:31:23Z</time><name>PT2598</name></trkpt>
<trkpt lat="52.923820" lon="-3.109158"><ele>302</ele><time>2019-09-27T10:31:24Z</time><name>PT2599</name></trkpt>
<trkpt lat="52.923815" lon="-3.109167"><ele>302</ele><time>2019-09-27T10:31:25Z</time><name>PT2600</name></trkpt>
<trkpt lat="52.923808" lon="-3.109172"><ele>302</ele><time>2019-09-27T10:31:26Z</time><name>PT2601</name></trkpt>
<trkpt lat="52.923802" lon="-3.109181"><ele>302</ele><time>2019-09-27T10:31:27Z</time><name>PT2602</name></trkpt>
<trkpt lat="52.923796" lon="-3.109186"><ele>303</ele><time>2019-09-27T10:31:28Z</time><name>PT2603</name></trkpt>
<trkpt lat="52.923789" lon="-3.109192"><ele>302</ele><time>2019-09-27T10:31:29Z</time><name>PT2604</name></trkpt>
<trkpt lat="52.923784" lon="-3.109199"><ele>303</ele><time>2019-09-27T10:31:30Z</time><name>PT2605</name></trkpt>
<trkpt lat="52.923776" lon="-3.109203"><ele>303</ele><time>2019-09-27T10:31:31Z</time><name>PT2606</name></trkpt>
<trkpt lat="52.923769" lon="-3.109209"><ele>303</ele><time>2019-09-27T10:31:32Z</time><name>PT2607</name></trkpt>
<trkpt lat="52.923764" lon="-3.109216"><ele>303</ele><time>2019-09-27T10:31:33Z</time><name>PT2608</name></trkpt>
<trkpt lat="52.923762" lon="-3.109219"><ele>303</ele><time>2019-09-27T10:31:34Z</time><name>PT2609</name></trkpt>
<trkpt lat="52.923759" lon="-3.109227"><ele>302</ele><time>2019-09-27T10:31:35Z</time><name>PT2610</name></trkpt>
<trkpt lat="52.923756" lon="-3.109234"><ele>302</ele><time>2019-09-27T10:31:36Z</time><name>PT2611</name></trkpt>
<trkpt lat="52.923754" lon="-3.109242"><ele>302</ele><time>2019-09-27T10:31:37Z</time><name>PT2612</name></trkpt>
<trkpt lat="52.923753" lon="-3.109247"><ele>302</ele><time>2019-09-27T10:31:38Z</time><name>PT2613</name></trkpt>
<trkpt lat="52.923744" lon="-3.109254"><ele>302</ele><time>2019-09-27T10:31:39Z</time><name>PT2614</name></trkpt>
<trkpt lat="52.923737" lon="-3.109261"><ele>302</ele><time>2019-09-27T10:31:40Z</time><name>PT2615</name></trkpt>
<trkpt lat="52.923728" lon="-3.109272"><ele>302</ele><time>2019-09-27T10:31:41Z</time><name>PT2616</name></trkpt>
<trkpt lat="52.923725" lon="-3.109275"><ele>301</ele><time>2019-09-27T10:31:42Z</time><name>PT2617</name></trkpt>
<trkpt lat="52.923720" lon="-3.109282"><ele>301</ele><time>2019-09-27T10:31:43Z</time><name>PT2618</name></trkpt>
<trkpt lat="52.923714" lon="-3.109290"><ele>302</ele><time>2019-09-27T10:31:44Z</time><name>PT2619</name></trkpt>
<trkpt lat="52.923709" lon="-3.109297"><ele>302</ele><time>2019-09-27T10:31:45Z</time><name>PT2620</name></trkpt>
<trkpt lat="52.923706" lon="-3.109306"><ele>302</ele><time>2019-09-27T10:31:46Z</time><name>PT2621</name></trkpt>
<trkpt lat="52.923701" lon="-3.109315"><ele>302</ele><time>2019-09-27T10:31:47Z</time><name>PT2622</name></trkpt>
<trkpt lat="52.923693" lon="-3.109323"><ele>303</ele><time>2019-09-27T10:31:48Z</time><name>PT2623</name></trkpt>
<trkpt lat="52.923686" lon="-3.109328"><ele>304</ele><time>2019-09-27T10:31:49Z</time><name>PT2624</name></trkpt>
<trkpt lat="52.923683" lon="-3.109333"><ele>304</ele><time>2019-09-27T10:31:50Z</time><name>PT2625</name></trkpt>
<trkpt lat="52.923678" lon="-3.109340"><ele>304</ele><time>2019-09-27T10:31:51Z</time><name>PT2626</name></trkpt>
<trkpt lat="52.923674" lon="-3.109349"><ele>304</ele><time>2019-09-27T10:31:52Z</time><name>PT2627</name></trkpt>
<trkpt lat="52.923671" lon="-3.109359"><ele>304</ele><time>2019-09-27T10:31:53Z</time><name>PT2628</name></trkpt>
<trkpt lat="52.923671" lon="-3.109365"><ele>306</ele><time>2019-09-27T10:31:54Z</time><name>PT2629</name></trkpt>
<trkpt lat="52.923667" lon="-3.109372"><ele>306</ele><time>2019-09-27T10:31:55Z</time><name>PT2630</name></trkpt>
<trkpt lat="52.923661" lon="-3.109376"><ele>306</ele><time>2019-09-27T10:31:56Z</time><name>PT2631</name></trkpt>
<trkpt lat="52.923653" lon="-3.109381"><ele>307</ele><time>2019-09-27T10:31:57Z</time><name>PT2632</name></trkpt>
<trkpt lat="52.923646" lon="-3.109389"><ele>307</ele><time>2019-09-27T10:31:58Z</time><name>PT2633</name></trkpt>
<trkpt lat="52.923639" lon="-3.109392"><ele>307</ele><time>2019-09-27T10:31:59Z</time><name>PT2634</name></trkpt>
<trkpt lat="52.923634" lon="-3.109403"><ele>307</ele><time>2019-09-27T10:32:00Z</time><name>PT2635</name></trkpt>
<trkpt lat="52.923629" lon="-3.109413"><ele>306</ele><time>2019-09-27T10:32:01Z</time><name>PT2636</name></trkpt>
<trkpt lat="52.923626" lon="-3.109416"><ele>306</ele><time>2019-09-27T10:32:02Z</time><name>PT2637</name></trkpt>
<trkpt lat="52.923621" lon="-3.109422"><ele>307</ele><time>2019-09-27T10:32:03Z</time><name>PT2638</name></trkpt>
<trkpt lat="52.923618" lon="-3.109429"><ele>306</ele><time>2019-09-27T10:32:04Z</time><name>PT2639</name></trkpt>
<trkpt lat="52.923616" lon="-3.109434"><ele>306</ele><time>2019-09-27T10:32:05Z</time><name>PT2640</name></trkpt>
<trkpt lat="52.923611" lon="-3.109438"><ele>306</ele><time>2019-09-27T10:32:06Z</time><name>PT2641</name></trkpt>
<trkpt lat="52.923606" lon="-3.109445"><ele>305</ele><time>2019-09-27T10:32:07Z</time><name>PT2642</name></trkpt>
<trkpt lat="52.923599" lon="-3.109463"><ele>304</ele><time>2019-09-27T10:32:08Z</time><name>PT2643</name></trkpt>
<trkpt lat="52.923593" lon="-3.109478"><ele>303</ele><time>2019-09-27T10:32:09Z</time><name>PT2644</name></trkpt>
<trkpt lat="52.923591" lon="-3.109485"><ele>303</ele><time>2019-09-27T10:32:10Z</time><name>PT2645</name></trkpt>
<trkpt lat="52.923584" lon="-3.109491"><ele>303</ele><time>2019-09-27T10:32:11Z</time><name>PT2646</name></trkpt>
<trkpt lat="52.923580" lon="-3.109495"><ele>304</ele><time>2019-09-27T10:32:12Z</time><name>PT2647</name></trkpt>
<trkpt lat="52.923571" lon="-3.109504"><ele>304</ele><time>2019-09-27T10:32:13Z</time><name>PT2648</name></trkpt>
<trkpt lat="52.923566" lon="-3.109514"><ele>304</ele><time>2019-09-27T10:32:14Z</time><name>PT2649</name></trkpt>
<trkpt lat="52.923567" lon="-3.109519"><ele>306</ele><time>2019-09-27T10:32:15Z</time><name>PT2650</name></trkpt>
<trkpt lat="52.923562" lon="-3.109529"><ele>306</ele><time>2019-09-27T10:32:16Z</time><name>PT2651</name></trkpt>
<trkpt lat="52.923559" lon="-3.109537"><ele>307</ele><time>2019-09-27T10:32:17Z</time><name>PT2652</name></trkpt>
<trkpt lat="52.923555" lon="-3.109545"><ele>307</ele><time>2019-09-27T10:32:18Z</time><name>PT2653</name></trkpt>
<trkpt lat="52.923549" lon="-3.109553"><ele>307</ele><time>2019-09-27T10:32:19Z</time><name>PT2654</name></trkpt>
<trkpt lat="52.923542" lon="-3.109560"><ele>308</ele><time>2019-09-27T10:32:20Z</time><name>PT2655</name></trkpt>
<trkpt lat="52.923535" lon="-3.109573"><ele>308</ele><time>2019-09-27T10:32:21Z</time><name>PT2656</name></trkpt>
<trkpt lat="52.923533" lon="-3.109594"><ele>311</ele><time>2019-09-27T10:32:22Z</time><name>PT2657</name></trkpt>
<trkpt lat="52.923529" lon="-3.109605"><ele>311</ele><time>2019-09-27T10:32:23Z</time><name>PT2658</name></trkpt>
<trkpt lat="52.923525" lon="-3.109613"><ele>312</ele><time>2019-09-27T10:32:24Z</time><name>PT2659</name></trkpt>
<trkpt lat="52.923514" lon="-3.109623"><ele>311</ele><time>2019-09-27T10:32:25Z</time><name>PT2660</name></trkpt>
<trkpt lat="52.923510" lon="-3.109632"><ele>311</ele><time>2019-09-27T10:32:26Z</time><name>PT2661</name></trkpt>
<trkpt lat="52.923508" lon="-3.109646"><ele>311</ele><time>2019-09-27T10:32:27Z</time><name>PT2662</name></trkpt>
<trkpt lat="52.923502" lon="-3.109655"><ele>311</ele><time>2019-09-27T10:32:28Z</time><name>PT2663</name></trkpt>
<trkpt lat="52.923498" lon="-3.109657"><ele>311</ele><time>2019-09-27T10:32:29Z</time><name>PT2664</name></trkpt>
<trkpt lat="52.923494" lon="-3.109662"><ele>311</ele><time>2019-09-27T10:32:30Z</time><name>PT2665</name></trkpt>
<trkpt lat="52.923488" lon="-3.109663"><ele>311</ele><time>2019-09-27T10:32:31Z</time><name>PT2666</name></trkpt>
<trkpt lat="52.923477" lon="-3.109670"><ele>310</ele><time>2019-09-27T10:32:32Z</time><name>PT2667</name></trkpt>
<trkpt lat="52.923469" lon="-3.109677"><ele>311</ele><time>2019-09-27T10:32:33Z</time><name>PT2668</name></trkpt>
<trkpt lat="52.923464" lon="-3.109683"><ele>311</ele><time>2019-09-27T10:32:34Z</time><name>PT2669</name></trkpt>
<trkpt lat="52.923457" lon="-3.109687"><ele>312</ele><time>2019-09-27T10:32:35Z</time><name>PT2670</name></trkpt>
<trkpt lat="52.923447" lon="-3.109693"><ele>312</ele><time>2019-09-27T10:32:36Z</time><name>PT2671</name></trkpt>
<trkpt lat="52.923439" lon="-3.109709"><ele>311</ele><time>2019-09-27T10:32:37Z</time><name>PT2672</name></trkpt>
<trkpt lat="52.923431" lon="-3.109725"><ele>311</ele><time>2019-09-27T10:32:38Z</time><name>PT2673</name></trkpt>
<trkpt lat="52.923423" lon="-3.109737"><ele>311</ele><time>2019-09-27T10:32:39Z</time><name>PT2674</name></trkpt>
<trkpt lat="52.923415" lon="-3.109745"><ele>310</ele><time>2019-09-27T10:32:40Z</time><name>PT2675</name></trkpt>
<trkpt lat="52.923413" lon="-3.109757"><ele>310</ele><time>2019-09-27T10:32:41Z</time><name>PT2676</name></trkpt>
<trkpt lat="52.923406" lon="-3.109765"><ele>309</ele><time>2019-09-27T10:32:42Z</time><name>PT2677</name></trkpt>
<trkpt lat="52.923401" lon="-3.109773"><ele>309</ele><time>2019-09-27T10:32:43Z</time><name>PT2678</name></trkpt>
<trkpt lat="52.923398" lon="-3.109780"><ele>309</ele><time>2019-09-27T10:32:44Z</time><name>PT2679</name></trkpt>
<trkpt lat="52.923393" lon="-3.109789"><ele>309</ele><time>2019-09-27T10:32:45Z</time><name>PT2680</name></trkpt>
<trkpt lat="52.923389" lon="-3.109801"><ele>309</ele><time>2019-09-27T10:32:46Z</time><name>PT2681</name></trkpt>
<trkpt lat="52.923382" lon="-3.109811"><ele>309</ele><time>2019-09-27T10:32:47Z</time><name>PT2682</name></trkpt>
<trkpt lat="52.923376" lon="-3.109822"><ele>308</ele><time>2019-09-27T10:32:48Z</time><name>PT2683</name></trkpt>
<trkpt lat="52.923367" lon="-3.109832"><ele>309</ele><time>2019-09-27T10:32:49Z</time><name>PT2684</name></trkpt>
<trkpt lat="52.923358" lon="-3.109843"><ele>309</ele><time>2019-09-27T10:32:50Z</time><name>PT2685</name></trkpt>
<trkpt lat="52.923342" lon="-3.109859"><ele>310</ele><time>2019-09-27T10:32:51Z</time><name>PT2686</name></trkpt>
<trkpt lat="52.923336" lon="-3.109873"><ele>310</ele><time>2019-09-27T10:32:52Z</time><name>PT2687</name></trkpt>
<trkpt lat="52.923331" lon="-3.109883"><ele>310</ele><time>2019-09-27T10:32:53Z</time><name>PT2688</name></trkpt>
<trkpt lat="52.923325" lon="-3.109891"><ele>311</ele><time>2019-09-27T10:32:54Z</time><name>PT2689</name></trkpt>
<trkpt lat="52.923318" lon="-3.109895"><ele>311</ele><time>2019-09-27T10:32:55Z</time><name>PT2690</name></trkpt>
<trkpt lat="52.923313" lon="-3.109901"><ele>311</ele><time>2019-09-27T10:32:56Z</time><name>PT2691</name></trkpt>
<trkpt lat="52.923310" lon="-3.109907"><ele>311</ele><time>2019-09-27T10:32:57Z</time><name>PT2692</name></trkpt>
<trkpt lat="52.923302" lon="-3.109916"><ele>312</ele><time>2019-09-27T10:32:58Z</time><name>PT2693</name></trkpt>
<trkpt lat="52.923297" lon="-3.109923"><ele>312</ele><time>2019-09-27T10:32:59Z</time><name>PT2694</name></trkpt>
<trkpt lat="52.923294" lon="-3.109933"><ele>313</ele><time>2019-09-27T10:33:00Z</time><name>PT2695</name></trkpt>
<trkpt lat="52.923287" lon="-3.109940"><ele>313</ele><time>2019-09-27T10:33:01Z</time><name>PT2696</name></trkpt>
<trkpt lat="52.923282" lon="-3.109947"><ele>312</ele><time>2019-09-27T10:33:02Z</time><name>PT2697</name></trkpt>
<trkpt lat="52.923277" lon="-3.109956"><ele>312</ele><time>2019-09-27T10:33:03Z</time><name>PT2698</name></trkpt>
<trkpt lat="52.923272" lon="-3.109962"><ele>312</ele><time>2019-09-27T10:33:04Z</time><name>PT2699</name></trkpt>
<trkpt lat="52.923270" lon="-3.109958"><ele>312</ele><time>2019-09-27T10:33:05Z</time><name>PT2700</name></trkpt>
<trkpt lat="52.923267" lon="-3.109964"><ele>312</ele><time>2019-09-27T10:33:06Z</time><name>PT2701</name></trkpt>
<trkpt lat="52.923260" lon="-3.109984"><ele>312</ele><time>2019-09-27T10:33:07Z</time><name>PT2702</name></trkpt>
<trkpt lat="52.923252" lon="-3.109996"><ele>312</ele><time>2019-09-27T10:33:08Z</time><name>PT2703</name></trkpt>
<trkpt lat="52.923244" lon="-3.110009"><ele>312</ele><time>2019-09-27T10:33:09Z</time><name>PT2704</name></trkpt>
<trkpt lat="52.923238" lon="-3.110017"><ele>311</ele><time>2019-09-27T10:33:10Z</time><name>PT2705</name></trkpt>
<trkpt lat="52.923231" lon="-3.110029"><ele>312</ele><time>2019-09-27T10:33:11Z</time><name>PT2706</name></trkpt>
<trkpt lat="52.923225" lon="-3.110037"><ele>312</ele><time>2019-09-27T10:33:12Z</time><name>PT2707</name></trkpt>
<trkpt lat="52.923224" lon="-3.110042"><ele>313</ele><time>2019-09-27T10:33:13Z</time><name>PT2708</name></trkpt>
<trkpt lat="52.923222" lon="-3.110052"><ele>312</ele><time>2019-09-27T10:33:14Z</time><name>PT2709</name></trkpt>
<trkpt lat="52.923215" lon="-3.110064"><ele>313</ele><time>2019-09-27T10:33:15Z</time><name>PT2710</name></trkpt>
<trkpt lat="52.923203" lon="-3.110073"><ele>313</ele><time>2019-09-27T10:33:16Z</time><name>PT2711</name></trkpt>
<trkpt lat="52.923196" lon="-3.110081"><ele>314</ele><time>2019-09-27T10:33:17Z</time><name>PT2712</name></trkpt>
<trkpt lat="52.923191" lon="-3.110092"><ele>314</ele><time>2019-09-27T10:33:18Z</time><name>PT2713</name></trkpt>
<trkpt lat="52.923182" lon="-3.110108"><ele>314</ele><time>2019-09-27T10:33:19Z</time><name>PT2714</name></trkpt>
<trkpt lat="52.923174" lon="-3.110120"><ele>313</ele><time>2019-09-27T10:33:20Z</time><name>PT2715</name></trkpt>
<trkpt lat="52.923168" lon="-3.110127"><ele>313</ele><time>2019-09-27T10:33:21Z</time><name>PT2716</name></trkpt>
<trkpt lat="52.923161" lon="-3.110128"><ele>312</ele><time>2019-09-27T10:33:24Z</time><name>PT2717</name></trkpt>
<trkpt lat="52.923157" lon="-3.110143"><ele>312</ele><time>2019-09-27T10:33:25Z</time><name>PT2718</name></trkpt>
<trkpt lat="52.923154" lon="-3.110161"><ele>312</ele><time>2019-09-27T10:33:26Z</time><name>PT2719</name></trkpt>
<trkpt lat="52.923149" lon="-3.110168"><ele>312</ele><time>2019-09-27T10:33:27Z</time><name>PT2720</name></trkpt>
<trkpt lat="52.923146" lon="-3.110172"><ele>312</ele><time>2019-09-27T10:33:28Z</time><name>PT2721</name></trkpt>
<trkpt lat="52.923142" lon="-3.110176"><ele>312</ele><time>2019-09-27T10:33:35Z</time><name>PT2722</name></trkpt>
<trkpt lat="52.923139" lon="-3.110178"><ele>312</ele><time>2019-09-27T10:33:36Z</time><name>PT2723</name></trkpt>
<trkpt lat="52.923136" lon="-3.110184"><ele>312</ele><time>2019-09-27T10:33:37Z</time><name>PT2724</name></trkpt>
<trkpt lat="52.923132" lon="-3.110186"><ele>312</ele><time>2019-09-27T10:33:38Z</time><name>PT2725</name></trkpt>
<trkpt lat="52.923131" lon="-3.110186"><ele>312</ele><time>2019-09-27T10:33:39Z</time><name>PT2726</name></trkpt>
<trkpt lat="52.923128" lon="-3.110187"><ele>312</ele><time>2019-09-27T10:33:40Z</time><name>PT2727</name></trkpt>
<trkpt lat="52.923128" lon="-3.110192"><ele>312</ele><time>2019-09-27T10:33:41Z</time><name>PT2728</name></trkpt>
<trkpt lat="52.923128" lon="-3.110195"><ele>311</ele><time>2019-09-27T10:33:42Z</time><name>PT2729</name></trkpt>
<trkpt lat="52.923125" lon="-3.110197"><ele>311</ele><time>2019-09-27T10:33:43Z</time><name>PT2730</name></trkpt>
<trkpt lat="52.923123" lon="-3.110198"><ele>311</ele><time>2019-09-27T10:33:44Z</time><name>PT2731</name></trkpt>
<trkpt lat="52.923121" lon="-3.110198"><ele>311</ele><time>2019-09-27T10:33:45Z</time><name>PT2732</name></trkpt>
<trkpt lat="52.923118" lon="-3.110196"><ele>311</ele><time>2019-09-27T10:33:46Z</time><name>PT2733</name></trkpt>
<trkpt lat="52.923112" lon="-3.110198"><ele>311</ele><time>2019-09-27T10:33:47Z</time><name>PT2734</name></trkpt>
<trkpt lat="52.923105" lon="-3.110215"><ele>311</ele><time>2019-09-27T10:33:48Z</time><name>PT2735</name></trkpt>
<trkpt lat="52.923098" lon="-3.110226"><ele>311</ele><time>2019-09-27T10:33:49Z</time><name>PT2736</name></trkpt>
<trkpt lat="52.923085" lon="-3.110242"><ele>311</ele><time>2019-09-27T10:33:50Z</time><name>PT2737</name></trkpt>
<trkpt lat="52.923078" lon="-3.110254"><ele>310</ele><time>2019-09-27T10:33:51Z</time><name>PT2738</name></trkpt>
<trkpt lat="52.923075" lon="-3.110264"><ele>311</ele><time>2019-09-27T10:33:52Z</time><name>PT2739</name></trkpt>
<trkpt lat="52.923067" lon="-3.110277"><ele>310</ele><time>2019-09-27T10:33:53Z</time><name>PT2740</name></trkpt>
<trkpt lat="52.923059" lon="-3.110284"><ele>311</ele><time>2019-09-27T10:33:54Z</time><name>PT2741</name></trkpt>
<trkpt lat="52.923054" lon="-3.110297"><ele>310</ele><time>2019-09-27T10:33:55Z</time><name>PT2742</name></trkpt>
<trkpt lat="52.923047" lon="-3.110305"><ele>311</ele><time>2019-09-27T10:33:56Z</time><name>PT2743</name></trkpt>
<trkpt lat="52.923043" lon="-3.110312"><ele>311</ele><time>2019-09-27T10:33:57Z</time><name>PT2744</name></trkpt>
<trkpt lat="52.923040" lon="-3.110316"><ele>311</ele><time>2019-09-27T10:33:58Z</time><name>PT2745</name></trkpt>
<trkpt lat="52.923032" lon="-3.110322"><ele>311</ele><time>2019-09-27T10:33:59Z</time><name>PT2746</name></trkpt>
<trkpt lat="52.923021" lon="-3.110330"><ele>311</ele><time>2019-09-27T10:34:00Z</time><name>PT2747</name></trkpt>
<trkpt lat="52.923017" lon="-3.110339"><ele>311</ele><time>2019-09-27T10:34:01Z</time><name>PT2748</name></trkpt>
<trkpt lat="52.923014" lon="-3.110345"><ele>311</ele><time>2019-09-27T10:34:02Z</time><name>PT2749</name></trkpt>
<trkpt lat="52.923012" lon="-3.110349"><ele>310</ele><time>2019-09-27T10:34:03Z</time><name>PT2750</name></trkpt>
<trkpt lat="52.923007" lon="-3.110357"><ele>310</ele><time>2019-09-27T10:34:04Z</time><name>PT2751</name></trkpt>
<trkpt lat="52.923000" lon="-3.110374"><ele>310</ele><time>2019-09-27T10:34:05Z</time><name>PT2752</name></trkpt>
<trkpt lat="52.922991" lon="-3.110387"><ele>312</ele><time>2019-09-27T10:34:06Z</time><name>PT2753</name></trkpt>
<trkpt lat="52.922987" lon="-3.110399"><ele>311</ele><time>2019-09-27T10:34:07Z</time><name>PT2754</name></trkpt>
<trkpt lat="52.922985" lon="-3.110407"><ele>311</ele><time>2019-09-27T10:34:08Z</time><name>PT2755</name></trkpt>
<trkpt lat="52.922979" lon="-3.110413"><ele>311</ele><time>2019-09-27T10:34:09Z</time><name>PT2756</name></trkpt>
<trkpt lat="52.922978" lon="-3.110419"><ele>311</ele><time>2019-09-27T10:34:10Z</time><name>PT2757</name></trkpt>
<trkpt lat="52.922973" lon="-3.110430"><ele>311</ele><time>2019-09-27T10:34:11Z</time><name>PT2758</name></trkpt>
<trkpt lat="52.922963" lon="-3.110439"><ele>311</ele><time>2019-09-27T10:34:12Z</time><name>PT2759</name></trkpt>
<trkpt lat="52.922958" lon="-3.110449"><ele>311</ele><time>2019-09-27T10:34:13Z</time><name>PT2760</name></trkpt>
<trkpt lat="52.922949" lon="-3.110466"><ele>312</ele><time>2019-09-27T10:34:14Z</time><name>PT2761</name></trkpt>
<trkpt lat="52.922936" lon="-3.110480"><ele>313</ele><time>2019-09-27T10:34:15Z</time><name>PT2762</name></trkpt>
<trkpt lat="52.922930" lon="-3.110490"><ele>314</ele><time>2019-09-27T10:34:16Z</time><name>PT2763</name></trkpt>
<trkpt lat="52.922925" lon="-3.110500"><ele>314</ele><time>2019-09-27T10:34:17Z</time><name>PT2764</name></trkpt>
<trkpt lat="52.922920" lon="-3.110511"><ele>314</ele><time>2019-09-27T10:34:18Z</time><name>PT2765</name></trkpt>
<trkpt lat="52.922912" lon="-3.110526"><ele>314</ele><time>2019-09-27T10:34:19Z</time><name>PT2766</name></trkpt>
<trkpt lat="52.922905" lon="-3.110538"><ele>314</ele><time>2019-09-27T10:34:20Z</time><name>PT2767</name></trkpt>
<trkpt lat="52.922901" lon="-3.110550"><ele>314</ele><time>2019-09-27T10:34:21Z</time><name>PT2768</name></trkpt>
<trkpt lat="52.922893" lon="-3.110562"><ele>314</ele><time>2019-09-27T10:34:22Z</time><name>PT2769</name></trkpt>
<trkpt lat="52.922885" lon="-3.110571"><ele>314</ele><time>2019-09-27T10:34:23Z</time><name>PT2770</name></trkpt>
<trkpt lat="52.922880" lon="-3.110583"><ele>314</ele><time>2019-09-27T10:34:24Z</time><name>PT2771</name></trkpt>
<trkpt lat="52.922878" lon="-3.110593"><ele>314</ele><time>2019-09-27T10:34:25Z</time><name>PT2772</name></trkpt>
<trkpt lat="52.922871" lon="-3.110607"><ele>315</ele><time>2019-09-27T10:34:26Z</time><name>PT2773</name></trkpt>
<trkpt lat="52.922863" lon="-3.110619"><ele>314</ele><time>2019-09-27T10:34:27Z</time><name>PT2774</name></trkpt>
<trkpt lat="52.922857" lon="-3.110632"><ele>314</ele><time>2019-09-27T10:34:28Z</time><name>PT2775</name></trkpt>
<trkpt lat="52.922853" lon="-3.110645"><ele>314</ele><time>2019-09-27T10:34:29Z</time><name>PT2776</name></trkpt>
<trkpt lat="52.922849" lon="-3.110658"><ele>314</ele><time>2019-09-27T10:34:30Z</time><name>PT2777</name></trkpt>
<trkpt lat="52.922841" lon="-3.110671"><ele>314</ele><time>2019-09-27T10:34:31Z</time><name>PT2778</name></trkpt>
<trkpt lat="52.922833" lon="-3.110680"><ele>315</ele><time>2019-09-27T10:34:32Z</time><name>PT2779</name></trkpt>
<trkpt lat="52.922826" lon="-3.110696"><ele>315</ele><time>2019-09-27T10:34:33Z</time><name>PT2780</name></trkpt>
<trkpt lat="52.922819" lon="-3.110706"><ele>316</ele><time>2019-09-27T10:34:34Z</time><name>PT2781</name></trkpt>
<trkpt lat="52.922811" lon="-3.110717"><ele>316</ele><time>2019-09-27T10:34:35Z</time><name>PT2782</name></trkpt>
<trkpt lat="52.922801" lon="-3.110729"><ele>317</ele><time>2019-09-27T10:34:36Z</time><name>PT2783</name></trkpt>
<trkpt lat="52.922798" lon="-3.110740"><ele>317</ele><time>2019-09-27T10:34:37Z</time><name>PT2784</name></trkpt>
<trkpt lat="52.922796" lon="-3.110748"><ele>317</ele><time>2019-09-27T10:34:38Z</time><name>PT2785</name></trkpt>
<trkpt lat="52.922789" lon="-3.110755"><ele>317</ele><time>2019-09-27T10:34:39Z</time><name>PT2786</name></trkpt>
<trkpt lat="52.922784" lon="-3.110766"><ele>317</ele><time>2019-09-27T10:34:40Z</time><name>PT2787</name></trkpt>
<trkpt lat="52.922776" lon="-3.110779"><ele>317</ele><time>2019-09-27T10:34:41Z</time><name>PT2788</name></trkpt>
<trkpt lat="52.922769" lon="-3.110789"><ele>317</ele><time>2019-09-27T10:34:42Z</time><name>PT2789</name></trkpt>
<trkpt lat="52.922763" lon="-3.110800"><ele>317</ele><time>2019-09-27T10:34:43Z</time><name>PT2790</name></trkpt>
<trkpt lat="52.922759" lon="-3.110812"><ele>317</ele><time>2019-09-27T10:34:44Z</time><name>PT2791</name></trkpt>
<trkpt lat="52.922755" lon="-3.110822"><ele>317</ele><time>2019-09-27T10:34:45Z</time><name>PT2792</name></trkpt>
<trkpt lat="52.922751" lon="-3.110831"><ele>317</ele><time>2019-09-27T10:34:46Z</time><name>PT2793</name></trkpt>
<trkpt lat="52.922746" lon="-3.110841"><ele>317</ele><time>2019-09-27T10:34:47Z</time><name>PT2794</name></trkpt>
<trkpt lat="52.922741" lon="-3.110848"><ele>318</ele><time>2019-09-27T10:34:48Z</time><name>PT2795</name></trkpt>
<trkpt lat="52.922734" lon="-3.110859"><ele>317</ele><time>2019-09-27T10:34:49Z</time><name>PT2796</name></trkpt>
<trkpt lat="52.922729" lon="-3.110868"><ele>317</ele><time>2019-09-27T10:34:50Z</time><name>PT2797</name></trkpt>
<trkpt lat="52.922722" lon="-3.110877"><ele>317</ele><time>2019-09-27T10:34:51Z</time><name>PT2798</name></trkpt>
<trkpt lat="52.922718" lon="-3.110888"><ele>318</ele><time>2019-09-27T10:34:52Z</time><name>PT2799</name></trkpt>
<trkpt lat="52.922712" lon="-3.110901"><ele>318</ele><time>2019-09-27T10:34:53Z</time><name>PT2800</name></trkpt>
<trkpt lat="52.922704" lon="-3.110913"><ele>318</ele><time>2019-09-27T10:34:54Z</time><name>PT2801</name></trkpt>
<trkpt lat="52.922697" lon="-3.110923"><ele>318</ele><time>2019-09-27T10:34:55Z</time><name>PT2802</name></trkpt>
<trkpt lat="52.922694" lon="-3.110928"><ele>318</ele><time>2019-09-27T10:34:56Z</time><name>PT2803</name></trkpt>
<trkpt lat="52.922690" lon="-3.110937"><ele>319</ele><time>2019-09-27T10:34:57Z</time><name>PT2804</name></trkpt>
<trkpt lat="52.922680" lon="-3.110951"><ele>319</ele><time>2019-09-27T10:34:58Z</time><name>PT2805</name></trkpt>
<trkpt lat="52.922674" lon="-3.110965"><ele>319</ele><time>2019-09-27T10:34:59Z</time><name>PT2806</name></trkpt>
<trkpt lat="52.922671" lon="-3.110975"><ele>320</ele><time>2019-09-27T10:35:00Z</time><name>PT2807</name></trkpt>
<trkpt lat="52.922668" lon="-3.110981"><ele>321</ele><time>2019-09-27T10:35:01Z</time><name>PT2808</name></trkpt>
<trkpt lat="52.922664" lon="-3.110996"><ele>319</ele><time>2019-09-27T10:35:02Z</time><name>PT2809</name></trkpt>
<trkpt lat="52.922660" lon="-3.111007"><ele>319</ele><time>2019-09-27T10:35:03Z</time><name>PT2810</name></trkpt>
<trkpt lat="52.922654" lon="-3.111016"><ele>319</ele><time>2019-09-27T10:35:04Z</time><name>PT2811</name></trkpt>
<trkpt lat="52.922649" lon="-3.111021"><ele>320</ele><time>2019-09-27T10:35:05Z</time><name>PT2812</name></trkpt>
<trkpt lat="52.922646" lon="-3.111027"><ele>320</ele><time>2019-09-27T10:35:06Z</time><name>PT2813</name></trkpt>
<trkpt lat="52.922640" lon="-3.111034"><ele>320</ele><time>2019-09-27T10:35:07Z</time><name>PT2814</name></trkpt>
<trkpt lat="52.922635" lon="-3.111039"><ele>320</ele><time>2019-09-27T10:35:08Z</time><name>PT2815</name></trkpt>
<trkpt lat="52.922628" lon="-3.111044"><ele>320</ele><time>2019-09-27T10:35:09Z</time><name>PT2816</name></trkpt>
<trkpt lat="52.922624" lon="-3.111045"><ele>320</ele><time>2019-09-27T10:35:10Z</time><name>PT2817</name></trkpt>
<trkpt lat="52.922620" lon="-3.111044"><ele>320</ele><time>2019-09-27T10:35:11Z</time><name>PT2818</name></trkpt>
<trkpt lat="52.922611" lon="-3.111041"><ele>321</ele><time>2019-09-27T10:35:12Z</time><name>PT2819</name></trkpt>
<trkpt lat="52.922604" lon="-3.111039"><ele>321</ele><time>2019-09-27T10:35:13Z</time><name>PT2820</name></trkpt>
<trkpt lat="52.922604" lon="-3.111046"><ele>320</ele><time>2019-09-27T10:35:43Z</time><name>PT2821</name></trkpt>
<trkpt lat="52.922601" lon="-3.111056"><ele>320</ele><time>2019-09-27T10:35:44Z</time><name>PT2822</name></trkpt>
<trkpt lat="52.922595" lon="-3.111064"><ele>321</ele><time>2019-09-27T10:35:45Z</time><name>PT2823</name></trkpt>
<trkpt lat="52.922593" lon="-3.111073"><ele>321</ele><time>2019-09-27T10:35:46Z</time><name>PT2824</name></trkpt>
<trkpt lat="52.922588" lon="-3.111078"><ele>321</ele><time>2019-09-27T10:35:47Z</time><name>PT2825</name></trkpt>
<trkpt lat="52.922586" lon="-3.111086"><ele>321</ele><time>2019-09-27T10:35:48Z</time><name>PT2826</name></trkpt>
<trkpt lat="52.922581" lon="-3.111091"><ele>321</ele><time>2019-09-27T10:35:49Z</time><name>PT2827</name></trkpt>
<trkpt lat="52.922575" lon="-3.111100"><ele>320</ele><time>2019-09-27T10:35:50Z</time><name>PT2828</name></trkpt>
<trkpt lat="52.922573" lon="-3.111099"><ele>320</ele><time>2019-09-27T10:35:52Z</time><name>PT2829</name></trkpt>
<trkpt lat="52.922568" lon="-3.111110"><ele>320</ele><time>2019-09-27T10:35:53Z</time><name>PT2830</name></trkpt>
<trkpt lat="52.922565" lon="-3.111122"><ele>319</ele><time>2019-09-27T10:35:54Z</time><name>PT2831</name></trkpt>
<trkpt lat="52.922559" lon="-3.111129"><ele>319</ele><time>2019-09-27T10:35:55Z</time><name>PT2832</name></trkpt>
<trkpt lat="52.922550" lon="-3.111132"><ele>319</ele><time>2019-09-27T10:35:56Z</time><name>PT2833</name></trkpt>
<trkpt lat="52.922530" lon="-3.111133"><ele>319</ele><time>2019-09-27T10:35:57Z</time><name>PT2834</name></trkpt>
<trkpt lat="52.922518" lon="-3.111137"><ele>319</ele><time>2019-09-27T10:35:58Z</time><name>PT2835</name></trkpt>
<trkpt lat="52.922512" lon="-3.111148"><ele>319</ele><time>2019-09-27T10:35:59Z</time><name>PT2836</name></trkpt>
<trkpt lat="52.922504" lon="-3.111160"><ele>321</ele><time>2019-09-27T10:36:00Z</time><name>PT2837</name></trkpt>
<trkpt lat="52.922496" lon="-3.111171"><ele>320</ele><time>2019-09-27T10:36:01Z</time><name>PT2838</name></trkpt>
<trkpt lat="52.922491" lon="-3.111179"><ele>320</ele><time>2019-09-27T10:36:02Z</time><name>PT2839</name></trkpt>
<trkpt lat="52.922484" lon="-3.111188"><ele>320</ele><time>2019-09-27T10:36:03Z</time><name>PT2840</name></trkpt>
<trkpt lat="52.922484" lon="-3.111192"><ele>320</ele><time>2019-09-27T10:36:04Z</time><name>PT2841</name></trkpt>
<trkpt lat="52.922482" lon="-3.111201"><ele>321</ele><time>2019-09-27T10:36:05Z</time><name>PT2842</name></trkpt>
<trkpt lat="52.922476" lon="-3.111211"><ele>321</ele><time>2019-09-27T10:36:06Z</time><name>PT2843</name></trkpt>
<trkpt lat="52.922469" lon="-3.111222"><ele>320</ele><time>2019-09-27T10:36:07Z</time><name>PT2844</name></trkpt>
<trkpt lat="52.922463" lon="-3.111233"><ele>320</ele><time>2019-09-27T10:36:08Z</time><name>PT2845</name></trkpt>
<trkpt lat="52.922458" lon="-3.111240"><ele>320</ele><time>2019-09-27T10:36:09Z</time><name>PT2846</name></trkpt>
<trkpt lat="52.922453" lon="-3.111248"><ele>320</ele><time>2019-09-27T10:36:10Z</time><name>PT2847</name></trkpt>
<trkpt lat="52.922447" lon="-3.111256"><ele>321</ele><time>2019-09-27T10:36:11Z</time><name>PT2848</name></trkpt>
<trkpt lat="52.922438" lon="-3.111263"><ele>321</ele><time>2019-09-27T10:36:12Z</time><name>PT2849</name></trkpt>
<trkpt lat="52.922433" lon="-3.111267"><ele>321</ele><time>2019-09-27T10:36:13Z</time><name>PT2850</name></trkpt>
<trkpt lat="52.922428" lon="-3.111271"><ele>321</ele><time>2019-09-27T10:36:14Z</time><name>PT2851</name></trkpt>
<trkpt lat="52.922423" lon="-3.111275"><ele>321</ele><time>2019-09-27T10:36:15Z</time><name>PT2852</name></trkpt>
<trkpt lat="52.922420" lon="-3.111276"><ele>321</ele><time>2019-09-27T10:36:16Z</time><name>PT2853</name></trkpt>
<trkpt lat="52.922416" lon="-3.111284"><ele>321</ele><time>2019-09-27T10:36:17Z</time><name>PT2854</name></trkpt>
<trkpt lat="52.922412" lon="-3.111287"><ele>321</ele><time>2019-09-27T10:36:20Z</time><name>PT2855</name></trkpt>
<trkpt lat="52.922403" lon="-3.111294"><ele>321</ele><time>2019-09-27T10:36:21Z</time><name>PT2856</name></trkpt>
<trkpt lat="52.922393" lon="-3.111299"><ele>321</ele><time>2019-09-27T10:36:22Z</time><name>PT2857</name></trkpt>
<trkpt lat="52.922387" lon="-3.111311"><ele>321</ele><time>2019-09-27T10:36:23Z</time><name>PT2858</name></trkpt>
<trkpt lat="52.922378" lon="-3.111323"><ele>321</ele><time>2019-09-27T10:36:24Z</time><name>PT2859</name></trkpt>
<trkpt lat="52.922368" lon="-3.111330"><ele>321</ele><time>2019-09-27T10:36:25Z</time><name>PT2860</name></trkpt>
<trkpt lat="52.922361" lon="-3.111340"><ele>321</ele><time>2019-09-27T10:36:26Z</time><name>PT2861</name></trkpt>
<trkpt lat="52.922355" lon="-3.111349"><ele>320</ele><time>2019-09-27T10:36:27Z</time><name>PT2862</name></trkpt>
<trkpt lat="52.922350" lon="-3.111354"><ele>320</ele><time>2019-09-27T10:36:28Z</time><name>PT2863</name></trkpt>
<trkpt lat="52.922344" lon="-3.111353"><ele>321</ele><time>2019-09-27T10:36:29Z</time><name>PT2864</name></trkpt>
<trkpt lat="52.922341" lon="-3.111354"><ele>321</ele><time>2019-09-27T10:36:30Z</time><name>PT2865</name></trkpt>
<trkpt lat="52.922332" lon="-3.111364"><ele>321</ele><time>2019-09-27T10:36:31Z</time><name>PT2866</name></trkpt>
<trkpt lat="52.922329" lon="-3.111370"><ele>321</ele><time>2019-09-27T10:36:32Z</time><name>PT2867</name></trkpt>
<trkpt lat="52.922323" lon="-3.111379"><ele>322</ele><time>2019-09-27T10:36:33Z</time><name>PT2868</name></trkpt>
<trkpt lat="52.922318" lon="-3.111385"><ele>322</ele><time>2019-09-27T10:36:34Z</time><name>PT2869</name></trkpt>
<trkpt lat="52.922313" lon="-3.111391"><ele>322</ele><time>2019-09-27T10:36:35Z</time><name>PT2870</name></trkpt>
<trkpt lat="52.922307" lon="-3.111401"><ele>322</ele><time>2019-09-27T10:36:36Z</time><name>PT2871</name></trkpt>
<trkpt lat="52.922302" lon="-3.111414"><ele>321</ele><time>2019-09-27T10:36:37Z</time><name>PT2872</name></trkpt>
<trkpt lat="52.922295" lon="-3.111425"><ele>322</ele><time>2019-09-27T10:36:38Z</time><name>PT2873</name></trkpt>
<trkpt lat="52.922289" lon="-3.111436"><ele>322</ele><time>2019-09-27T10:36:39Z</time><name>PT2874</name></trkpt>
<trkpt lat="52.922283" lon="-3.111446"><ele>322</ele><time>2019-09-27T10:36:40Z</time><name>PT2875</name></trkpt>
<trkpt lat="52.922274" lon="-3.111463"><ele>322</ele><time>2019-09-27T10:36:41Z</time><name>PT2876</name></trkpt>
<trkpt lat="52.922270" lon="-3.111477"><ele>322</ele><time>2019-09-27T10:36:42Z</time><name>PT2877</name></trkpt>
<trkpt lat="52.922264" lon="-3.111491"><ele>322</ele><time>2019-09-27T10:36:43Z</time><name>PT2878</name></trkpt>
<trkpt lat="52.922257" lon="-3.111500"><ele>322</ele><time>2019-09-27T10:36:44Z</time><name>PT2879</name></trkpt>
<trkpt lat="52.922249" lon="-3.111512"><ele>322</ele><time>2019-09-27T10:36:45Z</time><name>PT2880</name></trkpt>
<trkpt lat="52.922244" lon="-3.111525"><ele>322</ele><time>2019-09-27T10:36:46Z</time><name>PT2881</name></trkpt>
<trkpt lat="52.922238" lon="-3.111535"><ele>322</ele><time>2019-09-27T10:36:47Z</time><name>PT2882</name></trkpt>
<trkpt lat="52.922230" lon="-3.111545"><ele>322</ele><time>2019-09-27T10:36:48Z</time><name>PT2883</name></trkpt>
<trkpt lat="52.922225" lon="-3.111552"><ele>322</ele><time>2019-09-27T10:36:49Z</time><name>PT2884</name></trkpt>
<trkpt lat="52.922222" lon="-3.111558"><ele>322</ele><time>2019-09-27T10:36:50Z</time><name>PT2885</name></trkpt>
<trkpt lat="52.922218" lon="-3.111564"><ele>321</ele><time>2019-09-27T10:36:51Z</time><name>PT2886</name></trkpt>
<trkpt lat="52.922209" lon="-3.111574"><ele>322</ele><time>2019-09-27T10:36:52Z</time><name>PT2887</name></trkpt>
<trkpt lat="52.922199" lon="-3.111586"><ele>323</ele><time>2019-09-27T10:36:53Z</time><name>PT2888</name></trkpt>
<trkpt lat="52.922195" lon="-3.111594"><ele>323</ele><time>2019-09-27T10:36:54Z</time><name>PT2889</name></trkpt>
<trkpt lat="52.922191" lon="-3.111603"><ele>323</ele><time>2019-09-27T10:36:55Z</time><name>PT2890</name></trkpt>
<trkpt lat="52.922189" lon="-3.111615"><ele>323</ele><time>2019-09-27T10:36:56Z</time><name>PT2891</name></trkpt>
<trkpt lat="52.922186" lon="-3.111625"><ele>323</ele><time>2019-09-27T10:36:57Z</time><name>PT2892</name></trkpt>
<trkpt lat="52.922180" lon="-3.111634"><ele>323</ele><time>2019-09-27T10:36:58Z</time><name>PT2893</name></trkpt>
<trkpt lat="52.922176" lon="-3.111643"><ele>322</ele><time>2019-09-27T10:36:59Z</time><name>PT2894</name></trkpt>
<trkpt lat="52.922172" lon="-3.111655"><ele>322</ele><time>2019-09-27T10:37:00Z</time><name>PT2895</name></trkpt>
<trkpt lat="52.922166" lon="-3.111663"><ele>322</ele><time>2019-09-27T10:37:01Z</time><name>PT2896</name></trkpt>
<trkpt lat="52.922161" lon="-3.111672"><ele>322</ele><time>2019-09-27T10:37:02Z</time><name>PT2897</name></trkpt>
<trkpt lat="52.922158" lon="-3.111680"><ele>322</ele><time>2019-09-27T10:37:03Z</time><name>PT2898</name></trkpt>
<trkpt lat="52.922154" lon="-3.111693"><ele>321</ele><time>2019-09-27T10:37:04Z</time><name>PT2899</name></trkpt>
<trkpt lat="52.922152" lon="-3.111702"><ele>321</ele><time>2019-09-27T10:37:05Z</time><name>PT2900</name></trkpt>
<trkpt lat="52.922147" lon="-3.111713"><ele>321</ele><time>2019-09-27T10:37:06Z</time><name>PT2901</name></trkpt>
<trkpt lat="52.922144" lon="-3.111724"><ele>321</ele><time>2019-09-27T10:37:07Z</time><name>PT2902</name></trkpt>
<trkpt lat="52.922139" lon="-3.111734"><ele>321</ele><time>2019-09-27T10:37:08Z</time><name>PT2903</name></trkpt>
<trkpt lat="52.922132" lon="-3.111743"><ele>321</ele><time>2019-09-27T10:37:09Z</time><name>PT2904</name></trkpt>
<trkpt lat="52.922127" lon="-3.111755"><ele>322</ele><time>2019-09-27T10:37:10Z</time><name>PT2905</name></trkpt>
<trkpt lat="52.922120" lon="-3.111782"><ele>321</ele><time>2019-09-27T10:37:12Z</time><name>PT2906</name></trkpt>
<trkpt lat="52.922102" lon="-3.111796"><ele>324</ele><time>2019-09-27T10:37:13Z</time><name>PT2907</name></trkpt>
<trkpt lat="52.922096" lon="-3.111806"><ele>324</ele><time>2019-09-27T10:37:14Z</time><name>PT2908</name></trkpt>
<trkpt lat="52.922092" lon="-3.111813"><ele>324</ele><time>2019-09-27T10:37:15Z</time><name>PT2909</name></trkpt>
<trkpt lat="52.922086" lon="-3.111822"><ele>324</ele><time>2019-09-27T10:37:16Z</time><name>PT2910</name></trkpt>
<trkpt lat="52.922080" lon="-3.111833"><ele>324</ele><time>2019-09-27T10:37:17Z</time><name>PT2911</name></trkpt>
<trkpt lat="52.922075" lon="-3.111843"><ele>324</ele><time>2019-09-27T10:37:18Z</time><name>PT2912</name></trkpt>
<trkpt lat="52.922071" lon="-3.111854"><ele>324</ele><time>2019-09-27T10:37:19Z</time><name>PT2913</name></trkpt>
<trkpt lat="52.922068" lon="-3.111865"><ele>324</ele><time>2019-09-27T10:37:20Z</time><name>PT2914</name></trkpt>
<trkpt lat="52.922063" lon="-3.111877"><ele>324</ele><time>2019-09-27T10:37:21Z</time><name>PT2915</name></trkpt>
<trkpt lat="52.922054" lon="-3.111888"><ele>325</ele><time>2019-09-27T10:37:22Z</time><name>PT2916</name></trkpt>
<trkpt lat="52.922048" lon="-3.111900"><ele>325</ele><time>2019-09-27T10:37:23Z</time><name>PT2917</name></trkpt>
<trkpt lat="52.922042" lon="-3.111908"><ele>325</ele><time>2019-09-27T10:37:24Z</time><name>PT2918</name></trkpt>
<trkpt lat="52.922034" lon="-3.111920"><ele>325</ele><time>2019-09-27T10:37:25Z</time><name>PT2919</name></trkpt>
<trkpt lat="52.922030" lon="-3.111931"><ele>325</ele><time>2019-09-27T10:37:26Z</time><name>PT2920</name></trkpt>
<trkpt lat="52.922025" lon="-3.111942"><ele>325</ele><time>2019-09-27T10:37:27Z</time><name>PT2921</name></trkpt>
<trkpt lat="52.922020" lon="-3.111956"><ele>325</ele><time>2019-09-27T10:37:28Z</time><name>PT2922</name></trkpt>
<trkpt lat="52.922018" lon="-3.111960"><ele>325</ele><time>2019-09-27T10:37:29Z</time><name>PT2923</name></trkpt>
<trkpt lat="52.922014" lon="-3.111966"><ele>325</ele><time>2019-09-27T10:37:30Z</time><name>PT2924</name></trkpt>
<trkpt lat="52.922010" lon="-3.111976"><ele>325</ele><time>2019-09-27T10:37:31Z</time><name>PT2925</name></trkpt>
<trkpt lat="52.922002" lon="-3.111998"><ele>325</ele><time>2019-09-27T10:37:33Z</time><name>PT2926</name></trkpt>
<trkpt lat="52.922000" lon="-3.112003"><ele>325</ele><time>2019-09-27T10:37:34Z</time><name>PT2927</name></trkpt>
<trkpt lat="52.921998" lon="-3.112013"><ele>325</ele><time>2019-09-27T10:37:35Z</time><name>PT2928</name></trkpt>
<trkpt lat="52.921992" lon="-3.112023"><ele>325</ele><time>2019-09-27T10:37:36Z</time><name>PT2929</name></trkpt>
<trkpt lat="52.921986" lon="-3.112039"><ele>325</ele><time>2019-09-27T10:37:37Z</time><name>PT2930</name></trkpt>
<trkpt lat="52.921983" lon="-3.112050"><ele>325</ele><time>2019-09-27T10:37:38Z</time><name>PT2931</name></trkpt>
<trkpt lat="52.921977" lon="-3.112064"><ele>325</ele><time>2019-09-27T10:37:39Z</time><name>PT2932</name></trkpt>
<trkpt lat="52.921970" lon="-3.112076"><ele>325</ele><time>2019-09-27T10:37:40Z</time><name>PT2933</name></trkpt>
<trkpt lat="52.921961" lon="-3.112089"><ele>326</ele><time>2019-09-27T10:37:41Z</time><name>PT2934</name></trkpt>
<trkpt lat="52.921953" lon="-3.112105"><ele>326</ele><time>2019-09-27T10:37:42Z</time><name>PT2935</name></trkpt>
<trkpt lat="52.921945" lon="-3.112117"><ele>327</ele><time>2019-09-27T10:37:43Z</time><name>PT2936</name></trkpt>
<trkpt lat="52.921939" lon="-3.112142"><ele>327</ele><time>2019-09-27T10:37:45Z</time><name>PT2937</name></trkpt>
<trkpt lat="52.921933" lon="-3.112148"><ele>326</ele><time>2019-09-27T10:37:46Z</time><name>PT2938</name></trkpt>
<trkpt lat="52.921924" lon="-3.112162"><ele>327</ele><time>2019-09-27T10:37:47Z</time><name>PT2939</name></trkpt>
<trkpt lat="52.921916" lon="-3.112175"><ele>328</ele><time>2019-09-27T10:37:48Z</time><name>PT2940</name></trkpt>
<trkpt lat="52.921911" lon="-3.112184"><ele>328</ele><time>2019-09-27T10:37:49Z</time><name>PT2941</name></trkpt>
<trkpt lat="52.921909" lon="-3.112200"><ele>327</ele><time>2019-09-27T10:37:50Z</time><name>PT2942</name></trkpt>
<trkpt lat="52.921907" lon="-3.112215"><ele>326</ele><time>2019-09-27T10:37:51Z</time><name>PT2943</name></trkpt>
<trkpt lat="52.921899" lon="-3.112221"><ele>326</ele><time>2019-09-27T10:37:52Z</time><name>PT2944</name></trkpt>
<trkpt lat="52.921894" lon="-3.112224"><ele>326</ele><time>2019-09-27T10:37:53Z</time><name>PT2945</name></trkpt>
<trkpt lat="52.921889" lon="-3.112231"><ele>327</ele><time>2019-09-27T10:37:54Z</time><name>PT2946</name></trkpt>
<trkpt lat="52.921885" lon="-3.112237"><ele>328</ele><time>2019-09-27T10:37:55Z</time><name>PT2947</name></trkpt>
<trkpt lat="52.921883" lon="-3.112242"><ele>328</ele><time>2019-09-27T10:37:56Z</time><name>PT2948</name></trkpt>
<trkpt lat="52.921879" lon="-3.112244"><ele>328</ele><time>2019-09-27T10:37:58Z</time><name>PT2949</name></trkpt>
<trkpt lat="52.921873" lon="-3.112258"><ele>328</ele><time>2019-09-27T10:37:59Z</time><name>PT2950</name></trkpt>
<trkpt lat="52.921870" lon="-3.112275"><ele>327</ele><time>2019-09-27T10:38:00Z</time><name>PT2951</name></trkpt>
<trkpt lat="52.921866" lon="-3.112294"><ele>327</ele><time>2019-09-27T10:38:01Z</time><name>PT2952</name></trkpt>
<trkpt lat="52.921861" lon="-3.112310"><ele>327</ele><time>2019-09-27T10:38:02Z</time><name>PT2953</name></trkpt>
<trkpt lat="52.921855" lon="-3.112324"><ele>328</ele><time>2019-09-27T10:38:03Z</time><name>PT2954</name></trkpt>
<trkpt lat="52.921848" lon="-3.112333"><ele>327</ele><time>2019-09-27T10:38:04Z</time><name>PT2955</name></trkpt>
<trkpt lat="52.921841" lon="-3.112349"><ele>328</ele><time>2019-09-27T10:38:05Z</time><name>PT2956</name></trkpt>
<trkpt lat="52.921835" lon="-3.112361"><ele>328</ele><time>2019-09-27T10:38:06Z</time><name>PT2957</name></trkpt>
<trkpt lat="52.921829" lon="-3.112377"><ele>328</ele><time>2019-09-27T10:38:07Z</time><name>PT2958</name></trkpt>
<trkpt lat="52.921824" lon="-3.112384"><ele>327</ele><time>2019-09-27T10:38:08Z</time><name>PT2959</name></trkpt>
<trkpt lat="52.921819" lon="-3.112394"><ele>328</ele><time>2019-09-27T10:38:09Z</time><name>PT2960</name></trkpt>
<trkpt lat="52.921812" lon="-3.112403"><ele>328</ele><time>2019-09-27T10:38:10Z</time><name>PT2961</name></trkpt>
<trkpt lat="52.921806" lon="-3.112417"><ele>328</ele><time>2019-09-27T10:38:11Z</time><name>PT2962</name></trkpt>
<trkpt lat="52.921800" lon="-3.112427"><ele>328</ele><time>2019-09-27T10:38:12Z</time><name>PT2963</name></trkpt>
<trkpt lat="52.921797" lon="-3.112443"><ele>327</ele><time>2019-09-27T10:38:13Z</time><name>PT2964</name></trkpt>
<trkpt lat="52.921793" lon="-3.112451"><ele>327</ele><time>2019-09-27T10:38:14Z</time><name>PT2965</name></trkpt>
<trkpt lat="52.921784" lon="-3.112459"><ele>327</ele><time>2019-09-27T10:38:15Z</time><name>PT2966</name></trkpt>
<trkpt lat="52.921777" lon="-3.112469"><ele>327</ele><time>2019-09-27T10:38:16Z</time><name>PT2967</name></trkpt>
<trkpt lat="52.921772" lon="-3.112483"><ele>327</ele><time>2019-09-27T10:38:17Z</time><name>PT2968</name></trkpt>
<trkpt lat="52.921764" lon="-3.112498"><ele>327</ele><time>2019-09-27T10:38:18Z</time><name>PT2969</name></trkpt>
<trkpt lat="52.921760" lon="-3.112506"><ele>327</ele><time>2019-09-27T10:38:19Z</time><name>PT2970</name></trkpt>
<trkpt lat="52.921754" lon="-3.112518"><ele>327</ele><time>2019-09-27T10:38:20Z</time><name>PT2971</name></trkpt>
<trkpt lat="52.921748" lon="-3.112533"><ele>327</ele><time>2019-09-27T10:38:21Z</time><name>PT2972</name></trkpt>
<trkpt lat="52.921744" lon="-3.112546"><ele>327</ele><time>2019-09-27T10:38:22Z</time><name>PT2973</name></trkpt>
<trkpt lat="52.921739" lon="-3.112559"><ele>327</ele><time>2019-09-27T10:38:23Z</time><name>PT2974</name></trkpt>
<trkpt lat="52.921731" lon="-3.112573"><ele>328</ele><time>2019-09-27T10:38:24Z</time><name>PT2975</name></trkpt>
<trkpt lat="52.921723" lon="-3.112590"><ele>328</ele><time>2019-09-27T10:38:25Z</time><name>PT2976</name></trkpt>
<trkpt lat="52.921716" lon="-3.112602"><ele>328</ele><time>2019-09-27T10:38:26Z</time><name>PT2977</name></trkpt>
<trkpt lat="52.921705" lon="-3.112629"><ele>328</ele><time>2019-09-27T10:38:28Z</time><name>PT2978</name></trkpt>
<trkpt lat="52.921694" lon="-3.112645"><ele>328</ele><time>2019-09-27T10:38:29Z</time><name>PT2979</name></trkpt>
<trkpt lat="52.921683" lon="-3.112669"><ele>328</ele><time>2019-09-27T10:38:31Z</time><name>PT2980</name></trkpt>
<trkpt lat="52.921677" lon="-3.112680"><ele>328</ele><time>2019-09-27T10:38:32Z</time><name>PT2981</name></trkpt>
<trkpt lat="52.921669" lon="-3.112698"><ele>328</ele><time>2019-09-27T10:38:33Z</time><name>PT2982</name></trkpt>
<trkpt lat="52.921662" lon="-3.112713"><ele>328</ele><time>2019-09-27T10:38:34Z</time><name>PT2983</name></trkpt>
<trkpt lat="52.921658" lon="-3.112726"><ele>328</ele><time>2019-09-27T10:38:35Z</time><name>PT2984</name></trkpt>
<trkpt lat="52.921652" lon="-3.112735"><ele>328</ele><time>2019-09-27T10:38:36Z</time><name>PT2985</name></trkpt>
<trkpt lat="52.921646" lon="-3.112746"><ele>328</ele><time>2019-09-27T10:38:37Z</time><name>PT2986</name></trkpt>
<trkpt lat="52.921642" lon="-3.112754"><ele>329</ele><time>2019-09-27T10:38:38Z</time><name>PT2987</name></trkpt>
<trkpt lat="52.921638" lon="-3.112767"><ele>329</ele><time>2019-09-27T10:38:39Z</time><name>PT2988</name></trkpt>
<trkpt lat="52.921631" lon="-3.112777"><ele>329</ele><time>2019-09-27T10:38:40Z</time><name>PT2989</name></trkpt>
<trkpt lat="52.921622" lon="-3.112793"><ele>329</ele><time>2019-09-27T10:38:41Z</time><name>PT2990</name></trkpt>
<trkpt lat="52.921616" lon="-3.112803"><ele>329</ele><time>2019-09-27T10:38:42Z</time><name>PT2991</name></trkpt>
<trkpt lat="52.921611" lon="-3.112813"><ele>329</ele><time>2019-09-27T10:38:43Z</time><name>PT2992</name></trkpt>
<trkpt lat="52.921604" lon="-3.112828"><ele>330</ele><time>2019-09-27T10:38:44Z</time><name>PT2993</name></trkpt>
<trkpt lat="52.921600" lon="-3.112842"><ele>330</ele><time>2019-09-27T10:38:45Z</time><name>PT2994</name></trkpt>
<trkpt lat="52.921594" lon="-3.112858"><ele>330</ele><time>2019-09-27T10:38:46Z</time><name>PT2995</name></trkpt>
<trkpt lat="52.921587" lon="-3.112874"><ele>331</ele><time>2019-09-27T10:38:47Z</time><name>PT2996</name></trkpt>
<trkpt lat="52.921579" lon="-3.112889"><ele>332</ele><time>2019-09-27T10:38:48Z</time><name>PT2997</name></trkpt>
<trkpt lat="52.921572" lon="-3.112902"><ele>332</ele><time>2019-09-27T10:38:49Z</time><name>PT2998</name></trkpt>
<trkpt lat="52.921560" lon="-3.112936"><ele>332</ele><time>2019-09-27T10:38:51Z</time><name>PT2999</name></trkpt>
<trkpt lat="52.921550" lon="-3.112951"><ele>332</ele><time>2019-09-27T10:38:52Z</time><name>PT3000</name></trkpt>
<trkpt lat="52.921542" lon="-3.112964"><ele>333</ele><time>2019-09-27T10:38:53Z</time><name>PT3001</name></trkpt>
<trkpt lat="52.921538" lon="-3.112979"><ele>333</ele><time>2019-09-27T10:38:54Z</time><name>PT3002</name></trkpt>
<trkpt lat="52.921532" lon="-3.112992"><ele>333</ele><time>2019-09-27T10:38:55Z</time><name>PT3003</name></trkpt>
<trkpt lat="52.921525" lon="-3.113002"><ele>334</ele><time>2019-09-27T10:38:56Z</time><name>PT3004</name></trkpt>
<trkpt lat="52.921520" lon="-3.113010"><ele>334</ele><time>2019-09-27T10:38:57Z</time><name>PT3005</name></trkpt>
<trkpt lat="52.921518" lon="-3.113015"><ele>334</ele><time>2019-09-27T10:38:58Z</time><name>PT3006</name></trkpt>
<trkpt lat="52.921507" lon="-3.113027"><ele>336</ele><time>2019-09-27T10:38:59Z</time><name>PT3007</name></trkpt>
<trkpt lat="52.921504" lon="-3.113031"><ele>336</ele><time>2019-09-27T10:39:00Z</time><name>PT3008</name></trkpt>
<trkpt lat="52.921500" lon="-3.113041"><ele>336</ele><time>2019-09-27T10:39:01Z</time><name>PT3009</name></trkpt>
<trkpt lat="52.921491" lon="-3.113055"><ele>336</ele><time>2019-09-27T10:39:02Z</time><name>PT3010</name></trkpt>
<trkpt lat="52.921487" lon="-3.113070"><ele>335</ele><time>2019-09-27T10:39:03Z</time><name>PT3011</name></trkpt>
<trkpt lat="52.921481" lon="-3.113085"><ele>336</ele><time>2019-09-27T10:39:04Z</time><name>PT3012</name></trkpt>
<trkpt lat="52.921474" lon="-3.113097"><ele>336</ele><time>2019-09-27T10:39:05Z</time><name>PT3013</name></trkpt>
<trkpt lat="52.921467" lon="-3.113109"><ele>336</ele><time>2019-09-27T10:39:06Z</time><name>PT3014</name></trkpt>
<trkpt lat="52.921462" lon="-3.113120"><ele>336</ele><time>2019-09-27T10:39:07Z</time><name>PT3015</name></trkpt>
<trkpt lat="52.921459" lon="-3.113129"><ele>335</ele><time>2019-09-27T10:39:08Z</time><name>PT3016</name></trkpt>
<trkpt lat="52.921454" lon="-3.113144"><ele>336</ele><time>2019-09-27T10:39:09Z</time><name>PT3017</name></trkpt>
<trkpt lat="52.921447" lon="-3.113158"><ele>336</ele><time>2019-09-27T10:39:10Z</time><name>PT3018</name></trkpt>
<trkpt lat="52.921441" lon="-3.113167"><ele>336</ele><time>2019-09-27T10:39:11Z</time><name>PT3019</name></trkpt>
<trkpt lat="52.921435" lon="-3.113180"><ele>335</ele><time>2019-09-27T10:39:12Z</time><name>PT3020</name></trkpt>
<trkpt lat="52.921432" lon="-3.113191"><ele>335</ele><time>2019-09-27T10:39:13Z</time><name>PT3021</name></trkpt>
<trkpt lat="52.921427" lon="-3.113207"><ele>335</ele><time>2019-09-27T10:39:14Z</time><name>PT3022</name></trkpt>
<trkpt lat="52.921420" lon="-3.113221"><ele>335</ele><time>2019-09-27T10:39:15Z</time><name>PT3023</name></trkpt>
<trkpt lat="52.921412" lon="-3.113234"><ele>335</ele><time>2019-09-27T10:39:16Z</time><name>PT3024</name></trkpt>
<trkpt lat="52.921407" lon="-3.113249"><ele>335</ele><time>2019-09-27T10:39:17Z</time><name>PT3025</name></trkpt>
<trkpt lat="52.921402" lon="-3.113264"><ele>335</ele><time>2019-09-27T10:39:18Z</time><name>PT3026</name></trkpt>
<trkpt lat="52.921396" lon="-3.113276"><ele>335</ele><time>2019-09-27T10:39:19Z</time><name>PT3027</name></trkpt>
<trkpt lat="52.921388" lon="-3.113289"><ele>335</ele><time>2019-09-27T10:39:20Z</time><name>PT3028</name></trkpt>
<trkpt lat="52.921382" lon="-3.113303"><ele>335</ele><time>2019-09-27T10:39:21Z</time><name>PT3029</name></trkpt>
<trkpt lat="52.921377" lon="-3.113321"><ele>335</ele><time>2019-09-27T10:39:22Z</time><name>PT3030</name></trkpt>
<trkpt lat="52.921370" lon="-3.113336"><ele>336</ele><time>2019-09-27T10:39:23Z</time><name>PT3031</name></trkpt>
<trkpt lat="52.921364" lon="-3.113348"><ele>336</ele><time>2019-09-27T10:39:24Z</time><name>PT3032</name></trkpt>
<trkpt lat="52.921357" lon="-3.113359"><ele>336</ele><time>2019-09-27T10:39:25Z</time><name>PT3033</name></trkpt>
<trkpt lat="52.921351" lon="-3.113374"><ele>336</ele><time>2019-09-27T10:39:26Z</time><name>PT3034</name></trkpt>
<trkpt lat="52.921342" lon="-3.113387"><ele>337</ele><time>2019-09-27T10:39:27Z</time><name>PT3035</name></trkpt>
<trkpt lat="52.921328" lon="-3.113402"><ele>338</ele><time>2019-09-27T10:39:28Z</time><name>PT3036</name></trkpt>
<trkpt lat="52.921320" lon="-3.113416"><ele>338</ele><time>2019-09-27T10:39:29Z</time><name>PT3037</name></trkpt>
<trkpt lat="52.921315" lon="-3.113432"><ele>338</ele><time>2019-09-27T10:39:30Z</time><name>PT3038</name></trkpt>
<trkpt lat="52.921309" lon="-3.113446"><ele>338</ele><time>2019-09-27T10:39:31Z</time><name>PT3039</name></trkpt>
<trkpt lat="52.921300" lon="-3.113459"><ele>338</ele><time>2019-09-27T10:39:32Z</time><name>PT3040</name></trkpt>
<trkpt lat="52.921294" lon="-3.113471"><ele>339</ele><time>2019-09-27T10:39:33Z</time><name>PT3041</name></trkpt>
<trkpt lat="52.921288" lon="-3.113485"><ele>339</ele><time>2019-09-27T10:39:34Z</time><name>PT3042</name></trkpt>
<trkpt lat="52.921282" lon="-3.113496"><ele>339</ele><time>2019-09-27T10:39:35Z</time><name>PT3043</name></trkpt>
<trkpt lat="52.921276" lon="-3.113508"><ele>339</ele><time>2019-09-27T10:39:36Z</time><name>PT3044</name></trkpt>
<trkpt lat="52.921267" lon="-3.113522"><ele>340</ele><time>2019-09-27T10:39:37Z</time><name>PT3045</name></trkpt>
<trkpt lat="52.921260" lon="-3.113537"><ele>340</ele><time>2019-09-27T10:39:38Z</time><name>PT3046</name></trkpt>
<trkpt lat="52.921254" lon="-3.113551"><ele>341</ele><time>2019-09-27T10:39:39Z</time><name>PT3047</name></trkpt>
<trkpt lat="52.921246" lon="-3.113563"><ele>341</ele><time>2019-09-27T10:39:40Z</time><name>PT3048</name></trkpt>
<trkpt lat="52.921239" lon="-3.113575"><ele>341</ele><time>2019-09-27T10:39:41Z</time><name>PT3049</name></trkpt>
<trkpt lat="52.921234" lon="-3.113588"><ele>341</ele><time>2019-09-27T10:39:42Z</time><name>PT3050</name></trkpt>
<trkpt lat="52.921228" lon="-3.113602"><ele>341</ele><time>2019-09-27T10:39:43Z</time><name>PT3051</name></trkpt>
<trkpt lat="52.921221" lon="-3.113612"><ele>341</ele><time>2019-09-27T10:39:44Z</time><name>PT3052</name></trkpt>
<trkpt lat="52.921214" lon="-3.113624"><ele>342</ele><time>2019-09-27T10:39:45Z</time><name>PT3053</name></trkpt>
<trkpt lat="52.921208" lon="-3.113641"><ele>341</ele><time>2019-09-27T10:39:46Z</time><name>PT3054</name></trkpt>
<trkpt lat="52.921202" lon="-3.113654"><ele>342</ele><time>2019-09-27T10:39:47Z</time><name>PT3055</name></trkpt>
<trkpt lat="52.921193" lon="-3.113667"><ele>342</ele><time>2019-09-27T10:39:48Z</time><name>PT3056</name></trkpt>
<trkpt lat="52.921185" lon="-3.113677"><ele>343</ele><time>2019-09-27T10:39:49Z</time><name>PT3057</name></trkpt>
<trkpt lat="52.921178" lon="-3.113691"><ele>343</ele><time>2019-09-27T10:39:50Z</time><name>PT3058</name></trkpt>
<trkpt lat="52.921171" lon="-3.113705"><ele>342</ele><time>2019-09-27T10:39:51Z</time><name>PT3059</name></trkpt>
<trkpt lat="52.921165" lon="-3.113717"><ele>343</ele><time>2019-09-27T10:39:52Z</time><name>PT3060</name></trkpt>
<trkpt lat="52.921157" lon="-3.113734"><ele>343</ele><time>2019-09-27T10:39:53Z</time><name>PT3061</name></trkpt>
<trkpt lat="52.921150" lon="-3.113749"><ele>343</ele><time>2019-09-27T10:39:54Z</time><name>PT3062</name></trkpt>
<trkpt lat="52.921143" lon="-3.113763"><ele>343</ele><time>2019-09-27T10:39:55Z</time><name>PT3063</name></trkpt>
<trkpt lat="52.921136" lon="-3.113776"><ele>343</ele><time>2019-09-27T10:39:56Z</time><name>PT3064</name></trkpt>
<trkpt lat="52.921127" lon="-3.113786"><ele>344</ele><time>2019-09-27T10:39:57Z</time><name>PT3065</name></trkpt>
<trkpt lat="52.921119" lon="-3.113800"><ele>344</ele><time>2019-09-27T10:39:58Z</time><name>PT3066</name></trkpt>
<trkpt lat="52.921112" lon="-3.113816"><ele>344</ele><time>2019-09-27T10:39:59Z</time><name>PT3067</name></trkpt>
<trkpt lat="52.921103" lon="-3.113836"><ele>344</ele><time>2019-09-27T10:40:00Z</time><name>PT3068</name></trkpt>
<trkpt lat="52.921097" lon="-3.113851"><ele>344</ele><time>2019-09-27T10:40:01Z</time><name>PT3069</name></trkpt>
<trkpt lat="52.921088" lon="-3.113866"><ele>344</ele><time>2019-09-27T10:40:02Z</time><name>PT3070</name></trkpt>
<trkpt lat="52.921080" lon="-3.113882"><ele>345</ele><time>2019-09-27T10:40:03Z</time><name>PT3071</name></trkpt>
<trkpt lat="52.921073" lon="-3.113897"><ele>344</ele><time>2019-09-27T10:40:04Z</time><name>PT3072</name></trkpt>
<trkpt lat="52.921067" lon="-3.113914"><ele>344</ele><time>2019-09-27T10:40:05Z</time><name>PT3073</name></trkpt>
<trkpt lat="52.921061" lon="-3.113930"><ele>344</ele><time>2019-09-27T10:40:06Z</time><name>PT3074</name></trkpt>
<trkpt lat="52.921055" lon="-3.113947"><ele>344</ele><time>2019-09-27T10:40:07Z</time><name>PT3075</name></trkpt>
<trkpt lat="52.921046" lon="-3.113963"><ele>344</ele><time>2019-09-27T10:40:08Z</time><name>PT3076</name></trkpt>
<trkpt lat="52.921040" lon="-3.113979"><ele>344</ele><time>2019-09-27T10:40:09Z</time><name>PT3077</name></trkpt>
<trkpt lat="52.921033" lon="-3.113995"><ele>344</ele><time>2019-09-27T10:40:10Z</time><name>PT3078</name></trkpt>
<trkpt lat="52.921027" lon="-3.114009"><ele>344</ele><time>2019-09-27T10:40:11Z</time><name>PT3079</name></trkpt>
<trkpt lat="52.921019" lon="-3.114024"><ele>344</ele><time>2019-09-27T10:40:12Z</time><name>PT3080</name></trkpt>
<trkpt lat="52.921011" lon="-3.114037"><ele>344</ele><time>2019-09-27T10:40:13Z</time><name>PT3081</name></trkpt>
<trkpt lat="52.921005" lon="-3.114053"><ele>344</ele><time>2019-09-27T10:40:14Z</time><name>PT3082</name></trkpt>
<trkpt lat="52.920998" lon="-3.114073"><ele>344</ele><time>2019-09-27T10:40:15Z</time><name>PT3083</name></trkpt>
<trkpt lat="52.920992" lon="-3.114089"><ele>344</ele><time>2019-09-27T10:40:16Z</time><name>PT3084</name></trkpt>
<trkpt lat="52.920985" lon="-3.114104"><ele>344</ele><time>2019-09-27T10:40:17Z</time><name>PT3085</name></trkpt>
<trkpt lat="52.920977" lon="-3.114120"><ele>344</ele><time>2019-09-27T10:40:18Z</time><name>PT3086</name></trkpt>
<trkpt lat="52.920970" lon="-3.114138"><ele>344</ele><time>2019-09-27T10:40:19Z</time><name>PT3087</name></trkpt>
<trkpt lat="52.920961" lon="-3.114157"><ele>344</ele><time>2019-09-27T10:40:20Z</time><name>PT3088</name></trkpt>
<trkpt lat="52.920953" lon="-3.114172"><ele>344</ele><time>2019-09-27T10:40:21Z</time><name>PT3089</name></trkpt>
<trkpt lat="52.920945" lon="-3.114188"><ele>344</ele><time>2019-09-27T10:40:22Z</time><name>PT3090</name></trkpt>
<trkpt lat="52.920936" lon="-3.114204"><ele>343</ele><time>2019-09-27T10:40:23Z</time><name>PT3091</name></trkpt>
<trkpt lat="52.920930" lon="-3.114219"><ele>344</ele><time>2019-09-27T10:40:24Z</time><name>PT3092</name></trkpt>
<trkpt lat="52.920923" lon="-3.114237"><ele>344</ele><time>2019-09-27T10:40:25Z</time><name>PT3093</name></trkpt>
<trkpt lat="52.920918" lon="-3.114251"><ele>344</ele><time>2019-09-27T10:40:26Z</time><name>PT3094</name></trkpt>
<trkpt lat="52.920911" lon="-3.114267"><ele>343</ele><time>2019-09-27T10:40:27Z</time><name>PT3095</name></trkpt>
<trkpt lat="52.920903" lon="-3.114284"><ele>343</ele><time>2019-09-27T10:40:28Z</time><name>PT3096</name></trkpt>
<trkpt lat="52.920898" lon="-3.114297"><ele>343</ele><time>2019-09-27T10:40:29Z</time><name>PT3097</name></trkpt>
<trkpt lat="52.920893" lon="-3.114314"><ele>343</ele><time>2019-09-27T10:40:30Z</time><name>PT3098</name></trkpt>
<trkpt lat="52.920886" lon="-3.114333"><ele>343</ele><time>2019-09-27T10:40:31Z</time><name>PT3099</name></trkpt>
<trkpt lat="52.920879" lon="-3.114349"><ele>343</ele><time>2019-09-27T10:40:32Z</time><name>PT3100</name></trkpt>
<trkpt lat="52.920872" lon="-3.114363"><ele>342</ele><time>2019-09-27T10:40:33Z</time><name>PT3101</name></trkpt>
<trkpt lat="52.920862" lon="-3.114376"><ele>343</ele><time>2019-09-27T10:40:34Z</time><name>PT3102</name></trkpt>
<trkpt lat="52.920852" lon="-3.114390"><ele>343</ele><time>2019-09-27T10:40:35Z</time><name>PT3103</name></trkpt>
<trkpt lat="52.920846" lon="-3.114406"><ele>343</ele><time>2019-09-27T10:40:36Z</time><name>PT3104</name></trkpt>
<trkpt lat="52.920839" lon="-3.114423"><ele>343</ele><time>2019-09-27T10:40:37Z</time><name>PT3105</name></trkpt>
<trkpt lat="52.920832" lon="-3.114443"><ele>343</ele><time>2019-09-27T10:40:38Z</time><name>PT3106</name></trkpt>
<trkpt lat="52.920825" lon="-3.114458"><ele>343</ele><time>2019-09-27T10:40:39Z</time><name>PT3107</name></trkpt>
<trkpt lat="52.920816" lon="-3.114475"><ele>342</ele><time>2019-09-27T10:40:40Z</time><name>PT3108</name></trkpt>
<trkpt lat="52.920807" lon="-3.114492"><ele>342</ele><time>2019-09-27T10:40:41Z</time><name>PT3109</name></trkpt>
<trkpt lat="52.920801" lon="-3.114506"><ele>342</ele><time>2019-09-27T10:40:42Z</time><name>PT3110</name></trkpt>
<trkpt lat="52.920794" lon="-3.114524"><ele>342</ele><time>2019-09-27T10:40:43Z</time><name>PT3111</name></trkpt>
<trkpt lat="52.920788" lon="-3.114544"><ele>342</ele><time>2019-09-27T10:40:44Z</time><name>PT3112</name></trkpt>
<trkpt lat="52.920781" lon="-3.114560"><ele>342</ele><time>2019-09-27T10:40:45Z</time><name>PT3113</name></trkpt>
<trkpt lat="52.920773" lon="-3.114574"><ele>342</ele><time>2019-09-27T10:40:46Z</time><name>PT3114</name></trkpt>
<trkpt lat="52.920765" lon="-3.114589"><ele>342</ele><time>2019-09-27T10:40:47Z</time><name>PT3115</name></trkpt>
<trkpt lat="52.920759" lon="-3.114603"><ele>342</ele><time>2019-09-27T10:40:48Z</time><name>PT3116</name></trkpt>
<trkpt lat="52.920755" lon="-3.114617"><ele>342</ele><time>2019-09-27T10:40:49Z</time><name>PT3117</name></trkpt>
<trkpt lat="52.920749" lon="-3.114636"><ele>342</ele><time>2019-09-27T10:40:50Z</time><name>PT3118</name></trkpt>
<trkpt lat="52.920740" lon="-3.114655"><ele>342</ele><time>2019-09-27T10:40:51Z</time><name>PT3119</name></trkpt>
<trkpt lat="52.920734" lon="-3.114670"><ele>341</ele><time>2019-09-27T10:40:52Z</time><name>PT3120</name></trkpt>
<trkpt lat="52.920725" lon="-3.114688"><ele>342</ele><time>2019-09-27T10:40:53Z</time><name>PT3121</name></trkpt>
<trkpt lat="52.920715" lon="-3.114704"><ele>342</ele><time>2019-09-27T10:40:54Z</time><name>PT3122</name></trkpt>
<trkpt lat="52.920709" lon="-3.114719"><ele>342</ele><time>2019-09-27T10:40:55Z</time><name>PT3123</name></trkpt>
<trkpt lat="52.920701" lon="-3.114739"><ele>342</ele><time>2019-09-27T10:40:56Z</time><name>PT3124</name></trkpt>
<trkpt lat="52.920695" lon="-3.114761"><ele>341</ele><time>2019-09-27T10:40:57Z</time><name>PT3125</name></trkpt>
<trkpt lat="52.920689" lon="-3.114767"><ele>341</ele><time>2019-09-27T10:40:58Z</time><name>PT3126</name></trkpt>
<trkpt lat="52.920682" lon="-3.114777"><ele>341</ele><time>2019-09-27T10:40:59Z</time><name>PT3127</name></trkpt>
<trkpt lat="52.920675" lon="-3.114788"><ele>341</ele><time>2019-09-27T10:41:00Z</time><name>PT3128</name></trkpt>
<trkpt lat="52.920669" lon="-3.114800"><ele>340</ele><time>2019-09-27T10:41:01Z</time><name>PT3129</name></trkpt>
<trkpt lat="52.920663" lon="-3.114819"><ele>340</ele><time>2019-09-27T10:41:02Z</time><name>PT3130</name></trkpt>
<trkpt lat="52.920657" lon="-3.114839"><ele>340</ele><time>2019-09-27T10:41:03Z</time><name>PT3131</name></trkpt>
<trkpt lat="52.920654" lon="-3.114850"><ele>339</ele><time>2019-09-27T10:41:04Z</time><name>PT3132</name></trkpt>
<trkpt lat="52.920646" lon="-3.114863"><ele>338</ele><time>2019-09-27T10:41:05Z</time><name>PT3133</name></trkpt>
<trkpt lat="52.920636" lon="-3.114882"><ele>339</ele><time>2019-09-27T10:41:06Z</time><name>PT3134</name></trkpt>
<trkpt lat="52.920631" lon="-3.114895"><ele>339</ele><time>2019-09-27T10:41:07Z</time><name>PT3135</name></trkpt>
<trkpt lat="52.920627" lon="-3.114911"><ele>339</ele><time>2019-09-27T10:41:08Z</time><name>PT3136</name></trkpt>
<trkpt lat="52.920620" lon="-3.114926"><ele>339</ele><time>2019-09-27T10:41:09Z</time><name>PT3137</name></trkpt>
<trkpt lat="52.920618" lon="-3.114937"><ele>339</ele><time>2019-09-27T10:41:10Z</time><name>PT3138</name></trkpt>
<trkpt lat="52.920619" lon="-3.114950"><ele>339</ele><time>2019-09-27T10:41:11Z</time><name>PT3139</name></trkpt>
<trkpt lat="52.920615" lon="-3.114957"><ele>339</ele><time>2019-09-27T10:41:12Z</time><name>PT3140</name></trkpt>
<trkpt lat="52.920613" lon="-3.114965"><ele>340</ele><time>2019-09-27T10:41:13Z</time><name>PT3141</name></trkpt>
<trkpt lat="52.920611" lon="-3.114978"><ele>340</ele><time>2019-09-27T10:41:14Z</time><name>PT3142</name></trkpt>
<trkpt lat="52.920610" lon="-3.114979"><ele>340</ele><time>2019-09-27T10:41:15Z</time><name>PT3143</name></trkpt>
<trkpt lat="52.920609" lon="-3.114978"><ele>341</ele><time>2019-09-27T10:41:16Z</time><name>PT3144</name></trkpt>
<trkpt lat="52.920609" lon="-3.114983"><ele>341</ele><time>2019-09-27T10:41:17Z</time><name>PT3145</name></trkpt>
<trkpt lat="52.920607" lon="-3.114985"><ele>341</ele><time>2019-09-27T10:41:18Z</time><name>PT3146</name></trkpt>
<trkpt lat="52.920606" lon="-3.114987"><ele>341</ele><time>2019-09-27T10:41:19Z</time><name>PT3147</name></trkpt>
<trkpt lat="52.920605" lon="-3.114987"><ele>341</ele><time>2019-09-27T10:41:20Z</time><name>PT3148</name></trkpt>
<trkpt lat="52.920607" lon="-3.114989"><ele>341</ele><time>2019-09-27T10:41:23Z</time><name>PT3149</name></trkpt>
<trkpt lat="52.920605" lon="-3.114990"><ele>341</ele><time>2019-09-27T10:41:24Z</time><name>PT3150</name></trkpt>
<trkpt lat="52.920604" lon="-3.114990"><ele>341</ele><time>2019-09-27T10:41:25Z</time><name>PT3151</name></trkpt>
<trkpt lat="52.920599" lon="-3.114992"><ele>342</ele><time>2019-09-27T10:41:58Z</time><name>PT3152</name></trkpt>
<trkpt lat="52.920601" lon="-3.115000"><ele>343</ele><time>2019-09-27T10:41:59Z</time><name>PT3153</name></trkpt>
<trkpt lat="52.920594" lon="-3.115000"><ele>344</ele><time>2019-09-27T10:42:30Z</time><name>PT3154</name></trkpt>
<trkpt lat="52.920592" lon="-3.115006"><ele>344</ele><time>2019-09-27T10:42:31Z</time><name>PT3155</name></trkpt>
<trkpt lat="52.920586" lon="-3.115017"><ele>344</ele><time>2019-09-27T10:42:44Z</time><name>PT3156</name></trkpt>
<trkpt lat="52.920578" lon="-3.115029"><ele>344</ele><time>2019-09-27T10:42:45Z</time><name>PT3157</name></trkpt>
<trkpt lat="52.920569" lon="-3.115041"><ele>345</ele><time>2019-09-27T10:42:46Z</time><name>PT3158</name></trkpt>
<trkpt lat="52.920562" lon="-3.115051"><ele>345</ele><time>2019-09-27T10:42:47Z</time><name>PT3159</name></trkpt>
<trkpt lat="52.920555" lon="-3.115064"><ele>345</ele><time>2019-09-27T10:42:48Z</time><name>PT3160</name></trkpt>
<trkpt lat="52.920549" lon="-3.115077"><ele>344</ele><time>2019-09-27T10:42:49Z</time><name>PT3161</name></trkpt>
<trkpt lat="52.920542" lon="-3.115089"><ele>345</ele><time>2019-09-27T10:42:50Z</time><name>PT3162</name></trkpt>
<trkpt lat="52.920536" lon="-3.115104"><ele>344</ele><time>2019-09-27T10:42:51Z</time><name>PT3163</name></trkpt>
<trkpt lat="52.920529" lon="-3.115116"><ele>344</ele><time>2019-09-27T10:42:52Z</time><name>PT3164</name></trkpt>
<trkpt lat="52.920525" lon="-3.115132"><ele>344</ele><time>2019-09-27T10:42:53Z</time><name>PT3165</name></trkpt>
<trkpt lat="52.920520" lon="-3.115150"><ele>344</ele><time>2019-09-27T10:42:54Z</time><name>PT3166</name></trkpt>
<trkpt lat="52.920514" lon="-3.115162"><ele>344</ele><time>2019-09-27T10:42:55Z</time><name>PT3167</name></trkpt>
<trkpt lat="52.920509" lon="-3.115173"><ele>343</ele><time>2019-09-27T10:42:56Z</time><name>PT3168</name></trkpt>
<trkpt lat="52.920503" lon="-3.115189"><ele>343</ele><time>2019-09-27T10:42:57Z</time><name>PT3169</name></trkpt>
<trkpt lat="52.920497" lon="-3.115203"><ele>343</ele><time>2019-09-27T10:42:58Z</time><name>PT3170</name></trkpt>
<trkpt lat="52.920484" lon="-3.115238"><ele>343</ele><time>2019-09-27T10:43:00Z</time><name>PT3171</name></trkpt>
<trkpt lat="52.920478" lon="-3.115250"><ele>342</ele><time>2019-09-27T10:43:01Z</time><name>PT3172</name></trkpt>
<trkpt lat="52.920470" lon="-3.115264"><ele>342</ele><time>2019-09-27T10:43:02Z</time><name>PT3173</name></trkpt>
<trkpt lat="52.920462" lon="-3.115278"><ele>341</ele><time>2019-09-27T10:43:03Z</time><name>PT3174</name></trkpt>
<trkpt lat="52.920456" lon="-3.115292"><ele>342</ele><time>2019-09-27T10:43:04Z</time><name>PT3175</name></trkpt>
<trkpt lat="52.920452" lon="-3.115306"><ele>341</ele><time>2019-09-27T10:43:05Z</time><name>PT3176</name></trkpt>
<trkpt lat="52.920447" lon="-3.115325"><ele>341</ele><time>2019-09-27T10:43:06Z</time><name>PT3177</name></trkpt>
<trkpt lat="52.920441" lon="-3.115337"><ele>341</ele><time>2019-09-27T10:43:07Z</time><name>PT3178</name></trkpt>
<trkpt lat="52.920435" lon="-3.115352"><ele>340</ele><time>2019-09-27T10:43:08Z</time><name>PT3179</name></trkpt>
<trkpt lat="52.920429" lon="-3.115366"><ele>340</ele><time>2019-09-27T10:43:09Z</time><name>PT3180</name></trkpt>
<trkpt lat="52.920425" lon="-3.115381"><ele>340</ele><time>2019-09-27T10:43:10Z</time><name>PT3181</name></trkpt>
<trkpt lat="52.920420" lon="-3.115396"><ele>339</ele><time>2019-09-27T10:43:11Z</time><name>PT3182</name></trkpt>
<trkpt lat="52.920415" lon="-3.115411"><ele>339</ele><time>2019-09-27T10:43:12Z</time><name>PT3183</name></trkpt>
<trkpt lat="52.920413" lon="-3.115423"><ele>338</ele><time>2019-09-27T10:43:13Z</time><name>PT3184</name></trkpt>
<trkpt lat="52.920408" lon="-3.115435"><ele>338</ele><time>2019-09-27T10:43:14Z</time><name>PT3185</name></trkpt>
<trkpt lat="52.920405" lon="-3.115448"><ele>338</ele><time>2019-09-27T10:43:15Z</time><name>PT3186</name></trkpt>
<trkpt lat="52.920402" lon="-3.115458"><ele>338</ele><time>2019-09-27T10:43:16Z</time><name>PT3187</name></trkpt>
<trkpt lat="52.920401" lon="-3.115460"><ele>338</ele><time>2019-09-27T10:43:17Z</time><name>PT3188</name></trkpt>
<trkpt lat="52.920398" lon="-3.115464"><ele>339</ele><time>2019-09-27T10:43:18Z</time><name>PT3189</name></trkpt>
<trkpt lat="52.920397" lon="-3.115469"><ele>340</ele><time>2019-09-27T10:43:19Z</time><name>PT3190</name></trkpt>
<trkpt lat="52.920399" lon="-3.115495"><ele>339</ele><time>2019-09-27T10:43:23Z</time><name>PT3191</name></trkpt>
<trkpt lat="52.920396" lon="-3.115507"><ele>339</ele><time>2019-09-27T10:43:24Z</time><name>PT3192</name></trkpt>
<trkpt lat="52.920394" lon="-3.115520"><ele>338</ele><time>2019-09-27T10:43:25Z</time><name>PT3193</name></trkpt>
<trkpt lat="52.920392" lon="-3.115530"><ele>338</ele><time>2019-09-27T10:43:26Z</time><name>PT3194</name></trkpt>
<trkpt lat="52.920387" lon="-3.115544"><ele>338</ele><time>2019-09-27T10:43:27Z</time><name>PT3195</name></trkpt>
<trkpt lat="52.920384" lon="-3.115557"><ele>338</ele><time>2019-09-27T10:43:28Z</time><name>PT3196</name></trkpt>
<trkpt lat="52.920378" lon="-3.115570"><ele>337</ele><time>2019-09-27T10:43:29Z</time><name>PT3197</name></trkpt>
<trkpt lat="52.920374" lon="-3.115577"><ele>337</ele><time>2019-09-27T10:43:30Z</time><name>PT3198</name></trkpt>
<trkpt lat="52.920369" lon="-3.115589"><ele>337</ele><time>2019-09-27T10:43:31Z</time><name>PT3199</name></trkpt>
<trkpt lat="52.920362" lon="-3.115599"><ele>338</ele><time>2019-09-27T10:43:32Z</time><name>PT3200</name></trkpt>
<trkpt lat="52.920357" lon="-3.115613"><ele>338</ele><time>2019-09-27T10:43:33Z</time><name>PT3201</name></trkpt>
<trkpt lat="52.920351" lon="-3.115628"><ele>338</ele><time>2019-09-27T10:43:34Z</time><name>PT3202</name></trkpt>
<trkpt lat="52.920345" lon="-3.115642"><ele>337</ele><time>2019-09-27T10:43:35Z</time><name>PT3203</name></trkpt>
<trkpt lat="52.920339" lon="-3.115655"><ele>337</ele><time>2019-09-27T10:43:36Z</time><name>PT3204</name></trkpt>
<trkpt lat="52.920332" lon="-3.115666"><ele>337</ele><time>2019-09-27T10:43:37Z</time><name>PT3205</name></trkpt>
<trkpt lat="52.920323" lon="-3.115679"><ele>337</ele><time>2019-09-27T10:43:38Z</time><name>PT3206</name></trkpt>
<trkpt lat="52.920315" lon="-3.115692"><ele>337</ele><time>2019-09-27T10:43:39Z</time><name>PT3207</name></trkpt>
<trkpt lat="52.920303" lon="-3.115712"><ele>338</ele><time>2019-09-27T10:43:40Z</time><name>PT3208</name></trkpt>
<trkpt lat="52.920295" lon="-3.115729"><ele>338</ele><time>2019-09-27T10:43:41Z</time><name>PT3209</name></trkpt>
<trkpt lat="52.920290" lon="-3.115738"><ele>338</ele><time>2019-09-27T10:43:42Z</time><name>PT3210</name></trkpt>
<trkpt lat="52.920285" lon="-3.115747"><ele>338</ele><time>2019-09-27T10:43:43Z</time><name>PT3211</name></trkpt>
<trkpt lat="52.920279" lon="-3.115757"><ele>338</ele><time>2019-09-27T10:43:44Z</time><name>PT3212</name></trkpt>
<trkpt lat="52.920274" lon="-3.115769"><ele>338</ele><time>2019-09-27T10:43:45Z</time><name>PT3213</name></trkpt>
<trkpt lat="52.920269" lon="-3.115781"><ele>338</ele><time>2019-09-27T10:43:46Z</time><name>PT3214</name></trkpt>
<trkpt lat="52.920262" lon="-3.115792"><ele>339</ele><time>2019-09-27T10:43:47Z</time><name>PT3215</name></trkpt>
<trkpt lat="52.920256" lon="-3.115803"><ele>339</ele><time>2019-09-27T10:43:48Z</time><name>PT3216</name></trkpt>
<trkpt lat="52.920250" lon="-3.115819"><ele>339</ele><time>2019-09-27T10:43:49Z</time><name>PT3217</name></trkpt>
<trkpt lat="52.920246" lon="-3.115833"><ele>339</ele><time>2019-09-27T10:43:50Z</time><name>PT3218</name></trkpt>
<trkpt lat="52.920240" lon="-3.115847"><ele>339</ele><time>2019-09-27T10:43:51Z</time><name>PT3219</name></trkpt>
<trkpt lat="52.920234" lon="-3.115857"><ele>339</ele><time>2019-09-27T10:43:52Z</time><name>PT3220</name></trkpt>
<trkpt lat="52.920231" lon="-3.115865"><ele>338</ele><time>2019-09-27T10:43:53Z</time><name>PT3221</name></trkpt>
<trkpt lat="52.920224" lon="-3.115880"><ele>338</ele><time>2019-09-27T10:43:54Z</time><name>PT3222</name></trkpt>
<trkpt lat="52.920218" lon="-3.115893"><ele>337</ele><time>2019-09-27T10:43:55Z</time><name>PT3223</name></trkpt>
<trkpt lat="52.920214" lon="-3.115903"><ele>337</ele><time>2019-09-27T10:43:56Z</time><name>PT3224</name></trkpt>
<trkpt lat="52.920206" lon="-3.115907"><ele>337</ele><time>2019-09-27T10:43:57Z</time><name>PT3225</name></trkpt>
<trkpt lat="52.920202" lon="-3.115919"><ele>336</ele><time>2019-09-27T10:43:58Z</time><name>PT3226</name></trkpt>
<trkpt lat="52.920198" lon="-3.115929"><ele>336</ele><time>2019-09-27T10:43:59Z</time><name>PT3227</name></trkpt>
<trkpt lat="52.920189" lon="-3.115941"><ele>337</ele><time>2019-09-27T10:44:00Z</time><name>PT3228</name></trkpt>
<trkpt lat="52.920180" lon="-3.115959"><ele>337</ele><time>2019-09-27T10:44:01Z</time><name>PT3229</name></trkpt>
<trkpt lat="52.920167" lon="-3.115971"><ele>338</ele><time>2019-09-27T10:44:02Z</time><name>PT3230</name></trkpt>
<trkpt lat="52.920158" lon="-3.115985"><ele>338</ele><time>2019-09-27T10:44:03Z</time><name>PT3231</name></trkpt>
<trkpt lat="52.920151" lon="-3.116001"><ele>339</ele><time>2019-09-27T10:44:04Z</time><name>PT3232</name></trkpt>
<trkpt lat="52.920143" lon="-3.116019"><ele>339</ele><time>2019-09-27T10:44:05Z</time><name>PT3233</name></trkpt>
<trkpt lat="52.920138" lon="-3.116034"><ele>340</ele><time>2019-09-27T10:44:06Z</time><name>PT3234</name></trkpt>
<trkpt lat="52.920128" lon="-3.116055"><ele>340</ele><time>2019-09-27T10:44:07Z</time><name>PT3235</name></trkpt>
<trkpt lat="52.920118" lon="-3.116073"><ele>340</ele><time>2019-09-27T10:44:08Z</time><name>PT3236</name></trkpt>
<trkpt lat="52.920110" lon="-3.116088"><ele>341</ele><time>2019-09-27T10:44:09Z</time><name>PT3237</name></trkpt>
<trkpt lat="52.920107" lon="-3.116111"><ele>342</ele><time>2019-09-27T10:44:10Z</time><name>PT3238</name></trkpt>
<trkpt lat="52.920099" lon="-3.116128"><ele>341</ele><time>2019-09-27T10:44:11Z</time><name>PT3239</name></trkpt>
<trkpt lat="52.920090" lon="-3.116143"><ele>342</ele><time>2019-09-27T10:44:12Z</time><name>PT3240</name></trkpt>
<trkpt lat="52.920090" lon="-3.116160"><ele>342</ele><time>2019-09-27T10:44:13Z</time><name>PT3241</name></trkpt>
<trkpt lat="52.920085" lon="-3.116177"><ele>342</ele><time>2019-09-27T10:44:14Z</time><name>PT3242</name></trkpt>
<trkpt lat="52.920078" lon="-3.116190"><ele>341</ele><time>2019-09-27T10:44:15Z</time><name>PT3243</name></trkpt>
<trkpt lat="52.920068" lon="-3.116207"><ele>342</ele><time>2019-09-27T10:44:16Z</time><name>PT3244</name></trkpt>
<trkpt lat="52.920059" lon="-3.116221"><ele>342</ele><time>2019-09-27T10:44:17Z</time><name>PT3245</name></trkpt>
<trkpt lat="52.920051" lon="-3.116235"><ele>342</ele><time>2019-09-27T10:44:18Z</time><name>PT3246</name></trkpt>
<trkpt lat="52.920039" lon="-3.116254"><ele>342</ele><time>2019-09-27T10:44:19Z</time><name>PT3247</name></trkpt>
<trkpt lat="52.920020" lon="-3.116284"><ele>343</ele><time>2019-09-27T10:44:21Z</time><name>PT3248</name></trkpt>
<trkpt lat="52.920011" lon="-3.116301"><ele>343</ele><time>2019-09-27T10:44:22Z</time><name>PT3249</name></trkpt>
<trkpt lat="52.920002" lon="-3.116314"><ele>343</ele><time>2019-09-27T10:44:23Z</time><name>PT3250</name></trkpt>
<trkpt lat="52.919995" lon="-3.116330"><ele>343</ele><time>2019-09-27T10:44:24Z</time><name>PT3251</name></trkpt>
<trkpt lat="52.919989" lon="-3.116342"><ele>342</ele><time>2019-09-27T10:44:25Z</time><name>PT3252</name></trkpt>
<trkpt lat="52.919977" lon="-3.116356"><ele>342</ele><time>2019-09-27T10:44:26Z</time><name>PT3253</name></trkpt>
<trkpt lat="52.919965" lon="-3.116371"><ele>342</ele><time>2019-09-27T10:44:27Z</time><name>PT3254</name></trkpt>
<trkpt lat="52.919956" lon="-3.116387"><ele>342</ele><time>2019-09-27T10:44:28Z</time><name>PT3255</name></trkpt>
<trkpt lat="52.919946" lon="-3.116407"><ele>343</ele><time>2019-09-27T10:44:29Z</time><name>PT3256</name></trkpt>
<trkpt lat="52.919937" lon="-3.116421"><ele>344</ele><time>2019-09-27T10:44:30Z</time><name>PT3257</name></trkpt>
<trkpt lat="52.919929" lon="-3.116436"><ele>344</ele><time>2019-09-27T10:44:31Z</time><name>PT3258</name></trkpt>
<trkpt lat="52.919919" lon="-3.116452"><ele>344</ele><time>2019-09-27T10:44:32Z</time><name>PT3259</name></trkpt>
<trkpt lat="52.919913" lon="-3.116468"><ele>344</ele><time>2019-09-27T10:44:33Z</time><name>PT3260</name></trkpt>
<trkpt lat="52.919904" lon="-3.116487"><ele>345</ele><time>2019-09-27T10:44:34Z</time><name>PT3261</name></trkpt>
<trkpt lat="52.919894" lon="-3.116505"><ele>345</ele><time>2019-09-27T10:44:35Z</time><name>PT3262</name></trkpt>
<trkpt lat="52.919884" lon="-3.116518"><ele>345</ele><time>2019-09-27T10:44:36Z</time><name>PT3263</name></trkpt>
<trkpt lat="52.919876" lon="-3.116529"><ele>345</ele><time>2019-09-27T10:44:37Z</time><name>PT3264</name></trkpt>
<trkpt lat="52.919868" lon="-3.116544"><ele>346</ele><time>2019-09-27T10:44:38Z</time><name>PT3265</name></trkpt>
<trkpt lat="52.919860" lon="-3.116555"><ele>346</ele><time>2019-09-27T10:44:39Z</time><name>PT3266</name></trkpt>
<trkpt lat="52.919852" lon="-3.116572"><ele>346</ele><time>2019-09-27T10:44:40Z</time><name>PT3267</name></trkpt>
<trkpt lat="52.919844" lon="-3.116589"><ele>345</ele><time>2019-09-27T10:44:41Z</time><name>PT3268</name></trkpt>
<trkpt lat="52.919836" lon="-3.116599"><ele>345</ele><time>2019-09-27T10:44:42Z</time><name>PT3269</name></trkpt>
<trkpt lat="52.919828" lon="-3.116612"><ele>345</ele><time>2019-09-27T10:44:43Z</time><name>PT3270</name></trkpt>
<trkpt lat="52.919821" lon="-3.116630"><ele>345</ele><time>2019-09-27T10:44:44Z</time><name>PT3271</name></trkpt>
<trkpt lat="52.919816" lon="-3.116644"><ele>345</ele><time>2019-09-27T10:44:45Z</time><name>PT3272</name></trkpt>
<trkpt lat="52.919808" lon="-3.116661"><ele>345</ele><time>2019-09-27T10:44:46Z</time><name>PT3273</name></trkpt>
<trkpt lat="52.919797" lon="-3.116676"><ele>345</ele><time>2019-09-27T10:44:47Z</time><name>PT3274</name></trkpt>
<trkpt lat="52.919789" lon="-3.116689"><ele>345</ele><time>2019-09-27T10:44:48Z</time><name>PT3275</name></trkpt>
<trkpt lat="52.919781" lon="-3.116704"><ele>346</ele><time>2019-09-27T10:44:49Z</time><name>PT3276</name></trkpt>
<trkpt lat="52.919775" lon="-3.116715"><ele>346</ele><time>2019-09-27T10:44:50Z</time><name>PT3277</name></trkpt>
<trkpt lat="52.919768" lon="-3.116729"><ele>346</ele><time>2019-09-27T10:44:51Z</time><name>PT3278</name></trkpt>
<trkpt lat="52.919761" lon="-3.116744"><ele>347</ele><time>2019-09-27T10:44:52Z</time><name>PT3279</name></trkpt>
<trkpt lat="52.919754" lon="-3.116760"><ele>348</ele><time>2019-09-27T10:44:53Z</time><name>PT3280</name></trkpt>
<trkpt lat="52.919746" lon="-3.116777"><ele>347</ele><time>2019-09-27T10:44:54Z</time><name>PT3281</name></trkpt>
<trkpt lat="52.919738" lon="-3.116791"><ele>348</ele><time>2019-09-27T10:44:55Z</time><name>PT3282</name></trkpt>
<trkpt lat="52.919730" lon="-3.116811"><ele>347</ele><time>2019-09-27T10:44:56Z</time><name>PT3283</name></trkpt>
<trkpt lat="52.919723" lon="-3.116829"><ele>347</ele><time>2019-09-27T10:44:57Z</time><name>PT3284</name></trkpt>
<trkpt lat="52.919714" lon="-3.116844"><ele>347</ele><time>2019-09-27T10:44:58Z</time><name>PT3285</name></trkpt>
<trkpt lat="52.919705" lon="-3.116857"><ele>346</ele><time>2019-09-27T10:44:59Z</time><name>PT3286</name></trkpt>
<trkpt lat="52.919697" lon="-3.116869"><ele>346</ele><time>2019-09-27T10:45:00Z</time><name>PT3287</name></trkpt>
<trkpt lat="52.919688" lon="-3.116884"><ele>346</ele><time>2019-09-27T10:45:01Z</time><name>PT3288</name></trkpt>
<trkpt lat="52.919679" lon="-3.116901"><ele>346</ele><time>2019-09-27T10:45:02Z</time><name>PT3289</name></trkpt>
<trkpt lat="52.919671" lon="-3.116914"><ele>346</ele><time>2019-09-27T10:45:03Z</time><name>PT3290</name></trkpt>
<trkpt lat="52.919663" lon="-3.116930"><ele>346</ele><time>2019-09-27T10:45:04Z</time><name>PT3291</name></trkpt>
<trkpt lat="52.919646" lon="-3.116968"><ele>348</ele><time>2019-09-27T10:45:06Z</time><name>PT3292</name></trkpt>
<trkpt lat="52.919638" lon="-3.116984"><ele>348</ele><time>2019-09-27T10:45:07Z</time><name>PT3293</name></trkpt>
<trkpt lat="52.919632" lon="-3.116995"><ele>348</ele><time>2019-09-27T10:45:08Z</time><name>PT3294</name></trkpt>
<trkpt lat="52.919623" lon="-3.117008"><ele>348</ele><time>2019-09-27T10:45:09Z</time><name>PT3295</name></trkpt>
<trkpt lat="52.919615" lon="-3.117023"><ele>348</ele><time>2019-09-27T10:45:10Z</time><name>PT3296</name></trkpt>
<trkpt lat="52.919608" lon="-3.117036"><ele>348</ele><time>2019-09-27T10:45:11Z</time><name>PT3297</name></trkpt>
<trkpt lat="52.919597" lon="-3.117053"><ele>348</ele><time>2019-09-27T10:45:12Z</time><name>PT3298</name></trkpt>
<trkpt lat="52.919589" lon="-3.117068"><ele>348</ele><time>2019-09-27T10:45:13Z</time><name>PT3299</name></trkpt>
<trkpt lat="52.919579" lon="-3.117081"><ele>348</ele><time>2019-09-27T10:45:14Z</time><name>PT3300</name></trkpt>
<trkpt lat="52.919572" lon="-3.117096"><ele>348</ele><time>2019-09-27T10:45:15Z</time><name>PT3301</name></trkpt>
<trkpt lat="52.919566" lon="-3.117111"><ele>348</ele><time>2019-09-27T10:45:16Z</time><name>PT3302</name></trkpt>
<trkpt lat="52.919559" lon="-3.117129"><ele>347</ele><time>2019-09-27T10:45:17Z</time><name>PT3303</name></trkpt>
<trkpt lat="52.919552" lon="-3.117147"><ele>347</ele><time>2019-09-27T10:45:18Z</time><name>PT3304</name></trkpt>
<trkpt lat="52.919541" lon="-3.117158"><ele>347</ele><time>2019-09-27T10:45:19Z</time><name>PT3305</name></trkpt>
<trkpt lat="52.919527" lon="-3.117167"><ele>348</ele><time>2019-09-27T10:45:20Z</time><name>PT3306</name></trkpt>
<trkpt lat="52.919520" lon="-3.117176"><ele>348</ele><time>2019-09-27T10:45:21Z</time><name>PT3307</name></trkpt>
<trkpt lat="52.919511" lon="-3.117191"><ele>348</ele><time>2019-09-27T10:45:22Z</time><name>PT3308</name></trkpt>
<trkpt lat="52.919503" lon="-3.117203"><ele>348</ele><time>2019-09-27T10:45:23Z</time><name>PT3309</name></trkpt>
<trkpt lat="52.919494" lon="-3.117214"><ele>348</ele><time>2019-09-27T10:45:24Z</time><name>PT3310</name></trkpt>
<trkpt lat="52.919484" lon="-3.117226"><ele>347</ele><time>2019-09-27T10:45:25Z</time><name>PT3311</name></trkpt>
<trkpt lat="52.919474" lon="-3.117243"><ele>348</ele><time>2019-09-27T10:45:26Z</time><name>PT3312</name></trkpt>
<trkpt lat="52.919467" lon="-3.117255"><ele>348</ele><time>2019-09-27T10:45:27Z</time><name>PT3313</name></trkpt>
<trkpt lat="52.919458" lon="-3.117263"><ele>348</ele><time>2019-09-27T10:45:28Z</time><name>PT3314</name></trkpt>
<trkpt lat="52.919448" lon="-3.117271"><ele>348</ele><time>2019-09-27T10:45:29Z</time><name>PT3315</name></trkpt>
<trkpt lat="52.919441" lon="-3.117284"><ele>349</ele><time>2019-09-27T10:45:30Z</time><name>PT3316</name></trkpt>
<trkpt lat="52.919435" lon="-3.117300"><ele>348</ele><time>2019-09-27T10:45:31Z</time><name>PT3317</name></trkpt>
<trkpt lat="52.919426" lon="-3.117313"><ele>348</ele><time>2019-09-27T10:45:32Z</time><name>PT3318</name></trkpt>
<trkpt lat="52.919417" lon="-3.117323"><ele>348</ele><time>2019-09-27T10:45:33Z</time><name>PT3319</name></trkpt>
<trkpt lat="52.919410" lon="-3.117337"><ele>348</ele><time>2019-09-27T10:45:34Z</time><name>PT3320</name></trkpt>
<trkpt lat="52.919403" lon="-3.117352"><ele>348</ele><time>2019-09-27T10:45:35Z</time><name>PT3321</name></trkpt>
<trkpt lat="52.919397" lon="-3.117369"><ele>348</ele><time>2019-09-27T10:45:36Z</time><name>PT3322</name></trkpt>
<trkpt lat="52.919392" lon="-3.117379"><ele>348</ele><time>2019-09-27T10:45:37Z</time><name>PT3323</name></trkpt>
<trkpt lat="52.919383" lon="-3.117393"><ele>348</ele><time>2019-09-27T10:45:38Z</time><name>PT3324</name></trkpt>
<trkpt lat="52.919377" lon="-3.117403"><ele>348</ele><time>2019-09-27T10:45:39Z</time><name>PT3325</name></trkpt>
<trkpt lat="52.919370" lon="-3.117417"><ele>348</ele><time>2019-09-27T10:45:40Z</time><name>PT3326</name></trkpt>
<trkpt lat="52.919363" lon="-3.117429"><ele>348</ele><time>2019-09-27T10:45:41Z</time><name>PT3327</name></trkpt>
<trkpt lat="52.919354" lon="-3.117438"><ele>348</ele><time>2019-09-27T10:45:42Z</time><name>PT3328</name></trkpt>
<trkpt lat="52.919347" lon="-3.117448"><ele>348</ele><time>2019-09-27T10:45:43Z</time><name>PT3329</name></trkpt>
<trkpt lat="52.919339" lon="-3.117460"><ele>348</ele><time>2019-09-27T10:45:44Z</time><name>PT3330</name></trkpt>
<trkpt lat="52.919331" lon="-3.117475"><ele>349</ele><time>2019-09-27T10:45:45Z</time><name>PT3331</name></trkpt>
<trkpt lat="52.919324" lon="-3.117488"><ele>349</ele><time>2019-09-27T10:45:46Z</time><name>PT3332</name></trkpt>
<trkpt lat="52.919315" lon="-3.117501"><ele>349</ele><time>2019-09-27T10:45:47Z</time><name>PT3333</name></trkpt>
<trkpt lat="52.919306" lon="-3.117515"><ele>349</ele><time>2019-09-27T10:45:48Z</time><name>PT3334</name></trkpt>
<trkpt lat="52.919299" lon="-3.117528"><ele>349</ele><time>2019-09-27T10:45:49Z</time><name>PT3335</name></trkpt>
<trkpt lat="52.919292" lon="-3.117542"><ele>349</ele><time>2019-09-27T10:45:50Z</time><name>PT3336</name></trkpt>
<trkpt lat="52.919285" lon="-3.117550"><ele>349</ele><time>2019-09-27T10:45:51Z</time><name>PT3337</name></trkpt>
<trkpt lat="52.919275" lon="-3.117562"><ele>349</ele><time>2019-09-27T10:45:52Z</time><name>PT3338</name></trkpt>
<trkpt lat="52.919269" lon="-3.117576"><ele>349</ele><time>2019-09-27T10:45:53Z</time><name>PT3339</name></trkpt>
<trkpt lat="52.919263" lon="-3.117584"><ele>349</ele><time>2019-09-27T10:45:54Z</time><name>PT3340</name></trkpt>
<trkpt lat="52.919256" lon="-3.117598"><ele>349</ele><time>2019-09-27T10:45:55Z</time><name>PT3341</name></trkpt>
<trkpt lat="52.919251" lon="-3.117610"><ele>349</ele><time>2019-09-27T10:45:56Z</time><name>PT3342</name></trkpt>
<trkpt lat="52.919242" lon="-3.117622"><ele>349</ele><time>2019-09-27T10:45:57Z</time><name>PT3343</name></trkpt>
<trkpt lat="52.919232" lon="-3.117633"><ele>349</ele><time>2019-09-27T10:45:58Z</time><name>PT3344</name></trkpt>
<trkpt lat="52.919222" lon="-3.117646"><ele>349</ele><time>2019-09-27T10:45:59Z</time><name>PT3345</name></trkpt>
<trkpt lat="52.919212" lon="-3.117659"><ele>349</ele><time>2019-09-27T10:46:00Z</time><name>PT3346</name></trkpt>
<trkpt lat="52.919203" lon="-3.117677"><ele>349</ele><time>2019-09-27T10:46:01Z</time><name>PT3347</name></trkpt>
<trkpt lat="52.919195" lon="-3.117690"><ele>349</ele><time>2019-09-27T10:46:02Z</time><name>PT3348</name></trkpt>
<trkpt lat="52.919184" lon="-3.117701"><ele>350</ele><time>2019-09-27T10:46:03Z</time><name>PT3349</name></trkpt>
<trkpt lat="52.919172" lon="-3.117713"><ele>350</ele><time>2019-09-27T10:46:04Z</time><name>PT3350</name></trkpt>
<trkpt lat="52.919166" lon="-3.117725"><ele>350</ele><time>2019-09-27T10:46:05Z</time><name>PT3351</name></trkpt>
<trkpt lat="52.919158" lon="-3.117737"><ele>351</ele><time>2019-09-27T10:46:06Z</time><name>PT3352</name></trkpt>
<trkpt lat="52.919148" lon="-3.117749"><ele>351</ele><time>2019-09-27T10:46:07Z</time><name>PT3353</name></trkpt>
<trkpt lat="52.919138" lon="-3.117759"><ele>351</ele><time>2019-09-27T10:46:08Z</time><name>PT3354</name></trkpt>
<trkpt lat="52.919128" lon="-3.117772"><ele>350</ele><time>2019-09-27T10:46:09Z</time><name>PT3355</name></trkpt>
<trkpt lat="52.919117" lon="-3.117786"><ele>351</ele><time>2019-09-27T10:46:10Z</time><name>PT3356</name></trkpt>
<trkpt lat="52.919106" lon="-3.117798"><ele>351</ele><time>2019-09-27T10:46:11Z</time><name>PT3357</name></trkpt>
<trkpt lat="52.919096" lon="-3.117813"><ele>351</ele><time>2019-09-27T10:46:12Z</time><name>PT3358</name></trkpt>
<trkpt lat="52.919089" lon="-3.117826"><ele>351</ele><time>2019-09-27T10:46:13Z</time><name>PT3359</name></trkpt>
<trkpt lat="52.919079" lon="-3.117835"><ele>350</ele><time>2019-09-27T10:46:14Z</time><name>PT3360</name></trkpt>
<trkpt lat="52.919070" lon="-3.117845"><ele>350</ele><time>2019-09-27T10:46:15Z</time><name>PT3361</name></trkpt>
<trkpt lat="52.919062" lon="-3.117859"><ele>350</ele><time>2019-09-27T10:46:16Z</time><name>PT3362</name></trkpt>
<trkpt lat="52.919054" lon="-3.117872"><ele>350</ele><time>2019-09-27T10:46:17Z</time><name>PT3363</name></trkpt>
<trkpt lat="52.919047" lon="-3.117884"><ele>350</ele><time>2019-09-27T10:46:18Z</time><name>PT3364</name></trkpt>
<trkpt lat="52.919040" lon="-3.117897"><ele>350</ele><time>2019-09-27T10:46:19Z</time><name>PT3365</name></trkpt>
<trkpt lat="52.919031" lon="-3.117909"><ele>350</ele><time>2019-09-27T10:46:20Z</time><name>PT3366</name></trkpt>
<trkpt lat="52.919025" lon="-3.117920"><ele>350</ele><time>2019-09-27T10:46:21Z</time><name>PT3367</name></trkpt>
<trkpt lat="52.919020" lon="-3.117936"><ele>349</ele><time>2019-09-27T10:46:22Z</time><name>PT3368</name></trkpt>
<trkpt lat="52.919013" lon="-3.117947"><ele>349</ele><time>2019-09-27T10:46:23Z</time><name>PT3369</name></trkpt>
<trkpt lat="52.919004" lon="-3.117959"><ele>349</ele><time>2019-09-27T10:46:24Z</time><name>PT3370</name></trkpt>
<trkpt lat="52.918995" lon="-3.117971"><ele>348</ele><time>2019-09-27T10:46:25Z</time><name>PT3371</name></trkpt>
<trkpt lat="52.918989" lon="-3.117985"><ele>349</ele><time>2019-09-27T10:46:26Z</time><name>PT3372</name></trkpt>
<trkpt lat="52.918981" lon="-3.118001"><ele>349</ele><time>2019-09-27T10:46:27Z</time><name>PT3373</name></trkpt>
<trkpt lat="52.918975" lon="-3.118014"><ele>349</ele><time>2019-09-27T10:46:28Z</time><name>PT3374</name></trkpt>
<trkpt lat="52.918966" lon="-3.118025"><ele>349</ele><time>2019-09-27T10:46:29Z</time><name>PT3375</name></trkpt>
<trkpt lat="52.918958" lon="-3.118033"><ele>349</ele><time>2019-09-27T10:46:30Z</time><name>PT3376</name></trkpt>
<trkpt lat="52.918949" lon="-3.118046"><ele>349</ele><time>2019-09-27T10:46:31Z</time><name>PT3377</name></trkpt>
<trkpt lat="52.918941" lon="-3.118058"><ele>349</ele><time>2019-09-27T10:46:32Z</time><name>PT3378</name></trkpt>
<trkpt lat="52.918933" lon="-3.118070"><ele>349</ele><time>2019-09-27T10:46:33Z</time><name>PT3379</name></trkpt>
<trkpt lat="52.918925" lon="-3.118082"><ele>349</ele><time>2019-09-27T10:46:34Z</time><name>PT3380</name></trkpt>
<trkpt lat="52.918918" lon="-3.118093"><ele>349</ele><time>2019-09-27T10:46:35Z</time><name>PT3381</name></trkpt>
<trkpt lat="52.918907" lon="-3.118109"><ele>350</ele><time>2019-09-27T10:46:36Z</time><name>PT3382</name></trkpt>
<trkpt lat="52.918899" lon="-3.118121"><ele>350</ele><time>2019-09-27T10:46:37Z</time><name>PT3383</name></trkpt>
<trkpt lat="52.918889" lon="-3.118129"><ele>350</ele><time>2019-09-27T10:46:38Z</time><name>PT3384</name></trkpt>
<trkpt lat="52.918878" lon="-3.118141"><ele>349</ele><time>2019-09-27T10:46:39Z</time><name>PT3385</name></trkpt>
<trkpt lat="52.918871" lon="-3.118153"><ele>349</ele><time>2019-09-27T10:46:40Z</time><name>PT3386</name></trkpt>
<trkpt lat="52.918862" lon="-3.118168"><ele>349</ele><time>2019-09-27T10:46:41Z</time><name>PT3387</name></trkpt>
<trkpt lat="52.918852" lon="-3.118181"><ele>349</ele><time>2019-09-27T10:46:42Z</time><name>PT3388</name></trkpt>
<trkpt lat="52.918844" lon="-3.118193"><ele>349</ele><time>2019-09-27T10:46:43Z</time><name>PT3389</name></trkpt>
<trkpt lat="52.918833" lon="-3.118205"><ele>349</ele><time>2019-09-27T10:46:44Z</time><name>PT3390</name></trkpt>
<trkpt lat="52.918825" lon="-3.118218"><ele>349</ele><time>2019-09-27T10:46:45Z</time><name>PT3391</name></trkpt>
<trkpt lat="52.918816" lon="-3.118235"><ele>349</ele><time>2019-09-27T10:46:46Z</time><name>PT3392</name></trkpt>
<trkpt lat="52.918806" lon="-3.118247"><ele>349</ele><time>2019-09-27T10:46:47Z</time><name>PT3393</name></trkpt>
<trkpt lat="52.918795" lon="-3.118257"><ele>349</ele><time>2019-09-27T10:46:48Z</time><name>PT3394</name></trkpt>
<trkpt lat="52.918786" lon="-3.118269"><ele>350</ele><time>2019-09-27T10:46:49Z</time><name>PT3395</name></trkpt>
<trkpt lat="52.918778" lon="-3.118282"><ele>350</ele><time>2019-09-27T10:46:50Z</time><name>PT3396</name></trkpt>
<trkpt lat="52.918770" lon="-3.118297"><ele>350</ele><time>2019-09-27T10:46:51Z</time><name>PT3397</name></trkpt>
<trkpt lat="52.918759" lon="-3.118310"><ele>350</ele><time>2019-09-27T10:46:52Z</time><name>PT3398</name></trkpt>
<trkpt lat="52.918750" lon="-3.118322"><ele>351</ele><time>2019-09-27T10:46:53Z</time><name>PT3399</name></trkpt>
<trkpt lat="52.918740" lon="-3.118334"><ele>351</ele><time>2019-09-27T10:46:54Z</time><name>PT3400</name></trkpt>
<trkpt lat="52.918731" lon="-3.118346"><ele>352</ele><time>2019-09-27T10:46:55Z</time><name>PT3401</name></trkpt>
<trkpt lat="52.918723" lon="-3.118362"><ele>352</ele><time>2019-09-27T10:46:56Z</time><name>PT3402</name></trkpt>
<trkpt lat="52.918715" lon="-3.118376"><ele>352</ele><time>2019-09-27T10:46:57Z</time><name>PT3403</name></trkpt>
<trkpt lat="52.918705" lon="-3.118384"><ele>352</ele><time>2019-09-27T10:46:58Z</time><name>PT3404</name></trkpt>
<trkpt lat="52.918695" lon="-3.118396"><ele>352</ele><time>2019-09-27T10:46:59Z</time><name>PT3405</name></trkpt>
<trkpt lat="52.918686" lon="-3.118411"><ele>352</ele><time>2019-09-27T10:47:00Z</time><name>PT3406</name></trkpt>
<trkpt lat="52.918678" lon="-3.118427"><ele>352</ele><time>2019-09-27T10:47:01Z</time><name>PT3407</name></trkpt>
<trkpt lat="52.918667" lon="-3.118443"><ele>352</ele><time>2019-09-27T10:47:02Z</time><name>PT3408</name></trkpt>
<trkpt lat="52.918661" lon="-3.118453"><ele>353</ele><time>2019-09-27T10:47:03Z</time><name>PT3409</name></trkpt>
<trkpt lat="52.918651" lon="-3.118465"><ele>353</ele><time>2019-09-27T10:47:04Z</time><name>PT3410</name></trkpt>
<trkpt lat="52.918641" lon="-3.118480"><ele>353</ele><time>2019-09-27T10:47:05Z</time><name>PT3411</name></trkpt>
<trkpt lat="52.918632" lon="-3.118493"><ele>353</ele><time>2019-09-27T10:47:06Z</time><name>PT3412</name></trkpt>
<trkpt lat="52.918623" lon="-3.118505"><ele>353</ele><time>2019-09-27T10:47:07Z</time><name>PT3413</name></trkpt>
<trkpt lat="52.918614" lon="-3.118518"><ele>353</ele><time>2019-09-27T10:47:08Z</time><name>PT3414</name></trkpt>
<trkpt lat="52.918607" lon="-3.118530"><ele>353</ele><time>2019-09-27T10:47:09Z</time><name>PT3415</name></trkpt>
<trkpt lat="52.918599" lon="-3.118540"><ele>354</ele><time>2019-09-27T10:47:10Z</time><name>PT3416</name></trkpt>
<trkpt lat="52.918589" lon="-3.118551"><ele>354</ele><time>2019-09-27T10:47:11Z</time><name>PT3417</name></trkpt>
<trkpt lat="52.918581" lon="-3.118563"><ele>354</ele><time>2019-09-27T10:47:12Z</time><name>PT3418</name></trkpt>
<trkpt lat="52.918573" lon="-3.118575"><ele>354</ele><time>2019-09-27T10:47:13Z</time><name>PT3419</name></trkpt>
<trkpt lat="52.918565" lon="-3.118587"><ele>354</ele><time>2019-09-27T10:47:14Z</time><name>PT3420</name></trkpt>
<trkpt lat="52.918556" lon="-3.118597"><ele>354</ele><time>2019-09-27T10:47:15Z</time><name>PT3421</name></trkpt>
<trkpt lat="52.918548" lon="-3.118609"><ele>354</ele><time>2019-09-27T10:47:16Z</time><name>PT3422</name></trkpt>
<trkpt lat="52.918542" lon="-3.118622"><ele>354</ele><time>2019-09-27T10:47:17Z</time><name>PT3423</name></trkpt>
<trkpt lat="52.918534" lon="-3.118635"><ele>354</ele><time>2019-09-27T10:47:18Z</time><name>PT3424</name></trkpt>
<trkpt lat="52.918528" lon="-3.118646"><ele>354</ele><time>2019-09-27T10:47:19Z</time><name>PT3425</name></trkpt>
<trkpt lat="52.918518" lon="-3.118656"><ele>354</ele><time>2019-09-27T10:47:20Z</time><name>PT3426</name></trkpt>
<trkpt lat="52.918511" lon="-3.118669"><ele>354</ele><time>2019-09-27T10:47:21Z</time><name>PT3427</name></trkpt>
<trkpt lat="52.918504" lon="-3.118680"><ele>354</ele><time>2019-09-27T10:47:22Z</time><name>PT3428</name></trkpt>
<trkpt lat="52.918495" lon="-3.118694"><ele>354</ele><time>2019-09-27T10:47:23Z</time><name>PT3429</name></trkpt>
<trkpt lat="52.918486" lon="-3.118707"><ele>355</ele><time>2019-09-27T10:47:24Z</time><name>PT3430</name></trkpt>
<trkpt lat="52.918477" lon="-3.118721"><ele>355</ele><time>2019-09-27T10:47:25Z</time><name>PT3431</name></trkpt>
<trkpt lat="52.918470" lon="-3.118734"><ele>355</ele><time>2019-09-27T10:47:26Z</time><name>PT3432</name></trkpt>
<trkpt lat="52.918462" lon="-3.118748"><ele>355</ele><time>2019-09-27T10:47:27Z</time><name>PT3433</name></trkpt>
<trkpt lat="52.918454" lon="-3.118765"><ele>355</ele><time>2019-09-27T10:47:28Z</time><name>PT3434</name></trkpt>
<trkpt lat="52.918446" lon="-3.118775"><ele>355</ele><time>2019-09-27T10:47:29Z</time><name>PT3435</name></trkpt>
<trkpt lat="52.918436" lon="-3.118787"><ele>355</ele><time>2019-09-27T10:47:30Z</time><name>PT3436</name></trkpt>
<trkpt lat="52.918423" lon="-3.118799"><ele>356</ele><time>2019-09-27T10:47:31Z</time><name>PT3437</name></trkpt>
<trkpt lat="52.918416" lon="-3.118811"><ele>355</ele><time>2019-09-27T10:47:32Z</time><name>PT3438</name></trkpt>
<trkpt lat="52.918408" lon="-3.118826"><ele>355</ele><time>2019-09-27T10:47:33Z</time><name>PT3439</name></trkpt>
<trkpt lat="52.918401" lon="-3.118836"><ele>355</ele><time>2019-09-27T10:47:34Z</time><name>PT3440</name></trkpt>
<trkpt lat="52.918392" lon="-3.118848"><ele>356</ele><time>2019-09-27T10:47:35Z</time><name>PT3441</name></trkpt>
<trkpt lat="52.918383" lon="-3.118861"><ele>356</ele><time>2019-09-27T10:47:36Z</time><name>PT3442</name></trkpt>
<trkpt lat="52.918376" lon="-3.118875"><ele>356</ele><time>2019-09-27T10:47:37Z</time><name>PT3443</name></trkpt>
<trkpt lat="52.918370" lon="-3.118895"><ele>355</ele><time>2019-09-27T10:47:38Z</time><name>PT3444</name></trkpt>
<trkpt lat="52.918362" lon="-3.118909"><ele>354</ele><time>2019-09-27T10:47:39Z</time><name>PT3445</name></trkpt>
<trkpt lat="52.918354" lon="-3.118918"><ele>354</ele><time>2019-09-27T10:47:40Z</time><name>PT3446</name></trkpt>
<trkpt lat="52.918346" lon="-3.118926"><ele>355</ele><time>2019-09-27T10:47:41Z</time><name>PT3447</name></trkpt>
<trkpt lat="52.918337" lon="-3.118939"><ele>355</ele><time>2019-09-27T10:47:42Z</time><name>PT3448</name></trkpt>
<trkpt lat="52.918329" lon="-3.118952"><ele>355</ele><time>2019-09-27T10:47:43Z</time><name>PT3449</name></trkpt>
<trkpt lat="52.918323" lon="-3.118957"><ele>355</ele><time>2019-09-27T10:47:44Z</time><name>PT3450</name></trkpt>
<trkpt lat="52.918317" lon="-3.118967"><ele>356</ele><time>2019-09-27T10:47:45Z</time><name>PT3451</name></trkpt>
<trkpt lat="52.918310" lon="-3.118980"><ele>356</ele><time>2019-09-27T10:47:46Z</time><name>PT3452</name></trkpt>
<trkpt lat="52.918301" lon="-3.118994"><ele>356</ele><time>2019-09-27T10:47:47Z</time><name>PT3453</name></trkpt>
<trkpt lat="52.918291" lon="-3.119010"><ele>356</ele><time>2019-09-27T10:47:48Z</time><name>PT3454</name></trkpt>
<trkpt lat="52.918284" lon="-3.119021"><ele>356</ele><time>2019-09-27T10:47:49Z</time><name>PT3455</name></trkpt>
<trkpt lat="52.918276" lon="-3.119032"><ele>356</ele><time>2019-09-27T10:47:50Z</time><name>PT3456</name></trkpt>
<trkpt lat="52.918267" lon="-3.119043"><ele>356</ele><time>2019-09-27T10:47:51Z</time><name>PT3457</name></trkpt>
<trkpt lat="52.918260" lon="-3.119055"><ele>357</ele><time>2019-09-27T10:47:52Z</time><name>PT3458</name></trkpt>
<trkpt lat="52.918252" lon="-3.119068"><ele>357</ele><time>2019-09-27T10:47:53Z</time><name>PT3459</name></trkpt>
<trkpt lat="52.918246" lon="-3.119078"><ele>357</ele><time>2019-09-27T10:47:54Z</time><name>PT3460</name></trkpt>
<trkpt lat="52.918237" lon="-3.119090"><ele>357</ele><time>2019-09-27T10:47:55Z</time><name>PT3461</name></trkpt>
<trkpt lat="52.918229" lon="-3.119104"><ele>357</ele><time>2019-09-27T10:47:56Z</time><name>PT3462</name></trkpt>
<trkpt lat="52.918221" lon="-3.119116"><ele>357</ele><time>2019-09-27T10:47:57Z</time><name>PT3463</name></trkpt>
<trkpt lat="52.918212" lon="-3.119130"><ele>357</ele><time>2019-09-27T10:47:58Z</time><name>PT3464</name></trkpt>
<trkpt lat="52.918205" lon="-3.119140"><ele>357</ele><time>2019-09-27T10:47:59Z</time><name>PT3465</name></trkpt>
<trkpt lat="52.918197" lon="-3.119153"><ele>357</ele><time>2019-09-27T10:48:00Z</time><name>PT3466</name></trkpt>
<trkpt lat="52.918188" lon="-3.119163"><ele>358</ele><time>2019-09-27T10:48:01Z</time><name>PT3467</name></trkpt>
<trkpt lat="52.918180" lon="-3.119175"><ele>358</ele><time>2019-09-27T10:48:02Z</time><name>PT3468</name></trkpt>
<trkpt lat="52.918171" lon="-3.119189"><ele>358</ele><time>2019-09-27T10:48:03Z</time><name>PT3469</name></trkpt>
<trkpt lat="52.918162" lon="-3.119200"><ele>358</ele><time>2019-09-27T10:48:04Z</time><name>PT3470</name></trkpt>
<trkpt lat="52.918152" lon="-3.119209"><ele>358</ele><time>2019-09-27T10:48:05Z</time><name>PT3471</name></trkpt>
<trkpt lat="52.918144" lon="-3.119219"><ele>358</ele><time>2019-09-27T10:48:06Z</time><name>PT3472</name></trkpt>
<trkpt lat="52.918137" lon="-3.119233"><ele>358</ele><time>2019-09-27T10:48:07Z</time><name>PT3473</name></trkpt>
<trkpt lat="52.918129" lon="-3.119246"><ele>358</ele><time>2019-09-27T10:48:08Z</time><name>PT3474</name></trkpt>
<trkpt lat="52.918121" lon="-3.119258"><ele>358</ele><time>2019-09-27T10:48:09Z</time><name>PT3475</name></trkpt>
<trkpt lat="52.918113" lon="-3.119265"><ele>358</ele><time>2019-09-27T10:48:10Z</time><name>PT3476</name></trkpt>
<trkpt lat="52.918105" lon="-3.119275"><ele>358</ele><time>2019-09-27T10:48:11Z</time><name>PT3477</name></trkpt>
<trkpt lat="52.918097" lon="-3.119288"><ele>358</ele><time>2019-09-27T10:48:12Z</time><name>PT3478</name></trkpt>
<trkpt lat="52.918089" lon="-3.119303"><ele>358</ele><time>2019-09-27T10:48:13Z</time><name>PT3479</name></trkpt>
<trkpt lat="52.918081" lon="-3.119315"><ele>359</ele><time>2019-09-27T10:48:14Z</time><name>PT3480</name></trkpt>
<trkpt lat="52.918072" lon="-3.119328"><ele>358</ele><time>2019-09-27T10:48:15Z</time><name>PT3481</name></trkpt>
<trkpt lat="52.918066" lon="-3.119341"><ele>358</ele><time>2019-09-27T10:48:16Z</time><name>PT3482</name></trkpt>
<trkpt lat="52.918057" lon="-3.119355"><ele>358</ele><time>2019-09-27T10:48:17Z</time><name>PT3483</name></trkpt>
<trkpt lat="52.918049" lon="-3.119366"><ele>358</ele><time>2019-09-27T10:48:18Z</time><name>PT3484</name></trkpt>
<trkpt lat="52.918040" lon="-3.119379"><ele>359</ele><time>2019-09-27T10:48:19Z</time><name>PT3485</name></trkpt>
<trkpt lat="52.918032" lon="-3.119389"><ele>358</ele><time>2019-09-27T10:48:20Z</time><name>PT3486</name></trkpt>
<trkpt lat="52.918025" lon="-3.119403"><ele>358</ele><time>2019-09-27T10:48:21Z</time><name>PT3487</name></trkpt>
<trkpt lat="52.918017" lon="-3.119416"><ele>358</ele><time>2019-09-27T10:48:22Z</time><name>PT3488</name></trkpt>
<trkpt lat="52.918011" lon="-3.119429"><ele>359</ele><time>2019-09-27T10:48:23Z</time><name>PT3489</name></trkpt>
<trkpt lat="52.918003" lon="-3.119442"><ele>359</ele><time>2019-09-27T10:48:24Z</time><name>PT3490</name></trkpt>
<trkpt lat="52.917995" lon="-3.119454"><ele>359</ele><time>2019-09-27T10:48:25Z</time><name>PT3491</name></trkpt>
<trkpt lat="52.917986" lon="-3.119465"><ele>359</ele><time>2019-09-27T10:48:26Z</time><name>PT3492</name></trkpt>
<trkpt lat="52.917976" lon="-3.119478"><ele>359</ele><time>2019-09-27T10:48:27Z</time><name>PT3493</name></trkpt>
<trkpt lat="52.917966" lon="-3.119489"><ele>359</ele><time>2019-09-27T10:48:28Z</time><name>PT3494</name></trkpt>
<trkpt lat="52.917958" lon="-3.119502"><ele>359</ele><time>2019-09-27T10:48:29Z</time><name>PT3495</name></trkpt>
<trkpt lat="52.917951" lon="-3.119515"><ele>359</ele><time>2019-09-27T10:48:30Z</time><name>PT3496</name></trkpt>
<trkpt lat="52.917944" lon="-3.119528"><ele>359</ele><time>2019-09-27T10:48:31Z</time><name>PT3497</name></trkpt>
<trkpt lat="52.917938" lon="-3.119537"><ele>359</ele><time>2019-09-27T10:48:32Z</time><name>PT3498</name></trkpt>
<trkpt lat="52.917930" lon="-3.119548"><ele>359</ele><time>2019-09-27T10:48:33Z</time><name>PT3499</name></trkpt>
<trkpt lat="52.917924" lon="-3.119560"><ele>359</ele><time>2019-09-27T10:48:34Z</time><name>PT3500</name></trkpt>
<trkpt lat="52.917918" lon="-3.119572"><ele>359</ele><time>2019-09-27T10:48:35Z</time><name>PT3501</name></trkpt>
<trkpt lat="52.917908" lon="-3.119586"><ele>359</ele><time>2019-09-27T10:48:36Z</time><name>PT3502</name></trkpt>
<trkpt lat="52.917900" lon="-3.119596"><ele>359</ele><time>2019-09-27T10:48:37Z</time><name>PT3503</name></trkpt>
<trkpt lat="52.917892" lon="-3.119608"><ele>359</ele><time>2019-09-27T10:48:38Z</time><name>PT3504</name></trkpt>
<trkpt lat="52.917883" lon="-3.119622"><ele>359</ele><time>2019-09-27T10:48:39Z</time><name>PT3505</name></trkpt>
<trkpt lat="52.917875" lon="-3.119635"><ele>359</ele><time>2019-09-27T10:48:40Z</time><name>PT3506</name></trkpt>
<trkpt lat="52.917866" lon="-3.119649"><ele>359</ele><time>2019-09-27T10:48:41Z</time><name>PT3507</name></trkpt>
<trkpt lat="52.917858" lon="-3.119663"><ele>359</ele><time>2019-09-27T10:48:42Z</time><name>PT3508</name></trkpt>
<trkpt lat="52.917850" lon="-3.119674"><ele>359</ele><time>2019-09-27T10:48:43Z</time><name>PT3509</name></trkpt>
<trkpt lat="52.917841" lon="-3.119685"><ele>359</ele><time>2019-09-27T10:48:44Z</time><name>PT3510</name></trkpt>
<trkpt lat="52.917832" lon="-3.119699"><ele>360</ele><time>2019-09-27T10:48:45Z</time><name>PT3511</name></trkpt>
<trkpt lat="52.917823" lon="-3.119714"><ele>360</ele><time>2019-09-27T10:48:46Z</time><name>PT3512</name></trkpt>
<trkpt lat="52.917811" lon="-3.119727"><ele>360</ele><time>2019-09-27T10:48:47Z</time><name>PT3513</name></trkpt>
<trkpt lat="52.917801" lon="-3.119741"><ele>360</ele><time>2019-09-27T10:48:48Z</time><name>PT3514</name></trkpt>
<trkpt lat="52.917793" lon="-3.119755"><ele>360</ele><time>2019-09-27T10:48:49Z</time><name>PT3515</name></trkpt>
<trkpt lat="52.917784" lon="-3.119768"><ele>360</ele><time>2019-09-27T10:48:50Z</time><name>PT3516</name></trkpt>
<trkpt lat="52.917776" lon="-3.119782"><ele>361</ele><time>2019-09-27T10:48:51Z</time><name>PT3517</name></trkpt>
<trkpt lat="52.917766" lon="-3.119795"><ele>361</ele><time>2019-09-27T10:48:52Z</time><name>PT3518</name></trkpt>
<trkpt lat="52.917755" lon="-3.119806"><ele>361</ele><time>2019-09-27T10:48:53Z</time><name>PT3519</name></trkpt>
<trkpt lat="52.917743" lon="-3.119818"><ele>361</ele><time>2019-09-27T10:48:54Z</time><name>PT3520</name></trkpt>
<trkpt lat="52.917733" lon="-3.119832"><ele>361</ele><time>2019-09-27T10:48:55Z</time><name>PT3521</name></trkpt>
<trkpt lat="52.917724" lon="-3.119847"><ele>361</ele><time>2019-09-27T10:48:56Z</time><name>PT3522</name></trkpt>
<trkpt lat="52.917714" lon="-3.119860"><ele>361</ele><time>2019-09-27T10:48:57Z</time><name>PT3523</name></trkpt>
<trkpt lat="52.917707" lon="-3.119871"><ele>361</ele><time>2019-09-27T10:48:58Z</time><name>PT3524</name></trkpt>
<trkpt lat="52.917697" lon="-3.119885"><ele>362</ele><time>2019-09-27T10:48:59Z</time><name>PT3525</name></trkpt>
<trkpt lat="52.917690" lon="-3.119901"><ele>362</ele><time>2019-09-27T10:49:00Z</time><name>PT3526</name></trkpt>
<trkpt lat="52.917684" lon="-3.119915"><ele>362</ele><time>2019-09-27T10:49:01Z</time><name>PT3527</name></trkpt>
<trkpt lat="52.917676" lon="-3.119929"><ele>362</ele><time>2019-09-27T10:49:02Z</time><name>PT3528</name></trkpt>
<trkpt lat="52.917669" lon="-3.119942"><ele>362</ele><time>2019-09-27T10:49:03Z</time><name>PT3529</name></trkpt>
<trkpt lat="52.917660" lon="-3.119953"><ele>362</ele><time>2019-09-27T10:49:04Z</time><name>PT3530</name></trkpt>
<trkpt lat="52.917652" lon="-3.119966"><ele>362</ele><time>2019-09-27T10:49:05Z</time><name>PT3531</name></trkpt>
<trkpt lat="52.917645" lon="-3.119980"><ele>362</ele><time>2019-09-27T10:49:06Z</time><name>PT3532</name></trkpt>
<trkpt lat="52.917636" lon="-3.119996"><ele>362</ele><time>2019-09-27T10:49:07Z</time><name>PT3533</name></trkpt>
<trkpt lat="52.917628" lon="-3.120008"><ele>362</ele><time>2019-09-27T10:49:08Z</time><name>PT3534</name></trkpt>
<trkpt lat="52.917618" lon="-3.120018"><ele>362</ele><time>2019-09-27T10:49:09Z</time><name>PT3535</name></trkpt>
<trkpt lat="52.917609" lon="-3.120031"><ele>362</ele><time>2019-09-27T10:49:10Z</time><name>PT3536</name></trkpt>
<trkpt lat="52.917602" lon="-3.120044"><ele>362</ele><time>2019-09-27T10:49:11Z</time><name>PT3537</name></trkpt>
<trkpt lat="52.917594" lon="-3.120060"><ele>362</ele><time>2019-09-27T10:49:12Z</time><name>PT3538</name></trkpt>
<trkpt lat="52.917585" lon="-3.120070"><ele>362</ele><time>2019-09-27T10:49:13Z</time><name>PT3539</name></trkpt>
<trkpt lat="52.917578" lon="-3.120081"><ele>362</ele><time>2019-09-27T10:49:14Z</time><name>PT3540</name></trkpt>
<trkpt lat="52.917570" lon="-3.120096"><ele>362</ele><time>2019-09-27T10:49:15Z</time><name>PT3541</name></trkpt>
<trkpt lat="52.917563" lon="-3.120110"><ele>362</ele><time>2019-09-27T10:49:16Z</time><name>PT3542</name></trkpt>
<trkpt lat="52.917556" lon="-3.120122"><ele>362</ele><time>2019-09-27T10:49:17Z</time><name>PT3543</name></trkpt>
<trkpt lat="52.917548" lon="-3.120135"><ele>362</ele><time>2019-09-27T10:49:18Z</time><name>PT3544</name></trkpt>
<trkpt lat="52.917544" lon="-3.120140"><ele>361</ele><time>2019-09-27T10:49:19Z</time><name>PT3545</name></trkpt>
<trkpt lat="52.917535" lon="-3.120148"><ele>361</ele><time>2019-09-27T10:49:20Z</time><name>PT3546</name></trkpt>
<trkpt lat="52.917526" lon="-3.120161"><ele>361</ele><time>2019-09-27T10:49:21Z</time><name>PT3547</name></trkpt>
<trkpt lat="52.917516" lon="-3.120175"><ele>362</ele><time>2019-09-27T10:49:22Z</time><name>PT3548</name></trkpt>
<trkpt lat="52.917507" lon="-3.120191"><ele>362</ele><time>2019-09-27T10:49:23Z</time><name>PT3549</name></trkpt>
<trkpt lat="52.917499" lon="-3.120203"><ele>362</ele><time>2019-09-27T10:49:24Z</time><name>PT3550</name></trkpt>
<trkpt lat="52.917490" lon="-3.120213"><ele>362</ele><time>2019-09-27T10:49:25Z</time><name>PT3551</name></trkpt>
<trkpt lat="52.917480" lon="-3.120224"><ele>362</ele><time>2019-09-27T10:49:26Z</time><name>PT3552</name></trkpt>
<trkpt lat="52.917473" lon="-3.120237"><ele>362</ele><time>2019-09-27T10:49:27Z</time><name>PT3553</name></trkpt>
<trkpt lat="52.917465" lon="-3.120253"><ele>362</ele><time>2019-09-27T10:49:28Z</time><name>PT3554</name></trkpt>
<trkpt lat="52.917456" lon="-3.120265"><ele>362</ele><time>2019-09-27T10:49:29Z</time><name>PT3555</name></trkpt>
<trkpt lat="52.917444" lon="-3.120275"><ele>362</ele><time>2019-09-27T10:49:30Z</time><name>PT3556</name></trkpt>
<trkpt lat="52.917436" lon="-3.120288"><ele>362</ele><time>2019-09-27T10:49:31Z</time><name>PT3557</name></trkpt>
<trkpt lat="52.917429" lon="-3.120302"><ele>362</ele><time>2019-09-27T10:49:32Z</time><name>PT3558</name></trkpt>
<trkpt lat="52.917419" lon="-3.120317"><ele>363</ele><time>2019-09-27T10:49:33Z</time><name>PT3559</name></trkpt>
<trkpt lat="52.917411" lon="-3.120327"><ele>363</ele><time>2019-09-27T10:49:34Z</time><name>PT3560</name></trkpt>
<trkpt lat="52.917403" lon="-3.120339"><ele>363</ele><time>2019-09-27T10:49:35Z</time><name>PT3561</name></trkpt>
<trkpt lat="52.917396" lon="-3.120355"><ele>363</ele><time>2019-09-27T10:49:36Z</time><name>PT3562</name></trkpt>
<trkpt lat="52.917389" lon="-3.120370"><ele>362</ele><time>2019-09-27T10:49:37Z</time><name>PT3563</name></trkpt>
<trkpt lat="52.917380" lon="-3.120386"><ele>363</ele><time>2019-09-27T10:49:38Z</time><name>PT3564</name></trkpt>
<trkpt lat="52.917371" lon="-3.120396"><ele>363</ele><time>2019-09-27T10:49:39Z</time><name>PT3565</name></trkpt>
<trkpt lat="52.917362" lon="-3.120404"><ele>363</ele><time>2019-09-27T10:49:40Z</time><name>PT3566</name></trkpt>
<trkpt lat="52.917353" lon="-3.120416"><ele>363</ele><time>2019-09-27T10:49:41Z</time><name>PT3567</name></trkpt>
<trkpt lat="52.917336" lon="-3.120447"><ele>364</ele><time>2019-09-27T10:49:43Z</time><name>PT3568</name></trkpt>
<trkpt lat="52.917326" lon="-3.120459"><ele>364</ele><time>2019-09-27T10:49:44Z</time><name>PT3569</name></trkpt>
<trkpt lat="52.917317" lon="-3.120470"><ele>364</ele><time>2019-09-27T10:49:45Z</time><name>PT3570</name></trkpt>
<trkpt lat="52.917307" lon="-3.120481"><ele>364</ele><time>2019-09-27T10:49:46Z</time><name>PT3571</name></trkpt>
<trkpt lat="52.917298" lon="-3.120494"><ele>365</ele><time>2019-09-27T10:49:47Z</time><name>PT3572</name></trkpt>
<trkpt lat="52.917289" lon="-3.120508"><ele>365</ele><time>2019-09-27T10:49:48Z</time><name>PT3573</name></trkpt>
<trkpt lat="52.917281" lon="-3.120521"><ele>365</ele><time>2019-09-27T10:49:49Z</time><name>PT3574</name></trkpt>
<trkpt lat="52.917273" lon="-3.120533"><ele>365</ele><time>2019-09-27T10:49:50Z</time><name>PT3575</name></trkpt>
<trkpt lat="52.917263" lon="-3.120542"><ele>365</ele><time>2019-09-27T10:49:51Z</time><name>PT3576</name></trkpt>
<trkpt lat="52.917254" lon="-3.120553"><ele>365</ele><time>2019-09-27T10:49:52Z</time><name>PT3577</name></trkpt>
<trkpt lat="52.917247" lon="-3.120566"><ele>365</ele><time>2019-09-27T10:49:53Z</time><name>PT3578</name></trkpt>
<trkpt lat="52.917237" lon="-3.120578"><ele>365</ele><time>2019-09-27T10:49:54Z</time><name>PT3579</name></trkpt>
<trkpt lat="52.917228" lon="-3.120588"><ele>366</ele><time>2019-09-27T10:49:55Z</time><name>PT3580</name></trkpt>
<trkpt lat="52.917218" lon="-3.120601"><ele>366</ele><time>2019-09-27T10:49:56Z</time><name>PT3581</name></trkpt>
<trkpt lat="52.917212" lon="-3.120614"><ele>366</ele><time>2019-09-27T10:49:57Z</time><name>PT3582</name></trkpt>
<trkpt lat="52.917205" lon="-3.120627"><ele>366</ele><time>2019-09-27T10:49:58Z</time><name>PT3583</name></trkpt>
<trkpt lat="52.917197" lon="-3.120640"><ele>366</ele><time>2019-09-27T10:49:59Z</time><name>PT3584</name></trkpt>
<trkpt lat="52.917187" lon="-3.120649"><ele>366</ele><time>2019-09-27T10:50:00Z</time><name>PT3585</name></trkpt>
<trkpt lat="52.917176" lon="-3.120661"><ele>366</ele><time>2019-09-27T10:50:01Z</time><name>PT3586</name></trkpt>
<trkpt lat="52.917167" lon="-3.120673"><ele>367</ele><time>2019-09-27T10:50:02Z</time><name>PT3587</name></trkpt>
<trkpt lat="52.917159" lon="-3.120687"><ele>367</ele><time>2019-09-27T10:50:03Z</time><name>PT3588</name></trkpt>
<trkpt lat="52.917148" lon="-3.120698"><ele>367</ele><time>2019-09-27T10:50:04Z</time><name>PT3589</name></trkpt>
<trkpt lat="52.917139" lon="-3.120709"><ele>367</ele><time>2019-09-27T10:50:05Z</time><name>PT3590</name></trkpt>
<trkpt lat="52.917130" lon="-3.120722"><ele>367</ele><time>2019-09-27T10:50:06Z</time><name>PT3591</name></trkpt>
<trkpt lat="52.917123" lon="-3.120734"><ele>367</ele><time>2019-09-27T10:50:07Z</time><name>PT3592</name></trkpt>
<trkpt lat="52.917116" lon="-3.120748"><ele>367</ele><time>2019-09-27T10:50:08Z</time><name>PT3593</name></trkpt>
<trkpt lat="52.917108" lon="-3.120761"><ele>367</ele><time>2019-09-27T10:50:09Z</time><name>PT3594</name></trkpt>
<trkpt lat="52.917099" lon="-3.120773"><ele>367</ele><time>2019-09-27T10:50:10Z</time><name>PT3595</name></trkpt>
<trkpt lat="52.917089" lon="-3.120783"><ele>367</ele><time>2019-09-27T10:50:11Z</time><name>PT3596</name></trkpt>
<trkpt lat="52.917081" lon="-3.120795"><ele>367</ele><time>2019-09-27T10:50:12Z</time><name>PT3597</name></trkpt>
<trkpt lat="52.917065" lon="-3.120821"><ele>367</ele><time>2019-09-27T10:50:14Z</time><name>PT3598</name></trkpt>
<trkpt lat="52.917056" lon="-3.120833"><ele>368</ele><time>2019-09-27T10:50:15Z</time><name>PT3599</name></trkpt>
<trkpt lat="52.917046" lon="-3.120844"><ele>368</ele><time>2019-09-27T10:50:16Z</time><name>PT3600</name></trkpt>
<trkpt lat="52.917038" lon="-3.120856"><ele>368</ele><time>2019-09-27T10:50:17Z</time><name>PT3601</name></trkpt>
<trkpt lat="52.917031" lon="-3.120869"><ele>368</ele><time>2019-09-27T10:50:18Z</time><name>PT3602</name></trkpt>
<trkpt lat="52.917024" lon="-3.120885"><ele>368</ele><time>2019-09-27T10:50:19Z</time><name>PT3603</name></trkpt>
<trkpt lat="52.917017" lon="-3.120897"><ele>368</ele><time>2019-09-27T10:50:20Z</time><name>PT3604</name></trkpt>
<trkpt lat="52.917009" lon="-3.120906"><ele>368</ele><time>2019-09-27T10:50:21Z</time><name>PT3605</name></trkpt>
<trkpt lat="52.917000" lon="-3.120918"><ele>368</ele><time>2019-09-27T10:50:22Z</time><name>PT3606</name></trkpt>
<trkpt lat="52.916993" lon="-3.120930"><ele>369</ele><time>2019-09-27T10:50:23Z</time><name>PT3607</name></trkpt>
<trkpt lat="52.916985" lon="-3.120944"><ele>369</ele><time>2019-09-27T10:50:24Z</time><name>PT3608</name></trkpt>
<trkpt lat="52.916976" lon="-3.120956"><ele>369</ele><time>2019-09-27T10:50:25Z</time><name>PT3609</name></trkpt>
<trkpt lat="52.916966" lon="-3.120969"><ele>369</ele><time>2019-09-27T10:50:26Z</time><name>PT3610</name></trkpt>
<trkpt lat="52.916956" lon="-3.120982"><ele>369</ele><time>2019-09-27T10:50:27Z</time><name>PT3611</name></trkpt>
<trkpt lat="52.916946" lon="-3.120993"><ele>369</ele><time>2019-09-27T10:50:28Z</time><name>PT3612</name></trkpt>
<trkpt lat="52.916940" lon="-3.121006"><ele>369</ele><time>2019-09-27T10:50:29Z</time><name>PT3613</name></trkpt>
<trkpt lat="52.916932" lon="-3.121017"><ele>369</ele><time>2019-09-27T10:50:30Z</time><name>PT3614</name></trkpt>
<trkpt lat="52.916924" lon="-3.121027"><ele>369</ele><time>2019-09-27T10:50:31Z</time><name>PT3615</name></trkpt>
<trkpt lat="52.916915" lon="-3.121038"><ele>369</ele><time>2019-09-27T10:50:32Z</time><name>PT3616</name></trkpt>
<trkpt lat="52.916906" lon="-3.121049"><ele>369</ele><time>2019-09-27T10:50:33Z</time><name>PT3617</name></trkpt>
<trkpt lat="52.916899" lon="-3.121061"><ele>369</ele><time>2019-09-27T10:50:34Z</time><name>PT3618</name></trkpt>
<trkpt lat="52.916892" lon="-3.121075"><ele>369</ele><time>2019-09-27T10:50:35Z</time><name>PT3619</name></trkpt>
<trkpt lat="52.916884" lon="-3.121087"><ele>369</ele><time>2019-09-27T10:50:36Z</time><name>PT3620</name></trkpt>
<trkpt lat="52.916874" lon="-3.121099"><ele>370</ele><time>2019-09-27T10:50:37Z</time><name>PT3621</name></trkpt>
<trkpt lat="52.916864" lon="-3.121112"><ele>370</ele><time>2019-09-27T10:50:38Z</time><name>PT3622</name></trkpt>
<trkpt lat="52.916855" lon="-3.121123"><ele>370</ele><time>2019-09-27T10:50:39Z</time><name>PT3623</name></trkpt>
<trkpt lat="52.916848" lon="-3.121140"><ele>370</ele><time>2019-09-27T10:50:40Z</time><name>PT3624</name></trkpt>
<trkpt lat="52.916841" lon="-3.121154"><ele>370</ele><time>2019-09-27T10:50:41Z</time><name>PT3625</name></trkpt>
<trkpt lat="52.916831" lon="-3.121165"><ele>370</ele><time>2019-09-27T10:50:42Z</time><name>PT3626</name></trkpt>
<trkpt lat="52.916822" lon="-3.121179"><ele>370</ele><time>2019-09-27T10:50:43Z</time><name>PT3627</name></trkpt>
<trkpt lat="52.916813" lon="-3.121193"><ele>370</ele><time>2019-09-27T10:50:44Z</time><name>PT3628</name></trkpt>
<trkpt lat="52.916805" lon="-3.121207"><ele>371</ele><time>2019-09-27T10:50:45Z</time><name>PT3629</name></trkpt>
<trkpt lat="52.916796" lon="-3.121219"><ele>371</ele><time>2019-09-27T10:50:46Z</time><name>PT3630</name></trkpt>
<trkpt lat="52.916786" lon="-3.121229"><ele>371</ele><time>2019-09-27T10:50:47Z</time><name>PT3631</name></trkpt>
<trkpt lat="52.916777" lon="-3.121242"><ele>371</ele><time>2019-09-27T10:50:48Z</time><name>PT3632</name></trkpt>
<trkpt lat="52.916759" lon="-3.121269"><ele>371</ele><time>2019-09-27T10:50:50Z</time><name>PT3633</name></trkpt>
<trkpt lat="52.916750" lon="-3.121282"><ele>371</ele><time>2019-09-27T10:50:51Z</time><name>PT3634</name></trkpt>
<trkpt lat="52.916741" lon="-3.121290"><ele>372</ele><time>2019-09-27T10:50:52Z</time><name>PT3635</name></trkpt>
<trkpt lat="52.916731" lon="-3.121301"><ele>372</ele><time>2019-09-27T10:50:53Z</time><name>PT3636</name></trkpt>
<trkpt lat="52.916724" lon="-3.121314"><ele>372</ele><time>2019-09-27T10:50:54Z</time><name>PT3637</name></trkpt>
<trkpt lat="52.916717" lon="-3.121330"><ele>371</ele><time>2019-09-27T10:50:55Z</time><name>PT3638</name></trkpt>
<trkpt lat="52.916708" lon="-3.121343"><ele>371</ele><time>2019-09-27T10:50:56Z</time><name>PT3639</name></trkpt>
<trkpt lat="52.916700" lon="-3.121353"><ele>372</ele><time>2019-09-27T10:50:57Z</time><name>PT3640</name></trkpt>
<trkpt lat="52.916691" lon="-3.121366"><ele>372</ele><time>2019-09-27T10:50:58Z</time><name>PT3641</name></trkpt>
<trkpt lat="52.916683" lon="-3.121380"><ele>372</ele><time>2019-09-27T10:50:59Z</time><name>PT3642</name></trkpt>
<trkpt lat="52.916676" lon="-3.121395"><ele>371</ele><time>2019-09-27T10:51:00Z</time><name>PT3643</name></trkpt>
<trkpt lat="52.916667" lon="-3.121409"><ele>372</ele><time>2019-09-27T10:51:01Z</time><name>PT3644</name></trkpt>
<trkpt lat="52.916658" lon="-3.121421"><ele>372</ele><time>2019-09-27T10:51:02Z</time><name>PT3645</name></trkpt>
<trkpt lat="52.916649" lon="-3.121434"><ele>372</ele><time>2019-09-27T10:51:03Z</time><name>PT3646</name></trkpt>
<trkpt lat="52.916641" lon="-3.121450"><ele>372</ele><time>2019-09-27T10:51:04Z</time><name>PT3647</name></trkpt>
<trkpt lat="52.916633" lon="-3.121463"><ele>372</ele><time>2019-09-27T10:51:05Z</time><name>PT3648</name></trkpt>
<trkpt lat="52.916625" lon="-3.121474"><ele>372</ele><time>2019-09-27T10:51:06Z</time><name>PT3649</name></trkpt>
<trkpt lat="52.916614" lon="-3.121484"><ele>372</ele><time>2019-09-27T10:51:07Z</time><name>PT3650</name></trkpt>
<trkpt lat="52.916605" lon="-3.121495"><ele>372</ele><time>2019-09-27T10:51:08Z</time><name>PT3651</name></trkpt>
<trkpt lat="52.916597" lon="-3.121507"><ele>373</ele><time>2019-09-27T10:51:09Z</time><name>PT3652</name></trkpt>
<trkpt lat="52.916588" lon="-3.121521"><ele>373</ele><time>2019-09-27T10:51:10Z</time><name>PT3653</name></trkpt>
<trkpt lat="52.916581" lon="-3.121531"><ele>372</ele><time>2019-09-27T10:51:11Z</time><name>PT3654</name></trkpt>
<trkpt lat="52.916573" lon="-3.121541"><ele>373</ele><time>2019-09-27T10:51:12Z</time><name>PT3655</name></trkpt>
<trkpt lat="52.916565" lon="-3.121554"><ele>373</ele><time>2019-09-27T10:51:13Z</time><name>PT3656</name></trkpt>
<trkpt lat="52.916557" lon="-3.121567"><ele>372</ele><time>2019-09-27T10:51:14Z</time><name>PT3657</name></trkpt>
<trkpt lat="52.916548" lon="-3.121583"><ele>373</ele><time>2019-09-27T10:51:15Z</time><name>PT3658</name></trkpt>
<trkpt lat="52.916540" lon="-3.121593"><ele>373</ele><time>2019-09-27T10:51:16Z</time><name>PT3659</name></trkpt>
<trkpt lat="52.916531" lon="-3.121604"><ele>373</ele><time>2019-09-27T10:51:17Z</time><name>PT3660</name></trkpt>
<trkpt lat="52.916521" lon="-3.121616"><ele>373</ele><time>2019-09-27T10:51:18Z</time><name>PT3661</name></trkpt>
<trkpt lat="52.916513" lon="-3.121630"><ele>373</ele><time>2019-09-27T10:51:19Z</time><name>PT3662</name></trkpt>
<trkpt lat="52.916505" lon="-3.121646"><ele>373</ele><time>2019-09-27T10:51:20Z</time><name>PT3663</name></trkpt>
<trkpt lat="52.916497" lon="-3.121656"><ele>373</ele><time>2019-09-27T10:51:21Z</time><name>PT3664</name></trkpt>
<trkpt lat="52.916487" lon="-3.121670"><ele>373</ele><time>2019-09-27T10:51:22Z</time><name>PT3665</name></trkpt>
<trkpt lat="52.916478" lon="-3.121685"><ele>373</ele><time>2019-09-27T10:51:23Z</time><name>PT3666</name></trkpt>
<trkpt lat="52.916471" lon="-3.121698"><ele>373</ele><time>2019-09-27T10:51:24Z</time><name>PT3667</name></trkpt>
<trkpt lat="52.916462" lon="-3.121713"><ele>374</ele><time>2019-09-27T10:51:25Z</time><name>PT3668</name></trkpt>
<trkpt lat="52.916453" lon="-3.121725"><ele>374</ele><time>2019-09-27T10:51:26Z</time><name>PT3669</name></trkpt>
<trkpt lat="52.916444" lon="-3.121735"><ele>374</ele><time>2019-09-27T10:51:27Z</time><name>PT3670</name></trkpt>
<trkpt lat="52.916434" lon="-3.121747"><ele>374</ele><time>2019-09-27T10:51:28Z</time><name>PT3671</name></trkpt>
<trkpt lat="52.916425" lon="-3.121759"><ele>374</ele><time>2019-09-27T10:51:29Z</time><name>PT3672</name></trkpt>
<trkpt lat="52.916416" lon="-3.121773"><ele>374</ele><time>2019-09-27T10:51:30Z</time><name>PT3673</name></trkpt>
<trkpt lat="52.916408" lon="-3.121789"><ele>374</ele><time>2019-09-27T10:51:31Z</time><name>PT3674</name></trkpt>
<trkpt lat="52.916399" lon="-3.121799"><ele>374</ele><time>2019-09-27T10:51:32Z</time><name>PT3675</name></trkpt>
<trkpt lat="52.916391" lon="-3.121812"><ele>375</ele><time>2019-09-27T10:51:33Z</time><name>PT3676</name></trkpt>
<trkpt lat="52.916383" lon="-3.121827"><ele>375</ele><time>2019-09-27T10:51:34Z</time><name>PT3677</name></trkpt>
<trkpt lat="52.916376" lon="-3.121841"><ele>375</ele><time>2019-09-27T10:51:35Z</time><name>PT3678</name></trkpt>
<trkpt lat="52.916367" lon="-3.121857"><ele>375</ele><time>2019-09-27T10:51:36Z</time><name>PT3679</name></trkpt>
<trkpt lat="52.916357" lon="-3.121869"><ele>375</ele><time>2019-09-27T10:51:37Z</time><name>PT3680</name></trkpt>
<trkpt lat="52.916348" lon="-3.121881"><ele>376</ele><time>2019-09-27T10:51:38Z</time><name>PT3681</name></trkpt>
<trkpt lat="52.916340" lon="-3.121896"><ele>376</ele><time>2019-09-27T10:51:39Z</time><name>PT3682</name></trkpt>
<trkpt lat="52.916334" lon="-3.121911"><ele>376</ele><time>2019-09-27T10:51:40Z</time><name>PT3683</name></trkpt>
<trkpt lat="52.916326" lon="-3.121923"><ele>376</ele><time>2019-09-27T10:51:41Z</time><name>PT3684</name></trkpt>
<trkpt lat="52.916317" lon="-3.121937"><ele>376</ele><time>2019-09-27T10:51:42Z</time><name>PT3685</name></trkpt>
<trkpt lat="52.916308" lon="-3.121948"><ele>376</ele><time>2019-09-27T10:51:43Z</time><name>PT3686</name></trkpt>
<trkpt lat="52.916298" lon="-3.121960"><ele>377</ele><time>2019-09-27T10:51:44Z</time><name>PT3687</name></trkpt>
<trkpt lat="52.916289" lon="-3.121973"><ele>377</ele><time>2019-09-27T10:51:45Z</time><name>PT3688</name></trkpt>
<trkpt lat="52.916283" lon="-3.121986"><ele>377</ele><time>2019-09-27T10:51:46Z</time><name>PT3689</name></trkpt>
<trkpt lat="52.916274" lon="-3.121999"><ele>377</ele><time>2019-09-27T10:51:47Z</time><name>PT3690</name></trkpt>
<trkpt lat="52.916264" lon="-3.122013"><ele>377</ele><time>2019-09-27T10:51:48Z</time><name>PT3691</name></trkpt>
<trkpt lat="52.916255" lon="-3.122025"><ele>377</ele><time>2019-09-27T10:51:49Z</time><name>PT3692</name></trkpt>
<trkpt lat="52.916245" lon="-3.122040"><ele>377</ele><time>2019-09-27T10:51:50Z</time><name>PT3693</name></trkpt>
<trkpt lat="52.916233" lon="-3.122053"><ele>378</ele><time>2019-09-27T10:51:51Z</time><name>PT3694</name></trkpt>
<trkpt lat="52.916224" lon="-3.122066"><ele>378</ele><time>2019-09-27T10:51:52Z</time><name>PT3695</name></trkpt>
<trkpt lat="52.916216" lon="-3.122079"><ele>378</ele><time>2019-09-27T10:51:53Z</time><name>PT3696</name></trkpt>
<trkpt lat="52.916207" lon="-3.122095"><ele>377</ele><time>2019-09-27T10:51:54Z</time><name>PT3697</name></trkpt>
<trkpt lat="52.916199" lon="-3.122104"><ele>377</ele><time>2019-09-27T10:51:55Z</time><name>PT3698</name></trkpt>
<trkpt lat="52.916189" lon="-3.122115"><ele>377</ele><time>2019-09-27T10:51:56Z</time><name>PT3699</name></trkpt>
<trkpt lat="52.916177" lon="-3.122130"><ele>377</ele><time>2019-09-27T10:51:57Z</time><name>PT3700</name></trkpt>
<trkpt lat="52.916169" lon="-3.122141"><ele>377</ele><time>2019-09-27T10:51:58Z</time><name>PT3701</name></trkpt>
<trkpt lat="52.916160" lon="-3.122153"><ele>377</ele><time>2019-09-27T10:51:59Z</time><name>PT3702</name></trkpt>
<trkpt lat="52.916152" lon="-3.122167"><ele>377</ele><time>2019-09-27T10:52:00Z</time><name>PT3703</name></trkpt>
<trkpt lat="52.916143" lon="-3.122180"><ele>377</ele><time>2019-09-27T10:52:01Z</time><name>PT3704</name></trkpt>
<trkpt lat="52.916134" lon="-3.122189"><ele>377</ele><time>2019-09-27T10:52:02Z</time><name>PT3705</name></trkpt>
<trkpt lat="52.916126" lon="-3.122199"><ele>377</ele><time>2019-09-27T10:52:03Z</time><name>PT3706</name></trkpt>
<trkpt lat="52.916121" lon="-3.122209"><ele>377</ele><time>2019-09-27T10:52:04Z</time><name>PT3707</name></trkpt>
<trkpt lat="52.916113" lon="-3.122222"><ele>377</ele><time>2019-09-27T10:52:05Z</time><name>PT3708</name></trkpt>
<trkpt lat="52.916104" lon="-3.122236"><ele>377</ele><time>2019-09-27T10:52:06Z</time><name>PT3709</name></trkpt>
<trkpt lat="52.916096" lon="-3.122247"><ele>378</ele><time>2019-09-27T10:52:07Z</time><name>PT3710</name></trkpt>
<trkpt lat="52.916088" lon="-3.122257"><ele>377</ele><time>2019-09-27T10:52:08Z</time><name>PT3711</name></trkpt>
<trkpt lat="52.916078" lon="-3.122267"><ele>377</ele><time>2019-09-27T10:52:09Z</time><name>PT3712</name></trkpt>
<trkpt lat="52.916068" lon="-3.122278"><ele>377</ele><time>2019-09-27T10:52:10Z</time><name>PT3713</name></trkpt>
<trkpt lat="52.916060" lon="-3.122291"><ele>376</ele><time>2019-09-27T10:52:11Z</time><name>PT3714</name></trkpt>
<trkpt lat="52.916051" lon="-3.122301"><ele>376</ele><time>2019-09-27T10:52:12Z</time><name>PT3715</name></trkpt>
<trkpt lat="52.916043" lon="-3.122310"><ele>377</ele><time>2019-09-27T10:52:13Z</time><name>PT3716</name></trkpt>
<trkpt lat="52.916036" lon="-3.122321"><ele>376</ele><time>2019-09-27T10:52:14Z</time><name>PT3717</name></trkpt>
<trkpt lat="52.916030" lon="-3.122331"><ele>376</ele><time>2019-09-27T10:52:15Z</time><name>PT3718</name></trkpt>
<trkpt lat="52.916022" lon="-3.122343"><ele>376</ele><time>2019-09-27T10:52:16Z</time><name>PT3719</name></trkpt>
<trkpt lat="52.916014" lon="-3.122354"><ele>376</ele><time>2019-09-27T10:52:17Z</time><name>PT3720</name></trkpt>
<trkpt lat="52.916005" lon="-3.122365"><ele>376</ele><time>2019-09-27T10:52:18Z</time><name>PT3721</name></trkpt>
<trkpt lat="52.915993" lon="-3.122379"><ele>376</ele><time>2019-09-27T10:52:19Z</time><name>PT3722</name></trkpt>
<trkpt lat="52.915985" lon="-3.122390"><ele>376</ele><time>2019-09-27T10:52:20Z</time><name>PT3723</name></trkpt>
<trkpt lat="52.915975" lon="-3.122408"><ele>376</ele><time>2019-09-27T10:52:21Z</time><name>PT3724</name></trkpt>
<trkpt lat="52.915967" lon="-3.122423"><ele>376</ele><time>2019-09-27T10:52:22Z</time><name>PT3725</name></trkpt>
<trkpt lat="52.915957" lon="-3.122433"><ele>376</ele><time>2019-09-27T10:52:23Z</time><name>PT3726</name></trkpt>
<trkpt lat="52.915950" lon="-3.122441"><ele>376</ele><time>2019-09-27T10:52:24Z</time><name>PT3727</name></trkpt>
<trkpt lat="52.915943" lon="-3.122450"><ele>376</ele><time>2019-09-27T10:52:25Z</time><name>PT3728</name></trkpt>
<trkpt lat="52.915936" lon="-3.122462"><ele>376</ele><time>2019-09-27T10:52:26Z</time><name>PT3729</name></trkpt>
<trkpt lat="52.915928" lon="-3.122475"><ele>376</ele><time>2019-09-27T10:52:27Z</time><name>PT3730</name></trkpt>
<trkpt lat="52.915920" lon="-3.122485"><ele>376</ele><time>2019-09-27T10:52:28Z</time><name>PT3731</name></trkpt>
<trkpt lat="52.915909" lon="-3.122501"><ele>377</ele><time>2019-09-27T10:52:29Z</time><name>PT3732</name></trkpt>
<trkpt lat="52.915903" lon="-3.122509"><ele>377</ele><time>2019-09-27T10:52:30Z</time><name>PT3733</name></trkpt>
<trkpt lat="52.915893" lon="-3.122523"><ele>377</ele><time>2019-09-27T10:52:31Z</time><name>PT3734</name></trkpt>
<trkpt lat="52.915883" lon="-3.122534"><ele>376</ele><time>2019-09-27T10:52:32Z</time><name>PT3735</name></trkpt>
<trkpt lat="52.915873" lon="-3.122544"><ele>377</ele><time>2019-09-27T10:52:33Z</time><name>PT3736</name></trkpt>
<trkpt lat="52.915863" lon="-3.122559"><ele>377</ele><time>2019-09-27T10:52:34Z</time><name>PT3737</name></trkpt>
<trkpt lat="52.915852" lon="-3.122573"><ele>377</ele><time>2019-09-27T10:52:35Z</time><name>PT3738</name></trkpt>
<trkpt lat="52.915845" lon="-3.122590"><ele>378</ele><time>2019-09-27T10:52:36Z</time><name>PT3739</name></trkpt>
<trkpt lat="52.915837" lon="-3.122609"><ele>378</ele><time>2019-09-27T10:52:37Z</time><name>PT3740</name></trkpt>
<trkpt lat="52.915828" lon="-3.122622"><ele>378</ele><time>2019-09-27T10:52:38Z</time><name>PT3741</name></trkpt>
<trkpt lat="52.915819" lon="-3.122633"><ele>378</ele><time>2019-09-27T10:52:39Z</time><name>PT3742</name></trkpt>
<trkpt lat="52.915813" lon="-3.122651"><ele>378</ele><time>2019-09-27T10:52:40Z</time><name>PT3743</name></trkpt>
<trkpt lat="52.915806" lon="-3.122664"><ele>378</ele><time>2019-09-27T10:52:41Z</time><name>PT3744</name></trkpt>
<trkpt lat="52.915797" lon="-3.122678"><ele>378</ele><time>2019-09-27T10:52:42Z</time><name>PT3745</name></trkpt>
<trkpt lat="52.915790" lon="-3.122692"><ele>378</ele><time>2019-09-27T10:52:43Z</time><name>PT3746</name></trkpt>
<trkpt lat="52.915782" lon="-3.122705"><ele>378</ele><time>2019-09-27T10:52:44Z</time><name>PT3747</name></trkpt>
<trkpt lat="52.915773" lon="-3.122717"><ele>379</ele><time>2019-09-27T10:52:45Z</time><name>PT3748</name></trkpt>
<trkpt lat="52.915763" lon="-3.122730"><ele>379</ele><time>2019-09-27T10:52:46Z</time><name>PT3749</name></trkpt>
<trkpt lat="52.915753" lon="-3.122746"><ele>379</ele><time>2019-09-27T10:52:47Z</time><name>PT3750</name></trkpt>
<trkpt lat="52.915744" lon="-3.122761"><ele>379</ele><time>2019-09-27T10:52:48Z</time><name>PT3751</name></trkpt>
<trkpt lat="52.915735" lon="-3.122776"><ele>379</ele><time>2019-09-27T10:52:49Z</time><name>PT3752</name></trkpt>
<trkpt lat="52.915725" lon="-3.122790"><ele>379</ele><time>2019-09-27T10:52:50Z</time><name>PT3753</name></trkpt>
<trkpt lat="52.915715" lon="-3.122806"><ele>379</ele><time>2019-09-27T10:52:51Z</time><name>PT3754</name></trkpt>
<trkpt lat="52.915706" lon="-3.122817"><ele>379</ele><time>2019-09-27T10:52:52Z</time><name>PT3755</name></trkpt>
<trkpt lat="52.915698" lon="-3.122826"><ele>379</ele><time>2019-09-27T10:52:53Z</time><name>PT3756</name></trkpt>
<trkpt lat="52.915690" lon="-3.122842"><ele>379</ele><time>2019-09-27T10:52:54Z</time><name>PT3757</name></trkpt>
<trkpt lat="52.915680" lon="-3.122856"><ele>379</ele><time>2019-09-27T10:52:55Z</time><name>PT3758</name></trkpt>
<trkpt lat="52.915672" lon="-3.122867"><ele>379</ele><time>2019-09-27T10:52:56Z</time><name>PT3759</name></trkpt>
<trkpt lat="52.915665" lon="-3.122878"><ele>380</ele><time>2019-09-27T10:52:57Z</time><name>PT3760</name></trkpt>
<trkpt lat="52.915657" lon="-3.122888"><ele>380</ele><time>2019-09-27T10:52:58Z</time><name>PT3761</name></trkpt>
<trkpt lat="52.915648" lon="-3.122897"><ele>379</ele><time>2019-09-27T10:52:59Z</time><name>PT3762</name></trkpt>
<trkpt lat="52.915639" lon="-3.122907"><ele>379</ele><time>2019-09-27T10:53:00Z</time><name>PT3763</name></trkpt>
<trkpt lat="52.915629" lon="-3.122922"><ele>379</ele><time>2019-09-27T10:53:01Z</time><name>PT3764</name></trkpt>
<trkpt lat="52.915618" lon="-3.122935"><ele>379</ele><time>2019-09-27T10:53:02Z</time><name>PT3765</name></trkpt>
<trkpt lat="52.915607" lon="-3.122948"><ele>379</ele><time>2019-09-27T10:53:03Z</time><name>PT3766</name></trkpt>
<trkpt lat="52.915595" lon="-3.122962"><ele>379</ele><time>2019-09-27T10:53:04Z</time><name>PT3767</name></trkpt>
<trkpt lat="52.915588" lon="-3.122975"><ele>379</ele><time>2019-09-27T10:53:05Z</time><name>PT3768</name></trkpt>
<trkpt lat="52.915578" lon="-3.122990"><ele>379</ele><time>2019-09-27T10:53:06Z</time><name>PT3769</name></trkpt>
<trkpt lat="52.915568" lon="-3.123002"><ele>379</ele><time>2019-09-27T10:53:07Z</time><name>PT3770</name></trkpt>
<trkpt lat="52.915559" lon="-3.123014"><ele>380</ele><time>2019-09-27T10:53:08Z</time><name>PT3771</name></trkpt>
<trkpt lat="52.915549" lon="-3.123028"><ele>380</ele><time>2019-09-27T10:53:09Z</time><name>PT3772</name></trkpt>
<trkpt lat="52.915539" lon="-3.123038"><ele>380</ele><time>2019-09-27T10:53:10Z</time><name>PT3773</name></trkpt>
<trkpt lat="52.915531" lon="-3.123047"><ele>380</ele><time>2019-09-27T10:53:11Z</time><name>PT3774</name></trkpt>
<trkpt lat="52.915521" lon="-3.123056"><ele>380</ele><time>2019-09-27T10:53:12Z</time><name>PT3775</name></trkpt>
<trkpt lat="52.915510" lon="-3.123069"><ele>380</ele><time>2019-09-27T10:53:13Z</time><name>PT3776</name></trkpt>
<trkpt lat="52.915499" lon="-3.123078"><ele>380</ele><time>2019-09-27T10:53:14Z</time><name>PT3777</name></trkpt>
<trkpt lat="52.915486" lon="-3.123091"><ele>380</ele><time>2019-09-27T10:53:15Z</time><name>PT3778</name></trkpt>
<trkpt lat="52.915475" lon="-3.123099"><ele>380</ele><time>2019-09-27T10:53:16Z</time><name>PT3779</name></trkpt>
<trkpt lat="52.915467" lon="-3.123111"><ele>380</ele><time>2019-09-27T10:53:17Z</time><name>PT3780</name></trkpt>
<trkpt lat="52.915459" lon="-3.123120"><ele>379</ele><time>2019-09-27T10:53:18Z</time><name>PT3781</name></trkpt>
<trkpt lat="52.915451" lon="-3.123130"><ele>379</ele><time>2019-09-27T10:53:19Z</time><name>PT3782</name></trkpt>
<trkpt lat="52.915440" lon="-3.123138"><ele>379</ele><time>2019-09-27T10:53:20Z</time><name>PT3783</name></trkpt>
<trkpt lat="52.915429" lon="-3.123147"><ele>378</ele><time>2019-09-27T10:53:21Z</time><name>PT3784</name></trkpt>
<trkpt lat="52.915419" lon="-3.123156"><ele>378</ele><time>2019-09-27T10:53:22Z</time><name>PT3785</name></trkpt>
<trkpt lat="52.915408" lon="-3.123167"><ele>378</ele><time>2019-09-27T10:53:23Z</time><name>PT3786</name></trkpt>
<trkpt lat="52.915399" lon="-3.123181"><ele>378</ele><time>2019-09-27T10:53:24Z</time><name>PT3787</name></trkpt>
<trkpt lat="52.915388" lon="-3.123189"><ele>378</ele><time>2019-09-27T10:53:25Z</time><name>PT3788</name></trkpt>
<trkpt lat="52.915377" lon="-3.123199"><ele>379</ele><time>2019-09-27T10:53:26Z</time><name>PT3789</name></trkpt>
<trkpt lat="52.915367" lon="-3.123209"><ele>378</ele><time>2019-09-27T10:53:27Z</time><name>PT3790</name></trkpt>
<trkpt lat="52.915359" lon="-3.123219"><ele>378</ele><time>2019-09-27T10:53:28Z</time><name>PT3791</name></trkpt>
<trkpt lat="52.915350" lon="-3.123225"><ele>378</ele><time>2019-09-27T10:53:29Z</time><name>PT3792</name></trkpt>
<trkpt lat="52.915340" lon="-3.123236"><ele>378</ele><time>2019-09-27T10:53:30Z</time><name>PT3793</name></trkpt>
<trkpt lat="52.915329" lon="-3.123244"><ele>378</ele><time>2019-09-27T10:53:31Z</time><name>PT3794</name></trkpt>
<trkpt lat="52.915317" lon="-3.123253"><ele>378</ele><time>2019-09-27T10:53:32Z</time><name>PT3795</name></trkpt>
<trkpt lat="52.915307" lon="-3.123261"><ele>378</ele><time>2019-09-27T10:53:33Z</time><name>PT3796</name></trkpt>
<trkpt lat="52.915300" lon="-3.123267"><ele>378</ele><time>2019-09-27T10:53:34Z</time><name>PT3797</name></trkpt>
<trkpt lat="52.915293" lon="-3.123276"><ele>377</ele><time>2019-09-27T10:53:35Z</time><name>PT3798</name></trkpt>
<trkpt lat="52.915284" lon="-3.123286"><ele>377</ele><time>2019-09-27T10:53:36Z</time><name>PT3799</name></trkpt>
<trkpt lat="52.915273" lon="-3.123292"><ele>377</ele><time>2019-09-27T10:53:37Z</time><name>PT3800</name></trkpt>
<trkpt lat="52.915262" lon="-3.123303"><ele>377</ele><time>2019-09-27T10:53:38Z</time><name>PT3801</name></trkpt>
<trkpt lat="52.915253" lon="-3.123314"><ele>377</ele><time>2019-09-27T10:53:39Z</time><name>PT3802</name></trkpt>
<trkpt lat="52.915245" lon="-3.123322"><ele>377</ele><time>2019-09-27T10:53:40Z</time><name>PT3803</name></trkpt>
<trkpt lat="52.915233" lon="-3.123331"><ele>377</ele><time>2019-09-27T10:53:41Z</time><name>PT3804</name></trkpt>
<trkpt lat="52.915220" lon="-3.123344"><ele>377</ele><time>2019-09-27T10:53:42Z</time><name>PT3805</name></trkpt>
<trkpt lat="52.915208" lon="-3.123353"><ele>378</ele><time>2019-09-27T10:53:43Z</time><name>PT3806</name></trkpt>
<trkpt lat="52.915195" lon="-3.123361"><ele>378</ele><time>2019-09-27T10:53:44Z</time><name>PT3807</name></trkpt>
<trkpt lat="52.915182" lon="-3.123371"><ele>379</ele><time>2019-09-27T10:53:45Z</time><name>PT3808</name></trkpt>
<trkpt lat="52.915173" lon="-3.123378"><ele>379</ele><time>2019-09-27T10:53:46Z</time><name>PT3809</name></trkpt>
<trkpt lat="52.915162" lon="-3.123386"><ele>379</ele><time>2019-09-27T10:53:47Z</time><name>PT3810</name></trkpt>
<trkpt lat="52.915149" lon="-3.123392"><ele>378</ele><time>2019-09-27T10:53:48Z</time><name>PT3811</name></trkpt>
<trkpt lat="52.915139" lon="-3.123399"><ele>378</ele><time>2019-09-27T10:53:49Z</time><name>PT3812</name></trkpt>
<trkpt lat="52.915128" lon="-3.123408"><ele>378</ele><time>2019-09-27T10:53:50Z</time><name>PT3813</name></trkpt>
<trkpt lat="52.915117" lon="-3.123419"><ele>378</ele><time>2019-09-27T10:53:51Z</time><name>PT3814</name></trkpt>
<trkpt lat="52.915097" lon="-3.123438"><ele>378</ele><time>2019-09-27T10:53:53Z</time><name>PT3815</name></trkpt>
<trkpt lat="52.915087" lon="-3.123450"><ele>377</ele><time>2019-09-27T10:53:54Z</time><name>PT3816</name></trkpt>
<trkpt lat="52.915078" lon="-3.123457"><ele>377</ele><time>2019-09-27T10:53:55Z</time><name>PT3817</name></trkpt>
<trkpt lat="52.915067" lon="-3.123464"><ele>378</ele><time>2019-09-27T10:53:56Z</time><name>PT3818</name></trkpt>
<trkpt lat="52.915055" lon="-3.123473"><ele>377</ele><time>2019-09-27T10:53:57Z</time><name>PT3819</name></trkpt>
<trkpt lat="52.915045" lon="-3.123482"><ele>377</ele><time>2019-09-27T10:53:58Z</time><name>PT3820</name></trkpt>
<trkpt lat="52.915036" lon="-3.123487"><ele>377</ele><time>2019-09-27T10:53:59Z</time><name>PT3821</name></trkpt>
<trkpt lat="52.915026" lon="-3.123497"><ele>377</ele><time>2019-09-27T10:54:00Z</time><name>PT3822</name></trkpt>
<trkpt lat="52.915017" lon="-3.123507"><ele>377</ele><time>2019-09-27T10:54:01Z</time><name>PT3823</name></trkpt>
<trkpt lat="52.915006" lon="-3.123517"><ele>377</ele><time>2019-09-27T10:54:02Z</time><name>PT3824</name></trkpt>
<trkpt lat="52.914994" lon="-3.123529"><ele>377</ele><time>2019-09-27T10:54:03Z</time><name>PT3825</name></trkpt>
<trkpt lat="52.914983" lon="-3.123538"><ele>377</ele><time>2019-09-27T10:54:04Z</time><name>PT3826</name></trkpt>
<trkpt lat="52.914972" lon="-3.123550"><ele>377</ele><time>2019-09-27T10:54:05Z</time><name>PT3827</name></trkpt>
<trkpt lat="52.914960" lon="-3.123564"><ele>377</ele><time>2019-09-27T10:54:06Z</time><name>PT3828</name></trkpt>
<trkpt lat="52.914949" lon="-3.123577"><ele>377</ele><time>2019-09-27T10:54:07Z</time><name>PT3829</name></trkpt>
<trkpt lat="52.914938" lon="-3.123585"><ele>377</ele><time>2019-09-27T10:54:08Z</time><name>PT3830</name></trkpt>
<trkpt lat="52.914927" lon="-3.123592"><ele>377</ele><time>2019-09-27T10:54:09Z</time><name>PT3831</name></trkpt>
<trkpt lat="52.914914" lon="-3.123599"><ele>377</ele><time>2019-09-27T10:54:10Z</time><name>PT3832</name></trkpt>
<trkpt lat="52.914902" lon="-3.123605"><ele>377</ele><time>2019-09-27T10:54:11Z</time><name>PT3833</name></trkpt>
<trkpt lat="52.914893" lon="-3.123615"><ele>377</ele><time>2019-09-27T10:54:12Z</time><name>PT3834</name></trkpt>
<trkpt lat="52.914883" lon="-3.123625"><ele>377</ele><time>2019-09-27T10:54:13Z</time><name>PT3835</name></trkpt>
<trkpt lat="52.914871" lon="-3.123635"><ele>377</ele><time>2019-09-27T10:54:14Z</time><name>PT3836</name></trkpt>
<trkpt lat="52.914862" lon="-3.123636"><ele>377</ele><time>2019-09-27T10:54:15Z</time><name>PT3837</name></trkpt>
<trkpt lat="52.914855" lon="-3.123644"><ele>377</ele><time>2019-09-27T10:54:16Z</time><name>PT3838</name></trkpt>
<trkpt lat="52.914843" lon="-3.123660"><ele>377</ele><time>2019-09-27T10:54:17Z</time><name>PT3839</name></trkpt>
<trkpt lat="52.914832" lon="-3.123673"><ele>377</ele><time>2019-09-27T10:54:18Z</time><name>PT3840</name></trkpt>
<trkpt lat="52.914812" lon="-3.123707"><ele>377</ele><time>2019-09-27T10:54:20Z</time><name>PT3841</name></trkpt>
<trkpt lat="52.914798" lon="-3.123727"><ele>378</ele><time>2019-09-27T10:54:21Z</time><name>PT3842</name></trkpt>
<trkpt lat="52.914786" lon="-3.123747"><ele>377</ele><time>2019-09-27T10:54:23Z</time><name>PT3843</name></trkpt>
<trkpt lat="52.914775" lon="-3.123758"><ele>377</ele><time>2019-09-27T10:54:24Z</time><name>PT3844</name></trkpt>
<trkpt lat="52.914767" lon="-3.123765"><ele>376</ele><time>2019-09-27T10:54:25Z</time><name>PT3845</name></trkpt>
<trkpt lat="52.914759" lon="-3.123770"><ele>376</ele><time>2019-09-27T10:54:26Z</time><name>PT3846</name></trkpt>
<trkpt lat="52.914751" lon="-3.123779"><ele>376</ele><time>2019-09-27T10:54:27Z</time><name>PT3847</name></trkpt>
<trkpt lat="52.914740" lon="-3.123787"><ele>375</ele><time>2019-09-27T10:54:28Z</time><name>PT3848</name></trkpt>
<trkpt lat="52.914728" lon="-3.123794"><ele>375</ele><time>2019-09-27T10:54:29Z</time><name>PT3849</name></trkpt>
<trkpt lat="52.914717" lon="-3.123801"><ele>375</ele><time>2019-09-27T10:54:30Z</time><name>PT3850</name></trkpt>
<trkpt lat="52.914704" lon="-3.123814"><ele>375</ele><time>2019-09-27T10:54:31Z</time><name>PT3851</name></trkpt>
<trkpt lat="52.914692" lon="-3.123820"><ele>375</ele><time>2019-09-27T10:54:32Z</time><name>PT3852</name></trkpt>
<trkpt lat="52.914684" lon="-3.123828"><ele>375</ele><time>2019-09-27T10:54:33Z</time><name>PT3853</name></trkpt>
<trkpt lat="52.914676" lon="-3.123840"><ele>374</ele><time>2019-09-27T10:54:34Z</time><name>PT3854</name></trkpt>
<trkpt lat="52.914667" lon="-3.123850"><ele>374</ele><time>2019-09-27T10:54:35Z</time><name>PT3855</name></trkpt>
<trkpt lat="52.914657" lon="-3.123855"><ele>374</ele><time>2019-09-27T10:54:36Z</time><name>PT3856</name></trkpt>
<trkpt lat="52.914646" lon="-3.123860"><ele>374</ele><time>2019-09-27T10:54:37Z</time><name>PT3857</name></trkpt>
<trkpt lat="52.914636" lon="-3.123867"><ele>374</ele><time>2019-09-27T10:54:38Z</time><name>PT3858</name></trkpt>
<trkpt lat="52.914625" lon="-3.123877"><ele>373</ele><time>2019-09-27T10:54:39Z</time><name>PT3859</name></trkpt>
<trkpt lat="52.914616" lon="-3.123885"><ele>373</ele><time>2019-09-27T10:54:40Z</time><name>PT3860</name></trkpt>
<trkpt lat="52.914606" lon="-3.123892"><ele>373</ele><time>2019-09-27T10:54:41Z</time><name>PT3861</name></trkpt>
<trkpt lat="52.914595" lon="-3.123902"><ele>373</ele><time>2019-09-27T10:54:42Z</time><name>PT3862</name></trkpt>
<trkpt lat="52.914587" lon="-3.123913"><ele>373</ele><time>2019-09-27T10:54:43Z</time><name>PT3863</name></trkpt>
<trkpt lat="52.914573" lon="-3.123925"><ele>373</ele><time>2019-09-27T10:54:44Z</time><name>PT3864</name></trkpt>
<trkpt lat="52.914563" lon="-3.123934"><ele>373</ele><time>2019-09-27T10:54:45Z</time><name>PT3865</name></trkpt>
<trkpt lat="52.914550" lon="-3.123948"><ele>373</ele><time>2019-09-27T10:54:46Z</time><name>PT3866</name></trkpt>
<trkpt lat="52.914543" lon="-3.123957"><ele>373</ele><time>2019-09-27T10:54:47Z</time><name>PT3867</name></trkpt>
<trkpt lat="52.914535" lon="-3.123968"><ele>373</ele><time>2019-09-27T10:54:48Z</time><name>PT3868</name></trkpt>
<trkpt lat="52.914526" lon="-3.123978"><ele>373</ele><time>2019-09-27T10:54:49Z</time><name>PT3869</name></trkpt>
<trkpt lat="52.914517" lon="-3.123985"><ele>373</ele><time>2019-09-27T10:54:50Z</time><name>PT3870</name></trkpt>
<trkpt lat="52.914503" lon="-3.123999"><ele>373</ele><time>2019-09-27T10:54:51Z</time><name>PT3871</name></trkpt>
<trkpt lat="52.914493" lon="-3.124008"><ele>373</ele><time>2019-09-27T10:54:52Z</time><name>PT3872</name></trkpt>
<trkpt lat="52.914486" lon="-3.124019"><ele>373</ele><time>2019-09-27T10:54:53Z</time><name>PT3873</name></trkpt>
<trkpt lat="52.914476" lon="-3.124034"><ele>373</ele><time>2019-09-27T10:54:54Z</time><name>PT3874</name></trkpt>
<trkpt lat="52.914465" lon="-3.124048"><ele>372</ele><time>2019-09-27T10:54:55Z</time><name>PT3875</name></trkpt>
<trkpt lat="52.914457" lon="-3.124057"><ele>372</ele><time>2019-09-27T10:54:56Z</time><name>PT3876</name></trkpt>
<trkpt lat="52.914447" lon="-3.124066"><ele>372</ele><time>2019-09-27T10:54:57Z</time><name>PT3877</name></trkpt>
<trkpt lat="52.914437" lon="-3.124074"><ele>372</ele><time>2019-09-27T10:54:58Z</time><name>PT3878</name></trkpt>
<trkpt lat="52.914429" lon="-3.124083"><ele>372</ele><time>2019-09-27T10:54:59Z</time><name>PT3879</name></trkpt>
<trkpt lat="52.914421" lon="-3.124095"><ele>372</ele><time>2019-09-27T10:55:00Z</time><name>PT3880</name></trkpt>
<trkpt lat="52.914410" lon="-3.124107"><ele>371</ele><time>2019-09-27T10:55:01Z</time><name>PT3881</name></trkpt>
<trkpt lat="52.914400" lon="-3.124121"><ele>372</ele><time>2019-09-27T10:55:02Z</time><name>PT3882</name></trkpt>
<trkpt lat="52.914389" lon="-3.124133"><ele>372</ele><time>2019-09-27T10:55:03Z</time><name>PT3883</name></trkpt>
<trkpt lat="52.914378" lon="-3.124142"><ele>372</ele><time>2019-09-27T10:55:04Z</time><name>PT3884</name></trkpt>
<trkpt lat="52.914367" lon="-3.124151"><ele>372</ele><time>2019-09-27T10:55:05Z</time><name>PT3885</name></trkpt>
<trkpt lat="52.914357" lon="-3.124163"><ele>372</ele><time>2019-09-27T10:55:06Z</time><name>PT3886</name></trkpt>
<trkpt lat="52.914347" lon="-3.124178"><ele>372</ele><time>2019-09-27T10:55:07Z</time><name>PT3887</name></trkpt>
<trkpt lat="52.914337" lon="-3.124196"><ele>372</ele><time>2019-09-27T10:55:08Z</time><name>PT3888</name></trkpt>
<trkpt lat="52.914328" lon="-3.124207"><ele>372</ele><time>2019-09-27T10:55:09Z</time><name>PT3889</name></trkpt>
<trkpt lat="52.914318" lon="-3.124223"><ele>372</ele><time>2019-09-27T10:55:10Z</time><name>PT3890</name></trkpt>
<trkpt lat="52.914305" lon="-3.124238"><ele>373</ele><time>2019-09-27T10:55:11Z</time><name>PT3891</name></trkpt>
<trkpt lat="52.914298" lon="-3.124253"><ele>373</ele><time>2019-09-27T10:55:12Z</time><name>PT3892</name></trkpt>
<trkpt lat="52.914288" lon="-3.124278"><ele>374</ele><time>2019-09-27T10:55:13Z</time><name>PT3893</name></trkpt>
<trkpt lat="52.914276" lon="-3.124293"><ele>374</ele><time>2019-09-27T10:55:14Z</time><name>PT3894</name></trkpt>
<trkpt lat="52.914265" lon="-3.124307"><ele>374</ele><time>2019-09-27T10:55:15Z</time><name>PT3895</name></trkpt>
<trkpt lat="52.914257" lon="-3.124322"><ele>374</ele><time>2019-09-27T10:55:16Z</time><name>PT3896</name></trkpt>
<trkpt lat="52.914248" lon="-3.124335"><ele>374</ele><time>2019-09-27T10:55:17Z</time><name>PT3897</name></trkpt>
<trkpt lat="52.914237" lon="-3.124349"><ele>374</ele><time>2019-09-27T10:55:18Z</time><name>PT3898</name></trkpt>
<trkpt lat="52.914228" lon="-3.124362"><ele>374</ele><time>2019-09-27T10:55:19Z</time><name>PT3899</name></trkpt>
<trkpt lat="52.914220" lon="-3.124377"><ele>374</ele><time>2019-09-27T10:55:20Z</time><name>PT3900</name></trkpt>
<trkpt lat="52.914212" lon="-3.124392"><ele>374</ele><time>2019-09-27T10:55:21Z</time><name>PT3901</name></trkpt>
<trkpt lat="52.914201" lon="-3.124402"><ele>374</ele><time>2019-09-27T10:55:22Z</time><name>PT3902</name></trkpt>
<trkpt lat="52.914188" lon="-3.124414"><ele>374</ele><time>2019-09-27T10:55:23Z</time><name>PT3903</name></trkpt>
<trkpt lat="52.914178" lon="-3.124425"><ele>373</ele><time>2019-09-27T10:55:24Z</time><name>PT3904</name></trkpt>
<trkpt lat="52.914169" lon="-3.124438"><ele>373</ele><time>2019-09-27T10:55:25Z</time><name>PT3905</name></trkpt>
<trkpt lat="52.914159" lon="-3.124452"><ele>373</ele><time>2019-09-27T10:55:26Z</time><name>PT3906</name></trkpt>
<trkpt lat="52.914148" lon="-3.124469"><ele>373</ele><time>2019-09-27T10:55:27Z</time><name>PT3907</name></trkpt>
<trkpt lat="52.914136" lon="-3.124481"><ele>373</ele><time>2019-09-27T10:55:28Z</time><name>PT3908</name></trkpt>
<trkpt lat="52.914125" lon="-3.124490"><ele>373</ele><time>2019-09-27T10:55:29Z</time><name>PT3909</name></trkpt>
<trkpt lat="52.914116" lon="-3.124499"><ele>373</ele><time>2019-09-27T10:55:30Z</time><name>PT3910</name></trkpt>
<trkpt lat="52.914103" lon="-3.124514"><ele>373</ele><time>2019-09-27T10:55:31Z</time><name>PT3911</name></trkpt>
<trkpt lat="52.914093" lon="-3.124528"><ele>373</ele><time>2019-09-27T10:55:32Z</time><name>PT3912</name></trkpt>
<trkpt lat="52.914085" lon="-3.124545"><ele>373</ele><time>2019-09-27T10:55:33Z</time><name>PT3913</name></trkpt>
<trkpt lat="52.914077" lon="-3.124561"><ele>373</ele><time>2019-09-27T10:55:34Z</time><name>PT3914</name></trkpt>
<trkpt lat="52.914068" lon="-3.124572"><ele>373</ele><time>2019-09-27T10:55:35Z</time><name>PT3915</name></trkpt>
<trkpt lat="52.914058" lon="-3.124581"><ele>373</ele><time>2019-09-27T10:55:36Z</time><name>PT3916</name></trkpt>
<trkpt lat="52.914047" lon="-3.124593"><ele>373</ele><time>2019-09-27T10:55:37Z</time><name>PT3917</name></trkpt>
<trkpt lat="52.914038" lon="-3.124607"><ele>373</ele><time>2019-09-27T10:55:38Z</time><name>PT3918</name></trkpt>
<trkpt lat="52.914029" lon="-3.124619"><ele>373</ele><time>2019-09-27T10:55:39Z</time><name>PT3919</name></trkpt>
<trkpt lat="52.914020" lon="-3.124628"><ele>373</ele><time>2019-09-27T10:55:40Z</time><name>PT3920</name></trkpt>
<trkpt lat="52.914013" lon="-3.124642"><ele>373</ele><time>2019-09-27T10:55:41Z</time><name>PT3921</name></trkpt>
<trkpt lat="52.914006" lon="-3.124655"><ele>372</ele><time>2019-09-27T10:55:42Z</time><name>PT3922</name></trkpt>
<trkpt lat="52.913996" lon="-3.124670"><ele>373</ele><time>2019-09-27T10:55:43Z</time><name>PT3923</name></trkpt>
<trkpt lat="52.913984" lon="-3.124679"><ele>372</ele><time>2019-09-27T10:55:44Z</time><name>PT3924</name></trkpt>
<trkpt lat="52.913974" lon="-3.124694"><ele>373</ele><time>2019-09-27T10:55:45Z</time><name>PT3925</name></trkpt>
<trkpt lat="52.913964" lon="-3.124700"><ele>372</ele><time>2019-09-27T10:55:46Z</time><name>PT3926</name></trkpt>
<trkpt lat="52.913954" lon="-3.124707"><ele>372</ele><time>2019-09-27T10:55:47Z</time><name>PT3927</name></trkpt>
<trkpt lat="52.913944" lon="-3.124721"><ele>372</ele><time>2019-09-27T10:55:48Z</time><name>PT3928</name></trkpt>
<trkpt lat="52.913934" lon="-3.124733"><ele>372</ele><time>2019-09-27T10:55:49Z</time><name>PT3929</name></trkpt>
<trkpt lat="52.913925" lon="-3.124750"><ele>372</ele><time>2019-09-27T10:55:50Z</time><name>PT3930</name></trkpt>
<trkpt lat="52.913916" lon="-3.124764"><ele>372</ele><time>2019-09-27T10:55:51Z</time><name>PT3931</name></trkpt>
<trkpt lat="52.913907" lon="-3.124781"><ele>372</ele><time>2019-09-27T10:55:52Z</time><name>PT3932</name></trkpt>
<trkpt lat="52.913897" lon="-3.124791"><ele>372</ele><time>2019-09-27T10:55:53Z</time><name>PT3933</name></trkpt>
<trkpt lat="52.913887" lon="-3.124800"><ele>371</ele><time>2019-09-27T10:55:54Z</time><name>PT3934</name></trkpt>
<trkpt lat="52.913880" lon="-3.124808"><ele>371</ele><time>2019-09-27T10:55:55Z</time><name>PT3935</name></trkpt>
<trkpt lat="52.913870" lon="-3.124821"><ele>370</ele><time>2019-09-27T10:55:56Z</time><name>PT3936</name></trkpt>
<trkpt lat="52.913865" lon="-3.124836"><ele>370</ele><time>2019-09-27T10:55:57Z</time><name>PT3937</name></trkpt>
<trkpt lat="52.913863" lon="-3.124847"><ele>369</ele><time>2019-09-27T10:55:58Z</time><name>PT3938</name></trkpt>
<trkpt lat="52.913856" lon="-3.124858"><ele>369</ele><time>2019-09-27T10:55:59Z</time><name>PT3939</name></trkpt>
<trkpt lat="52.913845" lon="-3.124870"><ele>369</ele><time>2019-09-27T10:56:00Z</time><name>PT3940</name></trkpt>
<trkpt lat="52.913836" lon="-3.124885"><ele>369</ele><time>2019-09-27T10:56:01Z</time><name>PT3941</name></trkpt>
<trkpt lat="52.913826" lon="-3.124903"><ele>369</ele><time>2019-09-27T10:56:02Z</time><name>PT3942</name></trkpt>
<trkpt lat="52.913818" lon="-3.124915"><ele>369</ele><time>2019-09-27T10:56:03Z</time><name>PT3943</name></trkpt>
<trkpt lat="52.913806" lon="-3.124927"><ele>370</ele><time>2019-09-27T10:56:04Z</time><name>PT3944</name></trkpt>
<trkpt lat="52.913795" lon="-3.124942"><ele>370</ele><time>2019-09-27T10:56:05Z</time><name>PT3945</name></trkpt>
<trkpt lat="52.913783" lon="-3.124954"><ele>370</ele><time>2019-09-27T10:56:06Z</time><name>PT3946</name></trkpt>
<trkpt lat="52.913772" lon="-3.124966"><ele>370</ele><time>2019-09-27T10:56:07Z</time><name>PT3947</name></trkpt>
<trkpt lat="52.913762" lon="-3.124981"><ele>371</ele><time>2019-09-27T10:56:08Z</time><name>PT3948</name></trkpt>
<trkpt lat="52.913756" lon="-3.124996"><ele>371</ele><time>2019-09-27T10:56:09Z</time><name>PT3949</name></trkpt>
<trkpt lat="52.913747" lon="-3.125009"><ele>371</ele><time>2019-09-27T10:56:10Z</time><name>PT3950</name></trkpt>
<trkpt lat="52.913740" lon="-3.125023"><ele>371</ele><time>2019-09-27T10:56:11Z</time><name>PT3951</name></trkpt>
<trkpt lat="52.913729" lon="-3.125039"><ele>371</ele><time>2019-09-27T10:56:12Z</time><name>PT3952</name></trkpt>
<trkpt lat="52.913719" lon="-3.125052"><ele>371</ele><time>2019-09-27T10:56:13Z</time><name>PT3953</name></trkpt>
<trkpt lat="52.913711" lon="-3.125058"><ele>370</ele><time>2019-09-27T10:56:14Z</time><name>PT3954</name></trkpt>
<trkpt lat="52.913702" lon="-3.125066"><ele>370</ele><time>2019-09-27T10:56:15Z</time><name>PT3955</name></trkpt>
<trkpt lat="52.913688" lon="-3.125080"><ele>370</ele><time>2019-09-27T10:56:16Z</time><name>PT3956</name></trkpt>
<trkpt lat="52.913679" lon="-3.125097"><ele>370</ele><time>2019-09-27T10:56:17Z</time><name>PT3957</name></trkpt>
<trkpt lat="52.913670" lon="-3.125123"><ele>371</ele><time>2019-09-27T10:56:18Z</time><name>PT3958</name></trkpt>
<trkpt lat="52.913660" lon="-3.125143"><ele>371</ele><time>2019-09-27T10:56:19Z</time><name>PT3959</name></trkpt>
<trkpt lat="52.913647" lon="-3.125159"><ele>372</ele><time>2019-09-27T10:56:20Z</time><name>PT3960</name></trkpt>
<trkpt lat="52.913634" lon="-3.125173"><ele>372</ele><time>2019-09-27T10:56:21Z</time><name>PT3961</name></trkpt>
<trkpt lat="52.913626" lon="-3.125185"><ele>372</ele><time>2019-09-27T10:56:22Z</time><name>PT3962</name></trkpt>
<trkpt lat="52.913619" lon="-3.125195"><ele>372</ele><time>2019-09-27T10:56:23Z</time><name>PT3963</name></trkpt>
<trkpt lat="52.913609" lon="-3.125213"><ele>371</ele><time>2019-09-27T10:56:24Z</time><name>PT3964</name></trkpt>
<trkpt lat="52.913602" lon="-3.125228"><ele>371</ele><time>2019-09-27T10:56:25Z</time><name>PT3965</name></trkpt>
<trkpt lat="52.913599" lon="-3.125243"><ele>372</ele><time>2019-09-27T10:56:26Z</time><name>PT3966</name></trkpt>
<trkpt lat="52.913589" lon="-3.125259"><ele>372</ele><time>2019-09-27T10:56:27Z</time><name>PT3967</name></trkpt>
<trkpt lat="52.913576" lon="-3.125268"><ele>373</ele><time>2019-09-27T10:56:28Z</time><name>PT3968</name></trkpt>
<trkpt lat="52.913565" lon="-3.125278"><ele>372</ele><time>2019-09-27T10:56:29Z</time><name>PT3969</name></trkpt>
<trkpt lat="52.913558" lon="-3.125289"><ele>372</ele><time>2019-09-27T10:56:30Z</time><name>PT3970</name></trkpt>
<trkpt lat="52.913550" lon="-3.125303"><ele>372</ele><time>2019-09-27T10:56:31Z</time><name>PT3971</name></trkpt>
<trkpt lat="52.913545" lon="-3.125315"><ele>372</ele><time>2019-09-27T10:56:32Z</time><name>PT3972</name></trkpt>
<trkpt lat="52.913544" lon="-3.125330"><ele>372</ele><time>2019-09-27T10:56:33Z</time><name>PT3973</name></trkpt>
<trkpt lat="52.913546" lon="-3.125345"><ele>372</ele><time>2019-09-27T10:56:34Z</time><name>PT3974</name></trkpt>
<trkpt lat="52.913550" lon="-3.125361"><ele>372</ele><time>2019-09-27T10:56:35Z</time><name>PT3975</name></trkpt>
<trkpt lat="52.913554" lon="-3.125380"><ele>371</ele><time>2019-09-27T10:56:36Z</time><name>PT3976</name></trkpt>
<trkpt lat="52.913560" lon="-3.125394"><ele>371</ele><time>2019-09-27T10:56:37Z</time><name>PT3977</name></trkpt>
<trkpt lat="52.913566" lon="-3.125406"><ele>372</ele><time>2019-09-27T10:56:38Z</time><name>PT3978</name></trkpt>
<trkpt lat="52.913572" lon="-3.125421"><ele>372</ele><time>2019-09-27T10:56:39Z</time><name>PT3979</name></trkpt>
<trkpt lat="52.913576" lon="-3.125436"><ele>371</ele><time>2019-09-27T10:56:40Z</time><name>PT3980</name></trkpt>
<trkpt lat="52.913581" lon="-3.125444"><ele>372</ele><time>2019-09-27T10:56:41Z</time><name>PT3981</name></trkpt>
<trkpt lat="52.913580" lon="-3.125449"><ele>371</ele><time>2019-09-27T10:56:42Z</time><name>PT3982</name></trkpt>
<trkpt lat="52.913582" lon="-3.125460"><ele>371</ele><time>2019-09-27T10:56:43Z</time><name>PT3983</name></trkpt>
<trkpt lat="52.913580" lon="-3.125472"><ele>370</ele><time>2019-09-27T10:56:44Z</time><name>PT3984</name></trkpt>
<trkpt lat="52.913579" lon="-3.125482"><ele>369</ele><time>2019-09-27T10:56:45Z</time><name>PT3985</name></trkpt>
<trkpt lat="52.913580" lon="-3.125486"><ele>369</ele><time>2019-09-27T10:56:46Z</time><name>PT3986</name></trkpt>
<trkpt lat="52.913581" lon="-3.125490"><ele>368</ele><time>2019-09-27T10:56:47Z</time><name>PT3987</name></trkpt>
<trkpt lat="52.913571" lon="-3.125497"><ele>369</ele><time>2019-09-27T10:57:08Z</time><name>PT3988</name></trkpt>
<trkpt lat="52.913570" lon="-3.125500"><ele>369</ele><time>2019-09-27T10:57:09Z</time><name>PT3989</name></trkpt>
<trkpt lat="52.913570" lon="-3.125502"><ele>369</ele><time>2019-09-27T10:57:10Z</time><name>PT3990</name></trkpt>
<trkpt lat="52.913573" lon="-3.125510"><ele>369</ele><time>2019-09-27T10:57:11Z</time><name>PT3991</name></trkpt>
<trkpt lat="52.913574" lon="-3.125514"><ele>369</ele><time>2019-09-27T10:57:12Z</time><name>PT3992</name></trkpt>
<trkpt lat="52.913577" lon="-3.125515"><ele>369</ele><time>2019-09-27T10:57:13Z</time><name>PT3993</name></trkpt>
<trkpt lat="52.913577" lon="-3.125516"><ele>369</ele><time>2019-09-27T10:57:14Z</time><name>PT3994</name></trkpt>
<trkpt lat="52.913579" lon="-3.125526"><ele>369</ele><time>2019-09-27T10:57:33Z</time><name>PT3995</name></trkpt>
<trkpt lat="52.913583" lon="-3.125532"><ele>369</ele><time>2019-09-27T10:57:34Z</time><name>PT3996</name></trkpt>
<trkpt lat="52.913583" lon="-3.125541"><ele>369</ele><time>2019-09-27T10:57:35Z</time><name>PT3997</name></trkpt>
<trkpt lat="52.913583" lon="-3.125542"><ele>369</ele><time>2019-09-27T10:57:36Z</time><name>PT3998</name></trkpt>
<trkpt lat="52.913583" lon="-3.125541"><ele>369</ele><time>2019-09-27T10:57:37Z</time><name>PT3999</name></trkpt>
<trkpt lat="52.913586" lon="-3.125540"><ele>369</ele><time>2019-09-27T10:57:38Z</time><name>PT4000</name></trkpt>
<trkpt lat="52.913590" lon="-3.125537"><ele>369</ele><time>2019-09-27T10:59:40Z</time><name>PT4001</name></trkpt>
<trkpt lat="52.913590" lon="-3.125547"><ele>370</ele><time>2019-09-27T10:59:41Z</time><name>PT4002</name></trkpt>
<trkpt lat="52.913592" lon="-3.125543"><ele>370</ele><time>2019-09-27T10:59:42Z</time><name>PT4003</name></trkpt>
<trkpt lat="52.913590" lon="-3.125557"><ele>370</ele><time>2019-09-27T11:00:05Z</time><name>PT4004</name></trkpt>
<trkpt lat="52.913591" lon="-3.125562"><ele>371</ele><time>2019-09-27T11:00:06Z</time><name>PT4005</name></trkpt>
<trkpt lat="52.913594" lon="-3.125558"><ele>371</ele><time>2019-09-27T11:00:07Z</time><name>PT4006</name></trkpt>
<trkpt lat="52.913600" lon="-3.125567"><ele>371</ele><time>2019-09-27T11:00:08Z</time><name>PT4007</name></trkpt>
<trkpt lat="52.913604" lon="-3.125568"><ele>372</ele><time>2019-09-27T11:00:09Z</time><name>PT4008</name></trkpt>
<trkpt lat="52.913607" lon="-3.125568"><ele>373</ele><time>2019-09-27T11:00:10Z</time><name>PT4009</name></trkpt>
<trkpt lat="52.913611" lon="-3.125562"><ele>373</ele><time>2019-09-27T11:00:11Z</time><name>PT4010</name></trkpt>
<trkpt lat="52.913615" lon="-3.125557"><ele>373</ele><time>2019-09-27T11:00:51Z</time><name>PT4011</name></trkpt>
<trkpt lat="52.913616" lon="-3.125550"><ele>373</ele><time>2019-09-27T11:00:52Z</time><name>PT4012</name></trkpt>
<trkpt lat="52.913615" lon="-3.125548"><ele>373</ele><time>2019-09-27T11:00:53Z</time><name>PT4013</name></trkpt>
<trkpt lat="52.913621" lon="-3.125537"><ele>373</ele><time>2019-09-27T11:00:56Z</time><name>PT4014</name></trkpt>
<trkpt lat="52.913620" lon="-3.125541"><ele>372</ele><time>2019-09-27T11:00:57Z</time><name>PT4015</name></trkpt>
<trkpt lat="52.913622" lon="-3.125541"><ele>372</ele><time>2019-09-27T11:01:58Z</time><name>PT4016</name></trkpt>
<trkpt lat="52.913626" lon="-3.125542"><ele>372</ele><time>2019-09-27T11:01:59Z</time><name>PT4017</name></trkpt>
<trkpt lat="52.913628" lon="-3.125539"><ele>372</ele><time>2019-09-27T11:02:00Z</time><name>PT4018</name></trkpt>
<trkpt lat="52.913628" lon="-3.125537"><ele>372</ele><time>2019-09-27T11:02:01Z</time><name>PT4019</name></trkpt>
<trkpt lat="52.913625" lon="-3.125537"><ele>372</ele><time>2019-09-27T11:02:02Z</time><name>PT4020</name></trkpt>
<trkpt lat="52.913625" lon="-3.125535"><ele>372</ele><time>2019-09-27T11:02:08Z</time><name>PT4021</name></trkpt>
<trkpt lat="52.913620" lon="-3.125529"><ele>372</ele><time>2019-09-27T11:02:09Z</time><name>PT4022</name></trkpt>
<trkpt lat="52.913616" lon="-3.125524"><ele>372</ele><time>2019-09-27T11:02:10Z</time><name>PT4023</name></trkpt>
<trkpt lat="52.913615" lon="-3.125523"><ele>372</ele><time>2019-09-27T11:02:11Z</time><name>PT4024</name></trkpt>
<trkpt lat="52.913613" lon="-3.125519"><ele>372</ele><time>2019-09-27T11:02:12Z</time><name>PT4025</name></trkpt>
<trkpt lat="52.913613" lon="-3.125511"><ele>371</ele><time>2019-09-27T11:02:17Z</time><name>PT4026</name></trkpt>
<trkpt lat="52.913610" lon="-3.125509"><ele>371</ele><time>2019-09-27T11:02:18Z</time><name>PT4027</name></trkpt>
<trkpt lat="52.913610" lon="-3.125514"><ele>371</ele><time>2019-09-27T11:02:19Z</time><name>PT4028</name></trkpt>
<trkpt lat="52.913609" lon="-3.125517"><ele>371</ele><time>2019-09-27T11:02:20Z</time><name>PT4029</name></trkpt>
<trkpt lat="52.913609" lon="-3.125518"><ele>371</ele><time>2019-09-27T11:02:21Z</time><name>PT4030</name></trkpt>
<trkpt lat="52.913614" lon="-3.125515"><ele>372</ele><time>2019-09-27T11:02:22Z</time><name>PT4031</name></trkpt>
<trkpt lat="52.913615" lon="-3.125521"><ele>372</ele><time>2019-09-27T11:02:23Z</time><name>PT4032</name></trkpt>
<trkpt lat="52.913614" lon="-3.125520"><ele>372</ele><time>2019-09-27T11:02:24Z</time><name>PT4033</name></trkpt>
<trkpt lat="52.913612" lon="-3.125518"><ele>372</ele><time>2019-09-27T11:02:25Z</time><name>PT4034</name></trkpt>
<trkpt lat="52.913611" lon="-3.125521"><ele>372</ele><time>2019-09-27T11:02:26Z</time><name>PT4035</name></trkpt>
<trkpt lat="52.913611" lon="-3.125522"><ele>372</ele><time>2019-09-27T11:02:27Z</time><name>PT4036</name></trkpt>
<trkpt lat="52.913609" lon="-3.125523"><ele>372</ele><time>2019-09-27T11:02:28Z</time><name>PT4037</name></trkpt>
<trkpt lat="52.913610" lon="-3.125525"><ele>372</ele><time>2019-09-27T11:02:29Z</time><name>PT4038</name></trkpt>
<trkpt lat="52.913610" lon="-3.125534"><ele>372</ele><time>2019-09-27T11:02:50Z</time><name>PT4039</name></trkpt>
<trkpt lat="52.913613" lon="-3.125541"><ele>372</ele><time>2019-09-27T11:02:51Z</time><name>PT4040</name></trkpt>
<trkpt lat="52.913615" lon="-3.125544"><ele>372</ele><time>2019-09-27T11:02:56Z</time><name>PT4041</name></trkpt>
<trkpt lat="52.913613" lon="-3.125547"><ele>372</ele><time>2019-09-27T11:02:57Z</time><name>PT4042</name></trkpt>
<trkpt lat="52.913614" lon="-3.125549"><ele>372</ele><time>2019-09-27T11:02:58Z</time><name>PT4043</name></trkpt>
<trkpt lat="52.913615" lon="-3.125550"><ele>372</ele><time>2019-09-27T11:02:59Z</time><name>PT4044</name></trkpt>
<trkpt lat="52.913619" lon="-3.125545"><ele>371</ele><time>2019-09-27T11:03:19Z</time><name>PT4045</name></trkpt>
<trkpt lat="52.913618" lon="-3.125540"><ele>371</ele><time>2019-09-27T11:03:20Z</time><name>PT4046</name></trkpt>
<trkpt lat="52.913616" lon="-3.125541"><ele>371</ele><time>2019-09-27T11:03:36Z</time><name>PT4047</name></trkpt>
<trkpt lat="52.913619" lon="-3.125541"><ele>371</ele><time>2019-09-27T11:03:37Z</time><name>PT4048</name></trkpt>
<trkpt lat="52.913618" lon="-3.125552"><ele>371</ele><time>2019-09-27T11:03:38Z</time><name>PT4049</name></trkpt>
<trkpt lat="52.913619" lon="-3.125559"><ele>371</ele><time>2019-09-27T11:04:10Z</time><name>PT4050</name></trkpt>
<trkpt lat="52.913615" lon="-3.125573"><ele>371</ele><time>2019-09-27T11:04:11Z</time><name>PT4051</name></trkpt>
<trkpt lat="52.913613" lon="-3.125576"><ele>371</ele><time>2019-09-27T11:04:12Z</time><name>PT4052</name></trkpt>
<trkpt lat="52.913612" lon="-3.125575"><ele>371</ele><time>2019-09-27T11:04:13Z</time><name>PT4053</name></trkpt>
<trkpt lat="52.913607" lon="-3.125570"><ele>371</ele><time>2019-09-27T11:04:18Z</time><name>PT4054</name></trkpt>
<trkpt lat="52.913605" lon="-3.125573"><ele>371</ele><time>2019-09-27T11:04:19Z</time><name>PT4055</name></trkpt>
<trkpt lat="52.913606" lon="-3.125566"><ele>370</ele><time>2019-09-27T11:05:14Z</time><name>PT4056</name></trkpt>
<trkpt lat="52.913609" lon="-3.125562"><ele>370</ele><time>2019-09-27T11:05:15Z</time><name>PT4057</name></trkpt>
<trkpt lat="52.913611" lon="-3.125561"><ele>370</ele><time>2019-09-27T11:05:16Z</time><name>PT4058</name></trkpt>
<trkpt lat="52.913611" lon="-3.125564"><ele>370</ele><time>2019-09-27T11:05:58Z</time><name>PT4059</name></trkpt>
<trkpt lat="52.913614" lon="-3.125559"><ele>370</ele><time>2019-09-27T11:05:59Z</time><name>PT4060</name></trkpt>
<trkpt lat="52.913615" lon="-3.125560"><ele>370</ele><time>2019-09-27T11:06:00Z</time><name>PT4061</name></trkpt>
<trkpt lat="52.913616" lon="-3.125561"><ele>370</ele><time>2019-09-27T11:06:01Z</time><name>PT4062</name></trkpt>
<trkpt lat="52.913618" lon="-3.125561"><ele>370</ele><time>2019-09-27T11:06:02Z</time><name>PT4063</name></trkpt>
<trkpt lat="52.913618" lon="-3.125566"><ele>370</ele><time>2019-09-27T11:06:03Z</time><name>PT4064</name></trkpt>
<trkpt lat="52.913621" lon="-3.125567"><ele>370</ele><time>2019-09-27T11:06:04Z</time><name>PT4065</name></trkpt>
<trkpt lat="52.913617" lon="-3.125578"><ele>370</ele><time>2019-09-27T11:06:12Z</time><name>PT4066</name></trkpt>
<trkpt lat="52.913618" lon="-3.125576"><ele>370</ele><time>2019-09-27T11:06:13Z</time><name>PT4067</name></trkpt>
<trkpt lat="52.913616" lon="-3.125584"><ele>370</ele><time>2019-09-27T11:06:14Z</time><name>PT4068</name></trkpt>
<trkpt lat="52.913615" lon="-3.125587"><ele>370</ele><time>2019-09-27T11:06:15Z</time><name>PT4069</name></trkpt>
<trkpt lat="52.913615" lon="-3.125588"><ele>370</ele><time>2019-09-27T11:06:21Z</time><name>PT4070</name></trkpt>
<trkpt lat="52.913616" lon="-3.125583"><ele>370</ele><time>2019-09-27T11:06:22Z</time><name>PT4071</name></trkpt>
<trkpt lat="52.913617" lon="-3.125581"><ele>370</ele><time>2019-09-27T11:06:23Z</time><name>PT4072</name></trkpt>
<trkpt lat="52.913616" lon="-3.125576"><ele>369</ele><time>2019-09-27T11:06:50Z</time><name>PT4073</name></trkpt>
<trkpt lat="52.913615" lon="-3.125580"><ele>369</ele><time>2019-09-27T11:06:51Z</time><name>PT4074</name></trkpt>
<trkpt lat="52.913617" lon="-3.125580"><ele>369</ele><time>2019-09-27T11:06:52Z</time><name>PT4075</name></trkpt>
<trkpt lat="52.913621" lon="-3.125585"><ele>369</ele><time>2019-09-27T11:06:53Z</time><name>PT4076</name></trkpt>
<trkpt lat="52.913624" lon="-3.125583"><ele>369</ele><time>2019-09-27T11:06:54Z</time><name>PT4077</name></trkpt>
<trkpt lat="52.913625" lon="-3.125582"><ele>369</ele><time>2019-09-27T11:06:58Z</time><name>PT4078</name></trkpt>
<trkpt lat="52.913629" lon="-3.125585"><ele>369</ele><time>2019-09-27T11:06:59Z</time><name>PT4079</name></trkpt>
<trkpt lat="52.913632" lon="-3.125583"><ele>369</ele><time>2019-09-27T11:07:00Z</time><name>PT4080</name></trkpt>
<trkpt lat="52.913631" lon="-3.125583"><ele>370</ele><time>2019-09-27T11:07:01Z</time><name>PT4081</name></trkpt>
<trkpt lat="52.913633" lon="-3.125585"><ele>370</ele><time>2019-09-27T11:07:02Z</time><name>PT4082</name></trkpt>
<trkpt lat="52.913637" lon="-3.125585"><ele>370</ele><time>2019-09-27T11:07:03Z</time><name>PT4083</name></trkpt>
<trkpt lat="52.913641" lon="-3.125590"><ele>370</ele><time>2019-09-27T11:07:04Z</time><name>PT4084</name></trkpt>
<trkpt lat="52.913647" lon="-3.125594"><ele>370</ele><time>2019-09-27T11:07:05Z</time><name>PT4085</name></trkpt>
<trkpt lat="52.913655" lon="-3.125594"><ele>370</ele><time>2019-09-27T11:07:06Z</time><name>PT4086</name></trkpt>
<trkpt lat="52.913658" lon="-3.125595"><ele>369</ele><time>2019-09-27T11:07:07Z</time><name>PT4087</name></trkpt>
<trkpt lat="52.913660" lon="-3.125598"><ele>369</ele><time>2019-09-27T11:07:08Z</time><name>PT4088</name></trkpt>
<trkpt lat="52.913661" lon="-3.125599"><ele>369</ele><time>2019-09-27T11:07:09Z</time><name>PT4089</name></trkpt>
<trkpt lat="52.913662" lon="-3.125604"><ele>369</ele><time>2019-09-27T11:07:10Z</time><name>PT4090</name></trkpt>
<trkpt lat="52.913664" lon="-3.125602"><ele>369</ele><time>2019-09-27T11:07:11Z</time><name>PT4091</name></trkpt>
<trkpt lat="52.913668" lon="-3.125605"><ele>369</ele><time>2019-09-27T11:07:12Z</time><name>PT4092</name></trkpt>
<trkpt lat="52.913672" lon="-3.125608"><ele>369</ele><time>2019-09-27T11:07:13Z</time><name>PT4093</name></trkpt>
<trkpt lat="52.913679" lon="-3.125608"><ele>368</ele><time>2019-09-27T11:07:14Z</time><name>PT4094</name></trkpt>
<trkpt lat="52.913686" lon="-3.125610"><ele>368</ele><time>2019-09-27T11:07:15Z</time><name>PT4095</name></trkpt>
<trkpt lat="52.913690" lon="-3.125620"><ele>368</ele><time>2019-09-27T11:07:16Z</time><name>PT4096</name></trkpt>
<trkpt lat="52.913695" lon="-3.125629"><ele>368</ele><time>2019-09-27T11:07:17Z</time><name>PT4097</name></trkpt>
<trkpt lat="52.913702" lon="-3.125639"><ele>368</ele><time>2019-09-27T11:07:18Z</time><name>PT4098</name></trkpt>
<trkpt lat="52.913710" lon="-3.125644"><ele>368</ele><time>2019-09-27T11:07:19Z</time><name>PT4099</name></trkpt>
<trkpt lat="52.913717" lon="-3.125655"><ele>367</ele><time>2019-09-27T11:07:20Z</time><name>PT4100</name></trkpt>
<trkpt lat="52.913725" lon="-3.125663"><ele>368</ele><time>2019-09-27T11:07:21Z</time><name>PT4101</name></trkpt>
<trkpt lat="52.913733" lon="-3.125674"><ele>368</ele><time>2019-09-27T11:07:22Z</time><name>PT4102</name></trkpt>
<trkpt lat="52.913741" lon="-3.125683"><ele>368</ele><time>2019-09-27T11:07:23Z</time><name>PT4103</name></trkpt>
<trkpt lat="52.913753" lon="-3.125697"><ele>368</ele><time>2019-09-27T11:07:24Z</time><name>PT4104</name></trkpt>
<trkpt lat="52.913765" lon="-3.125708"><ele>369</ele><time>2019-09-27T11:07:25Z</time><name>PT4105</name></trkpt>
<trkpt lat="52.913773" lon="-3.125717"><ele>369</ele><time>2019-09-27T11:07:26Z</time><name>PT4106</name></trkpt>
<trkpt lat="52.913784" lon="-3.125723"><ele>370</ele><time>2019-09-27T11:07:27Z</time><name>PT4107</name></trkpt>
<trkpt lat="52.913791" lon="-3.125733"><ele>370</ele><time>2019-09-27T11:07:28Z</time><name>PT4108</name></trkpt>
<trkpt lat="52.913799" lon="-3.125740"><ele>370</ele><time>2019-09-27T11:07:29Z</time><name>PT4109</name></trkpt>
<trkpt lat="52.913810" lon="-3.125744"><ele>370</ele><time>2019-09-27T11:07:30Z</time><name>PT4110</name></trkpt>
<trkpt lat="52.913820" lon="-3.125750"><ele>370</ele><time>2019-09-27T11:07:31Z</time><name>PT4111</name></trkpt>
<trkpt lat="52.913829" lon="-3.125757"><ele>370</ele><time>2019-09-27T11:07:32Z</time><name>PT4112</name></trkpt>
<trkpt lat="52.913838" lon="-3.125768"><ele>370</ele><time>2019-09-27T11:07:33Z</time><name>PT4113</name></trkpt>
<trkpt lat="52.913848" lon="-3.125774"><ele>370</ele><time>2019-09-27T11:07:34Z</time><name>PT4114</name></trkpt>
<trkpt lat="52.913851" lon="-3.125784"><ele>369</ele><time>2019-09-27T11:07:35Z</time><name>PT4115</name></trkpt>
<trkpt lat="52.913858" lon="-3.125788"><ele>369</ele><time>2019-09-27T11:07:36Z</time><name>PT4116</name></trkpt>
<trkpt lat="52.913873" lon="-3.125797"><ele>369</ele><time>2019-09-27T11:07:37Z</time><name>PT4117</name></trkpt>
<trkpt lat="52.913883" lon="-3.125805"><ele>369</ele><time>2019-09-27T11:07:38Z</time><name>PT4118</name></trkpt>
<trkpt lat="52.913889" lon="-3.125812"><ele>369</ele><time>2019-09-27T11:07:39Z</time><name>PT4119</name></trkpt>
<trkpt lat="52.913894" lon="-3.125821"><ele>369</ele><time>2019-09-27T11:07:40Z</time><name>PT4120</name></trkpt>
<trkpt lat="52.913898" lon="-3.125828"><ele>369</ele><time>2019-09-27T11:07:41Z</time><name>PT4121</name></trkpt>
<trkpt lat="52.913904" lon="-3.125833"><ele>368</ele><time>2019-09-27T11:07:42Z</time><name>PT4122</name></trkpt>
<trkpt lat="52.913913" lon="-3.125841"><ele>367</ele><time>2019-09-27T11:07:43Z</time><name>PT4123</name></trkpt>
<trkpt lat="52.913915" lon="-3.125847"><ele>366</ele><time>2019-09-27T11:07:44Z</time><name>PT4124</name></trkpt>
<trkpt lat="52.913922" lon="-3.125856"><ele>366</ele><time>2019-09-27T11:07:45Z</time><name>PT4125</name></trkpt>
<trkpt lat="52.913929" lon="-3.125866"><ele>366</ele><time>2019-09-27T11:07:46Z</time><name>PT4126</name></trkpt>
<trkpt lat="52.913934" lon="-3.125877"><ele>365</ele><time>2019-09-27T11:07:47Z</time><name>PT4127</name></trkpt>
<trkpt lat="52.913942" lon="-3.125882"><ele>365</ele><time>2019-09-27T11:07:48Z</time><name>PT4128</name></trkpt>
<trkpt lat="52.913950" lon="-3.125887"><ele>365</ele><time>2019-09-27T11:07:49Z</time><name>PT4129</name></trkpt>
<trkpt lat="52.913960" lon="-3.125893"><ele>365</ele><time>2019-09-27T11:07:50Z</time><name>PT4130</name></trkpt>
<trkpt lat="52.913968" lon="-3.125899"><ele>365</ele><time>2019-09-27T11:07:51Z</time><name>PT4131</name></trkpt>
<trkpt lat="52.913979" lon="-3.125901"><ele>366</ele><time>2019-09-27T11:07:52Z</time><name>PT4132</name></trkpt>
<trkpt lat="52.913991" lon="-3.125908"><ele>365</ele><time>2019-09-27T11:07:53Z</time><name>PT4133</name></trkpt>
<trkpt lat="52.914000" lon="-3.125918"><ele>365</ele><time>2019-09-27T11:07:54Z</time><name>PT4134</name></trkpt>
<trkpt lat="52.914010" lon="-3.125931"><ele>365</ele><time>2019-09-27T11:07:55Z</time><name>PT4135</name></trkpt>
<trkpt lat="52.914018" lon="-3.125942"><ele>364</ele><time>2019-09-27T11:07:56Z</time><name>PT4136</name></trkpt>
<trkpt lat="52.914025" lon="-3.125951"><ele>364</ele><time>2019-09-27T11:07:57Z</time><name>PT4137</name></trkpt>
<trkpt lat="52.914040" lon="-3.125956"><ele>365</ele><time>2019-09-27T11:07:58Z</time><name>PT4138</name></trkpt>
<trkpt lat="52.914058" lon="-3.125958"><ele>367</ele><time>2019-09-27T11:07:59Z</time><name>PT4139</name></trkpt>
<trkpt lat="52.914071" lon="-3.125965"><ele>367</ele><time>2019-09-27T11:08:00Z</time><name>PT4140</name></trkpt>
<trkpt lat="52.914084" lon="-3.125967"><ele>367</ele><time>2019-09-27T11:08:01Z</time><name>PT4141</name></trkpt>
<trkpt lat="52.914097" lon="-3.125967"><ele>368</ele><time>2019-09-27T11:08:02Z</time><name>PT4142</name></trkpt>
<trkpt lat="52.914107" lon="-3.125970"><ele>368</ele><time>2019-09-27T11:08:03Z</time><name>PT4143</name></trkpt>
<trkpt lat="52.914115" lon="-3.125973"><ele>368</ele><time>2019-09-27T11:08:04Z</time><name>PT4144</name></trkpt>
<trkpt lat="52.914126" lon="-3.125980"><ele>368</ele><time>2019-09-27T11:08:05Z</time><name>PT4145</name></trkpt>
<trkpt lat="52.914135" lon="-3.125988"><ele>368</ele><time>2019-09-27T11:08:06Z</time><name>PT4146</name></trkpt>
<trkpt lat="52.914145" lon="-3.125992"><ele>369</ele><time>2019-09-27T11:08:07Z</time><name>PT4147</name></trkpt>
<trkpt lat="52.914153" lon="-3.125998"><ele>369</ele><time>2019-09-27T11:08:08Z</time><name>PT4148</name></trkpt>
<trkpt lat="52.914162" lon="-3.126002"><ele>369</ele><time>2019-09-27T11:08:09Z</time><name>PT4149</name></trkpt>
<trkpt lat="52.914170" lon="-3.126009"><ele>368</ele><time>2019-09-27T11:08:10Z</time><name>PT4150</name></trkpt>
<trkpt lat="52.914177" lon="-3.126015"><ele>369</ele><time>2019-09-27T11:08:11Z</time><name>PT4151</name></trkpt>
<trkpt lat="52.914185" lon="-3.126015"><ele>369</ele><time>2019-09-27T11:08:12Z</time><name>PT4152</name></trkpt>
<trkpt lat="52.914186" lon="-3.126015"><ele>368</ele><time>2019-09-27T11:08:13Z</time><name>PT4153</name></trkpt>
<trkpt lat="52.914196" lon="-3.126023"><ele>367</ele><time>2019-09-27T11:08:14Z</time><name>PT4154</name></trkpt>
<trkpt lat="52.914211" lon="-3.126033"><ele>368</ele><time>2019-09-27T11:08:15Z</time><name>PT4155</name></trkpt>
<trkpt lat="52.914223" lon="-3.126042"><ele>367</ele><time>2019-09-27T11:08:16Z</time><name>PT4156</name></trkpt>
<trkpt lat="52.914230" lon="-3.126047"><ele>366</ele><time>2019-09-27T11:08:17Z</time><name>PT4157</name></trkpt>
<trkpt lat="52.914242" lon="-3.126049"><ele>366</ele><time>2019-09-27T11:08:18Z</time><name>PT4158</name></trkpt>
<trkpt lat="52.914260" lon="-3.126048"><ele>366</ele><time>2019-09-27T11:08:19Z</time><name>PT4159</name></trkpt>
<trkpt lat="52.914277" lon="-3.126057"><ele>366</ele><time>2019-09-27T11:08:20Z</time><name>PT4160</name></trkpt>
<trkpt lat="52.914286" lon="-3.126065"><ele>365</ele><time>2019-09-27T11:08:21Z</time><name>PT4161</name></trkpt>
<trkpt lat="52.914291" lon="-3.126075"><ele>365</ele><time>2019-09-27T11:08:22Z</time><name>PT4162</name></trkpt>
<trkpt lat="52.914294" lon="-3.126088"><ele>364</ele><time>2019-09-27T11:08:23Z</time><name>PT4163</name></trkpt>
<trkpt lat="52.914303" lon="-3.126088"><ele>365</ele><time>2019-09-27T11:08:24Z</time><name>PT4164</name></trkpt>
<trkpt lat="52.914312" lon="-3.126096"><ele>365</ele><time>2019-09-27T11:08:25Z</time><name>PT4165</name></trkpt>
<trkpt lat="52.914319" lon="-3.126109"><ele>363</ele><time>2019-09-27T11:08:26Z</time><name>PT4166</name></trkpt>
<trkpt lat="52.914320" lon="-3.126115"><ele>362</ele><time>2019-09-27T11:08:27Z</time><name>PT4167</name></trkpt>
<trkpt lat="52.914330" lon="-3.126115"><ele>360</ele><time>2019-09-27T11:08:28Z</time><name>PT4168</name></trkpt>
<trkpt lat="52.914349" lon="-3.126108"><ele>360</ele><time>2019-09-27T11:08:29Z</time><name>PT4169</name></trkpt>
<trkpt lat="52.914361" lon="-3.126108"><ele>359</ele><time>2019-09-27T11:08:30Z</time><name>PT4170</name></trkpt>
<trkpt lat="52.914370" lon="-3.126110"><ele>359</ele><time>2019-09-27T11:08:31Z</time><name>PT4171</name></trkpt>
<trkpt lat="52.914388" lon="-3.126110"><ele>360</ele><time>2019-09-27T11:08:32Z</time><name>PT4172</name></trkpt>
<trkpt lat="52.914405" lon="-3.126113"><ele>360</ele><time>2019-09-27T11:08:33Z</time><name>PT4173</name></trkpt>
<trkpt lat="52.914420" lon="-3.126110"><ele>360</ele><time>2019-09-27T11:08:34Z</time><name>PT4174</name></trkpt>
<trkpt lat="52.914444" lon="-3.126106"><ele>361</ele><time>2019-09-27T11:08:35Z</time><name>PT4175</name></trkpt>
<trkpt lat="52.914459" lon="-3.126108"><ele>361</ele><time>2019-09-27T11:08:36Z</time><name>PT4176</name></trkpt>
<trkpt lat="52.914481" lon="-3.126109"><ele>361</ele><time>2019-09-27T11:08:37Z</time><name>PT4177</name></trkpt>
<trkpt lat="52.914531" lon="-3.126093"><ele>362</ele><time>2019-09-27T11:08:38Z</time><name>PT4178</name></trkpt>
<trkpt lat="52.914554" lon="-3.126091"><ele>363</ele><time>2019-09-27T11:08:39Z</time><name>PT4179</name></trkpt>
<trkpt lat="52.914580" lon="-3.126083"><ele>363</ele><time>2019-09-27T11:08:40Z</time><name>PT4180</name></trkpt>
<trkpt lat="52.914601" lon="-3.126078"><ele>364</ele><time>2019-09-27T11:08:41Z</time><name>PT4181</name></trkpt>
<trkpt lat="52.914622" lon="-3.126079"><ele>364</ele><time>2019-09-27T11:08:42Z</time><name>PT4182</name></trkpt>
<trkpt lat="52.914639" lon="-3.126076"><ele>365</ele><time>2019-09-27T11:08:43Z</time><name>PT4183</name></trkpt>
<trkpt lat="52.914653" lon="-3.126076"><ele>364</ele><time>2019-09-27T11:08:44Z</time><name>PT4184</name></trkpt>
<trkpt lat="52.914668" lon="-3.126074"><ele>364</ele><time>2019-09-27T11:08:45Z</time><name>PT4185</name></trkpt>
<trkpt lat="52.914681" lon="-3.126076"><ele>364</ele><time>2019-09-27T11:08:46Z</time><name>PT4186</name></trkpt>
<trkpt lat="52.914696" lon="-3.126075"><ele>364</ele><time>2019-09-27T11:08:47Z</time><name>PT4187</name></trkpt>
<trkpt lat="52.914711" lon="-3.126075"><ele>363</ele><time>2019-09-27T11:08:48Z</time><name>PT4188</name></trkpt>
<trkpt lat="52.914717" lon="-3.126080"><ele>363</ele><time>2019-09-27T11:08:49Z</time><name>PT4189</name></trkpt>
<trkpt lat="52.914728" lon="-3.126081"><ele>362</ele><time>2019-09-27T11:08:50Z</time><name>PT4190</name></trkpt>
<trkpt lat="52.914743" lon="-3.126077"><ele>362</ele><time>2019-09-27T11:08:51Z</time><name>PT4191</name></trkpt>
<trkpt lat="52.914759" lon="-3.126075"><ele>362</ele><time>2019-09-27T11:08:52Z</time><name>PT4192</name></trkpt>
<trkpt lat="52.914771" lon="-3.126075"><ele>362</ele><time>2019-09-27T11:08:53Z</time><name>PT4193</name></trkpt>
<trkpt lat="52.914783" lon="-3.126075"><ele>362</ele><time>2019-09-27T11:08:54Z</time><name>PT4194</name></trkpt>
<trkpt lat="52.914795" lon="-3.126077"><ele>361</ele><time>2019-09-27T11:08:55Z</time><name>PT4195</name></trkpt>
<trkpt lat="52.914809" lon="-3.126080"><ele>361</ele><time>2019-09-27T11:08:56Z</time><name>PT4196</name></trkpt>
<trkpt lat="52.914819" lon="-3.126082"><ele>361</ele><time>2019-09-27T11:08:57Z</time><name>PT4197</name></trkpt>
<trkpt lat="52.914831" lon="-3.126086"><ele>361</ele><time>2019-09-27T11:08:58Z</time><name>PT4198</name></trkpt>
<trkpt lat="52.914845" lon="-3.126084"><ele>362</ele><time>2019-09-27T11:08:59Z</time><name>PT4199</name></trkpt>
<trkpt lat="52.914857" lon="-3.126088"><ele>362</ele><time>2019-09-27T11:09:00Z</time><name>PT4200</name></trkpt>
<trkpt lat="52.914866" lon="-3.126089"><ele>362</ele><time>2019-09-27T11:09:01Z</time><name>PT4201</name></trkpt>
<trkpt lat="52.914876" lon="-3.126092"><ele>362</ele><time>2019-09-27T11:09:02Z</time><name>PT4202</name></trkpt>
<trkpt lat="52.914887" lon="-3.126095"><ele>362</ele><time>2019-09-27T11:09:03Z</time><name>PT4203</name></trkpt>
<trkpt lat="52.914898" lon="-3.126099"><ele>363</ele><time>2019-09-27T11:09:04Z</time><name>PT4204</name></trkpt>
<trkpt lat="52.914905" lon="-3.126100"><ele>362</ele><time>2019-09-27T11:09:05Z</time><name>PT4205</name></trkpt>
<trkpt lat="52.914911" lon="-3.126103"><ele>362</ele><time>2019-09-27T11:09:06Z</time><name>PT4206</name></trkpt>
<trkpt lat="52.914916" lon="-3.126106"><ele>361</ele><time>2019-09-27T11:09:07Z</time><name>PT4207</name></trkpt>
<trkpt lat="52.914928" lon="-3.126108"><ele>362</ele><time>2019-09-27T11:09:08Z</time><name>PT4208</name></trkpt>
<trkpt lat="52.914941" lon="-3.126107"><ele>363</ele><time>2019-09-27T11:09:09Z</time><name>PT4209</name></trkpt>
<trkpt lat="52.914954" lon="-3.126111"><ele>364</ele><time>2019-09-27T11:09:10Z</time><name>PT4210</name></trkpt>
<trkpt lat="52.914962" lon="-3.126119"><ele>365</ele><time>2019-09-27T11:09:11Z</time><name>PT4211</name></trkpt>
<trkpt lat="52.914971" lon="-3.126122"><ele>365</ele><time>2019-09-27T11:09:12Z</time><name>PT4212</name></trkpt>
<trkpt lat="52.914980" lon="-3.126120"><ele>365</ele><time>2019-09-27T11:09:13Z</time><name>PT4213</name></trkpt>
<trkpt lat="52.914994" lon="-3.126116"><ele>365</ele><time>2019-09-27T11:09:14Z</time><name>PT4214</name></trkpt>
<trkpt lat="52.915003" lon="-3.126111"><ele>364</ele><time>2019-09-27T11:09:15Z</time><name>PT4215</name></trkpt>
<trkpt lat="52.915014" lon="-3.126103"><ele>365</ele><time>2019-09-27T11:09:16Z</time><name>PT4216</name></trkpt>
<trkpt lat="52.915023" lon="-3.126093"><ele>365</ele><time>2019-09-27T11:09:17Z</time><name>PT4217</name></trkpt>
<trkpt lat="52.915030" lon="-3.126087"><ele>365</ele><time>2019-09-27T11:09:18Z</time><name>PT4218</name></trkpt>
<trkpt lat="52.915036" lon="-3.126087"><ele>366</ele><time>2019-09-27T11:09:19Z</time><name>PT4219</name></trkpt>
<trkpt lat="52.915042" lon="-3.126086"><ele>367</ele><time>2019-09-27T11:09:20Z</time><name>PT4220</name></trkpt>
<trkpt lat="52.915046" lon="-3.126087"><ele>366</ele><time>2019-09-27T11:09:21Z</time><name>PT4221</name></trkpt>
<trkpt lat="52.915058" lon="-3.126103"><ele>367</ele><time>2019-09-27T11:09:28Z</time><name>PT4222</name></trkpt>
<trkpt lat="52.915071" lon="-3.126109"><ele>367</ele><time>2019-09-27T11:09:29Z</time><name>PT4223</name></trkpt>
<trkpt lat="52.915076" lon="-3.126117"><ele>367</ele><time>2019-09-27T11:09:30Z</time><name>PT4224</name></trkpt>
<trkpt lat="52.915080" lon="-3.126120"><ele>366</ele><time>2019-09-27T11:09:31Z</time><name>PT4225</name></trkpt>
<trkpt lat="52.915085" lon="-3.126122"><ele>366</ele><time>2019-09-27T11:09:32Z</time><name>PT4226</name></trkpt>
<trkpt lat="52.915090" lon="-3.126125"><ele>366</ele><time>2019-09-27T11:09:33Z</time><name>PT4227</name></trkpt>
<trkpt lat="52.915098" lon="-3.126129"><ele>366</ele><time>2019-09-27T11:09:34Z</time><name>PT4228</name></trkpt>
<trkpt lat="52.915108" lon="-3.126130"><ele>366</ele><time>2019-09-27T11:09:35Z</time><name>PT4229</name></trkpt>
<trkpt lat="52.915121" lon="-3.126127"><ele>365</ele><time>2019-09-27T11:09:36Z</time><name>PT4230</name></trkpt>
<trkpt lat="52.915131" lon="-3.126124"><ele>364</ele><time>2019-09-27T11:09:37Z</time><name>PT4231</name></trkpt>
<trkpt lat="52.915140" lon="-3.126126"><ele>363</ele><time>2019-09-27T11:09:38Z</time><name>PT4232</name></trkpt>
<trkpt lat="52.915145" lon="-3.126123"><ele>362</ele><time>2019-09-27T11:09:39Z</time><name>PT4233</name></trkpt>
<trkpt lat="52.915154" lon="-3.126120"><ele>362</ele><time>2019-09-27T11:09:40Z</time><name>PT4234</name></trkpt>
<trkpt lat="52.915161" lon="-3.126118"><ele>362</ele><time>2019-09-27T11:09:41Z</time><name>PT4235</name></trkpt>
<trkpt lat="52.915169" lon="-3.126118"><ele>361</ele><time>2019-09-27T11:09:42Z</time><name>PT4236</name></trkpt>
<trkpt lat="52.915179" lon="-3.126117"><ele>361</ele><time>2019-09-27T11:09:43Z</time><name>PT4237</name></trkpt>
<trkpt lat="52.915189" lon="-3.126115"><ele>361</ele><time>2019-09-27T11:09:44Z</time><name>PT4238</name></trkpt>
<trkpt lat="52.915198" lon="-3.126116"><ele>360</ele><time>2019-09-27T11:09:45Z</time><name>PT4239</name></trkpt>
<trkpt lat="52.915204" lon="-3.126114"><ele>359</ele><time>2019-09-27T11:09:46Z</time><name>PT4240</name></trkpt>
<trkpt lat="52.915209" lon="-3.126115"><ele>358</ele><time>2019-09-27T11:09:47Z</time><name>PT4241</name></trkpt>
<trkpt lat="52.915219" lon="-3.126114"><ele>358</ele><time>2019-09-27T11:09:48Z</time><name>PT4242</name></trkpt>
<trkpt lat="52.915226" lon="-3.126113"><ele>357</ele><time>2019-09-27T11:09:49Z</time><name>PT4243</name></trkpt>
<trkpt lat="52.915235" lon="-3.126113"><ele>356</ele><time>2019-09-27T11:09:50Z</time><name>PT4244</name></trkpt>
<trkpt lat="52.915247" lon="-3.126112"><ele>356</ele><time>2019-09-27T11:09:51Z</time><name>PT4245</name></trkpt>
<trkpt lat="52.915258" lon="-3.126114"><ele>356</ele><time>2019-09-27T11:09:52Z</time><name>PT4246</name></trkpt>
<trkpt lat="52.915268" lon="-3.126117"><ele>356</ele><time>2019-09-27T11:09:53Z</time><name>PT4247</name></trkpt>
<trkpt lat="52.915277" lon="-3.126120"><ele>356</ele><time>2019-09-27T11:09:54Z</time><name>PT4248</name></trkpt>
<trkpt lat="52.915292" lon="-3.126129"><ele>356</ele><time>2019-09-27T11:09:55Z</time><name>PT4249</name></trkpt>
<trkpt lat="52.915305" lon="-3.126138"><ele>356</ele><time>2019-09-27T11:09:56Z</time><name>PT4250</name></trkpt>
<trkpt lat="52.915316" lon="-3.126145"><ele>357</ele><time>2019-09-27T11:09:57Z</time><name>PT4251</name></trkpt>
<trkpt lat="52.915329" lon="-3.126148"><ele>357</ele><time>2019-09-27T11:09:58Z</time><name>PT4252</name></trkpt>
<trkpt lat="52.915342" lon="-3.126154"><ele>357</ele><time>2019-09-27T11:09:59Z</time><name>PT4253</name></trkpt>
<trkpt lat="52.915353" lon="-3.126159"><ele>357</ele><time>2019-09-27T11:10:00Z</time><name>PT4254</name></trkpt>
<trkpt lat="52.915362" lon="-3.126165"><ele>356</ele><time>2019-09-27T11:10:01Z</time><name>PT4255</name></trkpt>
<trkpt lat="52.915371" lon="-3.126165"><ele>356</ele><time>2019-09-27T11:10:02Z</time><name>PT4256</name></trkpt>
<trkpt lat="52.915382" lon="-3.126173"><ele>355</ele><time>2019-09-27T11:10:03Z</time><name>PT4257</name></trkpt>
<trkpt lat="52.915394" lon="-3.126180"><ele>356</ele><time>2019-09-27T11:10:04Z</time><name>PT4258</name></trkpt>
<trkpt lat="52.915407" lon="-3.126184"><ele>356</ele><time>2019-09-27T11:10:05Z</time><name>PT4259</name></trkpt>
<trkpt lat="52.915417" lon="-3.126185"><ele>355</ele><time>2019-09-27T11:10:06Z</time><name>PT4260</name></trkpt>
<trkpt lat="52.915429" lon="-3.126189"><ele>355</ele><time>2019-09-27T11:10:07Z</time><name>PT4261</name></trkpt>
<trkpt lat="52.915441" lon="-3.126193"><ele>355</ele><time>2019-09-27T11:10:08Z</time><name>PT4262</name></trkpt>
<trkpt lat="52.915452" lon="-3.126200"><ele>355</ele><time>2019-09-27T11:10:09Z</time><name>PT4263</name></trkpt>
<trkpt lat="52.915463" lon="-3.126205"><ele>354</ele><time>2019-09-27T11:10:10Z</time><name>PT4264</name></trkpt>
<trkpt lat="52.915476" lon="-3.126209"><ele>354</ele><time>2019-09-27T11:10:11Z</time><name>PT4265</name></trkpt>
<trkpt lat="52.915486" lon="-3.126213"><ele>354</ele><time>2019-09-27T11:10:12Z</time><name>PT4266</name></trkpt>
<trkpt lat="52.915497" lon="-3.126215"><ele>354</ele><time>2019-09-27T11:10:13Z</time><name>PT4267</name></trkpt>
<trkpt lat="52.915510" lon="-3.126218"><ele>354</ele><time>2019-09-27T11:10:14Z</time><name>PT4268</name></trkpt>
<trkpt lat="52.915522" lon="-3.126220"><ele>354</ele><time>2019-09-27T11:10:15Z</time><name>PT4269</name></trkpt>
<trkpt lat="52.915531" lon="-3.126223"><ele>354</ele><time>2019-09-27T11:10:16Z</time><name>PT4270</name></trkpt>
<trkpt lat="52.915542" lon="-3.126226"><ele>354</ele><time>2019-09-27T11:10:17Z</time><name>PT4271</name></trkpt>
<trkpt lat="52.915556" lon="-3.126229"><ele>354</ele><time>2019-09-27T11:10:18Z</time><name>PT4272</name></trkpt>
<trkpt lat="52.915567" lon="-3.126232"><ele>354</ele><time>2019-09-27T11:10:19Z</time><name>PT4273</name></trkpt>
<trkpt lat="52.915580" lon="-3.126235"><ele>354</ele><time>2019-09-27T11:10:20Z</time><name>PT4274</name></trkpt>
<trkpt lat="52.915592" lon="-3.126239"><ele>354</ele><time>2019-09-27T11:10:21Z</time><name>PT4275</name></trkpt>
<trkpt lat="52.915603" lon="-3.126242"><ele>354</ele><time>2019-09-27T11:10:22Z</time><name>PT4276</name></trkpt>
<trkpt lat="52.915613" lon="-3.126244"><ele>354</ele><time>2019-09-27T11:10:23Z</time><name>PT4277</name></trkpt>
<trkpt lat="52.915622" lon="-3.126244"><ele>354</ele><time>2019-09-27T11:10:24Z</time><name>PT4278</name></trkpt>
<trkpt lat="52.915636" lon="-3.126241"><ele>355</ele><time>2019-09-27T11:10:25Z</time><name>PT4279</name></trkpt>
<trkpt lat="52.915648" lon="-3.126240"><ele>355</ele><time>2019-09-27T11:10:26Z</time><name>PT4280</name></trkpt>
<trkpt lat="52.915662" lon="-3.126241"><ele>356</ele><time>2019-09-27T11:10:27Z</time><name>PT4281</name></trkpt>
<trkpt lat="52.915674" lon="-3.126239"><ele>356</ele><time>2019-09-27T11:10:28Z</time><name>PT4282</name></trkpt>
<trkpt lat="52.915683" lon="-3.126239"><ele>356</ele><time>2019-09-27T11:10:29Z</time><name>PT4283</name></trkpt>
<trkpt lat="52.915695" lon="-3.126241"><ele>355</ele><time>2019-09-27T11:10:30Z</time><name>PT4284</name></trkpt>
<trkpt lat="52.915708" lon="-3.126244"><ele>355</ele><time>2019-09-27T11:10:31Z</time><name>PT4285</name></trkpt>
<trkpt lat="52.915722" lon="-3.126249"><ele>356</ele><time>2019-09-27T11:10:32Z</time><name>PT4286</name></trkpt>
<trkpt lat="52.915737" lon="-3.126250"><ele>356</ele><time>2019-09-27T11:10:33Z</time><name>PT4287</name></trkpt>
<trkpt lat="52.915748" lon="-3.126253"><ele>356</ele><time>2019-09-27T11:10:34Z</time><name>PT4288</name></trkpt>
<trkpt lat="52.915761" lon="-3.126253"><ele>356</ele><time>2019-09-27T11:10:35Z</time><name>PT4289</name></trkpt>
<trkpt lat="52.915777" lon="-3.126252"><ele>356</ele><time>2019-09-27T11:10:36Z</time><name>PT4290</name></trkpt>
<trkpt lat="52.915790" lon="-3.126252"><ele>357</ele><time>2019-09-27T11:10:37Z</time><name>PT4291</name></trkpt>
<trkpt lat="52.915802" lon="-3.126257"><ele>357</ele><time>2019-09-27T11:10:38Z</time><name>PT4292</name></trkpt>
<trkpt lat="52.915814" lon="-3.126261"><ele>357</ele><time>2019-09-27T11:10:39Z</time><name>PT4293</name></trkpt>
<trkpt lat="52.915826" lon="-3.126265"><ele>357</ele><time>2019-09-27T11:10:40Z</time><name>PT4294</name></trkpt>
<trkpt lat="52.915839" lon="-3.126266"><ele>357</ele><time>2019-09-27T11:10:41Z</time><name>PT4295</name></trkpt>
<trkpt lat="52.915854" lon="-3.126268"><ele>357</ele><time>2019-09-27T11:10:42Z</time><name>PT4296</name></trkpt>
<trkpt lat="52.915866" lon="-3.126270"><ele>357</ele><time>2019-09-27T11:10:43Z</time><name>PT4297</name></trkpt>
<trkpt lat="52.915880" lon="-3.126270"><ele>357</ele><time>2019-09-27T11:10:44Z</time><name>PT4298</name></trkpt>
<trkpt lat="52.915893" lon="-3.126273"><ele>357</ele><time>2019-09-27T11:10:45Z</time><name>PT4299</name></trkpt>
<trkpt lat="52.915909" lon="-3.126276"><ele>357</ele><time>2019-09-27T11:10:46Z</time><name>PT4300</name></trkpt>
<trkpt lat="52.915921" lon="-3.126280"><ele>357</ele><time>2019-09-27T11:10:47Z</time><name>PT4301</name></trkpt>
<trkpt lat="52.915930" lon="-3.126283"><ele>357</ele><time>2019-09-27T11:10:48Z</time><name>PT4302</name></trkpt>
<trkpt lat="52.915942" lon="-3.126285"><ele>357</ele><time>2019-09-27T11:10:49Z</time><name>PT4303</name></trkpt>
<trkpt lat="52.915954" lon="-3.126287"><ele>357</ele><time>2019-09-27T11:10:50Z</time><name>PT4304</name></trkpt>
<trkpt lat="52.915968" lon="-3.126288"><ele>357</ele><time>2019-09-27T11:10:51Z</time><name>PT4305</name></trkpt>
<trkpt lat="52.915979" lon="-3.126287"><ele>357</ele><time>2019-09-27T11:10:52Z</time><name>PT4306</name></trkpt>
<trkpt lat="52.915992" lon="-3.126287"><ele>357</ele><time>2019-09-27T11:10:53Z</time><name>PT4307</name></trkpt>
<trkpt lat="52.916005" lon="-3.126289"><ele>358</ele><time>2019-09-27T11:10:54Z</time><name>PT4308</name></trkpt>
<trkpt lat="52.916018" lon="-3.126296"><ele>358</ele><time>2019-09-27T11:10:55Z</time><name>PT4309</name></trkpt>
<trkpt lat="52.916031" lon="-3.126300"><ele>358</ele><time>2019-09-27T11:10:56Z</time><name>PT4310</name></trkpt>
<trkpt lat="52.916042" lon="-3.126303"><ele>357</ele><time>2019-09-27T11:10:57Z</time><name>PT4311</name></trkpt>
<trkpt lat="52.916053" lon="-3.126307"><ele>357</ele><time>2019-09-27T11:10:58Z</time><name>PT4312</name></trkpt>
<trkpt lat="52.916066" lon="-3.126309"><ele>357</ele><time>2019-09-27T11:10:59Z</time><name>PT4313</name></trkpt>
<trkpt lat="52.916083" lon="-3.126309"><ele>357</ele><time>2019-09-27T11:11:00Z</time><name>PT4314</name></trkpt>
<trkpt lat="52.916097" lon="-3.126309"><ele>357</ele><time>2019-09-27T11:11:01Z</time><name>PT4315</name></trkpt>
<trkpt lat="52.916111" lon="-3.126313"><ele>357</ele><time>2019-09-27T11:11:02Z</time><name>PT4316</name></trkpt>
<trkpt lat="52.916125" lon="-3.126315"><ele>358</ele><time>2019-09-27T11:11:03Z</time><name>PT4317</name></trkpt>
<trkpt lat="52.916138" lon="-3.126316"><ele>358</ele><time>2019-09-27T11:11:04Z</time><name>PT4318</name></trkpt>
<trkpt lat="52.916151" lon="-3.126315"><ele>358</ele><time>2019-09-27T11:11:05Z</time><name>PT4319</name></trkpt>
<trkpt lat="52.916164" lon="-3.126313"><ele>358</ele><time>2019-09-27T11:11:06Z</time><name>PT4320</name></trkpt>
<trkpt lat="52.916177" lon="-3.126312"><ele>357</ele><time>2019-09-27T11:11:07Z</time><name>PT4321</name></trkpt>
<trkpt lat="52.916191" lon="-3.126312"><ele>358</ele><time>2019-09-27T11:11:08Z</time><name>PT4322</name></trkpt>
<trkpt lat="52.916203" lon="-3.126313"><ele>358</ele><time>2019-09-27T11:11:09Z</time><name>PT4323</name></trkpt>
<trkpt lat="52.916214" lon="-3.126313"><ele>358</ele><time>2019-09-27T11:11:10Z</time><name>PT4324</name></trkpt>
<trkpt lat="52.916226" lon="-3.126314"><ele>358</ele><time>2019-09-27T11:11:11Z</time><name>PT4325</name></trkpt>
<trkpt lat="52.916239" lon="-3.126318"><ele>358</ele><time>2019-09-27T11:11:12Z</time><name>PT4326</name></trkpt>
<trkpt lat="52.916252" lon="-3.126322"><ele>358</ele><time>2019-09-27T11:11:13Z</time><name>PT4327</name></trkpt>
<trkpt lat="52.916265" lon="-3.126325"><ele>357</ele><time>2019-09-27T11:11:14Z</time><name>PT4328</name></trkpt>
<trkpt lat="52.916274" lon="-3.126327"><ele>357</ele><time>2019-09-27T11:11:15Z</time><name>PT4329</name></trkpt>
<trkpt lat="52.916288" lon="-3.126328"><ele>357</ele><time>2019-09-27T11:11:16Z</time><name>PT4330</name></trkpt>
<trkpt lat="52.916302" lon="-3.126330"><ele>357</ele><time>2019-09-27T11:11:17Z</time><name>PT4331</name></trkpt>
<trkpt lat="52.916313" lon="-3.126330"><ele>356</ele><time>2019-09-27T11:11:18Z</time><name>PT4332</name></trkpt>
<trkpt lat="52.916322" lon="-3.126333"><ele>356</ele><time>2019-09-27T11:11:19Z</time><name>PT4333</name></trkpt>
<trkpt lat="52.916332" lon="-3.126336"><ele>356</ele><time>2019-09-27T11:11:20Z</time><name>PT4334</name></trkpt>
<trkpt lat="52.916346" lon="-3.126337"><ele>355</ele><time>2019-09-27T11:11:21Z</time><name>PT4335</name></trkpt>
<trkpt lat="52.916359" lon="-3.126339"><ele>355</ele><time>2019-09-27T11:11:22Z</time><name>PT4336</name></trkpt>
<trkpt lat="52.916369" lon="-3.126338"><ele>355</ele><time>2019-09-27T11:11:23Z</time><name>PT4337</name></trkpt>
<trkpt lat="52.916381" lon="-3.126341"><ele>355</ele><time>2019-09-27T11:11:24Z</time><name>PT4338</name></trkpt>
<trkpt lat="52.916395" lon="-3.126346"><ele>356</ele><time>2019-09-27T11:11:25Z</time><name>PT4339</name></trkpt>
<trkpt lat="52.916406" lon="-3.126346"><ele>356</ele><time>2019-09-27T11:11:26Z</time><name>PT4340</name></trkpt>
<trkpt lat="52.916419" lon="-3.126348"><ele>356</ele><time>2019-09-27T11:11:27Z</time><name>PT4341</name></trkpt>
<trkpt lat="52.916434" lon="-3.126350"><ele>356</ele><time>2019-09-27T11:11:28Z</time><name>PT4342</name></trkpt>
<trkpt lat="52.916447" lon="-3.126355"><ele>356</ele><time>2019-09-27T11:11:29Z</time><name>PT4343</name></trkpt>
<trkpt lat="52.916461" lon="-3.126356"><ele>356</ele><time>2019-09-27T11:11:30Z</time><name>PT4344</name></trkpt>
<trkpt lat="52.916474" lon="-3.126357"><ele>356</ele><time>2019-09-27T11:11:31Z</time><name>PT4345</name></trkpt>
<trkpt lat="52.916485" lon="-3.126361"><ele>356</ele><time>2019-09-27T11:11:32Z</time><name>PT4346</name></trkpt>
<trkpt lat="52.916498" lon="-3.126365"><ele>356</ele><time>2019-09-27T11:11:33Z</time><name>PT4347</name></trkpt>
<trkpt lat="52.916509" lon="-3.126365"><ele>355</ele><time>2019-09-27T11:11:34Z</time><name>PT4348</name></trkpt>
<trkpt lat="52.916523" lon="-3.126366"><ele>356</ele><time>2019-09-27T11:11:35Z</time><name>PT4349</name></trkpt>
<trkpt lat="52.916539" lon="-3.126366"><ele>356</ele><time>2019-09-27T11:11:36Z</time><name>PT4350</name></trkpt>
<trkpt lat="52.916552" lon="-3.126370"><ele>356</ele><time>2019-09-27T11:11:37Z</time><name>PT4351</name></trkpt>
<trkpt lat="52.916566" lon="-3.126373"><ele>357</ele><time>2019-09-27T11:11:38Z</time><name>PT4352</name></trkpt>
<trkpt lat="52.916579" lon="-3.126373"><ele>357</ele><time>2019-09-27T11:11:39Z</time><name>PT4353</name></trkpt>
<trkpt lat="52.916592" lon="-3.126374"><ele>357</ele><time>2019-09-27T11:11:40Z</time><name>PT4354</name></trkpt>
<trkpt lat="52.916607" lon="-3.126374"><ele>356</ele><time>2019-09-27T11:11:41Z</time><name>PT4355</name></trkpt>
<trkpt lat="52.916621" lon="-3.126375"><ele>357</ele><time>2019-09-27T11:11:42Z</time><name>PT4356</name></trkpt>
<trkpt lat="52.916631" lon="-3.126375"><ele>356</ele><time>2019-09-27T11:11:43Z</time><name>PT4357</name></trkpt>
<trkpt lat="52.916645" lon="-3.126371"><ele>357</ele><time>2019-09-27T11:11:44Z</time><name>PT4358</name></trkpt>
<trkpt lat="52.916662" lon="-3.126368"><ele>357</ele><time>2019-09-27T11:11:45Z</time><name>PT4359</name></trkpt>
<trkpt lat="52.916679" lon="-3.126362"><ele>358</ele><time>2019-09-27T11:11:46Z</time><name>PT4360</name></trkpt>
<trkpt lat="52.916688" lon="-3.126362"><ele>358</ele><time>2019-09-27T11:11:47Z</time><name>PT4361</name></trkpt>
<trkpt lat="52.916698" lon="-3.126360"><ele>357</ele><time>2019-09-27T11:11:48Z</time><name>PT4362</name></trkpt>
<trkpt lat="52.916710" lon="-3.126359"><ele>357</ele><time>2019-09-27T11:11:49Z</time><name>PT4363</name></trkpt>
<trkpt lat="52.916721" lon="-3.126361"><ele>357</ele><time>2019-09-27T11:11:50Z</time><name>PT4364</name></trkpt>
<trkpt lat="52.916732" lon="-3.126362"><ele>358</ele><time>2019-09-27T11:11:51Z</time><name>PT4365</name></trkpt>
<trkpt lat="52.916741" lon="-3.126360"><ele>358</ele><time>2019-09-27T11:11:52Z</time><name>PT4366</name></trkpt>
<trkpt lat="52.916751" lon="-3.126360"><ele>358</ele><time>2019-09-27T11:11:53Z</time><name>PT4367</name></trkpt>
<trkpt lat="52.916759" lon="-3.126359"><ele>358</ele><time>2019-09-27T11:11:54Z</time><name>PT4368</name></trkpt>
<trkpt lat="52.916771" lon="-3.126362"><ele>358</ele><time>2019-09-27T11:11:55Z</time><name>PT4369</name></trkpt>
<trkpt lat="52.916786" lon="-3.126363"><ele>358</ele><time>2019-09-27T11:11:56Z</time><name>PT4370</name></trkpt>
<trkpt lat="52.916797" lon="-3.126363"><ele>358</ele><time>2019-09-27T11:11:57Z</time><name>PT4371</name></trkpt>
<trkpt lat="52.916807" lon="-3.126366"><ele>357</ele><time>2019-09-27T11:11:58Z</time><name>PT4372</name></trkpt>
<trkpt lat="52.916815" lon="-3.126371"><ele>357</ele><time>2019-09-27T11:11:59Z</time><name>PT4373</name></trkpt>
<trkpt lat="52.916825" lon="-3.126374"><ele>357</ele><time>2019-09-27T11:12:00Z</time><name>PT4374</name></trkpt>
<trkpt lat="52.916835" lon="-3.126375"><ele>357</ele><time>2019-09-27T11:12:01Z</time><name>PT4375</name></trkpt>
<trkpt lat="52.916843" lon="-3.126375"><ele>356</ele><time>2019-09-27T11:12:02Z</time><name>PT4376</name></trkpt>
<trkpt lat="52.916855" lon="-3.126377"><ele>356</ele><time>2019-09-27T11:12:03Z</time><name>PT4377</name></trkpt>
<trkpt lat="52.916863" lon="-3.126379"><ele>355</ele><time>2019-09-27T11:12:04Z</time><name>PT4378</name></trkpt>
<trkpt lat="52.916875" lon="-3.126379"><ele>355</ele><time>2019-09-27T11:12:05Z</time><name>PT4379</name></trkpt>
<trkpt lat="52.916888" lon="-3.126380"><ele>354</ele><time>2019-09-27T11:12:06Z</time><name>PT4380</name></trkpt>
<trkpt lat="52.916901" lon="-3.126380"><ele>354</ele><time>2019-09-27T11:12:07Z</time><name>PT4381</name></trkpt>
<trkpt lat="52.916913" lon="-3.126380"><ele>354</ele><time>2019-09-27T11:12:08Z</time><name>PT4382</name></trkpt>
<trkpt lat="52.916920" lon="-3.126382"><ele>354</ele><time>2019-09-27T11:12:09Z</time><name>PT4383</name></trkpt>
<trkpt lat="52.916930" lon="-3.126387"><ele>354</ele><time>2019-09-27T11:12:10Z</time><name>PT4384</name></trkpt>
<trkpt lat="52.916941" lon="-3.126385"><ele>354</ele><time>2019-09-27T11:12:11Z</time><name>PT4385</name></trkpt>
<trkpt lat="52.916952" lon="-3.126385"><ele>354</ele><time>2019-09-27T11:12:12Z</time><name>PT4386</name></trkpt>
<trkpt lat="52.916960" lon="-3.126384"><ele>354</ele><time>2019-09-27T11:12:13Z</time><name>PT4387</name></trkpt>
<trkpt lat="52.916972" lon="-3.126387"><ele>354</ele><time>2019-09-27T11:12:14Z</time><name>PT4388</name></trkpt>
<trkpt lat="52.916986" lon="-3.126388"><ele>355</ele><time>2019-09-27T11:12:15Z</time><name>PT4389</name></trkpt>
<trkpt lat="52.916997" lon="-3.126389"><ele>355</ele><time>2019-09-27T11:12:16Z</time><name>PT4390</name></trkpt>
<trkpt lat="52.917008" lon="-3.126390"><ele>355</ele><time>2019-09-27T11:12:17Z</time><name>PT4391</name></trkpt>
<trkpt lat="52.917015" lon="-3.126390"><ele>355</ele><time>2019-09-27T11:12:18Z</time><name>PT4392</name></trkpt>
<trkpt lat="52.917023" lon="-3.126390"><ele>355</ele><time>2019-09-27T11:12:19Z</time><name>PT4393</name></trkpt>
<trkpt lat="52.917033" lon="-3.126390"><ele>355</ele><time>2019-09-27T11:12:20Z</time><name>PT4394</name></trkpt>
<trkpt lat="52.917039" lon="-3.126397"><ele>355</ele><time>2019-09-27T11:12:21Z</time><name>PT4395</name></trkpt>
<trkpt lat="52.917049" lon="-3.126408"><ele>355</ele><time>2019-09-27T11:12:22Z</time><name>PT4396</name></trkpt>
<trkpt lat="52.917058" lon="-3.126418"><ele>355</ele><time>2019-09-27T11:12:23Z</time><name>PT4397</name></trkpt>
<trkpt lat="52.917066" lon="-3.126427"><ele>356</ele><time>2019-09-27T11:12:24Z</time><name>PT4398</name></trkpt>
<trkpt lat="52.917074" lon="-3.126439"><ele>357</ele><time>2019-09-27T11:12:25Z</time><name>PT4399</name></trkpt>
<trkpt lat="52.917074" lon="-3.126447"><ele>357</ele><time>2019-09-27T11:12:26Z</time><name>PT4400</name></trkpt>
<trkpt lat="52.917077" lon="-3.126452"><ele>358</ele><time>2019-09-27T11:12:27Z</time><name>PT4401</name></trkpt>
<trkpt lat="52.917078" lon="-3.126457"><ele>358</ele><time>2019-09-27T11:12:28Z</time><name>PT4402</name></trkpt>
<trkpt lat="52.917080" lon="-3.126462"><ele>358</ele><time>2019-09-27T11:12:29Z</time><name>PT4403</name></trkpt>
<trkpt lat="52.917081" lon="-3.126460"><ele>358</ele><time>2019-09-27T11:12:32Z</time><name>PT4404</name></trkpt>
<trkpt lat="52.917092" lon="-3.126456"><ele>358</ele><time>2019-09-27T11:12:33Z</time><name>PT4405</name></trkpt>
<trkpt lat="52.917104" lon="-3.126453"><ele>358</ele><time>2019-09-27T11:12:34Z</time><name>PT4406</name></trkpt>
<trkpt lat="52.917114" lon="-3.126452"><ele>358</ele><time>2019-09-27T11:12:35Z</time><name>PT4407</name></trkpt>
<trkpt lat="52.917126" lon="-3.126450"><ele>358</ele><time>2019-09-27T11:12:36Z</time><name>PT4408</name></trkpt>
<trkpt lat="52.917143" lon="-3.126454"><ele>358</ele><time>2019-09-27T11:12:37Z</time><name>PT4409</name></trkpt>
<trkpt lat="52.917157" lon="-3.126456"><ele>359</ele><time>2019-09-27T11:12:38Z</time><name>PT4410</name></trkpt>
<trkpt lat="52.917168" lon="-3.126458"><ele>359</ele><time>2019-09-27T11:12:39Z</time><name>PT4411</name></trkpt>
<trkpt lat="52.917179" lon="-3.126454"><ele>360</ele><time>2019-09-27T11:12:40Z</time><name>PT4412</name></trkpt>
<trkpt lat="52.917188" lon="-3.126450"><ele>359</ele><time>2019-09-27T11:12:41Z</time><name>PT4413</name></trkpt>
<trkpt lat="52.917197" lon="-3.126446"><ele>358</ele><time>2019-09-27T11:12:42Z</time><name>PT4414</name></trkpt>
<trkpt lat="52.917205" lon="-3.126444"><ele>358</ele><time>2019-09-27T11:12:43Z</time><name>PT4415</name></trkpt>
<trkpt lat="52.917213" lon="-3.126442"><ele>357</ele><time>2019-09-27T11:12:44Z</time><name>PT4416</name></trkpt>
<trkpt lat="52.917219" lon="-3.126439"><ele>356</ele><time>2019-09-27T11:12:45Z</time><name>PT4417</name></trkpt>
<trkpt lat="52.917223" lon="-3.126436"><ele>355</ele><time>2019-09-27T11:12:46Z</time><name>PT4418</name></trkpt>
<trkpt lat="52.917233" lon="-3.126438"><ele>355</ele><time>2019-09-27T11:12:47Z</time><name>PT4419</name></trkpt>
<trkpt lat="52.917240" lon="-3.126441"><ele>354</ele><time>2019-09-27T11:12:48Z</time><name>PT4420</name></trkpt>
<trkpt lat="52.917246" lon="-3.126443"><ele>354</ele><time>2019-09-27T11:12:49Z</time><name>PT4421</name></trkpt>
<trkpt lat="52.917257" lon="-3.126440"><ele>355</ele><time>2019-09-27T11:12:50Z</time><name>PT4422</name></trkpt>
<trkpt lat="52.917262" lon="-3.126440"><ele>354</ele><time>2019-09-27T11:12:51Z</time><name>PT4423</name></trkpt>
<trkpt lat="52.917274" lon="-3.126433"><ele>353</ele><time>2019-09-27T11:12:52Z</time><name>PT4424</name></trkpt>
<trkpt lat="52.917279" lon="-3.126434"><ele>353</ele><time>2019-09-27T11:12:53Z</time><name>PT4425</name></trkpt>
<trkpt lat="52.917285" lon="-3.126436"><ele>352</ele><time>2019-09-27T11:12:54Z</time><name>PT4426</name></trkpt>
<trkpt lat="52.917292" lon="-3.126435"><ele>351</ele><time>2019-09-27T11:12:55Z</time><name>PT4427</name></trkpt>
<trkpt lat="52.917302" lon="-3.126439"><ele>351</ele><time>2019-09-27T11:12:56Z</time><name>PT4428</name></trkpt>
<trkpt lat="52.917310" lon="-3.126443"><ele>351</ele><time>2019-09-27T11:12:57Z</time><name>PT4429</name></trkpt>
<trkpt lat="52.917322" lon="-3.126441"><ele>351</ele><time>2019-09-27T11:12:58Z</time><name>PT4430</name></trkpt>
<trkpt lat="52.917349" lon="-3.126431"><ele>351</ele><time>2019-09-27T11:12:59Z</time><name>PT4431</name></trkpt>
<trkpt lat="52.917372" lon="-3.126424"><ele>352</ele><time>2019-09-27T11:13:00Z</time><name>PT4432</name></trkpt>
<trkpt lat="52.917381" lon="-3.126434"><ele>352</ele><time>2019-09-27T11:13:01Z</time><name>PT4433</name></trkpt>
<trkpt lat="52.917395" lon="-3.126437"><ele>353</ele><time>2019-09-27T11:13:02Z</time><name>PT4434</name></trkpt>
<trkpt lat="52.917408" lon="-3.126440"><ele>353</ele><time>2019-09-27T11:13:03Z</time><name>PT4435</name></trkpt>
<trkpt lat="52.917418" lon="-3.126443"><ele>353</ele><time>2019-09-27T11:13:04Z</time><name>PT4436</name></trkpt>
<trkpt lat="52.917435" lon="-3.126435"><ele>355</ele><time>2019-09-27T11:13:05Z</time><name>PT4437</name></trkpt>
<trkpt lat="52.917448" lon="-3.126436"><ele>355</ele><time>2019-09-27T11:13:06Z</time><name>PT4438</name></trkpt>
<trkpt lat="52.917462" lon="-3.126453"><ele>356</ele><time>2019-09-27T11:13:07Z</time><name>PT4439</name></trkpt>
<trkpt lat="52.917471" lon="-3.126461"><ele>356</ele><time>2019-09-27T11:13:08Z</time><name>PT4440</name></trkpt>
<trkpt lat="52.917480" lon="-3.126465"><ele>356</ele><time>2019-09-27T11:13:09Z</time><name>PT4441</name></trkpt>
<trkpt lat="52.917489" lon="-3.126468"><ele>356</ele><time>2019-09-27T11:13:10Z</time><name>PT4442</name></trkpt>
<trkpt lat="52.917498" lon="-3.126471"><ele>356</ele><time>2019-09-27T11:13:11Z</time><name>PT4443</name></trkpt>
<trkpt lat="52.917505" lon="-3.126472"><ele>356</ele><time>2019-09-27T11:13:12Z</time><name>PT4444</name></trkpt>
<trkpt lat="52.917513" lon="-3.126466"><ele>357</ele><time>2019-09-27T11:13:13Z</time><name>PT4445</name></trkpt>
<trkpt lat="52.917528" lon="-3.126459"><ele>357</ele><time>2019-09-27T11:13:14Z</time><name>PT4446</name></trkpt>
<trkpt lat="52.917538" lon="-3.126459"><ele>357</ele><time>2019-09-27T11:13:15Z</time><name>PT4447</name></trkpt>
<trkpt lat="52.917547" lon="-3.126460"><ele>357</ele><time>2019-09-27T11:13:16Z</time><name>PT4448</name></trkpt>
<trkpt lat="52.917558" lon="-3.126459"><ele>357</ele><time>2019-09-27T11:13:17Z</time><name>PT4449</name></trkpt>
<trkpt lat="52.917573" lon="-3.126464"><ele>357</ele><time>2019-09-27T11:13:18Z</time><name>PT4450</name></trkpt>
<trkpt lat="52.917583" lon="-3.126470"><ele>357</ele><time>2019-09-27T11:13:19Z</time><name>PT4451</name></trkpt>
<trkpt lat="52.917589" lon="-3.126472"><ele>357</ele><time>2019-09-27T11:13:20Z</time><name>PT4452</name></trkpt>
<trkpt lat="52.917599" lon="-3.126473"><ele>357</ele><time>2019-09-27T11:13:21Z</time><name>PT4453</name></trkpt>
<trkpt lat="52.917608" lon="-3.126474"><ele>357</ele><time>2019-09-27T11:13:22Z</time><name>PT4454</name></trkpt>
<trkpt lat="52.917617" lon="-3.126474"><ele>357</ele><time>2019-09-27T11:13:23Z</time><name>PT4455</name></trkpt>
<trkpt lat="52.917625" lon="-3.126475"><ele>357</ele><time>2019-09-27T11:13:24Z</time><name>PT4456</name></trkpt>
<trkpt lat="52.917635" lon="-3.126479"><ele>358</ele><time>2019-09-27T11:13:25Z</time><name>PT4457</name></trkpt>
<trkpt lat="52.917645" lon="-3.126480"><ele>357</ele><time>2019-09-27T11:13:26Z</time><name>PT4458</name></trkpt>
<trkpt lat="52.917656" lon="-3.126482"><ele>357</ele><time>2019-09-27T11:13:27Z</time><name>PT4459</name></trkpt>
<trkpt lat="52.917664" lon="-3.126491"><ele>356</ele><time>2019-09-27T11:13:28Z</time><name>PT4460</name></trkpt>
<trkpt lat="52.917677" lon="-3.126498"><ele>356</ele><time>2019-09-27T11:13:29Z</time><name>PT4461</name></trkpt>
<trkpt lat="52.917688" lon="-3.126503"><ele>356</ele><time>2019-09-27T11:13:30Z</time><name>PT4462</name></trkpt>
<trkpt lat="52.917699" lon="-3.126504"><ele>356</ele><time>2019-09-27T11:13:31Z</time><name>PT4463</name></trkpt>
<trkpt lat="52.917709" lon="-3.126504"><ele>355</ele><time>2019-09-27T11:13:32Z</time><name>PT4464</name></trkpt>
<trkpt lat="52.917720" lon="-3.126503"><ele>356</ele><time>2019-09-27T11:13:33Z</time><name>PT4465</name></trkpt>
<trkpt lat="52.917729" lon="-3.126504"><ele>356</ele><time>2019-09-27T11:13:34Z</time><name>PT4466</name></trkpt>
<trkpt lat="52.917738" lon="-3.126506"><ele>356</ele><time>2019-09-27T11:13:35Z</time><name>PT4467</name></trkpt>
<trkpt lat="52.917749" lon="-3.126508"><ele>356</ele><time>2019-09-27T11:13:36Z</time><name>PT4468</name></trkpt>
<trkpt lat="52.917755" lon="-3.126511"><ele>355</ele><time>2019-09-27T11:13:37Z</time><name>PT4469</name></trkpt>
<trkpt lat="52.917764" lon="-3.126512"><ele>355</ele><time>2019-09-27T11:13:38Z</time><name>PT4470</name></trkpt>
<trkpt lat="52.917772" lon="-3.126515"><ele>354</ele><time>2019-09-27T11:13:39Z</time><name>PT4471</name></trkpt>
<trkpt lat="52.917781" lon="-3.126517"><ele>354</ele><time>2019-09-27T11:13:40Z</time><name>PT4472</name></trkpt>
<trkpt lat="52.917789" lon="-3.126517"><ele>354</ele><time>2019-09-27T11:13:41Z</time><name>PT4473</name></trkpt>
<trkpt lat="52.917796" lon="-3.126518"><ele>354</ele><time>2019-09-27T11:13:42Z</time><name>PT4474</name></trkpt>
<trkpt lat="52.917801" lon="-3.126521"><ele>354</ele><time>2019-09-27T11:13:43Z</time><name>PT4475</name></trkpt>
<trkpt lat="52.917807" lon="-3.126525"><ele>353</ele><time>2019-09-27T11:13:44Z</time><name>PT4476</name></trkpt>
<trkpt lat="52.917814" lon="-3.126525"><ele>353</ele><time>2019-09-27T11:13:45Z</time><name>PT4477</name></trkpt>
<trkpt lat="52.917823" lon="-3.126523"><ele>352</ele><time>2019-09-27T11:13:46Z</time><name>PT4478</name></trkpt>
<trkpt lat="52.917832" lon="-3.126524"><ele>352</ele><time>2019-09-27T11:13:47Z</time><name>PT4479</name></trkpt>
<trkpt lat="52.917840" lon="-3.126525"><ele>352</ele><time>2019-09-27T11:13:48Z</time><name>PT4480</name></trkpt>
<trkpt lat="52.917851" lon="-3.126527"><ele>352</ele><time>2019-09-27T11:13:49Z</time><name>PT4481</name></trkpt>
<trkpt lat="52.917861" lon="-3.126530"><ele>352</ele><time>2019-09-27T11:13:50Z</time><name>PT4482</name></trkpt>
<trkpt lat="52.917870" lon="-3.126531"><ele>352</ele><time>2019-09-27T11:13:51Z</time><name>PT4483</name></trkpt>
<trkpt lat="52.917877" lon="-3.126533"><ele>351</ele><time>2019-09-27T11:13:52Z</time><name>PT4484</name></trkpt>
<trkpt lat="52.917888" lon="-3.126536"><ele>351</ele><time>2019-09-27T11:13:53Z</time><name>PT4485</name></trkpt>
<trkpt lat="52.917899" lon="-3.126542"><ele>350</ele><time>2019-09-27T11:13:54Z</time><name>PT4486</name></trkpt>
<trkpt lat="52.917908" lon="-3.126548"><ele>350</ele><time>2019-09-27T11:13:55Z</time><name>PT4487</name></trkpt>
<trkpt lat="52.917921" lon="-3.126552"><ele>350</ele><time>2019-09-27T11:13:56Z</time><name>PT4488</name></trkpt>
<trkpt lat="52.917931" lon="-3.126556"><ele>350</ele><time>2019-09-27T11:13:57Z</time><name>PT4489</name></trkpt>
<trkpt lat="52.917942" lon="-3.126558"><ele>350</ele><time>2019-09-27T11:13:58Z</time><name>PT4490</name></trkpt>
<trkpt lat="52.917951" lon="-3.126559"><ele>349</ele><time>2019-09-27T11:13:59Z</time><name>PT4491</name></trkpt>
<trkpt lat="52.917964" lon="-3.126560"><ele>350</ele><time>2019-09-27T11:14:00Z</time><name>PT4492</name></trkpt>
<trkpt lat="52.917977" lon="-3.126563"><ele>350</ele><time>2019-09-27T11:14:01Z</time><name>PT4493</name></trkpt>
<trkpt lat="52.917992" lon="-3.126568"><ele>350</ele><time>2019-09-27T11:14:02Z</time><name>PT4494</name></trkpt>
<trkpt lat="52.918009" lon="-3.126569"><ele>351</ele><time>2019-09-27T11:14:03Z</time><name>PT4495</name></trkpt>
<trkpt lat="52.918017" lon="-3.126570"><ele>351</ele><time>2019-09-27T11:14:04Z</time><name>PT4496</name></trkpt>
<trkpt lat="52.918028" lon="-3.126573"><ele>351</ele><time>2019-09-27T11:14:05Z</time><name>PT4497</name></trkpt>
<trkpt lat="52.918034" lon="-3.126578"><ele>350</ele><time>2019-09-27T11:14:06Z</time><name>PT4498</name></trkpt>
<trkpt lat="52.918042" lon="-3.126579"><ele>349</ele><time>2019-09-27T11:14:07Z</time><name>PT4499</name></trkpt>
<trkpt lat="52.918054" lon="-3.126581"><ele>349</ele><time>2019-09-27T11:14:08Z</time><name>PT4500</name></trkpt>
<trkpt lat="52.918058" lon="-3.126579"><ele>348</ele><time>2019-09-27T11:14:09Z</time><name>PT4501</name></trkpt>
<trkpt lat="52.918070" lon="-3.126577"><ele>348</ele><time>2019-09-27T11:14:10Z</time><name>PT4502</name></trkpt>
<trkpt lat="52.918082" lon="-3.126577"><ele>348</ele><time>2019-09-27T11:14:11Z</time><name>PT4503</name></trkpt>
<trkpt lat="52.918093" lon="-3.126578"><ele>348</ele><time>2019-09-27T11:14:12Z</time><name>PT4504</name></trkpt>
<trkpt lat="52.918104" lon="-3.126580"><ele>348</ele><time>2019-09-27T11:14:13Z</time><name>PT4505</name></trkpt>
<trkpt lat="52.918117" lon="-3.126577"><ele>348</ele><time>2019-09-27T11:14:14Z</time><name>PT4506</name></trkpt>
<trkpt lat="52.918130" lon="-3.126576"><ele>348</ele><time>2019-09-27T11:14:15Z</time><name>PT4507</name></trkpt>
<trkpt lat="52.918143" lon="-3.126573"><ele>348</ele><time>2019-09-27T11:14:16Z</time><name>PT4508</name></trkpt>
<trkpt lat="52.918156" lon="-3.126569"><ele>348</ele><time>2019-09-27T11:14:17Z</time><name>PT4509</name></trkpt>
<trkpt lat="52.918168" lon="-3.126567"><ele>348</ele><time>2019-09-27T11:14:18Z</time><name>PT4510</name></trkpt>
<trkpt lat="52.918179" lon="-3.126571"><ele>347</ele><time>2019-09-27T11:14:19Z</time><name>PT4511</name></trkpt>
<trkpt lat="52.918191" lon="-3.126573"><ele>347</ele><time>2019-09-27T11:14:20Z</time><name>PT4512</name></trkpt>
<trkpt lat="52.918203" lon="-3.126573"><ele>348</ele><time>2019-09-27T11:14:21Z</time><name>PT4513</name></trkpt>
<trkpt lat="52.918212" lon="-3.126573"><ele>348</ele><time>2019-09-27T11:14:22Z</time><name>PT4514</name></trkpt>
<trkpt lat="52.918222" lon="-3.126572"><ele>348</ele><time>2019-09-27T11:14:23Z</time><name>PT4515</name></trkpt>
<trkpt lat="52.918232" lon="-3.126571"><ele>348</ele><time>2019-09-27T11:14:24Z</time><name>PT4516</name></trkpt>
<trkpt lat="52.918243" lon="-3.126571"><ele>348</ele><time>2019-09-27T11:14:25Z</time><name>PT4517</name></trkpt>
<trkpt lat="52.918256" lon="-3.126572"><ele>348</ele><time>2019-09-27T11:14:26Z</time><name>PT4518</name></trkpt>
<trkpt lat="52.918268" lon="-3.126572"><ele>348</ele><time>2019-09-27T11:14:27Z</time><name>PT4519</name></trkpt>
<trkpt lat="52.918292" lon="-3.126571"><ele>350</ele><time>2019-09-27T11:14:28Z</time><name>PT4520</name></trkpt>
<trkpt lat="52.918308" lon="-3.126571"><ele>351</ele><time>2019-09-27T11:14:29Z</time><name>PT4521</name></trkpt>
<trkpt lat="52.918319" lon="-3.126570"><ele>350</ele><time>2019-09-27T11:14:30Z</time><name>PT4522</name></trkpt>
<trkpt lat="52.918330" lon="-3.126567"><ele>350</ele><time>2019-09-27T11:14:31Z</time><name>PT4523</name></trkpt>
<trkpt lat="52.918339" lon="-3.126568"><ele>349</ele><time>2019-09-27T11:14:32Z</time><name>PT4524</name></trkpt>
<trkpt lat="52.918349" lon="-3.126565"><ele>349</ele><time>2019-09-27T11:14:33Z</time><name>PT4525</name></trkpt>
<trkpt lat="52.918361" lon="-3.126560"><ele>348</ele><time>2019-09-27T11:14:34Z</time><name>PT4526</name></trkpt>
<trkpt lat="52.918370" lon="-3.126565"><ele>348</ele><time>2019-09-27T11:14:35Z</time><name>PT4527</name></trkpt>
<trkpt lat="52.918377" lon="-3.126570"><ele>348</ele><time>2019-09-27T11:14:36Z</time><name>PT4528</name></trkpt>
<trkpt lat="52.918389" lon="-3.126577"><ele>348</ele><time>2019-09-27T11:14:37Z</time><name>PT4529</name></trkpt>
<trkpt lat="52.918401" lon="-3.126582"><ele>349</ele><time>2019-09-27T11:14:38Z</time><name>PT4530</name></trkpt>
<trkpt lat="52.918418" lon="-3.126585"><ele>349</ele><time>2019-09-27T11:14:39Z</time><name>PT4531</name></trkpt>
<trkpt lat="52.918429" lon="-3.126587"><ele>349</ele><time>2019-09-27T11:14:40Z</time><name>PT4532</name></trkpt>
<trkpt lat="52.918442" lon="-3.126586"><ele>349</ele><time>2019-09-27T11:14:41Z</time><name>PT4533</name></trkpt>
<trkpt lat="52.918455" lon="-3.126585"><ele>348</ele><time>2019-09-27T11:14:42Z</time><name>PT4534</name></trkpt>
<trkpt lat="52.918465" lon="-3.126587"><ele>348</ele><time>2019-09-27T11:14:43Z</time><name>PT4535</name></trkpt>
<trkpt lat="52.918475" lon="-3.126589"><ele>348</ele><time>2019-09-27T11:14:44Z</time><name>PT4536</name></trkpt>
<trkpt lat="52.918484" lon="-3.126590"><ele>347</ele><time>2019-09-27T11:14:45Z</time><name>PT4537</name></trkpt>
<trkpt lat="52.918497" lon="-3.126588"><ele>347</ele><time>2019-09-27T11:14:46Z</time><name>PT4538</name></trkpt>
<trkpt lat="52.918513" lon="-3.126587"><ele>347</ele><time>2019-09-27T11:14:47Z</time><name>PT4539</name></trkpt>
<trkpt lat="52.918525" lon="-3.126587"><ele>347</ele><time>2019-09-27T11:14:48Z</time><name>PT4540</name></trkpt>
<trkpt lat="52.918540" lon="-3.126590"><ele>347</ele><time>2019-09-27T11:14:49Z</time><name>PT4541</name></trkpt>
<trkpt lat="52.918554" lon="-3.126592"><ele>347</ele><time>2019-09-27T11:14:50Z</time><name>PT4542</name></trkpt>
<trkpt lat="52.918569" lon="-3.126595"><ele>347</ele><time>2019-09-27T11:14:51Z</time><name>PT4543</name></trkpt>
<trkpt lat="52.918580" lon="-3.126599"><ele>347</ele><time>2019-09-27T11:14:52Z</time><name>PT4544</name></trkpt>
<trkpt lat="52.918591" lon="-3.126597"><ele>346</ele><time>2019-09-27T11:14:53Z</time><name>PT4545</name></trkpt>
<trkpt lat="52.918601" lon="-3.126593"><ele>346</ele><time>2019-09-27T11:14:54Z</time><name>PT4546</name></trkpt>
<trkpt lat="52.918612" lon="-3.126591"><ele>346</ele><time>2019-09-27T11:14:55Z</time><name>PT4547</name></trkpt>
<trkpt lat="52.918624" lon="-3.126591"><ele>346</ele><time>2019-09-27T11:14:56Z</time><name>PT4548</name></trkpt>
<trkpt lat="52.918633" lon="-3.126593"><ele>346</ele><time>2019-09-27T11:14:57Z</time><name>PT4549</name></trkpt>
<trkpt lat="52.918645" lon="-3.126596"><ele>346</ele><time>2019-09-27T11:14:58Z</time><name>PT4550</name></trkpt>
<trkpt lat="52.918656" lon="-3.126599"><ele>346</ele><time>2019-09-27T11:14:59Z</time><name>PT4551</name></trkpt>
<trkpt lat="52.918668" lon="-3.126602"><ele>347</ele><time>2019-09-27T11:15:00Z</time><name>PT4552</name></trkpt>
<trkpt lat="52.918678" lon="-3.126609"><ele>347</ele><time>2019-09-27T11:15:01Z</time><name>PT4553</name></trkpt>
<trkpt lat="52.918695" lon="-3.126614"><ele>347</ele><time>2019-09-27T11:15:02Z</time><name>PT4554</name></trkpt>
<trkpt lat="52.918708" lon="-3.126617"><ele>347</ele><time>2019-09-27T11:15:03Z</time><name>PT4555</name></trkpt>
<trkpt lat="52.918714" lon="-3.126618"><ele>346</ele><time>2019-09-27T11:15:04Z</time><name>PT4556</name></trkpt>
<trkpt lat="52.918725" lon="-3.126619"><ele>346</ele><time>2019-09-27T11:15:05Z</time><name>PT4557</name></trkpt>
<trkpt lat="52.918738" lon="-3.126619"><ele>346</ele><time>2019-09-27T11:15:06Z</time><name>PT4558</name></trkpt>
<trkpt lat="52.918745" lon="-3.126626"><ele>346</ele><time>2019-09-27T11:15:07Z</time><name>PT4559</name></trkpt>
<trkpt lat="52.918761" lon="-3.126633"><ele>346</ele><time>2019-09-27T11:15:08Z</time><name>PT4560</name></trkpt>
<trkpt lat="52.918772" lon="-3.126636"><ele>345</ele><time>2019-09-27T11:15:09Z</time><name>PT4561</name></trkpt>
<trkpt lat="52.918784" lon="-3.126639"><ele>345</ele><time>2019-09-27T11:15:10Z</time><name>PT4562</name></trkpt>
<trkpt lat="52.918793" lon="-3.126641"><ele>345</ele><time>2019-09-27T11:15:11Z</time><name>PT4563</name></trkpt>
<trkpt lat="52.918805" lon="-3.126644"><ele>345</ele><time>2019-09-27T11:15:12Z</time><name>PT4564</name></trkpt>
<trkpt lat="52.918818" lon="-3.126648"><ele>345</ele><time>2019-09-27T11:15:13Z</time><name>PT4565</name></trkpt>
<trkpt lat="52.918832" lon="-3.126652"><ele>346</ele><time>2019-09-27T11:15:14Z</time><name>PT4566</name></trkpt>
<trkpt lat="52.918847" lon="-3.126656"><ele>346</ele><time>2019-09-27T11:15:15Z</time><name>PT4567</name></trkpt>
<trkpt lat="52.918862" lon="-3.126659"><ele>346</ele><time>2019-09-27T11:15:16Z</time><name>PT4568</name></trkpt>
<trkpt lat="52.918877" lon="-3.126664"><ele>346</ele><time>2019-09-27T11:15:17Z</time><name>PT4569</name></trkpt>
<trkpt lat="52.918891" lon="-3.126670"><ele>347</ele><time>2019-09-27T11:15:18Z</time><name>PT4570</name></trkpt>
<trkpt lat="52.918904" lon="-3.126678"><ele>347</ele><time>2019-09-27T11:15:19Z</time><name>PT4571</name></trkpt>
<trkpt lat="52.918919" lon="-3.126682"><ele>347</ele><time>2019-09-27T11:15:20Z</time><name>PT4572</name></trkpt>
<trkpt lat="52.918935" lon="-3.126687"><ele>348</ele><time>2019-09-27T11:15:21Z</time><name>PT4573</name></trkpt>
<trkpt lat="52.918949" lon="-3.126691"><ele>348</ele><time>2019-09-27T11:15:22Z</time><name>PT4574</name></trkpt>
<trkpt lat="52.918965" lon="-3.126696"><ele>348</ele><time>2019-09-27T11:15:23Z</time><name>PT4575</name></trkpt>
<trkpt lat="52.918977" lon="-3.126699"><ele>348</ele><time>2019-09-27T11:15:24Z</time><name>PT4576</name></trkpt>
<trkpt lat="52.918990" lon="-3.126705"><ele>349</ele><time>2019-09-27T11:15:25Z</time><name>PT4577</name></trkpt>
<trkpt lat="52.919008" lon="-3.126710"><ele>350</ele><time>2019-09-27T11:15:26Z</time><name>PT4578</name></trkpt>
<trkpt lat="52.919021" lon="-3.126717"><ele>350</ele><time>2019-09-27T11:15:27Z</time><name>PT4579</name></trkpt>
<trkpt lat="52.919036" lon="-3.126721"><ele>351</ele><time>2019-09-27T11:15:28Z</time><name>PT4580</name></trkpt>
<trkpt lat="52.919049" lon="-3.126728"><ele>351</ele><time>2019-09-27T11:15:29Z</time><name>PT4581</name></trkpt>
<trkpt lat="52.919070" lon="-3.126733"><ele>353</ele><time>2019-09-27T11:15:30Z</time><name>PT4582</name></trkpt>
<trkpt lat="52.919083" lon="-3.126737"><ele>353</ele><time>2019-09-27T11:15:31Z</time><name>PT4583</name></trkpt>
<trkpt lat="52.919097" lon="-3.126743"><ele>353</ele><time>2019-09-27T11:15:32Z</time><name>PT4584</name></trkpt>
<trkpt lat="52.919110" lon="-3.126751"><ele>354</ele><time>2019-09-27T11:15:33Z</time><name>PT4585</name></trkpt>
<trkpt lat="52.919119" lon="-3.126757"><ele>354</ele><time>2019-09-27T11:15:34Z</time><name>PT4586</name></trkpt>
<trkpt lat="52.919128" lon="-3.126761"><ele>354</ele><time>2019-09-27T11:15:35Z</time><name>PT4587</name></trkpt>
<trkpt lat="52.919137" lon="-3.126769"><ele>354</ele><time>2019-09-27T11:15:36Z</time><name>PT4588</name></trkpt>
<trkpt lat="52.919146" lon="-3.126776"><ele>353</ele><time>2019-09-27T11:15:37Z</time><name>PT4589</name></trkpt>
<trkpt lat="52.919158" lon="-3.126782"><ele>353</ele><time>2019-09-27T11:15:38Z</time><name>PT4590</name></trkpt>
<trkpt lat="52.919169" lon="-3.126787"><ele>354</ele><time>2019-09-27T11:15:39Z</time><name>PT4591</name></trkpt>
<trkpt lat="52.919177" lon="-3.126790"><ele>353</ele><time>2019-09-27T11:15:40Z</time><name>PT4592</name></trkpt>
<trkpt lat="52.919187" lon="-3.126796"><ele>353</ele><time>2019-09-27T11:15:41Z</time><name>PT4593</name></trkpt>
<trkpt lat="52.919197" lon="-3.126803"><ele>353</ele><time>2019-09-27T11:15:42Z</time><name>PT4594</name></trkpt>
<trkpt lat="52.919210" lon="-3.126808"><ele>353</ele><time>2019-09-27T11:15:43Z</time><name>PT4595</name></trkpt>
<trkpt lat="52.919218" lon="-3.126810"><ele>353</ele><time>2019-09-27T11:15:44Z</time><name>PT4596</name></trkpt>
<trkpt lat="52.919231" lon="-3.126811"><ele>353</ele><time>2019-09-27T11:15:45Z</time><name>PT4597</name></trkpt>
<trkpt lat="52.919243" lon="-3.126815"><ele>353</ele><time>2019-09-27T11:15:46Z</time><name>PT4598</name></trkpt>
<trkpt lat="52.919253" lon="-3.126821"><ele>353</ele><time>2019-09-27T11:15:47Z</time><name>PT4599</name></trkpt>
<trkpt lat="52.919263" lon="-3.126829"><ele>353</ele><time>2019-09-27T11:15:48Z</time><name>PT4600</name></trkpt>
<trkpt lat="52.919272" lon="-3.126835"><ele>353</ele><time>2019-09-27T11:15:49Z</time><name>PT4601</name></trkpt>
<trkpt lat="52.919284" lon="-3.126844"><ele>352</ele><time>2019-09-27T11:15:50Z</time><name>PT4602</name></trkpt>
<trkpt lat="52.919296" lon="-3.126850"><ele>352</ele><time>2019-09-27T11:15:51Z</time><name>PT4603</name></trkpt>
<trkpt lat="52.919308" lon="-3.126857"><ele>352</ele><time>2019-09-27T11:15:52Z</time><name>PT4604</name></trkpt>
<trkpt lat="52.919320" lon="-3.126861"><ele>352</ele><time>2019-09-27T11:15:53Z</time><name>PT4605</name></trkpt>
<trkpt lat="52.919327" lon="-3.126869"><ele>352</ele><time>2019-09-27T11:15:54Z</time><name>PT4606</name></trkpt>
<trkpt lat="52.919338" lon="-3.126871"><ele>351</ele><time>2019-09-27T11:15:55Z</time><name>PT4607</name></trkpt>
<trkpt lat="52.919352" lon="-3.126874"><ele>352</ele><time>2019-09-27T11:15:56Z</time><name>PT4608</name></trkpt>
<trkpt lat="52.919363" lon="-3.126879"><ele>351</ele><time>2019-09-27T11:15:57Z</time><name>PT4609</name></trkpt>
<trkpt lat="52.919374" lon="-3.126885"><ele>351</ele><time>2019-09-27T11:15:58Z</time><name>PT4610</name></trkpt>
<trkpt lat="52.919383" lon="-3.126891"><ele>351</ele><time>2019-09-27T11:15:59Z</time><name>PT4611</name></trkpt>
<trkpt lat="52.919394" lon="-3.126899"><ele>350</ele><time>2019-09-27T11:16:00Z</time><name>PT4612</name></trkpt>
<trkpt lat="52.919404" lon="-3.126903"><ele>349</ele><time>2019-09-27T11:16:01Z</time><name>PT4613</name></trkpt>
<trkpt lat="52.919416" lon="-3.126906"><ele>349</ele><time>2019-09-27T11:16:02Z</time><name>PT4614</name></trkpt>
<trkpt lat="52.919426" lon="-3.126907"><ele>349</ele><time>2019-09-27T11:16:03Z</time><name>PT4615</name></trkpt>
<trkpt lat="52.919441" lon="-3.126909"><ele>349</ele><time>2019-09-27T11:16:04Z</time><name>PT4616</name></trkpt>
<trkpt lat="52.919452" lon="-3.126910"><ele>349</ele><time>2019-09-27T11:16:05Z</time><name>PT4617</name></trkpt>
<trkpt lat="52.919462" lon="-3.126912"><ele>349</ele><time>2019-09-27T11:16:06Z</time><name>PT4618</name></trkpt>
<trkpt lat="52.919472" lon="-3.126916"><ele>348</ele><time>2019-09-27T11:16:07Z</time><name>PT4619</name></trkpt>
<trkpt lat="52.919481" lon="-3.126925"><ele>349</ele><time>2019-09-27T11:16:08Z</time><name>PT4620</name></trkpt>
<trkpt lat="52.919490" lon="-3.126934"><ele>349</ele><time>2019-09-27T11:16:09Z</time><name>PT4621</name></trkpt>
<trkpt lat="52.919500" lon="-3.126938"><ele>349</ele><time>2019-09-27T11:16:10Z</time><name>PT4622</name></trkpt>
<trkpt lat="52.919506" lon="-3.126948"><ele>349</ele><time>2019-09-27T11:16:11Z</time><name>PT4623</name></trkpt>
<trkpt lat="52.919516" lon="-3.126956"><ele>349</ele><time>2019-09-27T11:16:12Z</time><name>PT4624</name></trkpt>
<trkpt lat="52.919531" lon="-3.126960"><ele>349</ele><time>2019-09-27T11:16:13Z</time><name>PT4625</name></trkpt>
<trkpt lat="52.919543" lon="-3.126961"><ele>349</ele><time>2019-09-27T11:16:14Z</time><name>PT4626</name></trkpt>
<trkpt lat="52.919555" lon="-3.126967"><ele>350</ele><time>2019-09-27T11:16:15Z</time><name>PT4627</name></trkpt>
<trkpt lat="52.919566" lon="-3.126977"><ele>350</ele><time>2019-09-27T11:16:16Z</time><name>PT4628</name></trkpt>
<trkpt lat="52.919577" lon="-3.126984"><ele>351</ele><time>2019-09-27T11:16:17Z</time><name>PT4629</name></trkpt>
<trkpt lat="52.919590" lon="-3.126990"><ele>351</ele><time>2019-09-27T11:16:18Z</time><name>PT4630</name></trkpt>
<trkpt lat="52.919603" lon="-3.126997"><ele>351</ele><time>2019-09-27T11:16:19Z</time><name>PT4631</name></trkpt>
<trkpt lat="52.919618" lon="-3.127005"><ele>350</ele><time>2019-09-27T11:16:20Z</time><name>PT4632</name></trkpt>
<trkpt lat="52.919629" lon="-3.127016"><ele>349</ele><time>2019-09-27T11:16:21Z</time><name>PT4633</name></trkpt>
<trkpt lat="52.919640" lon="-3.127028"><ele>349</ele><time>2019-09-27T11:16:22Z</time><name>PT4634</name></trkpt>
<trkpt lat="52.919651" lon="-3.127044"><ele>349</ele><time>2019-09-27T11:16:23Z</time><name>PT4635</name></trkpt>
<trkpt lat="52.919663" lon="-3.127058"><ele>349</ele><time>2019-09-27T11:16:24Z</time><name>PT4636</name></trkpt>
<trkpt lat="52.919675" lon="-3.127069"><ele>350</ele><time>2019-09-27T11:16:25Z</time><name>PT4637</name></trkpt>
<trkpt lat="52.919688" lon="-3.127081"><ele>350</ele><time>2019-09-27T11:16:26Z</time><name>PT4638</name></trkpt>
<trkpt lat="52.919697" lon="-3.127093"><ele>350</ele><time>2019-09-27T11:16:27Z</time><name>PT4639</name></trkpt>
<trkpt lat="52.919706" lon="-3.127109"><ele>350</ele><time>2019-09-27T11:16:28Z</time><name>PT4640</name></trkpt>
<trkpt lat="52.919717" lon="-3.127122"><ele>351</ele><time>2019-09-27T11:16:29Z</time><name>PT4641</name></trkpt>
<trkpt lat="52.919728" lon="-3.127132"><ele>351</ele><time>2019-09-27T11:16:30Z</time><name>PT4642</name></trkpt>
<trkpt lat="52.919739" lon="-3.127141"><ele>351</ele><time>2019-09-27T11:16:31Z</time><name>PT4643</name></trkpt>
<trkpt lat="52.919749" lon="-3.127153"><ele>350</ele><time>2019-09-27T11:16:32Z</time><name>PT4644</name></trkpt>
<trkpt lat="52.919759" lon="-3.127163"><ele>350</ele><time>2019-09-27T11:16:33Z</time><name>PT4645</name></trkpt>
<trkpt lat="52.919768" lon="-3.127171"><ele>349</ele><time>2019-09-27T11:16:34Z</time><name>PT4646</name></trkpt>
<trkpt lat="52.919777" lon="-3.127183"><ele>349</ele><time>2019-09-27T11:16:35Z</time><name>PT4647</name></trkpt>
<trkpt lat="52.919785" lon="-3.127196"><ele>349</ele><time>2019-09-27T11:16:36Z</time><name>PT4648</name></trkpt>
<trkpt lat="52.919797" lon="-3.127214"><ele>350</ele><time>2019-09-27T11:16:37Z</time><name>PT4649</name></trkpt>
<trkpt lat="52.919807" lon="-3.127230"><ele>350</ele><time>2019-09-27T11:16:38Z</time><name>PT4650</name></trkpt>
<trkpt lat="52.919817" lon="-3.127245"><ele>351</ele><time>2019-09-27T11:16:39Z</time><name>PT4651</name></trkpt>
<trkpt lat="52.919827" lon="-3.127259"><ele>351</ele><time>2019-09-27T11:16:40Z</time><name>PT4652</name></trkpt>
<trkpt lat="52.919834" lon="-3.127274"><ele>351</ele><time>2019-09-27T11:16:41Z</time><name>PT4653</name></trkpt>
<trkpt lat="52.919843" lon="-3.127291"><ele>351</ele><time>2019-09-27T11:16:42Z</time><name>PT4654</name></trkpt>
<trkpt lat="52.919852" lon="-3.127308"><ele>352</ele><time>2019-09-27T11:16:43Z</time><name>PT4655</name></trkpt>
<trkpt lat="52.919861" lon="-3.127323"><ele>352</ele><time>2019-09-27T11:16:44Z</time><name>PT4656</name></trkpt>
<trkpt lat="52.919871" lon="-3.127336"><ele>352</ele><time>2019-09-27T11:16:45Z</time><name>PT4657</name></trkpt>
<trkpt lat="52.919882" lon="-3.127355"><ele>352</ele><time>2019-09-27T11:16:46Z</time><name>PT4658</name></trkpt>
<trkpt lat="52.919889" lon="-3.127369"><ele>353</ele><time>2019-09-27T11:16:47Z</time><name>PT4659</name></trkpt>
<trkpt lat="52.919898" lon="-3.127383"><ele>353</ele><time>2019-09-27T11:16:48Z</time><name>PT4660</name></trkpt>
<trkpt lat="52.919904" lon="-3.127398"><ele>353</ele><time>2019-09-27T11:16:49Z</time><name>PT4661</name></trkpt>
<trkpt lat="52.919912" lon="-3.127414"><ele>353</ele><time>2019-09-27T11:16:50Z</time><name>PT4662</name></trkpt>
<trkpt lat="52.919919" lon="-3.127432"><ele>354</ele><time>2019-09-27T11:16:51Z</time><name>PT4663</name></trkpt>
<trkpt lat="52.919928" lon="-3.127445"><ele>353</ele><time>2019-09-27T11:16:52Z</time><name>PT4664</name></trkpt>
<trkpt lat="52.919935" lon="-3.127458"><ele>352</ele><time>2019-09-27T11:16:53Z</time><name>PT4665</name></trkpt>
<trkpt lat="52.919941" lon="-3.127477"><ele>352</ele><time>2019-09-27T11:16:54Z</time><name>PT4666</name></trkpt>
<trkpt lat="52.919949" lon="-3.127492"><ele>352</ele><time>2019-09-27T11:16:55Z</time><name>PT4667</name></trkpt>
<trkpt lat="52.919959" lon="-3.127509"><ele>353</ele><time>2019-09-27T11:16:56Z</time><name>PT4668</name></trkpt>
<trkpt lat="52.919968" lon="-3.127525"><ele>353</ele><time>2019-09-27T11:16:57Z</time><name>PT4669</name></trkpt>
<trkpt lat="52.919976" lon="-3.127535"><ele>352</ele><time>2019-09-27T11:16:58Z</time><name>PT4670</name></trkpt>
<trkpt lat="52.919981" lon="-3.127552"><ele>352</ele><time>2019-09-27T11:16:59Z</time><name>PT4671</name></trkpt>
<trkpt lat="52.919988" lon="-3.127563"><ele>352</ele><time>2019-09-27T11:17:00Z</time><name>PT4672</name></trkpt>
<trkpt lat="52.919996" lon="-3.127572"><ele>352</ele><time>2019-09-27T11:17:01Z</time><name>PT4673</name></trkpt>
<trkpt lat="52.920003" lon="-3.127582"><ele>351</ele><time>2019-09-27T11:17:02Z</time><name>PT4674</name></trkpt>
<trkpt lat="52.920010" lon="-3.127589"><ele>351</ele><time>2019-09-27T11:17:03Z</time><name>PT4675</name></trkpt>
<trkpt lat="52.920019" lon="-3.127602"><ele>351</ele><time>2019-09-27T11:17:04Z</time><name>PT4676</name></trkpt>
<trkpt lat="52.920028" lon="-3.127618"><ele>351</ele><time>2019-09-27T11:17:05Z</time><name>PT4677</name></trkpt>
<trkpt lat="52.920034" lon="-3.127631"><ele>350</ele><time>2019-09-27T11:17:06Z</time><name>PT4678</name></trkpt>
<trkpt lat="52.920042" lon="-3.127643"><ele>350</ele><time>2019-09-27T11:17:07Z</time><name>PT4679</name></trkpt>
<trkpt lat="52.920049" lon="-3.127658"><ele>350</ele><time>2019-09-27T11:17:08Z</time><name>PT4680</name></trkpt>
<trkpt lat="52.920058" lon="-3.127667"><ele>350</ele><time>2019-09-27T11:17:09Z</time><name>PT4681</name></trkpt>
<trkpt lat="52.920067" lon="-3.127680"><ele>350</ele><time>2019-09-27T11:17:10Z</time><name>PT4682</name></trkpt>
<trkpt lat="52.920079" lon="-3.127687"><ele>348</ele><time>2019-09-27T11:17:11Z</time><name>PT4683</name></trkpt>
<trkpt lat="52.920088" lon="-3.127707"><ele>349</ele><time>2019-09-27T11:17:12Z</time><name>PT4684</name></trkpt>
<trkpt lat="52.920096" lon="-3.127724"><ele>349</ele><time>2019-09-27T11:17:13Z</time><name>PT4685</name></trkpt>
<trkpt lat="52.920104" lon="-3.127736"><ele>349</ele><time>2019-09-27T11:17:14Z</time><name>PT4686</name></trkpt>
<trkpt lat="52.920113" lon="-3.127748"><ele>349</ele><time>2019-09-27T11:17:15Z</time><name>PT4687</name></trkpt>
<trkpt lat="52.920122" lon="-3.127757"><ele>349</ele><time>2019-09-27T11:17:16Z</time><name>PT4688</name></trkpt>
<trkpt lat="52.920131" lon="-3.127769"><ele>349</ele><time>2019-09-27T11:17:17Z</time><name>PT4689</name></trkpt>
<trkpt lat="52.920142" lon="-3.127790"><ele>350</ele><time>2019-09-27T11:17:18Z</time><name>PT4690</name></trkpt>
<trkpt lat="52.920148" lon="-3.127806"><ele>351</ele><time>2019-09-27T11:17:19Z</time><name>PT4691</name></trkpt>
<trkpt lat="52.920155" lon="-3.127825"><ele>351</ele><time>2019-09-27T11:17:20Z</time><name>PT4692</name></trkpt>
<trkpt lat="52.920163" lon="-3.127838"><ele>352</ele><time>2019-09-27T11:17:21Z</time><name>PT4693</name></trkpt>
<trkpt lat="52.920171" lon="-3.127853"><ele>353</ele><time>2019-09-27T11:17:22Z</time><name>PT4694</name></trkpt>
<trkpt lat="52.920180" lon="-3.127865"><ele>352</ele><time>2019-09-27T11:17:23Z</time><name>PT4695</name></trkpt>
<trkpt lat="52.920190" lon="-3.127880"><ele>352</ele><time>2019-09-27T11:17:24Z</time><name>PT4696</name></trkpt>
<trkpt lat="52.920197" lon="-3.127894"><ele>353</ele><time>2019-09-27T11:17:25Z</time><name>PT4697</name></trkpt>
<trkpt lat="52.920208" lon="-3.127905"><ele>353</ele><time>2019-09-27T11:17:26Z</time><name>PT4698</name></trkpt>
<trkpt lat="52.920217" lon="-3.127914"><ele>353</ele><time>2019-09-27T11:17:27Z</time><name>PT4699</name></trkpt>
<trkpt lat="52.920227" lon="-3.127925"><ele>353</ele><time>2019-09-27T11:17:28Z</time><name>PT4700</name></trkpt>
<trkpt lat="52.920238" lon="-3.127938"><ele>353</ele><time>2019-09-27T11:17:29Z</time><name>PT4701</name></trkpt>
<trkpt lat="52.920246" lon="-3.127951"><ele>353</ele><time>2019-09-27T11:17:30Z</time><name>PT4702</name></trkpt>
<trkpt lat="52.920257" lon="-3.127964"><ele>353</ele><time>2019-09-27T11:17:31Z</time><name>PT4703</name></trkpt>
<trkpt lat="52.920265" lon="-3.127975"><ele>353</ele><time>2019-09-27T11:17:32Z</time><name>PT4704</name></trkpt>
<trkpt lat="52.920272" lon="-3.127988"><ele>353</ele><time>2019-09-27T11:17:33Z</time><name>PT4705</name></trkpt>
<trkpt lat="52.920279" lon="-3.128001"><ele>354</ele><time>2019-09-27T11:17:34Z</time><name>PT4706</name></trkpt>
<trkpt lat="52.920287" lon="-3.128010"><ele>354</ele><time>2019-09-27T11:17:35Z</time><name>PT4707</name></trkpt>
<trkpt lat="52.920296" lon="-3.128019"><ele>354</ele><time>2019-09-27T11:17:36Z</time><name>PT4708</name></trkpt>
<trkpt lat="52.920305" lon="-3.128030"><ele>354</ele><time>2019-09-27T11:17:37Z</time><name>PT4709</name></trkpt>
<trkpt lat="52.920318" lon="-3.128037"><ele>354</ele><time>2019-09-27T11:17:38Z</time><name>PT4710</name></trkpt>
<trkpt lat="52.920327" lon="-3.128047"><ele>354</ele><time>2019-09-27T11:17:39Z</time><name>PT4711</name></trkpt>
<trkpt lat="52.920337" lon="-3.128058"><ele>354</ele><time>2019-09-27T11:17:40Z</time><name>PT4712</name></trkpt>
<trkpt lat="52.920345" lon="-3.128074"><ele>354</ele><time>2019-09-27T11:17:41Z</time><name>PT4713</name></trkpt>
<trkpt lat="52.920353" lon="-3.128086"><ele>354</ele><time>2019-09-27T11:17:42Z</time><name>PT4714</name></trkpt>
<trkpt lat="52.920361" lon="-3.128096"><ele>354</ele><time>2019-09-27T11:17:43Z</time><name>PT4715</name></trkpt>
<trkpt lat="52.920370" lon="-3.128107"><ele>354</ele><time>2019-09-27T11:17:44Z</time><name>PT4716</name></trkpt>
<trkpt lat="52.920377" lon="-3.128119"><ele>354</ele><time>2019-09-27T11:17:45Z</time><name>PT4717</name></trkpt>
<trkpt lat="52.920384" lon="-3.128136"><ele>354</ele><time>2019-09-27T11:17:46Z</time><name>PT4718</name></trkpt>
<trkpt lat="52.920392" lon="-3.128146"><ele>354</ele><time>2019-09-27T11:17:47Z</time><name>PT4719</name></trkpt>
<trkpt lat="52.920401" lon="-3.128159"><ele>354</ele><time>2019-09-27T11:17:48Z</time><name>PT4720</name></trkpt>
<trkpt lat="52.920411" lon="-3.128171"><ele>354</ele><time>2019-09-27T11:17:49Z</time><name>PT4721</name></trkpt>
<trkpt lat="52.920419" lon="-3.128183"><ele>354</ele><time>2019-09-27T11:17:50Z</time><name>PT4722</name></trkpt>
<trkpt lat="52.920428" lon="-3.128198"><ele>355</ele><time>2019-09-27T11:17:51Z</time><name>PT4723</name></trkpt>
<trkpt lat="52.920433" lon="-3.128208"><ele>355</ele><time>2019-09-27T11:17:52Z</time><name>PT4724</name></trkpt>
<trkpt lat="52.920439" lon="-3.128217"><ele>355</ele><time>2019-09-27T11:17:53Z</time><name>PT4725</name></trkpt>
<trkpt lat="52.920444" lon="-3.128230"><ele>356</ele><time>2019-09-27T11:17:54Z</time><name>PT4726</name></trkpt>
<trkpt lat="52.920447" lon="-3.128238"><ele>355</ele><time>2019-09-27T11:17:55Z</time><name>PT4727</name></trkpt>
<trkpt lat="52.920452" lon="-3.128248"><ele>355</ele><time>2019-09-27T11:17:56Z</time><name>PT4728</name></trkpt>
<trkpt lat="52.920457" lon="-3.128259"><ele>356</ele><time>2019-09-27T11:17:57Z</time><name>PT4729</name></trkpt>
<trkpt lat="52.920465" lon="-3.128271"><ele>356</ele><time>2019-09-27T11:17:58Z</time><name>PT4730</name></trkpt>
<trkpt lat="52.920471" lon="-3.128287"><ele>356</ele><time>2019-09-27T11:17:59Z</time><name>PT4731</name></trkpt>
<trkpt lat="52.920478" lon="-3.128307"><ele>356</ele><time>2019-09-27T11:18:00Z</time><name>PT4732</name></trkpt>
<trkpt lat="52.920487" lon="-3.128321"><ele>356</ele><time>2019-09-27T11:18:01Z</time><name>PT4733</name></trkpt>
<trkpt lat="52.920495" lon="-3.128327"><ele>356</ele><time>2019-09-27T11:18:02Z</time><name>PT4734</name></trkpt>
<trkpt lat="52.920504" lon="-3.128331"><ele>356</ele><time>2019-09-27T11:18:03Z</time><name>PT4735</name></trkpt>
<trkpt lat="52.920511" lon="-3.128339"><ele>356</ele><time>2019-09-27T11:18:04Z</time><name>PT4736</name></trkpt>
<trkpt lat="52.920515" lon="-3.128347"><ele>356</ele><time>2019-09-27T11:18:05Z</time><name>PT4737</name></trkpt>
<trkpt lat="52.920519" lon="-3.128351"><ele>356</ele><time>2019-09-27T11:18:06Z</time><name>PT4738</name></trkpt>
<trkpt lat="52.920521" lon="-3.128356"><ele>356</ele><time>2019-09-27T11:18:07Z</time><name>PT4739</name></trkpt>
<trkpt lat="52.920524" lon="-3.128360"><ele>357</ele><time>2019-09-27T11:18:08Z</time><name>PT4740</name></trkpt>
<trkpt lat="52.920526" lon="-3.128365"><ele>357</ele><time>2019-09-27T11:18:09Z</time><name>PT4741</name></trkpt>
<trkpt lat="52.920529" lon="-3.128370"><ele>357</ele><time>2019-09-27T11:18:16Z</time><name>PT4742</name></trkpt>
<trkpt lat="52.920538" lon="-3.128376"><ele>357</ele><time>2019-09-27T11:18:17Z</time><name>PT4743</name></trkpt>
<trkpt lat="52.920542" lon="-3.128384"><ele>356</ele><time>2019-09-27T11:18:18Z</time><name>PT4744</name></trkpt>
<trkpt lat="52.920546" lon="-3.128390"><ele>356</ele><time>2019-09-27T11:18:19Z</time><name>PT4745</name></trkpt>
<trkpt lat="52.920549" lon="-3.128396"><ele>356</ele><time>2019-09-27T11:18:20Z</time><name>PT4746</name></trkpt>
<trkpt lat="52.920554" lon="-3.128398"><ele>356</ele><time>2019-09-27T11:18:21Z</time><name>PT4747</name></trkpt>
<trkpt lat="52.920558" lon="-3.128399"><ele>356</ele><time>2019-09-27T11:18:22Z</time><name>PT4748</name></trkpt>
<trkpt lat="52.920563" lon="-3.128404"><ele>355</ele><time>2019-09-27T11:18:23Z</time><name>PT4749</name></trkpt>
<trkpt lat="52.920569" lon="-3.128412"><ele>355</ele><time>2019-09-27T11:18:24Z</time><name>PT4750</name></trkpt>
<trkpt lat="52.920577" lon="-3.128423"><ele>355</ele><time>2019-09-27T11:18:25Z</time><name>PT4751</name></trkpt>
<trkpt lat="52.920587" lon="-3.128433"><ele>355</ele><time>2019-09-27T11:18:26Z</time><name>PT4752</name></trkpt>
<trkpt lat="52.920595" lon="-3.128444"><ele>355</ele><time>2019-09-27T11:18:27Z</time><name>PT4753</name></trkpt>
<trkpt lat="52.920604" lon="-3.128455"><ele>354</ele><time>2019-09-27T11:18:28Z</time><name>PT4754</name></trkpt>
<trkpt lat="52.920610" lon="-3.128465"><ele>354</ele><time>2019-09-27T11:18:29Z</time><name>PT4755</name></trkpt>
<trkpt lat="52.920619" lon="-3.128469"><ele>354</ele><time>2019-09-27T11:18:30Z</time><name>PT4756</name></trkpt>
<trkpt lat="52.920627" lon="-3.128477"><ele>354</ele><time>2019-09-27T11:18:31Z</time><name>PT4757</name></trkpt>
<trkpt lat="52.920636" lon="-3.128483"><ele>354</ele><time>2019-09-27T11:18:32Z</time><name>PT4758</name></trkpt>
<trkpt lat="52.920649" lon="-3.128494"><ele>353</ele><time>2019-09-27T11:18:33Z</time><name>PT4759</name></trkpt>
<trkpt lat="52.920657" lon="-3.128503"><ele>353</ele><time>2019-09-27T11:18:34Z</time><name>PT4760</name></trkpt>
<trkpt lat="52.920663" lon="-3.128515"><ele>353</ele><time>2019-09-27T11:18:35Z</time><name>PT4761</name></trkpt>
<trkpt lat="52.920672" lon="-3.128528"><ele>353</ele><time>2019-09-27T11:18:36Z</time><name>PT4762</name></trkpt>
<trkpt lat="52.920679" lon="-3.128533"><ele>352</ele><time>2019-09-27T11:18:37Z</time><name>PT4763</name></trkpt>
<trkpt lat="52.920688" lon="-3.128543"><ele>352</ele><time>2019-09-27T11:18:38Z</time><name>PT4764</name></trkpt>
<trkpt lat="52.920699" lon="-3.128552"><ele>352</ele><time>2019-09-27T11:18:39Z</time><name>PT4765</name></trkpt>
<trkpt lat="52.920707" lon="-3.128560"><ele>352</ele><time>2019-09-27T11:18:40Z</time><name>PT4766</name></trkpt>
<trkpt lat="52.920715" lon="-3.128572"><ele>352</ele><time>2019-09-27T11:18:41Z</time><name>PT4767</name></trkpt>
<trkpt lat="52.920724" lon="-3.128584"><ele>353</ele><time>2019-09-27T11:18:42Z</time><name>PT4768</name></trkpt>
<trkpt lat="52.920731" lon="-3.128591"><ele>353</ele><time>2019-09-27T11:18:43Z</time><name>PT4769</name></trkpt>
<trkpt lat="52.920740" lon="-3.128605"><ele>353</ele><time>2019-09-27T11:18:44Z</time><name>PT4770</name></trkpt>
<trkpt lat="52.920749" lon="-3.128611"><ele>352</ele><time>2019-09-27T11:18:45Z</time><name>PT4771</name></trkpt>
<trkpt lat="52.920758" lon="-3.128625"><ele>353</ele><time>2019-09-27T11:18:46Z</time><name>PT4772</name></trkpt>
<trkpt lat="52.920770" lon="-3.128631"><ele>352</ele><time>2019-09-27T11:18:47Z</time><name>PT4773</name></trkpt>
<trkpt lat="52.920780" lon="-3.128631"><ele>351</ele><time>2019-09-27T11:18:48Z</time><name>PT4774</name></trkpt>
<trkpt lat="52.920790" lon="-3.128636"><ele>351</ele><time>2019-09-27T11:18:49Z</time><name>PT4775</name></trkpt>
<trkpt lat="52.920798" lon="-3.128646"><ele>351</ele><time>2019-09-27T11:18:50Z</time><name>PT4776</name></trkpt>
<trkpt lat="52.920806" lon="-3.128656"><ele>351</ele><time>2019-09-27T11:18:51Z</time><name>PT4777</name></trkpt>
<trkpt lat="52.920815" lon="-3.128669"><ele>351</ele><time>2019-09-27T11:18:52Z</time><name>PT4778</name></trkpt>
<trkpt lat="52.920823" lon="-3.128677"><ele>351</ele><time>2019-09-27T11:18:53Z</time><name>PT4779</name></trkpt>
<trkpt lat="52.920830" lon="-3.128688"><ele>351</ele><time>2019-09-27T11:18:54Z</time><name>PT4780</name></trkpt>
<trkpt lat="52.920839" lon="-3.128698"><ele>351</ele><time>2019-09-27T11:18:55Z</time><name>PT4781</name></trkpt>
<trkpt lat="52.920846" lon="-3.128706"><ele>351</ele><time>2019-09-27T11:18:56Z</time><name>PT4782</name></trkpt>
<trkpt lat="52.920853" lon="-3.128722"><ele>352</ele><time>2019-09-27T11:18:57Z</time><name>PT4783</name></trkpt>
<trkpt lat="52.920860" lon="-3.128734"><ele>352</ele><time>2019-09-27T11:18:58Z</time><name>PT4784</name></trkpt>
<trkpt lat="52.920867" lon="-3.128744"><ele>352</ele><time>2019-09-27T11:18:59Z</time><name>PT4785</name></trkpt>
<trkpt lat="52.920876" lon="-3.128755"><ele>351</ele><time>2019-09-27T11:19:00Z</time><name>PT4786</name></trkpt>
<trkpt lat="52.920883" lon="-3.128763"><ele>351</ele><time>2019-09-27T11:19:01Z</time><name>PT4787</name></trkpt>
<trkpt lat="52.920891" lon="-3.128769"><ele>350</ele><time>2019-09-27T11:19:02Z</time><name>PT4788</name></trkpt>
<trkpt lat="52.920902" lon="-3.128773"><ele>350</ele><time>2019-09-27T11:19:03Z</time><name>PT4789</name></trkpt>
<trkpt lat="52.920909" lon="-3.128777"><ele>349</ele><time>2019-09-27T11:19:04Z</time><name>PT4790</name></trkpt>
<trkpt lat="52.920917" lon="-3.128786"><ele>349</ele><time>2019-09-27T11:19:05Z</time><name>PT4791</name></trkpt>
<trkpt lat="52.920926" lon="-3.128792"><ele>349</ele><time>2019-09-27T11:19:06Z</time><name>PT4792</name></trkpt>
<trkpt lat="52.920935" lon="-3.128796"><ele>348</ele><time>2019-09-27T11:19:07Z</time><name>PT4793</name></trkpt>
<trkpt lat="52.920942" lon="-3.128811"><ele>348</ele><time>2019-09-27T11:19:08Z</time><name>PT4794</name></trkpt>
<trkpt lat="52.920948" lon="-3.128823"><ele>348</ele><time>2019-09-27T11:19:09Z</time><name>PT4795</name></trkpt>
<trkpt lat="52.920956" lon="-3.128825"><ele>347</ele><time>2019-09-27T11:19:10Z</time><name>PT4796</name></trkpt>
<trkpt lat="52.920965" lon="-3.128837"><ele>347</ele><time>2019-09-27T11:19:11Z</time><name>PT4797</name></trkpt>
<trkpt lat="52.920973" lon="-3.128844"><ele>346</ele><time>2019-09-27T11:19:12Z</time><name>PT4798</name></trkpt>
<trkpt lat="52.920980" lon="-3.128854"><ele>346</ele><time>2019-09-27T11:19:13Z</time><name>PT4799</name></trkpt>
<trkpt lat="52.920989" lon="-3.128859"><ele>345</ele><time>2019-09-27T11:19:14Z</time><name>PT4800</name></trkpt>
<trkpt lat="52.920996" lon="-3.128869"><ele>345</ele><time>2019-09-27T11:19:15Z</time><name>PT4801</name></trkpt>
<trkpt lat="52.921003" lon="-3.128879"><ele>345</ele><time>2019-09-27T11:19:16Z</time><name>PT4802</name></trkpt>
<trkpt lat="52.921010" lon="-3.128887"><ele>344</ele><time>2019-09-27T11:19:17Z</time><name>PT4803</name></trkpt>
<trkpt lat="52.921017" lon="-3.128898"><ele>344</ele><time>2019-09-27T11:19:18Z</time><name>PT4804</name></trkpt>
<trkpt lat="52.921026" lon="-3.128904"><ele>344</ele><time>2019-09-27T11:19:19Z</time><name>PT4805</name></trkpt>
<trkpt lat="52.921034" lon="-3.128914"><ele>344</ele><time>2019-09-27T11:19:20Z</time><name>PT4806</name></trkpt>
<trkpt lat="52.921041" lon="-3.128922"><ele>343</ele><time>2019-09-27T11:19:21Z</time><name>PT4807</name></trkpt>
<trkpt lat="52.921047" lon="-3.128932"><ele>343</ele><time>2019-09-27T11:19:22Z</time><name>PT4808</name></trkpt>
<trkpt lat="52.921054" lon="-3.128944"><ele>343</ele><time>2019-09-27T11:19:23Z</time><name>PT4809</name></trkpt>
<trkpt lat="52.921061" lon="-3.128958"><ele>343</ele><time>2019-09-27T11:19:24Z</time><name>PT4810</name></trkpt>
<trkpt lat="52.921069" lon="-3.128964"><ele>343</ele><time>2019-09-27T11:19:25Z</time><name>PT4811</name></trkpt>
<trkpt lat="52.921077" lon="-3.128981"><ele>343</ele><time>2019-09-27T11:19:26Z</time><name>PT4812</name></trkpt>
<trkpt lat="52.921094" lon="-3.128991"><ele>344</ele><time>2019-09-27T11:19:27Z</time><name>PT4813</name></trkpt>
<trkpt lat="52.921102" lon="-3.129002"><ele>345</ele><time>2019-09-27T11:19:28Z</time><name>PT4814</name></trkpt>
<trkpt lat="52.921109" lon="-3.129011"><ele>345</ele><time>2019-09-27T11:19:29Z</time><name>PT4815</name></trkpt>
<trkpt lat="52.921121" lon="-3.129022"><ele>345</ele><time>2019-09-27T11:19:30Z</time><name>PT4816</name></trkpt>
<trkpt lat="52.921128" lon="-3.129039"><ele>346</ele><time>2019-09-27T11:19:31Z</time><name>PT4817</name></trkpt>
<trkpt lat="52.921135" lon="-3.129048"><ele>346</ele><time>2019-09-27T11:19:32Z</time><name>PT4818</name></trkpt>
<trkpt lat="52.921143" lon="-3.129059"><ele>345</ele><time>2019-09-27T11:19:33Z</time><name>PT4819</name></trkpt>
<trkpt lat="52.921150" lon="-3.129072"><ele>345</ele><time>2019-09-27T11:19:34Z</time><name>PT4820</name></trkpt>
<trkpt lat="52.921154" lon="-3.129085"><ele>346</ele><time>2019-09-27T11:19:35Z</time><name>PT4821</name></trkpt>
<trkpt lat="52.921158" lon="-3.129097"><ele>345</ele><time>2019-09-27T11:19:36Z</time><name>PT4822</name></trkpt>
<trkpt lat="52.921164" lon="-3.129109"><ele>345</ele><time>2019-09-27T11:19:37Z</time><name>PT4823</name></trkpt>
<trkpt lat="52.921169" lon="-3.129122"><ele>345</ele><time>2019-09-27T11:19:38Z</time><name>PT4824</name></trkpt>
<trkpt lat="52.921181" lon="-3.129133"><ele>345</ele><time>2019-09-27T11:19:39Z</time><name>PT4825</name></trkpt>
<trkpt lat="52.921192" lon="-3.129144"><ele>345</ele><time>2019-09-27T11:19:40Z</time><name>PT4826</name></trkpt>
<trkpt lat="52.921198" lon="-3.129161"><ele>344</ele><time>2019-09-27T11:19:41Z</time><name>PT4827</name></trkpt>
<trkpt lat="52.921205" lon="-3.129176"><ele>345</ele><time>2019-09-27T11:19:42Z</time><name>PT4828</name></trkpt>
<trkpt lat="52.921212" lon="-3.129186"><ele>344</ele><time>2019-09-27T11:19:43Z</time><name>PT4829</name></trkpt>
<trkpt lat="52.921219" lon="-3.129198"><ele>344</ele><time>2019-09-27T11:19:44Z</time><name>PT4830</name></trkpt>
<trkpt lat="52.921227" lon="-3.129209"><ele>343</ele><time>2019-09-27T11:19:45Z</time><name>PT4831</name></trkpt>
<trkpt lat="52.921236" lon="-3.129214"><ele>343</ele><time>2019-09-27T11:19:46Z</time><name>PT4832</name></trkpt>
<trkpt lat="52.921243" lon="-3.129227"><ele>343</ele><time>2019-09-27T11:19:47Z</time><name>PT4833</name></trkpt>
<trkpt lat="52.921251" lon="-3.129236"><ele>343</ele><time>2019-09-27T11:19:48Z</time><name>PT4834</name></trkpt>
<trkpt lat="52.921258" lon="-3.129243"><ele>343</ele><time>2019-09-27T11:19:49Z</time><name>PT4835</name></trkpt>
<trkpt lat="52.921264" lon="-3.129248"><ele>342</ele><time>2019-09-27T11:19:50Z</time><name>PT4836</name></trkpt>
<trkpt lat="52.921271" lon="-3.129259"><ele>343</ele><time>2019-09-27T11:19:51Z</time><name>PT4837</name></trkpt>
<trkpt lat="52.921279" lon="-3.129267"><ele>343</ele><time>2019-09-27T11:19:52Z</time><name>PT4838</name></trkpt>
<trkpt lat="52.921284" lon="-3.129288"><ele>343</ele><time>2019-09-27T11:19:53Z</time><name>PT4839</name></trkpt>
<trkpt lat="52.921289" lon="-3.129305"><ele>343</ele><time>2019-09-27T11:19:54Z</time><name>PT4840</name></trkpt>
<trkpt lat="52.921293" lon="-3.129321"><ele>343</ele><time>2019-09-27T11:19:55Z</time><name>PT4841</name></trkpt>
<trkpt lat="52.921299" lon="-3.129337"><ele>343</ele><time>2019-09-27T11:19:56Z</time><name>PT4842</name></trkpt>
<trkpt lat="52.921308" lon="-3.129348"><ele>344</ele><time>2019-09-27T11:19:57Z</time><name>PT4843</name></trkpt>
<trkpt lat="52.921315" lon="-3.129359"><ele>344</ele><time>2019-09-27T11:19:58Z</time><name>PT4844</name></trkpt>
<trkpt lat="52.921321" lon="-3.129377"><ele>344</ele><time>2019-09-27T11:19:59Z</time><name>PT4845</name></trkpt>
<trkpt lat="52.921324" lon="-3.129392"><ele>344</ele><time>2019-09-27T11:20:00Z</time><name>PT4846</name></trkpt>
<trkpt lat="52.921329" lon="-3.129400"><ele>343</ele><time>2019-09-27T11:20:01Z</time><name>PT4847</name></trkpt>
<trkpt lat="52.921335" lon="-3.129412"><ele>342</ele><time>2019-09-27T11:20:02Z</time><name>PT4848</name></trkpt>
<trkpt lat="52.921340" lon="-3.129424"><ele>342</ele><time>2019-09-27T11:20:03Z</time><name>PT4849</name></trkpt>
<trkpt lat="52.921345" lon="-3.129433"><ele>341</ele><time>2019-09-27T11:20:04Z</time><name>PT4850</name></trkpt>
<trkpt lat="52.921351" lon="-3.129445"><ele>341</ele><time>2019-09-27T11:20:05Z</time><name>PT4851</name></trkpt>
<trkpt lat="52.921360" lon="-3.129456"><ele>340</ele><time>2019-09-27T11:20:06Z</time><name>PT4852</name></trkpt>
<trkpt lat="52.921366" lon="-3.129467"><ele>340</ele><time>2019-09-27T11:20:07Z</time><name>PT4853</name></trkpt>
<trkpt lat="52.921369" lon="-3.129479"><ele>340</ele><time>2019-09-27T11:20:08Z</time><name>PT4854</name></trkpt>
<trkpt lat="52.921372" lon="-3.129490"><ele>339</ele><time>2019-09-27T11:20:09Z</time><name>PT4855</name></trkpt>
<trkpt lat="52.921375" lon="-3.129508"><ele>339</ele><time>2019-09-27T11:20:10Z</time><name>PT4856</name></trkpt>
<trkpt lat="52.921379" lon="-3.129520"><ele>339</ele><time>2019-09-27T11:20:11Z</time><name>PT4857</name></trkpt>
<trkpt lat="52.921389" lon="-3.129534"><ele>339</ele><time>2019-09-27T11:20:12Z</time><name>PT4858</name></trkpt>
<trkpt lat="52.921407" lon="-3.129559"><ele>339</ele><time>2019-09-27T11:20:13Z</time><name>PT4859</name></trkpt>
<trkpt lat="52.921412" lon="-3.129570"><ele>339</ele><time>2019-09-27T11:20:14Z</time><name>PT4860</name></trkpt>
<trkpt lat="52.921419" lon="-3.129583"><ele>339</ele><time>2019-09-27T11:20:15Z</time><name>PT4861</name></trkpt>
<trkpt lat="52.921424" lon="-3.129607"><ele>340</ele><time>2019-09-27T11:20:16Z</time><name>PT4862</name></trkpt>
<trkpt lat="52.921428" lon="-3.129626"><ele>340</ele><time>2019-09-27T11:20:17Z</time><name>PT4863</name></trkpt>
<trkpt lat="52.921432" lon="-3.129640"><ele>340</ele><time>2019-09-27T11:20:18Z</time><name>PT4864</name></trkpt>
<trkpt lat="52.921437" lon="-3.129658"><ele>339</ele><time>2019-09-27T11:20:19Z</time><name>PT4865</name></trkpt>
<trkpt lat="52.921444" lon="-3.129670"><ele>339</ele><time>2019-09-27T11:20:20Z</time><name>PT4866</name></trkpt>
<trkpt lat="52.921448" lon="-3.129684"><ele>338</ele><time>2019-09-27T11:20:21Z</time><name>PT4867</name></trkpt>
<trkpt lat="52.921450" lon="-3.129701"><ele>338</ele><time>2019-09-27T11:20:22Z</time><name>PT4868</name></trkpt>
<trkpt lat="52.921452" lon="-3.129716"><ele>337</ele><time>2019-09-27T11:20:23Z</time><name>PT4869</name></trkpt>
<trkpt lat="52.921455" lon="-3.129726"><ele>337</ele><time>2019-09-27T11:20:24Z</time><name>PT4870</name></trkpt>
<trkpt lat="52.921461" lon="-3.129737"><ele>336</ele><time>2019-09-27T11:20:25Z</time><name>PT4871</name></trkpt>
<trkpt lat="52.921462" lon="-3.129758"><ele>336</ele><time>2019-09-27T11:20:26Z</time><name>PT4872</name></trkpt>
<trkpt lat="52.921466" lon="-3.129778"><ele>336</ele><time>2019-09-27T11:20:27Z</time><name>PT4873</name></trkpt>
<trkpt lat="52.921470" lon="-3.129800"><ele>336</ele><time>2019-09-27T11:20:28Z</time><name>PT4874</name></trkpt>
<trkpt lat="52.921473" lon="-3.129815"><ele>335</ele><time>2019-09-27T11:20:29Z</time><name>PT4875</name></trkpt>
<trkpt lat="52.921476" lon="-3.129832"><ele>335</ele><time>2019-09-27T11:20:30Z</time><name>PT4876</name></trkpt>
<trkpt lat="52.921480" lon="-3.129842"><ele>335</ele><time>2019-09-27T11:20:31Z</time><name>PT4877</name></trkpt>
<trkpt lat="52.921483" lon="-3.129858"><ele>335</ele><time>2019-09-27T11:20:32Z</time><name>PT4878</name></trkpt>
<trkpt lat="52.921486" lon="-3.129872"><ele>334</ele><time>2019-09-27T11:20:33Z</time><name>PT4879</name></trkpt>
<trkpt lat="52.921489" lon="-3.129889"><ele>334</ele><time>2019-09-27T11:20:34Z</time><name>PT4880</name></trkpt>
<trkpt lat="52.921489" lon="-3.129903"><ele>334</ele><time>2019-09-27T11:20:35Z</time><name>PT4881</name></trkpt>
<trkpt lat="52.921490" lon="-3.129915"><ele>333</ele><time>2019-09-27T11:20:36Z</time><name>PT4882</name></trkpt>
<trkpt lat="52.921494" lon="-3.129926"><ele>332</ele><time>2019-09-27T11:20:37Z</time><name>PT4883</name></trkpt>
<trkpt lat="52.921495" lon="-3.129948"><ele>332</ele><time>2019-09-27T11:20:38Z</time><name>PT4884</name></trkpt>
<trkpt lat="52.921497" lon="-3.129965"><ele>332</ele><time>2019-09-27T11:20:39Z</time><name>PT4885</name></trkpt>
<trkpt lat="52.921501" lon="-3.129980"><ele>332</ele><time>2019-09-27T11:20:40Z</time><name>PT4886</name></trkpt>
<trkpt lat="52.921504" lon="-3.130005"><ele>332</ele><time>2019-09-27T11:20:41Z</time><name>PT4887</name></trkpt>
<trkpt lat="52.921506" lon="-3.130033"><ele>332</ele><time>2019-09-27T11:20:42Z</time><name>PT4888</name></trkpt>
<trkpt lat="52.921506" lon="-3.130060"><ele>333</ele><time>2019-09-27T11:20:43Z</time><name>PT4889</name></trkpt>
<trkpt lat="52.921510" lon="-3.130077"><ele>333</ele><time>2019-09-27T11:20:44Z</time><name>PT4890</name></trkpt>
<trkpt lat="52.921512" lon="-3.130089"><ele>333</ele><time>2019-09-27T11:20:45Z</time><name>PT4891</name></trkpt>
<trkpt lat="52.921515" lon="-3.130107"><ele>332</ele><time>2019-09-27T11:20:46Z</time><name>PT4892</name></trkpt>
<trkpt lat="52.921518" lon="-3.130140"><ele>334</ele><time>2019-09-27T11:20:47Z</time><name>PT4893</name></trkpt>
<trkpt lat="52.921524" lon="-3.130161"><ele>334</ele><time>2019-09-27T11:20:48Z</time><name>PT4894</name></trkpt>
<trkpt lat="52.921529" lon="-3.130176"><ele>334</ele><time>2019-09-27T11:20:49Z</time><name>PT4895</name></trkpt>
<trkpt lat="52.921532" lon="-3.130193"><ele>334</ele><time>2019-09-27T11:20:50Z</time><name>PT4896</name></trkpt>
<trkpt lat="52.921533" lon="-3.130213"><ele>334</ele><time>2019-09-27T11:20:51Z</time><name>PT4897</name></trkpt>
<trkpt lat="52.921538" lon="-3.130226"><ele>334</ele><time>2019-09-27T11:20:52Z</time><name>PT4898</name></trkpt>
<trkpt lat="52.921541" lon="-3.130243"><ele>334</ele><time>2019-09-27T11:20:53Z</time><name>PT4899</name></trkpt>
<trkpt lat="52.921547" lon="-3.130252"><ele>334</ele><time>2019-09-27T11:20:54Z</time><name>PT4900</name></trkpt>
<trkpt lat="52.921551" lon="-3.130271"><ele>334</ele><time>2019-09-27T11:20:55Z</time><name>PT4901</name></trkpt>
<trkpt lat="52.921554" lon="-3.130281"><ele>334</ele><time>2019-09-27T11:20:56Z</time><name>PT4902</name></trkpt>
<trkpt lat="52.921556" lon="-3.130295"><ele>334</ele><time>2019-09-27T11:20:57Z</time><name>PT4903</name></trkpt>
<trkpt lat="52.921562" lon="-3.130306"><ele>333</ele><time>2019-09-27T11:20:58Z</time><name>PT4904</name></trkpt>
<trkpt lat="52.921567" lon="-3.130322"><ele>333</ele><time>2019-09-27T11:20:59Z</time><name>PT4905</name></trkpt>
<trkpt lat="52.921573" lon="-3.130339"><ele>333</ele><time>2019-09-27T11:21:00Z</time><name>PT4906</name></trkpt>
<trkpt lat="52.921578" lon="-3.130349"><ele>333</ele><time>2019-09-27T11:21:01Z</time><name>PT4907</name></trkpt>
<trkpt lat="52.921582" lon="-3.130361"><ele>332</ele><time>2019-09-27T11:21:02Z</time><name>PT4908</name></trkpt>
<trkpt lat="52.921586" lon="-3.130368"><ele>332</ele><time>2019-09-27T11:21:03Z</time><name>PT4909</name></trkpt>
<trkpt lat="52.921592" lon="-3.130381"><ele>332</ele><time>2019-09-27T11:21:04Z</time><name>PT4910</name></trkpt>
<trkpt lat="52.921596" lon="-3.130392"><ele>331</ele><time>2019-09-27T11:21:05Z</time><name>PT4911</name></trkpt>
<trkpt lat="52.921597" lon="-3.130402"><ele>330</ele><time>2019-09-27T11:21:06Z</time><name>PT4912</name></trkpt>
<trkpt lat="52.921599" lon="-3.130409"><ele>329</ele><time>2019-09-27T11:21:07Z</time><name>PT4913</name></trkpt>
<trkpt lat="52.921600" lon="-3.130421"><ele>330</ele><time>2019-09-27T11:21:08Z</time><name>PT4914</name></trkpt>
<trkpt lat="52.921602" lon="-3.130434"><ele>330</ele><time>2019-09-27T11:21:09Z</time><name>PT4915</name></trkpt>
<trkpt lat="52.921602" lon="-3.130445"><ele>329</ele><time>2019-09-27T11:21:10Z</time><name>PT4916</name></trkpt>
<trkpt lat="52.921604" lon="-3.130449"><ele>328</ele><time>2019-09-27T11:21:11Z</time><name>PT4917</name></trkpt>
<trkpt lat="52.921607" lon="-3.130458"><ele>328</ele><time>2019-09-27T11:21:12Z</time><name>PT4918</name></trkpt>
<trkpt lat="52.921608" lon="-3.130487"><ele>329</ele><time>2019-09-27T11:21:13Z</time><name>PT4919</name></trkpt>
<trkpt lat="52.921610" lon="-3.130506"><ele>330</ele><time>2019-09-27T11:21:14Z</time><name>PT4920</name></trkpt>
<trkpt lat="52.921618" lon="-3.130518"><ele>328</ele><time>2019-09-27T11:21:15Z</time><name>PT4921</name></trkpt>
<trkpt lat="52.921627" lon="-3.130525"><ele>328</ele><time>2019-09-27T11:21:16Z</time><name>PT4922</name></trkpt>
<trkpt lat="52.921629" lon="-3.130534"><ele>328</ele><time>2019-09-27T11:21:17Z</time><name>PT4923</name></trkpt>
<trkpt lat="52.921631" lon="-3.130547"><ele>327</ele><time>2019-09-27T11:21:18Z</time><name>PT4924</name></trkpt>
<trkpt lat="52.921635" lon="-3.130567"><ele>328</ele><time>2019-09-27T11:21:19Z</time><name>PT4925</name></trkpt>
<trkpt lat="52.921641" lon="-3.130592"><ele>328</ele><time>2019-09-27T11:21:20Z</time><name>PT4926</name></trkpt>
<trkpt lat="52.921646" lon="-3.130606"><ele>328</ele><time>2019-09-27T11:21:21Z</time><name>PT4927</name></trkpt>
<trkpt lat="52.921648" lon="-3.130637"><ele>328</ele><time>2019-09-27T11:21:22Z</time><name>PT4928</name></trkpt>
<trkpt lat="52.921651" lon="-3.130653"><ele>328</ele><time>2019-09-27T11:21:23Z</time><name>PT4929</name></trkpt>
<trkpt lat="52.921655" lon="-3.130663"><ele>327</ele><time>2019-09-27T11:21:24Z</time><name>PT4930</name></trkpt>
<trkpt lat="52.921656" lon="-3.130682"><ele>327</ele><time>2019-09-27T11:21:25Z</time><name>PT4931</name></trkpt>
<trkpt lat="52.921662" lon="-3.130697"><ele>328</ele><time>2019-09-27T11:21:26Z</time><name>PT4932</name></trkpt>
<trkpt lat="52.921664" lon="-3.130708"><ele>328</ele><time>2019-09-27T11:21:27Z</time><name>PT4933</name></trkpt>
<trkpt lat="52.921665" lon="-3.130716"><ele>327</ele><time>2019-09-27T11:21:28Z</time><name>PT4934</name></trkpt>
<trkpt lat="52.921670" lon="-3.130726"><ele>327</ele><time>2019-09-27T11:21:29Z</time><name>PT4935</name></trkpt>
<trkpt lat="52.921673" lon="-3.130743"><ele>327</ele><time>2019-09-27T11:21:30Z</time><name>PT4936</name></trkpt>
<trkpt lat="52.921690" lon="-3.130741"><ele>326</ele><time>2019-09-27T11:21:31Z</time><name>PT4937</name></trkpt>
<trkpt lat="52.921696" lon="-3.130756"><ele>325</ele><time>2019-09-27T11:21:32Z</time><name>PT4938</name></trkpt>
<trkpt lat="52.921708" lon="-3.130770"><ele>326</ele><time>2019-09-27T11:21:33Z</time><name>PT4939</name></trkpt>
<trkpt lat="52.921716" lon="-3.130770"><ele>325</ele><time>2019-09-27T11:21:34Z</time><name>PT4940</name></trkpt>
<trkpt lat="52.921718" lon="-3.130785"><ele>325</ele><time>2019-09-27T11:21:35Z</time><name>PT4941</name></trkpt>
<trkpt lat="52.921720" lon="-3.130809"><ele>324</ele><time>2019-09-27T11:21:36Z</time><name>PT4942</name></trkpt>
<trkpt lat="52.921722" lon="-3.130823"><ele>324</ele><time>2019-09-27T11:21:37Z</time><name>PT4943</name></trkpt>
<trkpt lat="52.921727" lon="-3.130833"><ele>323</ele><time>2019-09-27T11:21:38Z</time><name>PT4944</name></trkpt>
<trkpt lat="52.921730" lon="-3.130855"><ele>322</ele><time>2019-09-27T11:21:39Z</time><name>PT4945</name></trkpt>
<trkpt lat="52.921738" lon="-3.130872"><ele>322</ele><time>2019-09-27T11:21:40Z</time><name>PT4946</name></trkpt>
<trkpt lat="52.921740" lon="-3.130894"><ele>322</ele><time>2019-09-27T11:21:41Z</time><name>PT4947</name></trkpt>
<trkpt lat="52.921742" lon="-3.130922"><ele>322</ele><time>2019-09-27T11:21:42Z</time><name>PT4948</name></trkpt>
<trkpt lat="52.921747" lon="-3.130943"><ele>322</ele><time>2019-09-27T11:21:43Z</time><name>PT4949</name></trkpt>
<trkpt lat="52.921751" lon="-3.130963"><ele>321</ele><time>2019-09-27T11:21:44Z</time><name>PT4950</name></trkpt>
<trkpt lat="52.921757" lon="-3.130977"><ele>321</ele><time>2019-09-27T11:21:45Z</time><name>PT4951</name></trkpt>
<trkpt lat="52.921758" lon="-3.130997"><ele>321</ele><time>2019-09-27T11:21:46Z</time><name>PT4952</name></trkpt>
<trkpt lat="52.921762" lon="-3.131007"><ele>321</ele><time>2019-09-27T11:21:47Z</time><name>PT4953</name></trkpt>
<trkpt lat="52.921764" lon="-3.131015"><ele>320</ele><time>2019-09-27T11:21:48Z</time><name>PT4954</name></trkpt>
<trkpt lat="52.921767" lon="-3.131028"><ele>320</ele><time>2019-09-27T11:21:49Z</time><name>PT4955</name></trkpt>
<trkpt lat="52.921770" lon="-3.131055"><ele>321</ele><time>2019-09-27T11:21:50Z</time><name>PT4956</name></trkpt>
<trkpt lat="52.921777" lon="-3.131049"><ele>318</ele><time>2019-09-27T11:21:51Z</time><name>PT4957</name></trkpt>
<trkpt lat="52.921782" lon="-3.131066"><ele>318</ele><time>2019-09-27T11:21:52Z</time><name>PT4958</name></trkpt>
<trkpt lat="52.921786" lon="-3.131081"><ele>318</ele><time>2019-09-27T11:21:53Z</time><name>PT4959</name></trkpt>
<trkpt lat="52.921793" lon="-3.131050"><ele>314</ele><time>2019-09-27T11:21:54Z</time><name>PT4960</name></trkpt>
<trkpt lat="52.921799" lon="-3.131079"><ele>314</ele><time>2019-09-27T11:21:55Z</time><name>PT4961</name></trkpt>
<trkpt lat="52.921801" lon="-3.131109"><ele>315</ele><time>2019-09-27T11:21:56Z</time><name>PT4962</name></trkpt>
<trkpt lat="52.921801" lon="-3.131149"><ele>317</ele><time>2019-09-27T11:21:57Z</time><name>PT4963</name></trkpt>
<trkpt lat="52.921799" lon="-3.131211"><ele>320</ele><time>2019-09-27T11:21:58Z</time><name>PT4964</name></trkpt>
<trkpt lat="52.921805" lon="-3.131233"><ele>320</ele><time>2019-09-27T11:21:59Z</time><name>PT4965</name></trkpt>
<trkpt lat="52.921808" lon="-3.131242"><ele>319</ele><time>2019-09-27T11:22:00Z</time><name>PT4966</name></trkpt>
<trkpt lat="52.921805" lon="-3.131248"><ele>318</ele><time>2019-09-27T11:22:01Z</time><name>PT4967</name></trkpt>
<trkpt lat="52.921805" lon="-3.131273"><ele>318</ele><time>2019-09-27T11:22:02Z</time><name>PT4968</name></trkpt>
<trkpt lat="52.921799" lon="-3.131358"><ele>322</ele><time>2019-09-27T11:22:03Z</time><name>PT4969</name></trkpt>
<trkpt lat="52.921805" lon="-3.131374"><ele>322</ele><time>2019-09-27T11:22:04Z</time><name>PT4970</name></trkpt>
<trkpt lat="52.921812" lon="-3.131381"><ele>321</ele><time>2019-09-27T11:22:05Z</time><name>PT4971</name></trkpt>
<trkpt lat="52.921816" lon="-3.131405"><ele>322</ele><time>2019-09-27T11:22:06Z</time><name>PT4972</name></trkpt>
<trkpt lat="52.921822" lon="-3.131424"><ele>322</ele><time>2019-09-27T11:22:07Z</time><name>PT4973</name></trkpt>
<trkpt lat="52.921824" lon="-3.131457"><ele>323</ele><time>2019-09-27T11:22:08Z</time><name>PT4974</name></trkpt>
<trkpt lat="52.921828" lon="-3.131483"><ele>324</ele><time>2019-09-27T11:22:09Z</time><name>PT4975</name></trkpt>
<trkpt lat="52.921828" lon="-3.131512"><ele>324</ele><time>2019-09-27T11:22:10Z</time><name>PT4976</name></trkpt>
<trkpt lat="52.921831" lon="-3.131526"><ele>324</ele><time>2019-09-27T11:22:11Z</time><name>PT4977</name></trkpt>
<trkpt lat="52.921837" lon="-3.131544"><ele>323</ele><time>2019-09-27T11:22:12Z</time><name>PT4978</name></trkpt>
<trkpt lat="52.921839" lon="-3.131566"><ele>324</ele><time>2019-09-27T11:22:13Z</time><name>PT4979</name></trkpt>
<trkpt lat="52.921841" lon="-3.131587"><ele>324</ele><time>2019-09-27T11:22:14Z</time><name>PT4980</name></trkpt>
<trkpt lat="52.921843" lon="-3.131592"><ele>322</ele><time>2019-09-27T11:22:15Z</time><name>PT4981</name></trkpt>
<trkpt lat="52.921847" lon="-3.131595"><ele>321</ele><time>2019-09-27T11:22:16Z</time><name>PT4982</name></trkpt>
<trkpt lat="52.921849" lon="-3.131602"><ele>320</ele><time>2019-09-27T11:22:17Z</time><name>PT4983</name></trkpt>
<trkpt lat="52.921855" lon="-3.131620"><ele>320</ele><time>2019-09-27T11:22:18Z</time><name>PT4984</name></trkpt>
<trkpt lat="52.921856" lon="-3.131637"><ele>319</ele><time>2019-09-27T11:22:19Z</time><name>PT4985</name></trkpt>
<trkpt lat="52.921859" lon="-3.131654"><ele>319</ele><time>2019-09-27T11:22:20Z</time><name>PT4986</name></trkpt>
<trkpt lat="52.921864" lon="-3.131668"><ele>318</ele><time>2019-09-27T11:22:21Z</time><name>PT4987</name></trkpt>
<trkpt lat="52.921871" lon="-3.131683"><ele>318</ele><time>2019-09-27T11:22:22Z</time><name>PT4988</name></trkpt>
<trkpt lat="52.921876" lon="-3.131697"><ele>317</ele><time>2019-09-27T11:22:23Z</time><name>PT4989</name></trkpt>
<trkpt lat="52.921882" lon="-3.131712"><ele>317</ele><time>2019-09-27T11:22:24Z</time><name>PT4990</name></trkpt>
<trkpt lat="52.921892" lon="-3.131721"><ele>317</ele><time>2019-09-27T11:22:25Z</time><name>PT4991</name></trkpt>
<trkpt lat="52.921898" lon="-3.131738"><ele>316</ele><time>2019-09-27T11:22:26Z</time><name>PT4992</name></trkpt>
<trkpt lat="52.921903" lon="-3.131741"><ele>315</ele><time>2019-09-27T11:22:27Z</time><name>PT4993</name></trkpt>
<trkpt lat="52.921910" lon="-3.131754"><ele>315</ele><time>2019-09-27T11:22:28Z</time><name>PT4994</name></trkpt>
<trkpt lat="52.921921" lon="-3.131763"><ele>314</ele><time>2019-09-27T11:22:29Z</time><name>PT4995</name></trkpt>
<trkpt lat="52.921928" lon="-3.131767"><ele>313</ele><time>2019-09-27T11:22:30Z</time><name>PT4996</name></trkpt>
<trkpt lat="52.921933" lon="-3.131791"><ele>314</ele><time>2019-09-27T11:22:31Z</time><name>PT4997</name></trkpt>
<trkpt lat="52.921940" lon="-3.131805"><ele>314</ele><time>2019-09-27T11:22:32Z</time><name>PT4998</name></trkpt>
<trkpt lat="52.921944" lon="-3.131818"><ele>313</ele><time>2019-09-27T11:22:33Z</time><name>PT4999</name></trkpt>
<trkpt lat="52.921947" lon="-3.131831"><ele>312</ele><time>2019-09-27T11:22:34Z</time><name>PT5000</name></trkpt>
<trkpt lat="52.921942" lon="-3.131886"><ele>315</ele><time>2019-09-27T11:22:35Z</time><name>PT5001</name></trkpt>
<trkpt lat="52.921947" lon="-3.131906"><ele>317</ele><time>2019-09-27T11:22:36Z</time><name>PT5002</name></trkpt>
<trkpt lat="52.921953" lon="-3.131914"><ele>316</ele><time>2019-09-27T11:22:37Z</time><name>PT5003</name></trkpt>
<trkpt lat="52.921958" lon="-3.131927"><ele>316</ele><time>2019-09-27T11:22:38Z</time><name>PT5004</name></trkpt>
<trkpt lat="52.921963" lon="-3.131933"><ele>316</ele><time>2019-09-27T11:22:39Z</time><name>PT5005</name></trkpt>
<trkpt lat="52.921964" lon="-3.131949"><ele>316</ele><time>2019-09-27T11:22:40Z</time><name>PT5006</name></trkpt>
<trkpt lat="52.921967" lon="-3.131955"><ele>316</ele><time>2019-09-27T11:22:41Z</time><name>PT5007</name></trkpt>
<trkpt lat="52.921968" lon="-3.131981"><ele>317</ele><time>2019-09-27T11:22:42Z</time><name>PT5008</name></trkpt>
<trkpt lat="52.921974" lon="-3.131985"><ele>316</ele><time>2019-09-27T11:22:43Z</time><name>PT5009</name></trkpt>
<trkpt lat="52.921972" lon="-3.132013"><ele>317</ele><time>2019-09-27T11:22:44Z</time><name>PT5010</name></trkpt>
<trkpt lat="52.921978" lon="-3.132018"><ele>317</ele><time>2019-09-27T11:22:45Z</time><name>PT5011</name></trkpt>
<trkpt lat="52.921977" lon="-3.132027"><ele>316</ele><time>2019-09-27T11:22:46Z</time><name>PT5012</name></trkpt>
<trkpt lat="52.921982" lon="-3.132054"><ele>317</ele><time>2019-09-27T11:22:47Z</time><name>PT5013</name></trkpt>
<trkpt lat="52.921970" lon="-3.132122"><ele>322</ele><time>2019-09-27T11:22:48Z</time><name>PT5014</name></trkpt>
<trkpt lat="52.921974" lon="-3.132128"><ele>321</ele><time>2019-09-27T11:22:49Z</time><name>PT5015</name></trkpt>
<trkpt lat="52.921977" lon="-3.132144"><ele>322</ele><time>2019-09-27T11:22:50Z</time><name>PT5016</name></trkpt>
<trkpt lat="52.921978" lon="-3.132155"><ele>322</ele><time>2019-09-27T11:22:51Z</time><name>PT5017</name></trkpt>
<trkpt lat="52.921979" lon="-3.132198"><ele>324</ele><time>2019-09-27T11:22:52Z</time><name>PT5018</name></trkpt>
<trkpt lat="52.921980" lon="-3.132218"><ele>324</ele><time>2019-09-27T11:22:53Z</time><name>PT5019</name></trkpt>
<trkpt lat="52.921986" lon="-3.132229"><ele>324</ele><time>2019-09-27T11:22:54Z</time><name>PT5020</name></trkpt>
<trkpt lat="52.921988" lon="-3.132246"><ele>324</ele><time>2019-09-27T11:22:55Z</time><name>PT5021</name></trkpt>
<trkpt lat="52.921991" lon="-3.132266"><ele>325</ele><time>2019-09-27T11:22:56Z</time><name>PT5022</name></trkpt>
<trkpt lat="52.921989" lon="-3.132290"><ele>326</ele><time>2019-09-27T11:22:57Z</time><name>PT5023</name></trkpt>
<trkpt lat="52.921990" lon="-3.132311"><ele>326</ele><time>2019-09-27T11:22:58Z</time><name>PT5024</name></trkpt>
<trkpt lat="52.921991" lon="-3.132337"><ele>327</ele><time>2019-09-27T11:22:59Z</time><name>PT5025</name></trkpt>
<trkpt lat="52.921993" lon="-3.132361"><ele>328</ele><time>2019-09-27T11:23:00Z</time><name>PT5026</name></trkpt>
<trkpt lat="52.921993" lon="-3.132382"><ele>328</ele><time>2019-09-27T11:23:01Z</time><name>PT5027</name></trkpt>
<trkpt lat="52.921994" lon="-3.132398"><ele>328</ele><time>2019-09-27T11:23:02Z</time><name>PT5028</name></trkpt>
<trkpt lat="52.921998" lon="-3.132408"><ele>328</ele><time>2019-09-27T11:23:03Z</time><name>PT5029</name></trkpt>
<trkpt lat="52.922002" lon="-3.132422"><ele>329</ele><time>2019-09-27T11:23:04Z</time><name>PT5030</name></trkpt>
<trkpt lat="52.922006" lon="-3.132437"><ele>329</ele><time>2019-09-27T11:23:05Z</time><name>PT5031</name></trkpt>
<trkpt lat="52.922024" lon="-3.132447"><ele>328</ele><time>2019-09-27T11:23:10Z</time><name>PT5032</name></trkpt>
<trkpt lat="52.922037" lon="-3.132476"><ele>328</ele><time>2019-09-27T11:23:11Z</time><name>PT5033</name></trkpt>
<trkpt lat="52.922043" lon="-3.132486"><ele>328</ele><time>2019-09-27T11:23:12Z</time><name>PT5034</name></trkpt>
<trkpt lat="52.922045" lon="-3.132498"><ele>328</ele><time>2019-09-27T11:23:13Z</time><name>PT5035</name></trkpt>
<trkpt lat="52.922051" lon="-3.132508"><ele>328</ele><time>2019-09-27T11:23:14Z</time><name>PT5036</name></trkpt>
<trkpt lat="52.922053" lon="-3.132523"><ele>328</ele><time>2019-09-27T11:23:15Z</time><name>PT5037</name></trkpt>
<trkpt lat="52.922056" lon="-3.132528"><ele>327</ele><time>2019-09-27T11:23:16Z</time><name>PT5038</name></trkpt>
<trkpt lat="52.922057" lon="-3.132541"><ele>327</ele><time>2019-09-27T11:23:17Z</time><name>PT5039</name></trkpt>
<trkpt lat="52.922062" lon="-3.132550"><ele>326</ele><time>2019-09-27T11:23:18Z</time><name>PT5040</name></trkpt>
<trkpt lat="52.922067" lon="-3.132558"><ele>326</ele><time>2019-09-27T11:23:19Z</time><name>PT5041</name></trkpt>
<trkpt lat="52.922072" lon="-3.132570"><ele>326</ele><time>2019-09-27T11:23:20Z</time><name>PT5042</name></trkpt>
<trkpt lat="52.922079" lon="-3.132578"><ele>326</ele><time>2019-09-27T11:23:21Z</time><name>PT5043</name></trkpt>
<trkpt lat="52.922084" lon="-3.132587"><ele>326</ele><time>2019-09-27T11:23:22Z</time><name>PT5044</name></trkpt>
<trkpt lat="52.922089" lon="-3.132598"><ele>325</ele><time>2019-09-27T11:23:23Z</time><name>PT5045</name></trkpt>
<trkpt lat="52.922093" lon="-3.132610"><ele>325</ele><time>2019-09-27T11:23:24Z</time><name>PT5046</name></trkpt>
<trkpt lat="52.922096" lon="-3.132625"><ele>326</ele><time>2019-09-27T11:23:25Z</time><name>PT5047</name></trkpt>
<trkpt lat="52.922102" lon="-3.132633"><ele>325</ele><time>2019-09-27T11:23:26Z</time><name>PT5048</name></trkpt>
<trkpt lat="52.922106" lon="-3.132645"><ele>325</ele><time>2019-09-27T11:23:27Z</time><name>PT5049</name></trkpt>
<trkpt lat="52.922111" lon="-3.132660"><ele>325</ele><time>2019-09-27T11:23:28Z</time><name>PT5050</name></trkpt>
<trkpt lat="52.922117" lon="-3.132677"><ele>325</ele><time>2019-09-27T11:23:29Z</time><name>PT5051</name></trkpt>
<trkpt lat="52.922120" lon="-3.132688"><ele>324</ele><time>2019-09-27T11:23:30Z</time><name>PT5052</name></trkpt>
<trkpt lat="52.922127" lon="-3.132693"><ele>323</ele><time>2019-09-27T11:23:31Z</time><name>PT5053</name></trkpt>
<trkpt lat="52.922136" lon="-3.132699"><ele>323</ele><time>2019-09-27T11:23:32Z</time><name>PT5054</name></trkpt>
<trkpt lat="52.922142" lon="-3.132701"><ele>322</ele><time>2019-09-27T11:23:33Z</time><name>PT5055</name></trkpt>
<trkpt lat="52.922145" lon="-3.132714"><ele>322</ele><time>2019-09-27T11:23:34Z</time><name>PT5056</name></trkpt>
<trkpt lat="52.922149" lon="-3.132720"><ele>322</ele><time>2019-09-27T11:23:35Z</time><name>PT5057</name></trkpt>
<trkpt lat="52.922156" lon="-3.132729"><ele>322</ele><time>2019-09-27T11:23:36Z</time><name>PT5058</name></trkpt>
<trkpt lat="52.922158" lon="-3.132739"><ele>322</ele><time>2019-09-27T11:23:37Z</time><name>PT5059</name></trkpt>
<trkpt lat="52.922161" lon="-3.132743"><ele>321</ele><time>2019-09-27T11:23:38Z</time><name>PT5060</name></trkpt>
<trkpt lat="52.922167" lon="-3.132754"><ele>321</ele><time>2019-09-27T11:23:39Z</time><name>PT5061</name></trkpt>
<trkpt lat="52.922174" lon="-3.132758"><ele>320</ele><time>2019-09-27T11:23:40Z</time><name>PT5062</name></trkpt>
<trkpt lat="52.922180" lon="-3.132762"><ele>319</ele><time>2019-09-27T11:23:41Z</time><name>PT5063</name></trkpt>
<trkpt lat="52.922187" lon="-3.132772"><ele>319</ele><time>2019-09-27T11:23:42Z</time><name>PT5064</name></trkpt>
<trkpt lat="52.922192" lon="-3.132782"><ele>318</ele><time>2019-09-27T11:23:43Z</time><name>PT5065</name></trkpt>
<trkpt lat="52.922197" lon="-3.132791"><ele>319</ele><time>2019-09-27T11:23:44Z</time><name>PT5066</name></trkpt>
<trkpt lat="52.922201" lon="-3.132805"><ele>318</ele><time>2019-09-27T11:23:45Z</time><name>PT5067</name></trkpt>
<trkpt lat="52.922205" lon="-3.132814"><ele>317</ele><time>2019-09-27T11:23:46Z</time><name>PT5068</name></trkpt>
<trkpt lat="52.922211" lon="-3.132818"><ele>317</ele><time>2019-09-27T11:23:47Z</time><name>PT5069</name></trkpt>
<trkpt lat="52.922213" lon="-3.132844"><ele>318</ele><time>2019-09-27T11:23:48Z</time><name>PT5070</name></trkpt>
<trkpt lat="52.922220" lon="-3.132852"><ele>317</ele><time>2019-09-27T11:23:49Z</time><name>PT5071</name></trkpt>
<trkpt lat="52.922226" lon="-3.132858"><ele>316</ele><time>2019-09-27T11:23:50Z</time><name>PT5072</name></trkpt>
<trkpt lat="52.922231" lon="-3.132868"><ele>316</ele><time>2019-09-27T11:23:51Z</time><name>PT5073</name></trkpt>
<trkpt lat="52.922238" lon="-3.132874"><ele>315</ele><time>2019-09-27T11:23:52Z</time><name>PT5074</name></trkpt>
<trkpt lat="52.922245" lon="-3.132893"><ele>315</ele><time>2019-09-27T11:23:53Z</time><name>PT5075</name></trkpt>
<trkpt lat="52.922244" lon="-3.132934"><ele>317</ele><time>2019-09-27T11:23:54Z</time><name>PT5076</name></trkpt>
<trkpt lat="52.922245" lon="-3.132957"><ele>318</ele><time>2019-09-27T11:23:55Z</time><name>PT5077</name></trkpt>
<trkpt lat="52.922250" lon="-3.132972"><ele>318</ele><time>2019-09-27T11:23:56Z</time><name>PT5078</name></trkpt>
<trkpt lat="52.922255" lon="-3.132980"><ele>317</ele><time>2019-09-27T11:23:57Z</time><name>PT5079</name></trkpt>
<trkpt lat="52.922257" lon="-3.133012"><ele>318</ele><time>2019-09-27T11:23:58Z</time><name>PT5080</name></trkpt>
<trkpt lat="52.922258" lon="-3.133038"><ele>319</ele><time>2019-09-27T11:23:59Z</time><name>PT5081</name></trkpt>
<trkpt lat="52.922262" lon="-3.133062"><ele>319</ele><time>2019-09-27T11:24:00Z</time><name>PT5082</name></trkpt>
<trkpt lat="52.922269" lon="-3.133076"><ele>319</ele><time>2019-09-27T11:24:01Z</time><name>PT5083</name></trkpt>
<trkpt lat="52.922271" lon="-3.133096"><ele>319</ele><time>2019-09-27T11:24:02Z</time><name>PT5084</name></trkpt>
<trkpt lat="52.922274" lon="-3.133115"><ele>319</ele><time>2019-09-27T11:24:03Z</time><name>PT5085</name></trkpt>
<trkpt lat="52.922281" lon="-3.133130"><ele>319</ele><time>2019-09-27T11:24:04Z</time><name>PT5086</name></trkpt>
<trkpt lat="52.922288" lon="-3.133156"><ele>320</ele><time>2019-09-27T11:24:05Z</time><name>PT5087</name></trkpt>
<trkpt lat="52.922294" lon="-3.133178"><ele>321</ele><time>2019-09-27T11:24:06Z</time><name>PT5088</name></trkpt>
<trkpt lat="52.922295" lon="-3.133215"><ele>322</ele><time>2019-09-27T11:24:07Z</time><name>PT5089</name></trkpt>
<trkpt lat="52.922299" lon="-3.133238"><ele>323</ele><time>2019-09-27T11:24:08Z</time><name>PT5090</name></trkpt>
<trkpt lat="52.922302" lon="-3.133253"><ele>322</ele><time>2019-09-27T11:24:09Z</time><name>PT5091</name></trkpt>
<trkpt lat="52.922305" lon="-3.133273"><ele>323</ele><time>2019-09-27T11:24:10Z</time><name>PT5092</name></trkpt>
<trkpt lat="52.922310" lon="-3.133292"><ele>323</ele><time>2019-09-27T11:24:11Z</time><name>PT5093</name></trkpt>
<trkpt lat="52.922318" lon="-3.133308"><ele>322</ele><time>2019-09-27T11:24:12Z</time><name>PT5094</name></trkpt>
<trkpt lat="52.922321" lon="-3.133326"><ele>322</ele><time>2019-09-27T11:24:13Z</time><name>PT5095</name></trkpt>
<trkpt lat="52.922318" lon="-3.133340"><ele>321</ele><time>2019-09-27T11:24:14Z</time><name>PT5096</name></trkpt>
<trkpt lat="52.922319" lon="-3.133360"><ele>322</ele><time>2019-09-27T11:24:15Z</time><name>PT5097</name></trkpt>
<trkpt lat="52.922321" lon="-3.133377"><ele>322</ele><time>2019-09-27T11:24:16Z</time><name>PT5098</name></trkpt>
<trkpt lat="52.922320" lon="-3.133395"><ele>321</ele><time>2019-09-27T11:24:17Z</time><name>PT5099</name></trkpt>
<trkpt lat="52.922321" lon="-3.133418"><ele>321</ele><time>2019-09-27T11:24:18Z</time><name>PT5100</name></trkpt>
<trkpt lat="52.922323" lon="-3.133437"><ele>322</ele><time>2019-09-27T11:24:19Z</time><name>PT5101</name></trkpt>
<trkpt lat="52.922326" lon="-3.133452"><ele>321</ele><time>2019-09-27T11:24:20Z</time><name>PT5102</name></trkpt>
<trkpt lat="52.922327" lon="-3.133471"><ele>321</ele><time>2019-09-27T11:24:21Z</time><name>PT5103</name></trkpt>
<trkpt lat="52.922328" lon="-3.133487"><ele>321</ele><time>2019-09-27T11:24:22Z</time><name>PT5104</name></trkpt>
<trkpt lat="52.922330" lon="-3.133503"><ele>322</ele><time>2019-09-27T11:24:23Z</time><name>PT5105</name></trkpt>
<trkpt lat="52.922333" lon="-3.133525"><ele>322</ele><time>2019-09-27T11:24:24Z</time><name>PT5106</name></trkpt>
<trkpt lat="52.922335" lon="-3.133543"><ele>321</ele><time>2019-09-27T11:24:25Z</time><name>PT5107</name></trkpt>
<trkpt lat="52.922342" lon="-3.133559"><ele>322</ele><time>2019-09-27T11:24:26Z</time><name>PT5108</name></trkpt>
<trkpt lat="52.922345" lon="-3.133577"><ele>322</ele><time>2019-09-27T11:24:27Z</time><name>PT5109</name></trkpt>
<trkpt lat="52.922350" lon="-3.133595"><ele>322</ele><time>2019-09-27T11:24:28Z</time><name>PT5110</name></trkpt>
<trkpt lat="52.922358" lon="-3.133607"><ele>322</ele><time>2019-09-27T11:24:29Z</time><name>PT5111</name></trkpt>
<trkpt lat="52.922367" lon="-3.133625"><ele>322</ele><time>2019-09-27T11:24:30Z</time><name>PT5112</name></trkpt>
<trkpt lat="52.922372" lon="-3.133638"><ele>321</ele><time>2019-09-27T11:24:31Z</time><name>PT5113</name></trkpt>
<trkpt lat="52.922377" lon="-3.133647"><ele>322</ele><time>2019-09-27T11:24:32Z</time><name>PT5114</name></trkpt>
<trkpt lat="52.922380" lon="-3.133658"><ele>321</ele><time>2019-09-27T11:24:33Z</time><name>PT5115</name></trkpt>
<trkpt lat="52.922376" lon="-3.133677"><ele>321</ele><time>2019-09-27T11:24:34Z</time><name>PT5116</name></trkpt>
<trkpt lat="52.922382" lon="-3.133688"><ele>320</ele><time>2019-09-27T11:24:35Z</time><name>PT5117</name></trkpt>
<trkpt lat="52.922386" lon="-3.133708"><ele>320</ele><time>2019-09-27T11:24:36Z</time><name>PT5118</name></trkpt>
<trkpt lat="52.922393" lon="-3.133722"><ele>320</ele><time>2019-09-27T11:24:37Z</time><name>PT5119</name></trkpt>
<trkpt lat="52.922396" lon="-3.133737"><ele>319</ele><time>2019-09-27T11:24:38Z</time><name>PT5120</name></trkpt>
<trkpt lat="52.922398" lon="-3.133749"><ele>320</ele><time>2019-09-27T11:24:39Z</time><name>PT5121</name></trkpt>
<trkpt lat="52.922401" lon="-3.133760"><ele>319</ele><time>2019-09-27T11:24:40Z</time><name>PT5122</name></trkpt>
<trkpt lat="52.922406" lon="-3.133769"><ele>319</ele><time>2019-09-27T11:24:41Z</time><name>PT5123</name></trkpt>
<trkpt lat="52.922416" lon="-3.133774"><ele>317</ele><time>2019-09-27T11:24:42Z</time><name>PT5124</name></trkpt>
<trkpt lat="52.922423" lon="-3.133783"><ele>316</ele><time>2019-09-27T11:24:43Z</time><name>PT5125</name></trkpt>
<trkpt lat="52.922434" lon="-3.133789"><ele>314</ele><time>2019-09-27T11:24:44Z</time><name>PT5126</name></trkpt>
<trkpt lat="52.922446" lon="-3.133800"><ele>313</ele><time>2019-09-27T11:24:45Z</time><name>PT5127</name></trkpt>
<trkpt lat="52.922455" lon="-3.133807"><ele>311</ele><time>2019-09-27T11:24:46Z</time><name>PT5128</name></trkpt>
<trkpt lat="52.922464" lon="-3.133815"><ele>310</ele><time>2019-09-27T11:24:47Z</time><name>PT5129</name></trkpt>
<trkpt lat="52.922469" lon="-3.133821"><ele>309</ele><time>2019-09-27T11:24:48Z</time><name>PT5130</name></trkpt>
<trkpt lat="52.922469" lon="-3.133838"><ele>307</ele><time>2019-09-27T11:24:49Z</time><name>PT5131</name></trkpt>
<trkpt lat="52.922465" lon="-3.133854"><ele>307</ele><time>2019-09-27T11:24:50Z</time><name>PT5132</name></trkpt>
<trkpt lat="52.922466" lon="-3.133867"><ele>306</ele><time>2019-09-27T11:24:51Z</time><name>PT5133</name></trkpt>
<trkpt lat="52.922468" lon="-3.133886"><ele>305</ele><time>2019-09-27T11:24:52Z</time><name>PT5134</name></trkpt>
<trkpt lat="52.922473" lon="-3.133899"><ele>304</ele><time>2019-09-27T11:24:53Z</time><name>PT5135</name></trkpt>
<trkpt lat="52.922471" lon="-3.133925"><ele>306</ele><time>2019-09-27T11:24:54Z</time><name>PT5136</name></trkpt>
<trkpt lat="52.922475" lon="-3.133928"><ele>305</ele><time>2019-09-27T11:24:55Z</time><name>PT5137</name></trkpt>
<trkpt lat="52.922482" lon="-3.133928"><ele>304</ele><time>2019-09-27T11:24:56Z</time><name>PT5138</name></trkpt>
<trkpt lat="52.922490" lon="-3.133934"><ele>303</ele><time>2019-09-27T11:24:57Z</time><name>PT5139</name></trkpt>
<trkpt lat="52.922496" lon="-3.133938"><ele>302</ele><time>2019-09-27T11:24:58Z</time><name>PT5140</name></trkpt>
<trkpt lat="52.922501" lon="-3.133952"><ele>301</ele><time>2019-09-27T11:24:59Z</time><name>PT5141</name></trkpt>
<trkpt lat="52.922498" lon="-3.133991"><ele>302</ele><time>2019-09-27T11:25:00Z</time><name>PT5142</name></trkpt>
<trkpt lat="52.922499" lon="-3.134006"><ele>302</ele><time>2019-09-27T11:25:01Z</time><name>PT5143</name></trkpt>
<trkpt lat="52.922506" lon="-3.134015"><ele>301</ele><time>2019-09-27T11:25:02Z</time><name>PT5144</name></trkpt>
<trkpt lat="52.922508" lon="-3.134035"><ele>301</ele><time>2019-09-27T11:25:03Z</time><name>PT5145</name></trkpt>
<trkpt lat="52.922511" lon="-3.134048"><ele>301</ele><time>2019-09-27T11:25:04Z</time><name>PT5146</name></trkpt>
<trkpt lat="52.922515" lon="-3.134068"><ele>301</ele><time>2019-09-27T11:25:05Z</time><name>PT5147</name></trkpt>
<trkpt lat="52.922515" lon="-3.134093"><ele>301</ele><time>2019-09-27T11:25:06Z</time><name>PT5148</name></trkpt>
<trkpt lat="52.922520" lon="-3.134101"><ele>300</ele><time>2019-09-27T11:25:07Z</time><name>PT5149</name></trkpt>
<trkpt lat="52.922533" lon="-3.134104"><ele>299</ele><time>2019-09-27T11:25:08Z</time><name>PT5150</name></trkpt>
<trkpt lat="52.922538" lon="-3.134130"><ele>300</ele><time>2019-09-27T11:25:09Z</time><name>PT5151</name></trkpt>
<trkpt lat="52.922544" lon="-3.134159"><ele>301</ele><time>2019-09-27T11:25:10Z</time><name>PT5152</name></trkpt>
<trkpt lat="52.922545" lon="-3.134175"><ele>300</ele><time>2019-09-27T11:25:11Z</time><name>PT5153</name></trkpt>
<trkpt lat="52.922544" lon="-3.134215"><ele>302</ele><time>2019-09-27T11:25:12Z</time><name>PT5154</name></trkpt>
<trkpt lat="52.922543" lon="-3.134241"><ele>302</ele><time>2019-09-27T11:25:13Z</time><name>PT5155</name></trkpt>
<trkpt lat="52.922542" lon="-3.134285"><ele>303</ele><time>2019-09-27T11:25:14Z</time><name>PT5156</name></trkpt>
<trkpt lat="52.922540" lon="-3.134301"><ele>303</ele><time>2019-09-27T11:25:15Z</time><name>PT5157</name></trkpt>
<trkpt lat="52.922553" lon="-3.134291"><ele>298</ele><time>2019-09-27T11:25:16Z</time><name>PT5158</name></trkpt>
<trkpt lat="52.922557" lon="-3.134323"><ele>299</ele><time>2019-09-27T11:25:17Z</time><name>PT5159</name></trkpt>
<trkpt lat="52.922559" lon="-3.134343"><ele>300</ele><time>2019-09-27T11:25:18Z</time><name>PT5160</name></trkpt>
<trkpt lat="52.922565" lon="-3.134364"><ele>300</ele><time>2019-09-27T11:25:19Z</time><name>PT5161</name></trkpt>
<trkpt lat="52.922570" lon="-3.134370"><ele>299</ele><time>2019-09-27T11:25:20Z</time><name>PT5162</name></trkpt>
<trkpt lat="52.922574" lon="-3.134365"><ele>298</ele><time>2019-09-27T11:25:21Z</time><name>PT5163</name></trkpt>
<trkpt lat="52.922577" lon="-3.134398"><ele>299</ele><time>2019-09-27T11:25:22Z</time><name>PT5164</name></trkpt>
<trkpt lat="52.922577" lon="-3.134424"><ele>300</ele><time>2019-09-27T11:25:23Z</time><name>PT5165</name></trkpt>
<trkpt lat="52.922578" lon="-3.134456"><ele>301</ele><time>2019-09-27T11:25:24Z</time><name>PT5166</name></trkpt>
<trkpt lat="52.922580" lon="-3.134473"><ele>300</ele><time>2019-09-27T11:25:25Z</time><name>PT5167</name></trkpt>
<trkpt lat="52.922583" lon="-3.134481"><ele>299</ele><time>2019-09-27T11:25:26Z</time><name>PT5168</name></trkpt>
<trkpt lat="52.922589" lon="-3.134482"><ele>298</ele><time>2019-09-27T11:25:27Z</time><name>PT5169</name></trkpt>
<trkpt lat="52.922600" lon="-3.134506"><ele>298</ele><time>2019-09-27T11:25:28Z</time><name>PT5170</name></trkpt>
<trkpt lat="52.922612" lon="-3.134469"><ele>292</ele><time>2019-09-27T11:25:29Z</time><name>PT5171</name></trkpt>
<trkpt lat="52.922621" lon="-3.134483"><ele>292</ele><time>2019-09-27T11:25:30Z</time><name>PT5172</name></trkpt>
<trkpt lat="52.922622" lon="-3.134518"><ele>293</ele><time>2019-09-27T11:25:31Z</time><name>PT5173</name></trkpt>
<trkpt lat="52.922629" lon="-3.134532"><ele>293</ele><time>2019-09-27T11:25:32Z</time><name>PT5174</name></trkpt>
<trkpt lat="52.922628" lon="-3.134584"><ele>295</ele><time>2019-09-27T11:25:33Z</time><name>PT5175</name></trkpt>
<trkpt lat="52.922630" lon="-3.134625"><ele>297</ele><time>2019-09-27T11:25:34Z</time><name>PT5176</name></trkpt>
<trkpt lat="52.922633" lon="-3.134649"><ele>297</ele><time>2019-09-27T11:25:35Z</time><name>PT5177</name></trkpt>
<trkpt lat="52.922640" lon="-3.134665"><ele>298</ele><time>2019-09-27T11:25:36Z</time><name>PT5178</name></trkpt>
<trkpt lat="52.922641" lon="-3.134704"><ele>300</ele><time>2019-09-27T11:25:37Z</time><name>PT5179</name></trkpt>
<trkpt lat="52.922645" lon="-3.134727"><ele>300</ele><time>2019-09-27T11:25:38Z</time><name>PT5180</name></trkpt>
<trkpt lat="52.922650" lon="-3.134735"><ele>299</ele><time>2019-09-27T11:25:39Z</time><name>PT5181</name></trkpt>
<trkpt lat="52.922655" lon="-3.134755"><ele>300</ele><time>2019-09-27T11:25:40Z</time><name>PT5182</name></trkpt>
<trkpt lat="52.922659" lon="-3.134777"><ele>300</ele><time>2019-09-27T11:25:41Z</time><name>PT5183</name></trkpt>
<trkpt lat="52.922651" lon="-3.134820"><ele>302</ele><time>2019-09-27T11:25:42Z</time><name>PT5184</name></trkpt>
<trkpt lat="52.922655" lon="-3.134834"><ele>302</ele><time>2019-09-27T11:25:43Z</time><name>PT5185</name></trkpt>
<trkpt lat="52.922668" lon="-3.134853"><ele>303</ele><time>2019-09-27T11:25:44Z</time><name>PT5186</name></trkpt>
<trkpt lat="52.922677" lon="-3.134873"><ele>304</ele><time>2019-09-27T11:25:45Z</time><name>PT5187</name></trkpt>
<trkpt lat="52.922678" lon="-3.134891"><ele>304</ele><time>2019-09-27T11:25:46Z</time><name>PT5188</name></trkpt>
<trkpt lat="52.922685" lon="-3.134915"><ele>305</ele><time>2019-09-27T11:25:47Z</time><name>PT5189</name></trkpt>
<trkpt lat="52.922695" lon="-3.134934"><ele>306</ele><time>2019-09-27T11:25:48Z</time><name>PT5190</name></trkpt>
<trkpt lat="52.922697" lon="-3.134962"><ele>307</ele><time>2019-09-27T11:25:49Z</time><name>PT5191</name></trkpt>
<trkpt lat="52.922703" lon="-3.134974"><ele>307</ele><time>2019-09-27T11:25:50Z</time><name>PT5192</name></trkpt>
<trkpt lat="52.922705" lon="-3.134997"><ele>308</ele><time>2019-09-27T11:25:51Z</time><name>PT5193</name></trkpt>
<trkpt lat="52.922710" lon="-3.135015"><ele>308</ele><time>2019-09-27T11:25:52Z</time><name>PT5194</name></trkpt>
<trkpt lat="52.922714" lon="-3.135024"><ele>308</ele><time>2019-09-27T11:25:53Z</time><name>PT5195</name></trkpt>
<trkpt lat="52.922719" lon="-3.135033"><ele>307</ele><time>2019-09-27T11:25:54Z</time><name>PT5196</name></trkpt>
<trkpt lat="52.922724" lon="-3.135049"><ele>308</ele><time>2019-09-27T11:25:55Z</time><name>PT5197</name></trkpt>
<trkpt lat="52.922730" lon="-3.135062"><ele>307</ele><time>2019-09-27T11:25:56Z</time><name>PT5198</name></trkpt>
<trkpt lat="52.922738" lon="-3.135071"><ele>306</ele><time>2019-09-27T11:25:57Z</time><name>PT5199</name></trkpt>
<trkpt lat="52.922743" lon="-3.135093"><ele>307</ele><time>2019-09-27T11:25:58Z</time><name>PT5200</name></trkpt>
<trkpt lat="52.922743" lon="-3.135105"><ele>307</ele><time>2019-09-27T11:25:59Z</time><name>PT5201</name></trkpt>
<trkpt lat="52.922746" lon="-3.135119"><ele>307</ele><time>2019-09-27T11:26:00Z</time><name>PT5202</name></trkpt>
<trkpt lat="52.922751" lon="-3.135143"><ele>307</ele><time>2019-09-27T11:26:01Z</time><name>PT5203</name></trkpt>
<trkpt lat="52.922759" lon="-3.135156"><ele>307</ele><time>2019-09-27T11:26:02Z</time><name>PT5204</name></trkpt>
<trkpt lat="52.922761" lon="-3.135172"><ele>307</ele><time>2019-09-27T11:26:03Z</time><name>PT5205</name></trkpt>
<trkpt lat="52.922765" lon="-3.135189"><ele>307</ele><time>2019-09-27T11:26:04Z</time><name>PT5206</name></trkpt>
<trkpt lat="52.922769" lon="-3.135212"><ele>308</ele><time>2019-09-27T11:26:05Z</time><name>PT5207</name></trkpt>
<trkpt lat="52.922780" lon="-3.135223"><ele>307</ele><time>2019-09-27T11:26:06Z</time><name>PT5208</name></trkpt>
<trkpt lat="52.922786" lon="-3.135236"><ele>307</ele><time>2019-09-27T11:26:07Z</time><name>PT5209</name></trkpt>
<trkpt lat="52.922793" lon="-3.135245"><ele>307</ele><time>2019-09-27T11:26:08Z</time><name>PT5210</name></trkpt>
<trkpt lat="52.922798" lon="-3.135262"><ele>307</ele><time>2019-09-27T11:26:09Z</time><name>PT5211</name></trkpt>
<trkpt lat="52.922805" lon="-3.135270"><ele>307</ele><time>2019-09-27T11:26:10Z</time><name>PT5212</name></trkpt>
<trkpt lat="52.922813" lon="-3.135277"><ele>307</ele><time>2019-09-27T11:26:11Z</time><name>PT5213</name></trkpt>
<trkpt lat="52.922822" lon="-3.135278"><ele>306</ele><time>2019-09-27T11:26:12Z</time><name>PT5214</name></trkpt>
<trkpt lat="52.922827" lon="-3.135286"><ele>305</ele><time>2019-09-27T11:26:13Z</time><name>PT5215</name></trkpt>
<trkpt lat="52.922832" lon="-3.135295"><ele>305</ele><time>2019-09-27T11:26:14Z</time><name>PT5216</name></trkpt>
<trkpt lat="52.922841" lon="-3.135304"><ele>304</ele><time>2019-09-27T11:26:15Z</time><name>PT5217</name></trkpt>
<trkpt lat="52.922852" lon="-3.135305"><ele>303</ele><time>2019-09-27T11:26:16Z</time><name>PT5218</name></trkpt>
<trkpt lat="52.922861" lon="-3.135313"><ele>303</ele><time>2019-09-27T11:26:17Z</time><name>PT5219</name></trkpt>
<trkpt lat="52.922865" lon="-3.135328"><ele>302</ele><time>2019-09-27T11:26:18Z</time><name>PT5220</name></trkpt>
<trkpt lat="52.922871" lon="-3.135332"><ele>300</ele><time>2019-09-27T11:26:19Z</time><name>PT5221</name></trkpt>
<trkpt lat="52.922882" lon="-3.135328"><ele>299</ele><time>2019-09-27T11:26:20Z</time><name>PT5222</name></trkpt>
<trkpt lat="52.922889" lon="-3.135337"><ele>298</ele><time>2019-09-27T11:26:21Z</time><name>PT5223</name></trkpt>
<trkpt lat="52.922900" lon="-3.135341"><ele>298</ele><time>2019-09-27T11:26:22Z</time><name>PT5224</name></trkpt>
<trkpt lat="52.922907" lon="-3.135356"><ele>298</ele><time>2019-09-27T11:26:23Z</time><name>PT5225</name></trkpt>
<trkpt lat="52.922912" lon="-3.135356"><ele>297</ele><time>2019-09-27T11:26:24Z</time><name>PT5226</name></trkpt>
<trkpt lat="52.922918" lon="-3.135359"><ele>296</ele><time>2019-09-27T11:26:25Z</time><name>PT5227</name></trkpt>
<trkpt lat="52.922926" lon="-3.135353"><ele>295</ele><time>2019-09-27T11:26:26Z</time><name>PT5228</name></trkpt>
<trkpt lat="52.922940" lon="-3.135346"><ele>293</ele><time>2019-09-27T11:26:27Z</time><name>PT5229</name></trkpt>
<trkpt lat="52.922948" lon="-3.135356"><ele>293</ele><time>2019-09-27T11:26:28Z</time><name>PT5230</name></trkpt>
<trkpt lat="52.922954" lon="-3.135356"><ele>292</ele><time>2019-09-27T11:26:29Z</time><name>PT5231</name></trkpt>
<trkpt lat="52.922953" lon="-3.135393"><ele>294</ele><time>2019-09-27T11:26:30Z</time><name>PT5232</name></trkpt>
<trkpt lat="52.922959" lon="-3.135405"><ele>293</ele><time>2019-09-27T11:26:31Z</time><name>PT5233</name></trkpt>
<trkpt lat="52.922965" lon="-3.135415"><ele>293</ele><time>2019-09-27T11:26:32Z</time><name>PT5234</name></trkpt>
<trkpt lat="52.922968" lon="-3.135428"><ele>292</ele><time>2019-09-27T11:26:33Z</time><name>PT5235</name></trkpt>
<trkpt lat="52.922967" lon="-3.135462"><ele>293</ele><time>2019-09-27T11:26:34Z</time><name>PT5236</name></trkpt>
<trkpt lat="52.922972" lon="-3.135463"><ele>292</ele><time>2019-09-27T11:26:35Z</time><name>PT5237</name></trkpt>
<trkpt lat="52.922977" lon="-3.135469"><ele>291</ele><time>2019-09-27T11:26:36Z</time><name>PT5238</name></trkpt>
<trkpt lat="52.922985" lon="-3.135485"><ele>292</ele><time>2019-09-27T11:26:37Z</time><name>PT5239</name></trkpt>
<trkpt lat="52.922987" lon="-3.135521"><ele>293</ele><time>2019-09-27T11:26:38Z</time><name>PT5240</name></trkpt>
<trkpt lat="52.922985" lon="-3.135554"><ele>295</ele><time>2019-09-27T11:26:39Z</time><name>PT5241</name></trkpt>
<trkpt lat="52.922992" lon="-3.135550"><ele>295</ele><time>2019-09-27T11:26:40Z</time><name>PT5242</name></trkpt>
<trkpt lat="52.922999" lon="-3.135562"><ele>295</ele><time>2019-09-27T11:26:41Z</time><name>PT5243</name></trkpt>
<trkpt lat="52.923002" lon="-3.135600"><ele>297</ele><time>2019-09-27T11:26:42Z</time><name>PT5244</name></trkpt>
<trkpt lat="52.923004" lon="-3.135645"><ele>300</ele><time>2019-09-27T11:26:43Z</time><name>PT5245</name></trkpt>
<trkpt lat="52.923005" lon="-3.135661"><ele>300</ele><time>2019-09-27T11:26:44Z</time><name>PT5246</name></trkpt>
<trkpt lat="52.923016" lon="-3.135676"><ele>299</ele><time>2019-09-27T11:26:45Z</time><name>PT5247</name></trkpt>
<trkpt lat="52.923022" lon="-3.135697"><ele>299</ele><time>2019-09-27T11:26:46Z</time><name>PT5248</name></trkpt>
<trkpt lat="52.923034" lon="-3.135718"><ele>298</ele><time>2019-09-27T11:26:47Z</time><name>PT5249</name></trkpt>
<trkpt lat="52.923041" lon="-3.135734"><ele>297</ele><time>2019-09-27T11:26:48Z</time><name>PT5250</name></trkpt>
<trkpt lat="52.923048" lon="-3.135751"><ele>298</ele><time>2019-09-27T11:26:49Z</time><name>PT5251</name></trkpt>
<trkpt lat="52.923052" lon="-3.135771"><ele>296</ele><time>2019-09-27T11:26:50Z</time><name>PT5252</name></trkpt>
<trkpt lat="52.923049" lon="-3.135841"><ele>297</ele><time>2019-09-27T11:26:51Z</time><name>PT5253</name></trkpt>
<trkpt lat="52.923059" lon="-3.135851"><ele>296</ele><time>2019-09-27T11:26:52Z</time><name>PT5254</name></trkpt>
<trkpt lat="52.923064" lon="-3.135867"><ele>297</ele><time>2019-09-27T11:26:53Z</time><name>PT5255</name></trkpt>
<trkpt lat="52.923066" lon="-3.135895"><ele>297</ele><time>2019-09-27T11:26:54Z</time><name>PT5256</name></trkpt>
<trkpt lat="52.923083" lon="-3.135908"><ele>297</ele><time>2019-09-27T11:26:55Z</time><name>PT5257</name></trkpt>
<trkpt lat="52.923086" lon="-3.135920"><ele>297</ele><time>2019-09-27T11:26:56Z</time><name>PT5258</name></trkpt>
<trkpt lat="52.923090" lon="-3.135922"><ele>296</ele><time>2019-09-27T11:26:57Z</time><name>PT5259</name></trkpt>
<trkpt lat="52.923090" lon="-3.135965"><ele>297</ele><time>2019-09-27T11:26:58Z</time><name>PT5260</name></trkpt>
<trkpt lat="52.923087" lon="-3.135987"><ele>297</ele><time>2019-09-27T11:26:59Z</time><name>PT5261</name></trkpt>
<trkpt lat="52.923086" lon="-3.136006"><ele>296</ele><time>2019-09-27T11:27:00Z</time><name>PT5262</name></trkpt>
<trkpt lat="52.923090" lon="-3.136029"><ele>297</ele><time>2019-09-27T11:27:01Z</time><name>PT5263</name></trkpt>
<trkpt lat="52.923092" lon="-3.136046"><ele>297</ele><time>2019-09-27T11:27:02Z</time><name>PT5264</name></trkpt>
<trkpt lat="52.923091" lon="-3.136072"><ele>298</ele><time>2019-09-27T11:27:03Z</time><name>PT5265</name></trkpt>
<trkpt lat="52.923096" lon="-3.136080"><ele>297</ele><time>2019-09-27T11:27:04Z</time><name>PT5266</name></trkpt>
<trkpt lat="52.923100" lon="-3.136106"><ele>298</ele><time>2019-09-27T11:27:05Z</time><name>PT5267</name></trkpt>
<trkpt lat="52.923110" lon="-3.136118"><ele>298</ele><time>2019-09-27T11:27:06Z</time><name>PT5268</name></trkpt>
<trkpt lat="52.923110" lon="-3.136147"><ele>299</ele><time>2019-09-27T11:27:07Z</time><name>PT5269</name></trkpt>
<trkpt lat="52.923115" lon="-3.136161"><ele>298</ele><time>2019-09-27T11:27:08Z</time><name>PT5270</name></trkpt>
<trkpt lat="52.923119" lon="-3.136173"><ele>297</ele><time>2019-09-27T11:27:09Z</time><name>PT5271</name></trkpt>
<trkpt lat="52.923122" lon="-3.136200"><ele>299</ele><time>2019-09-27T11:27:10Z</time><name>PT5272</name></trkpt>
<trkpt lat="52.923125" lon="-3.136217"><ele>299</ele><time>2019-09-27T11:27:11Z</time><name>PT5273</name></trkpt>
<trkpt lat="52.923130" lon="-3.136237"><ele>299</ele><time>2019-09-27T11:27:12Z</time><name>PT5274</name></trkpt>
<trkpt lat="52.923131" lon="-3.136254"><ele>299</ele><time>2019-09-27T11:27:13Z</time><name>PT5275</name></trkpt>
<trkpt lat="52.923130" lon="-3.136291"><ele>300</ele><time>2019-09-27T11:27:14Z</time><name>PT5276</name></trkpt>
<trkpt lat="52.923133" lon="-3.136309"><ele>300</ele><time>2019-09-27T11:27:15Z</time><name>PT5277</name></trkpt>
<trkpt lat="52.923131" lon="-3.136321"><ele>300</ele><time>2019-09-27T11:27:16Z</time><name>PT5278</name></trkpt>
<trkpt lat="52.923136" lon="-3.136331"><ele>299</ele><time>2019-09-27T11:27:17Z</time><name>PT5279</name></trkpt>
<trkpt lat="52.923142" lon="-3.136342"><ele>298</ele><time>2019-09-27T11:27:18Z</time><name>PT5280</name></trkpt>
<trkpt lat="52.923143" lon="-3.136366"><ele>299</ele><time>2019-09-27T11:27:19Z</time><name>PT5281</name></trkpt>
<trkpt lat="52.923147" lon="-3.136382"><ele>298</ele><time>2019-09-27T11:27:20Z</time><name>PT5282</name></trkpt>
<trkpt lat="52.923146" lon="-3.136401"><ele>298</ele><time>2019-09-27T11:27:21Z</time><name>PT5283</name></trkpt>
<trkpt lat="52.923152" lon="-3.136417"><ele>298</ele><time>2019-09-27T11:27:22Z</time><name>PT5284</name></trkpt>
<trkpt lat="52.923159" lon="-3.136429"><ele>298</ele><time>2019-09-27T11:27:23Z</time><name>PT5285</name></trkpt>
<trkpt lat="52.923163" lon="-3.136444"><ele>296</ele><time>2019-09-27T11:27:24Z</time><name>PT5286</name></trkpt>
<trkpt lat="52.923167" lon="-3.136452"><ele>295</ele><time>2019-09-27T11:27:25Z</time><name>PT5287</name></trkpt>
<trkpt lat="52.923171" lon="-3.136463"><ele>295</ele><time>2019-09-27T11:27:26Z</time><name>PT5288</name></trkpt>
<trkpt lat="52.923179" lon="-3.136475"><ele>295</ele><time>2019-09-27T11:27:27Z</time><name>PT5289</name></trkpt>
<trkpt lat="52.923188" lon="-3.136489"><ele>295</ele><time>2019-09-27T11:27:28Z</time><name>PT5290</name></trkpt>
<trkpt lat="52.923196" lon="-3.136491"><ele>293</ele><time>2019-09-27T11:27:29Z</time><name>PT5291</name></trkpt>
<trkpt lat="52.923204" lon="-3.136500"><ele>292</ele><time>2019-09-27T11:27:30Z</time><name>PT5292</name></trkpt>
<trkpt lat="52.923206" lon="-3.136512"><ele>291</ele><time>2019-09-27T11:27:31Z</time><name>PT5293</name></trkpt>
<trkpt lat="52.923208" lon="-3.136521"><ele>290</ele><time>2019-09-27T11:27:32Z</time><name>PT5294</name></trkpt>
<trkpt lat="52.923212" lon="-3.136527"><ele>290</ele><time>2019-09-27T11:27:33Z</time><name>PT5295</name></trkpt>
<trkpt lat="52.923213" lon="-3.136550"><ele>290</ele><time>2019-09-27T11:27:34Z</time><name>PT5296</name></trkpt>
<trkpt lat="52.923213" lon="-3.136581"><ele>290</ele><time>2019-09-27T11:27:35Z</time><name>PT5297</name></trkpt>
<trkpt lat="52.923214" lon="-3.136600"><ele>290</ele><time>2019-09-27T11:27:36Z</time><name>PT5298</name></trkpt>
<trkpt lat="52.923216" lon="-3.136615"><ele>289</ele><time>2019-09-27T11:27:37Z</time><name>PT5299</name></trkpt>
<trkpt lat="52.923224" lon="-3.136629"><ele>288</ele><time>2019-09-27T11:27:38Z</time><name>PT5300</name></trkpt>
<trkpt lat="52.923230" lon="-3.136632"><ele>287</ele><time>2019-09-27T11:27:39Z</time><name>PT5301</name></trkpt>
<trkpt lat="52.923231" lon="-3.136666"><ele>288</ele><time>2019-09-27T11:27:40Z</time><name>PT5302</name></trkpt>
<trkpt lat="52.923238" lon="-3.136674"><ele>287</ele><time>2019-09-27T11:27:41Z</time><name>PT5303</name></trkpt>
<trkpt lat="52.923239" lon="-3.136702"><ele>288</ele><time>2019-09-27T11:27:42Z</time><name>PT5304</name></trkpt>
<trkpt lat="52.923248" lon="-3.136716"><ele>288</ele><time>2019-09-27T11:27:43Z</time><name>PT5305</name></trkpt>
<trkpt lat="52.923250" lon="-3.136734"><ele>287</ele><time>2019-09-27T11:27:44Z</time><name>PT5306</name></trkpt>
<trkpt lat="52.923250" lon="-3.136751"><ele>287</ele><time>2019-09-27T11:27:45Z</time><name>PT5307</name></trkpt>
<trkpt lat="52.923256" lon="-3.136771"><ele>287</ele><time>2019-09-27T11:27:46Z</time><name>PT5308</name></trkpt>
<trkpt lat="52.923260" lon="-3.136792"><ele>287</ele><time>2019-09-27T11:27:47Z</time><name>PT5309</name></trkpt>
<trkpt lat="52.923261" lon="-3.136803"><ele>287</ele><time>2019-09-27T11:27:48Z</time><name>PT5310</name></trkpt>
<trkpt lat="52.923264" lon="-3.136814"><ele>287</ele><time>2019-09-27T11:27:49Z</time><name>PT5311</name></trkpt>
<trkpt lat="52.923273" lon="-3.136833"><ele>287</ele><time>2019-09-27T11:27:50Z</time><name>PT5312</name></trkpt>
<trkpt lat="52.923280" lon="-3.136848"><ele>287</ele><time>2019-09-27T11:27:51Z</time><name>PT5313</name></trkpt>
<trkpt lat="52.923288" lon="-3.136864"><ele>287</ele><time>2019-09-27T11:27:52Z</time><name>PT5314</name></trkpt>
<trkpt lat="52.923293" lon="-3.136888"><ele>288</ele><time>2019-09-27T11:27:53Z</time><name>PT5315</name></trkpt>
<trkpt lat="52.923296" lon="-3.136917"><ele>289</ele><time>2019-09-27T11:27:54Z</time><name>PT5316</name></trkpt>
<trkpt lat="52.923299" lon="-3.136931"><ele>288</ele><time>2019-09-27T11:27:55Z</time><name>PT5317</name></trkpt>
<trkpt lat="52.923301" lon="-3.136957"><ele>289</ele><time>2019-09-27T11:27:56Z</time><name>PT5318</name></trkpt>
<trkpt lat="52.923300" lon="-3.136988"><ele>290</ele><time>2019-09-27T11:27:57Z</time><name>PT5319</name></trkpt>
<trkpt lat="52.923301" lon="-3.137011"><ele>290</ele><time>2019-09-27T11:27:58Z</time><name>PT5320</name></trkpt>
<trkpt lat="52.923306" lon="-3.137028"><ele>290</ele><time>2019-09-27T11:27:59Z</time><name>PT5321</name></trkpt>
<trkpt lat="52.923309" lon="-3.137047"><ele>290</ele><time>2019-09-27T11:28:00Z</time><name>PT5322</name></trkpt>
<trkpt lat="52.923313" lon="-3.137076"><ele>291</ele><time>2019-09-27T11:28:01Z</time><name>PT5323</name></trkpt>
<trkpt lat="52.923319" lon="-3.137094"><ele>290</ele><time>2019-09-27T11:28:02Z</time><name>PT5324</name></trkpt>
<trkpt lat="52.923327" lon="-3.137105"><ele>289</ele><time>2019-09-27T11:28:03Z</time><name>PT5325</name></trkpt>
<trkpt lat="52.923327" lon="-3.137119"><ele>289</ele><time>2019-09-27T11:28:04Z</time><name>PT5326</name></trkpt>
<trkpt lat="52.923327" lon="-3.137142"><ele>288</ele><time>2019-09-27T11:28:05Z</time><name>PT5327</name></trkpt>
<trkpt lat="52.923334" lon="-3.137162"><ele>287</ele><time>2019-09-27T11:28:06Z</time><name>PT5328</name></trkpt>
<trkpt lat="52.923338" lon="-3.137168"><ele>286</ele><time>2019-09-27T11:28:07Z</time><name>PT5329</name></trkpt>
<trkpt lat="52.923335" lon="-3.137208"><ele>287</ele><time>2019-09-27T11:28:08Z</time><name>PT5330</name></trkpt>
<trkpt lat="52.923339" lon="-3.137220"><ele>286</ele><time>2019-09-27T11:28:09Z</time><name>PT5331</name></trkpt>
<trkpt lat="52.923340" lon="-3.137240"><ele>286</ele><time>2019-09-27T11:28:10Z</time><name>PT5332</name></trkpt>
<trkpt lat="52.923341" lon="-3.137260"><ele>287</ele><time>2019-09-27T11:28:11Z</time><name>PT5333</name></trkpt>
<trkpt lat="52.923347" lon="-3.137269"><ele>286</ele><time>2019-09-27T11:28:12Z</time><name>PT5334</name></trkpt>
<trkpt lat="52.923346" lon="-3.137310"><ele>288</ele><time>2019-09-27T11:28:13Z</time><name>PT5335</name></trkpt>
<trkpt lat="52.923346" lon="-3.137327"><ele>289</ele><time>2019-09-27T11:28:14Z</time><name>PT5336</name></trkpt>
<trkpt lat="52.923351" lon="-3.137343"><ele>290</ele><time>2019-09-27T11:28:15Z</time><name>PT5337</name></trkpt>
<trkpt lat="52.923354" lon="-3.137359"><ele>290</ele><time>2019-09-27T11:28:16Z</time><name>PT5338</name></trkpt>
<trkpt lat="52.923359" lon="-3.137380"><ele>291</ele><time>2019-09-27T11:28:17Z</time><name>PT5339</name></trkpt>
<trkpt lat="52.923369" lon="-3.137377"><ele>289</ele><time>2019-09-27T11:28:18Z</time><name>PT5340</name></trkpt>
<trkpt lat="52.923376" lon="-3.137384"><ele>288</ele><time>2019-09-27T11:28:19Z</time><name>PT5341</name></trkpt>
<trkpt lat="52.923383" lon="-3.137375"><ele>287</ele><time>2019-09-27T11:28:20Z</time><name>PT5342</name></trkpt>
<trkpt lat="52.923386" lon="-3.137382"><ele>287</ele><time>2019-09-27T11:28:21Z</time><name>PT5343</name></trkpt>
<trkpt lat="52.923392" lon="-3.137395"><ele>287</ele><time>2019-09-27T11:28:22Z</time><name>PT5344</name></trkpt>
<trkpt lat="52.923399" lon="-3.137404"><ele>287</ele><time>2019-09-27T11:28:23Z</time><name>PT5345</name></trkpt>
<trkpt lat="52.923404" lon="-3.137411"><ele>286</ele><time>2019-09-27T11:28:24Z</time><name>PT5346</name></trkpt>
<trkpt lat="52.923408" lon="-3.137419"><ele>285</ele><time>2019-09-27T11:28:25Z</time><name>PT5347</name></trkpt>
<trkpt lat="52.923412" lon="-3.137428"><ele>284</ele><time>2019-09-27T11:28:26Z</time><name>PT5348</name></trkpt>
<trkpt lat="52.923409" lon="-3.137442"><ele>284</ele><time>2019-09-27T11:28:27Z</time><name>PT5349</name></trkpt>
<trkpt lat="52.923412" lon="-3.137457"><ele>284</ele><time>2019-09-27T11:28:28Z</time><name>PT5350</name></trkpt>
<trkpt lat="52.923415" lon="-3.137472"><ele>283</ele><time>2019-09-27T11:28:29Z</time><name>PT5351</name></trkpt>
<trkpt lat="52.923421" lon="-3.137491"><ele>284</ele><time>2019-09-27T11:28:30Z</time><name>PT5352</name></trkpt>
<trkpt lat="52.923424" lon="-3.137508"><ele>284</ele><time>2019-09-27T11:28:31Z</time><name>PT5353</name></trkpt>
<trkpt lat="52.923426" lon="-3.137505"><ele>282</ele><time>2019-09-27T11:28:32Z</time><name>PT5354</name></trkpt>
<trkpt lat="52.923432" lon="-3.137525"><ele>282</ele><time>2019-09-27T11:28:33Z</time><name>PT5355</name></trkpt>
<trkpt lat="52.923435" lon="-3.137546"><ele>281</ele><time>2019-09-27T11:28:34Z</time><name>PT5356</name></trkpt>
<trkpt lat="52.923442" lon="-3.137558"><ele>281</ele><time>2019-09-27T11:28:35Z</time><name>PT5357</name></trkpt>
<trkpt lat="52.923448" lon="-3.137564"><ele>280</ele><time>2019-09-27T11:28:36Z</time><name>PT5358</name></trkpt>
<trkpt lat="52.923453" lon="-3.137583"><ele>279</ele><time>2019-09-27T11:28:37Z</time><name>PT5359</name></trkpt>
<trkpt lat="52.923460" lon="-3.137593"><ele>279</ele><time>2019-09-27T11:28:38Z</time><name>PT5360</name></trkpt>
<trkpt lat="52.923468" lon="-3.137597"><ele>279</ele><time>2019-09-27T11:28:39Z</time><name>PT5361</name></trkpt>
<trkpt lat="52.923467" lon="-3.137628"><ele>279</ele><time>2019-09-27T11:28:40Z</time><name>PT5362</name></trkpt>
<trkpt lat="52.923472" lon="-3.137625"><ele>277</ele><time>2019-09-27T11:28:41Z</time><name>PT5363</name></trkpt>
<trkpt lat="52.923472" lon="-3.137638"><ele>277</ele><time>2019-09-27T11:28:42Z</time><name>PT5364</name></trkpt>
<trkpt lat="52.923468" lon="-3.137655"><ele>276</ele><time>2019-09-27T11:28:43Z</time><name>PT5365</name></trkpt>
<trkpt lat="52.923472" lon="-3.137672"><ele>276</ele><time>2019-09-27T11:28:44Z</time><name>PT5366</name></trkpt>
<trkpt lat="52.923478" lon="-3.137673"><ele>275</ele><time>2019-09-27T11:28:45Z</time><name>PT5367</name></trkpt>
<trkpt lat="52.923481" lon="-3.137691"><ele>275</ele><time>2019-09-27T11:28:46Z</time><name>PT5368</name></trkpt>
<trkpt lat="52.923488" lon="-3.137695"><ele>273</ele><time>2019-09-27T11:28:47Z</time><name>PT5369</name></trkpt>
<trkpt lat="52.923493" lon="-3.137710"><ele>273</ele><time>2019-09-27T11:28:48Z</time><name>PT5370</name></trkpt>
<trkpt lat="52.923502" lon="-3.137722"><ele>273</ele><time>2019-09-27T11:28:49Z</time><name>PT5371</name></trkpt>
<trkpt lat="52.923505" lon="-3.137750"><ele>273</ele><time>2019-09-27T11:28:50Z</time><name>PT5372</name></trkpt>
<trkpt lat="52.923512" lon="-3.137751"><ele>273</ele><time>2019-09-27T11:28:51Z</time><name>PT5373</name></trkpt>
<trkpt lat="52.923518" lon="-3.137739"><ele>271</ele><time>2019-09-27T11:28:52Z</time><name>PT5374</name></trkpt>
<trkpt lat="52.923522" lon="-3.137778"><ele>273</ele><time>2019-09-27T11:28:53Z</time><name>PT5375</name></trkpt>
<trkpt lat="52.923525" lon="-3.137812"><ele>274</ele><time>2019-09-27T11:28:54Z</time><name>PT5376</name></trkpt>
<trkpt lat="52.923539" lon="-3.137809"><ele>273</ele><time>2019-09-27T11:28:55Z</time><name>PT5377</name></trkpt>
<trkpt lat="52.923548" lon="-3.137829"><ele>274</ele><time>2019-09-27T11:28:56Z</time><name>PT5378</name></trkpt>
<trkpt lat="52.923564" lon="-3.137841"><ele>274</ele><time>2019-09-27T11:28:57Z</time><name>PT5379</name></trkpt>
<trkpt lat="52.923567" lon="-3.137870"><ele>275</ele><time>2019-09-27T11:28:58Z</time><name>PT5380</name></trkpt>
<trkpt lat="52.923566" lon="-3.137896"><ele>275</ele><time>2019-09-27T11:28:59Z</time><name>PT5381</name></trkpt>
<trkpt lat="52.923567" lon="-3.137925"><ele>276</ele><time>2019-09-27T11:29:00Z</time><name>PT5382</name></trkpt>
<trkpt lat="52.923573" lon="-3.137933"><ele>276</ele><time>2019-09-27T11:29:01Z</time><name>PT5383</name></trkpt>
<trkpt lat="52.923579" lon="-3.137927"><ele>274</ele><time>2019-09-27T11:29:02Z</time><name>PT5384</name></trkpt>
<trkpt lat="52.923583" lon="-3.137935"><ele>273</ele><time>2019-09-27T11:29:03Z</time><name>PT5385</name></trkpt>
<trkpt lat="52.923589" lon="-3.137958"><ele>273</ele><time>2019-09-27T11:29:04Z</time><name>PT5386</name></trkpt>
<trkpt lat="52.923593" lon="-3.137974"><ele>274</ele><time>2019-09-27T11:29:05Z</time><name>PT5387</name></trkpt>
<trkpt lat="52.923602" lon="-3.137987"><ele>273</ele><time>2019-09-27T11:29:06Z</time><name>PT5388</name></trkpt>
<trkpt lat="52.923609" lon="-3.138009"><ele>274</ele><time>2019-09-27T11:29:07Z</time><name>PT5389</name></trkpt>
<trkpt lat="52.923611" lon="-3.138046"><ele>275</ele><time>2019-09-27T11:29:08Z</time><name>PT5390</name></trkpt>
<trkpt lat="52.923613" lon="-3.138073"><ele>276</ele><time>2019-09-27T11:29:09Z</time><name>PT5391</name></trkpt>
<trkpt lat="52.923618" lon="-3.138094"><ele>276</ele><time>2019-09-27T11:29:10Z</time><name>PT5392</name></trkpt>
<trkpt lat="52.923623" lon="-3.138111"><ele>276</ele><time>2019-09-27T11:29:11Z</time><name>PT5393</name></trkpt>
<trkpt lat="52.923626" lon="-3.138128"><ele>277</ele><time>2019-09-27T11:29:12Z</time><name>PT5394</name></trkpt>
<trkpt lat="52.923629" lon="-3.138145"><ele>277</ele><time>2019-09-27T11:29:13Z</time><name>PT5395</name></trkpt>
<trkpt lat="52.923637" lon="-3.138155"><ele>276</ele><time>2019-09-27T11:29:14Z</time><name>PT5396</name></trkpt>
<trkpt lat="52.923642" lon="-3.138170"><ele>276</ele><time>2019-09-27T11:29:15Z</time><name>PT5397</name></trkpt>
<trkpt lat="52.923645" lon="-3.138180"><ele>276</ele><time>2019-09-27T11:29:16Z</time><name>PT5398</name></trkpt>
<trkpt lat="52.923653" lon="-3.138167"><ele>274</ele><time>2019-09-27T11:29:17Z</time><name>PT5399</name></trkpt>
<trkpt lat="52.923657" lon="-3.138184"><ele>274</ele><time>2019-09-27T11:29:18Z</time><name>PT5400</name></trkpt>
<trkpt lat="52.923662" lon="-3.138188"><ele>272</ele><time>2019-09-27T11:29:19Z</time><name>PT5401</name></trkpt>
<trkpt lat="52.923669" lon="-3.138199"><ele>272</ele><time>2019-09-27T11:29:20Z</time><name>PT5402</name></trkpt>
<trkpt lat="52.923676" lon="-3.138223"><ele>273</ele><time>2019-09-27T11:29:21Z</time><name>PT5403</name></trkpt>
<trkpt lat="52.923675" lon="-3.138246"><ele>273</ele><time>2019-09-27T11:29:22Z</time><name>PT5404</name></trkpt>
<trkpt lat="52.923682" lon="-3.138258"><ele>272</ele><time>2019-09-27T11:29:23Z</time><name>PT5405</name></trkpt>
<trkpt lat="52.923686" lon="-3.138278"><ele>273</ele><time>2019-09-27T11:29:24Z</time><name>PT5406</name></trkpt>
<trkpt lat="52.923693" lon="-3.138297"><ele>274</ele><time>2019-09-27T11:29:25Z</time><name>PT5407</name></trkpt>
<trkpt lat="52.923694" lon="-3.138322"><ele>275</ele><time>2019-09-27T11:29:26Z</time><name>PT5408</name></trkpt>
<trkpt lat="52.923698" lon="-3.138337"><ele>275</ele><time>2019-09-27T11:29:27Z</time><name>PT5409</name></trkpt>
<trkpt lat="52.923702" lon="-3.138352"><ele>275</ele><time>2019-09-27T11:29:28Z</time><name>PT5410</name></trkpt>
<trkpt lat="52.923704" lon="-3.138372"><ele>276</ele><time>2019-09-27T11:29:29Z</time><name>PT5411</name></trkpt>
<trkpt lat="52.923708" lon="-3.138380"><ele>275</ele><time>2019-09-27T11:29:30Z</time><name>PT5412</name></trkpt>
<trkpt lat="52.923712" lon="-3.138390"><ele>274</ele><time>2019-09-27T11:29:31Z</time><name>PT5413</name></trkpt>
<trkpt lat="52.923717" lon="-3.138404"><ele>273</ele><time>2019-09-27T11:29:32Z</time><name>PT5414</name></trkpt>
<trkpt lat="52.923721" lon="-3.138428"><ele>274</ele><time>2019-09-27T11:29:33Z</time><name>PT5415</name></trkpt>
<trkpt lat="52.923725" lon="-3.138464"><ele>275</ele><time>2019-09-27T11:29:34Z</time><name>PT5416</name></trkpt>
<trkpt lat="52.923728" lon="-3.138477"><ele>274</ele><time>2019-09-27T11:29:35Z</time><name>PT5417</name></trkpt>
<trkpt lat="52.923734" lon="-3.138498"><ele>274</ele><time>2019-09-27T11:29:36Z</time><name>PT5418</name></trkpt>
<trkpt lat="52.923737" lon="-3.138508"><ele>273</ele><time>2019-09-27T11:29:37Z</time><name>PT5419</name></trkpt>
<trkpt lat="52.923742" lon="-3.138510"><ele>272</ele><time>2019-09-27T11:29:38Z</time><name>PT5420</name></trkpt>
<trkpt lat="52.923745" lon="-3.138524"><ele>272</ele><time>2019-09-27T11:29:39Z</time><name>PT5421</name></trkpt>
<trkpt lat="52.923747" lon="-3.138556"><ele>272</ele><time>2019-09-27T11:29:40Z</time><name>PT5422</name></trkpt>
<trkpt lat="52.923752" lon="-3.138563"><ele>271</ele><time>2019-09-27T11:29:41Z</time><name>PT5423</name></trkpt>
<trkpt lat="52.923755" lon="-3.138606"><ele>272</ele><time>2019-09-27T11:29:42Z</time><name>PT5424</name></trkpt>
<trkpt lat="52.923762" lon="-3.138603"><ele>272</ele><time>2019-09-27T11:29:43Z</time><name>PT5425</name></trkpt>
<trkpt lat="52.923769" lon="-3.138607"><ele>271</ele><time>2019-09-27T11:29:44Z</time><name>PT5426</name></trkpt>
<trkpt lat="52.923771" lon="-3.138629"><ele>272</ele><time>2019-09-27T11:29:45Z</time><name>PT5427</name></trkpt>
<trkpt lat="52.923775" lon="-3.138652"><ele>272</ele><time>2019-09-27T11:29:46Z</time><name>PT5428</name></trkpt>
<trkpt lat="52.923785" lon="-3.138682"><ele>274</ele><time>2019-09-27T11:29:47Z</time><name>PT5429</name></trkpt>
<trkpt lat="52.923792" lon="-3.138681"><ele>272</ele><time>2019-09-27T11:29:48Z</time><name>PT5430</name></trkpt>
<trkpt lat="52.923796" lon="-3.138699"><ele>273</ele><time>2019-09-27T11:29:49Z</time><name>PT5431</name></trkpt>
<trkpt lat="52.923799" lon="-3.138729"><ele>274</ele><time>2019-09-27T11:29:50Z</time><name>PT5432</name></trkpt>
<trkpt lat="52.923799" lon="-3.138754"><ele>273</ele><time>2019-09-27T11:29:51Z</time><name>PT5433</name></trkpt>
<trkpt lat="52.923803" lon="-3.138768"><ele>273</ele><time>2019-09-27T11:29:52Z</time><name>PT5434</name></trkpt>
<trkpt lat="52.923808" lon="-3.138766"><ele>272</ele><time>2019-09-27T11:29:53Z</time><name>PT5435</name></trkpt>
<trkpt lat="52.923814" lon="-3.138774"><ele>271</ele><time>2019-09-27T11:29:54Z</time><name>PT5436</name></trkpt>
<trkpt lat="52.923813" lon="-3.138778"><ele>271</ele><time>2019-09-27T11:29:55Z</time><name>PT5437</name></trkpt>
<trkpt lat="52.923819" lon="-3.138778"><ele>270</ele><time>2019-09-27T11:29:56Z</time><name>PT5438</name></trkpt>
<trkpt lat="52.923826" lon="-3.138788"><ele>270</ele><time>2019-09-27T11:29:57Z</time><name>PT5439</name></trkpt>
<trkpt lat="52.923829" lon="-3.138806"><ele>270</ele><time>2019-09-27T11:29:58Z</time><name>PT5440</name></trkpt>
<trkpt lat="52.923838" lon="-3.138817"><ele>270</ele><time>2019-09-27T11:29:59Z</time><name>PT5441</name></trkpt>
<trkpt lat="52.923844" lon="-3.138819"><ele>269</ele><time>2019-09-27T11:30:00Z</time><name>PT5442</name></trkpt>
<trkpt lat="52.923855" lon="-3.138838"><ele>268</ele><time>2019-09-27T11:30:01Z</time><name>PT5443</name></trkpt>
<trkpt lat="52.923855" lon="-3.138854"><ele>268</ele><time>2019-09-27T11:30:02Z</time><name>PT5444</name></trkpt>
<trkpt lat="52.923856" lon="-3.138874"><ele>268</ele><time>2019-09-27T11:30:03Z</time><name>PT5445</name></trkpt>
<trkpt lat="52.923859" lon="-3.138897"><ele>269</ele><time>2019-09-27T11:30:04Z</time><name>PT5446</name></trkpt>
<trkpt lat="52.923861" lon="-3.138911"><ele>269</ele><time>2019-09-27T11:30:05Z</time><name>PT5447</name></trkpt>
<trkpt lat="52.923864" lon="-3.138926"><ele>269</ele><time>2019-09-27T11:30:06Z</time><name>PT5448</name></trkpt>
<trkpt lat="52.923869" lon="-3.138944"><ele>269</ele><time>2019-09-27T11:30:07Z</time><name>PT5449</name></trkpt>
<trkpt lat="52.923878" lon="-3.138962"><ele>270</ele><time>2019-09-27T11:30:08Z</time><name>PT5450</name></trkpt>
<trkpt lat="52.923876" lon="-3.138988"><ele>270</ele><time>2019-09-27T11:30:09Z</time><name>PT5451</name></trkpt>
<trkpt lat="52.923880" lon="-3.139004"><ele>270</ele><time>2019-09-27T11:30:10Z</time><name>PT5452</name></trkpt>
<trkpt lat="52.923886" lon="-3.139027"><ele>270</ele><time>2019-09-27T11:30:11Z</time><name>PT5453</name></trkpt>
<trkpt lat="52.923893" lon="-3.139042"><ele>270</ele><time>2019-09-27T11:30:12Z</time><name>PT5454</name></trkpt>
<trkpt lat="52.923897" lon="-3.139043"><ele>269</ele><time>2019-09-27T11:30:13Z</time><name>PT5455</name></trkpt>
<trkpt lat="52.923907" lon="-3.139056"><ele>269</ele><time>2019-09-27T11:30:14Z</time><name>PT5456</name></trkpt>
<trkpt lat="52.923914" lon="-3.139077"><ele>270</ele><time>2019-09-27T11:30:15Z</time><name>PT5457</name></trkpt>
<trkpt lat="52.923918" lon="-3.139105"><ele>271</ele><time>2019-09-27T11:30:16Z</time><name>PT5458</name></trkpt>
<trkpt lat="52.923924" lon="-3.139125"><ele>272</ele><time>2019-09-27T11:30:17Z</time><name>PT5459</name></trkpt>
<trkpt lat="52.923930" lon="-3.139132"><ele>271</ele><time>2019-09-27T11:30:18Z</time><name>PT5460</name></trkpt>
<trkpt lat="52.923936" lon="-3.139154"><ele>272</ele><time>2019-09-27T11:30:19Z</time><name>PT5461</name></trkpt>
<trkpt lat="52.923943" lon="-3.139144"><ele>268</ele><time>2019-09-27T11:30:20Z</time><name>PT5462</name></trkpt>
<trkpt lat="52.923950" lon="-3.139141"><ele>265</ele><time>2019-09-27T11:30:21Z</time><name>PT5463</name></trkpt>
<trkpt lat="52.923955" lon="-3.139161"><ele>266</ele><time>2019-09-27T11:30:22Z</time><name>PT5464</name></trkpt>
<trkpt lat="52.923956" lon="-3.139174"><ele>266</ele><time>2019-09-27T11:30:23Z</time><name>PT5465</name></trkpt>
<trkpt lat="52.923963" lon="-3.139171"><ele>265</ele><time>2019-09-27T11:30:24Z</time><name>PT5466</name></trkpt>
<trkpt lat="52.923968" lon="-3.139179"><ele>264</ele><time>2019-09-27T11:30:25Z</time><name>PT5467</name></trkpt>
<trkpt lat="52.923971" lon="-3.139179"><ele>263</ele><time>2019-09-27T11:30:26Z</time><name>PT5468</name></trkpt>
<trkpt lat="52.923970" lon="-3.139189"><ele>263</ele><time>2019-09-27T11:30:27Z</time><name>PT5469</name></trkpt>
<trkpt lat="52.923980" lon="-3.139205"><ele>263</ele><time>2019-09-27T11:30:28Z</time><name>PT5470</name></trkpt>
<trkpt lat="52.923993" lon="-3.139212"><ele>263</ele><time>2019-09-27T11:30:29Z</time><name>PT5471</name></trkpt>
<trkpt lat="52.924004" lon="-3.139225"><ele>262</ele><time>2019-09-27T11:30:30Z</time><name>PT5472</name></trkpt>
<trkpt lat="52.924005" lon="-3.139240"><ele>262</ele><time>2019-09-27T11:30:31Z</time><name>PT5473</name></trkpt>
<trkpt lat="52.924010" lon="-3.139257"><ele>261</ele><time>2019-09-27T11:30:32Z</time><name>PT5474</name></trkpt>
<trkpt lat="52.924013" lon="-3.139262"><ele>260</ele><time>2019-09-27T11:30:33Z</time><name>PT5475</name></trkpt>
<trkpt lat="52.924011" lon="-3.139275"><ele>259</ele><time>2019-09-27T11:30:34Z</time><name>PT5476</name></trkpt>
<trkpt lat="52.924018" lon="-3.139279"><ele>258</ele><time>2019-09-27T11:30:35Z</time><name>PT5477</name></trkpt>
<trkpt lat="52.924024" lon="-3.139292"><ele>257</ele><time>2019-09-27T11:30:36Z</time><name>PT5478</name></trkpt>
<trkpt lat="52.924030" lon="-3.139312"><ele>258</ele><time>2019-09-27T11:30:37Z</time><name>PT5479</name></trkpt>
<trkpt lat="52.924037" lon="-3.139326"><ele>258</ele><time>2019-09-27T11:30:38Z</time><name>PT5480</name></trkpt>
<trkpt lat="52.924044" lon="-3.139334"><ele>257</ele><time>2019-09-27T11:30:39Z</time><name>PT5481</name></trkpt>
<trkpt lat="52.924049" lon="-3.139336"><ele>256</ele><time>2019-09-27T11:30:40Z</time><name>PT5482</name></trkpt>
<trkpt lat="52.924058" lon="-3.139349"><ele>256</ele><time>2019-09-27T11:30:41Z</time><name>PT5483</name></trkpt>
<trkpt lat="52.924063" lon="-3.139373"><ele>256</ele><time>2019-09-27T11:30:42Z</time><name>PT5484</name></trkpt>
<trkpt lat="52.924067" lon="-3.139411"><ele>257</ele><time>2019-09-27T11:30:43Z</time><name>PT5485</name></trkpt>
<trkpt lat="52.924076" lon="-3.139415"><ele>256</ele><time>2019-09-27T11:30:44Z</time><name>PT5486</name></trkpt>
<trkpt lat="52.924083" lon="-3.139422"><ele>256</ele><time>2019-09-27T11:30:45Z</time><name>PT5487</name></trkpt>
<trkpt lat="52.924092" lon="-3.139433"><ele>256</ele><time>2019-09-27T11:30:46Z</time><name>PT5488</name></trkpt>
<trkpt lat="52.924099" lon="-3.139440"><ele>256</ele><time>2019-09-27T11:30:47Z</time><name>PT5489</name></trkpt>
<trkpt lat="52.924107" lon="-3.139450"><ele>255</ele><time>2019-09-27T11:30:48Z</time><name>PT5490</name></trkpt>
<trkpt lat="52.924115" lon="-3.139466"><ele>256</ele><time>2019-09-27T11:30:49Z</time><name>PT5491</name></trkpt>
<trkpt lat="52.924125" lon="-3.139475"><ele>255</ele><time>2019-09-27T11:30:50Z</time><name>PT5492</name></trkpt>
<trkpt lat="52.924131" lon="-3.139476"><ele>254</ele><time>2019-09-27T11:30:51Z</time><name>PT5493</name></trkpt>
<trkpt lat="52.924142" lon="-3.139472"><ele>252</ele><time>2019-09-27T11:30:52Z</time><name>PT5494</name></trkpt>
<trkpt lat="52.924150" lon="-3.139471"><ele>250</ele><time>2019-09-27T11:30:53Z</time><name>PT5495</name></trkpt>
<trkpt lat="52.924157" lon="-3.139474"><ele>249</ele><time>2019-09-27T11:30:54Z</time><name>PT5496</name></trkpt>
<trkpt lat="52.924171" lon="-3.139486"><ele>250</ele><time>2019-09-27T11:30:55Z</time><name>PT5497</name></trkpt>
<trkpt lat="52.924172" lon="-3.139500"><ele>249</ele><time>2019-09-27T11:30:56Z</time><name>PT5498</name></trkpt>
<trkpt lat="52.924177" lon="-3.139504"><ele>249</ele><time>2019-09-27T11:30:57Z</time><name>PT5499</name></trkpt>
<trkpt lat="52.924184" lon="-3.139502"><ele>247</ele><time>2019-09-27T11:30:58Z</time><name>PT5500</name></trkpt>
<trkpt lat="52.924187" lon="-3.139524"><ele>248</ele><time>2019-09-27T11:30:59Z</time><name>PT5501</name></trkpt>
<trkpt lat="52.924192" lon="-3.139529"><ele>247</ele><time>2019-09-27T11:31:00Z</time><name>PT5502</name></trkpt>
<trkpt lat="52.924199" lon="-3.139543"><ele>247</ele><time>2019-09-27T11:31:01Z</time><name>PT5503</name></trkpt>
<trkpt lat="52.924205" lon="-3.139563"><ele>247</ele><time>2019-09-27T11:31:02Z</time><name>PT5504</name></trkpt>
<trkpt lat="52.924208" lon="-3.139575"><ele>247</ele><time>2019-09-27T11:31:03Z</time><name>PT5505</name></trkpt>
<trkpt lat="52.924210" lon="-3.139599"><ele>247</ele><time>2019-09-27T11:31:04Z</time><name>PT5506</name></trkpt>
<trkpt lat="52.924214" lon="-3.139630"><ele>248</ele><time>2019-09-27T11:31:05Z</time><name>PT5507</name></trkpt>
<trkpt lat="52.924217" lon="-3.139690"><ele>251</ele><time>2019-09-27T11:31:06Z</time><name>PT5508</name></trkpt>
<trkpt lat="52.924226" lon="-3.139698"><ele>250</ele><time>2019-09-27T11:31:07Z</time><name>PT5509</name></trkpt>
<trkpt lat="52.924225" lon="-3.139727"><ele>251</ele><time>2019-09-27T11:31:08Z</time><name>PT5510</name></trkpt>
<trkpt lat="52.924233" lon="-3.139717"><ele>248</ele><time>2019-09-27T11:31:09Z</time><name>PT5511</name></trkpt>
<trkpt lat="52.924238" lon="-3.139729"><ele>248</ele><time>2019-09-27T11:31:10Z</time><name>PT5512</name></trkpt>
<trkpt lat="52.924241" lon="-3.139752"><ele>248</ele><time>2019-09-27T11:31:11Z</time><name>PT5513</name></trkpt>
<trkpt lat="52.924248" lon="-3.139762"><ele>247</ele><time>2019-09-27T11:31:12Z</time><name>PT5514</name></trkpt>
<trkpt lat="52.924254" lon="-3.139779"><ele>247</ele><time>2019-09-27T11:31:13Z</time><name>PT5515</name></trkpt>
<trkpt lat="52.924258" lon="-3.139798"><ele>247</ele><time>2019-09-27T11:31:14Z</time><name>PT5516</name></trkpt>
<trkpt lat="52.924266" lon="-3.139811"><ele>247</ele><time>2019-09-27T11:31:15Z</time><name>PT5517</name></trkpt>
<trkpt lat="52.924273" lon="-3.139839"><ele>248</ele><time>2019-09-27T11:31:16Z</time><name>PT5518</name></trkpt>
<trkpt lat="52.924284" lon="-3.139852"><ele>249</ele><time>2019-09-27T11:31:17Z</time><name>PT5519</name></trkpt>
<trkpt lat="52.924291" lon="-3.139874"><ele>248</ele><time>2019-09-27T11:31:18Z</time><name>PT5520</name></trkpt>
<trkpt lat="52.924297" lon="-3.139910"><ele>250</ele><time>2019-09-27T11:31:19Z</time><name>PT5521</name></trkpt>
<trkpt lat="52.924299" lon="-3.139926"><ele>250</ele><time>2019-09-27T11:31:20Z</time><name>PT5522</name></trkpt>
<trkpt lat="52.924303" lon="-3.139933"><ele>249</ele><time>2019-09-27T11:31:21Z</time><name>PT5523</name></trkpt>
<trkpt lat="52.924310" lon="-3.139936"><ele>248</ele><time>2019-09-27T11:31:22Z</time><name>PT5524</name></trkpt>
<trkpt lat="52.924320" lon="-3.139939"><ele>248</ele><time>2019-09-27T11:31:23Z</time><name>PT5525</name></trkpt>
<trkpt lat="52.924313" lon="-3.139974"><ele>248</ele><time>2019-09-27T11:31:24Z</time><name>PT5526</name></trkpt>
<trkpt lat="52.924319" lon="-3.139985"><ele>247</ele><time>2019-09-27T11:31:25Z</time><name>PT5527</name></trkpt>
<trkpt lat="52.924333" lon="-3.140000"><ele>248</ele><time>2019-09-27T11:31:26Z</time><name>PT5528</name></trkpt>
<trkpt lat="52.924344" lon="-3.140013"><ele>248</ele><time>2019-09-27T11:31:27Z</time><name>PT5529</name></trkpt>
<trkpt lat="52.924352" lon="-3.140026"><ele>247</ele><time>2019-09-27T11:31:28Z</time><name>PT5530</name></trkpt>
<trkpt lat="52.924359" lon="-3.140029"><ele>246</ele><time>2019-09-27T11:31:29Z</time><name>PT5531</name></trkpt>
<trkpt lat="52.924362" lon="-3.140040"><ele>246</ele><time>2019-09-27T11:31:30Z</time><name>PT5532</name></trkpt>
<trkpt lat="52.924367" lon="-3.140048"><ele>245</ele><time>2019-09-27T11:31:31Z</time><name>PT5533</name></trkpt>
<trkpt lat="52.924378" lon="-3.140046"><ele>244</ele><time>2019-09-27T11:31:32Z</time><name>PT5534</name></trkpt>
<trkpt lat="52.924385" lon="-3.140056"><ele>244</ele><time>2019-09-27T11:31:33Z</time><name>PT5535</name></trkpt>
<trkpt lat="52.924392" lon="-3.140082"><ele>244</ele><time>2019-09-27T11:31:34Z</time><name>PT5536</name></trkpt>
<trkpt lat="52.924391" lon="-3.140109"><ele>244</ele><time>2019-09-27T11:31:35Z</time><name>PT5537</name></trkpt>
<trkpt lat="52.924389" lon="-3.140114"><ele>243</ele><time>2019-09-27T11:31:36Z</time><name>PT5538</name></trkpt>
<trkpt lat="52.924392" lon="-3.140123"><ele>241</ele><time>2019-09-27T11:31:37Z</time><name>PT5539</name></trkpt>
<trkpt lat="52.924401" lon="-3.140135"><ele>241</ele><time>2019-09-27T11:31:38Z</time><name>PT5540</name></trkpt>
<trkpt lat="52.924402" lon="-3.140153"><ele>241</ele><time>2019-09-27T11:31:39Z</time><name>PT5541</name></trkpt>
<trkpt lat="52.924411" lon="-3.140185"><ele>242</ele><time>2019-09-27T11:31:40Z</time><name>PT5542</name></trkpt>
<trkpt lat="52.924417" lon="-3.140206"><ele>243</ele><time>2019-09-27T11:31:41Z</time><name>PT5543</name></trkpt>
<trkpt lat="52.924426" lon="-3.140222"><ele>243</ele><time>2019-09-27T11:31:42Z</time><name>PT5544</name></trkpt>
<trkpt lat="52.924435" lon="-3.140246"><ele>243</ele><time>2019-09-27T11:31:43Z</time><name>PT5545</name></trkpt>
<trkpt lat="52.924438" lon="-3.140270"><ele>244</ele><time>2019-09-27T11:31:44Z</time><name>PT5546</name></trkpt>
<trkpt lat="52.924441" lon="-3.140278"><ele>244</ele><time>2019-09-27T11:31:45Z</time><name>PT5547</name></trkpt>
<trkpt lat="52.924445" lon="-3.140295"><ele>244</ele><time>2019-09-27T11:31:46Z</time><name>PT5548</name></trkpt>
<trkpt lat="52.924454" lon="-3.140339"><ele>247</ele><time>2019-09-27T11:31:47Z</time><name>PT5549</name></trkpt>
<trkpt lat="52.924462" lon="-3.140325"><ele>243</ele><time>2019-09-27T11:31:48Z</time><name>PT5550</name></trkpt>
<trkpt lat="52.924477" lon="-3.140332"><ele>244</ele><time>2019-09-27T11:31:49Z</time><name>PT5551</name></trkpt>
<trkpt lat="52.924493" lon="-3.140339"><ele>244</ele><time>2019-09-27T11:31:50Z</time><name>PT5552</name></trkpt>
<trkpt lat="52.924506" lon="-3.140343"><ele>243</ele><time>2019-09-27T11:31:51Z</time><name>PT5553</name></trkpt>
<trkpt lat="52.924512" lon="-3.140347"><ele>243</ele><time>2019-09-27T11:31:52Z</time><name>PT5554</name></trkpt>
<trkpt lat="52.924515" lon="-3.140370"><ele>243</ele><time>2019-09-27T11:31:53Z</time><name>PT5555</name></trkpt>
<trkpt lat="52.924525" lon="-3.140389"><ele>244</ele><time>2019-09-27T11:31:54Z</time><name>PT5556</name></trkpt>
<trkpt lat="52.924535" lon="-3.140405"><ele>244</ele><time>2019-09-27T11:31:55Z</time><name>PT5557</name></trkpt>
<trkpt lat="52.924544" lon="-3.140426"><ele>245</ele><time>2019-09-27T11:31:56Z</time><name>PT5558</name></trkpt>
<trkpt lat="52.924553" lon="-3.140414"><ele>241</ele><time>2019-09-27T11:31:57Z</time><name>PT5559</name></trkpt>
<trkpt lat="52.924560" lon="-3.140421"><ele>240</ele><time>2019-09-27T11:31:58Z</time><name>PT5560</name></trkpt>
<trkpt lat="52.924569" lon="-3.140434"><ele>240</ele><time>2019-09-27T11:31:59Z</time><name>PT5561</name></trkpt>
<trkpt lat="52.924572" lon="-3.140448"><ele>240</ele><time>2019-09-27T11:32:00Z</time><name>PT5562</name></trkpt>
<trkpt lat="52.924584" lon="-3.140464"><ele>240</ele><time>2019-09-27T11:32:01Z</time><name>PT5563</name></trkpt>
<trkpt lat="52.924601" lon="-3.140497"><ele>241</ele><time>2019-09-27T11:32:02Z</time><name>PT5564</name></trkpt>
<trkpt lat="52.924610" lon="-3.140519"><ele>242</ele><time>2019-09-27T11:32:03Z</time><name>PT5565</name></trkpt>
<trkpt lat="52.924621" lon="-3.140532"><ele>242</ele><time>2019-09-27T11:32:04Z</time><name>PT5566</name></trkpt>
<trkpt lat="52.924631" lon="-3.140555"><ele>242</ele><time>2019-09-27T11:32:05Z</time><name>PT5567</name></trkpt>
<trkpt lat="52.924643" lon="-3.140566"><ele>242</ele><time>2019-09-27T11:32:06Z</time><name>PT5568</name></trkpt>
<trkpt lat="52.924652" lon="-3.140582"><ele>242</ele><time>2019-09-27T11:32:07Z</time><name>PT5569</name></trkpt>
<trkpt lat="52.924658" lon="-3.140598"><ele>242</ele><time>2019-09-27T11:32:08Z</time><name>PT5570</name></trkpt>
<trkpt lat="52.924662" lon="-3.140623"><ele>243</ele><time>2019-09-27T11:32:09Z</time><name>PT5571</name></trkpt>
<trkpt lat="52.924671" lon="-3.140643"><ele>244</ele><time>2019-09-27T11:32:10Z</time><name>PT5572</name></trkpt>
<trkpt lat="52.924683" lon="-3.140671"><ele>246</ele><time>2019-09-27T11:32:11Z</time><name>PT5573</name></trkpt>
<trkpt lat="52.924690" lon="-3.140697"><ele>247</ele><time>2019-09-27T11:32:12Z</time><name>PT5574</name></trkpt>
<trkpt lat="52.924704" lon="-3.140701"><ele>247</ele><time>2019-09-27T11:32:13Z</time><name>PT5575</name></trkpt>
<trkpt lat="52.924714" lon="-3.140728"><ele>248</ele><time>2019-09-27T11:32:14Z</time><name>PT5576</name></trkpt>
<trkpt lat="52.924724" lon="-3.140738"><ele>248</ele><time>2019-09-27T11:32:15Z</time><name>PT5577</name></trkpt>
<trkpt lat="52.924732" lon="-3.140754"><ele>248</ele><time>2019-09-27T11:32:16Z</time><name>PT5578</name></trkpt>
<trkpt lat="52.924737" lon="-3.140747"><ele>247</ele><time>2019-09-27T11:32:17Z</time><name>PT5579</name></trkpt>
<trkpt lat="52.924742" lon="-3.140763"><ele>247</ele><time>2019-09-27T11:32:18Z</time><name>PT5580</name></trkpt>
<trkpt lat="52.924748" lon="-3.140780"><ele>247</ele><time>2019-09-27T11:32:19Z</time><name>PT5581</name></trkpt>
<trkpt lat="52.924755" lon="-3.140806"><ele>248</ele><time>2019-09-27T11:32:20Z</time><name>PT5582</name></trkpt>
<trkpt lat="52.924758" lon="-3.140827"><ele>248</ele><time>2019-09-27T11:32:21Z</time><name>PT5583</name></trkpt>
<trkpt lat="52.924770" lon="-3.140828"><ele>247</ele><time>2019-09-27T11:32:22Z</time><name>PT5584</name></trkpt>
<trkpt lat="52.924780" lon="-3.140844"><ele>247</ele><time>2019-09-27T11:32:23Z</time><name>PT5585</name></trkpt>
<trkpt lat="52.924789" lon="-3.140859"><ele>247</ele><time>2019-09-27T11:32:24Z</time><name>PT5586</name></trkpt>
<trkpt lat="52.924799" lon="-3.140871"><ele>247</ele><time>2019-09-27T11:32:25Z</time><name>PT5587</name></trkpt>
<trkpt lat="52.924807" lon="-3.140875"><ele>246</ele><time>2019-09-27T11:32:26Z</time><name>PT5588</name></trkpt>
<trkpt lat="52.924817" lon="-3.140885"><ele>246</ele><time>2019-09-27T11:32:27Z</time><name>PT5589</name></trkpt>
<trkpt lat="52.924826" lon="-3.140893"><ele>245</ele><time>2019-09-27T11:32:28Z</time><name>PT5590</name></trkpt>
<trkpt lat="52.924836" lon="-3.140918"><ele>245</ele><time>2019-09-27T11:32:29Z</time><name>PT5591</name></trkpt>
<trkpt lat="52.924845" lon="-3.140933"><ele>245</ele><time>2019-09-27T11:32:30Z</time><name>PT5592</name></trkpt>
<trkpt lat="52.924851" lon="-3.140950"><ele>244</ele><time>2019-09-27T11:32:31Z</time><name>PT5593</name></trkpt>
<trkpt lat="52.924856" lon="-3.140963"><ele>244</ele><time>2019-09-27T11:32:32Z</time><name>PT5594</name></trkpt>
<trkpt lat="52.924867" lon="-3.140971"><ele>243</ele><time>2019-09-27T11:32:33Z</time><name>PT5595</name></trkpt>
<trkpt lat="52.924876" lon="-3.140972"><ele>242</ele><time>2019-09-27T11:32:34Z</time><name>PT5596</name></trkpt>
<trkpt lat="52.924886" lon="-3.140998"><ele>243</ele><time>2019-09-27T11:32:35Z</time><name>PT5597</name></trkpt>
<trkpt lat="52.924894" lon="-3.141022"><ele>243</ele><time>2019-09-27T11:32:36Z</time><name>PT5598</name></trkpt>
<trkpt lat="52.924905" lon="-3.141036"><ele>242</ele><time>2019-09-27T11:32:37Z</time><name>PT5599</name></trkpt>
<trkpt lat="52.924915" lon="-3.141047"><ele>242</ele><time>2019-09-27T11:32:38Z</time><name>PT5600</name></trkpt>
<trkpt lat="52.924921" lon="-3.141071"><ele>244</ele><time>2019-09-27T11:32:39Z</time><name>PT5601</name></trkpt>
<trkpt lat="52.924929" lon="-3.141089"><ele>244</ele><time>2019-09-27T11:32:40Z</time><name>PT5602</name></trkpt>
<trkpt lat="52.924947" lon="-3.141097"><ele>245</ele><time>2019-09-27T11:32:41Z</time><name>PT5603</name></trkpt>
<trkpt lat="52.924964" lon="-3.141081"><ele>242</ele><time>2019-09-27T11:32:42Z</time><name>PT5604</name></trkpt>
<trkpt lat="52.924973" lon="-3.141090"><ele>242</ele><time>2019-09-27T11:32:43Z</time><name>PT5605</name></trkpt>
<trkpt lat="52.924983" lon="-3.141100"><ele>242</ele><time>2019-09-27T11:32:44Z</time><name>PT5606</name></trkpt>
<trkpt lat="52.924991" lon="-3.141105"><ele>241</ele><time>2019-09-27T11:32:45Z</time><name>PT5607</name></trkpt>
<trkpt lat="52.924994" lon="-3.141110"><ele>240</ele><time>2019-09-27T11:32:46Z</time><name>PT5608</name></trkpt>
<trkpt lat="52.924997" lon="-3.141118"><ele>239</ele><time>2019-09-27T11:32:47Z</time><name>PT5609</name></trkpt>
<trkpt lat="52.925004" lon="-3.141133"><ele>239</ele><time>2019-09-27T11:32:48Z</time><name>PT5610</name></trkpt>
<trkpt lat="52.925011" lon="-3.141150"><ele>239</ele><time>2019-09-27T11:32:49Z</time><name>PT5611</name></trkpt>
<trkpt lat="52.925025" lon="-3.141154"><ele>239</ele><time>2019-09-27T11:32:50Z</time><name>PT5612</name></trkpt>
<trkpt lat="52.925035" lon="-3.141162"><ele>238</ele><time>2019-09-27T11:32:51Z</time><name>PT5613</name></trkpt>
<trkpt lat="52.925046" lon="-3.141161"><ele>237</ele><time>2019-09-27T11:32:52Z</time><name>PT5614</name></trkpt>
<trkpt lat="52.925049" lon="-3.141180"><ele>237</ele><time>2019-09-27T11:32:53Z</time><name>PT5615</name></trkpt>
<trkpt lat="52.925056" lon="-3.141200"><ele>237</ele><time>2019-09-27T11:32:54Z</time><name>PT5616</name></trkpt>
<trkpt lat="52.925069" lon="-3.141226"><ele>239</ele><time>2019-09-27T11:32:55Z</time><name>PT5617</name></trkpt>
<trkpt lat="52.925080" lon="-3.141245"><ele>240</ele><time>2019-09-27T11:32:56Z</time><name>PT5618</name></trkpt>
<trkpt lat="52.925087" lon="-3.141263"><ele>240</ele><time>2019-09-27T11:32:57Z</time><name>PT5619</name></trkpt>
<trkpt lat="52.925099" lon="-3.141286"><ele>242</ele><time>2019-09-27T11:32:58Z</time><name>PT5620</name></trkpt>
<trkpt lat="52.925108" lon="-3.141303"><ele>242</ele><time>2019-09-27T11:32:59Z</time><name>PT5621</name></trkpt>
<trkpt lat="52.925119" lon="-3.141322"><ele>242</ele><time>2019-09-27T11:33:00Z</time><name>PT5622</name></trkpt>
<trkpt lat="52.925127" lon="-3.141348"><ele>243</ele><time>2019-09-27T11:33:01Z</time><name>PT5623</name></trkpt>
<trkpt lat="52.925134" lon="-3.141368"><ele>244</ele><time>2019-09-27T11:33:02Z</time><name>PT5624</name></trkpt>
<trkpt lat="52.925142" lon="-3.141371"><ele>242</ele><time>2019-09-27T11:33:03Z</time><name>PT5625</name></trkpt>
<trkpt lat="52.925150" lon="-3.141387"><ele>242</ele><time>2019-09-27T11:33:04Z</time><name>PT5626</name></trkpt>
<trkpt lat="52.925165" lon="-3.141393"><ele>242</ele><time>2019-09-27T11:33:05Z</time><name>PT5627</name></trkpt>
<trkpt lat="52.925173" lon="-3.141406"><ele>241</ele><time>2019-09-27T11:33:06Z</time><name>PT5628</name></trkpt>
<trkpt lat="52.925181" lon="-3.141416"><ele>241</ele><time>2019-09-27T11:33:07Z</time><name>PT5629</name></trkpt>
<trkpt lat="52.925191" lon="-3.141430"><ele>242</ele><time>2019-09-27T11:33:08Z</time><name>PT5630</name></trkpt>
<trkpt lat="52.925199" lon="-3.141442"><ele>241</ele><time>2019-09-27T11:33:09Z</time><name>PT5631</name></trkpt>
<trkpt lat="52.925205" lon="-3.141458"><ele>241</ele><time>2019-09-27T11:33:10Z</time><name>PT5632</name></trkpt>
<trkpt lat="52.925214" lon="-3.141477"><ele>241</ele><time>2019-09-27T11:33:11Z</time><name>PT5633</name></trkpt>
<trkpt lat="52.925222" lon="-3.141495"><ele>242</ele><time>2019-09-27T11:33:12Z</time><name>PT5634</name></trkpt>
<trkpt lat="52.925229" lon="-3.141506"><ele>242</ele><time>2019-09-27T11:33:13Z</time><name>PT5635</name></trkpt>
<trkpt lat="52.925236" lon="-3.141521"><ele>242</ele><time>2019-09-27T11:33:14Z</time><name>PT5636</name></trkpt>
<trkpt lat="52.925246" lon="-3.141527"><ele>241</ele><time>2019-09-27T11:33:15Z</time><name>PT5637</name></trkpt>
<trkpt lat="52.925256" lon="-3.141536"><ele>242</ele><time>2019-09-27T11:33:16Z</time><name>PT5638</name></trkpt>
<trkpt lat="52.925265" lon="-3.141562"><ele>242</ele><time>2019-09-27T11:33:17Z</time><name>PT5639</name></trkpt>
<trkpt lat="52.925274" lon="-3.141572"><ele>242</ele><time>2019-09-27T11:33:18Z</time><name>PT5640</name></trkpt>
<trkpt lat="52.925284" lon="-3.141580"><ele>242</ele><time>2019-09-27T11:33:19Z</time><name>PT5641</name></trkpt>
<trkpt lat="52.925296" lon="-3.141601"><ele>242</ele><time>2019-09-27T11:33:20Z</time><name>PT5642</name></trkpt>
<trkpt lat="52.925304" lon="-3.141609"><ele>241</ele><time>2019-09-27T11:33:21Z</time><name>PT5643</name></trkpt>
<trkpt lat="52.925313" lon="-3.141606"><ele>241</ele><time>2019-09-27T11:33:22Z</time><name>PT5644</name></trkpt>
<trkpt lat="52.925324" lon="-3.141610"><ele>239</ele><time>2019-09-27T11:33:23Z</time><name>PT5645</name></trkpt>
<trkpt lat="52.925338" lon="-3.141597"><ele>237</ele><time>2019-09-27T11:33:24Z</time><name>PT5646</name></trkpt>
<trkpt lat="52.925346" lon="-3.141598"><ele>236</ele><time>2019-09-27T11:33:25Z</time><name>PT5647</name></trkpt>
<trkpt lat="52.925354" lon="-3.141606"><ele>236</ele><time>2019-09-27T11:33:26Z</time><name>PT5648</name></trkpt>
<trkpt lat="52.925361" lon="-3.141609"><ele>234</ele><time>2019-09-27T11:33:27Z</time><name>PT5649</name></trkpt>
<trkpt lat="52.925367" lon="-3.141620"><ele>233</ele><time>2019-09-27T11:33:28Z</time><name>PT5650</name></trkpt>
<trkpt lat="52.925374" lon="-3.141629"><ele>233</ele><time>2019-09-27T11:33:29Z</time><name>PT5651</name></trkpt>
<trkpt lat="52.925384" lon="-3.141631"><ele>231</ele><time>2019-09-27T11:33:30Z</time><name>PT5652</name></trkpt>
<trkpt lat="52.925394" lon="-3.141640"><ele>231</ele><time>2019-09-27T11:33:31Z</time><name>PT5653</name></trkpt>
<trkpt lat="52.925402" lon="-3.141654"><ele>232</ele><time>2019-09-27T11:33:32Z</time><name>PT5654</name></trkpt>
<trkpt lat="52.925412" lon="-3.141665"><ele>232</ele><time>2019-09-27T11:33:33Z</time><name>PT5655</name></trkpt>
<trkpt lat="52.925427" lon="-3.141693"><ele>234</ele><time>2019-09-27T11:33:34Z</time><name>PT5656</name></trkpt>
<trkpt lat="52.925434" lon="-3.141707"><ele>233</ele><time>2019-09-27T11:33:35Z</time><name>PT5657</name></trkpt>
<trkpt lat="52.925445" lon="-3.141716"><ele>233</ele><time>2019-09-27T11:33:36Z</time><name>PT5658</name></trkpt>
<trkpt lat="52.925459" lon="-3.141726"><ele>233</ele><time>2019-09-27T11:33:37Z</time><name>PT5659</name></trkpt>
<trkpt lat="52.925472" lon="-3.141736"><ele>233</ele><time>2019-09-27T11:33:38Z</time><name>PT5660</name></trkpt>
<trkpt lat="52.925481" lon="-3.141748"><ele>233</ele><time>2019-09-27T11:33:39Z</time><name>PT5661</name></trkpt>
<trkpt lat="52.925486" lon="-3.141748"><ele>231</ele><time>2019-09-27T11:33:40Z</time><name>PT5662</name></trkpt>
<trkpt lat="52.925496" lon="-3.141757"><ele>231</ele><time>2019-09-27T11:33:41Z</time><name>PT5663</name></trkpt>
<trkpt lat="52.925508" lon="-3.141776"><ele>232</ele><time>2019-09-27T11:33:42Z</time><name>PT5664</name></trkpt>
<trkpt lat="52.925515" lon="-3.141790"><ele>232</ele><time>2019-09-27T11:33:43Z</time><name>PT5665</name></trkpt>
<trkpt lat="52.925530" lon="-3.141819"><ele>234</ele><time>2019-09-27T11:33:44Z</time><name>PT5666</name></trkpt>
<trkpt lat="52.925539" lon="-3.141829"><ele>234</ele><time>2019-09-27T11:33:45Z</time><name>PT5667</name></trkpt>
<trkpt lat="52.925551" lon="-3.141819"><ele>231</ele><time>2019-09-27T11:33:46Z</time><name>PT5668</name></trkpt>
<trkpt lat="52.925562" lon="-3.141834"><ele>231</ele><time>2019-09-27T11:33:47Z</time><name>PT5669</name></trkpt>
<trkpt lat="52.925570" lon="-3.141851"><ele>231</ele><time>2019-09-27T11:33:48Z</time><name>PT5670</name></trkpt>
<trkpt lat="52.925583" lon="-3.141868"><ele>231</ele><time>2019-09-27T11:33:49Z</time><name>PT5671</name></trkpt>
<trkpt lat="52.925593" lon="-3.141891"><ele>232</ele><time>2019-09-27T11:33:50Z</time><name>PT5672</name></trkpt>
<trkpt lat="52.925601" lon="-3.141899"><ele>231</ele><time>2019-09-27T11:33:51Z</time><name>PT5673</name></trkpt>
<trkpt lat="52.925615" lon="-3.141909"><ele>231</ele><time>2019-09-27T11:33:52Z</time><name>PT5674</name></trkpt>
<trkpt lat="52.925626" lon="-3.141911"><ele>231</ele><time>2019-09-27T11:33:53Z</time><name>PT5675</name></trkpt>
<trkpt lat="52.925635" lon="-3.141917"><ele>232</ele><time>2019-09-27T11:33:54Z</time><name>PT5676</name></trkpt>
<trkpt lat="52.925643" lon="-3.141919"><ele>231</ele><time>2019-09-27T11:33:55Z</time><name>PT5677</name></trkpt>
<trkpt lat="52.925654" lon="-3.141920"><ele>231</ele><time>2019-09-27T11:33:56Z</time><name>PT5678</name></trkpt>
<trkpt lat="52.925666" lon="-3.141926"><ele>230</ele><time>2019-09-27T11:33:57Z</time><name>PT5679</name></trkpt>
<trkpt lat="52.925680" lon="-3.141931"><ele>230</ele><time>2019-09-27T11:33:58Z</time><name>PT5680</name></trkpt>
<trkpt lat="52.925692" lon="-3.141942"><ele>231</ele><time>2019-09-27T11:33:59Z</time><name>PT5681</name></trkpt>
<trkpt lat="52.925706" lon="-3.141945"><ele>230</ele><time>2019-09-27T11:34:00Z</time><name>PT5682</name></trkpt>
<trkpt lat="52.925714" lon="-3.141945"><ele>229</ele><time>2019-09-27T11:34:01Z</time><name>PT5683</name></trkpt>
<trkpt lat="52.925724" lon="-3.141958"><ele>230</ele><time>2019-09-27T11:34:02Z</time><name>PT5684</name></trkpt>
<trkpt lat="52.925732" lon="-3.141963"><ele>230</ele><time>2019-09-27T11:34:03Z</time><name>PT5685</name></trkpt>
<trkpt lat="52.925749" lon="-3.141984"><ele>231</ele><time>2019-09-27T11:34:04Z</time><name>PT5686</name></trkpt>
<trkpt lat="52.925776" lon="-3.142038"><ele>239</ele><time>2019-09-27T11:34:05Z</time><name>PT5687</name></trkpt>
<trkpt lat="52.925792" lon="-3.142072"><ele>240</ele><time>2019-09-27T11:34:06Z</time><name>PT5688</name></trkpt>
<trkpt lat="52.925801" lon="-3.142090"><ele>241</ele><time>2019-09-27T11:34:07Z</time><name>PT5689</name></trkpt>
<trkpt lat="52.925821" lon="-3.142095"><ele>242</ele><time>2019-09-27T11:34:08Z</time><name>PT5690</name></trkpt>
<trkpt lat="52.925835" lon="-3.142092"><ele>242</ele><time>2019-09-27T11:34:09Z</time><name>PT5691</name></trkpt>
<trkpt lat="52.925846" lon="-3.142101"><ele>240</ele><time>2019-09-27T11:34:10Z</time><name>PT5692</name></trkpt>
<trkpt lat="52.925857" lon="-3.142115"><ele>240</ele><time>2019-09-27T11:34:11Z</time><name>PT5693</name></trkpt>
<trkpt lat="52.925864" lon="-3.142126"><ele>241</ele><time>2019-09-27T11:34:12Z</time><name>PT5694</name></trkpt>
<trkpt lat="52.925876" lon="-3.142119"><ele>240</ele><time>2019-09-27T11:34:13Z</time><name>PT5695</name></trkpt>
<trkpt lat="52.925889" lon="-3.142120"><ele>240</ele><time>2019-09-27T11:34:14Z</time><name>PT5696</name></trkpt>
<trkpt lat="52.925899" lon="-3.142133"><ele>239</ele><time>2019-09-27T11:34:15Z</time><name>PT5697</name></trkpt>
<trkpt lat="52.925905" lon="-3.142146"><ele>240</ele><time>2019-09-27T11:34:16Z</time><name>PT5698</name></trkpt>
<trkpt lat="52.925912" lon="-3.142143"><ele>239</ele><time>2019-09-27T11:34:17Z</time><name>PT5699</name></trkpt>
<trkpt lat="52.925919" lon="-3.142146"><ele>238</ele><time>2019-09-27T11:34:18Z</time><name>PT5700</name></trkpt>
<trkpt lat="52.925930" lon="-3.142191"><ele>238</ele><time>2019-09-27T11:34:19Z</time><name>PT5701</name></trkpt>
<trkpt lat="52.925940" lon="-3.142192"><ele>238</ele><time>2019-09-27T11:34:20Z</time><name>PT5702</name></trkpt>
<trkpt lat="52.925953" lon="-3.142190"><ele>236</ele><time>2019-09-27T11:34:21Z</time><name>PT5703</name></trkpt>
<trkpt lat="52.925968" lon="-3.142206"><ele>237</ele><time>2019-09-27T11:34:22Z</time><name>PT5704</name></trkpt>
<trkpt lat="52.925978" lon="-3.142219"><ele>237</ele><time>2019-09-27T11:34:23Z</time><name>PT5705</name></trkpt>
<trkpt lat="52.925988" lon="-3.142229"><ele>237</ele><time>2019-09-27T11:34:24Z</time><name>PT5706</name></trkpt>
<trkpt lat="52.926000" lon="-3.142227"><ele>235</ele><time>2019-09-27T11:34:25Z</time><name>PT5707</name></trkpt>
<trkpt lat="52.926012" lon="-3.142236"><ele>235</ele><time>2019-09-27T11:34:26Z</time><name>PT5708</name></trkpt>
<trkpt lat="52.926028" lon="-3.142229"><ele>234</ele><time>2019-09-27T11:34:27Z</time><name>PT5709</name></trkpt>
<trkpt lat="52.926043" lon="-3.142229"><ele>234</ele><time>2019-09-27T11:34:28Z</time><name>PT5710</name></trkpt>
<trkpt lat="52.926055" lon="-3.142231"><ele>233</ele><time>2019-09-27T11:34:29Z</time><name>PT5711</name></trkpt>
<trkpt lat="52.926066" lon="-3.142229"><ele>232</ele><time>2019-09-27T11:34:30Z</time><name>PT5712</name></trkpt>
<trkpt lat="52.926073" lon="-3.142225"><ele>230</ele><time>2019-09-27T11:34:31Z</time><name>PT5713</name></trkpt>
<trkpt lat="52.926084" lon="-3.142228"><ele>229</ele><time>2019-09-27T11:34:32Z</time><name>PT5714</name></trkpt>
<trkpt lat="52.926097" lon="-3.142238"><ele>229</ele><time>2019-09-27T11:34:33Z</time><name>PT5715</name></trkpt>
<trkpt lat="52.926107" lon="-3.142240"><ele>229</ele><time>2019-09-27T11:34:34Z</time><name>PT5716</name></trkpt>
<trkpt lat="52.926116" lon="-3.142255"><ele>229</ele><time>2019-09-27T11:34:35Z</time><name>PT5717</name></trkpt>
<trkpt lat="52.926123" lon="-3.142266"><ele>228</ele><time>2019-09-27T11:34:36Z</time><name>PT5718</name></trkpt>
<trkpt lat="52.926132" lon="-3.142272"><ele>228</ele><time>2019-09-27T11:34:37Z</time><name>PT5719</name></trkpt>
<trkpt lat="52.926150" lon="-3.142279"><ele>229</ele><time>2019-09-27T11:34:38Z</time><name>PT5720</name></trkpt>
<trkpt lat="52.926164" lon="-3.142279"><ele>228</ele><time>2019-09-27T11:34:39Z</time><name>PT5721</name></trkpt>
<trkpt lat="52.926176" lon="-3.142277"><ele>228</ele><time>2019-09-27T11:34:40Z</time><name>PT5722</name></trkpt>
<trkpt lat="52.926187" lon="-3.142275"><ele>227</ele><time>2019-09-27T11:34:41Z</time><name>PT5723</name></trkpt>
<trkpt lat="52.926195" lon="-3.142280"><ele>227</ele><time>2019-09-27T11:34:42Z</time><name>PT5724</name></trkpt>
<trkpt lat="52.926202" lon="-3.142282"><ele>226</ele><time>2019-09-27T11:34:43Z</time><name>PT5725</name></trkpt>
<trkpt lat="52.926211" lon="-3.142280"><ele>225</ele><time>2019-09-27T11:34:44Z</time><name>PT5726</name></trkpt>
<trkpt lat="52.926225" lon="-3.142283"><ele>224</ele><time>2019-09-27T11:34:45Z</time><name>PT5727</name></trkpt>
<trkpt lat="52.926233" lon="-3.142289"><ele>223</ele><time>2019-09-27T11:34:46Z</time><name>PT5728</name></trkpt>
<trkpt lat="52.926242" lon="-3.142294"><ele>224</ele><time>2019-09-27T11:34:47Z</time><name>PT5729</name></trkpt>
<trkpt lat="52.926251" lon="-3.142289"><ele>223</ele><time>2019-09-27T11:34:48Z</time><name>PT5730</name></trkpt>
<trkpt lat="52.926261" lon="-3.142285"><ele>222</ele><time>2019-09-27T11:34:49Z</time><name>PT5731</name></trkpt>
<trkpt lat="52.926271" lon="-3.142295"><ele>223</ele><time>2019-09-27T11:34:50Z</time><name>PT5732</name></trkpt>
<trkpt lat="52.926277" lon="-3.142297"><ele>224</ele><time>2019-09-27T11:34:51Z</time><name>PT5733</name></trkpt>
<trkpt lat="52.926290" lon="-3.142304"><ele>224</ele><time>2019-09-27T11:34:52Z</time><name>PT5734</name></trkpt>
<trkpt lat="52.926304" lon="-3.142317"><ele>224</ele><time>2019-09-27T11:34:53Z</time><name>PT5735</name></trkpt>
<trkpt lat="52.926317" lon="-3.142322"><ele>224</ele><time>2019-09-27T11:34:54Z</time><name>PT5736</name></trkpt>
<trkpt lat="52.926328" lon="-3.142326"><ele>224</ele><time>2019-09-27T11:34:55Z</time><name>PT5737</name></trkpt>
<trkpt lat="52.926342" lon="-3.142316"><ele>223</ele><time>2019-09-27T11:34:56Z</time><name>PT5738</name></trkpt>
<trkpt lat="52.926353" lon="-3.142329"><ele>223</ele><time>2019-09-27T11:34:57Z</time><name>PT5739</name></trkpt>
<trkpt lat="52.926361" lon="-3.142336"><ele>223</ele><time>2019-09-27T11:34:58Z</time><name>PT5740</name></trkpt>
<trkpt lat="52.926371" lon="-3.142341"><ele>223</ele><time>2019-09-27T11:34:59Z</time><name>PT5741</name></trkpt>
<trkpt lat="52.926384" lon="-3.142348"><ele>223</ele><time>2019-09-27T11:35:00Z</time><name>PT5742</name></trkpt>
<trkpt lat="52.926398" lon="-3.142359"><ele>223</ele><time>2019-09-27T11:35:01Z</time><name>PT5743</name></trkpt>
<trkpt lat="52.926407" lon="-3.142373"><ele>224</ele><time>2019-09-27T11:35:02Z</time><name>PT5744</name></trkpt>
<trkpt lat="52.926414" lon="-3.142380"><ele>224</ele><time>2019-09-27T11:35:03Z</time><name>PT5745</name></trkpt>
<trkpt lat="52.926424" lon="-3.142365"><ele>222</ele><time>2019-09-27T11:35:04Z</time><name>PT5746</name></trkpt>
<trkpt lat="52.926435" lon="-3.142363"><ele>222</ele><time>2019-09-27T11:35:05Z</time><name>PT5747</name></trkpt>
<trkpt lat="52.926452" lon="-3.142377"><ele>223</ele><time>2019-09-27T11:35:06Z</time><name>PT5748</name></trkpt>
<trkpt lat="52.926465" lon="-3.142378"><ele>222</ele><time>2019-09-27T11:35:07Z</time><name>PT5749</name></trkpt>
<trkpt lat="52.926475" lon="-3.142387"><ele>223</ele><time>2019-09-27T11:35:08Z</time><name>PT5750</name></trkpt>
<trkpt lat="52.926488" lon="-3.142395"><ele>223</ele><time>2019-09-27T11:35:09Z</time><name>PT5751</name></trkpt>
<trkpt lat="52.926496" lon="-3.142394"><ele>223</ele><time>2019-09-27T11:35:10Z</time><name>PT5752</name></trkpt>
<trkpt lat="52.926502" lon="-3.142397"><ele>222</ele><time>2019-09-27T11:35:11Z</time><name>PT5753</name></trkpt>
<trkpt lat="52.926515" lon="-3.142406"><ele>223</ele><time>2019-09-27T11:35:12Z</time><name>PT5754</name></trkpt>
<trkpt lat="52.926542" lon="-3.142442"><ele>227</ele><time>2019-09-27T11:35:13Z</time><name>PT5755</name></trkpt>
<trkpt lat="52.926554" lon="-3.142456"><ele>228</ele><time>2019-09-27T11:35:14Z</time><name>PT5756</name></trkpt>
<trkpt lat="52.926571" lon="-3.142453"><ele>227</ele><time>2019-09-27T11:35:15Z</time><name>PT5757</name></trkpt>
<trkpt lat="52.926582" lon="-3.142455"><ele>227</ele><time>2019-09-27T11:35:16Z</time><name>PT5758</name></trkpt>
<trkpt lat="52.926591" lon="-3.142464"><ele>227</ele><time>2019-09-27T11:35:17Z</time><name>PT5759</name></trkpt>
<trkpt lat="52.926610" lon="-3.142470"><ele>227</ele><time>2019-09-27T11:35:18Z</time><name>PT5760</name></trkpt>
<trkpt lat="52.926626" lon="-3.142486"><ele>228</ele><time>2019-09-27T11:35:19Z</time><name>PT5761</name></trkpt>
<trkpt lat="52.926638" lon="-3.142483"><ele>227</ele><time>2019-09-27T11:35:20Z</time><name>PT5762</name></trkpt>
<trkpt lat="52.926643" lon="-3.142474"><ele>225</ele><time>2019-09-27T11:35:21Z</time><name>PT5763</name></trkpt>
<trkpt lat="52.926652" lon="-3.142470"><ele>224</ele><time>2019-09-27T11:35:22Z</time><name>PT5764</name></trkpt>
<trkpt lat="52.926653" lon="-3.142463"><ele>222</ele><time>2019-09-27T11:35:23Z</time><name>PT5765</name></trkpt>
<trkpt lat="52.926661" lon="-3.142449"><ele>220</ele><time>2019-09-27T11:35:24Z</time><name>PT5766</name></trkpt>
<trkpt lat="52.926669" lon="-3.142448"><ele>219</ele><time>2019-09-27T11:35:25Z</time><name>PT5767</name></trkpt>
<trkpt lat="52.926680" lon="-3.142448"><ele>219</ele><time>2019-09-27T11:35:26Z</time><name>PT5768</name></trkpt>
<trkpt lat="52.926700" lon="-3.142447"><ele>219</ele><time>2019-09-27T11:35:27Z</time><name>PT5769</name></trkpt>
<trkpt lat="52.926708" lon="-3.142446"><ele>219</ele><time>2019-09-27T11:35:28Z</time><name>PT5770</name></trkpt>
<trkpt lat="52.926715" lon="-3.142435"><ele>218</ele><time>2019-09-27T11:35:29Z</time><name>PT5771</name></trkpt>
<trkpt lat="52.926723" lon="-3.142438"><ele>218</ele><time>2019-09-27T11:35:30Z</time><name>PT5772</name></trkpt>
<trkpt lat="52.926737" lon="-3.142446"><ele>218</ele><time>2019-09-27T11:35:31Z</time><name>PT5773</name></trkpt>
<trkpt lat="52.926745" lon="-3.142447"><ele>218</ele><time>2019-09-27T11:35:32Z</time><name>PT5774</name></trkpt>
<trkpt lat="52.926759" lon="-3.142463"><ele>220</ele><time>2019-09-27T11:35:33Z</time><name>PT5775</name></trkpt>
<trkpt lat="52.926765" lon="-3.142461"><ele>219</ele><time>2019-09-27T11:35:34Z</time><name>PT5776</name></trkpt>
<trkpt lat="52.926780" lon="-3.142469"><ele>219</ele><time>2019-09-27T11:35:35Z</time><name>PT5777</name></trkpt>
<trkpt lat="52.926793" lon="-3.142475"><ele>219</ele><time>2019-09-27T11:35:36Z</time><name>PT5778</name></trkpt>
<trkpt lat="52.926801" lon="-3.142481"><ele>218</ele><time>2019-09-27T11:35:37Z</time><name>PT5779</name></trkpt>
<trkpt lat="52.926814" lon="-3.142491"><ele>218</ele><time>2019-09-27T11:35:38Z</time><name>PT5780</name></trkpt>
<trkpt lat="52.926820" lon="-3.142491"><ele>217</ele><time>2019-09-27T11:35:39Z</time><name>PT5781</name></trkpt>
<trkpt lat="52.926829" lon="-3.142488"><ele>216</ele><time>2019-09-27T11:35:40Z</time><name>PT5782</name></trkpt>
<trkpt lat="52.926840" lon="-3.142484"><ele>215</ele><time>2019-09-27T11:35:41Z</time><name>PT5783</name></trkpt>
<trkpt lat="52.926853" lon="-3.142486"><ele>215</ele><time>2019-09-27T11:35:42Z</time><name>PT5784</name></trkpt>
<trkpt lat="52.926859" lon="-3.142486"><ele>214</ele><time>2019-09-27T11:35:43Z</time><name>PT5785</name></trkpt>
<trkpt lat="52.926866" lon="-3.142486"><ele>214</ele><time>2019-09-27T11:35:44Z</time><name>PT5786</name></trkpt>
<trkpt lat="52.926874" lon="-3.142480"><ele>214</ele><time>2019-09-27T11:35:45Z</time><name>PT5787</name></trkpt>
<trkpt lat="52.926888" lon="-3.142458"><ele>213</ele><time>2019-09-27T11:35:46Z</time><name>PT5788</name></trkpt>
<trkpt lat="52.926902" lon="-3.142451"><ele>212</ele><time>2019-09-27T11:35:47Z</time><name>PT5789</name></trkpt>
<trkpt lat="52.926916" lon="-3.142462"><ele>213</ele><time>2019-09-27T11:35:48Z</time><name>PT5790</name></trkpt>
<trkpt lat="52.926923" lon="-3.142471"><ele>213</ele><time>2019-09-27T11:35:49Z</time><name>PT5791</name></trkpt>
<trkpt lat="52.926927" lon="-3.142477"><ele>213</ele><time>2019-09-27T11:35:50Z</time><name>PT5792</name></trkpt>
<trkpt lat="52.926934" lon="-3.142479"><ele>213</ele><time>2019-09-27T11:35:51Z</time><name>PT5793</name></trkpt>
<trkpt lat="52.926959" lon="-3.142504"><ele>215</ele><time>2019-09-27T11:35:52Z</time><name>PT5794</name></trkpt>
<trkpt lat="52.926976" lon="-3.142513"><ele>215</ele><time>2019-09-27T11:35:53Z</time><name>PT5795</name></trkpt>
<trkpt lat="52.926982" lon="-3.142514"><ele>215</ele><time>2019-09-27T11:35:54Z</time><name>PT5796</name></trkpt>
<trkpt lat="52.926994" lon="-3.142539"><ele>216</ele><time>2019-09-27T11:35:55Z</time><name>PT5797</name></trkpt>
<trkpt lat="52.927007" lon="-3.142561"><ele>217</ele><time>2019-09-27T11:35:56Z</time><name>PT5798</name></trkpt>
<trkpt lat="52.927016" lon="-3.142579"><ele>217</ele><time>2019-09-27T11:35:57Z</time><name>PT5799</name></trkpt>
<trkpt lat="52.927031" lon="-3.142599"><ele>218</ele><time>2019-09-27T11:35:58Z</time><name>PT5800</name></trkpt>
<trkpt lat="52.927040" lon="-3.142610"><ele>218</ele><time>2019-09-27T11:35:59Z</time><name>PT5801</name></trkpt>
<trkpt lat="52.927054" lon="-3.142621"><ele>218</ele><time>2019-09-27T11:36:00Z</time><name>PT5802</name></trkpt>
<trkpt lat="52.927062" lon="-3.142619"><ele>217</ele><time>2019-09-27T11:36:01Z</time><name>PT5803</name></trkpt>
<trkpt lat="52.927069" lon="-3.142618"><ele>216</ele><time>2019-09-27T11:36:02Z</time><name>PT5804</name></trkpt>
<trkpt lat="52.927080" lon="-3.142626"><ele>216</ele><time>2019-09-27T11:36:03Z</time><name>PT5805</name></trkpt>
<trkpt lat="52.927093" lon="-3.142653"><ele>217</ele><time>2019-09-27T11:36:04Z</time><name>PT5806</name></trkpt>
<trkpt lat="52.927095" lon="-3.142664"><ele>216</ele><time>2019-09-27T11:36:05Z</time><name>PT5807</name></trkpt>
<trkpt lat="52.927108" lon="-3.142665"><ele>216</ele><time>2019-09-27T11:36:06Z</time><name>PT5808</name></trkpt>
<trkpt lat="52.927119" lon="-3.142670"><ele>216</ele><time>2019-09-27T11:36:07Z</time><name>PT5809</name></trkpt>
<trkpt lat="52.927135" lon="-3.142673"><ele>216</ele><time>2019-09-27T11:36:08Z</time><name>PT5810</name></trkpt>
<trkpt lat="52.927145" lon="-3.142667"><ele>215</ele><time>2019-09-27T11:36:09Z</time><name>PT5811</name></trkpt>
<trkpt lat="52.927158" lon="-3.142665"><ele>215</ele><time>2019-09-27T11:36:10Z</time><name>PT5812</name></trkpt>
<trkpt lat="52.927169" lon="-3.142663"><ele>214</ele><time>2019-09-27T11:36:11Z</time><name>PT5813</name></trkpt>
<trkpt lat="52.927182" lon="-3.142670"><ele>214</ele><time>2019-09-27T11:36:12Z</time><name>PT5814</name></trkpt>
<trkpt lat="52.927196" lon="-3.142684"><ele>215</ele><time>2019-09-27T11:36:13Z</time><name>PT5815</name></trkpt>
<trkpt lat="52.927202" lon="-3.142679"><ele>213</ele><time>2019-09-27T11:36:14Z</time><name>PT5816</name></trkpt>
<trkpt lat="52.927205" lon="-3.142675"><ele>212</ele><time>2019-09-27T11:36:15Z</time><name>PT5817</name></trkpt>
<trkpt lat="52.927218" lon="-3.142688"><ele>212</ele><time>2019-09-27T11:36:16Z</time><name>PT5818</name></trkpt>
<trkpt lat="52.927229" lon="-3.142688"><ele>211</ele><time>2019-09-27T11:36:17Z</time><name>PT5819</name></trkpt>
<trkpt lat="52.927241" lon="-3.142688"><ele>210</ele><time>2019-09-27T11:36:18Z</time><name>PT5820</name></trkpt>
<trkpt lat="52.927248" lon="-3.142688"><ele>210</ele><time>2019-09-27T11:36:19Z</time><name>PT5821</name></trkpt>
<trkpt lat="52.927266" lon="-3.142689"><ele>210</ele><time>2019-09-27T11:36:20Z</time><name>PT5822</name></trkpt>
<trkpt lat="52.927272" lon="-3.142687"><ele>210</ele><time>2019-09-27T11:36:21Z</time><name>PT5823</name></trkpt>
<trkpt lat="52.927273" lon="-3.142670"><ele>208</ele><time>2019-09-27T11:36:22Z</time><name>PT5824</name></trkpt>
<trkpt lat="52.927281" lon="-3.142679"><ele>209</ele><time>2019-09-27T11:36:23Z</time><name>PT5825</name></trkpt>
<trkpt lat="52.927293" lon="-3.142687"><ele>209</ele><time>2019-09-27T11:36:24Z</time><name>PT5826</name></trkpt>
<trkpt lat="52.927300" lon="-3.142689"><ele>209</ele><time>2019-09-27T11:36:25Z</time><name>PT5827</name></trkpt>
<trkpt lat="52.927308" lon="-3.142693"><ele>208</ele><time>2019-09-27T11:36:26Z</time><name>PT5828</name></trkpt>
<trkpt lat="52.927316" lon="-3.142691"><ele>207</ele><time>2019-09-27T11:36:27Z</time><name>PT5829</name></trkpt>
<trkpt lat="52.927338" lon="-3.142710"><ele>209</ele><time>2019-09-27T11:36:28Z</time><name>PT5830</name></trkpt>
<trkpt lat="52.927361" lon="-3.142729"><ele>211</ele><time>2019-09-27T11:36:29Z</time><name>PT5831</name></trkpt>
<trkpt lat="52.927383" lon="-3.142743"><ele>212</ele><time>2019-09-27T11:36:30Z</time><name>PT5832</name></trkpt>
<trkpt lat="52.927389" lon="-3.142749"><ele>211</ele><time>2019-09-27T11:36:31Z</time><name>PT5833</name></trkpt>
<trkpt lat="52.927404" lon="-3.142765"><ele>212</ele><time>2019-09-27T11:36:32Z</time><name>PT5834</name></trkpt>
<trkpt lat="52.927416" lon="-3.142780"><ele>213</ele><time>2019-09-27T11:36:33Z</time><name>PT5835</name></trkpt>
<trkpt lat="52.927434" lon="-3.142785"><ele>213</ele><time>2019-09-27T11:36:34Z</time><name>PT5836</name></trkpt>
<trkpt lat="52.927445" lon="-3.142784"><ele>212</ele><time>2019-09-27T11:36:35Z</time><name>PT5837</name></trkpt>
<trkpt lat="52.927453" lon="-3.142777"><ele>211</ele><time>2019-09-27T11:36:36Z</time><name>PT5838</name></trkpt>
<trkpt lat="52.927464" lon="-3.142769"><ele>211</ele><time>2019-09-27T11:36:37Z</time><name>PT5839</name></trkpt>
<trkpt lat="52.927479" lon="-3.142752"><ele>210</ele><time>2019-09-27T11:36:38Z</time><name>PT5840</name></trkpt>
<trkpt lat="52.927489" lon="-3.142752"><ele>210</ele><time>2019-09-27T11:36:39Z</time><name>PT5841</name></trkpt>
<trkpt lat="52.927509" lon="-3.142756"><ele>210</ele><time>2019-09-27T11:36:40Z</time><name>PT5842</name></trkpt>
<trkpt lat="52.927527" lon="-3.142762"><ele>211</ele><time>2019-09-27T11:36:41Z</time><name>PT5843</name></trkpt>
<trkpt lat="52.927541" lon="-3.142769"><ele>211</ele><time>2019-09-27T11:36:42Z</time><name>PT5844</name></trkpt>
<trkpt lat="52.927550" lon="-3.142765"><ele>211</ele><time>2019-09-27T11:36:43Z</time><name>PT5845</name></trkpt>
<trkpt lat="52.927565" lon="-3.142767"><ele>211</ele><time>2019-09-27T11:36:44Z</time><name>PT5846</name></trkpt>
<trkpt lat="52.927580" lon="-3.142771"><ele>212</ele><time>2019-09-27T11:36:45Z</time><name>PT5847</name></trkpt>
<trkpt lat="52.927592" lon="-3.142773"><ele>212</ele><time>2019-09-27T11:36:46Z</time><name>PT5848</name></trkpt>
<trkpt lat="52.927603" lon="-3.142778"><ele>212</ele><time>2019-09-27T11:36:47Z</time><name>PT5849</name></trkpt>
<trkpt lat="52.927612" lon="-3.142792"><ele>212</ele><time>2019-09-27T11:36:48Z</time><name>PT5850</name></trkpt>
<trkpt lat="52.927619" lon="-3.142803"><ele>212</ele><time>2019-09-27T11:36:49Z</time><name>PT5851</name></trkpt>
<trkpt lat="52.927624" lon="-3.142804"><ele>211</ele><time>2019-09-27T11:36:50Z</time><name>PT5852</name></trkpt>
<trkpt lat="52.927632" lon="-3.142815"><ele>212</ele><time>2019-09-27T11:36:51Z</time><name>PT5853</name></trkpt>
<trkpt lat="52.927646" lon="-3.142817"><ele>212</ele><time>2019-09-27T11:36:52Z</time><name>PT5854</name></trkpt>
<trkpt lat="52.927648" lon="-3.142829"><ele>212</ele><time>2019-09-27T11:36:53Z</time><name>PT5855</name></trkpt>
<trkpt lat="52.927652" lon="-3.142835"><ele>212</ele><time>2019-09-27T11:36:54Z</time><name>PT5856</name></trkpt>
<trkpt lat="52.927662" lon="-3.142839"><ele>211</ele><time>2019-09-27T11:36:55Z</time><name>PT5857</name></trkpt>
<trkpt lat="52.927668" lon="-3.142839"><ele>211</ele><time>2019-09-27T11:36:56Z</time><name>PT5858</name></trkpt>
<trkpt lat="52.927683" lon="-3.142845"><ele>212</ele><time>2019-09-27T11:36:57Z</time><name>PT5859</name></trkpt>
<trkpt lat="52.927689" lon="-3.142837"><ele>211</ele><time>2019-09-27T11:36:58Z</time><name>PT5860</name></trkpt>
<trkpt lat="52.927700" lon="-3.142819"><ele>210</ele><time>2019-09-27T11:36:59Z</time><name>PT5861</name></trkpt>
<trkpt lat="52.927709" lon="-3.142817"><ele>208</ele><time>2019-09-27T11:37:00Z</time><name>PT5862</name></trkpt>
<trkpt lat="52.927718" lon="-3.142810"><ele>207</ele><time>2019-09-27T11:37:01Z</time><name>PT5863</name></trkpt>
<trkpt lat="52.927724" lon="-3.142805"><ele>206</ele><time>2019-09-27T11:37:02Z</time><name>PT5864</name></trkpt>
<trkpt lat="52.927733" lon="-3.142807"><ele>206</ele><time>2019-09-27T11:37:03Z</time><name>PT5865</name></trkpt>
<trkpt lat="52.927746" lon="-3.142804"><ele>207</ele><time>2019-09-27T11:37:04Z</time><name>PT5866</name></trkpt>
<trkpt lat="52.927756" lon="-3.142791"><ele>206</ele><time>2019-09-27T11:37:05Z</time><name>PT5867</name></trkpt>
<trkpt lat="52.927768" lon="-3.142791"><ele>206</ele><time>2019-09-27T11:37:06Z</time><name>PT5868</name></trkpt>
<trkpt lat="52.927784" lon="-3.142789"><ele>206</ele><time>2019-09-27T11:37:07Z</time><name>PT5869</name></trkpt>
<trkpt lat="52.927791" lon="-3.142777"><ele>204</ele><time>2019-09-27T11:37:08Z</time><name>PT5870</name></trkpt>
<trkpt lat="52.927803" lon="-3.142770"><ele>204</ele><time>2019-09-27T11:37:09Z</time><name>PT5871</name></trkpt>
<trkpt lat="52.927818" lon="-3.142773"><ele>205</ele><time>2019-09-27T11:37:10Z</time><name>PT5872</name></trkpt>
<trkpt lat="52.927831" lon="-3.142770"><ele>205</ele><time>2019-09-27T11:37:11Z</time><name>PT5873</name></trkpt>
<trkpt lat="52.927836" lon="-3.142759"><ele>203</ele><time>2019-09-27T11:37:12Z</time><name>PT5874</name></trkpt>
<trkpt lat="52.927843" lon="-3.142752"><ele>202</ele><time>2019-09-27T11:37:13Z</time><name>PT5875</name></trkpt>
<trkpt lat="52.927862" lon="-3.142775"><ele>204</ele><time>2019-09-27T11:37:14Z</time><name>PT5876</name></trkpt>
<trkpt lat="52.927873" lon="-3.142766"><ele>203</ele><time>2019-09-27T11:37:15Z</time><name>PT5877</name></trkpt>
<trkpt lat="52.927880" lon="-3.142769"><ele>202</ele><time>2019-09-27T11:37:16Z</time><name>PT5878</name></trkpt>
<trkpt lat="52.927888" lon="-3.142769"><ele>202</ele><time>2019-09-27T11:37:17Z</time><name>PT5879</name></trkpt>
<trkpt lat="52.927893" lon="-3.142778"><ele>202</ele><time>2019-09-27T11:37:18Z</time><name>PT5880</name></trkpt>
<trkpt lat="52.927898" lon="-3.142803"><ele>202</ele><time>2019-09-27T11:37:19Z</time><name>PT5881</name></trkpt>
<trkpt lat="52.927907" lon="-3.142796"><ele>202</ele><time>2019-09-27T11:37:20Z</time><name>PT5882</name></trkpt>
<trkpt lat="52.927928" lon="-3.142779"><ele>201</ele><time>2019-09-27T11:37:21Z</time><name>PT5883</name></trkpt>
<trkpt lat="52.927938" lon="-3.142769"><ele>200</ele><time>2019-09-27T11:37:22Z</time><name>PT5884</name></trkpt>
<trkpt lat="52.927945" lon="-3.142751"><ele>198</ele><time>2019-09-27T11:37:23Z</time><name>PT5885</name></trkpt>
<trkpt lat="52.927953" lon="-3.142734"><ele>196</ele><time>2019-09-27T11:37:24Z</time><name>PT5886</name></trkpt>
<trkpt lat="52.927966" lon="-3.142730"><ele>196</ele><time>2019-09-27T11:37:25Z</time><name>PT5887</name></trkpt>
<trkpt lat="52.927975" lon="-3.142730"><ele>195</ele><time>2019-09-27T11:37:26Z</time><name>PT5888</name></trkpt>
<trkpt lat="52.927976" lon="-3.142713"><ele>192</ele><time>2019-09-27T11:37:27Z</time><name>PT5889</name></trkpt>
<trkpt lat="52.927985" lon="-3.142700"><ele>192</ele><time>2019-09-27T11:37:28Z</time><name>PT5890</name></trkpt>
<trkpt lat="52.927995" lon="-3.142701"><ele>192</ele><time>2019-09-27T11:37:29Z</time><name>PT5891</name></trkpt>
<trkpt lat="52.928008" lon="-3.142704"><ele>192</ele><time>2019-09-27T11:37:30Z</time><name>PT5892</name></trkpt>
<trkpt lat="52.928019" lon="-3.142709"><ele>192</ele><time>2019-09-27T11:37:31Z</time><name>PT5893</name></trkpt>
<trkpt lat="52.928023" lon="-3.142704"><ele>191</ele><time>2019-09-27T11:37:32Z</time><name>PT5894</name></trkpt>
<trkpt lat="52.928038" lon="-3.142700"><ele>191</ele><time>2019-09-27T11:37:33Z</time><name>PT5895</name></trkpt>
<trkpt lat="52.928048" lon="-3.142699"><ele>191</ele><time>2019-09-27T11:37:34Z</time><name>PT5896</name></trkpt>
<trkpt lat="52.928056" lon="-3.142691"><ele>191</ele><time>2019-09-27T11:37:35Z</time><name>PT5897</name></trkpt>
<trkpt lat="52.928057" lon="-3.142689"><ele>190</ele><time>2019-09-27T11:37:36Z</time><name>PT5898</name></trkpt>
<trkpt lat="52.928065" lon="-3.142679"><ele>189</ele><time>2019-09-27T11:37:37Z</time><name>PT5899</name></trkpt>
<trkpt lat="52.928075" lon="-3.142685"><ele>189</ele><time>2019-09-27T11:37:38Z</time><name>PT5900</name></trkpt>
<trkpt lat="52.928083" lon="-3.142685"><ele>188</ele><time>2019-09-27T11:37:39Z</time><name>PT5901</name></trkpt>
<trkpt lat="52.928100" lon="-3.142691"><ele>189</ele><time>2019-09-27T11:37:40Z</time><name>PT5902</name></trkpt>
<trkpt lat="52.928100" lon="-3.142695"><ele>188</ele><time>2019-09-27T11:37:41Z</time><name>PT5903</name></trkpt>
<trkpt lat="52.928116" lon="-3.142689"><ele>189</ele><time>2019-09-27T11:37:42Z</time><name>PT5904</name></trkpt>
<trkpt lat="52.928137" lon="-3.142711"><ele>191</ele><time>2019-09-27T11:37:43Z</time><name>PT5905</name></trkpt>
<trkpt lat="52.928157" lon="-3.142732"><ele>192</ele><time>2019-09-27T11:37:44Z</time><name>PT5906</name></trkpt>
<trkpt lat="52.928167" lon="-3.142731"><ele>192</ele><time>2019-09-27T11:37:45Z</time><name>PT5907</name></trkpt>
<trkpt lat="52.928172" lon="-3.142732"><ele>191</ele><time>2019-09-27T11:37:46Z</time><name>PT5908</name></trkpt>
<trkpt lat="52.928186" lon="-3.142735"><ele>192</ele><time>2019-09-27T11:37:47Z</time><name>PT5909</name></trkpt>
<trkpt lat="52.928193" lon="-3.142730"><ele>191</ele><time>2019-09-27T11:37:48Z</time><name>PT5910</name></trkpt>
<trkpt lat="52.928203" lon="-3.142713"><ele>191</ele><time>2019-09-27T11:37:49Z</time><name>PT5911</name></trkpt>
<trkpt lat="52.928211" lon="-3.142707"><ele>190</ele><time>2019-09-27T11:37:50Z</time><name>PT5912</name></trkpt>
<trkpt lat="52.928216" lon="-3.142689"><ele>189</ele><time>2019-09-27T11:37:51Z</time><name>PT5913</name></trkpt>
<trkpt lat="52.928215" lon="-3.142713"><ele>189</ele><time>2019-09-27T11:37:52Z</time><name>PT5914</name></trkpt>
<trkpt lat="52.928229" lon="-3.142723"><ele>189</ele><time>2019-09-27T11:37:53Z</time><name>PT5915</name></trkpt>
<trkpt lat="52.928234" lon="-3.142731"><ele>190</ele><time>2019-09-27T11:37:54Z</time><name>PT5916</name></trkpt>
<trkpt lat="52.928253" lon="-3.142734"><ele>190</ele><time>2019-09-27T11:37:55Z</time><name>PT5917</name></trkpt>
<trkpt lat="52.928260" lon="-3.142742"><ele>190</ele><time>2019-09-27T11:37:56Z</time><name>PT5918</name></trkpt>
<trkpt lat="52.928264" lon="-3.142758"><ele>191</ele><time>2019-09-27T11:37:57Z</time><name>PT5919</name></trkpt>
<trkpt lat="52.928294" lon="-3.142766"><ele>193</ele><time>2019-09-27T11:37:58Z</time><name>PT5920</name></trkpt>
<trkpt lat="52.928300" lon="-3.142771"><ele>194</ele><time>2019-09-27T11:37:59Z</time><name>PT5921</name></trkpt>
<trkpt lat="52.928319" lon="-3.142784"><ele>195</ele><time>2019-09-27T11:38:00Z</time><name>PT5922</name></trkpt>
<trkpt lat="52.928329" lon="-3.142790"><ele>196</ele><time>2019-09-27T11:38:01Z</time><name>PT5923</name></trkpt>
<trkpt lat="52.928341" lon="-3.142794"><ele>196</ele><time>2019-09-27T11:38:02Z</time><name>PT5924</name></trkpt>
<trkpt lat="52.928364" lon="-3.142795"><ele>198</ele><time>2019-09-27T11:38:03Z</time><name>PT5925</name></trkpt>
<trkpt lat="52.928394" lon="-3.142792"><ele>199</ele><time>2019-09-27T11:38:04Z</time><name>PT5926</name></trkpt>
<trkpt lat="52.928407" lon="-3.142793"><ele>199</ele><time>2019-09-27T11:38:05Z</time><name>PT5927</name></trkpt>
<trkpt lat="52.928424" lon="-3.142788"><ele>199</ele><time>2019-09-27T11:38:06Z</time><name>PT5928</name></trkpt>
<trkpt lat="52.928445" lon="-3.142788"><ele>200</ele><time>2019-09-27T11:38:07Z</time><name>PT5929</name></trkpt>
<trkpt lat="52.928471" lon="-3.142791"><ele>202</ele><time>2019-09-27T11:38:08Z</time><name>PT5930</name></trkpt>
<trkpt lat="52.928486" lon="-3.142785"><ele>202</ele><time>2019-09-27T11:38:09Z</time><name>PT5931</name></trkpt>
<trkpt lat="52.928506" lon="-3.142789"><ele>203</ele><time>2019-09-27T11:38:10Z</time><name>PT5932</name></trkpt>
<trkpt lat="52.928528" lon="-3.142787"><ele>204</ele><time>2019-09-27T11:38:11Z</time><name>PT5933</name></trkpt>
<trkpt lat="52.928549" lon="-3.142778"><ele>205</ele><time>2019-09-27T11:38:12Z</time><name>PT5934</name></trkpt>
<trkpt lat="52.928567" lon="-3.142771"><ele>205</ele><time>2019-09-27T11:38:13Z</time><name>PT5935</name></trkpt>
<trkpt lat="52.928582" lon="-3.142770"><ele>205</ele><time>2019-09-27T11:38:14Z</time><name>PT5936</name></trkpt>
<trkpt lat="52.928597" lon="-3.142769"><ele>205</ele><time>2019-09-27T11:38:15Z</time><name>PT5937</name></trkpt>
<trkpt lat="52.928607" lon="-3.142776"><ele>206</ele><time>2019-09-27T11:38:16Z</time><name>PT5938</name></trkpt>
<trkpt lat="52.928626" lon="-3.142779"><ele>207</ele><time>2019-09-27T11:38:17Z</time><name>PT5939</name></trkpt>
<trkpt lat="52.928638" lon="-3.142784"><ele>207</ele><time>2019-09-27T11:38:18Z</time><name>PT5940</name></trkpt>
<trkpt lat="52.928653" lon="-3.142777"><ele>207</ele><time>2019-09-27T11:38:19Z</time><name>PT5941</name></trkpt>
<trkpt lat="52.928656" lon="-3.142779"><ele>207</ele><time>2019-09-27T11:38:20Z</time><name>PT5942</name></trkpt>
<trkpt lat="52.928668" lon="-3.142772"><ele>206</ele><time>2019-09-27T11:38:21Z</time><name>PT5943</name></trkpt>
<trkpt lat="52.928690" lon="-3.142769"><ele>207</ele><time>2019-09-27T11:38:22Z</time><name>PT5944</name></trkpt>
<trkpt lat="52.928708" lon="-3.142765"><ele>208</ele><time>2019-09-27T11:38:23Z</time><name>PT5945</name></trkpt>
<trkpt lat="52.928719" lon="-3.142759"><ele>208</ele><time>2019-09-27T11:38:24Z</time><name>PT5946</name></trkpt>
<trkpt lat="52.928729" lon="-3.142750"><ele>207</ele><time>2019-09-27T11:38:25Z</time><name>PT5947</name></trkpt>
<trkpt lat="52.928736" lon="-3.142746"><ele>208</ele><time>2019-09-27T11:38:26Z</time><name>PT5948</name></trkpt>
<trkpt lat="52.928744" lon="-3.142747"><ele>207</ele><time>2019-09-27T11:38:27Z</time><name>PT5949</name></trkpt>
<trkpt lat="52.928758" lon="-3.142750"><ele>207</ele><time>2019-09-27T11:38:28Z</time><name>PT5950</name></trkpt>
<trkpt lat="52.928777" lon="-3.142735"><ele>208</ele><time>2019-09-27T11:38:29Z</time><name>PT5951</name></trkpt>
<trkpt lat="52.928791" lon="-3.142729"><ele>208</ele><time>2019-09-27T11:38:30Z</time><name>PT5952</name></trkpt>
<trkpt lat="52.928808" lon="-3.142724"><ele>208</ele><time>2019-09-27T11:38:31Z</time><name>PT5953</name></trkpt>
<trkpt lat="52.928818" lon="-3.142718"><ele>207</ele><time>2019-09-27T11:38:32Z</time><name>PT5954</name></trkpt>
<trkpt lat="52.928827" lon="-3.142715"><ele>207</ele><time>2019-09-27T11:38:33Z</time><name>PT5955</name></trkpt>
<trkpt lat="52.928833" lon="-3.142708"><ele>207</ele><time>2019-09-27T11:38:34Z</time><name>PT5956</name></trkpt>
<trkpt lat="52.928839" lon="-3.142708"><ele>207</ele><time>2019-09-27T11:38:35Z</time><name>PT5957</name></trkpt>
<trkpt lat="52.928853" lon="-3.142713"><ele>207</ele><time>2019-09-27T11:38:36Z</time><name>PT5958</name></trkpt>
<trkpt lat="52.928864" lon="-3.142708"><ele>207</ele><time>2019-09-27T11:38:37Z</time><name>PT5959</name></trkpt>
<trkpt lat="52.928877" lon="-3.142703"><ele>208</ele><time>2019-09-27T11:38:38Z</time><name>PT5960</name></trkpt>
<trkpt lat="52.928889" lon="-3.142698"><ele>208</ele><time>2019-09-27T11:38:39Z</time><name>PT5961</name></trkpt>
<trkpt lat="52.928902" lon="-3.142693"><ele>208</ele><time>2019-09-27T11:38:40Z</time><name>PT5962</name></trkpt>
<trkpt lat="52.928922" lon="-3.142693"><ele>209</ele><time>2019-09-27T11:38:41Z</time><name>PT5963</name></trkpt>
<trkpt lat="52.928943" lon="-3.142689"><ele>210</ele><time>2019-09-27T11:38:42Z</time><name>PT5964</name></trkpt>
<trkpt lat="52.928949" lon="-3.142688"><ele>209</ele><time>2019-09-27T11:38:43Z</time><name>PT5965</name></trkpt>
<trkpt lat="52.928954" lon="-3.142681"><ele>209</ele><time>2019-09-27T11:38:44Z</time><name>PT5966</name></trkpt>
<trkpt lat="52.928966" lon="-3.142678"><ele>209</ele><time>2019-09-27T11:38:45Z</time><name>PT5967</name></trkpt>
<trkpt lat="52.928978" lon="-3.142680"><ele>209</ele><time>2019-09-27T11:38:46Z</time><name>PT5968</name></trkpt>
<trkpt lat="52.928989" lon="-3.142681"><ele>209</ele><time>2019-09-27T11:38:47Z</time><name>PT5969</name></trkpt>
<trkpt lat="52.928996" lon="-3.142679"><ele>209</ele><time>2019-09-27T11:38:48Z</time><name>PT5970</name></trkpt>
<trkpt lat="52.929002" lon="-3.142692"><ele>209</ele><time>2019-09-27T11:38:49Z</time><name>PT5971</name></trkpt>
<trkpt lat="52.929006" lon="-3.142696"><ele>208</ele><time>2019-09-27T11:38:50Z</time><name>PT5972</name></trkpt>
<trkpt lat="52.929018" lon="-3.142688"><ele>208</ele><time>2019-09-27T11:38:51Z</time><name>PT5973</name></trkpt>
<trkpt lat="52.929029" lon="-3.142677"><ele>207</ele><time>2019-09-27T11:38:52Z</time><name>PT5974</name></trkpt>
<trkpt lat="52.929048" lon="-3.142675"><ele>208</ele><time>2019-09-27T11:38:53Z</time><name>PT5975</name></trkpt>
<trkpt lat="52.929063" lon="-3.142666"><ele>208</ele><time>2019-09-27T11:38:54Z</time><name>PT5976</name></trkpt>
<trkpt lat="52.929072" lon="-3.142668"><ele>208</ele><time>2019-09-27T11:38:55Z</time><name>PT5977</name></trkpt>
<trkpt lat="52.929081" lon="-3.142669"><ele>207</ele><time>2019-09-27T11:38:56Z</time><name>PT5978</name></trkpt>
<trkpt lat="52.929090" lon="-3.142667"><ele>207</ele><time>2019-09-27T11:38:57Z</time><name>PT5979</name></trkpt>
<trkpt lat="52.929102" lon="-3.142659"><ele>207</ele><time>2019-09-27T11:38:58Z</time><name>PT5980</name></trkpt>
<trkpt lat="52.929110" lon="-3.142653"><ele>206</ele><time>2019-09-27T11:38:59Z</time><name>PT5981</name></trkpt>
<trkpt lat="52.929126" lon="-3.142632"><ele>203</ele><time>2019-09-27T11:39:04Z</time><name>PT5982</name></trkpt>
<trkpt lat="52.929161" lon="-3.142630"><ele>202</ele><time>2019-09-27T11:39:05Z</time><name>PT5983</name></trkpt>
<trkpt lat="52.929194" lon="-3.142624"><ele>201</ele><time>2019-09-27T11:39:06Z</time><name>PT5984</name></trkpt>
<trkpt lat="52.929219" lon="-3.142618"><ele>200</ele><time>2019-09-27T11:39:07Z</time><name>PT5985</name></trkpt>
<trkpt lat="52.929233" lon="-3.142613"><ele>199</ele><time>2019-09-27T11:39:08Z</time><name>PT5986</name></trkpt>
<trkpt lat="52.929242" lon="-3.142603"><ele>198</ele><time>2019-09-27T11:39:09Z</time><name>PT5987</name></trkpt>
<trkpt lat="52.929254" lon="-3.142602"><ele>198</ele><time>2019-09-27T11:39:10Z</time><name>PT5988</name></trkpt>
<trkpt lat="52.929258" lon="-3.142601"><ele>197</ele><time>2019-09-27T11:39:11Z</time><name>PT5989</name></trkpt>
<trkpt lat="52.929281" lon="-3.142588"><ele>197</ele><time>2019-09-27T11:39:12Z</time><name>PT5990</name></trkpt>
<trkpt lat="52.929286" lon="-3.142579"><ele>198</ele><time>2019-09-27T11:39:13Z</time><name>PT5991</name></trkpt>
<trkpt lat="52.929303" lon="-3.142568"><ele>197</ele><time>2019-09-27T11:39:14Z</time><name>PT5992</name></trkpt>
<trkpt lat="52.929310" lon="-3.142565"><ele>197</ele><time>2019-09-27T11:39:15Z</time><name>PT5993</name></trkpt>
<trkpt lat="52.929324" lon="-3.142560"><ele>196</ele><time>2019-09-27T11:39:16Z</time><name>PT5994</name></trkpt>
<trkpt lat="52.929331" lon="-3.142557"><ele>196</ele><time>2019-09-27T11:39:17Z</time><name>PT5995</name></trkpt>
<trkpt lat="52.929342" lon="-3.142549"><ele>196</ele><time>2019-09-27T11:39:18Z</time><name>PT5996</name></trkpt>
<trkpt lat="52.929367" lon="-3.142535"><ele>195</ele><time>2019-09-27T11:39:19Z</time><name>PT5997</name></trkpt>
<trkpt lat="52.929382" lon="-3.142532"><ele>195</ele><time>2019-09-27T11:39:20Z</time><name>PT5998</name></trkpt>
<trkpt lat="52.929393" lon="-3.142529"><ele>195</ele><time>2019-09-27T11:39:21Z</time><name>PT5999</name></trkpt>
<trkpt lat="52.929408" lon="-3.142529"><ele>195</ele><time>2019-09-27T11:39:22Z</time><name>PT6000</name></trkpt>
<trkpt lat="52.929426" lon="-3.142525"><ele>196</ele><time>2019-09-27T11:39:23Z</time><name>PT6001</name></trkpt>
<trkpt lat="52.929441" lon="-3.142521"><ele>195</ele><time>2019-09-27T11:39:24Z</time><name>PT6002</name></trkpt>
<trkpt lat="52.929455" lon="-3.142521"><ele>196</ele><time>2019-09-27T11:39:25Z</time><name>PT6003</name></trkpt>
<trkpt lat="52.929473" lon="-3.142517"><ele>195</ele><time>2019-09-27T11:39:26Z</time><name>PT6004</name></trkpt>
<trkpt lat="52.929485" lon="-3.142515"><ele>195</ele><time>2019-09-27T11:39:27Z</time><name>PT6005</name></trkpt>
<trkpt lat="52.929496" lon="-3.142505"><ele>195</ele><time>2019-09-27T11:39:28Z</time><name>PT6006</name></trkpt>
<trkpt lat="52.929509" lon="-3.142503"><ele>195</ele><time>2019-09-27T11:39:29Z</time><name>PT6007</name></trkpt>
<trkpt lat="52.929514" lon="-3.142500"><ele>194</ele><time>2019-09-27T11:39:30Z</time><name>PT6008</name></trkpt>
<trkpt lat="52.929524" lon="-3.142496"><ele>194</ele><time>2019-09-27T11:39:31Z</time><name>PT6009</name></trkpt>
<trkpt lat="52.929540" lon="-3.142496"><ele>194</ele><time>2019-09-27T11:39:32Z</time><name>PT6010</name></trkpt>
<trkpt lat="52.929556" lon="-3.142492"><ele>194</ele><time>2019-09-27T11:39:33Z</time><name>PT6011</name></trkpt>
<trkpt lat="52.929566" lon="-3.142488"><ele>194</ele><time>2019-09-27T11:39:34Z</time><name>PT6012</name></trkpt>
<trkpt lat="52.929576" lon="-3.142486"><ele>194</ele><time>2019-09-27T11:39:35Z</time><name>PT6013</name></trkpt>
<trkpt lat="52.929590" lon="-3.142477"><ele>194</ele><time>2019-09-27T11:39:36Z</time><name>PT6014</name></trkpt>
<trkpt lat="52.929602" lon="-3.142473"><ele>194</ele><time>2019-09-27T11:39:37Z</time><name>PT6015</name></trkpt>
<trkpt lat="52.929619" lon="-3.142471"><ele>194</ele><time>2019-09-27T11:39:38Z</time><name>PT6016</name></trkpt>
<trkpt lat="52.929631" lon="-3.142469"><ele>194</ele><time>2019-09-27T11:39:39Z</time><name>PT6017</name></trkpt>
<trkpt lat="52.929641" lon="-3.142468"><ele>194</ele><time>2019-09-27T11:39:40Z</time><name>PT6018</name></trkpt>
<trkpt lat="52.929652" lon="-3.142468"><ele>194</ele><time>2019-09-27T11:39:41Z</time><name>PT6019</name></trkpt>
<trkpt lat="52.929659" lon="-3.142471"><ele>193</ele><time>2019-09-27T11:39:42Z</time><name>PT6020</name></trkpt>
<trkpt lat="52.929665" lon="-3.142470"><ele>193</ele><time>2019-09-27T11:39:43Z</time><name>PT6021</name></trkpt>
<trkpt lat="52.929679" lon="-3.142465"><ele>193</ele><time>2019-09-27T11:39:44Z</time><name>PT6022</name></trkpt>
<trkpt lat="52.929690" lon="-3.142460"><ele>192</ele><time>2019-09-27T11:39:45Z</time><name>PT6023</name></trkpt>
<trkpt lat="52.929699" lon="-3.142456"><ele>192</ele><time>2019-09-27T11:39:46Z</time><name>PT6024</name></trkpt>
<trkpt lat="52.929711" lon="-3.142453"><ele>191</ele><time>2019-09-27T11:39:47Z</time><name>PT6025</name></trkpt>
<trkpt lat="52.929721" lon="-3.142454"><ele>191</ele><time>2019-09-27T11:39:48Z</time><name>PT6026</name></trkpt>
<trkpt lat="52.929739" lon="-3.142444"><ele>191</ele><time>2019-09-27T11:39:49Z</time><name>PT6027</name></trkpt>
<trkpt lat="52.929752" lon="-3.142437"><ele>191</ele><time>2019-09-27T11:39:50Z</time><name>PT6028</name></trkpt>
<trkpt lat="52.929764" lon="-3.142433"><ele>191</ele><time>2019-09-27T11:39:51Z</time><name>PT6029</name></trkpt>
<trkpt lat="52.929772" lon="-3.142431"><ele>191</ele><time>2019-09-27T11:39:52Z</time><name>PT6030</name></trkpt>
<trkpt lat="52.929780" lon="-3.142429"><ele>191</ele><time>2019-09-27T11:39:53Z</time><name>PT6031</name></trkpt>
<trkpt lat="52.929788" lon="-3.142429"><ele>191</ele><time>2019-09-27T11:39:54Z</time><name>PT6032</name></trkpt>
<trkpt lat="52.929810" lon="-3.142458"><ele>190</ele><time>2019-09-27T11:40:11Z</time><name>PT6033</name></trkpt>
<trkpt lat="52.929828" lon="-3.142465"><ele>188</ele><time>2019-09-27T11:40:12Z</time><name>PT6034</name></trkpt>
<trkpt lat="52.929840" lon="-3.142469"><ele>187</ele><time>2019-09-27T11:40:13Z</time><name>PT6035</name></trkpt>
<trkpt lat="52.929851" lon="-3.142469"><ele>186</ele><time>2019-09-27T11:40:14Z</time><name>PT6036</name></trkpt>
<trkpt lat="52.929877" lon="-3.142470"><ele>185</ele><time>2019-09-27T11:40:15Z</time><name>PT6037</name></trkpt>
<trkpt lat="52.929892" lon="-3.142463"><ele>185</ele><time>2019-09-27T11:40:16Z</time><name>PT6038</name></trkpt>
<trkpt lat="52.929907" lon="-3.142453"><ele>184</ele><time>2019-09-27T11:40:17Z</time><name>PT6039</name></trkpt>
<trkpt lat="52.929923" lon="-3.142446"><ele>184</ele><time>2019-09-27T11:40:18Z</time><name>PT6040</name></trkpt>
<trkpt lat="52.929948" lon="-3.142439"><ele>183</ele><time>2019-09-27T11:40:19Z</time><name>PT6041</name></trkpt>
<trkpt lat="52.929968" lon="-3.142434"><ele>183</ele><time>2019-09-27T11:40:20Z</time><name>PT6042</name></trkpt>
<trkpt lat="52.929976" lon="-3.142441"><ele>182</ele><time>2019-09-27T11:40:21Z</time><name>PT6043</name></trkpt>
<trkpt lat="52.930002" lon="-3.142447"><ele>181</ele><time>2019-09-27T11:40:24Z</time><name>PT6044</name></trkpt>
<trkpt lat="52.930019" lon="-3.142442"><ele>181</ele><time>2019-09-27T11:40:25Z</time><name>PT6045</name></trkpt>
<trkpt lat="52.930034" lon="-3.142430"><ele>180</ele><time>2019-09-27T11:40:26Z</time><name>PT6046</name></trkpt>
<trkpt lat="52.930048" lon="-3.142422"><ele>179</ele><time>2019-09-27T11:40:27Z</time><name>PT6047</name></trkpt>
<trkpt lat="52.930073" lon="-3.142422"><ele>178</ele><time>2019-09-27T11:40:28Z</time><name>PT6048</name></trkpt>
<trkpt lat="52.930104" lon="-3.142418"><ele>177</ele><time>2019-09-27T11:40:29Z</time><name>PT6049</name></trkpt>
<trkpt lat="52.930116" lon="-3.142420"><ele>177</ele><time>2019-09-27T11:40:30Z</time><name>PT6050</name></trkpt>
<trkpt lat="52.930137" lon="-3.142413"><ele>177</ele><time>2019-09-27T11:40:31Z</time><name>PT6051</name></trkpt>
<trkpt lat="52.930148" lon="-3.142409"><ele>176</ele><time>2019-09-27T11:40:32Z</time><name>PT6052</name></trkpt>
<trkpt lat="52.930161" lon="-3.142404"><ele>176</ele><time>2019-09-27T11:40:33Z</time><name>PT6053</name></trkpt>
<trkpt lat="52.930169" lon="-3.142404"><ele>176</ele><time>2019-09-27T11:40:34Z</time><name>PT6054</name></trkpt>
<trkpt lat="52.930184" lon="-3.142396"><ele>175</ele><time>2019-09-27T11:40:35Z</time><name>PT6055</name></trkpt>
<trkpt lat="52.930202" lon="-3.142390"><ele>175</ele><time>2019-09-27T11:40:36Z</time><name>PT6056</name></trkpt>
<trkpt lat="52.930213" lon="-3.142381"><ele>175</ele><time>2019-09-27T11:40:37Z</time><name>PT6057</name></trkpt>
<trkpt lat="52.930223" lon="-3.142378"><ele>175</ele><time>2019-09-27T11:40:38Z</time><name>PT6058</name></trkpt>
<trkpt lat="52.930232" lon="-3.142372"><ele>175</ele><time>2019-09-27T11:40:39Z</time><name>PT6059</name></trkpt>
<trkpt lat="52.930244" lon="-3.142370"><ele>174</ele><time>2019-09-27T11:40:41Z</time><name>PT6060</name></trkpt>
<trkpt lat="52.930274" lon="-3.142374"><ele>173</ele><time>2019-09-27T11:40:42Z</time><name>PT6061</name></trkpt>
<trkpt lat="52.930301" lon="-3.142364"><ele>173</ele><time>2019-09-27T11:40:43Z</time><name>PT6062</name></trkpt>
<trkpt lat="52.930316" lon="-3.142352"><ele>172</ele><time>2019-09-27T11:40:44Z</time><name>PT6063</name></trkpt>
<trkpt lat="52.930330" lon="-3.142346"><ele>171</ele><time>2019-09-27T11:40:45Z</time><name>PT6064</name></trkpt>
<trkpt lat="52.930346" lon="-3.142322"><ele>170</ele><time>2019-09-27T11:40:46Z</time><name>PT6065</name></trkpt>
<trkpt lat="52.930362" lon="-3.142310"><ele>170</ele><time>2019-09-27T11:40:47Z</time><name>PT6066</name></trkpt>
<trkpt lat="52.930371" lon="-3.142302"><ele>170</ele><time>2019-09-27T11:40:48Z</time><name>PT6067</name></trkpt>
<trkpt lat="52.930384" lon="-3.142292"><ele>170</ele><time>2019-09-27T11:40:49Z</time><name>PT6068</name></trkpt>
<trkpt lat="52.930397" lon="-3.142286"><ele>170</ele><time>2019-09-27T11:40:50Z</time><name>PT6069</name></trkpt>
<trkpt lat="52.930408" lon="-3.142286"><ele>169</ele><time>2019-09-27T11:40:51Z</time><name>PT6070</name></trkpt>
<trkpt lat="52.930409" lon="-3.142281"><ele>169</ele><time>2019-09-27T11:40:52Z</time><name>PT6071</name></trkpt>
<trkpt lat="52.930421" lon="-3.142279"><ele>169</ele><time>2019-09-27T11:40:53Z</time><name>PT6072</name></trkpt>
<trkpt lat="52.930429" lon="-3.142279"><ele>169</ele><time>2019-09-27T11:40:54Z</time><name>PT6073</name></trkpt>
<trkpt lat="52.930435" lon="-3.142276"><ele>169</ele><time>2019-09-27T11:40:55Z</time><name>PT6074</name></trkpt>
<trkpt lat="52.930453" lon="-3.142265"><ele>168</ele><time>2019-09-27T11:41:09Z</time><name>PT6075</name></trkpt>
<trkpt lat="52.930481" lon="-3.142256"><ele>167</ele><time>2019-09-27T11:41:10Z</time><name>PT6076</name></trkpt>
<trkpt lat="52.930492" lon="-3.142250"><ele>165</ele><time>2019-09-27T11:41:19Z</time><name>PT6077</name></trkpt>
<trkpt lat="52.930523" lon="-3.142240"><ele>164</ele><time>2019-09-27T11:41:20Z</time><name>PT6078</name></trkpt>
<trkpt lat="52.930543" lon="-3.142234"><ele>164</ele><time>2019-09-27T11:41:21Z</time><name>PT6079</name></trkpt>
<trkpt lat="52.930560" lon="-3.142226"><ele>163</ele><time>2019-09-27T11:41:22Z</time><name>PT6080</name></trkpt>
<trkpt lat="52.930582" lon="-3.142213"><ele>162</ele><time>2019-09-27T11:41:23Z</time><name>PT6081</name></trkpt>
<trkpt lat="52.930598" lon="-3.142207"><ele>162</ele><time>2019-09-27T11:41:24Z</time><name>PT6082</name></trkpt>
<trkpt lat="52.930616" lon="-3.142200"><ele>161</ele><time>2019-09-27T11:41:25Z</time><name>PT6083</name></trkpt>
<trkpt lat="52.930633" lon="-3.142196"><ele>161</ele><time>2019-09-27T11:41:26Z</time><name>PT6084</name></trkpt>
<trkpt lat="52.930653" lon="-3.142199"><ele>159</ele><time>2019-09-27T11:41:36Z</time><name>PT6085</name></trkpt>
<trkpt lat="52.930672" lon="-3.142190"><ele>158</ele><time>2019-09-27T11:41:37Z</time><name>PT6086</name></trkpt>
<trkpt lat="52.930706" lon="-3.142171"><ele>157</ele><time>2019-09-27T11:41:38Z</time><name>PT6087</name></trkpt>
<trkpt lat="52.930723" lon="-3.142170"><ele>156</ele><time>2019-09-27T11:41:39Z</time><name>PT6088</name></trkpt>
<trkpt lat="52.930744" lon="-3.142151"><ele>156</ele><time>2019-09-27T11:41:40Z</time><name>PT6089</name></trkpt>
<trkpt lat="52.930762" lon="-3.142143"><ele>156</ele><time>2019-09-27T11:41:41Z</time><name>PT6090</name></trkpt>
<trkpt lat="52.930776" lon="-3.142139"><ele>155</ele><time>2019-09-27T11:41:42Z</time><name>PT6091</name></trkpt>
<trkpt lat="52.930787" lon="-3.142142"><ele>155</ele><time>2019-09-27T11:41:43Z</time><name>PT6092</name></trkpt>
<trkpt lat="52.930817" lon="-3.142133"><ele>154</ele><time>2019-09-27T11:41:44Z</time><name>PT6093</name></trkpt>
<trkpt lat="52.930836" lon="-3.142124"><ele>154</ele><time>2019-09-27T11:41:45Z</time><name>PT6094</name></trkpt>
<trkpt lat="52.930849" lon="-3.142121"><ele>154</ele><time>2019-09-27T11:41:46Z</time><name>PT6095</name></trkpt>
<trkpt lat="52.930868" lon="-3.142117"><ele>153</ele><time>2019-09-27T11:41:47Z</time><name>PT6096</name></trkpt>
<trkpt lat="52.930892" lon="-3.142106"><ele>153</ele><time>2019-09-27T11:41:48Z</time><name>PT6097</name></trkpt>
<trkpt lat="52.930919" lon="-3.142100"><ele>153</ele><time>2019-09-27T11:41:49Z</time><name>PT6098</name></trkpt>
<trkpt lat="52.930934" lon="-3.142093"><ele>153</ele><time>2019-09-27T11:41:50Z</time><name>PT6099</name></trkpt>
<trkpt lat="52.930962" lon="-3.142083"><ele>152</ele><time>2019-09-27T11:41:51Z</time><name>PT6100</name></trkpt>
<trkpt lat="52.930974" lon="-3.142078"><ele>152</ele><time>2019-09-27T11:41:52Z</time><name>PT6101</name></trkpt>
<trkpt lat="52.930983" lon="-3.142074"><ele>152</ele><time>2019-09-27T11:41:53Z</time><name>PT6102</name></trkpt>
<trkpt lat="52.930996" lon="-3.142063"><ele>152</ele><time>2019-09-27T11:41:54Z</time><name>PT6103</name></trkpt>
<trkpt lat="52.931007" lon="-3.142063"><ele>152</ele><time>2019-09-27T11:41:55Z</time><name>PT6104</name></trkpt>
<trkpt lat="52.931022" lon="-3.142060"><ele>152</ele><time>2019-09-27T11:41:56Z</time><name>PT6105</name></trkpt>
<trkpt lat="52.931040" lon="-3.142053"><ele>152</ele><time>2019-09-27T11:41:57Z</time><name>PT6106</name></trkpt>
<trkpt lat="52.931059" lon="-3.142051"><ele>153</ele><time>2019-09-27T11:41:58Z</time><name>PT6107</name></trkpt>
<trkpt lat="52.931070" lon="-3.142050"><ele>153</ele><time>2019-09-27T11:41:59Z</time><name>PT6108</name></trkpt>
<trkpt lat="52.931088" lon="-3.142045"><ele>152</ele><time>2019-09-27T11:42:00Z</time><name>PT6109</name></trkpt>
<trkpt lat="52.931108" lon="-3.142036"><ele>153</ele><time>2019-09-27T11:42:01Z</time><name>PT6110</name></trkpt>
<trkpt lat="52.931122" lon="-3.142037"><ele>153</ele><time>2019-09-27T11:42:02Z</time><name>PT6111</name></trkpt>
<trkpt lat="52.931134" lon="-3.142028"><ele>153</ele><time>2019-09-27T11:42:03Z</time><name>PT6112</name></trkpt>
<trkpt lat="52.931145" lon="-3.142026"><ele>153</ele><time>2019-09-27T11:42:04Z</time><name>PT6113</name></trkpt>
<trkpt lat="52.931160" lon="-3.142023"><ele>153</ele><time>2019-09-27T11:42:05Z</time><name>PT6114</name></trkpt>
<trkpt lat="52.931173" lon="-3.142018"><ele>153</ele><time>2019-09-27T11:42:06Z</time><name>PT6115</name></trkpt>
<trkpt lat="52.931174" lon="-3.142022"><ele>153</ele><time>2019-09-27T11:42:07Z</time><name>PT6116</name></trkpt>
<trkpt lat="52.931185" lon="-3.142020"><ele>153</ele><time>2019-09-27T11:42:08Z</time><name>PT6117</name></trkpt>
<trkpt lat="52.931193" lon="-3.142019"><ele>153</ele><time>2019-09-27T11:42:09Z</time><name>PT6118</name></trkpt>
<trkpt lat="52.931200" lon="-3.142015"><ele>152</ele><time>2019-09-27T11:42:10Z</time><name>PT6119</name></trkpt>
<trkpt lat="52.931215" lon="-3.142012"><ele>152</ele><time>2019-09-27T11:42:11Z</time><name>PT6120</name></trkpt>
<trkpt lat="52.931226" lon="-3.142003"><ele>153</ele><time>2019-09-27T11:42:12Z</time><name>PT6121</name></trkpt>
<trkpt lat="52.931241" lon="-3.142001"><ele>153</ele><time>2019-09-27T11:42:13Z</time><name>PT6122</name></trkpt>
<trkpt lat="52.931247" lon="-3.142007"><ele>153</ele><time>2019-09-27T11:42:14Z</time><name>PT6123</name></trkpt>
<trkpt lat="52.931263" lon="-3.142004"><ele>153</ele><time>2019-09-27T11:42:15Z</time><name>PT6124</name></trkpt>
<trkpt lat="52.931277" lon="-3.142005"><ele>153</ele><time>2019-09-27T11:42:16Z</time><name>PT6125</name></trkpt>
<trkpt lat="52.931294" lon="-3.142003"><ele>153</ele><time>2019-09-27T11:42:17Z</time><name>PT6126</name></trkpt>
<trkpt lat="52.931311" lon="-3.142001"><ele>154</ele><time>2019-09-27T11:42:18Z</time><name>PT6127</name></trkpt>
<trkpt lat="52.931339" lon="-3.142001"><ele>155</ele><time>2019-09-27T11:42:19Z</time><name>PT6128</name></trkpt>
<trkpt lat="52.931358" lon="-3.141995"><ele>156</ele><time>2019-09-27T11:42:20Z</time><name>PT6129</name></trkpt>
<trkpt lat="52.931370" lon="-3.141992"><ele>155</ele><time>2019-09-27T11:42:21Z</time><name>PT6130</name></trkpt>
<trkpt lat="52.931382" lon="-3.141993"><ele>156</ele><time>2019-09-27T11:42:22Z</time><name>PT6131</name></trkpt>
<trkpt lat="52.931395" lon="-3.141989"><ele>157</ele><time>2019-09-27T11:42:23Z</time><name>PT6132</name></trkpt>
<trkpt lat="52.931409" lon="-3.141983"><ele>157</ele><time>2019-09-27T11:42:24Z</time><name>PT6133</name></trkpt>
<trkpt lat="52.931434" lon="-3.141953"><ele>156</ele><time>2019-09-27T11:42:32Z</time><name>PT6134</name></trkpt>
<trkpt lat="52.931449" lon="-3.141947"><ele>155</ele><time>2019-09-27T11:42:33Z</time><name>PT6135</name></trkpt>
<trkpt lat="52.931473" lon="-3.141944"><ele>155</ele><time>2019-09-27T11:42:34Z</time><name>PT6136</name></trkpt>
<trkpt lat="52.931511" lon="-3.141975"><ele>156</ele><time>2019-09-27T11:42:43Z</time><name>PT6137</name></trkpt>
<trkpt lat="52.931526" lon="-3.141979"><ele>155</ele><time>2019-09-27T11:42:44Z</time><name>PT6138</name></trkpt>
<trkpt lat="52.931537" lon="-3.141971"><ele>155</ele><time>2019-09-27T11:42:45Z</time><name>PT6139</name></trkpt>
<trkpt lat="52.931556" lon="-3.141957"><ele>154</ele><time>2019-09-27T11:42:46Z</time><name>PT6140</name></trkpt>
<trkpt lat="52.931578" lon="-3.141944"><ele>154</ele><time>2019-09-27T11:42:47Z</time><name>PT6141</name></trkpt>
<trkpt lat="52.931593" lon="-3.141940"><ele>154</ele><time>2019-09-27T11:42:48Z</time><name>PT6142</name></trkpt>
<trkpt lat="52.931612" lon="-3.141936"><ele>153</ele><time>2019-09-27T11:42:49Z</time><name>PT6143</name></trkpt>
<trkpt lat="52.931622" lon="-3.141927"><ele>153</ele><time>2019-09-27T11:42:50Z</time><name>PT6144</name></trkpt>
<trkpt lat="52.931634" lon="-3.141924"><ele>153</ele><time>2019-09-27T11:42:51Z</time><name>PT6145</name></trkpt>
<trkpt lat="52.931643" lon="-3.141913"><ele>153</ele><time>2019-09-27T11:42:52Z</time><name>PT6146</name></trkpt>
<trkpt lat="52.931654" lon="-3.141906"><ele>152</ele><time>2019-09-27T11:42:53Z</time><name>PT6147</name></trkpt>
<trkpt lat="52.931662" lon="-3.141899"><ele>153</ele><time>2019-09-27T11:42:54Z</time><name>PT6148</name></trkpt>
<trkpt lat="52.931680" lon="-3.141894"><ele>153</ele><time>2019-09-27T11:42:55Z</time><name>PT6149</name></trkpt>
<trkpt lat="52.931723" lon="-3.141896"><ele>152</ele><time>2019-09-27T11:43:05Z</time><name>PT6150</name></trkpt>
<trkpt lat="52.931767" lon="-3.141888"><ele>151</ele><time>2019-09-27T11:43:06Z</time><name>PT6151</name></trkpt>
<trkpt lat="52.931784" lon="-3.141875"><ele>151</ele><time>2019-09-27T11:43:07Z</time><name>PT6152</name></trkpt>
<trkpt lat="52.931806" lon="-3.141872"><ele>150</ele><time>2019-09-27T11:43:08Z</time><name>PT6153</name></trkpt>
<trkpt lat="52.931814" lon="-3.141871"><ele>149</ele><time>2019-09-27T11:43:09Z</time><name>PT6154</name></trkpt>
<trkpt lat="52.931828" lon="-3.141865"><ele>149</ele><time>2019-09-27T11:43:10Z</time><name>PT6155</name></trkpt>
<trkpt lat="52.931847" lon="-3.141854"><ele>149</ele><time>2019-09-27T11:43:11Z</time><name>PT6156</name></trkpt>
<trkpt lat="52.931855" lon="-3.141846"><ele>149</ele><time>2019-09-27T11:43:12Z</time><name>PT6157</name></trkpt>
<trkpt lat="52.931870" lon="-3.141853"><ele>150</ele><time>2019-09-27T11:43:17Z</time><name>PT6158</name></trkpt>
<trkpt lat="52.931883" lon="-3.141845"><ele>149</ele><time>2019-09-27T11:43:18Z</time><name>PT6159</name></trkpt>
<trkpt lat="52.931894" lon="-3.141842"><ele>148</ele><time>2019-09-27T11:43:19Z</time><name>PT6160</name></trkpt>
<trkpt lat="52.931911" lon="-3.141847"><ele>149</ele><time>2019-09-27T11:43:53Z</time><name>PT6161</name></trkpt>
<trkpt lat="52.931927" lon="-3.141856"><ele>149</ele><time>2019-09-27T11:43:54Z</time><name>PT6162</name></trkpt>
<trkpt lat="52.931923" lon="-3.141868"><ele>150</ele><time>2019-09-27T11:44:28Z</time><name>PT6163</name></trkpt>
<trkpt lat="52.931917" lon="-3.141885"><ele>151</ele><time>2019-09-27T11:44:29Z</time><name>PT6164</name></trkpt>
<trkpt lat="52.931909" lon="-3.141899"><ele>150</ele><time>2019-09-27T11:44:30Z</time><name>PT6165</name></trkpt>
<trkpt lat="52.931901" lon="-3.141906"><ele>150</ele><time>2019-09-27T11:44:31Z</time><name>PT6166</name></trkpt>
<trkpt lat="52.931895" lon="-3.141908"><ele>150</ele><time>2019-09-27T11:44:32Z</time><name>PT6167</name></trkpt>
<trkpt lat="52.931887" lon="-3.141915"><ele>150</ele><time>2019-09-27T11:44:33Z</time><name>PT6168</name></trkpt>
<trkpt lat="52.931888" lon="-3.141928"><ele>150</ele><time>2019-09-27T11:44:34Z</time><name>PT6169</name></trkpt>
<trkpt lat="52.931888" lon="-3.141944"><ele>150</ele><time>2019-09-27T11:44:35Z</time><name>PT6170</name></trkpt>
<trkpt lat="52.931888" lon="-3.141948"><ele>150</ele><time>2019-09-27T11:44:36Z</time><name>PT6171</name></trkpt>
<trkpt lat="52.931885" lon="-3.141957"><ele>150</ele><time>2019-09-27T11:44:38Z</time><name>PT6172</name></trkpt>
<trkpt lat="52.931880" lon="-3.141976"><ele>149</ele><time>2019-09-27T11:44:39Z</time><name>PT6173</name></trkpt>
<trkpt lat="52.931871" lon="-3.141989"><ele>149</ele><time>2019-09-27T11:44:40Z</time><name>PT6174</name></trkpt>
<trkpt lat="52.931863" lon="-3.142003"><ele>149</ele><time>2019-09-27T11:44:41Z</time><name>PT6175</name></trkpt>
<trkpt lat="52.931859" lon="-3.142010"><ele>149</ele><time>2019-09-27T11:44:42Z</time><name>PT6176</name></trkpt>
<trkpt lat="52.931853" lon="-3.142018"><ele>149</ele><time>2019-09-27T11:44:43Z</time><name>PT6177</name></trkpt>
<trkpt lat="52.931847" lon="-3.142025"><ele>149</ele><time>2019-09-27T11:44:44Z</time><name>PT6178</name></trkpt>
<trkpt lat="52.931839" lon="-3.142024"><ele>149</ele><time>2019-09-27T11:44:45Z</time><name>PT6179</name></trkpt>
<trkpt lat="52.931839" lon="-3.142021"><ele>149</ele><time>2019-09-27T11:44:47Z</time><name>PT6180</name></trkpt>
<trkpt lat="52.931833" lon="-3.142031"><ele>148</ele><time>2019-09-27T11:44:48Z</time><name>PT6181</name></trkpt>
<trkpt lat="52.931826" lon="-3.142042"><ele>148</ele><time>2019-09-27T11:44:49Z</time><name>PT6182</name></trkpt>
<trkpt lat="52.931819" lon="-3.142049"><ele>148</ele><time>2019-09-27T11:44:50Z</time><name>PT6183</name></trkpt>
<trkpt lat="52.931811" lon="-3.142056"><ele>148</ele><time>2019-09-27T11:44:51Z</time><name>PT6184</name></trkpt>
<trkpt lat="52.931803" lon="-3.142061"><ele>148</ele><time>2019-09-27T11:44:52Z</time><name>PT6185</name></trkpt>
<trkpt lat="52.931796" lon="-3.142068"><ele>148</ele><time>2019-09-27T11:44:53Z</time><name>PT6186</name></trkpt>
<trkpt lat="52.931790" lon="-3.142073"><ele>147</ele><time>2019-09-27T11:44:54Z</time><name>PT6187</name></trkpt>
<trkpt lat="52.931784" lon="-3.142078"><ele>147</ele><time>2019-09-27T11:44:55Z</time><name>PT6188</name></trkpt>
<trkpt lat="52.931779" lon="-3.142082"><ele>147</ele><time>2019-09-27T11:44:56Z</time><name>PT6189</name></trkpt>
<trkpt lat="52.931773" lon="-3.142090"><ele>147</ele><time>2019-09-27T11:44:57Z</time><name>PT6190</name></trkpt>
<trkpt lat="52.931764" lon="-3.142104"><ele>147</ele><time>2019-09-27T11:44:58Z</time><name>PT6191</name></trkpt>
<trkpt lat="52.931756" lon="-3.142109"><ele>146</ele><time>2019-09-27T11:44:59Z</time><name>PT6192</name></trkpt>
<trkpt lat="52.931748" lon="-3.142117"><ele>146</ele><time>2019-09-27T11:45:00Z</time><name>PT6193</name></trkpt>
<trkpt lat="52.931737" lon="-3.142123"><ele>146</ele><time>2019-09-27T11:45:01Z</time><name>PT6194</name></trkpt>
<trkpt lat="52.931728" lon="-3.142129"><ele>146</ele><time>2019-09-27T11:45:02Z</time><name>PT6195</name></trkpt>
<trkpt lat="52.931703" lon="-3.142146"><ele>146</ele><time>2019-09-27T11:45:03Z</time><name>PT6196</name></trkpt>
<trkpt lat="52.931696" lon="-3.142159"><ele>146</ele><time>2019-09-27T11:45:04Z</time><name>PT6197</name></trkpt>
<trkpt lat="52.931682" lon="-3.142163"><ele>146</ele><time>2019-09-27T11:45:05Z</time><name>PT6198</name></trkpt>
<trkpt lat="52.931678" lon="-3.142164"><ele>147</ele><time>2019-09-27T11:45:06Z</time><name>PT6199</name></trkpt>
<trkpt lat="52.931672" lon="-3.142172"><ele>147</ele><time>2019-09-27T11:45:07Z</time><name>PT6200</name></trkpt>
<trkpt lat="52.931663" lon="-3.142191"><ele>147</ele><time>2019-09-27T11:45:08Z</time><name>PT6201</name></trkpt>
<trkpt lat="52.931653" lon="-3.142198"><ele>147</ele><time>2019-09-27T11:45:09Z</time><name>PT6202</name></trkpt>
<trkpt lat="52.931639" lon="-3.142220"><ele>147</ele><time>2019-09-27T11:45:10Z</time><name>PT6203</name></trkpt>
<trkpt lat="52.931623" lon="-3.142263"><ele>146</ele><time>2019-09-27T11:45:11Z</time><name>PT6204</name></trkpt>
<trkpt lat="52.931598" lon="-3.142296"><ele>147</ele><time>2019-09-27T11:45:12Z</time><name>PT6205</name></trkpt>
<trkpt lat="52.931585" lon="-3.142314"><ele>148</ele><time>2019-09-27T11:45:13Z</time><name>PT6206</name></trkpt>
<trkpt lat="52.931577" lon="-3.142326"><ele>149</ele><time>2019-09-27T11:45:14Z</time><name>PT6207</name></trkpt>
<trkpt lat="52.931571" lon="-3.142335"><ele>149</ele><time>2019-09-27T11:45:15Z</time><name>PT6208</name></trkpt>
<trkpt lat="52.931564" lon="-3.142349"><ele>149</ele><time>2019-09-27T11:45:16Z</time><name>PT6209</name></trkpt>
<trkpt lat="52.931556" lon="-3.142364"><ele>150</ele><time>2019-09-27T11:45:17Z</time><name>PT6210</name></trkpt>
<trkpt lat="52.931546" lon="-3.142378"><ele>150</ele><time>2019-09-27T11:45:18Z</time><name>PT6211</name></trkpt>
<trkpt lat="52.931538" lon="-3.142391"><ele>150</ele><time>2019-09-27T11:45:19Z</time><name>PT6212</name></trkpt>
<trkpt lat="52.931533" lon="-3.142402"><ele>151</ele><time>2019-09-27T11:45:20Z</time><name>PT6213</name></trkpt>
<trkpt lat="52.931527" lon="-3.142406"><ele>151</ele><time>2019-09-27T11:45:21Z</time><name>PT6214</name></trkpt>
<trkpt lat="52.931520" lon="-3.142414"><ele>152</ele><time>2019-09-27T11:45:22Z</time><name>PT6215</name></trkpt>
<trkpt lat="52.931511" lon="-3.142423"><ele>152</ele><time>2019-09-27T11:45:23Z</time><name>PT6216</name></trkpt>
<trkpt lat="52.931504" lon="-3.142424"><ele>152</ele><time>2019-09-27T11:45:24Z</time><name>PT6217</name></trkpt>
<trkpt lat="52.931496" lon="-3.142425"><ele>152</ele><time>2019-09-27T11:45:25Z</time><name>PT6218</name></trkpt>
<trkpt lat="52.931489" lon="-3.142433"><ele>152</ele><time>2019-09-27T11:45:26Z</time><name>PT6219</name></trkpt>
<trkpt lat="52.931481" lon="-3.142447"><ele>152</ele><time>2019-09-27T11:45:27Z</time><name>PT6220</name></trkpt>
<trkpt lat="52.931469" lon="-3.142456"><ele>151</ele><time>2019-09-27T11:45:28Z</time><name>PT6221</name></trkpt>
<trkpt lat="52.931463" lon="-3.142466"><ele>151</ele><time>2019-09-27T11:45:29Z</time><name>PT6222</name></trkpt>
<trkpt lat="52.931455" lon="-3.142470"><ele>150</ele><time>2019-09-27T11:45:30Z</time><name>PT6223</name></trkpt>
<trkpt lat="52.931446" lon="-3.142483"><ele>150</ele><time>2019-09-27T11:45:31Z</time><name>PT6224</name></trkpt>
<trkpt lat="52.931439" lon="-3.142472"><ele>147</ele><time>2019-09-27T11:45:32Z</time><name>PT6225</name></trkpt>
<trkpt lat="52.931430" lon="-3.142474"><ele>146</ele><time>2019-09-27T11:45:33Z</time><name>PT6226</name></trkpt>
<trkpt lat="52.931418" lon="-3.142483"><ele>146</ele><time>2019-09-27T11:45:34Z</time><name>PT6227</name></trkpt>
<trkpt lat="52.931406" lon="-3.142500"><ele>146</ele><time>2019-09-27T11:45:35Z</time><name>PT6228</name></trkpt>
<trkpt lat="52.931396" lon="-3.142515"><ele>147</ele><time>2019-09-27T11:45:36Z</time><name>PT6229</name></trkpt>
<trkpt lat="52.931388" lon="-3.142519"><ele>146</ele><time>2019-09-27T11:45:37Z</time><name>PT6230</name></trkpt>
<trkpt lat="52.931381" lon="-3.142524"><ele>145</ele><time>2019-09-27T11:45:38Z</time><name>PT6231</name></trkpt>
<trkpt lat="52.931373" lon="-3.142529"><ele>145</ele><time>2019-09-27T11:45:39Z</time><name>PT6232</name></trkpt>
<trkpt lat="52.931362" lon="-3.142527"><ele>144</ele><time>2019-09-27T11:45:40Z</time><name>PT6233</name></trkpt>
<trkpt lat="52.931352" lon="-3.142532"><ele>144</ele><time>2019-09-27T11:45:41Z</time><name>PT6234</name></trkpt>
<trkpt lat="52.931341" lon="-3.142544"><ele>143</ele><time>2019-09-27T11:45:42Z</time><name>PT6235</name></trkpt>
<trkpt lat="52.931330" lon="-3.142568"><ele>144</ele><time>2019-09-27T11:45:43Z</time><name>PT6236</name></trkpt>
<trkpt lat="52.931323" lon="-3.142582"><ele>144</ele><time>2019-09-27T11:45:44Z</time><name>PT6237</name></trkpt>
<trkpt lat="52.931316" lon="-3.142605"><ele>145</ele><time>2019-09-27T11:45:45Z</time><name>PT6238</name></trkpt>
<trkpt lat="52.931306" lon="-3.142619"><ele>145</ele><time>2019-09-27T11:45:46Z</time><name>PT6239</name></trkpt>
<trkpt lat="52.931298" lon="-3.142625"><ele>145</ele><time>2019-09-27T11:45:47Z</time><name>PT6240</name></trkpt>
<trkpt lat="52.931290" lon="-3.142636"><ele>144</ele><time>2019-09-27T11:45:48Z</time><name>PT6241</name></trkpt>
<trkpt lat="52.931282" lon="-3.142648"><ele>144</ele><time>2019-09-27T11:45:49Z</time><name>PT6242</name></trkpt>
<trkpt lat="52.931273" lon="-3.142658"><ele>144</ele><time>2019-09-27T11:45:50Z</time><name>PT6243</name></trkpt>
<trkpt lat="52.931263" lon="-3.142664"><ele>144</ele><time>2019-09-27T11:45:51Z</time><name>PT6244</name></trkpt>
<trkpt lat="52.931255" lon="-3.142668"><ele>143</ele><time>2019-09-27T11:45:52Z</time><name>PT6245</name></trkpt>
<trkpt lat="52.931246" lon="-3.142685"><ele>144</ele><time>2019-09-27T11:45:53Z</time><name>PT6246</name></trkpt>
<trkpt lat="52.931237" lon="-3.142694"><ele>144</ele><time>2019-09-27T11:45:54Z</time><name>PT6247</name></trkpt>
<trkpt lat="52.931231" lon="-3.142700"><ele>144</ele><time>2019-09-27T11:45:55Z</time><name>PT6248</name></trkpt>
<trkpt lat="52.931228" lon="-3.142703"><ele>142</ele><time>2019-09-27T11:45:56Z</time><name>PT6249</name></trkpt>
<trkpt lat="52.931222" lon="-3.142716"><ele>142</ele><time>2019-09-27T11:45:57Z</time><name>PT6250</name></trkpt>
<trkpt lat="52.931211" lon="-3.142727"><ele>141</ele><time>2019-09-27T11:45:58Z</time><name>PT6251</name></trkpt>
<trkpt lat="52.931203" lon="-3.142743"><ele>141</ele><time>2019-09-27T11:45:59Z</time><name>PT6252</name></trkpt>
<trkpt lat="52.931195" lon="-3.142756"><ele>140</ele><time>2019-09-27T11:46:00Z</time><name>PT6253</name></trkpt>
<trkpt lat="52.931184" lon="-3.142776"><ele>140</ele><time>2019-09-27T11:46:01Z</time><name>PT6254</name></trkpt>
<trkpt lat="52.931176" lon="-3.142782"><ele>140</ele><time>2019-09-27T11:46:02Z</time><name>PT6255</name></trkpt>
<trkpt lat="52.931167" lon="-3.142791"><ele>139</ele><time>2019-09-27T11:46:03Z</time><name>PT6256</name></trkpt>
<trkpt lat="52.931158" lon="-3.142803"><ele>139</ele><time>2019-09-27T11:46:04Z</time><name>PT6257</name></trkpt>
<trkpt lat="52.931149" lon="-3.142816"><ele>139</ele><time>2019-09-27T11:46:05Z</time><name>PT6258</name></trkpt>
<trkpt lat="52.931138" lon="-3.142827"><ele>139</ele><time>2019-09-27T11:46:06Z</time><name>PT6259</name></trkpt>
<trkpt lat="52.931129" lon="-3.142841"><ele>139</ele><time>2019-09-27T11:46:07Z</time><name>PT6260</name></trkpt>
<trkpt lat="52.931120" lon="-3.142856"><ele>139</ele><time>2019-09-27T11:46:08Z</time><name>PT6261</name></trkpt>
<trkpt lat="52.931113" lon="-3.142870"><ele>139</ele><time>2019-09-27T11:46:09Z</time><name>PT6262</name></trkpt>
<trkpt lat="52.931105" lon="-3.142884"><ele>139</ele><time>2019-09-27T11:46:10Z</time><name>PT6263</name></trkpt>
<trkpt lat="52.931096" lon="-3.142902"><ele>139</ele><time>2019-09-27T11:46:11Z</time><name>PT6264</name></trkpt>
<trkpt lat="52.931088" lon="-3.142913"><ele>139</ele><time>2019-09-27T11:46:12Z</time><name>PT6265</name></trkpt>
<trkpt lat="52.931079" lon="-3.142929"><ele>138</ele><time>2019-09-27T11:46:13Z</time><name>PT6266</name></trkpt>
<trkpt lat="52.931074" lon="-3.142936"><ele>138</ele><time>2019-09-27T11:46:14Z</time><name>PT6267</name></trkpt>
<trkpt lat="52.931068" lon="-3.142954"><ele>138</ele><time>2019-09-27T11:46:15Z</time><name>PT6268</name></trkpt>
<trkpt lat="52.931061" lon="-3.142968"><ele>139</ele><time>2019-09-27T11:46:16Z</time><name>PT6269</name></trkpt>
<trkpt lat="52.931054" lon="-3.142978"><ele>139</ele><time>2019-09-27T11:46:17Z</time><name>PT6270</name></trkpt>
<trkpt lat="52.931051" lon="-3.142988"><ele>138</ele><time>2019-09-27T11:46:18Z</time><name>PT6271</name></trkpt>
<trkpt lat="52.931046" lon="-3.142999"><ele>138</ele><time>2019-09-27T11:46:19Z</time><name>PT6272</name></trkpt>
<trkpt lat="52.931037" lon="-3.143012"><ele>138</ele><time>2019-09-27T11:46:20Z</time><name>PT6273</name></trkpt>
<trkpt lat="52.931033" lon="-3.143018"><ele>138</ele><time>2019-09-27T11:46:21Z</time><name>PT6274</name></trkpt>
<trkpt lat="52.931031" lon="-3.143024"><ele>138</ele><time>2019-09-27T11:46:22Z</time><name>PT6275</name></trkpt>
<trkpt lat="52.931027" lon="-3.143024"><ele>138</ele><time>2019-09-27T11:46:23Z</time><name>PT6276</name></trkpt>
<trkpt lat="52.931024" lon="-3.143024"><ele>138</ele><time>2019-09-27T11:46:24Z</time><name>PT6277</name></trkpt>
<trkpt lat="52.931019" lon="-3.143030"><ele>138</ele><time>2019-09-27T11:46:25Z</time><name>PT6278</name></trkpt>
<trkpt lat="52.931012" lon="-3.143038"><ele>138</ele><time>2019-09-27T11:46:26Z</time><name>PT6279</name></trkpt>
<trkpt lat="52.931005" lon="-3.143053"><ele>138</ele><time>2019-09-27T11:46:27Z</time><name>PT6280</name></trkpt>
<trkpt lat="52.930998" lon="-3.143066"><ele>139</ele><time>2019-09-27T11:46:28Z</time><name>PT6281</name></trkpt>
<trkpt lat="52.930991" lon="-3.143080"><ele>139</ele><time>2019-09-27T11:46:29Z</time><name>PT6282</name></trkpt>
<trkpt lat="52.930986" lon="-3.143085"><ele>138</ele><time>2019-09-27T11:46:30Z</time><name>PT6283</name></trkpt>
<trkpt lat="52.930977" lon="-3.143095"><ele>138</ele><time>2019-09-27T11:46:31Z</time><name>PT6284</name></trkpt>
<trkpt lat="52.930971" lon="-3.143102"><ele>138</ele><time>2019-09-27T11:46:32Z</time><name>PT6285</name></trkpt>
<trkpt lat="52.930963" lon="-3.143129"><ele>139</ele><time>2019-09-27T11:46:33Z</time><name>PT6286</name></trkpt>
<trkpt lat="52.930953" lon="-3.143142"><ele>139</ele><time>2019-09-27T11:46:34Z</time><name>PT6287</name></trkpt>
<trkpt lat="52.930942" lon="-3.143154"><ele>139</ele><time>2019-09-27T11:46:35Z</time><name>PT6288</name></trkpt>
<trkpt lat="52.930934" lon="-3.143172"><ele>140</ele><time>2019-09-27T11:46:36Z</time><name>PT6289</name></trkpt>
<trkpt lat="52.930925" lon="-3.143185"><ele>140</ele><time>2019-09-27T11:46:37Z</time><name>PT6290</name></trkpt>
<trkpt lat="52.930914" lon="-3.143197"><ele>139</ele><time>2019-09-27T11:46:38Z</time><name>PT6291</name></trkpt>
<trkpt lat="52.930907" lon="-3.143208"><ele>138</ele><time>2019-09-27T11:46:39Z</time><name>PT6292</name></trkpt>
<trkpt lat="52.930903" lon="-3.143213"><ele>138</ele><time>2019-09-27T11:46:40Z</time><name>PT6293</name></trkpt>
<trkpt lat="52.930898" lon="-3.143223"><ele>138</ele><time>2019-09-27T11:46:41Z</time><name>PT6294</name></trkpt>
<trkpt lat="52.930894" lon="-3.143235"><ele>138</ele><time>2019-09-27T11:46:42Z</time><name>PT6295</name></trkpt>
<trkpt lat="52.930890" lon="-3.143246"><ele>138</ele><time>2019-09-27T11:46:43Z</time><name>PT6296</name></trkpt>
<trkpt lat="52.930884" lon="-3.143258"><ele>138</ele><time>2019-09-27T11:46:44Z</time><name>PT6297</name></trkpt>
<trkpt lat="52.930878" lon="-3.143269"><ele>137</ele><time>2019-09-27T11:46:45Z</time><name>PT6298</name></trkpt>
<trkpt lat="52.930874" lon="-3.143282"><ele>137</ele><time>2019-09-27T11:46:46Z</time><name>PT6299</name></trkpt>
<trkpt lat="52.930870" lon="-3.143292"><ele>136</ele><time>2019-09-27T11:46:47Z</time><name>PT6300</name></trkpt>
<trkpt lat="52.930866" lon="-3.143305"><ele>136</ele><time>2019-09-27T11:46:48Z</time><name>PT6301</name></trkpt>
<trkpt lat="52.930862" lon="-3.143316"><ele>136</ele><time>2019-09-27T11:46:49Z</time><name>PT6302</name></trkpt>
<trkpt lat="52.930856" lon="-3.143329"><ele>136</ele><time>2019-09-27T11:46:50Z</time><name>PT6303</name></trkpt>
<trkpt lat="52.930850" lon="-3.143341"><ele>135</ele><time>2019-09-27T11:46:51Z</time><name>PT6304</name></trkpt>
<trkpt lat="52.930846" lon="-3.143353"><ele>135</ele><time>2019-09-27T11:46:52Z</time><name>PT6305</name></trkpt>
<trkpt lat="52.930840" lon="-3.143372"><ele>135</ele><time>2019-09-27T11:46:53Z</time><name>PT6306</name></trkpt>
<trkpt lat="52.930835" lon="-3.143382"><ele>134</ele><time>2019-09-27T11:46:54Z</time><name>PT6307</name></trkpt>
<trkpt lat="52.930829" lon="-3.143392"><ele>134</ele><time>2019-09-27T11:46:55Z</time><name>PT6308</name></trkpt>
<trkpt lat="52.930824" lon="-3.143404"><ele>133</ele><time>2019-09-27T11:46:56Z</time><name>PT6309</name></trkpt>
<trkpt lat="52.930818" lon="-3.143417"><ele>132</ele><time>2019-09-27T11:46:57Z</time><name>PT6310</name></trkpt>
<trkpt lat="52.930807" lon="-3.143430"><ele>131</ele><time>2019-09-27T11:46:58Z</time><name>PT6311</name></trkpt>
<trkpt lat="52.930800" lon="-3.143444"><ele>131</ele><time>2019-09-27T11:46:59Z</time><name>PT6312</name></trkpt>
<trkpt lat="52.930795" lon="-3.143464"><ele>132</ele><time>2019-09-27T11:47:00Z</time><name>PT6313</name></trkpt>
<trkpt lat="52.930787" lon="-3.143484"><ele>132</ele><time>2019-09-27T11:47:01Z</time><name>PT6314</name></trkpt>
<trkpt lat="52.930780" lon="-3.143499"><ele>131</ele><time>2019-09-27T11:47:02Z</time><name>PT6315</name></trkpt>
<trkpt lat="52.930774" lon="-3.143513"><ele>131</ele><time>2019-09-27T11:47:03Z</time><name>PT6316</name></trkpt>
<trkpt lat="52.930770" lon="-3.143532"><ele>130</ele><time>2019-09-27T11:47:04Z</time><name>PT6317</name></trkpt>
<trkpt lat="52.930767" lon="-3.143549"><ele>130</ele><time>2019-09-27T11:47:05Z</time><name>PT6318</name></trkpt>
<trkpt lat="52.930761" lon="-3.143568"><ele>130</ele><time>2019-09-27T11:47:06Z</time><name>PT6319</name></trkpt>
<trkpt lat="52.930756" lon="-3.143589"><ele>130</ele><time>2019-09-27T11:47:07Z</time><name>PT6320</name></trkpt>
<trkpt lat="52.930753" lon="-3.143602"><ele>130</ele><time>2019-09-27T11:47:08Z</time><name>PT6321</name></trkpt>
<trkpt lat="52.930750" lon="-3.143617"><ele>129</ele><time>2019-09-27T11:47:09Z</time><name>PT6322</name></trkpt>
<trkpt lat="52.930747" lon="-3.143641"><ele>129</ele><time>2019-09-27T11:47:10Z</time><name>PT6323</name></trkpt>
<trkpt lat="52.930744" lon="-3.143661"><ele>129</ele><time>2019-09-27T11:47:11Z</time><name>PT6324</name></trkpt>
<trkpt lat="52.930742" lon="-3.143680"><ele>129</ele><time>2019-09-27T11:47:12Z</time><name>PT6325</name></trkpt>
<trkpt lat="52.930738" lon="-3.143700"><ele>128</ele><time>2019-09-27T11:47:13Z</time><name>PT6326</name></trkpt>
<trkpt lat="52.930733" lon="-3.143720"><ele>128</ele><time>2019-09-27T11:47:14Z</time><name>PT6327</name></trkpt>
<trkpt lat="52.930730" lon="-3.143746"><ele>128</ele><time>2019-09-27T11:47:15Z</time><name>PT6328</name></trkpt>
<trkpt lat="52.930729" lon="-3.143761"><ele>127</ele><time>2019-09-27T11:47:16Z</time><name>PT6329</name></trkpt>
<trkpt lat="52.930727" lon="-3.143772"><ele>127</ele><time>2019-09-27T11:47:17Z</time><name>PT6330</name></trkpt>
<trkpt lat="52.930721" lon="-3.143788"><ele>127</ele><time>2019-09-27T11:47:18Z</time><name>PT6331</name></trkpt>
<trkpt lat="52.930717" lon="-3.143810"><ele>126</ele><time>2019-09-27T11:47:19Z</time><name>PT6332</name></trkpt>
<trkpt lat="52.930712" lon="-3.143828"><ele>126</ele><time>2019-09-27T11:47:20Z</time><name>PT6333</name></trkpt>
<trkpt lat="52.930709" lon="-3.143847"><ele>126</ele><time>2019-09-27T11:47:21Z</time><name>PT6334</name></trkpt>
<trkpt lat="52.930710" lon="-3.143866"><ele>126</ele><time>2019-09-27T11:47:22Z</time><name>PT6335</name></trkpt>
<trkpt lat="52.930710" lon="-3.143894"><ele>126</ele><time>2019-09-27T11:47:23Z</time><name>PT6336</name></trkpt>
<trkpt lat="52.930713" lon="-3.143912"><ele>125</ele><time>2019-09-27T11:47:24Z</time><name>PT6337</name></trkpt>
<trkpt lat="52.930721" lon="-3.143927"><ele>125</ele><time>2019-09-27T11:47:25Z</time><name>PT6338</name></trkpt>
<trkpt lat="52.930728" lon="-3.143939"><ele>125</ele><time>2019-09-27T11:47:26Z</time><name>PT6339</name></trkpt>
<trkpt lat="52.930739" lon="-3.143960"><ele>125</ele><time>2019-09-27T11:47:27Z</time><name>PT6340</name></trkpt>
<trkpt lat="52.930751" lon="-3.143978"><ele>125</ele><time>2019-09-27T11:47:28Z</time><name>PT6341</name></trkpt>
<trkpt lat="52.930761" lon="-3.143995"><ele>126</ele><time>2019-09-27T11:47:29Z</time><name>PT6342</name></trkpt>
<trkpt lat="52.930773" lon="-3.144009"><ele>126</ele><time>2019-09-27T11:47:30Z</time><name>PT6343</name></trkpt>
<trkpt lat="52.930786" lon="-3.144015"><ele>126</ele><time>2019-09-27T11:47:31Z</time><name>PT6344</name></trkpt>
<trkpt lat="52.930797" lon="-3.144017"><ele>126</ele><time>2019-09-27T11:47:32Z</time><name>PT6345</name></trkpt>
<trkpt lat="52.930805" lon="-3.144017"><ele>125</ele><time>2019-09-27T11:47:33Z</time><name>PT6346</name></trkpt>
<trkpt lat="52.930814" lon="-3.144010"><ele>125</ele><time>2019-09-27T11:47:34Z</time><name>PT6347</name></trkpt>
<trkpt lat="52.930825" lon="-3.144005"><ele>125</ele><time>2019-09-27T11:47:35Z</time><name>PT6348</name></trkpt>
<trkpt lat="52.930836" lon="-3.144014"><ele>125</ele><time>2019-09-27T11:47:36Z</time><name>PT6349</name></trkpt>
<trkpt lat="52.930846" lon="-3.144032"><ele>126</ele><time>2019-09-27T11:47:37Z</time><name>PT6350</name></trkpt>
<trkpt lat="52.930855" lon="-3.144035"><ele>126</ele><time>2019-09-27T11:47:38Z</time><name>PT6351</name></trkpt>
<trkpt lat="52.930867" lon="-3.144052"><ele>128</ele><time>2019-09-27T11:47:39Z</time><name>PT6352</name></trkpt>
<trkpt lat="52.930880" lon="-3.144060"><ele>128</ele><time>2019-09-27T11:47:40Z</time><name>PT6353</name></trkpt>
<trkpt lat="52.930892" lon="-3.144066"><ele>128</ele><time>2019-09-27T11:47:41Z</time><name>PT6354</name></trkpt>
<trkpt lat="52.930905" lon="-3.144071"><ele>128</ele><time>2019-09-27T11:47:42Z</time><name>PT6355</name></trkpt>
<trkpt lat="52.930916" lon="-3.144071"><ele>129</ele><time>2019-09-27T11:47:43Z</time><name>PT6356</name></trkpt>
<trkpt lat="52.930919" lon="-3.144073"><ele>127</ele><time>2019-09-27T11:47:44Z</time><name>PT6357</name></trkpt>
<trkpt lat="52.930923" lon="-3.144087"><ele>128</ele><time>2019-09-27T11:47:45Z</time><name>PT6358</name></trkpt>
<trkpt lat="52.930933" lon="-3.144095"><ele>129</ele><time>2019-09-27T11:47:46Z</time><name>PT6359</name></trkpt>
<trkpt lat="52.930938" lon="-3.144100"><ele>129</ele><time>2019-09-27T11:47:47Z</time><name>PT6360</name></trkpt>
<trkpt lat="52.930942" lon="-3.144100"><ele>129</ele><time>2019-09-27T11:47:48Z</time><name>PT6361</name></trkpt>
<trkpt lat="52.930945" lon="-3.144104"><ele>130</ele><time>2019-09-27T11:47:49Z</time><name>PT6362</name></trkpt>
<trkpt lat="52.930947" lon="-3.144109"><ele>129</ele><time>2019-09-27T11:47:50Z</time><name>PT6363</name></trkpt>
<trkpt lat="52.930953" lon="-3.144110"><ele>129</ele><time>2019-09-27T11:47:51Z</time><name>PT6364</name></trkpt>
<trkpt lat="52.930965" lon="-3.144110"><ele>130</ele><time>2019-09-27T11:47:52Z</time><name>PT6365</name></trkpt>
<trkpt lat="52.930980" lon="-3.144109"><ele>129</ele><time>2019-09-27T11:47:53Z</time><name>PT6366</name></trkpt>
<trkpt lat="52.930995" lon="-3.144109"><ele>129</ele><time>2019-09-27T11:47:54Z</time><name>PT6367</name></trkpt>
<trkpt lat="52.931004" lon="-3.144112"><ele>128</ele><time>2019-09-27T11:47:55Z</time><name>PT6368</name></trkpt>
<trkpt lat="52.931013" lon="-3.144115"><ele>127</ele><time>2019-09-27T11:47:56Z</time><name>PT6369</name></trkpt>
<trkpt lat="52.931021" lon="-3.144113"><ele>127</ele><time>2019-09-27T11:47:57Z</time><name>PT6370</name></trkpt>
<trkpt lat="52.931033" lon="-3.144114"><ele>126</ele><time>2019-09-27T11:47:58Z</time><name>PT6371</name></trkpt>
<trkpt lat="52.931044" lon="-3.144114"><ele>126</ele><time>2019-09-27T11:47:59Z</time><name>PT6372</name></trkpt>
<trkpt lat="52.931055" lon="-3.144120"><ele>126</ele><time>2019-09-27T11:48:00Z</time><name>PT6373</name></trkpt>
<trkpt lat="52.931065" lon="-3.144124"><ele>126</ele><time>2019-09-27T11:48:01Z</time><name>PT6374</name></trkpt>
<trkpt lat="52.931076" lon="-3.144131"><ele>125</ele><time>2019-09-27T11:48:02Z</time><name>PT6375</name></trkpt>
<trkpt lat="52.931082" lon="-3.144140"><ele>125</ele><time>2019-09-27T11:48:03Z</time><name>PT6376</name></trkpt>
<trkpt lat="52.931093" lon="-3.144153"><ele>125</ele><time>2019-09-27T11:48:04Z</time><name>PT6377</name></trkpt>
<trkpt lat="52.931102" lon="-3.144164"><ele>125</ele><time>2019-09-27T11:48:05Z</time><name>PT6378</name></trkpt>
<trkpt lat="52.931113" lon="-3.144172"><ele>125</ele><time>2019-09-27T11:48:06Z</time><name>PT6379</name></trkpt>
<trkpt lat="52.931122" lon="-3.144182"><ele>124</ele><time>2019-09-27T11:48:07Z</time><name>PT6380</name></trkpt>
<trkpt lat="52.931132" lon="-3.144193"><ele>124</ele><time>2019-09-27T11:48:08Z</time><name>PT6381</name></trkpt>
<trkpt lat="52.931140" lon="-3.144203"><ele>124</ele><time>2019-09-27T11:48:09Z</time><name>PT6382</name></trkpt>
<trkpt lat="52.931151" lon="-3.144211"><ele>125</ele><time>2019-09-27T11:48:10Z</time><name>PT6383</name></trkpt>
<trkpt lat="52.931162" lon="-3.144219"><ele>124</ele><time>2019-09-27T11:48:11Z</time><name>PT6384</name></trkpt>
<trkpt lat="52.931168" lon="-3.144230"><ele>124</ele><time>2019-09-27T11:48:12Z</time><name>PT6385</name></trkpt>
<trkpt lat="52.931175" lon="-3.144239"><ele>123</ele><time>2019-09-27T11:48:13Z</time><name>PT6386</name></trkpt>
<trkpt lat="52.931182" lon="-3.144243"><ele>123</ele><time>2019-09-27T11:48:14Z</time><name>PT6387</name></trkpt>
<trkpt lat="52.931191" lon="-3.144251"><ele>123</ele><time>2019-09-27T11:48:15Z</time><name>PT6388</name></trkpt>
<trkpt lat="52.931201" lon="-3.144261"><ele>123</ele><time>2019-09-27T11:48:16Z</time><name>PT6389</name></trkpt>
<trkpt lat="52.931212" lon="-3.144268"><ele>124</ele><time>2019-09-27T11:48:17Z</time><name>PT6390</name></trkpt>
<trkpt lat="52.931222" lon="-3.144275"><ele>124</ele><time>2019-09-27T11:48:18Z</time><name>PT6391</name></trkpt>
<trkpt lat="52.931234" lon="-3.144277"><ele>124</ele><time>2019-09-27T11:48:19Z</time><name>PT6392</name></trkpt>
<trkpt lat="52.931242" lon="-3.144286"><ele>124</ele><time>2019-09-27T11:48:20Z</time><name>PT6393</name></trkpt>
<trkpt lat="52.931249" lon="-3.144293"><ele>124</ele><time>2019-09-27T11:48:21Z</time><name>PT6394</name></trkpt>
<trkpt lat="52.931270" lon="-3.144305"><ele>125</ele><time>2019-09-27T11:48:22Z</time><name>PT6395</name></trkpt>
<trkpt lat="52.931270" lon="-3.144312"><ele>125</ele><time>2019-09-27T11:48:23Z</time><name>PT6396</name></trkpt>
<trkpt lat="52.931275" lon="-3.144317"><ele>125</ele><time>2019-09-27T11:48:24Z</time><name>PT6397</name></trkpt>
<trkpt lat="52.931278" lon="-3.144328"><ele>125</ele><time>2019-09-27T11:48:25Z</time><name>PT6398</name></trkpt>
<trkpt lat="52.931279" lon="-3.144338"><ele>123</ele><time>2019-09-27T11:48:26Z</time><name>PT6399</name></trkpt>
<trkpt lat="52.931284" lon="-3.144353"><ele>123</ele><time>2019-09-27T11:48:27Z</time><name>PT6400</name></trkpt>
<trkpt lat="52.931291" lon="-3.144365"><ele>123</ele><time>2019-09-27T11:48:28Z</time><name>PT6401</name></trkpt>
<trkpt lat="52.931298" lon="-3.144374"><ele>123</ele><time>2019-09-27T11:48:29Z</time><name>PT6402</name></trkpt>
<trkpt lat="52.931306" lon="-3.144383"><ele>123</ele><time>2019-09-27T11:48:30Z</time><name>PT6403</name></trkpt>
<trkpt lat="52.931315" lon="-3.144396"><ele>123</ele><time>2019-09-27T11:48:31Z</time><name>PT6404</name></trkpt>
<trkpt lat="52.931322" lon="-3.144409"><ele>123</ele><time>2019-09-27T11:48:32Z</time><name>PT6405</name></trkpt>
<trkpt lat="52.931331" lon="-3.144422"><ele>124</ele><time>2019-09-27T11:48:33Z</time><name>PT6406</name></trkpt>
<trkpt lat="52.931339" lon="-3.144437"><ele>124</ele><time>2019-09-27T11:48:34Z</time><name>PT6407</name></trkpt>
<trkpt lat="52.931355" lon="-3.144450"><ele>125</ele><time>2019-09-27T11:48:35Z</time><name>PT6408</name></trkpt>
<trkpt lat="52.931363" lon="-3.144464"><ele>125</ele><time>2019-09-27T11:48:36Z</time><name>PT6409</name></trkpt>
<trkpt lat="52.931374" lon="-3.144474"><ele>125</ele><time>2019-09-27T11:48:37Z</time><name>PT6410</name></trkpt>
<trkpt lat="52.931382" lon="-3.144492"><ele>125</ele><time>2019-09-27T11:48:38Z</time><name>PT6411</name></trkpt>
<trkpt lat="52.931391" lon="-3.144508"><ele>125</ele><time>2019-09-27T11:48:39Z</time><name>PT6412</name></trkpt>
<trkpt lat="52.931399" lon="-3.144528"><ele>125</ele><time>2019-09-27T11:48:40Z</time><name>PT6413</name></trkpt>
<trkpt lat="52.931407" lon="-3.144545"><ele>125</ele><time>2019-09-27T11:48:41Z</time><name>PT6414</name></trkpt>
<trkpt lat="52.931413" lon="-3.144559"><ele>124</ele><time>2019-09-27T11:48:42Z</time><name>PT6415</name></trkpt>
<trkpt lat="52.931421" lon="-3.144576"><ele>125</ele><time>2019-09-27T11:48:43Z</time><name>PT6416</name></trkpt>
<trkpt lat="52.931426" lon="-3.144598"><ele>125</ele><time>2019-09-27T11:48:44Z</time><name>PT6417</name></trkpt>
<trkpt lat="52.931432" lon="-3.144616"><ele>125</ele><time>2019-09-27T11:48:45Z</time><name>PT6418</name></trkpt>
<trkpt lat="52.931438" lon="-3.144635"><ele>125</ele><time>2019-09-27T11:48:46Z</time><name>PT6419</name></trkpt>
<trkpt lat="52.931445" lon="-3.144652"><ele>125</ele><time>2019-09-27T11:48:47Z</time><name>PT6420</name></trkpt>
<trkpt lat="52.931450" lon="-3.144669"><ele>125</ele><time>2019-09-27T11:48:48Z</time><name>PT6421</name></trkpt>
<trkpt lat="52.931456" lon="-3.144687"><ele>125</ele><time>2019-09-27T11:48:49Z</time><name>PT6422</name></trkpt>
<trkpt lat="52.931461" lon="-3.144709"><ele>125</ele><time>2019-09-27T11:48:50Z</time><name>PT6423</name></trkpt>
<trkpt lat="52.931465" lon="-3.144726"><ele>125</ele><time>2019-09-27T11:48:51Z</time><name>PT6424</name></trkpt>
<trkpt lat="52.931470" lon="-3.144745"><ele>125</ele><time>2019-09-27T11:48:52Z</time><name>PT6425</name></trkpt>
<trkpt lat="52.931476" lon="-3.144765"><ele>125</ele><time>2019-09-27T11:48:53Z</time><name>PT6426</name></trkpt>
<trkpt lat="52.931483" lon="-3.144784"><ele>125</ele><time>2019-09-27T11:48:54Z</time><name>PT6427</name></trkpt>
<trkpt lat="52.931489" lon="-3.144801"><ele>125</ele><time>2019-09-27T11:48:55Z</time><name>PT6428</name></trkpt>
<trkpt lat="52.931496" lon="-3.144819"><ele>125</ele><time>2019-09-27T11:48:56Z</time><name>PT6429</name></trkpt>
<trkpt lat="52.931501" lon="-3.144835"><ele>124</ele><time>2019-09-27T11:48:57Z</time><name>PT6430</name></trkpt>
<trkpt lat="52.931504" lon="-3.144854"><ele>124</ele><time>2019-09-27T11:48:58Z</time><name>PT6431</name></trkpt>
<trkpt lat="52.931509" lon="-3.144870"><ele>124</ele><time>2019-09-27T11:48:59Z</time><name>PT6432</name></trkpt>
<trkpt lat="52.931516" lon="-3.144888"><ele>123</ele><time>2019-09-27T11:49:00Z</time><name>PT6433</name></trkpt>
<trkpt lat="52.931522" lon="-3.144908"><ele>124</ele><time>2019-09-27T11:49:01Z</time><name>PT6434</name></trkpt>
<trkpt lat="52.931526" lon="-3.144928"><ele>124</ele><time>2019-09-27T11:49:02Z</time><name>PT6435</name></trkpt>
<trkpt lat="52.931533" lon="-3.144943"><ele>124</ele><time>2019-09-27T11:49:03Z</time><name>PT6436</name></trkpt>
<trkpt lat="52.931538" lon="-3.144957"><ele>123</ele><time>2019-09-27T11:49:04Z</time><name>PT6437</name></trkpt>
<trkpt lat="52.931543" lon="-3.144980"><ele>123</ele><time>2019-09-27T11:49:05Z</time><name>PT6438</name></trkpt>
<trkpt lat="52.931549" lon="-3.144998"><ele>123</ele><time>2019-09-27T11:49:06Z</time><name>PT6439</name></trkpt>
<trkpt lat="52.931555" lon="-3.145022"><ele>123</ele><time>2019-09-27T11:49:07Z</time><name>PT6440</name></trkpt>
<trkpt lat="52.931561" lon="-3.145040"><ele>124</ele><time>2019-09-27T11:49:08Z</time><name>PT6441</name></trkpt>
<trkpt lat="52.931565" lon="-3.145059"><ele>124</ele><time>2019-09-27T11:49:09Z</time><name>PT6442</name></trkpt>
<trkpt lat="52.931571" lon="-3.145075"><ele>124</ele><time>2019-09-27T11:49:10Z</time><name>PT6443</name></trkpt>
<trkpt lat="52.931576" lon="-3.145096"><ele>124</ele><time>2019-09-27T11:49:11Z</time><name>PT6444</name></trkpt>
<trkpt lat="52.931582" lon="-3.145109"><ele>124</ele><time>2019-09-27T11:49:12Z</time><name>PT6445</name></trkpt>
<trkpt lat="52.931590" lon="-3.145119"><ele>123</ele><time>2019-09-27T11:49:13Z</time><name>PT6446</name></trkpt>
<trkpt lat="52.931595" lon="-3.145137"><ele>124</ele><time>2019-09-27T11:49:14Z</time><name>PT6447</name></trkpt>
<trkpt lat="52.931599" lon="-3.145160"><ele>124</ele><time>2019-09-27T11:49:15Z</time><name>PT6448</name></trkpt>
<trkpt lat="52.931603" lon="-3.145182"><ele>125</ele><time>2019-09-27T11:49:16Z</time><name>PT6449</name></trkpt>
<trkpt lat="52.931609" lon="-3.145202"><ele>125</ele><time>2019-09-27T11:49:17Z</time><name>PT6450</name></trkpt>
<trkpt lat="52.931615" lon="-3.145218"><ele>124</ele><time>2019-09-27T11:49:18Z</time><name>PT6451</name></trkpt>
<trkpt lat="52.931620" lon="-3.145232"><ele>123</ele><time>2019-09-27T11:49:19Z</time><name>PT6452</name></trkpt>
<trkpt lat="52.931624" lon="-3.145258"><ele>125</ele><time>2019-09-27T11:49:20Z</time><name>PT6453</name></trkpt>
<trkpt lat="52.931629" lon="-3.145280"><ele>125</ele><time>2019-09-27T11:49:21Z</time><name>PT6454</name></trkpt>
<trkpt lat="52.931634" lon="-3.145298"><ele>126</ele><time>2019-09-27T11:49:22Z</time><name>PT6455</name></trkpt>
<trkpt lat="52.931638" lon="-3.145311"><ele>124</ele><time>2019-09-27T11:49:23Z</time><name>PT6456</name></trkpt>
<trkpt lat="52.931641" lon="-3.145332"><ele>124</ele><time>2019-09-27T11:49:24Z</time><name>PT6457</name></trkpt>
<trkpt lat="52.931647" lon="-3.145350"><ele>124</ele><time>2019-09-27T11:49:25Z</time><name>PT6458</name></trkpt>
<trkpt lat="52.931652" lon="-3.145371"><ele>125</ele><time>2019-09-27T11:49:26Z</time><name>PT6459</name></trkpt>
<trkpt lat="52.931657" lon="-3.145389"><ele>125</ele><time>2019-09-27T11:49:27Z</time><name>PT6460</name></trkpt>
<trkpt lat="52.931662" lon="-3.145411"><ele>125</ele><time>2019-09-27T11:49:28Z</time><name>PT6461</name></trkpt>
<trkpt lat="52.931667" lon="-3.145430"><ele>124</ele><time>2019-09-27T11:49:29Z</time><name>PT6462</name></trkpt>
<trkpt lat="52.931672" lon="-3.145448"><ele>125</ele><time>2019-09-27T11:49:30Z</time><name>PT6463</name></trkpt>
<trkpt lat="52.931677" lon="-3.145468"><ele>124</ele><time>2019-09-27T11:49:31Z</time><name>PT6464</name></trkpt>
<trkpt lat="52.931683" lon="-3.145488"><ele>125</ele><time>2019-09-27T11:49:32Z</time><name>PT6465</name></trkpt>
<trkpt lat="52.931690" lon="-3.145502"><ele>124</ele><time>2019-09-27T11:49:33Z</time><name>PT6466</name></trkpt>
<trkpt lat="52.931696" lon="-3.145519"><ele>125</ele><time>2019-09-27T11:49:34Z</time><name>PT6467</name></trkpt>
<trkpt lat="52.931703" lon="-3.145539"><ele>125</ele><time>2019-09-27T11:49:35Z</time><name>PT6468</name></trkpt>
<trkpt lat="52.931708" lon="-3.145559"><ele>126</ele><time>2019-09-27T11:49:36Z</time><name>PT6469</name></trkpt>
<trkpt lat="52.931713" lon="-3.145580"><ele>126</ele><time>2019-09-27T11:49:37Z</time><name>PT6470</name></trkpt>
<trkpt lat="52.931719" lon="-3.145600"><ele>126</ele><time>2019-09-27T11:49:38Z</time><name>PT6471</name></trkpt>
<trkpt lat="52.931723" lon="-3.145618"><ele>126</ele><time>2019-09-27T11:49:39Z</time><name>PT6472</name></trkpt>
<trkpt lat="52.931725" lon="-3.145639"><ele>126</ele><time>2019-09-27T11:49:40Z</time><name>PT6473</name></trkpt>
<trkpt lat="52.931732" lon="-3.145653"><ele>126</ele><time>2019-09-27T11:49:41Z</time><name>PT6474</name></trkpt>
<trkpt lat="52.931742" lon="-3.145667"><ele>126</ele><time>2019-09-27T11:49:42Z</time><name>PT6475</name></trkpt>
<trkpt lat="52.931748" lon="-3.145679"><ele>127</ele><time>2019-09-27T11:49:43Z</time><name>PT6476</name></trkpt>
<trkpt lat="52.931750" lon="-3.145692"><ele>128</ele><time>2019-09-27T11:49:44Z</time><name>PT6477</name></trkpt>
<trkpt lat="52.931756" lon="-3.145691"><ele>126</ele><time>2019-09-27T11:49:45Z</time><name>PT6478</name></trkpt>
<trkpt lat="52.931757" lon="-3.145696"><ele>125</ele><time>2019-09-27T11:49:46Z</time><name>PT6479</name></trkpt>
<trkpt lat="52.931759" lon="-3.145697"><ele>125</ele><time>2019-09-27T11:49:47Z</time><name>PT6480</name></trkpt>
<trkpt lat="52.931760" lon="-3.145702"><ele>126</ele><time>2019-09-27T11:49:48Z</time><name>PT6481</name></trkpt>
<trkpt lat="52.931759" lon="-3.145708"><ele>127</ele><time>2019-09-27T11:49:49Z</time><name>PT6482</name></trkpt>
<trkpt lat="52.931759" lon="-3.145710"><ele>128</ele><time>2019-09-27T11:49:50Z</time><name>PT6483</name></trkpt>
<trkpt lat="52.931761" lon="-3.145712"><ele>128</ele><time>2019-09-27T11:49:51Z</time><name>PT6484</name></trkpt>
<trkpt lat="52.931764" lon="-3.145721"><ele>129</ele><time>2019-09-27T11:49:52Z</time><name>PT6485</name></trkpt>
<trkpt lat="52.931763" lon="-3.145731"><ele>130</ele><time>2019-09-27T11:49:53Z</time><name>PT6486</name></trkpt>
<trkpt lat="52.931765" lon="-3.145734"><ele>129</ele><time>2019-09-27T11:49:54Z</time><name>PT6487</name></trkpt>
<trkpt lat="52.931770" lon="-3.145739"><ele>130</ele><time>2019-09-27T11:49:55Z</time><name>PT6488</name></trkpt>
<trkpt lat="52.931773" lon="-3.145748"><ele>131</ele><time>2019-09-27T11:49:56Z</time><name>PT6489</name></trkpt>
<trkpt lat="52.931779" lon="-3.145761"><ele>131</ele><time>2019-09-27T11:49:57Z</time><name>PT6490</name></trkpt>
<trkpt lat="52.931784" lon="-3.145774"><ele>131</ele><time>2019-09-27T11:49:58Z</time><name>PT6491</name></trkpt>
<trkpt lat="52.931787" lon="-3.145785"><ele>131</ele><time>2019-09-27T11:49:59Z</time><name>PT6492</name></trkpt>
<trkpt lat="52.931792" lon="-3.145797"><ele>130</ele><time>2019-09-27T11:50:00Z</time><name>PT6493</name></trkpt>
<trkpt lat="52.931800" lon="-3.145806"><ele>131</ele><time>2019-09-27T11:50:01Z</time><name>PT6494</name></trkpt>
<trkpt lat="52.931806" lon="-3.145818"><ele>131</ele><time>2019-09-27T11:50:02Z</time><name>PT6495</name></trkpt>
<trkpt lat="52.931808" lon="-3.145828"><ele>131</ele><time>2019-09-27T11:50:03Z</time><name>PT6496</name></trkpt>
<trkpt lat="52.931813" lon="-3.145842"><ele>132</ele><time>2019-09-27T11:50:04Z</time><name>PT6497</name></trkpt>
<trkpt lat="52.931816" lon="-3.145855"><ele>132</ele><time>2019-09-27T11:50:05Z</time><name>PT6498</name></trkpt>
<trkpt lat="52.931820" lon="-3.145864"><ele>132</ele><time>2019-09-27T11:50:06Z</time><name>PT6499</name></trkpt>
<trkpt lat="52.931822" lon="-3.145874"><ele>131</ele><time>2019-09-27T11:50:07Z</time><name>PT6500</name></trkpt>
<trkpt lat="52.931824" lon="-3.145885"><ele>131</ele><time>2019-09-27T11:50:08Z</time><name>PT6501</name></trkpt>
<trkpt lat="52.931826" lon="-3.145892"><ele>131</ele><time>2019-09-27T11:50:09Z</time><name>PT6502</name></trkpt>
<trkpt lat="52.931829" lon="-3.145895"><ele>131</ele><time>2019-09-27T11:50:10Z</time><name>PT6503</name></trkpt>
<trkpt lat="52.931830" lon="-3.145898"><ele>131</ele><time>2019-09-27T11:50:11Z</time><name>PT6504</name></trkpt>
<trkpt lat="52.931834" lon="-3.145899"><ele>131</ele><time>2019-09-27T11:50:12Z</time><name>PT6505</name></trkpt>
<trkpt lat="52.931839" lon="-3.145906"><ele>131</ele><time>2019-09-27T11:50:14Z</time><name>PT6506</name></trkpt>
<trkpt lat="52.931846" lon="-3.145917"><ele>130</ele><time>2019-09-27T11:50:15Z</time><name>PT6507</name></trkpt>
<trkpt lat="52.931852" lon="-3.145927"><ele>130</ele><time>2019-09-27T11:50:16Z</time><name>PT6508</name></trkpt>
<trkpt lat="52.931854" lon="-3.145941"><ele>129</ele><time>2019-09-27T11:50:17Z</time><name>PT6509</name></trkpt>
<trkpt lat="52.931859" lon="-3.145959"><ele>129</ele><time>2019-09-27T11:50:18Z</time><name>PT6510</name></trkpt>
<trkpt lat="52.931863" lon="-3.145974"><ele>128</ele><time>2019-09-27T11:50:19Z</time><name>PT6511</name></trkpt>
<trkpt lat="52.931864" lon="-3.145987"><ele>127</ele><time>2019-09-27T11:50:20Z</time><name>PT6512</name></trkpt>
<trkpt lat="52.931862" lon="-3.145992"><ele>126</ele><time>2019-09-27T11:50:21Z</time><name>PT6513</name></trkpt>
<trkpt lat="52.931873" lon="-3.146001"><ele>126</ele><time>2019-09-27T11:50:22Z</time><name>PT6514</name></trkpt>
<trkpt lat="52.931879" lon="-3.146016"><ele>126</ele><time>2019-09-27T11:50:23Z</time><name>PT6515</name></trkpt>
<trkpt lat="52.931886" lon="-3.146024"><ele>126</ele><time>2019-09-27T11:50:24Z</time><name>PT6516</name></trkpt>
<trkpt lat="52.931892" lon="-3.146041"><ele>125</ele><time>2019-09-27T11:50:25Z</time><name>PT6517</name></trkpt>
<trkpt lat="52.931901" lon="-3.146057"><ele>125</ele><time>2019-09-27T11:50:26Z</time><name>PT6518</name></trkpt>
<trkpt lat="52.931907" lon="-3.146067"><ele>125</ele><time>2019-09-27T11:50:27Z</time><name>PT6519</name></trkpt>
<trkpt lat="52.931912" lon="-3.146071"><ele>125</ele><time>2019-09-27T11:50:28Z</time><name>PT6520</name></trkpt>
<trkpt lat="52.931920" lon="-3.146073"><ele>125</ele><time>2019-09-27T11:50:29Z</time><name>PT6521</name></trkpt>
<trkpt lat="52.931930" lon="-3.146075"><ele>125</ele><time>2019-09-27T11:50:30Z</time><name>PT6522</name></trkpt>
<trkpt lat="52.931940" lon="-3.146078"><ele>126</ele><time>2019-09-27T11:50:31Z</time><name>PT6523</name></trkpt>
<trkpt lat="52.931943" lon="-3.146091"><ele>126</ele><time>2019-09-27T11:50:32Z</time><name>PT6524</name></trkpt>
<trkpt lat="52.931948" lon="-3.146101"><ele>128</ele><time>2019-09-27T11:50:33Z</time><name>PT6525</name></trkpt>
<trkpt lat="52.931950" lon="-3.146093"><ele>127</ele><time>2019-09-27T11:50:34Z</time><name>PT6526</name></trkpt>
<trkpt lat="52.931957" lon="-3.146086"><ele>127</ele><time>2019-09-27T11:50:35Z</time><name>PT6527</name></trkpt>
<trkpt lat="52.931968" lon="-3.146077"><ele>128</ele><time>2019-09-27T11:50:36Z</time><name>PT6528</name></trkpt>
<trkpt lat="52.931972" lon="-3.146081"><ele>128</ele><time>2019-09-27T11:50:37Z</time><name>PT6529</name></trkpt>
<trkpt lat="52.931977" lon="-3.146082"><ele>128</ele><time>2019-09-27T11:50:38Z</time><name>PT6530</name></trkpt>
<trkpt lat="52.931987" lon="-3.146076"><ele>128</ele><time>2019-09-27T11:50:39Z</time><name>PT6531</name></trkpt>
<trkpt lat="52.931989" lon="-3.146080"><ele>128</ele><time>2019-09-27T11:50:40Z</time><name>PT6532</name></trkpt>
<trkpt lat="52.931995" lon="-3.146084"><ele>128</ele><time>2019-09-27T11:50:41Z</time><name>PT6533</name></trkpt>
<trkpt lat="52.932001" lon="-3.146085"><ele>128</ele><time>2019-09-27T11:50:42Z</time><name>PT6534</name></trkpt>
<trkpt lat="52.932009" lon="-3.146089"><ele>128</ele><time>2019-09-27T11:50:43Z</time><name>PT6535</name></trkpt>
<trkpt lat="52.932017" lon="-3.146083"><ele>129</ele><time>2019-09-27T11:50:44Z</time><name>PT6536</name></trkpt>
<trkpt lat="52.932029" lon="-3.146081"><ele>128</ele><time>2019-09-27T11:50:45Z</time><name>PT6537</name></trkpt>
<trkpt lat="52.932036" lon="-3.146071"><ele>128</ele><time>2019-09-27T11:50:46Z</time><name>PT6538</name></trkpt>
<trkpt lat="52.932041" lon="-3.146064"><ele>130</ele><time>2019-09-27T11:50:47Z</time><name>PT6539</name></trkpt>
<trkpt lat="52.932048" lon="-3.146056"><ele>133</ele><time>2019-09-27T11:50:48Z</time><name>PT6540</name></trkpt>
<trkpt lat="52.932062" lon="-3.146041"><ele>134</ele><time>2019-09-27T11:50:49Z</time><name>PT6541</name></trkpt>
<trkpt lat="52.932068" lon="-3.146026"><ele>135</ele><time>2019-09-27T11:50:50Z</time><name>PT6542</name></trkpt>
<trkpt lat="52.932074" lon="-3.146015"><ele>135</ele><time>2019-09-27T11:50:51Z</time><name>PT6543</name></trkpt>
<trkpt lat="52.932084" lon="-3.146009"><ele>135</ele><time>2019-09-27T11:50:52Z</time><name>PT6544</name></trkpt>
<trkpt lat="52.932102" lon="-3.145998"><ele>137</ele><time>2019-09-27T11:50:53Z</time><name>PT6545</name></trkpt>
<trkpt lat="52.932116" lon="-3.145985"><ele>137</ele><time>2019-09-27T11:50:54Z</time><name>PT6546</name></trkpt>
<trkpt lat="52.932121" lon="-3.145974"><ele>137</ele><time>2019-09-27T11:50:55Z</time><name>PT6547</name></trkpt>
<trkpt lat="52.932126" lon="-3.145959"><ele>138</ele><time>2019-09-27T11:50:56Z</time><name>PT6548</name></trkpt>
<trkpt lat="52.932129" lon="-3.145954"><ele>137</ele><time>2019-09-27T11:50:57Z</time><name>PT6549</name></trkpt>
<trkpt lat="52.932143" lon="-3.145945"><ele>138</ele><time>2019-09-27T11:50:58Z</time><name>PT6550</name></trkpt>
<trkpt lat="52.932159" lon="-3.145937"><ele>139</ele><time>2019-09-27T11:50:59Z</time><name>PT6551</name></trkpt>
<trkpt lat="52.932170" lon="-3.145927"><ele>139</ele><time>2019-09-27T11:51:00Z</time><name>PT6552</name></trkpt>
<trkpt lat="52.932180" lon="-3.145913"><ele>138</ele><time>2019-09-27T11:51:01Z</time><name>PT6553</name></trkpt>
<trkpt lat="52.932188" lon="-3.145906"><ele>138</ele><time>2019-09-27T11:51:02Z</time><name>PT6554</name></trkpt>
<trkpt lat="52.932195" lon="-3.145902"><ele>138</ele><time>2019-09-27T11:51:03Z</time><name>PT6555</name></trkpt>
<trkpt lat="52.932206" lon="-3.145896"><ele>138</ele><time>2019-09-27T11:51:04Z</time><name>PT6556</name></trkpt>
<trkpt lat="52.932220" lon="-3.145886"><ele>139</ele><time>2019-09-27T11:51:05Z</time><name>PT6557</name></trkpt>
<trkpt lat="52.932230" lon="-3.145883"><ele>139</ele><time>2019-09-27T11:51:06Z</time><name>PT6558</name></trkpt>
<trkpt lat="52.932239" lon="-3.145883"><ele>138</ele><time>2019-09-27T11:51:07Z</time><name>PT6559</name></trkpt>
<trkpt lat="52.932248" lon="-3.145879"><ele>140</ele><time>2019-09-27T11:51:08Z</time><name>PT6560</name></trkpt>
<trkpt lat="52.932254" lon="-3.145878"><ele>140</ele><time>2019-09-27T11:51:09Z</time><name>PT6561</name></trkpt>
<trkpt lat="52.932265" lon="-3.145876"><ele>141</ele><time>2019-09-27T11:51:10Z</time><name>PT6562</name></trkpt>
<trkpt lat="52.932284" lon="-3.145878"><ele>141</ele><time>2019-09-27T11:51:11Z</time><name>PT6563</name></trkpt>
<trkpt lat="52.932293" lon="-3.145880"><ele>141</ele><time>2019-09-27T11:51:12Z</time><name>PT6564</name></trkpt>
<trkpt lat="52.932297" lon="-3.145874"><ele>140</ele><time>2019-09-27T11:51:13Z</time><name>PT6565</name></trkpt>
<trkpt lat="52.932305" lon="-3.145873"><ele>140</ele><time>2019-09-27T11:51:14Z</time><name>PT6566</name></trkpt>
<trkpt lat="52.932316" lon="-3.145872"><ele>140</ele><time>2019-09-27T11:51:15Z</time><name>PT6567</name></trkpt>
<trkpt lat="52.932318" lon="-3.145873"><ele>140</ele><time>2019-09-27T11:51:16Z</time><name>PT6568</name></trkpt>
<trkpt lat="52.932334" lon="-3.145866"><ele>142</ele><time>2019-09-27T11:51:17Z</time><name>PT6569</name></trkpt>
<trkpt lat="52.932346" lon="-3.145865"><ele>142</ele><time>2019-09-27T11:51:18Z</time><name>PT6570</name></trkpt>
<trkpt lat="52.932356" lon="-3.145866"><ele>141</ele><time>2019-09-27T11:51:19Z</time><name>PT6571</name></trkpt>
<trkpt lat="52.932364" lon="-3.145868"><ele>142</ele><time>2019-09-27T11:51:20Z</time><name>PT6572</name></trkpt>
<trkpt lat="52.932370" lon="-3.145864"><ele>143</ele><time>2019-09-27T11:51:21Z</time><name>PT6573</name></trkpt>
<trkpt lat="52.932373" lon="-3.145861"><ele>143</ele><time>2019-09-27T11:51:22Z</time><name>PT6574</name></trkpt>
<trkpt lat="52.932373" lon="-3.145857"><ele>143</ele><time>2019-09-27T11:51:23Z</time><name>PT6575</name></trkpt>
<trkpt lat="52.932375" lon="-3.145857"><ele>143</ele><time>2019-09-27T11:51:24Z</time><name>PT6576</name></trkpt>
<trkpt lat="52.932377" lon="-3.145869"><ele>145</ele><time>2019-09-27T11:51:25Z</time><name>PT6577</name></trkpt>
<trkpt lat="52.932390" lon="-3.145864"><ele>145</ele><time>2019-09-27T11:51:26Z</time><name>PT6578</name></trkpt>
<trkpt lat="52.932396" lon="-3.145860"><ele>146</ele><time>2019-09-27T11:51:27Z</time><name>PT6579</name></trkpt>
<trkpt lat="52.932400" lon="-3.145857"><ele>146</ele><time>2019-09-27T11:51:28Z</time><name>PT6580</name></trkpt>
<trkpt lat="52.932408" lon="-3.145859"><ele>146</ele><time>2019-09-27T11:51:29Z</time><name>PT6581</name></trkpt>
<trkpt lat="52.932403" lon="-3.145826"><ele>145</ele><time>2019-09-27T11:51:30Z</time><name>PT6582</name></trkpt>
<trkpt lat="52.932410" lon="-3.145813"><ele>146</ele><time>2019-09-27T11:51:31Z</time><name>PT6583</name></trkpt>
<trkpt lat="52.932424" lon="-3.145812"><ele>145</ele><time>2019-09-27T11:51:32Z</time><name>PT6584</name></trkpt>
<trkpt lat="52.932438" lon="-3.145797"><ele>147</ele><time>2019-09-27T11:51:33Z</time><name>PT6585</name></trkpt>
<trkpt lat="52.932454" lon="-3.145782"><ele>148</ele><time>2019-09-27T11:51:34Z</time><name>PT6586</name></trkpt>
<trkpt lat="52.932467" lon="-3.145779"><ele>148</ele><time>2019-09-27T11:51:35Z</time><name>PT6587</name></trkpt>
<trkpt lat="52.932478" lon="-3.145775"><ele>148</ele><time>2019-09-27T11:51:36Z</time><name>PT6588</name></trkpt>
<trkpt lat="52.932489" lon="-3.145766"><ele>147</ele><time>2019-09-27T11:51:37Z</time><name>PT6589</name></trkpt>
<trkpt lat="52.932501" lon="-3.145754"><ele>148</ele><time>2019-09-27T11:51:38Z</time><name>PT6590</name></trkpt>
<trkpt lat="52.932514" lon="-3.145744"><ele>148</ele><time>2019-09-27T11:51:39Z</time><name>PT6591</name></trkpt>
<trkpt lat="52.932528" lon="-3.145736"><ele>148</ele><time>2019-09-27T11:51:40Z</time><name>PT6592</name></trkpt>
<trkpt lat="52.932541" lon="-3.145723"><ele>150</ele><time>2019-09-27T11:51:41Z</time><name>PT6593</name></trkpt>
<trkpt lat="52.932549" lon="-3.145714"><ele>150</ele><time>2019-09-27T11:51:42Z</time><name>PT6594</name></trkpt>
<trkpt lat="52.932560" lon="-3.145705"><ele>150</ele><time>2019-09-27T11:51:43Z</time><name>PT6595</name></trkpt>
<trkpt lat="52.932569" lon="-3.145699"><ele>150</ele><time>2019-09-27T11:51:44Z</time><name>PT6596</name></trkpt>
<trkpt lat="52.932582" lon="-3.145698"><ele>150</ele><time>2019-09-27T11:51:45Z</time><name>PT6597</name></trkpt>
<trkpt lat="52.932587" lon="-3.145694"><ele>150</ele><time>2019-09-27T11:51:46Z</time><name>PT6598</name></trkpt>
<trkpt lat="52.932597" lon="-3.145682"><ele>150</ele><time>2019-09-27T11:51:47Z</time><name>PT6599</name></trkpt>
<trkpt lat="52.932605" lon="-3.145672"><ele>150</ele><time>2019-09-27T11:51:48Z</time><name>PT6600</name></trkpt>
<trkpt lat="52.932616" lon="-3.145656"><ele>151</ele><time>2019-09-27T11:51:49Z</time><name>PT6601</name></trkpt>
<trkpt lat="52.932628" lon="-3.145644"><ele>152</ele><time>2019-09-27T11:51:50Z</time><name>PT6602</name></trkpt>
<trkpt lat="52.932632" lon="-3.145637"><ele>151</ele><time>2019-09-27T11:51:51Z</time><name>PT6603</name></trkpt>
<trkpt lat="52.932635" lon="-3.145621"><ele>152</ele><time>2019-09-27T11:51:52Z</time><name>PT6604</name></trkpt>
<trkpt lat="52.932642" lon="-3.145616"><ele>152</ele><time>2019-09-27T11:51:53Z</time><name>PT6605</name></trkpt>
<trkpt lat="52.932651" lon="-3.145607"><ele>152</ele><time>2019-09-27T11:51:54Z</time><name>PT6606</name></trkpt>
<trkpt lat="52.932667" lon="-3.145596"><ele>152</ele><time>2019-09-27T11:51:55Z</time><name>PT6607</name></trkpt>
<trkpt lat="52.932676" lon="-3.145589"><ele>152</ele><time>2019-09-27T11:51:56Z</time><name>PT6608</name></trkpt>
<trkpt lat="52.932684" lon="-3.145569"><ele>155</ele><time>2019-09-27T11:51:57Z</time><name>PT6609</name></trkpt>
<trkpt lat="52.932690" lon="-3.145554"><ele>155</ele><time>2019-09-27T11:51:58Z</time><name>PT6610</name></trkpt>
<trkpt lat="52.932700" lon="-3.145544"><ele>154</ele><time>2019-09-27T11:51:59Z</time><name>PT6611</name></trkpt>
<trkpt lat="52.932709" lon="-3.145527"><ele>155</ele><time>2019-09-27T11:52:00Z</time><name>PT6612</name></trkpt>
<trkpt lat="52.932714" lon="-3.145504"><ele>156</ele><time>2019-09-27T11:52:01Z</time><name>PT6613</name></trkpt>
<trkpt lat="52.932723" lon="-3.145489"><ele>157</ele><time>2019-09-27T11:52:02Z</time><name>PT6614</name></trkpt>
<trkpt lat="52.932732" lon="-3.145486"><ele>157</ele><time>2019-09-27T11:52:03Z</time><name>PT6615</name></trkpt>
<trkpt lat="52.932738" lon="-3.145480"><ele>156</ele><time>2019-09-27T11:52:04Z</time><name>PT6616</name></trkpt>
<trkpt lat="52.932757" lon="-3.145476"><ele>154</ele><time>2019-09-27T11:52:05Z</time><name>PT6617</name></trkpt>
<trkpt lat="52.932768" lon="-3.145477"><ele>153</ele><time>2019-09-27T11:52:06Z</time><name>PT6618</name></trkpt>
<trkpt lat="52.932772" lon="-3.145477"><ele>153</ele><time>2019-09-27T11:52:07Z</time><name>PT6619</name></trkpt>
<trkpt lat="52.932785" lon="-3.145486"><ele>153</ele><time>2019-09-27T11:52:08Z</time><name>PT6620</name></trkpt>
<trkpt lat="52.932796" lon="-3.145485"><ele>153</ele><time>2019-09-27T11:52:09Z</time><name>PT6621</name></trkpt>
<trkpt lat="52.932816" lon="-3.145476"><ele>155</ele><time>2019-09-27T11:52:10Z</time><name>PT6622</name></trkpt>
<trkpt lat="52.932829" lon="-3.145483"><ele>155</ele><time>2019-09-27T11:52:11Z</time><name>PT6623</name></trkpt>
<trkpt lat="52.932836" lon="-3.145481"><ele>155</ele><time>2019-09-27T11:52:12Z</time><name>PT6624</name></trkpt>
<trkpt lat="52.932844" lon="-3.145474"><ele>154</ele><time>2019-09-27T11:52:13Z</time><name>PT6625</name></trkpt>
<trkpt lat="52.932850" lon="-3.145466"><ele>154</ele><time>2019-09-27T11:52:14Z</time><name>PT6626</name></trkpt>
<trkpt lat="52.932855" lon="-3.145457"><ele>155</ele><time>2019-09-27T11:52:15Z</time><name>PT6627</name></trkpt>
<trkpt lat="52.932868" lon="-3.145464"><ele>153</ele><time>2019-09-27T11:52:16Z</time><name>PT6628</name></trkpt>
<trkpt lat="52.932875" lon="-3.145459"><ele>154</ele><time>2019-09-27T11:52:17Z</time><name>PT6629</name></trkpt>
<trkpt lat="52.932881" lon="-3.145447"><ele>156</ele><time>2019-09-27T11:52:18Z</time><name>PT6630</name></trkpt>
<trkpt lat="52.932885" lon="-3.145422"><ele>158</ele><time>2019-09-27T11:52:19Z</time><name>PT6631</name></trkpt>
<trkpt lat="52.932889" lon="-3.145415"><ele>158</ele><time>2019-09-27T11:52:20Z</time><name>PT6632</name></trkpt>
<trkpt lat="52.932897" lon="-3.145407"><ele>159</ele><time>2019-09-27T11:52:21Z</time><name>PT6633</name></trkpt>
<trkpt lat="52.932903" lon="-3.145402"><ele>159</ele><time>2019-09-27T11:52:22Z</time><name>PT6634</name></trkpt>
<trkpt lat="52.932912" lon="-3.145400"><ele>158</ele><time>2019-09-27T11:52:23Z</time><name>PT6635</name></trkpt>
<trkpt lat="52.932919" lon="-3.145393"><ele>158</ele><time>2019-09-27T11:52:24Z</time><name>PT6636</name></trkpt>
<trkpt lat="52.932929" lon="-3.145387"><ele>157</ele><time>2019-09-27T11:52:25Z</time><name>PT6637</name></trkpt>
<trkpt lat="52.932936" lon="-3.145381"><ele>157</ele><time>2019-09-27T11:52:26Z</time><name>PT6638</name></trkpt>
<trkpt lat="52.932944" lon="-3.145379"><ele>157</ele><time>2019-09-27T11:52:27Z</time><name>PT6639</name></trkpt>
<trkpt lat="52.932948" lon="-3.145376"><ele>157</ele><time>2019-09-27T11:52:28Z</time><name>PT6640</name></trkpt>
<trkpt lat="52.932953" lon="-3.145375"><ele>156</ele><time>2019-09-27T11:52:29Z</time><name>PT6641</name></trkpt>
<trkpt lat="52.932965" lon="-3.145359"><ele>155</ele><time>2019-09-27T11:52:31Z</time><name>PT6642</name></trkpt>
<trkpt lat="52.932980" lon="-3.145333"><ele>155</ele><time>2019-09-27T11:52:32Z</time><name>PT6643</name></trkpt>
<trkpt lat="52.932992" lon="-3.145316"><ele>153</ele><time>2019-09-27T11:52:33Z</time><name>PT6644</name></trkpt>
<trkpt lat="52.933000" lon="-3.145302"><ele>153</ele><time>2019-09-27T11:52:34Z</time><name>PT6645</name></trkpt>
<trkpt lat="52.933009" lon="-3.145285"><ele>153</ele><time>2019-09-27T11:52:35Z</time><name>PT6646</name></trkpt>
<trkpt lat="52.933019" lon="-3.145266"><ele>152</ele><time>2019-09-27T11:52:36Z</time><name>PT6647</name></trkpt>
<trkpt lat="52.933032" lon="-3.145254"><ele>151</ele><time>2019-09-27T11:52:37Z</time><name>PT6648</name></trkpt>
<trkpt lat="52.933039" lon="-3.145253"><ele>150</ele><time>2019-09-27T11:52:38Z</time><name>PT6649</name></trkpt>
<trkpt lat="52.933047" lon="-3.145243"><ele>151</ele><time>2019-09-27T11:52:39Z</time><name>PT6650</name></trkpt>
<trkpt lat="52.933054" lon="-3.145230"><ele>150</ele><time>2019-09-27T11:52:40Z</time><name>PT6651</name></trkpt>
<trkpt lat="52.933064" lon="-3.145227"><ele>150</ele><time>2019-09-27T11:52:41Z</time><name>PT6652</name></trkpt>
<trkpt lat="52.933073" lon="-3.145227"><ele>149</ele><time>2019-09-27T11:52:42Z</time><name>PT6653</name></trkpt>
<trkpt lat="52.933083" lon="-3.145224"><ele>150</ele><time>2019-09-27T11:52:43Z</time><name>PT6654</name></trkpt>
<trkpt lat="52.933092" lon="-3.145208"><ele>151</ele><time>2019-09-27T11:52:44Z</time><name>PT6655</name></trkpt>
<trkpt lat="52.933103" lon="-3.145205"><ele>151</ele><time>2019-09-27T11:52:45Z</time><name>PT6656</name></trkpt>
<trkpt lat="52.933111" lon="-3.145202"><ele>152</ele><time>2019-09-27T11:52:46Z</time><name>PT6657</name></trkpt>
<trkpt lat="52.933111" lon="-3.145193"><ele>152</ele><time>2019-09-27T11:52:47Z</time><name>PT6658</name></trkpt>
<trkpt lat="52.933118" lon="-3.145182"><ele>152</ele><time>2019-09-27T11:52:48Z</time><name>PT6659</name></trkpt>
<trkpt lat="52.933122" lon="-3.145166"><ele>153</ele><time>2019-09-27T11:52:49Z</time><name>PT6660</name></trkpt>
<trkpt lat="52.933133" lon="-3.145158"><ele>152</ele><time>2019-09-27T11:52:50Z</time><name>PT6661</name></trkpt>
<trkpt lat="52.933139" lon="-3.145147"><ele>152</ele><time>2019-09-27T11:52:51Z</time><name>PT6662</name></trkpt>
<trkpt lat="52.933146" lon="-3.145141"><ele>150</ele><time>2019-09-27T11:52:52Z</time><name>PT6663</name></trkpt>
<trkpt lat="52.933157" lon="-3.145142"><ele>149</ele><time>2019-09-27T11:52:53Z</time><name>PT6664</name></trkpt>
<trkpt lat="52.933164" lon="-3.145135"><ele>148</ele><time>2019-09-27T11:52:54Z</time><name>PT6665</name></trkpt>
<trkpt lat="52.933167" lon="-3.145125"><ele>147</ele><time>2019-09-27T11:52:55Z</time><name>PT6666</name></trkpt>
<trkpt lat="52.933183" lon="-3.145125"><ele>147</ele><time>2019-09-27T11:52:56Z</time><name>PT6667</name></trkpt>
<trkpt lat="52.933192" lon="-3.145121"><ele>147</ele><time>2019-09-27T11:52:57Z</time><name>PT6668</name></trkpt>
<trkpt lat="52.933203" lon="-3.145117"><ele>148</ele><time>2019-09-27T11:52:58Z</time><name>PT6669</name></trkpt>
<trkpt lat="52.933209" lon="-3.145104"><ele>148</ele><time>2019-09-27T11:52:59Z</time><name>PT6670</name></trkpt>
<trkpt lat="52.933216" lon="-3.145101"><ele>150</ele><time>2019-09-27T11:53:00Z</time><name>PT6671</name></trkpt>
<trkpt lat="52.933223" lon="-3.145099"><ele>149</ele><time>2019-09-27T11:53:01Z</time><name>PT6672</name></trkpt>
<trkpt lat="52.933232" lon="-3.145098"><ele>149</ele><time>2019-09-27T11:53:02Z</time><name>PT6673</name></trkpt>
<trkpt lat="52.933240" lon="-3.145092"><ele>148</ele><time>2019-09-27T11:53:03Z</time><name>PT6674</name></trkpt>
<trkpt lat="52.933246" lon="-3.145084"><ele>148</ele><time>2019-09-27T11:53:04Z</time><name>PT6675</name></trkpt>
<trkpt lat="52.933248" lon="-3.145077"><ele>148</ele><time>2019-09-27T11:53:05Z</time><name>PT6676</name></trkpt>
<trkpt lat="52.933252" lon="-3.145069"><ele>148</ele><time>2019-09-27T11:53:06Z</time><name>PT6677</name></trkpt>
<trkpt lat="52.933258" lon="-3.145061"><ele>149</ele><time>2019-09-27T11:53:07Z</time><name>PT6678</name></trkpt>
<trkpt lat="52.933260" lon="-3.145053"><ele>149</ele><time>2019-09-27T11:53:08Z</time><name>PT6679</name></trkpt>
<trkpt lat="52.933268" lon="-3.145053"><ele>149</ele><time>2019-09-27T11:53:09Z</time><name>PT6680</name></trkpt>
<trkpt lat="52.933281" lon="-3.145058"><ele>148</ele><time>2019-09-27T11:53:10Z</time><name>PT6681</name></trkpt>
<trkpt lat="52.933289" lon="-3.145048"><ele>149</ele><time>2019-09-27T11:53:11Z</time><name>PT6682</name></trkpt>
<trkpt lat="52.933295" lon="-3.145042"><ele>149</ele><time>2019-09-27T11:53:12Z</time><name>PT6683</name></trkpt>
<trkpt lat="52.933303" lon="-3.145038"><ele>148</ele><time>2019-09-27T11:53:13Z</time><name>PT6684</name></trkpt>
<trkpt lat="52.933312" lon="-3.145033"><ele>149</ele><time>2019-09-27T11:53:14Z</time><name>PT6685</name></trkpt>
<trkpt lat="52.933319" lon="-3.145030"><ele>149</ele><time>2019-09-27T11:53:15Z</time><name>PT6686</name></trkpt>
<trkpt lat="52.933325" lon="-3.145031"><ele>147</ele><time>2019-09-27T11:53:16Z</time><name>PT6687</name></trkpt>
<trkpt lat="52.933334" lon="-3.145025"><ele>147</ele><time>2019-09-27T11:53:17Z</time><name>PT6688</name></trkpt>
<trkpt lat="52.933343" lon="-3.145023"><ele>146</ele><time>2019-09-27T11:53:18Z</time><name>PT6689</name></trkpt>
<trkpt lat="52.933355" lon="-3.145013"><ele>147</ele><time>2019-09-27T11:53:19Z</time><name>PT6690</name></trkpt>
<trkpt lat="52.933362" lon="-3.145012"><ele>146</ele><time>2019-09-27T11:53:20Z</time><name>PT6691</name></trkpt>
<trkpt lat="52.933367" lon="-3.145006"><ele>146</ele><time>2019-09-27T11:53:21Z</time><name>PT6692</name></trkpt>
<trkpt lat="52.933372" lon="-3.145007"><ele>145</ele><time>2019-09-27T11:53:22Z</time><name>PT6693</name></trkpt>
<trkpt lat="52.933381" lon="-3.145007"><ele>146</ele><time>2019-09-27T11:53:23Z</time><name>PT6694</name></trkpt>
<trkpt lat="52.933388" lon="-3.144999"><ele>146</ele><time>2019-09-27T11:53:24Z</time><name>PT6695</name></trkpt>
<trkpt lat="52.933396" lon="-3.144989"><ele>146</ele><time>2019-09-27T11:53:25Z</time><name>PT6696</name></trkpt>
<trkpt lat="52.933402" lon="-3.144982"><ele>146</ele><time>2019-09-27T11:53:26Z</time><name>PT6697</name></trkpt>
<trkpt lat="52.933406" lon="-3.144972"><ele>146</ele><time>2019-09-27T11:53:27Z</time><name>PT6698</name></trkpt>
<trkpt lat="52.933405" lon="-3.144962"><ele>146</ele><time>2019-09-27T11:53:28Z</time><name>PT6699</name></trkpt>
<trkpt lat="52.933414" lon="-3.144952"><ele>146</ele><time>2019-09-27T11:53:29Z</time><name>PT6700</name></trkpt>
<trkpt lat="52.933424" lon="-3.144948"><ele>145</ele><time>2019-09-27T11:53:30Z</time><name>PT6701</name></trkpt>
<trkpt lat="52.933433" lon="-3.144946"><ele>144</ele><time>2019-09-27T11:53:31Z</time><name>PT6702</name></trkpt>
<trkpt lat="52.933437" lon="-3.144937"><ele>146</ele><time>2019-09-27T11:53:32Z</time><name>PT6703</name></trkpt>
<trkpt lat="52.933438" lon="-3.144928"><ele>146</ele><time>2019-09-27T11:53:33Z</time><name>PT6704</name></trkpt>
<trkpt lat="52.933442" lon="-3.144928"><ele>145</ele><time>2019-09-27T11:53:34Z</time><name>PT6705</name></trkpt>
<trkpt lat="52.933456" lon="-3.144920"><ele>146</ele><time>2019-09-27T11:53:35Z</time><name>PT6706</name></trkpt>
<trkpt lat="52.933466" lon="-3.144919"><ele>146</ele><time>2019-09-27T11:53:36Z</time><name>PT6707</name></trkpt>
<trkpt lat="52.933477" lon="-3.144921"><ele>146</ele><time>2019-09-27T11:53:37Z</time><name>PT6708</name></trkpt>
<trkpt lat="52.933492" lon="-3.144918"><ele>145</ele><time>2019-09-27T11:53:38Z</time><name>PT6709</name></trkpt>
<trkpt lat="52.933503" lon="-3.144917"><ele>145</ele><time>2019-09-27T11:53:39Z</time><name>PT6710</name></trkpt>
<trkpt lat="52.933511" lon="-3.144917"><ele>144</ele><time>2019-09-27T11:53:40Z</time><name>PT6711</name></trkpt>
<trkpt lat="52.933521" lon="-3.144917"><ele>143</ele><time>2019-09-27T11:53:41Z</time><name>PT6712</name></trkpt>
<trkpt lat="52.933532" lon="-3.144922"><ele>142</ele><time>2019-09-27T11:53:42Z</time><name>PT6713</name></trkpt>
<trkpt lat="52.933544" lon="-3.144922"><ele>142</ele><time>2019-09-27T11:53:43Z</time><name>PT6714</name></trkpt>
<trkpt lat="52.933550" lon="-3.144921"><ele>143</ele><time>2019-09-27T11:53:44Z</time><name>PT6715</name></trkpt>
<trkpt lat="52.933558" lon="-3.144914"><ele>144</ele><time>2019-09-27T11:53:45Z</time><name>PT6716</name></trkpt>
<trkpt lat="52.933562" lon="-3.144906"><ele>144</ele><time>2019-09-27T11:53:46Z</time><name>PT6717</name></trkpt>
<trkpt lat="52.933567" lon="-3.144904"><ele>143</ele><time>2019-09-27T11:53:47Z</time><name>PT6718</name></trkpt>
<trkpt lat="52.933575" lon="-3.144904"><ele>143</ele><time>2019-09-27T11:53:48Z</time><name>PT6719</name></trkpt>
<trkpt lat="52.933585" lon="-3.144907"><ele>143</ele><time>2019-09-27T11:53:49Z</time><name>PT6720</name></trkpt>
<trkpt lat="52.933585" lon="-3.144915"><ele>142</ele><time>2019-09-27T11:53:50Z</time><name>PT6721</name></trkpt>
<trkpt lat="52.933594" lon="-3.144919"><ele>142</ele><time>2019-09-27T11:53:51Z</time><name>PT6722</name></trkpt>
<trkpt lat="52.933604" lon="-3.144919"><ele>141</ele><time>2019-09-27T11:53:52Z</time><name>PT6723</name></trkpt>
<trkpt lat="52.933615" lon="-3.144912"><ele>142</ele><time>2019-09-27T11:53:53Z</time><name>PT6724</name></trkpt>
<trkpt lat="52.933627" lon="-3.144905"><ele>144</ele><time>2019-09-27T11:53:54Z</time><name>PT6725</name></trkpt>
<trkpt lat="52.933636" lon="-3.144902"><ele>144</ele><time>2019-09-27T11:53:55Z</time><name>PT6726</name></trkpt>
<trkpt lat="52.933643" lon="-3.144900"><ele>144</ele><time>2019-09-27T11:53:56Z</time><name>PT6727</name></trkpt>
<trkpt lat="52.933647" lon="-3.144889"><ele>146</ele><time>2019-09-27T11:53:57Z</time><name>PT6728</name></trkpt>
<trkpt lat="52.933654" lon="-3.144883"><ele>147</ele><time>2019-09-27T11:53:58Z</time><name>PT6729</name></trkpt>
<trkpt lat="52.933660" lon="-3.144880"><ele>148</ele><time>2019-09-27T11:53:59Z</time><name>PT6730</name></trkpt>
<trkpt lat="52.933669" lon="-3.144880"><ele>148</ele><time>2019-09-27T11:54:00Z</time><name>PT6731</name></trkpt>
<trkpt lat="52.933681" lon="-3.144869"><ele>149</ele><time>2019-09-27T11:54:01Z</time><name>PT6732</name></trkpt>
<trkpt lat="52.933698" lon="-3.144866"><ele>149</ele><time>2019-09-27T11:54:02Z</time><name>PT6733</name></trkpt>
<trkpt lat="52.933710" lon="-3.144862"><ele>149</ele><time>2019-09-27T11:54:03Z</time><name>PT6734</name></trkpt>
<trkpt lat="52.933717" lon="-3.144860"><ele>148</ele><time>2019-09-27T11:54:04Z</time><name>PT6735</name></trkpt>
<trkpt lat="52.933721" lon="-3.144860"><ele>149</ele><time>2019-09-27T11:54:05Z</time><name>PT6736</name></trkpt>
<trkpt lat="52.933730" lon="-3.144862"><ele>149</ele><time>2019-09-27T11:54:06Z</time><name>PT6737</name></trkpt>
<trkpt lat="52.933740" lon="-3.144862"><ele>149</ele><time>2019-09-27T11:54:07Z</time><name>PT6738</name></trkpt>
<trkpt lat="52.933747" lon="-3.144862"><ele>149</ele><time>2019-09-27T11:54:08Z</time><name>PT6739</name></trkpt>
<trkpt lat="52.933752" lon="-3.144857"><ele>149</ele><time>2019-09-27T11:54:09Z</time><name>PT6740</name></trkpt>
<trkpt lat="52.933766" lon="-3.144860"><ele>148</ele><time>2019-09-27T11:54:10Z</time><name>PT6741</name></trkpt>
<trkpt lat="52.933776" lon="-3.144863"><ele>148</ele><time>2019-09-27T11:54:11Z</time><name>PT6742</name></trkpt>
<trkpt lat="52.933783" lon="-3.144857"><ele>149</ele><time>2019-09-27T11:54:12Z</time><name>PT6743</name></trkpt>
<trkpt lat="52.933790" lon="-3.144849"><ele>150</ele><time>2019-09-27T11:54:13Z</time><name>PT6744</name></trkpt>
<trkpt lat="52.933799" lon="-3.144846"><ele>150</ele><time>2019-09-27T11:54:14Z</time><name>PT6745</name></trkpt>
<trkpt lat="52.933810" lon="-3.144842"><ele>151</ele><time>2019-09-27T11:54:15Z</time><name>PT6746</name></trkpt>
<trkpt lat="52.933818" lon="-3.144844"><ele>150</ele><time>2019-09-27T11:54:16Z</time><name>PT6747</name></trkpt>
<trkpt lat="52.933825" lon="-3.144842"><ele>151</ele><time>2019-09-27T11:54:17Z</time><name>PT6748</name></trkpt>
<trkpt lat="52.933833" lon="-3.144836"><ele>151</ele><time>2019-09-27T11:54:18Z</time><name>PT6749</name></trkpt>
<trkpt lat="52.933843" lon="-3.144833"><ele>152</ele><time>2019-09-27T11:54:19Z</time><name>PT6750</name></trkpt>
<trkpt lat="52.933848" lon="-3.144834"><ele>151</ele><time>2019-09-27T11:54:20Z</time><name>PT6751</name></trkpt>
<trkpt lat="52.933858" lon="-3.144832"><ele>150</ele><time>2019-09-27T11:54:21Z</time><name>PT6752</name></trkpt>
<trkpt lat="52.933865" lon="-3.144830"><ele>151</ele><time>2019-09-27T11:54:22Z</time><name>PT6753</name></trkpt>
<trkpt lat="52.933870" lon="-3.144832"><ele>151</ele><time>2019-09-27T11:54:23Z</time><name>PT6754</name></trkpt>
<trkpt lat="52.933877" lon="-3.144831"><ele>151</ele><time>2019-09-27T11:54:24Z</time><name>PT6755</name></trkpt>
<trkpt lat="52.933886" lon="-3.144829"><ele>152</ele><time>2019-09-27T11:54:25Z</time><name>PT6756</name></trkpt>
<trkpt lat="52.933898" lon="-3.144820"><ele>152</ele><time>2019-09-27T11:54:26Z</time><name>PT6757</name></trkpt>
<trkpt lat="52.933908" lon="-3.144804"><ele>154</ele><time>2019-09-27T11:54:27Z</time><name>PT6758</name></trkpt>
<trkpt lat="52.933919" lon="-3.144782"><ele>155</ele><time>2019-09-27T11:54:28Z</time><name>PT6759</name></trkpt>
<trkpt lat="52.933929" lon="-3.144783"><ele>156</ele><time>2019-09-27T11:54:29Z</time><name>PT6760</name></trkpt>
<trkpt lat="52.933935" lon="-3.144776"><ele>155</ele><time>2019-09-27T11:54:30Z</time><name>PT6761</name></trkpt>
<trkpt lat="52.933942" lon="-3.144779"><ele>154</ele><time>2019-09-27T11:54:31Z</time><name>PT6762</name></trkpt>
<trkpt lat="52.933946" lon="-3.144781"><ele>154</ele><time>2019-09-27T11:54:32Z</time><name>PT6763</name></trkpt>
<trkpt lat="52.933949" lon="-3.144774"><ele>155</ele><time>2019-09-27T11:54:33Z</time><name>PT6764</name></trkpt>
<trkpt lat="52.933958" lon="-3.144767"><ele>155</ele><time>2019-09-27T11:54:34Z</time><name>PT6765</name></trkpt>
<trkpt lat="52.933969" lon="-3.144756"><ele>156</ele><time>2019-09-27T11:54:35Z</time><name>PT6766</name></trkpt>
<trkpt lat="52.933976" lon="-3.144748"><ele>157</ele><time>2019-09-27T11:54:36Z</time><name>PT6767</name></trkpt>
<trkpt lat="52.933980" lon="-3.144742"><ele>157</ele><time>2019-09-27T11:54:37Z</time><name>PT6768</name></trkpt>
<trkpt lat="52.933984" lon="-3.144736"><ele>156</ele><time>2019-09-27T11:54:38Z</time><name>PT6769</name></trkpt>
<trkpt lat="52.933987" lon="-3.144727"><ele>155</ele><time>2019-09-27T11:54:39Z</time><name>PT6770</name></trkpt>
<trkpt lat="52.933993" lon="-3.144722"><ele>154</ele><time>2019-09-27T11:54:40Z</time><name>PT6771</name></trkpt>
<trkpt lat="52.934000" lon="-3.144721"><ele>154</ele><time>2019-09-27T11:54:41Z</time><name>PT6772</name></trkpt>
<trkpt lat="52.934023" lon="-3.144711"><ele>152</ele><time>2019-09-27T11:54:43Z</time><name>PT6773</name></trkpt>
<trkpt lat="52.934045" lon="-3.144695"><ele>152</ele><time>2019-09-27T11:54:44Z</time><name>PT6774</name></trkpt>
<trkpt lat="52.934058" lon="-3.144696"><ele>151</ele><time>2019-09-27T11:54:45Z</time><name>PT6775</name></trkpt>
<trkpt lat="52.934074" lon="-3.144691"><ele>151</ele><time>2019-09-27T11:54:46Z</time><name>PT6776</name></trkpt>
<trkpt lat="52.934088" lon="-3.144681"><ele>151</ele><time>2019-09-27T11:54:47Z</time><name>PT6777</name></trkpt>
<trkpt lat="52.934094" lon="-3.144690"><ele>151</ele><time>2019-09-27T11:54:48Z</time><name>PT6778</name></trkpt>
<trkpt lat="52.934100" lon="-3.144697"><ele>151</ele><time>2019-09-27T11:54:49Z</time><name>PT6779</name></trkpt>
<trkpt lat="52.934115" lon="-3.144691"><ele>151</ele><time>2019-09-27T11:54:50Z</time><name>PT6780</name></trkpt>
<trkpt lat="52.934128" lon="-3.144695"><ele>150</ele><time>2019-09-27T11:54:51Z</time><name>PT6781</name></trkpt>
<trkpt lat="52.934134" lon="-3.144700"><ele>150</ele><time>2019-09-27T11:54:52Z</time><name>PT6782</name></trkpt>
<trkpt lat="52.934144" lon="-3.144699"><ele>150</ele><time>2019-09-27T11:54:53Z</time><name>PT6783</name></trkpt>
<trkpt lat="52.934159" lon="-3.144700"><ele>151</ele><time>2019-09-27T11:54:54Z</time><name>PT6784</name></trkpt>
<trkpt lat="52.934174" lon="-3.144697"><ele>151</ele><time>2019-09-27T11:54:55Z</time><name>PT6785</name></trkpt>
<trkpt lat="52.934188" lon="-3.144689"><ele>152</ele><time>2019-09-27T11:54:56Z</time><name>PT6786</name></trkpt>
<trkpt lat="52.934196" lon="-3.144683"><ele>152</ele><time>2019-09-27T11:54:57Z</time><name>PT6787</name></trkpt>
<trkpt lat="52.934203" lon="-3.144674"><ele>153</ele><time>2019-09-27T11:54:58Z</time><name>PT6788</name></trkpt>
<trkpt lat="52.934212" lon="-3.144662"><ele>154</ele><time>2019-09-27T11:54:59Z</time><name>PT6789</name></trkpt>
<trkpt lat="52.934229" lon="-3.144634"><ele>154</ele><time>2019-09-27T11:55:01Z</time><name>PT6790</name></trkpt>
<trkpt lat="52.934246" lon="-3.144609"><ele>155</ele><time>2019-09-27T11:55:02Z</time><name>PT6791</name></trkpt>
<trkpt lat="52.934268" lon="-3.144599"><ele>154</ele><time>2019-09-27T11:55:03Z</time><name>PT6792</name></trkpt>
<trkpt lat="52.934286" lon="-3.144588"><ele>154</ele><time>2019-09-27T11:55:04Z</time><name>PT6793</name></trkpt>
<trkpt lat="52.934299" lon="-3.144582"><ele>155</ele><time>2019-09-27T11:55:05Z</time><name>PT6794</name></trkpt>
<trkpt lat="52.934312" lon="-3.144571"><ele>155</ele><time>2019-09-27T11:55:06Z</time><name>PT6795</name></trkpt>
<trkpt lat="52.934322" lon="-3.144565"><ele>155</ele><time>2019-09-27T11:55:07Z</time><name>PT6796</name></trkpt>
<trkpt lat="52.934329" lon="-3.144563"><ele>153</ele><time>2019-09-27T11:55:08Z</time><name>PT6797</name></trkpt>
<trkpt lat="52.934337" lon="-3.144557"><ele>152</ele><time>2019-09-27T11:55:09Z</time><name>PT6798</name></trkpt>
<trkpt lat="52.934345" lon="-3.144559"><ele>152</ele><time>2019-09-27T11:55:10Z</time><name>PT6799</name></trkpt>
<trkpt lat="52.934356" lon="-3.144559"><ele>152</ele><time>2019-09-27T11:55:11Z</time><name>PT6800</name></trkpt>
<trkpt lat="52.934366" lon="-3.144562"><ele>152</ele><time>2019-09-27T11:55:12Z</time><name>PT6801</name></trkpt>
<trkpt lat="52.934376" lon="-3.144560"><ele>152</ele><time>2019-09-27T11:55:13Z</time><name>PT6802</name></trkpt>
<trkpt lat="52.934385" lon="-3.144552"><ele>152</ele><time>2019-09-27T11:55:14Z</time><name>PT6803</name></trkpt>
<trkpt lat="52.934394" lon="-3.144549"><ele>151</ele><time>2019-09-27T11:55:15Z</time><name>PT6804</name></trkpt>
<trkpt lat="52.934401" lon="-3.144546"><ele>152</ele><time>2019-09-27T11:55:16Z</time><name>PT6805</name></trkpt>
<trkpt lat="52.934410" lon="-3.144540"><ele>153</ele><time>2019-09-27T11:55:17Z</time><name>PT6806</name></trkpt>
<trkpt lat="52.934424" lon="-3.144521"><ele>154</ele><time>2019-09-27T11:55:18Z</time><name>PT6807</name></trkpt>
<trkpt lat="52.934434" lon="-3.144517"><ele>155</ele><time>2019-09-27T11:55:19Z</time><name>PT6808</name></trkpt>
<trkpt lat="52.934442" lon="-3.144510"><ele>154</ele><time>2019-09-27T11:55:20Z</time><name>PT6809</name></trkpt>
<trkpt lat="52.934449" lon="-3.144508"><ele>154</ele><time>2019-09-27T11:55:21Z</time><name>PT6810</name></trkpt>
<trkpt lat="52.934457" lon="-3.144505"><ele>154</ele><time>2019-09-27T11:55:22Z</time><name>PT6811</name></trkpt>
<trkpt lat="52.934469" lon="-3.144500"><ele>154</ele><time>2019-09-27T11:55:23Z</time><name>PT6812</name></trkpt>
<trkpt lat="52.934476" lon="-3.144496"><ele>152</ele><time>2019-09-27T11:55:24Z</time><name>PT6813</name></trkpt>
<trkpt lat="52.934485" lon="-3.144487"><ele>154</ele><time>2019-09-27T11:55:25Z</time><name>PT6814</name></trkpt>
<trkpt lat="52.934491" lon="-3.144481"><ele>154</ele><time>2019-09-27T11:55:26Z</time><name>PT6815</name></trkpt>
<trkpt lat="52.934498" lon="-3.144478"><ele>153</ele><time>2019-09-27T11:55:27Z</time><name>PT6816</name></trkpt>
<trkpt lat="52.934505" lon="-3.144476"><ele>152</ele><time>2019-09-27T11:55:28Z</time><name>PT6817</name></trkpt>
<trkpt lat="52.934517" lon="-3.144471"><ele>153</ele><time>2019-09-27T11:55:29Z</time><name>PT6818</name></trkpt>
<trkpt lat="52.934528" lon="-3.144466"><ele>153</ele><time>2019-09-27T11:55:30Z</time><name>PT6819</name></trkpt>
<trkpt lat="52.934535" lon="-3.144461"><ele>153</ele><time>2019-09-27T11:55:31Z</time><name>PT6820</name></trkpt>
<trkpt lat="52.934546" lon="-3.144454"><ele>153</ele><time>2019-09-27T11:55:32Z</time><name>PT6821</name></trkpt>
<trkpt lat="52.934556" lon="-3.144458"><ele>153</ele><time>2019-09-27T11:55:33Z</time><name>PT6822</name></trkpt>
<trkpt lat="52.934564" lon="-3.144457"><ele>154</ele><time>2019-09-27T11:55:34Z</time><name>PT6823</name></trkpt>
<trkpt lat="52.934574" lon="-3.144452"><ele>154</ele><time>2019-09-27T11:55:35Z</time><name>PT6824</name></trkpt>
<trkpt lat="52.934579" lon="-3.144446"><ele>154</ele><time>2019-09-27T11:55:36Z</time><name>PT6825</name></trkpt>
<trkpt lat="52.934586" lon="-3.144440"><ele>154</ele><time>2019-09-27T11:55:37Z</time><name>PT6826</name></trkpt>
<trkpt lat="52.934595" lon="-3.144435"><ele>155</ele><time>2019-09-27T11:55:38Z</time><name>PT6827</name></trkpt>
<trkpt lat="52.934607" lon="-3.144432"><ele>156</ele><time>2019-09-27T11:55:39Z</time><name>PT6828</name></trkpt>
<trkpt lat="52.934617" lon="-3.144427"><ele>155</ele><time>2019-09-27T11:55:40Z</time><name>PT6829</name></trkpt>
<trkpt lat="52.934625" lon="-3.144430"><ele>155</ele><time>2019-09-27T11:55:41Z</time><name>PT6830</name></trkpt>
<trkpt lat="52.934635" lon="-3.144426"><ele>155</ele><time>2019-09-27T11:55:42Z</time><name>PT6831</name></trkpt>
<trkpt lat="52.934642" lon="-3.144430"><ele>155</ele><time>2019-09-27T11:55:43Z</time><name>PT6832</name></trkpt>
<trkpt lat="52.934656" lon="-3.144433"><ele>155</ele><time>2019-09-27T11:55:44Z</time><name>PT6833</name></trkpt>
<trkpt lat="52.934667" lon="-3.144437"><ele>155</ele><time>2019-09-27T11:55:45Z</time><name>PT6834</name></trkpt>
<trkpt lat="52.934678" lon="-3.144443"><ele>153</ele><time>2019-09-27T11:55:46Z</time><name>PT6835</name></trkpt>
<trkpt lat="52.934687" lon="-3.144443"><ele>153</ele><time>2019-09-27T11:55:47Z</time><name>PT6836</name></trkpt>
<trkpt lat="52.934699" lon="-3.144441"><ele>154</ele><time>2019-09-27T11:55:48Z</time><name>PT6837</name></trkpt>
<trkpt lat="52.934711" lon="-3.144440"><ele>154</ele><time>2019-09-27T11:55:49Z</time><name>PT6838</name></trkpt>
<trkpt lat="52.934719" lon="-3.144439"><ele>153</ele><time>2019-09-27T11:55:50Z</time><name>PT6839</name></trkpt>
<trkpt lat="52.934723" lon="-3.144440"><ele>153</ele><time>2019-09-27T11:55:51Z</time><name>PT6840</name></trkpt>
<trkpt lat="52.934730" lon="-3.144438"><ele>153</ele><time>2019-09-27T11:55:52Z</time><name>PT6841</name></trkpt>
<trkpt lat="52.934736" lon="-3.144437"><ele>154</ele><time>2019-09-27T11:55:53Z</time><name>PT6842</name></trkpt>
<trkpt lat="52.934742" lon="-3.144438"><ele>154</ele><time>2019-09-27T11:55:54Z</time><name>PT6843</name></trkpt>
<trkpt lat="52.934747" lon="-3.144439"><ele>154</ele><time>2019-09-27T11:55:55Z</time><name>PT6844</name></trkpt>
<trkpt lat="52.934754" lon="-3.144437"><ele>153</ele><time>2019-09-27T11:55:56Z</time><name>PT6845</name></trkpt>
<trkpt lat="52.934760" lon="-3.144431"><ele>153</ele><time>2019-09-27T11:55:57Z</time><name>PT6846</name></trkpt>
<trkpt lat="52.934769" lon="-3.144425"><ele>153</ele><time>2019-09-27T11:55:58Z</time><name>PT6847</name></trkpt>
<trkpt lat="52.934780" lon="-3.144416"><ele>155</ele><time>2019-09-27T11:55:59Z</time><name>PT6848</name></trkpt>
<trkpt lat="52.934790" lon="-3.144413"><ele>155</ele><time>2019-09-27T11:56:00Z</time><name>PT6849</name></trkpt>
<trkpt lat="52.934792" lon="-3.144408"><ele>155</ele><time>2019-09-27T11:56:01Z</time><name>PT6850</name></trkpt>
<trkpt lat="52.934801" lon="-3.144405"><ele>155</ele><time>2019-09-27T11:56:02Z</time><name>PT6851</name></trkpt>
<trkpt lat="52.934809" lon="-3.144401"><ele>156</ele><time>2019-09-27T11:56:03Z</time><name>PT6852</name></trkpt>
<trkpt lat="52.934817" lon="-3.144405"><ele>156</ele><time>2019-09-27T11:56:04Z</time><name>PT6853</name></trkpt>
<trkpt lat="52.934824" lon="-3.144407"><ele>157</ele><time>2019-09-27T11:56:05Z</time><name>PT6854</name></trkpt>
<trkpt lat="52.934832" lon="-3.144409"><ele>156</ele><time>2019-09-27T11:56:06Z</time><name>PT6855</name></trkpt>
<trkpt lat="52.934844" lon="-3.144409"><ele>157</ele><time>2019-09-27T11:56:07Z</time><name>PT6856</name></trkpt>
<trkpt lat="52.934854" lon="-3.144413"><ele>156</ele><time>2019-09-27T11:56:08Z</time><name>PT6857</name></trkpt>
<trkpt lat="52.934860" lon="-3.144415"><ele>156</ele><time>2019-09-27T11:56:09Z</time><name>PT6858</name></trkpt>
<trkpt lat="52.934865" lon="-3.144414"><ele>156</ele><time>2019-09-27T11:56:10Z</time><name>PT6859</name></trkpt>
<trkpt lat="52.934870" lon="-3.144416"><ele>155</ele><time>2019-09-27T11:56:11Z</time><name>PT6860</name></trkpt>
<trkpt lat="52.934876" lon="-3.144407"><ele>154</ele><time>2019-09-27T11:56:16Z</time><name>PT6861</name></trkpt>
<trkpt lat="52.934893" lon="-3.144395"><ele>154</ele><time>2019-09-27T11:56:17Z</time><name>PT6862</name></trkpt>
<trkpt lat="52.934902" lon="-3.144394"><ele>153</ele><time>2019-09-27T11:56:18Z</time><name>PT6863</name></trkpt>
<trkpt lat="52.934916" lon="-3.144387"><ele>152</ele><time>2019-09-27T11:56:19Z</time><name>PT6864</name></trkpt>
<trkpt lat="52.934930" lon="-3.144388"><ele>153</ele><time>2019-09-27T11:56:20Z</time><name>PT6865</name></trkpt>
<trkpt lat="52.934944" lon="-3.144373"><ele>153</ele><time>2019-09-27T11:56:21Z</time><name>PT6866</name></trkpt>
<trkpt lat="52.934955" lon="-3.144373"><ele>153</ele><time>2019-09-27T11:56:22Z</time><name>PT6867</name></trkpt>
<trkpt lat="52.934964" lon="-3.144379"><ele>153</ele><time>2019-09-27T11:56:23Z</time><name>PT6868</name></trkpt>
<trkpt lat="52.934973" lon="-3.144375"><ele>154</ele><time>2019-09-27T11:56:24Z</time><name>PT6869</name></trkpt>
<trkpt lat="52.934983" lon="-3.144375"><ele>154</ele><time>2019-09-27T11:56:25Z</time><name>PT6870</name></trkpt>
<trkpt lat="52.934995" lon="-3.144374"><ele>155</ele><time>2019-09-27T11:56:26Z</time><name>PT6871</name></trkpt>
<trkpt lat="52.935004" lon="-3.144373"><ele>155</ele><time>2019-09-27T11:56:27Z</time><name>PT6872</name></trkpt>
<trkpt lat="52.935011" lon="-3.144373"><ele>154</ele><time>2019-09-27T11:56:28Z</time><name>PT6873</name></trkpt>
<trkpt lat="52.935015" lon="-3.144374"><ele>153</ele><time>2019-09-27T11:56:29Z</time><name>PT6874</name></trkpt>
<trkpt lat="52.935025" lon="-3.144373"><ele>153</ele><time>2019-09-27T11:56:30Z</time><name>PT6875</name></trkpt>
<trkpt lat="52.935034" lon="-3.144376"><ele>154</ele><time>2019-09-27T11:56:31Z</time><name>PT6876</name></trkpt>
<trkpt lat="52.935044" lon="-3.144378"><ele>154</ele><time>2019-09-27T11:56:32Z</time><name>PT6877</name></trkpt>
<trkpt lat="52.935057" lon="-3.144381"><ele>155</ele><time>2019-09-27T11:56:33Z</time><name>PT6878</name></trkpt>
<trkpt lat="52.935065" lon="-3.144381"><ele>156</ele><time>2019-09-27T11:56:34Z</time><name>PT6879</name></trkpt>
<trkpt lat="52.935075" lon="-3.144380"><ele>157</ele><time>2019-09-27T11:56:35Z</time><name>PT6880</name></trkpt>
<trkpt lat="52.935082" lon="-3.144382"><ele>157</ele><time>2019-09-27T11:56:36Z</time><name>PT6881</name></trkpt>
<trkpt lat="52.935093" lon="-3.144385"><ele>158</ele><time>2019-09-27T11:56:37Z</time><name>PT6882</name></trkpt>
<trkpt lat="52.935097" lon="-3.144386"><ele>157</ele><time>2019-09-27T11:56:38Z</time><name>PT6883</name></trkpt>
<trkpt lat="52.935100" lon="-3.144390"><ele>156</ele><time>2019-09-27T11:56:39Z</time><name>PT6884</name></trkpt>
<trkpt lat="52.935103" lon="-3.144390"><ele>156</ele><time>2019-09-27T11:56:40Z</time><name>PT6885</name></trkpt>
<trkpt lat="52.935112" lon="-3.144393"><ele>156</ele><time>2019-09-27T11:56:41Z</time><name>PT6886</name></trkpt>
<trkpt lat="52.935120" lon="-3.144395"><ele>156</ele><time>2019-09-27T11:56:42Z</time><name>PT6887</name></trkpt>
<trkpt lat="52.935130" lon="-3.144395"><ele>156</ele><time>2019-09-27T11:56:43Z</time><name>PT6888</name></trkpt>
<trkpt lat="52.935142" lon="-3.144399"><ele>157</ele><time>2019-09-27T11:56:44Z</time><name>PT6889</name></trkpt>
<trkpt lat="52.935150" lon="-3.144402"><ele>158</ele><time>2019-09-27T11:56:45Z</time><name>PT6890</name></trkpt>
<trkpt lat="52.935157" lon="-3.144403"><ele>158</ele><time>2019-09-27T11:56:46Z</time><name>PT6891</name></trkpt>
<trkpt lat="52.935167" lon="-3.144401"><ele>158</ele><time>2019-09-27T11:56:47Z</time><name>PT6892</name></trkpt>
<trkpt lat="52.935170" lon="-3.144399"><ele>156</ele><time>2019-09-27T11:56:48Z</time><name>PT6893</name></trkpt>
<trkpt lat="52.935178" lon="-3.144402"><ele>157</ele><time>2019-09-27T11:56:49Z</time><name>PT6894</name></trkpt>
<trkpt lat="52.935191" lon="-3.144403"><ele>157</ele><time>2019-09-27T11:56:50Z</time><name>PT6895</name></trkpt>
<trkpt lat="52.935199" lon="-3.144403"><ele>158</ele><time>2019-09-27T11:56:51Z</time><name>PT6896</name></trkpt>
<trkpt lat="52.935208" lon="-3.144401"><ele>158</ele><time>2019-09-27T11:56:52Z</time><name>PT6897</name></trkpt>
<trkpt lat="52.935215" lon="-3.144402"><ele>158</ele><time>2019-09-27T11:56:53Z</time><name>PT6898</name></trkpt>
<trkpt lat="52.935223" lon="-3.144400"><ele>158</ele><time>2019-09-27T11:56:54Z</time><name>PT6899</name></trkpt>
<trkpt lat="52.935224" lon="-3.144394"><ele>157</ele><time>2019-09-27T11:56:55Z</time><name>PT6900</name></trkpt>
<trkpt lat="52.935231" lon="-3.144389"><ele>157</ele><time>2019-09-27T11:56:56Z</time><name>PT6901</name></trkpt>
<trkpt lat="52.935237" lon="-3.144387"><ele>156</ele><time>2019-09-27T11:56:57Z</time><name>PT6902</name></trkpt>
<trkpt lat="52.935246" lon="-3.144389"><ele>157</ele><time>2019-09-27T11:56:58Z</time><name>PT6903</name></trkpt>
<trkpt lat="52.935253" lon="-3.144391"><ele>156</ele><time>2019-09-27T11:56:59Z</time><name>PT6904</name></trkpt>
<trkpt lat="52.935261" lon="-3.144393"><ele>156</ele><time>2019-09-27T11:57:00Z</time><name>PT6905</name></trkpt>
<trkpt lat="52.935272" lon="-3.144395"><ele>156</ele><time>2019-09-27T11:57:01Z</time><name>PT6906</name></trkpt>
<trkpt lat="52.935283" lon="-3.144399"><ele>156</ele><time>2019-09-27T11:57:02Z</time><name>PT6907</name></trkpt>
<trkpt lat="52.935296" lon="-3.144399"><ele>156</ele><time>2019-09-27T11:57:03Z</time><name>PT6908</name></trkpt>
<trkpt lat="52.935306" lon="-3.144395"><ele>156</ele><time>2019-09-27T11:57:04Z</time><name>PT6909</name></trkpt>
<trkpt lat="52.935322" lon="-3.144398"><ele>156</ele><time>2019-09-27T11:57:05Z</time><name>PT6910</name></trkpt>
<trkpt lat="52.935339" lon="-3.144399"><ele>157</ele><time>2019-09-27T11:57:06Z</time><name>PT6911</name></trkpt>
<trkpt lat="52.935348" lon="-3.144398"><ele>157</ele><time>2019-09-27T11:57:07Z</time><name>PT6912</name></trkpt>
<trkpt lat="52.935353" lon="-3.144398"><ele>157</ele><time>2019-09-27T11:57:08Z</time><name>PT6913</name></trkpt>
<trkpt lat="52.935359" lon="-3.144399"><ele>157</ele><time>2019-09-27T11:57:10Z</time><name>PT6914</name></trkpt>
<trkpt lat="52.935376" lon="-3.144398"><ele>157</ele><time>2019-09-27T11:57:11Z</time><name>PT6915</name></trkpt>
<trkpt lat="52.935387" lon="-3.144397"><ele>156</ele><time>2019-09-27T11:57:12Z</time><name>PT6916</name></trkpt>
<trkpt lat="52.935399" lon="-3.144399"><ele>156</ele><time>2019-09-27T11:57:13Z</time><name>PT6917</name></trkpt>
<trkpt lat="52.935406" lon="-3.144403"><ele>156</ele><time>2019-09-27T11:57:14Z</time><name>PT6918</name></trkpt>
<trkpt lat="52.935419" lon="-3.144408"><ele>155</ele><time>2019-09-27T11:57:15Z</time><name>PT6919</name></trkpt>
<trkpt lat="52.935431" lon="-3.144408"><ele>155</ele><time>2019-09-27T11:57:16Z</time><name>PT6920</name></trkpt>
<trkpt lat="52.935440" lon="-3.144408"><ele>155</ele><time>2019-09-27T11:57:17Z</time><name>PT6921</name></trkpt>
<trkpt lat="52.935448" lon="-3.144408"><ele>155</ele><time>2019-09-27T11:57:18Z</time><name>PT6922</name></trkpt>
<trkpt lat="52.935458" lon="-3.144412"><ele>156</ele><time>2019-09-27T11:57:19Z</time><name>PT6923</name></trkpt>
<trkpt lat="52.935472" lon="-3.144410"><ele>156</ele><time>2019-09-27T11:57:20Z</time><name>PT6924</name></trkpt>
<trkpt lat="52.935481" lon="-3.144411"><ele>156</ele><time>2019-09-27T11:57:21Z</time><name>PT6925</name></trkpt>
<trkpt lat="52.935489" lon="-3.144412"><ele>156</ele><time>2019-09-27T11:57:22Z</time><name>PT6926</name></trkpt>
<trkpt lat="52.935496" lon="-3.144412"><ele>156</ele><time>2019-09-27T11:57:23Z</time><name>PT6927</name></trkpt>
<trkpt lat="52.935505" lon="-3.144420"><ele>156</ele><time>2019-09-27T11:57:24Z</time><name>PT6928</name></trkpt>
<trkpt lat="52.935515" lon="-3.144419"><ele>156</ele><time>2019-09-27T11:57:25Z</time><name>PT6929</name></trkpt>
<trkpt lat="52.935523" lon="-3.144423"><ele>156</ele><time>2019-09-27T11:57:26Z</time><name>PT6930</name></trkpt>
<trkpt lat="52.935533" lon="-3.144427"><ele>156</ele><time>2019-09-27T11:57:27Z</time><name>PT6931</name></trkpt>
<trkpt lat="52.935541" lon="-3.144427"><ele>156</ele><time>2019-09-27T11:57:28Z</time><name>PT6932</name></trkpt>
<trkpt lat="52.935547" lon="-3.144427"><ele>156</ele><time>2019-09-27T11:57:29Z</time><name>PT6933</name></trkpt>
<trkpt lat="52.935555" lon="-3.144425"><ele>156</ele><time>2019-09-27T11:57:30Z</time><name>PT6934</name></trkpt>
<trkpt lat="52.935565" lon="-3.144426"><ele>156</ele><time>2019-09-27T11:57:31Z</time><name>PT6935</name></trkpt>
<trkpt lat="52.935575" lon="-3.144426"><ele>156</ele><time>2019-09-27T11:57:32Z</time><name>PT6936</name></trkpt>
<trkpt lat="52.935586" lon="-3.144424"><ele>156</ele><time>2019-09-27T11:57:33Z</time><name>PT6937</name></trkpt>
<trkpt lat="52.935601" lon="-3.144427"><ele>156</ele><time>2019-09-27T11:57:34Z</time><name>PT6938</name></trkpt>
<trkpt lat="52.935612" lon="-3.144430"><ele>157</ele><time>2019-09-27T11:57:35Z</time><name>PT6939</name></trkpt>
<trkpt lat="52.935620" lon="-3.144431"><ele>156</ele><time>2019-09-27T11:57:36Z</time><name>PT6940</name></trkpt>
<trkpt lat="52.935629" lon="-3.144431"><ele>156</ele><time>2019-09-27T11:57:37Z</time><name>PT6941</name></trkpt>
<trkpt lat="52.935636" lon="-3.144435"><ele>156</ele><time>2019-09-27T11:57:38Z</time><name>PT6942</name></trkpt>
<trkpt lat="52.935646" lon="-3.144436"><ele>156</ele><time>2019-09-27T11:57:39Z</time><name>PT6943</name></trkpt>
<trkpt lat="52.935652" lon="-3.144435"><ele>156</ele><time>2019-09-27T11:57:40Z</time><name>PT6944</name></trkpt>
<trkpt lat="52.935659" lon="-3.144430"><ele>156</ele><time>2019-09-27T11:57:41Z</time><name>PT6945</name></trkpt>
<trkpt lat="52.935672" lon="-3.144427"><ele>157</ele><time>2019-09-27T11:57:42Z</time><name>PT6946</name></trkpt>
<trkpt lat="52.935682" lon="-3.144425"><ele>157</ele><time>2019-09-27T11:57:43Z</time><name>PT6947</name></trkpt>
<trkpt lat="52.935692" lon="-3.144427"><ele>158</ele><time>2019-09-27T11:57:44Z</time><name>PT6948</name></trkpt>
<trkpt lat="52.935699" lon="-3.144427"><ele>158</ele><time>2019-09-27T11:57:45Z</time><name>PT6949</name></trkpt>
<trkpt lat="52.935707" lon="-3.144430"><ele>158</ele><time>2019-09-27T11:57:46Z</time><name>PT6950</name></trkpt>
<trkpt lat="52.935719" lon="-3.144431"><ele>159</ele><time>2019-09-27T11:57:47Z</time><name>PT6951</name></trkpt>
<trkpt lat="52.935724" lon="-3.144428"><ele>158</ele><time>2019-09-27T11:57:48Z</time><name>PT6952</name></trkpt>
<trkpt lat="52.935737" lon="-3.144427"><ele>159</ele><time>2019-09-27T11:57:49Z</time><name>PT6953</name></trkpt>
<trkpt lat="52.935747" lon="-3.144428"><ele>160</ele><time>2019-09-27T11:57:50Z</time><name>PT6954</name></trkpt>
<trkpt lat="52.935763" lon="-3.144428"><ele>161</ele><time>2019-09-27T11:57:51Z</time><name>PT6955</name></trkpt>
<trkpt lat="52.935770" lon="-3.144430"><ele>160</ele><time>2019-09-27T11:57:52Z</time><name>PT6956</name></trkpt>
<trkpt lat="52.935779" lon="-3.144426"><ele>161</ele><time>2019-09-27T11:57:53Z</time><name>PT6957</name></trkpt>
<trkpt lat="52.935788" lon="-3.144425"><ele>160</ele><time>2019-09-27T11:57:54Z</time><name>PT6958</name></trkpt>
<trkpt lat="52.935795" lon="-3.144426"><ele>160</ele><time>2019-09-27T11:57:55Z</time><name>PT6959</name></trkpt>
<trkpt lat="52.935805" lon="-3.144426"><ele>160</ele><time>2019-09-27T11:57:56Z</time><name>PT6960</name></trkpt>
<trkpt lat="52.935812" lon="-3.144427"><ele>160</ele><time>2019-09-27T11:57:57Z</time><name>PT6961</name></trkpt>
<trkpt lat="52.935819" lon="-3.144427"><ele>161</ele><time>2019-09-27T11:57:58Z</time><name>PT6962</name></trkpt>
<trkpt lat="52.935829" lon="-3.144424"><ele>161</ele><time>2019-09-27T11:57:59Z</time><name>PT6963</name></trkpt>
<trkpt lat="52.935842" lon="-3.144424"><ele>161</ele><time>2019-09-27T11:58:00Z</time><name>PT6964</name></trkpt>
<trkpt lat="52.935853" lon="-3.144427"><ele>161</ele><time>2019-09-27T11:58:01Z</time><name>PT6965</name></trkpt>
<trkpt lat="52.935861" lon="-3.144429"><ele>161</ele><time>2019-09-27T11:58:02Z</time><name>PT6966</name></trkpt>
<trkpt lat="52.935869" lon="-3.144428"><ele>161</ele><time>2019-09-27T11:58:03Z</time><name>PT6967</name></trkpt>
<trkpt lat="52.935875" lon="-3.144428"><ele>160</ele><time>2019-09-27T11:58:04Z</time><name>PT6968</name></trkpt>
<trkpt lat="52.935882" lon="-3.144428"><ele>160</ele><time>2019-09-27T11:58:05Z</time><name>PT6969</name></trkpt>
<trkpt lat="52.935890" lon="-3.144430"><ele>160</ele><time>2019-09-27T11:58:06Z</time><name>PT6970</name></trkpt>
<trkpt lat="52.935904" lon="-3.144426"><ele>161</ele><time>2019-09-27T11:58:07Z</time><name>PT6971</name></trkpt>
<trkpt lat="52.935919" lon="-3.144416"><ele>161</ele><time>2019-09-27T11:58:08Z</time><name>PT6972</name></trkpt>
<trkpt lat="52.935929" lon="-3.144415"><ele>161</ele><time>2019-09-27T11:58:09Z</time><name>PT6973</name></trkpt>
<trkpt lat="52.935939" lon="-3.144415"><ele>162</ele><time>2019-09-27T11:58:10Z</time><name>PT6974</name></trkpt>
<trkpt lat="52.935952" lon="-3.144415"><ele>162</ele><time>2019-09-27T11:58:11Z</time><name>PT6975</name></trkpt>
<trkpt lat="52.935964" lon="-3.144414"><ele>162</ele><time>2019-09-27T11:58:12Z</time><name>PT6976</name></trkpt>
<trkpt lat="52.935976" lon="-3.144413"><ele>162</ele><time>2019-09-27T11:58:13Z</time><name>PT6977</name></trkpt>
<trkpt lat="52.935986" lon="-3.144411"><ele>161</ele><time>2019-09-27T11:58:14Z</time><name>PT6978</name></trkpt>
<trkpt lat="52.935994" lon="-3.144409"><ele>160</ele><time>2019-09-27T11:58:15Z</time><name>PT6979</name></trkpt>
<trkpt lat="52.936002" lon="-3.144409"><ele>160</ele><time>2019-09-27T11:58:16Z</time><name>PT6980</name></trkpt>
<trkpt lat="52.936017" lon="-3.144415"><ele>158</ele><time>2019-09-27T11:58:17Z</time><name>PT6981</name></trkpt>
<trkpt lat="52.936032" lon="-3.144411"><ele>157</ele><time>2019-09-27T11:58:18Z</time><name>PT6982</name></trkpt>
<trkpt lat="52.936044" lon="-3.144408"><ele>157</ele><time>2019-09-27T11:58:19Z</time><name>PT6983</name></trkpt>
<trkpt lat="52.936057" lon="-3.144403"><ele>158</ele><time>2019-09-27T11:58:20Z</time><name>PT6984</name></trkpt>
<trkpt lat="52.936065" lon="-3.144400"><ele>158</ele><time>2019-09-27T11:58:21Z</time><name>PT6985</name></trkpt>
<trkpt lat="52.936073" lon="-3.144401"><ele>158</ele><time>2019-09-27T11:58:22Z</time><name>PT6986</name></trkpt>
<trkpt lat="52.936081" lon="-3.144399"><ele>158</ele><time>2019-09-27T11:58:23Z</time><name>PT6987</name></trkpt>
<trkpt lat="52.936091" lon="-3.144397"><ele>157</ele><time>2019-09-27T11:58:24Z</time><name>PT6988</name></trkpt>
<trkpt lat="52.936102" lon="-3.144396"><ele>157</ele><time>2019-09-27T11:58:25Z</time><name>PT6989</name></trkpt>
<trkpt lat="52.936115" lon="-3.144396"><ele>157</ele><time>2019-09-27T11:58:26Z</time><name>PT6990</name></trkpt>
<trkpt lat="52.936122" lon="-3.144396"><ele>157</ele><time>2019-09-27T11:58:27Z</time><name>PT6991</name></trkpt>
<trkpt lat="52.936133" lon="-3.144400"><ele>157</ele><time>2019-09-27T11:58:28Z</time><name>PT6992</name></trkpt>
<trkpt lat="52.936141" lon="-3.144399"><ele>158</ele><time>2019-09-27T11:58:29Z</time><name>PT6993</name></trkpt>
<trkpt lat="52.936147" lon="-3.144398"><ele>157</ele><time>2019-09-27T11:58:30Z</time><name>PT6994</name></trkpt>
<trkpt lat="52.936156" lon="-3.144399"><ele>157</ele><time>2019-09-27T11:58:31Z</time><name>PT6995</name></trkpt>
<trkpt lat="52.936164" lon="-3.144395"><ele>155</ele><time>2019-09-27T11:58:32Z</time><name>PT6996</name></trkpt>
<trkpt lat="52.936171" lon="-3.144395"><ele>155</ele><time>2019-09-27T11:58:33Z</time><name>PT6997</name></trkpt>
<trkpt lat="52.936185" lon="-3.144393"><ele>156</ele><time>2019-09-27T11:58:34Z</time><name>PT6998</name></trkpt>
<trkpt lat="52.936197" lon="-3.144393"><ele>157</ele><time>2019-09-27T11:58:35Z</time><name>PT6999</name></trkpt>
<trkpt lat="52.936207" lon="-3.144393"><ele>157</ele><time>2019-09-27T11:58:36Z</time><name>PT7000</name></trkpt>
<trkpt lat="52.936216" lon="-3.144393"><ele>157</ele><time>2019-09-27T11:58:37Z</time><name>PT7001</name></trkpt>
<trkpt lat="52.936225" lon="-3.144392"><ele>158</ele><time>2019-09-27T11:58:38Z</time><name>PT7002</name></trkpt>
<trkpt lat="52.936237" lon="-3.144388"><ele>159</ele><time>2019-09-27T11:58:39Z</time><name>PT7003</name></trkpt>
<trkpt lat="52.936253" lon="-3.144387"><ele>160</ele><time>2019-09-27T11:58:40Z</time><name>PT7004</name></trkpt>
<trkpt lat="52.936265" lon="-3.144389"><ele>161</ele><time>2019-09-27T11:58:41Z</time><name>PT7005</name></trkpt>
<trkpt lat="52.936271" lon="-3.144390"><ele>161</ele><time>2019-09-27T11:58:42Z</time><name>PT7006</name></trkpt>
<trkpt lat="52.936278" lon="-3.144393"><ele>160</ele><time>2019-09-27T11:58:43Z</time><name>PT7007</name></trkpt>
<trkpt lat="52.936291" lon="-3.144395"><ele>161</ele><time>2019-09-27T11:58:44Z</time><name>PT7008</name></trkpt>
<trkpt lat="52.936308" lon="-3.144399"><ele>161</ele><time>2019-09-27T11:58:45Z</time><name>PT7009</name></trkpt>
<trkpt lat="52.936322" lon="-3.144397"><ele>161</ele><time>2019-09-27T11:58:46Z</time><name>PT7010</name></trkpt>
<trkpt lat="52.936341" lon="-3.144396"><ele>162</ele><time>2019-09-27T11:58:47Z</time><name>PT7011</name></trkpt>
<trkpt lat="52.936352" lon="-3.144389"><ele>162</ele><time>2019-09-27T11:58:48Z</time><name>PT7012</name></trkpt>
<trkpt lat="52.936358" lon="-3.144388"><ele>162</ele><time>2019-09-27T11:58:49Z</time><name>PT7013</name></trkpt>
<trkpt lat="52.936372" lon="-3.144391"><ele>162</ele><time>2019-09-27T11:58:50Z</time><name>PT7014</name></trkpt>
<trkpt lat="52.936380" lon="-3.144391"><ele>163</ele><time>2019-09-27T11:58:51Z</time><name>PT7015</name></trkpt>
<trkpt lat="52.936390" lon="-3.144395"><ele>163</ele><time>2019-09-27T11:58:52Z</time><name>PT7016</name></trkpt>
<trkpt lat="52.936405" lon="-3.144398"><ele>164</ele><time>2019-09-27T11:58:53Z</time><name>PT7017</name></trkpt>
<trkpt lat="52.936414" lon="-3.144398"><ele>163</ele><time>2019-09-27T11:58:54Z</time><name>PT7018</name></trkpt>
<trkpt lat="52.936419" lon="-3.144395"><ele>162</ele><time>2019-09-27T11:58:55Z</time><name>PT7019</name></trkpt>
<trkpt lat="52.936430" lon="-3.144394"><ele>161</ele><time>2019-09-27T11:58:56Z</time><name>PT7020</name></trkpt>
<trkpt lat="52.936439" lon="-3.144393"><ele>161</ele><time>2019-09-27T11:58:57Z</time><name>PT7021</name></trkpt>
<trkpt lat="52.936451" lon="-3.144395"><ele>160</ele><time>2019-09-27T11:58:58Z</time><name>PT7022</name></trkpt>
<trkpt lat="52.936466" lon="-3.144395"><ele>161</ele><time>2019-09-27T11:58:59Z</time><name>PT7023</name></trkpt>
<trkpt lat="52.936473" lon="-3.144393"><ele>160</ele><time>2019-09-27T11:59:00Z</time><name>PT7024</name></trkpt>
<trkpt lat="52.936484" lon="-3.144395"><ele>160</ele><time>2019-09-27T11:59:01Z</time><name>PT7025</name></trkpt>
<trkpt lat="52.936494" lon="-3.144398"><ele>160</ele><time>2019-09-27T11:59:02Z</time><name>PT7026</name></trkpt>
<trkpt lat="52.936499" lon="-3.144400"><ele>160</ele><time>2019-09-27T11:59:03Z</time><name>PT7027</name></trkpt>
<trkpt lat="52.936506" lon="-3.144402"><ele>160</ele><time>2019-09-27T11:59:04Z</time><name>PT7028</name></trkpt>
<trkpt lat="52.936514" lon="-3.144404"><ele>160</ele><time>2019-09-27T11:59:05Z</time><name>PT7029</name></trkpt>
<trkpt lat="52.936526" lon="-3.144404"><ele>160</ele><time>2019-09-27T11:59:06Z</time><name>PT7030</name></trkpt>
<trkpt lat="52.936537" lon="-3.144404"><ele>160</ele><time>2019-09-27T11:59:07Z</time><name>PT7031</name></trkpt>
<trkpt lat="52.936547" lon="-3.144404"><ele>160</ele><time>2019-09-27T11:59:08Z</time><name>PT7032</name></trkpt>
<trkpt lat="52.936560" lon="-3.144401"><ele>160</ele><time>2019-09-27T11:59:09Z</time><name>PT7033</name></trkpt>
<trkpt lat="52.936570" lon="-3.144401"><ele>160</ele><time>2019-09-27T11:59:10Z</time><name>PT7034</name></trkpt>
<trkpt lat="52.936580" lon="-3.144400"><ele>159</ele><time>2019-09-27T11:59:11Z</time><name>PT7035</name></trkpt>
<trkpt lat="52.936596" lon="-3.144396"><ele>160</ele><time>2019-09-27T11:59:12Z</time><name>PT7036</name></trkpt>
<trkpt lat="52.936602" lon="-3.144396"><ele>159</ele><time>2019-09-27T11:59:13Z</time><name>PT7037</name></trkpt>
<trkpt lat="52.936615" lon="-3.144394"><ele>159</ele><time>2019-09-27T11:59:14Z</time><name>PT7038</name></trkpt>
<trkpt lat="52.936623" lon="-3.144392"><ele>159</ele><time>2019-09-27T11:59:15Z</time><name>PT7039</name></trkpt>
<trkpt lat="52.936634" lon="-3.144391"><ele>158</ele><time>2019-09-27T11:59:16Z</time><name>PT7040</name></trkpt>
<trkpt lat="52.936645" lon="-3.144392"><ele>158</ele><time>2019-09-27T11:59:17Z</time><name>PT7041</name></trkpt>
<trkpt lat="52.936658" lon="-3.144393"><ele>158</ele><time>2019-09-27T11:59:18Z</time><name>PT7042</name></trkpt>
<trkpt lat="52.936669" lon="-3.144391"><ele>159</ele><time>2019-09-27T11:59:19Z</time><name>PT7043</name></trkpt>
<trkpt lat="52.936685" lon="-3.144388"><ele>160</ele><time>2019-09-27T11:59:20Z</time><name>PT7044</name></trkpt>
<trkpt lat="52.936705" lon="-3.144384"><ele>160</ele><time>2019-09-27T11:59:21Z</time><name>PT7045</name></trkpt>
<trkpt lat="52.936720" lon="-3.144380"><ele>161</ele><time>2019-09-27T11:59:22Z</time><name>PT7046</name></trkpt>
<trkpt lat="52.936732" lon="-3.144379"><ele>160</ele><time>2019-09-27T11:59:23Z</time><name>PT7047</name></trkpt>
<trkpt lat="52.936743" lon="-3.144378"><ele>161</ele><time>2019-09-27T11:59:24Z</time><name>PT7048</name></trkpt>
<trkpt lat="52.936755" lon="-3.144376"><ele>160</ele><time>2019-09-27T11:59:25Z</time><name>PT7049</name></trkpt>
<trkpt lat="52.936768" lon="-3.144376"><ele>161</ele><time>2019-09-27T11:59:26Z</time><name>PT7050</name></trkpt>
<trkpt lat="52.936780" lon="-3.144376"><ele>161</ele><time>2019-09-27T11:59:27Z</time><name>PT7051</name></trkpt>
<trkpt lat="52.936789" lon="-3.144376"><ele>160</ele><time>2019-09-27T11:59:28Z</time><name>PT7052</name></trkpt>
<trkpt lat="52.936802" lon="-3.144378"><ele>161</ele><time>2019-09-27T11:59:29Z</time><name>PT7053</name></trkpt>
<trkpt lat="52.936812" lon="-3.144380"><ele>161</ele><time>2019-09-27T11:59:30Z</time><name>PT7054</name></trkpt>
<trkpt lat="52.936824" lon="-3.144380"><ele>161</ele><time>2019-09-27T11:59:31Z</time><name>PT7055</name></trkpt>
<trkpt lat="52.936836" lon="-3.144382"><ele>161</ele><time>2019-09-27T11:59:32Z</time><name>PT7056</name></trkpt>
<trkpt lat="52.936846" lon="-3.144384"><ele>161</ele><time>2019-09-27T11:59:33Z</time><name>PT7057</name></trkpt>
<trkpt lat="52.936853" lon="-3.144388"><ele>161</ele><time>2019-09-27T11:59:34Z</time><name>PT7058</name></trkpt>
<trkpt lat="52.936863" lon="-3.144390"><ele>160</ele><time>2019-09-27T11:59:35Z</time><name>PT7059</name></trkpt>
<trkpt lat="52.936878" lon="-3.144394"><ele>160</ele><time>2019-09-27T11:59:36Z</time><name>PT7060</name></trkpt>
<trkpt lat="52.936886" lon="-3.144400"><ele>159</ele><time>2019-09-27T11:59:37Z</time><name>PT7061</name></trkpt>
<trkpt lat="52.936896" lon="-3.144409"><ele>160</ele><time>2019-09-27T11:59:38Z</time><name>PT7062</name></trkpt>
<trkpt lat="52.936906" lon="-3.144418"><ele>159</ele><time>2019-09-27T11:59:39Z</time><name>PT7063</name></trkpt>
<trkpt lat="52.936917" lon="-3.144428"><ele>159</ele><time>2019-09-27T11:59:40Z</time><name>PT7064</name></trkpt>
<trkpt lat="52.936928" lon="-3.144435"><ele>159</ele><time>2019-09-27T11:59:41Z</time><name>PT7065</name></trkpt>
<trkpt lat="52.936940" lon="-3.144446"><ele>159</ele><time>2019-09-27T11:59:42Z</time><name>PT7066</name></trkpt>
<trkpt lat="52.936950" lon="-3.144453"><ele>159</ele><time>2019-09-27T11:59:43Z</time><name>PT7067</name></trkpt>
<trkpt lat="52.936959" lon="-3.144459"><ele>158</ele><time>2019-09-27T11:59:44Z</time><name>PT7068</name></trkpt>
<trkpt lat="52.936963" lon="-3.144468"><ele>157</ele><time>2019-09-27T11:59:45Z</time><name>PT7069</name></trkpt>
<trkpt lat="52.936969" lon="-3.144477"><ele>157</ele><time>2019-09-27T11:59:46Z</time><name>PT7070</name></trkpt>
<trkpt lat="52.936976" lon="-3.144485"><ele>156</ele><time>2019-09-27T11:59:47Z</time><name>PT7071</name></trkpt>
<trkpt lat="52.936985" lon="-3.144490"><ele>156</ele><time>2019-09-27T11:59:48Z</time><name>PT7072</name></trkpt>
<trkpt lat="52.937000" lon="-3.144497"><ele>157</ele><time>2019-09-27T11:59:49Z</time><name>PT7073</name></trkpt>
<trkpt lat="52.937008" lon="-3.144505"><ele>156</ele><time>2019-09-27T11:59:50Z</time><name>PT7074</name></trkpt>
<trkpt lat="52.937020" lon="-3.144511"><ele>156</ele><time>2019-09-27T11:59:51Z</time><name>PT7075</name></trkpt>
<trkpt lat="52.937026" lon="-3.144510"><ele>155</ele><time>2019-09-27T11:59:52Z</time><name>PT7076</name></trkpt>
<trkpt lat="52.937035" lon="-3.144515"><ele>155</ele><time>2019-09-27T11:59:53Z</time><name>PT7077</name></trkpt>
<trkpt lat="52.937046" lon="-3.144521"><ele>155</ele><time>2019-09-27T11:59:54Z</time><name>PT7078</name></trkpt>
<trkpt lat="52.937056" lon="-3.144529"><ele>155</ele><time>2019-09-27T11:59:55Z</time><name>PT7079</name></trkpt>
<trkpt lat="52.937065" lon="-3.144536"><ele>154</ele><time>2019-09-27T11:59:56Z</time><name>PT7080</name></trkpt>
<trkpt lat="52.937074" lon="-3.144540"><ele>154</ele><time>2019-09-27T11:59:57Z</time><name>PT7081</name></trkpt>
<trkpt lat="52.937090" lon="-3.144550"><ele>155</ele><time>2019-09-27T11:59:58Z</time><name>PT7082</name></trkpt>
<trkpt lat="52.937102" lon="-3.144557"><ele>155</ele><time>2019-09-27T11:59:59Z</time><name>PT7083</name></trkpt>
<trkpt lat="52.937109" lon="-3.144571"><ele>156</ele><time>2019-09-27T12:00:00Z</time><name>PT7084</name></trkpt>
<trkpt lat="52.937117" lon="-3.144580"><ele>156</ele><time>2019-09-27T12:00:01Z</time><name>PT7085</name></trkpt>
<trkpt lat="52.937123" lon="-3.144585"><ele>155</ele><time>2019-09-27T12:00:02Z</time><name>PT7086</name></trkpt>
<trkpt lat="52.937130" lon="-3.144593"><ele>155</ele><time>2019-09-27T12:00:03Z</time><name>PT7087</name></trkpt>
<trkpt lat="52.937142" lon="-3.144604"><ele>155</ele><time>2019-09-27T12:00:04Z</time><name>PT7088</name></trkpt>
<trkpt lat="52.937154" lon="-3.144607"><ele>155</ele><time>2019-09-27T12:00:05Z</time><name>PT7089</name></trkpt>
<trkpt lat="52.937165" lon="-3.144612"><ele>155</ele><time>2019-09-27T12:00:06Z</time><name>PT7090</name></trkpt>
<trkpt lat="52.937177" lon="-3.144625"><ele>156</ele><time>2019-09-27T12:00:07Z</time><name>PT7091</name></trkpt>
<trkpt lat="52.937187" lon="-3.144636"><ele>156</ele><time>2019-09-27T12:00:08Z</time><name>PT7092</name></trkpt>
<trkpt lat="52.937194" lon="-3.144643"><ele>156</ele><time>2019-09-27T12:00:09Z</time><name>PT7093</name></trkpt>
<trkpt lat="52.937202" lon="-3.144649"><ele>156</ele><time>2019-09-27T12:00:10Z</time><name>PT7094</name></trkpt>
<trkpt lat="52.937209" lon="-3.144652"><ele>155</ele><time>2019-09-27T12:00:11Z</time><name>PT7095</name></trkpt>
<trkpt lat="52.937221" lon="-3.144655"><ele>155</ele><time>2019-09-27T12:00:12Z</time><name>PT7096</name></trkpt>
<trkpt lat="52.937228" lon="-3.144660"><ele>155</ele><time>2019-09-27T12:00:13Z</time><name>PT7097</name></trkpt>
<trkpt lat="52.937237" lon="-3.144668"><ele>155</ele><time>2019-09-27T12:00:14Z</time><name>PT7098</name></trkpt>
<trkpt lat="52.937244" lon="-3.144676"><ele>155</ele><time>2019-09-27T12:00:15Z</time><name>PT7099</name></trkpt>
<trkpt lat="52.937252" lon="-3.144681"><ele>154</ele><time>2019-09-27T12:00:16Z</time><name>PT7100</name></trkpt>
<trkpt lat="52.937260" lon="-3.144686"><ele>154</ele><time>2019-09-27T12:00:17Z</time><name>PT7101</name></trkpt>
<trkpt lat="52.937273" lon="-3.144695"><ele>155</ele><time>2019-09-27T12:00:18Z</time><name>PT7102</name></trkpt>
<trkpt lat="52.937285" lon="-3.144697"><ele>155</ele><time>2019-09-27T12:00:19Z</time><name>PT7103</name></trkpt>
<trkpt lat="52.937296" lon="-3.144704"><ele>154</ele><time>2019-09-27T12:00:20Z</time><name>PT7104</name></trkpt>
<trkpt lat="52.937304" lon="-3.144707"><ele>154</ele><time>2019-09-27T12:00:21Z</time><name>PT7105</name></trkpt>
<trkpt lat="52.937314" lon="-3.144701"><ele>153</ele><time>2019-09-27T12:00:22Z</time><name>PT7106</name></trkpt>
<trkpt lat="52.937324" lon="-3.144703"><ele>154</ele><time>2019-09-27T12:00:23Z</time><name>PT7107</name></trkpt>
<trkpt lat="52.937334" lon="-3.144706"><ele>154</ele><time>2019-09-27T12:00:24Z</time><name>PT7108</name></trkpt>
<trkpt lat="52.937345" lon="-3.144714"><ele>154</ele><time>2019-09-27T12:00:25Z</time><name>PT7109</name></trkpt>
<trkpt lat="52.937357" lon="-3.144720"><ele>154</ele><time>2019-09-27T12:00:26Z</time><name>PT7110</name></trkpt>
<trkpt lat="52.937364" lon="-3.144729"><ele>153</ele><time>2019-09-27T12:00:27Z</time><name>PT7111</name></trkpt>
<trkpt lat="52.937375" lon="-3.144729"><ele>154</ele><time>2019-09-27T12:00:28Z</time><name>PT7112</name></trkpt>
<trkpt lat="52.937382" lon="-3.144738"><ele>154</ele><time>2019-09-27T12:00:29Z</time><name>PT7113</name></trkpt>
<trkpt lat="52.937390" lon="-3.144745"><ele>155</ele><time>2019-09-27T12:00:30Z</time><name>PT7114</name></trkpt>
<trkpt lat="52.937399" lon="-3.144752"><ele>154</ele><time>2019-09-27T12:00:31Z</time><name>PT7115</name></trkpt>
<trkpt lat="52.937402" lon="-3.144765"><ele>154</ele><time>2019-09-27T12:00:32Z</time><name>PT7116</name></trkpt>
<trkpt lat="52.937410" lon="-3.144769"><ele>154</ele><time>2019-09-27T12:00:33Z</time><name>PT7117</name></trkpt>
<trkpt lat="52.937424" lon="-3.144774"><ele>155</ele><time>2019-09-27T12:00:34Z</time><name>PT7118</name></trkpt>
<trkpt lat="52.937433" lon="-3.144781"><ele>155</ele><time>2019-09-27T12:00:35Z</time><name>PT7119</name></trkpt>
<trkpt lat="52.937444" lon="-3.144783"><ele>155</ele><time>2019-09-27T12:00:36Z</time><name>PT7120</name></trkpt>
<trkpt lat="52.937455" lon="-3.144792"><ele>155</ele><time>2019-09-27T12:00:37Z</time><name>PT7121</name></trkpt>
<trkpt lat="52.937462" lon="-3.144797"><ele>155</ele><time>2019-09-27T12:00:38Z</time><name>PT7122</name></trkpt>
<trkpt lat="52.937469" lon="-3.144804"><ele>155</ele><time>2019-09-27T12:00:39Z</time><name>PT7123</name></trkpt>
<trkpt lat="52.937479" lon="-3.144810"><ele>155</ele><time>2019-09-27T12:00:40Z</time><name>PT7124</name></trkpt>
<trkpt lat="52.937491" lon="-3.144814"><ele>156</ele><time>2019-09-27T12:00:41Z</time><name>PT7125</name></trkpt>
<trkpt lat="52.937514" lon="-3.144813"><ele>158</ele><time>2019-09-27T12:00:42Z</time><name>PT7126</name></trkpt>
<trkpt lat="52.937528" lon="-3.144820"><ele>159</ele><time>2019-09-27T12:00:43Z</time><name>PT7127</name></trkpt>
<trkpt lat="52.937540" lon="-3.144825"><ele>158</ele><time>2019-09-27T12:00:44Z</time><name>PT7128</name></trkpt>
<trkpt lat="52.937552" lon="-3.144829"><ele>158</ele><time>2019-09-27T12:00:45Z</time><name>PT7129</name></trkpt>
<trkpt lat="52.937554" lon="-3.144834"><ele>157</ele><time>2019-09-27T12:00:46Z</time><name>PT7130</name></trkpt>
<trkpt lat="52.937561" lon="-3.144841"><ele>158</ele><time>2019-09-27T12:00:47Z</time><name>PT7131</name></trkpt>
<trkpt lat="52.937569" lon="-3.144846"><ele>157</ele><time>2019-09-27T12:00:48Z</time><name>PT7132</name></trkpt>
<trkpt lat="52.937580" lon="-3.144854"><ele>156</ele><time>2019-09-27T12:00:49Z</time><name>PT7133</name></trkpt>
<trkpt lat="52.937590" lon="-3.144855"><ele>157</ele><time>2019-09-27T12:00:50Z</time><name>PT7134</name></trkpt>
<trkpt lat="52.937599" lon="-3.144858"><ele>156</ele><time>2019-09-27T12:00:51Z</time><name>PT7135</name></trkpt>
<trkpt lat="52.937612" lon="-3.144859"><ele>158</ele><time>2019-09-27T12:00:52Z</time><name>PT7136</name></trkpt>
<trkpt lat="52.937619" lon="-3.144861"><ele>158</ele><time>2019-09-27T12:00:53Z</time><name>PT7137</name></trkpt>
<trkpt lat="52.937627" lon="-3.144863"><ele>158</ele><time>2019-09-27T12:00:54Z</time><name>PT7138</name></trkpt>
<trkpt lat="52.937640" lon="-3.144865"><ele>158</ele><time>2019-09-27T12:00:55Z</time><name>PT7139</name></trkpt>
<trkpt lat="52.937655" lon="-3.144862"><ele>160</ele><time>2019-09-27T12:00:56Z</time><name>PT7140</name></trkpt>
<trkpt lat="52.937669" lon="-3.144853"><ele>161</ele><time>2019-09-27T12:00:57Z</time><name>PT7141</name></trkpt>
<trkpt lat="52.937677" lon="-3.144851"><ele>160</ele><time>2019-09-27T12:00:58Z</time><name>PT7142</name></trkpt>
<trkpt lat="52.937696" lon="-3.144842"><ele>163</ele><time>2019-09-27T12:00:59Z</time><name>PT7143</name></trkpt>
<trkpt lat="52.937705" lon="-3.144841"><ele>163</ele><time>2019-09-27T12:01:00Z</time><name>PT7144</name></trkpt>
<trkpt lat="52.937718" lon="-3.144847"><ele>164</ele><time>2019-09-27T12:01:01Z</time><name>PT7145</name></trkpt>
<trkpt lat="52.937728" lon="-3.144853"><ele>165</ele><time>2019-09-27T12:01:02Z</time><name>PT7146</name></trkpt>
<trkpt lat="52.937735" lon="-3.144855"><ele>165</ele><time>2019-09-27T12:01:03Z</time><name>PT7147</name></trkpt>
<trkpt lat="52.937745" lon="-3.144864"><ele>166</ele><time>2019-09-27T12:01:04Z</time><name>PT7148</name></trkpt>
<trkpt lat="52.937748" lon="-3.144872"><ele>166</ele><time>2019-09-27T12:01:05Z</time><name>PT7149</name></trkpt>
<trkpt lat="52.937758" lon="-3.144878"><ele>168</ele><time>2019-09-27T12:01:06Z</time><name>PT7150</name></trkpt>
<trkpt lat="52.937779" lon="-3.144887"><ele>170</ele><time>2019-09-27T12:01:07Z</time><name>PT7151</name></trkpt>
<trkpt lat="52.937790" lon="-3.144889"><ele>171</ele><time>2019-09-27T12:01:08Z</time><name>PT7152</name></trkpt>
<trkpt lat="52.937793" lon="-3.144898"><ele>171</ele><time>2019-09-27T12:01:09Z</time><name>PT7153</name></trkpt>
<trkpt lat="52.937795" lon="-3.144898"><ele>171</ele><time>2019-09-27T12:01:18Z</time><name>PT7154</name></trkpt>
<trkpt lat="52.937796" lon="-3.144898"><ele>171</ele><time>2019-09-27T12:01:19Z</time><name>PT7155</name></trkpt>
<trkpt lat="52.937793" lon="-3.144904"><ele>171</ele><time>2019-09-27T12:01:27Z</time><name>PT7156</name></trkpt>
<trkpt lat="52.937792" lon="-3.144909"><ele>171</ele><time>2019-09-27T12:01:28Z</time><name>PT7157</name></trkpt>
<trkpt lat="52.937793" lon="-3.144908"><ele>171</ele><time>2019-09-27T12:01:29Z</time><name>PT7158</name></trkpt>
<trkpt lat="52.937793" lon="-3.144903"><ele>171</ele><time>2019-09-27T12:01:44Z</time><name>PT7159</name></trkpt>
<trkpt lat="52.937799" lon="-3.144904"><ele>171</ele><time>2019-09-27T12:01:45Z</time><name>PT7160</name></trkpt>
<trkpt lat="52.937801" lon="-3.144896"><ele>171</ele><time>2019-09-27T12:01:48Z</time><name>PT7161</name></trkpt>
<trkpt lat="52.937810" lon="-3.144891"><ele>171</ele><time>2019-09-27T12:01:49Z</time><name>PT7162</name></trkpt>
<trkpt lat="52.937819" lon="-3.144892"><ele>171</ele><time>2019-09-27T12:01:50Z</time><name>PT7163</name></trkpt>
<trkpt lat="52.937827" lon="-3.144893"><ele>171</ele><time>2019-09-27T12:01:51Z</time><name>PT7164</name></trkpt>
<trkpt lat="52.937833" lon="-3.144892"><ele>171</ele><time>2019-09-27T12:01:52Z</time><name>PT7165</name></trkpt>
<trkpt lat="52.937845" lon="-3.144886"><ele>171</ele><time>2019-09-27T12:01:53Z</time><name>PT7166</name></trkpt>
<trkpt lat="52.937857" lon="-3.144893"><ele>171</ele><time>2019-09-27T12:01:54Z</time><name>PT7167</name></trkpt>
<trkpt lat="52.937865" lon="-3.144898"><ele>171</ele><time>2019-09-27T12:01:55Z</time><name>PT7168</name></trkpt>
<trkpt lat="52.937880" lon="-3.144897"><ele>171</ele><time>2019-09-27T12:01:56Z</time><name>PT7169</name></trkpt>
<trkpt lat="52.937892" lon="-3.144907"><ele>171</ele><time>2019-09-27T12:01:57Z</time><name>PT7170</name></trkpt>
<trkpt lat="52.937899" lon="-3.144903"><ele>171</ele><time>2019-09-27T12:01:58Z</time><name>PT7171</name></trkpt>
<trkpt lat="52.937912" lon="-3.144901"><ele>171</ele><time>2019-09-27T12:01:59Z</time><name>PT7172</name></trkpt>
<trkpt lat="52.937924" lon="-3.144896"><ele>171</ele><time>2019-09-27T12:02:00Z</time><name>PT7173</name></trkpt>
<trkpt lat="52.937932" lon="-3.144896"><ele>171</ele><time>2019-09-27T12:02:01Z</time><name>PT7174</name></trkpt>
<trkpt lat="52.937941" lon="-3.144893"><ele>172</ele><time>2019-09-27T12:02:02Z</time><name>PT7175</name></trkpt>
<trkpt lat="52.937951" lon="-3.144890"><ele>171</ele><time>2019-09-27T12:02:03Z</time><name>PT7176</name></trkpt>
<trkpt lat="52.937965" lon="-3.144887"><ele>172</ele><time>2019-09-27T12:02:04Z</time><name>PT7177</name></trkpt>
<trkpt lat="52.937973" lon="-3.144885"><ele>172</ele><time>2019-09-27T12:02:05Z</time><name>PT7178</name></trkpt>
<trkpt lat="52.937985" lon="-3.144878"><ele>173</ele><time>2019-09-27T12:02:06Z</time><name>PT7179</name></trkpt>
<trkpt lat="52.938001" lon="-3.144870"><ele>172</ele><time>2019-09-27T12:02:07Z</time><name>PT7180</name></trkpt>
<trkpt lat="52.938014" lon="-3.144866"><ele>172</ele><time>2019-09-27T12:02:08Z</time><name>PT7181</name></trkpt>
<trkpt lat="52.938022" lon="-3.144856"><ele>171</ele><time>2019-09-27T12:02:09Z</time><name>PT7182</name></trkpt>
<trkpt lat="52.938026" lon="-3.144848"><ele>170</ele><time>2019-09-27T12:02:10Z</time><name>PT7183</name></trkpt>
<trkpt lat="52.938034" lon="-3.144840"><ele>170</ele><time>2019-09-27T12:02:11Z</time><name>PT7184</name></trkpt>
<trkpt lat="52.938041" lon="-3.144839"><ele>170</ele><time>2019-09-27T12:02:12Z</time><name>PT7185</name></trkpt>
<trkpt lat="52.938053" lon="-3.144836"><ele>170</ele><time>2019-09-27T12:02:13Z</time><name>PT7186</name></trkpt>
<trkpt lat="52.938062" lon="-3.144830"><ele>170</ele><time>2019-09-27T12:02:14Z</time><name>PT7187</name></trkpt>
<trkpt lat="52.938074" lon="-3.144823"><ele>170</ele><time>2019-09-27T12:02:15Z</time><name>PT7188</name></trkpt>
<trkpt lat="52.938086" lon="-3.144816"><ele>170</ele><time>2019-09-27T12:02:16Z</time><name>PT7189</name></trkpt>
<trkpt lat="52.938097" lon="-3.144813"><ele>170</ele><time>2019-09-27T12:02:17Z</time><name>PT7190</name></trkpt>
<trkpt lat="52.938108" lon="-3.144811"><ele>169</ele><time>2019-09-27T12:02:18Z</time><name>PT7191</name></trkpt>
<trkpt lat="52.938119" lon="-3.144810"><ele>169</ele><time>2019-09-27T12:02:19Z</time><name>PT7192</name></trkpt>
<trkpt lat="52.938128" lon="-3.144806"><ele>169</ele><time>2019-09-27T12:02:20Z</time><name>PT7193</name></trkpt>
<trkpt lat="52.938139" lon="-3.144808"><ele>169</ele><time>2019-09-27T12:02:21Z</time><name>PT7194</name></trkpt>
<trkpt lat="52.938148" lon="-3.144812"><ele>169</ele><time>2019-09-27T12:02:22Z</time><name>PT7195</name></trkpt>
<trkpt lat="52.938156" lon="-3.144818"><ele>169</ele><time>2019-09-27T12:02:23Z</time><name>PT7196</name></trkpt>
<trkpt lat="52.938162" lon="-3.144822"><ele>169</ele><time>2019-09-27T12:02:24Z</time><name>PT7197</name></trkpt>
<trkpt lat="52.938171" lon="-3.144830"><ele>169</ele><time>2019-09-27T12:02:25Z</time><name>PT7198</name></trkpt>
<trkpt lat="52.938177" lon="-3.144837"><ele>169</ele><time>2019-09-27T12:02:26Z</time><name>PT7199</name></trkpt>
<trkpt lat="52.938184" lon="-3.144846"><ele>169</ele><time>2019-09-27T12:02:27Z</time><name>PT7200</name></trkpt>
<trkpt lat="52.938188" lon="-3.144855"><ele>169</ele><time>2019-09-27T12:02:28Z</time><name>PT7201</name></trkpt>
<trkpt lat="52.938193" lon="-3.144863"><ele>168</ele><time>2019-09-27T12:02:29Z</time><name>PT7202</name></trkpt>
<trkpt lat="52.938200" lon="-3.144870"><ele>168</ele><time>2019-09-27T12:02:30Z</time><name>PT7203</name></trkpt>
<trkpt lat="52.938207" lon="-3.144876"><ele>168</ele><time>2019-09-27T12:02:31Z</time><name>PT7204</name></trkpt>
<trkpt lat="52.938213" lon="-3.144884"><ele>168</ele><time>2019-09-27T12:02:32Z</time><name>PT7205</name></trkpt>
<trkpt lat="52.938220" lon="-3.144894"><ele>169</ele><time>2019-09-27T12:02:33Z</time><name>PT7206</name></trkpt>
<trkpt lat="52.938231" lon="-3.144902"><ele>170</ele><time>2019-09-27T12:02:34Z</time><name>PT7207</name></trkpt>
<trkpt lat="52.938241" lon="-3.144910"><ele>170</ele><time>2019-09-27T12:02:35Z</time><name>PT7208</name></trkpt>
<trkpt lat="52.938248" lon="-3.144918"><ele>170</ele><time>2019-09-27T12:02:36Z</time><name>PT7209</name></trkpt>
<trkpt lat="52.938255" lon="-3.144927"><ele>170</ele><time>2019-09-27T12:02:37Z</time><name>PT7210</name></trkpt>
<trkpt lat="52.938260" lon="-3.144940"><ele>171</ele><time>2019-09-27T12:02:38Z</time><name>PT7211</name></trkpt>
<trkpt lat="52.938265" lon="-3.144951"><ele>171</ele><time>2019-09-27T12:02:39Z</time><name>PT7212</name></trkpt>
<trkpt lat="52.938274" lon="-3.144954"><ele>171</ele><time>2019-09-27T12:02:40Z</time><name>PT7213</name></trkpt>
<trkpt lat="52.938287" lon="-3.144961"><ele>171</ele><time>2019-09-27T12:02:41Z</time><name>PT7214</name></trkpt>
<trkpt lat="52.938302" lon="-3.144965"><ele>172</ele><time>2019-09-27T12:02:42Z</time><name>PT7215</name></trkpt>
<trkpt lat="52.938312" lon="-3.144974"><ele>172</ele><time>2019-09-27T12:02:43Z</time><name>PT7216</name></trkpt>
<trkpt lat="52.938319" lon="-3.144982"><ele>172</ele><time>2019-09-27T12:02:44Z</time><name>PT7217</name></trkpt>
<trkpt lat="52.938330" lon="-3.144991"><ele>172</ele><time>2019-09-27T12:02:45Z</time><name>PT7218</name></trkpt>
<trkpt lat="52.938341" lon="-3.145010"><ele>171</ele><time>2019-09-27T12:02:46Z</time><name>PT7219</name></trkpt>
<trkpt lat="52.938347" lon="-3.145025"><ele>170</ele><time>2019-09-27T12:02:47Z</time><name>PT7220</name></trkpt>
<trkpt lat="52.938353" lon="-3.145046"><ele>169</ele><time>2019-09-27T12:02:48Z</time><name>PT7221</name></trkpt>
<trkpt lat="52.938356" lon="-3.145058"><ele>169</ele><time>2019-09-27T12:02:49Z</time><name>PT7222</name></trkpt>
<trkpt lat="52.938361" lon="-3.145069"><ele>170</ele><time>2019-09-27T12:02:50Z</time><name>PT7223</name></trkpt>
<trkpt lat="52.938371" lon="-3.145084"><ele>171</ele><time>2019-09-27T12:02:51Z</time><name>PT7224</name></trkpt>
<trkpt lat="52.938374" lon="-3.145098"><ele>170</ele><time>2019-09-27T12:02:52Z</time><name>PT7225</name></trkpt>
<trkpt lat="52.938373" lon="-3.145113"><ele>170</ele><time>2019-09-27T12:02:53Z</time><name>PT7226</name></trkpt>
<trkpt lat="52.938372" lon="-3.145127"><ele>170</ele><time>2019-09-27T12:02:54Z</time><name>PT7227</name></trkpt>
<trkpt lat="52.938369" lon="-3.145141"><ele>170</ele><time>2019-09-27T12:02:55Z</time><name>PT7228</name></trkpt>
<trkpt lat="52.938368" lon="-3.145150"><ele>170</ele><time>2019-09-27T12:02:56Z</time><name>PT7229</name></trkpt>
<trkpt lat="52.938366" lon="-3.145167"><ele>170</ele><time>2019-09-27T12:02:57Z</time><name>PT7230</name></trkpt>
<trkpt lat="52.938361" lon="-3.145179"><ele>169</ele><time>2019-09-27T12:02:58Z</time><name>PT7231</name></trkpt>
<trkpt lat="52.938357" lon="-3.145190"><ele>169</ele><time>2019-09-27T12:02:59Z</time><name>PT7232</name></trkpt>
<trkpt lat="52.938356" lon="-3.145198"><ele>168</ele><time>2019-09-27T12:03:00Z</time><name>PT7233</name></trkpt>
<trkpt lat="52.938355" lon="-3.145210"><ele>169</ele><time>2019-09-27T12:03:01Z</time><name>PT7234</name></trkpt>
<trkpt lat="52.938353" lon="-3.145217"><ele>168</ele><time>2019-09-27T12:03:02Z</time><name>PT7235</name></trkpt>
<trkpt lat="52.938346" lon="-3.145225"><ele>168</ele><time>2019-09-27T12:03:03Z</time><name>PT7236</name></trkpt>
<trkpt lat="52.938343" lon="-3.145231"><ele>169</ele><time>2019-09-27T12:03:04Z</time><name>PT7237</name></trkpt>
<trkpt lat="52.938339" lon="-3.145241"><ele>169</ele><time>2019-09-27T12:03:05Z</time><name>PT7238</name></trkpt>
<trkpt lat="52.938335" lon="-3.145246"><ele>169</ele><time>2019-09-27T12:03:06Z</time><name>PT7239</name></trkpt>
<trkpt lat="52.938329" lon="-3.145250"><ele>169</ele><time>2019-09-27T12:03:07Z</time><name>PT7240</name></trkpt>
<trkpt lat="52.938322" lon="-3.145252"><ele>169</ele><time>2019-09-27T12:03:08Z</time><name>PT7241</name></trkpt>
<trkpt lat="52.938313" lon="-3.145260"><ele>169</ele><time>2019-09-27T12:03:09Z</time><name>PT7242</name></trkpt>
<trkpt lat="52.938296" lon="-3.145266"><ele>168</ele><time>2019-09-27T12:03:10Z</time><name>PT7243</name></trkpt>
<trkpt lat="52.938289" lon="-3.145270"><ele>168</ele><time>2019-09-27T12:03:11Z</time><name>PT7244</name></trkpt>
<trkpt lat="52.938280" lon="-3.145263"><ele>168</ele><time>2019-09-27T12:03:12Z</time><name>PT7245</name></trkpt>
<trkpt lat="52.938266" lon="-3.145272"><ele>169</ele><time>2019-09-27T12:03:13Z</time><name>PT7246</name></trkpt>
<trkpt lat="52.938255" lon="-3.145289"><ele>169</ele><time>2019-09-27T12:03:14Z</time><name>PT7247</name></trkpt>
<trkpt lat="52.938242" lon="-3.145304"><ele>168</ele><time>2019-09-27T12:03:15Z</time><name>PT7248</name></trkpt>
<trkpt lat="52.938235" lon="-3.145312"><ele>167</ele><time>2019-09-27T12:03:16Z</time><name>PT7249</name></trkpt>
<trkpt lat="52.938230" lon="-3.145322"><ele>167</ele><time>2019-09-27T12:03:17Z</time><name>PT7250</name></trkpt>
<trkpt lat="52.938222" lon="-3.145333"><ele>168</ele><time>2019-09-27T12:03:18Z</time><name>PT7251</name></trkpt>
<trkpt lat="52.938215" lon="-3.145345"><ele>168</ele><time>2019-09-27T12:03:19Z</time><name>PT7252</name></trkpt>
<trkpt lat="52.938207" lon="-3.145355"><ele>168</ele><time>2019-09-27T12:03:20Z</time><name>PT7253</name></trkpt>
<trkpt lat="52.938200" lon="-3.145358"><ele>168</ele><time>2019-09-27T12:03:21Z</time><name>PT7254</name></trkpt>
<trkpt lat="52.938190" lon="-3.145365"><ele>168</ele><time>2019-09-27T12:03:22Z</time><name>PT7255</name></trkpt>
<trkpt lat="52.938179" lon="-3.145376"><ele>169</ele><time>2019-09-27T12:03:23Z</time><name>PT7256</name></trkpt>
<trkpt lat="52.938172" lon="-3.145387"><ele>169</ele><time>2019-09-27T12:03:24Z</time><name>PT7257</name></trkpt>
<trkpt lat="52.938164" lon="-3.145395"><ele>168</ele><time>2019-09-27T12:03:25Z</time><name>PT7258</name></trkpt>
<trkpt lat="52.938161" lon="-3.145398"><ele>169</ele><time>2019-09-27T12:03:26Z</time><name>PT7259</name></trkpt>
<trkpt lat="52.938161" lon="-3.145401"><ele>169</ele><time>2019-09-27T12:03:27Z</time><name>PT7260</name></trkpt>
<trkpt lat="52.938156" lon="-3.145414"><ele>169</ele><time>2019-09-27T12:03:28Z</time><name>PT7261</name></trkpt>
<trkpt lat="52.938153" lon="-3.145423"><ele>169</ele><time>2019-09-27T12:03:29Z</time><name>PT7262</name></trkpt>
<trkpt lat="52.938150" lon="-3.145433"><ele>170</ele><time>2019-09-27T12:03:30Z</time><name>PT7263</name></trkpt>
<trkpt lat="52.938147" lon="-3.145445"><ele>170</ele><time>2019-09-27T12:03:31Z</time><name>PT7264</name></trkpt>
<trkpt lat="52.938144" lon="-3.145459"><ele>170</ele><time>2019-09-27T12:03:32Z</time><name>PT7265</name></trkpt>
<trkpt lat="52.938134" lon="-3.145471"><ele>171</ele><time>2019-09-27T12:03:33Z</time><name>PT7266</name></trkpt>
<trkpt lat="52.938125" lon="-3.145483"><ele>172</ele><time>2019-09-27T12:03:34Z</time><name>PT7267</name></trkpt>
<trkpt lat="52.938116" lon="-3.145500"><ele>172</ele><time>2019-09-27T12:03:35Z</time><name>PT7268</name></trkpt>
<trkpt lat="52.938107" lon="-3.145517"><ele>173</ele><time>2019-09-27T12:03:36Z</time><name>PT7269</name></trkpt>
<trkpt lat="52.938099" lon="-3.145537"><ele>173</ele><time>2019-09-27T12:03:37Z</time><name>PT7270</name></trkpt>
<trkpt lat="52.938092" lon="-3.145550"><ele>174</ele><time>2019-09-27T12:03:38Z</time><name>PT7271</name></trkpt>
<trkpt lat="52.938080" lon="-3.145570"><ele>175</ele><time>2019-09-27T12:03:39Z</time><name>PT7272</name></trkpt>
<trkpt lat="52.938073" lon="-3.145578"><ele>175</ele><time>2019-09-27T12:03:40Z</time><name>PT7273</name></trkpt>
<trkpt lat="52.938064" lon="-3.145589"><ele>176</ele><time>2019-09-27T12:03:41Z</time><name>PT7274</name></trkpt>
<trkpt lat="52.938058" lon="-3.145599"><ele>176</ele><time>2019-09-27T12:03:42Z</time><name>PT7275</name></trkpt>
<trkpt lat="52.938052" lon="-3.145608"><ele>176</ele><time>2019-09-27T12:03:43Z</time><name>PT7276</name></trkpt>
<trkpt lat="52.938045" lon="-3.145618"><ele>176</ele><time>2019-09-27T12:03:44Z</time><name>PT7277</name></trkpt>
<trkpt lat="52.938035" lon="-3.145636"><ele>176</ele><time>2019-09-27T12:03:45Z</time><name>PT7278</name></trkpt>
<trkpt lat="52.938028" lon="-3.145647"><ele>176</ele><time>2019-09-27T12:03:46Z</time><name>PT7279</name></trkpt>
<trkpt lat="52.938022" lon="-3.145658"><ele>176</ele><time>2019-09-27T12:03:47Z</time><name>PT7280</name></trkpt>
<trkpt lat="52.938016" lon="-3.145675"><ele>176</ele><time>2019-09-27T12:03:48Z</time><name>PT7281</name></trkpt>
<trkpt lat="52.938009" lon="-3.145682"><ele>176</ele><time>2019-09-27T12:03:49Z</time><name>PT7282</name></trkpt>
<trkpt lat="52.938002" lon="-3.145688"><ele>177</ele><time>2019-09-27T12:03:50Z</time><name>PT7283</name></trkpt>
<trkpt lat="52.937994" lon="-3.145700"><ele>176</ele><time>2019-09-27T12:03:51Z</time><name>PT7284</name></trkpt>
<trkpt lat="52.937982" lon="-3.145713"><ele>176</ele><time>2019-09-27T12:03:52Z</time><name>PT7285</name></trkpt>
<trkpt lat="52.937977" lon="-3.145724"><ele>176</ele><time>2019-09-27T12:03:53Z</time><name>PT7286</name></trkpt>
<trkpt lat="52.937970" lon="-3.145735"><ele>175</ele><time>2019-09-27T12:03:54Z</time><name>PT7287</name></trkpt>
<trkpt lat="52.937957" lon="-3.145748"><ele>176</ele><time>2019-09-27T12:03:55Z</time><name>PT7288</name></trkpt>
<trkpt lat="52.937950" lon="-3.145754"><ele>176</ele><time>2019-09-27T12:03:56Z</time><name>PT7289</name></trkpt>
<trkpt lat="52.937942" lon="-3.145760"><ele>175</ele><time>2019-09-27T12:03:57Z</time><name>PT7290</name></trkpt>
<trkpt lat="52.937932" lon="-3.145761"><ele>176</ele><time>2019-09-27T12:03:58Z</time><name>PT7291</name></trkpt>
<trkpt lat="52.937924" lon="-3.145763"><ele>175</ele><time>2019-09-27T12:03:59Z</time><name>PT7292</name></trkpt>
<trkpt lat="52.937913" lon="-3.145773"><ele>175</ele><time>2019-09-27T12:04:00Z</time><name>PT7293</name></trkpt>
<trkpt lat="52.937905" lon="-3.145781"><ele>176</ele><time>2019-09-27T12:04:01Z</time><name>PT7294</name></trkpt>
<trkpt lat="52.937895" lon="-3.145790"><ele>176</ele><time>2019-09-27T12:04:02Z</time><name>PT7295</name></trkpt>
<trkpt lat="52.937887" lon="-3.145803"><ele>177</ele><time>2019-09-27T12:04:03Z</time><name>PT7296</name></trkpt>
<trkpt lat="52.937880" lon="-3.145813"><ele>176</ele><time>2019-09-27T12:04:04Z</time><name>PT7297</name></trkpt>
<trkpt lat="52.937872" lon="-3.145819"><ele>176</ele><time>2019-09-27T12:04:05Z</time><name>PT7298</name></trkpt>
<trkpt lat="52.937864" lon="-3.145830"><ele>176</ele><time>2019-09-27T12:04:06Z</time><name>PT7299</name></trkpt>
<trkpt lat="52.937857" lon="-3.145843"><ele>176</ele><time>2019-09-27T12:04:07Z</time><name>PT7300</name></trkpt>
<trkpt lat="52.937851" lon="-3.145852"><ele>176</ele><time>2019-09-27T12:04:08Z</time><name>PT7301</name></trkpt>
<trkpt lat="52.937841" lon="-3.145861"><ele>176</ele><time>2019-09-27T12:04:09Z</time><name>PT7302</name></trkpt>
<trkpt lat="52.937832" lon="-3.145868"><ele>176</ele><time>2019-09-27T12:04:10Z</time><name>PT7303</name></trkpt>
<trkpt lat="52.937821" lon="-3.145877"><ele>176</ele><time>2019-09-27T12:04:11Z</time><name>PT7304</name></trkpt>
<trkpt lat="52.937812" lon="-3.145884"><ele>176</ele><time>2019-09-27T12:04:12Z</time><name>PT7305</name></trkpt>
<trkpt lat="52.937798" lon="-3.145896"><ele>176</ele><time>2019-09-27T12:04:13Z</time><name>PT7306</name></trkpt>
<trkpt lat="52.937790" lon="-3.145903"><ele>176</ele><time>2019-09-27T12:04:14Z</time><name>PT7307</name></trkpt>
<trkpt lat="52.937781" lon="-3.145913"><ele>176</ele><time>2019-09-27T12:04:15Z</time><name>PT7308</name></trkpt>
<trkpt lat="52.937772" lon="-3.145925"><ele>177</ele><time>2019-09-27T12:04:16Z</time><name>PT7309</name></trkpt>
<trkpt lat="52.937758" lon="-3.145942"><ele>176</ele><time>2019-09-27T12:04:17Z</time><name>PT7310</name></trkpt>
<trkpt lat="52.937747" lon="-3.145951"><ele>177</ele><time>2019-09-27T12:04:18Z</time><name>PT7311</name></trkpt>
<trkpt lat="52.937738" lon="-3.145957"><ele>177</ele><time>2019-09-27T12:04:19Z</time><name>PT7312</name></trkpt>
<trkpt lat="52.937732" lon="-3.145967"><ele>176</ele><time>2019-09-27T12:04:20Z</time><name>PT7313</name></trkpt>
<trkpt lat="52.937722" lon="-3.145978"><ele>177</ele><time>2019-09-27T12:04:21Z</time><name>PT7314</name></trkpt>
<trkpt lat="52.937713" lon="-3.145990"><ele>176</ele><time>2019-09-27T12:04:22Z</time><name>PT7315</name></trkpt>
<trkpt lat="52.937704" lon="-3.145993"><ele>176</ele><time>2019-09-27T12:04:23Z</time><name>PT7316</name></trkpt>
<trkpt lat="52.937694" lon="-3.146000"><ele>177</ele><time>2019-09-27T12:04:24Z</time><name>PT7317</name></trkpt>
<trkpt lat="52.937683" lon="-3.146006"><ele>178</ele><time>2019-09-27T12:04:25Z</time><name>PT7318</name></trkpt>
<trkpt lat="52.937671" lon="-3.146015"><ele>178</ele><time>2019-09-27T12:04:26Z</time><name>PT7319</name></trkpt>
<trkpt lat="52.937660" lon="-3.146030"><ele>178</ele><time>2019-09-27T12:04:27Z</time><name>PT7320</name></trkpt>
<trkpt lat="52.937651" lon="-3.146039"><ele>178</ele><time>2019-09-27T12:04:28Z</time><name>PT7321</name></trkpt>
<trkpt lat="52.937642" lon="-3.146048"><ele>179</ele><time>2019-09-27T12:04:29Z</time><name>PT7322</name></trkpt>
<trkpt lat="52.937632" lon="-3.146062"><ele>179</ele><time>2019-09-27T12:04:30Z</time><name>PT7323</name></trkpt>
<trkpt lat="52.937623" lon="-3.146076"><ele>179</ele><time>2019-09-27T12:04:31Z</time><name>PT7324</name></trkpt>
<trkpt lat="52.937616" lon="-3.146089"><ele>180</ele><time>2019-09-27T12:04:32Z</time><name>PT7325</name></trkpt>
<trkpt lat="52.937608" lon="-3.146100"><ele>180</ele><time>2019-09-27T12:04:33Z</time><name>PT7326</name></trkpt>
<trkpt lat="52.937602" lon="-3.146111"><ele>180</ele><time>2019-09-27T12:04:34Z</time><name>PT7327</name></trkpt>
<trkpt lat="52.937599" lon="-3.146123"><ele>181</ele><time>2019-09-27T12:04:35Z</time><name>PT7328</name></trkpt>
<trkpt lat="52.937598" lon="-3.146141"><ele>180</ele><time>2019-09-27T12:04:36Z</time><name>PT7329</name></trkpt>
<trkpt lat="52.937593" lon="-3.146153"><ele>181</ele><time>2019-09-27T12:04:37Z</time><name>PT7330</name></trkpt>
<trkpt lat="52.937588" lon="-3.146166"><ele>181</ele><time>2019-09-27T12:04:38Z</time><name>PT7331</name></trkpt>
<trkpt lat="52.937582" lon="-3.146181"><ele>182</ele><time>2019-09-27T12:04:39Z</time><name>PT7332</name></trkpt>
<trkpt lat="52.937577" lon="-3.146198"><ele>182</ele><time>2019-09-27T12:04:40Z</time><name>PT7333</name></trkpt>
<trkpt lat="52.937572" lon="-3.146207"><ele>182</ele><time>2019-09-27T12:04:41Z</time><name>PT7334</name></trkpt>
<trkpt lat="52.937566" lon="-3.146217"><ele>183</ele><time>2019-09-27T12:04:42Z</time><name>PT7335</name></trkpt>
<trkpt lat="52.937557" lon="-3.146229"><ele>184</ele><time>2019-09-27T12:04:43Z</time><name>PT7336</name></trkpt>
<trkpt lat="52.937551" lon="-3.146241"><ele>184</ele><time>2019-09-27T12:04:44Z</time><name>PT7337</name></trkpt>
<trkpt lat="52.937546" lon="-3.146253"><ele>185</ele><time>2019-09-27T12:04:45Z</time><name>PT7338</name></trkpt>
<trkpt lat="52.937541" lon="-3.146267"><ele>185</ele><time>2019-09-27T12:04:46Z</time><name>PT7339</name></trkpt>
<trkpt lat="52.937538" lon="-3.146277"><ele>185</ele><time>2019-09-27T12:04:47Z</time><name>PT7340</name></trkpt>
<trkpt lat="52.937530" lon="-3.146295"><ele>184</ele><time>2019-09-27T12:04:48Z</time><name>PT7341</name></trkpt>
<trkpt lat="52.937524" lon="-3.146311"><ele>184</ele><time>2019-09-27T12:04:49Z</time><name>PT7342</name></trkpt>
<trkpt lat="52.937520" lon="-3.146324"><ele>185</ele><time>2019-09-27T12:04:50Z</time><name>PT7343</name></trkpt>
<trkpt lat="52.937517" lon="-3.146335"><ele>185</ele><time>2019-09-27T12:04:51Z</time><name>PT7344</name></trkpt>
<trkpt lat="52.937509" lon="-3.146345"><ele>184</ele><time>2019-09-27T12:04:52Z</time><name>PT7345</name></trkpt>
<trkpt lat="52.937506" lon="-3.146362"><ele>186</ele><time>2019-09-27T12:04:53Z</time><name>PT7346</name></trkpt>
<trkpt lat="52.937503" lon="-3.146375"><ele>186</ele><time>2019-09-27T12:04:54Z</time><name>PT7347</name></trkpt>
<trkpt lat="52.937501" lon="-3.146383"><ele>187</ele><time>2019-09-27T12:04:55Z</time><name>PT7348</name></trkpt>
<trkpt lat="52.937498" lon="-3.146397"><ele>187</ele><time>2019-09-27T12:04:56Z</time><name>PT7349</name></trkpt>
<trkpt lat="52.937494" lon="-3.146412"><ele>187</ele><time>2019-09-27T12:04:57Z</time><name>PT7350</name></trkpt>
<trkpt lat="52.937489" lon="-3.146419"><ele>187</ele><time>2019-09-27T12:04:58Z</time><name>PT7351</name></trkpt>
<trkpt lat="52.937480" lon="-3.146433"><ele>187</ele><time>2019-09-27T12:04:59Z</time><name>PT7352</name></trkpt>
<trkpt lat="52.937476" lon="-3.146436"><ele>186</ele><time>2019-09-27T12:05:00Z</time><name>PT7353</name></trkpt>
<trkpt lat="52.937472" lon="-3.146444"><ele>186</ele><time>2019-09-27T12:05:01Z</time><name>PT7354</name></trkpt>
<trkpt lat="52.937466" lon="-3.146460"><ele>185</ele><time>2019-09-27T12:05:02Z</time><name>PT7355</name></trkpt>
<trkpt lat="52.937465" lon="-3.146471"><ele>184</ele><time>2019-09-27T12:05:03Z</time><name>PT7356</name></trkpt>
<trkpt lat="52.937461" lon="-3.146485"><ele>184</ele><time>2019-09-27T12:05:04Z</time><name>PT7357</name></trkpt>
<trkpt lat="52.937458" lon="-3.146497"><ele>184</ele><time>2019-09-27T12:05:05Z</time><name>PT7358</name></trkpt>
<trkpt lat="52.937456" lon="-3.146510"><ele>184</ele><time>2019-09-27T12:05:06Z</time><name>PT7359</name></trkpt>
<trkpt lat="52.937453" lon="-3.146526"><ele>184</ele><time>2019-09-27T12:05:07Z</time><name>PT7360</name></trkpt>
<trkpt lat="52.937450" lon="-3.146541"><ele>183</ele><time>2019-09-27T12:05:08Z</time><name>PT7361</name></trkpt>
<trkpt lat="52.937448" lon="-3.146556"><ele>184</ele><time>2019-09-27T12:05:09Z</time><name>PT7362</name></trkpt>
<trkpt lat="52.937442" lon="-3.146571"><ele>183</ele><time>2019-09-27T12:05:10Z</time><name>PT7363</name></trkpt>
<trkpt lat="52.937436" lon="-3.146585"><ele>184</ele><time>2019-09-27T12:05:11Z</time><name>PT7364</name></trkpt>
<trkpt lat="52.937431" lon="-3.146598"><ele>185</ele><time>2019-09-27T12:05:12Z</time><name>PT7365</name></trkpt>
<trkpt lat="52.937429" lon="-3.146611"><ele>185</ele><time>2019-09-27T12:05:13Z</time><name>PT7366</name></trkpt>
<trkpt lat="52.937431" lon="-3.146618"><ele>186</ele><time>2019-09-27T12:05:14Z</time><name>PT7367</name></trkpt>
<trkpt lat="52.937429" lon="-3.146631"><ele>185</ele><time>2019-09-27T12:05:15Z</time><name>PT7368</name></trkpt>
<trkpt lat="52.937431" lon="-3.146650"><ele>185</ele><time>2019-09-27T12:05:16Z</time><name>PT7369</name></trkpt>
<trkpt lat="52.937429" lon="-3.146666"><ele>186</ele><time>2019-09-27T12:05:17Z</time><name>PT7370</name></trkpt>
<trkpt lat="52.937423" lon="-3.146678"><ele>186</ele><time>2019-09-27T12:05:18Z</time><name>PT7371</name></trkpt>
<trkpt lat="52.937417" lon="-3.146695"><ele>186</ele><time>2019-09-27T12:05:19Z</time><name>PT7372</name></trkpt>
<trkpt lat="52.937410" lon="-3.146712"><ele>186</ele><time>2019-09-27T12:05:20Z</time><name>PT7373</name></trkpt>
<trkpt lat="52.937404" lon="-3.146725"><ele>186</ele><time>2019-09-27T12:05:21Z</time><name>PT7374</name></trkpt>
<trkpt lat="52.937398" lon="-3.146743"><ele>187</ele><time>2019-09-27T12:05:22Z</time><name>PT7375</name></trkpt>
<trkpt lat="52.937394" lon="-3.146755"><ele>186</ele><time>2019-09-27T12:05:23Z</time><name>PT7376</name></trkpt>
<trkpt lat="52.937389" lon="-3.146766"><ele>186</ele><time>2019-09-27T12:05:24Z</time><name>PT7377</name></trkpt>
<trkpt lat="52.937388" lon="-3.146774"><ele>186</ele><time>2019-09-27T12:05:25Z</time><name>PT7378</name></trkpt>
<trkpt lat="52.937386" lon="-3.146781"><ele>187</ele><time>2019-09-27T12:05:26Z</time><name>PT7379</name></trkpt>
<trkpt lat="52.937384" lon="-3.146785"><ele>188</ele><time>2019-09-27T12:05:27Z</time><name>PT7380</name></trkpt>
<trkpt lat="52.937379" lon="-3.146792"><ele>188</ele><time>2019-09-27T12:05:28Z</time><name>PT7381</name></trkpt>
<trkpt lat="52.937372" lon="-3.146794"><ele>188</ele><time>2019-09-27T12:05:29Z</time><name>PT7382</name></trkpt>
<trkpt lat="52.937372" lon="-3.146803"><ele>189</ele><time>2019-09-27T12:05:31Z</time><name>PT7383</name></trkpt>
<trkpt lat="52.937358" lon="-3.146831"><ele>189</ele><time>2019-09-27T12:05:32Z</time><name>PT7384</name></trkpt>
<trkpt lat="52.937350" lon="-3.146847"><ele>189</ele><time>2019-09-27T12:05:33Z</time><name>PT7385</name></trkpt>
<trkpt lat="52.937344" lon="-3.146860"><ele>189</ele><time>2019-09-27T12:05:34Z</time><name>PT7386</name></trkpt>
<trkpt lat="52.937336" lon="-3.146866"><ele>190</ele><time>2019-09-27T12:05:35Z</time><name>PT7387</name></trkpt>
<trkpt lat="52.937331" lon="-3.146881"><ele>190</ele><time>2019-09-27T12:05:36Z</time><name>PT7388</name></trkpt>
<trkpt lat="52.937328" lon="-3.146898"><ele>190</ele><time>2019-09-27T12:05:37Z</time><name>PT7389</name></trkpt>
<trkpt lat="52.937324" lon="-3.146904"><ele>190</ele><time>2019-09-27T12:05:38Z</time><name>PT7390</name></trkpt>
<trkpt lat="52.937321" lon="-3.146914"><ele>189</ele><time>2019-09-27T12:05:39Z</time><name>PT7391</name></trkpt>
<trkpt lat="52.937318" lon="-3.146925"><ele>189</ele><time>2019-09-27T12:05:40Z</time><name>PT7392</name></trkpt>
<trkpt lat="52.937313" lon="-3.146937"><ele>189</ele><time>2019-09-27T12:05:41Z</time><name>PT7393</name></trkpt>
<trkpt lat="52.937308" lon="-3.146953"><ele>189</ele><time>2019-09-27T12:05:42Z</time><name>PT7394</name></trkpt>
<trkpt lat="52.937302" lon="-3.146964"><ele>190</ele><time>2019-09-27T12:05:43Z</time><name>PT7395</name></trkpt>
<trkpt lat="52.937300" lon="-3.146980"><ele>190</ele><time>2019-09-27T12:05:44Z</time><name>PT7396</name></trkpt>
<trkpt lat="52.937297" lon="-3.146991"><ele>190</ele><time>2019-09-27T12:05:45Z</time><name>PT7397</name></trkpt>
<trkpt lat="52.937294" lon="-3.147001"><ele>190</ele><time>2019-09-27T12:05:46Z</time><name>PT7398</name></trkpt>
<trkpt lat="52.937291" lon="-3.147012"><ele>190</ele><time>2019-09-27T12:05:47Z</time><name>PT7399</name></trkpt>
<trkpt lat="52.937289" lon="-3.147022"><ele>190</ele><time>2019-09-27T12:05:48Z</time><name>PT7400</name></trkpt>
<trkpt lat="52.937285" lon="-3.147028"><ele>191</ele><time>2019-09-27T12:05:49Z</time><name>PT7401</name></trkpt>
<trkpt lat="52.937279" lon="-3.147037"><ele>190</ele><time>2019-09-27T12:05:50Z</time><name>PT7402</name></trkpt>
<trkpt lat="52.937274" lon="-3.147045"><ele>191</ele><time>2019-09-27T12:05:51Z</time><name>PT7403</name></trkpt>
<trkpt lat="52.937270" lon="-3.147055"><ele>191</ele><time>2019-09-27T12:05:52Z</time><name>PT7404</name></trkpt>
<trkpt lat="52.937265" lon="-3.147064"><ele>192</ele><time>2019-09-27T12:05:53Z</time><name>PT7405</name></trkpt>
<trkpt lat="52.937258" lon="-3.147075"><ele>192</ele><time>2019-09-27T12:05:54Z</time><name>PT7406</name></trkpt>
<trkpt lat="52.937253" lon="-3.147084"><ele>192</ele><time>2019-09-27T12:05:55Z</time><name>PT7407</name></trkpt>
<trkpt lat="52.937249" lon="-3.147091"><ele>192</ele><time>2019-09-27T12:05:56Z</time><name>PT7408</name></trkpt>
<trkpt lat="52.937245" lon="-3.147099"><ele>192</ele><time>2019-09-27T12:05:57Z</time><name>PT7409</name></trkpt>
<trkpt lat="52.937238" lon="-3.147114"><ele>192</ele><time>2019-09-27T12:05:58Z</time><name>PT7410</name></trkpt>
<trkpt lat="52.937234" lon="-3.147125"><ele>192</ele><time>2019-09-27T12:05:59Z</time><name>PT7411</name></trkpt>
<trkpt lat="52.937231" lon="-3.147137"><ele>192</ele><time>2019-09-27T12:06:00Z</time><name>PT7412</name></trkpt>
<trkpt lat="52.937226" lon="-3.147150"><ele>191</ele><time>2019-09-27T12:06:01Z</time><name>PT7413</name></trkpt>
<trkpt lat="52.937223" lon="-3.147166"><ele>191</ele><time>2019-09-27T12:06:02Z</time><name>PT7414</name></trkpt>
<trkpt lat="52.937219" lon="-3.147172"><ele>191</ele><time>2019-09-27T12:06:03Z</time><name>PT7415</name></trkpt>
<trkpt lat="52.937217" lon="-3.147185"><ele>191</ele><time>2019-09-27T12:06:04Z</time><name>PT7416</name></trkpt>
<trkpt lat="52.937215" lon="-3.147193"><ele>191</ele><time>2019-09-27T12:06:05Z</time><name>PT7417</name></trkpt>
<trkpt lat="52.937219" lon="-3.147210"><ele>192</ele><time>2019-09-27T12:06:06Z</time><name>PT7418</name></trkpt>
<trkpt lat="52.937218" lon="-3.147223"><ele>193</ele><time>2019-09-27T12:06:07Z</time><name>PT7419</name></trkpt>
<trkpt lat="52.937221" lon="-3.147245"><ele>193</ele><time>2019-09-27T12:06:08Z</time><name>PT7420</name></trkpt>
<trkpt lat="52.937210" lon="-3.147259"><ele>194</ele><time>2019-09-27T12:06:09Z</time><name>PT7421</name></trkpt>
<trkpt lat="52.937205" lon="-3.147267"><ele>195</ele><time>2019-09-27T12:06:10Z</time><name>PT7422</name></trkpt>
<trkpt lat="52.937200" lon="-3.147277"><ele>195</ele><time>2019-09-27T12:06:11Z</time><name>PT7423</name></trkpt>
<trkpt lat="52.937194" lon="-3.147287"><ele>196</ele><time>2019-09-27T12:06:12Z</time><name>PT7424</name></trkpt>
<trkpt lat="52.937186" lon="-3.147301"><ele>196</ele><time>2019-09-27T12:06:13Z</time><name>PT7425</name></trkpt>
<trkpt lat="52.937179" lon="-3.147311"><ele>197</ele><time>2019-09-27T12:06:14Z</time><name>PT7426</name></trkpt>
<trkpt lat="52.937172" lon="-3.147321"><ele>198</ele><time>2019-09-27T12:06:15Z</time><name>PT7427</name></trkpt>
<trkpt lat="52.937166" lon="-3.147330"><ele>198</ele><time>2019-09-27T12:06:16Z</time><name>PT7428</name></trkpt>
<trkpt lat="52.937163" lon="-3.147342"><ele>198</ele><time>2019-09-27T12:06:17Z</time><name>PT7429</name></trkpt>
<trkpt lat="52.937158" lon="-3.147351"><ele>199</ele><time>2019-09-27T12:06:18Z</time><name>PT7430</name></trkpt>
<trkpt lat="52.937153" lon="-3.147358"><ele>199</ele><time>2019-09-27T12:06:19Z</time><name>PT7431</name></trkpt>
<trkpt lat="52.937149" lon="-3.147370"><ele>199</ele><time>2019-09-27T12:06:20Z</time><name>PT7432</name></trkpt>
<trkpt lat="52.937144" lon="-3.147374"><ele>200</ele><time>2019-09-27T12:06:21Z</time><name>PT7433</name></trkpt>
<trkpt lat="52.937139" lon="-3.147388"><ele>200</ele><time>2019-09-27T12:06:22Z</time><name>PT7434</name></trkpt>
<trkpt lat="52.937132" lon="-3.147395"><ele>200</ele><time>2019-09-27T12:06:23Z</time><name>PT7435</name></trkpt>
<trkpt lat="52.937129" lon="-3.147409"><ele>200</ele><time>2019-09-27T12:06:24Z</time><name>PT7436</name></trkpt>
<trkpt lat="52.937126" lon="-3.147419"><ele>200</ele><time>2019-09-27T12:06:25Z</time><name>PT7437</name></trkpt>
<trkpt lat="52.937122" lon="-3.147428"><ele>200</ele><time>2019-09-27T12:06:26Z</time><name>PT7438</name></trkpt>
<trkpt lat="52.937115" lon="-3.147440"><ele>201</ele><time>2019-09-27T12:06:27Z</time><name>PT7439</name></trkpt>
<trkpt lat="52.937109" lon="-3.147452"><ele>201</ele><time>2019-09-27T12:06:28Z</time><name>PT7440</name></trkpt>
<trkpt lat="52.937106" lon="-3.147459"><ele>201</ele><time>2019-09-27T12:06:29Z</time><name>PT7441</name></trkpt>
<trkpt lat="52.937100" lon="-3.147471"><ele>201</ele><time>2019-09-27T12:06:30Z</time><name>PT7442</name></trkpt>
<trkpt lat="52.937096" lon="-3.147481"><ele>202</ele><time>2019-09-27T12:06:31Z</time><name>PT7443</name></trkpt>
<trkpt lat="52.937093" lon="-3.147490"><ele>202</ele><time>2019-09-27T12:06:32Z</time><name>PT7444</name></trkpt>
<trkpt lat="52.937088" lon="-3.147496"><ele>202</ele><time>2019-09-27T12:06:33Z</time><name>PT7445</name></trkpt>
<trkpt lat="52.937083" lon="-3.147505"><ele>202</ele><time>2019-09-27T12:06:34Z</time><name>PT7446</name></trkpt>
<trkpt lat="52.937080" lon="-3.147515"><ele>202</ele><time>2019-09-27T12:06:35Z</time><name>PT7447</name></trkpt>
<trkpt lat="52.937077" lon="-3.147527"><ele>202</ele><time>2019-09-27T12:06:36Z</time><name>PT7448</name></trkpt>
<trkpt lat="52.937073" lon="-3.147535"><ele>202</ele><time>2019-09-27T12:06:37Z</time><name>PT7449</name></trkpt>
<trkpt lat="52.937069" lon="-3.147547"><ele>202</ele><time>2019-09-27T12:06:38Z</time><name>PT7450</name></trkpt>
<trkpt lat="52.937064" lon="-3.147559"><ele>203</ele><time>2019-09-27T12:06:39Z</time><name>PT7451</name></trkpt>
<trkpt lat="52.937060" lon="-3.147567"><ele>203</ele><time>2019-09-27T12:06:40Z</time><name>PT7452</name></trkpt>
<trkpt lat="52.937057" lon="-3.147577"><ele>203</ele><time>2019-09-27T12:06:41Z</time><name>PT7453</name></trkpt>
<trkpt lat="52.937052" lon="-3.147585"><ele>203</ele><time>2019-09-27T12:06:42Z</time><name>PT7454</name></trkpt>
<trkpt lat="52.937048" lon="-3.147597"><ele>203</ele><time>2019-09-27T12:06:43Z</time><name>PT7455</name></trkpt>
<trkpt lat="52.937042" lon="-3.147607"><ele>203</ele><time>2019-09-27T12:06:44Z</time><name>PT7456</name></trkpt>
<trkpt lat="52.937039" lon="-3.147619"><ele>203</ele><time>2019-09-27T12:06:45Z</time><name>PT7457</name></trkpt>
<trkpt lat="52.937034" lon="-3.147623"><ele>203</ele><time>2019-09-27T12:06:46Z</time><name>PT7458</name></trkpt>
<trkpt lat="52.937029" lon="-3.147628"><ele>204</ele><time>2019-09-27T12:06:47Z</time><name>PT7459</name></trkpt>
<trkpt lat="52.937025" lon="-3.147635"><ele>205</ele><time>2019-09-27T12:06:48Z</time><name>PT7460</name></trkpt>
<trkpt lat="52.937024" lon="-3.147646"><ele>205</ele><time>2019-09-27T12:06:49Z</time><name>PT7461</name></trkpt>
<trkpt lat="52.937019" lon="-3.147654"><ele>205</ele><time>2019-09-27T12:06:50Z</time><name>PT7462</name></trkpt>
<trkpt lat="52.937019" lon="-3.147661"><ele>206</ele><time>2019-09-27T12:06:51Z</time><name>PT7463</name></trkpt>
<trkpt lat="52.937016" lon="-3.147668"><ele>206</ele><time>2019-09-27T12:06:52Z</time><name>PT7464</name></trkpt>
<trkpt lat="52.937012" lon="-3.147681"><ele>206</ele><time>2019-09-27T12:06:53Z</time><name>PT7465</name></trkpt>
<trkpt lat="52.937006" lon="-3.147692"><ele>206</ele><time>2019-09-27T12:06:54Z</time><name>PT7466</name></trkpt>
<trkpt lat="52.936998" lon="-3.147703"><ele>206</ele><time>2019-09-27T12:06:55Z</time><name>PT7467</name></trkpt>
<trkpt lat="52.936991" lon="-3.147712"><ele>206</ele><time>2019-09-27T12:06:56Z</time><name>PT7468</name></trkpt>
<trkpt lat="52.936985" lon="-3.147731"><ele>207</ele><time>2019-09-27T12:06:57Z</time><name>PT7469</name></trkpt>
<trkpt lat="52.936978" lon="-3.147740"><ele>207</ele><time>2019-09-27T12:06:58Z</time><name>PT7470</name></trkpt>
<trkpt lat="52.936973" lon="-3.147750"><ele>207</ele><time>2019-09-27T12:06:59Z</time><name>PT7471</name></trkpt>
<trkpt lat="52.936969" lon="-3.147761"><ele>207</ele><time>2019-09-27T12:07:00Z</time><name>PT7472</name></trkpt>
<trkpt lat="52.936965" lon="-3.147772"><ele>207</ele><time>2019-09-27T12:07:01Z</time><name>PT7473</name></trkpt>
<trkpt lat="52.936962" lon="-3.147784"><ele>207</ele><time>2019-09-27T12:07:02Z</time><name>PT7474</name></trkpt>
<trkpt lat="52.936957" lon="-3.147794"><ele>208</ele><time>2019-09-27T12:07:03Z</time><name>PT7475</name></trkpt>
<trkpt lat="52.936952" lon="-3.147802"><ele>208</ele><time>2019-09-27T12:07:04Z</time><name>PT7476</name></trkpt>
<trkpt lat="52.936947" lon="-3.147814"><ele>208</ele><time>2019-09-27T12:07:05Z</time><name>PT7477</name></trkpt>
<trkpt lat="52.936940" lon="-3.147827"><ele>208</ele><time>2019-09-27T12:07:06Z</time><name>PT7478</name></trkpt>
<trkpt lat="52.936934" lon="-3.147835"><ele>208</ele><time>2019-09-27T12:07:07Z</time><name>PT7479</name></trkpt>
<trkpt lat="52.936932" lon="-3.147843"><ele>208</ele><time>2019-09-27T12:07:08Z</time><name>PT7480</name></trkpt>
<trkpt lat="52.936927" lon="-3.147855"><ele>208</ele><time>2019-09-27T12:07:09Z</time><name>PT7481</name></trkpt>
<trkpt lat="52.936926" lon="-3.147858"><ele>208</ele><time>2019-09-27T12:07:10Z</time><name>PT7482</name></trkpt>
<trkpt lat="52.936921" lon="-3.147865"><ele>209</ele><time>2019-09-27T12:07:11Z</time><name>PT7483</name></trkpt>
<trkpt lat="52.936917" lon="-3.147869"><ele>209</ele><time>2019-09-27T12:07:12Z</time><name>PT7484</name></trkpt>
<trkpt lat="52.936912" lon="-3.147878"><ele>209</ele><time>2019-09-27T12:07:13Z</time><name>PT7485</name></trkpt>
<trkpt lat="52.936909" lon="-3.147886"><ele>209</ele><time>2019-09-27T12:07:14Z</time><name>PT7486</name></trkpt>
<trkpt lat="52.936905" lon="-3.147898"><ele>209</ele><time>2019-09-27T12:07:15Z</time><name>PT7487</name></trkpt>
<trkpt lat="52.936898" lon="-3.147908"><ele>209</ele><time>2019-09-27T12:07:16Z</time><name>PT7488</name></trkpt>
<trkpt lat="52.936894" lon="-3.147916"><ele>210</ele><time>2019-09-27T12:07:17Z</time><name>PT7489</name></trkpt>
<trkpt lat="52.936890" lon="-3.147926"><ele>210</ele><time>2019-09-27T12:07:18Z</time><name>PT7490</name></trkpt>
<trkpt lat="52.936882" lon="-3.147931"><ele>210</ele><time>2019-09-27T12:07:19Z</time><name>PT7491</name></trkpt>
<trkpt lat="52.936875" lon="-3.147943"><ele>210</ele><time>2019-09-27T12:07:20Z</time><name>PT7492</name></trkpt>
<trkpt lat="52.936871" lon="-3.147951"><ele>211</ele><time>2019-09-27T12:07:21Z</time><name>PT7493</name></trkpt>
<trkpt lat="52.936866" lon="-3.147965"><ele>211</ele><time>2019-09-27T12:07:22Z</time><name>PT7494</name></trkpt>
<trkpt lat="52.936861" lon="-3.147972"><ele>211</ele><time>2019-09-27T12:07:23Z</time><name>PT7495</name></trkpt>
<trkpt lat="52.936853" lon="-3.147987"><ele>212</ele><time>2019-09-27T12:07:24Z</time><name>PT7496</name></trkpt>
<trkpt lat="52.936848" lon="-3.147997"><ele>212</ele><time>2019-09-27T12:07:25Z</time><name>PT7497</name></trkpt>
<trkpt lat="52.936846" lon="-3.148008"><ele>212</ele><time>2019-09-27T12:07:26Z</time><name>PT7498</name></trkpt>
<trkpt lat="52.936840" lon="-3.148019"><ele>211</ele><time>2019-09-27T12:07:27Z</time><name>PT7499</name></trkpt>
<trkpt lat="52.936839" lon="-3.148031"><ele>212</ele><time>2019-09-27T12:07:28Z</time><name>PT7500</name></trkpt>
<trkpt lat="52.936835" lon="-3.148042"><ele>212</ele><time>2019-09-27T12:07:29Z</time><name>PT7501</name></trkpt>
<trkpt lat="52.936835" lon="-3.148045"><ele>212</ele><time>2019-09-27T12:07:30Z</time><name>PT7502</name></trkpt>
<trkpt lat="52.936831" lon="-3.148052"><ele>213</ele><time>2019-09-27T12:07:31Z</time><name>PT7503</name></trkpt>
<trkpt lat="52.936827" lon="-3.148064"><ele>212</ele><time>2019-09-27T12:07:32Z</time><name>PT7504</name></trkpt>
<trkpt lat="52.936825" lon="-3.148073"><ele>213</ele><time>2019-09-27T12:07:33Z</time><name>PT7505</name></trkpt>
<trkpt lat="52.936820" lon="-3.148089"><ele>213</ele><time>2019-09-27T12:07:34Z</time><name>PT7506</name></trkpt>
<trkpt lat="52.936817" lon="-3.148097"><ele>213</ele><time>2019-09-27T12:07:35Z</time><name>PT7507</name></trkpt>
<trkpt lat="52.936811" lon="-3.148118"><ele>213</ele><time>2019-09-27T12:07:36Z</time><name>PT7508</name></trkpt>
<trkpt lat="52.936805" lon="-3.148132"><ele>213</ele><time>2019-09-27T12:07:37Z</time><name>PT7509</name></trkpt>
<trkpt lat="52.936804" lon="-3.148145"><ele>212</ele><time>2019-09-27T12:07:38Z</time><name>PT7510</name></trkpt>
<trkpt lat="52.936798" lon="-3.148159"><ele>213</ele><time>2019-09-27T12:07:39Z</time><name>PT7511</name></trkpt>
<trkpt lat="52.936790" lon="-3.148175"><ele>214</ele><time>2019-09-27T12:07:40Z</time><name>PT7512</name></trkpt>
<trkpt lat="52.936783" lon="-3.148187"><ele>214</ele><time>2019-09-27T12:07:41Z</time><name>PT7513</name></trkpt>
<trkpt lat="52.936782" lon="-3.148194"><ele>215</ele><time>2019-09-27T12:07:42Z</time><name>PT7514</name></trkpt>
<trkpt lat="52.936779" lon="-3.148199"><ele>215</ele><time>2019-09-27T12:07:43Z</time><name>PT7515</name></trkpt>
<trkpt lat="52.936777" lon="-3.148208"><ele>215</ele><time>2019-09-27T12:07:44Z</time><name>PT7516</name></trkpt>
<trkpt lat="52.936776" lon="-3.148217"><ele>215</ele><time>2019-09-27T12:07:45Z</time><name>PT7517</name></trkpt>
<trkpt lat="52.936770" lon="-3.148236"><ele>214</ele><time>2019-09-27T12:07:46Z</time><name>PT7518</name></trkpt>
<trkpt lat="52.936765" lon="-3.148252"><ele>215</ele><time>2019-09-27T12:07:47Z</time><name>PT7519</name></trkpt>
<trkpt lat="52.936761" lon="-3.148265"><ele>215</ele><time>2019-09-27T12:07:48Z</time><name>PT7520</name></trkpt>
<trkpt lat="52.936756" lon="-3.148276"><ele>215</ele><time>2019-09-27T12:07:49Z</time><name>PT7521</name></trkpt>
<trkpt lat="52.936750" lon="-3.148292"><ele>215</ele><time>2019-09-27T12:07:50Z</time><name>PT7522</name></trkpt>
<trkpt lat="52.936743" lon="-3.148306"><ele>216</ele><time>2019-09-27T12:07:51Z</time><name>PT7523</name></trkpt>
<trkpt lat="52.936741" lon="-3.148309"><ele>216</ele><time>2019-09-27T12:07:52Z</time><name>PT7524</name></trkpt>
<trkpt lat="52.936738" lon="-3.148325"><ele>216</ele><time>2019-09-27T12:07:53Z</time><name>PT7525</name></trkpt>
<trkpt lat="52.936734" lon="-3.148344"><ele>216</ele><time>2019-09-27T12:07:54Z</time><name>PT7526</name></trkpt>
<trkpt lat="52.936731" lon="-3.148356"><ele>216</ele><time>2019-09-27T12:07:55Z</time><name>PT7527</name></trkpt>
<trkpt lat="52.936727" lon="-3.148366"><ele>216</ele><time>2019-09-27T12:07:56Z</time><name>PT7528</name></trkpt>
<trkpt lat="52.936723" lon="-3.148376"><ele>216</ele><time>2019-09-27T12:07:57Z</time><name>PT7529</name></trkpt>
<trkpt lat="52.936719" lon="-3.148384"><ele>217</ele><time>2019-09-27T12:07:58Z</time><name>PT7530</name></trkpt>
<trkpt lat="52.936715" lon="-3.148392"><ele>216</ele><time>2019-09-27T12:07:59Z</time><name>PT7531</name></trkpt>
<trkpt lat="52.936712" lon="-3.148403"><ele>216</ele><time>2019-09-27T12:08:00Z</time><name>PT7532</name></trkpt>
<trkpt lat="52.936709" lon="-3.148415"><ele>216</ele><time>2019-09-27T12:08:01Z</time><name>PT7533</name></trkpt>
<trkpt lat="52.936700" lon="-3.148430"><ele>216</ele><time>2019-09-27T12:08:02Z</time><name>PT7534</name></trkpt>
<trkpt lat="52.936692" lon="-3.148439"><ele>217</ele><time>2019-09-27T12:08:03Z</time><name>PT7535</name></trkpt>
<trkpt lat="52.936688" lon="-3.148452"><ele>217</ele><time>2019-09-27T12:08:04Z</time><name>PT7536</name></trkpt>
<trkpt lat="52.936683" lon="-3.148465"><ele>218</ele><time>2019-09-27T12:08:05Z</time><name>PT7537</name></trkpt>
<trkpt lat="52.936679" lon="-3.148475"><ele>218</ele><time>2019-09-27T12:08:06Z</time><name>PT7538</name></trkpt>
<trkpt lat="52.936678" lon="-3.148480"><ele>219</ele><time>2019-09-27T12:08:07Z</time><name>PT7539</name></trkpt>
<trkpt lat="52.936680" lon="-3.148486"><ele>217</ele><time>2019-09-27T12:08:08Z</time><name>PT7540</name></trkpt>
<trkpt lat="52.936672" lon="-3.148501"><ele>219</ele><time>2019-09-27T12:09:09Z</time><name>PT7541</name></trkpt>
<trkpt lat="52.936670" lon="-3.148505"><ele>219</ele><time>2019-09-27T12:09:10Z</time><name>PT7542</name></trkpt>
<trkpt lat="52.936670" lon="-3.148506"><ele>219</ele><time>2019-09-27T12:09:11Z</time><name>PT7543</name></trkpt>
<trkpt lat="52.936661" lon="-3.148512"><ele>218</ele><time>2019-09-27T12:09:12Z</time><name>PT7544</name></trkpt>
<trkpt lat="52.936658" lon="-3.148514"><ele>218</ele><time>2019-09-27T12:09:13Z</time><name>PT7545</name></trkpt>
<trkpt lat="52.936657" lon="-3.148515"><ele>218</ele><time>2019-09-27T12:09:34Z</time><name>PT7546</name></trkpt>
<trkpt lat="52.936658" lon="-3.148514"><ele>219</ele><time>2019-09-27T12:09:35Z</time><name>PT7547</name></trkpt>
<trkpt lat="52.936662" lon="-3.148498"><ele>219</ele><time>2019-09-27T12:09:36Z</time><name>PT7548</name></trkpt>
<trkpt lat="52.936659" lon="-3.148507"><ele>219</ele><time>2019-09-27T12:09:51Z</time><name>PT7549</name></trkpt>
<trkpt lat="52.936660" lon="-3.148506"><ele>219</ele><time>2019-09-27T12:09:52Z</time><name>PT7550</name></trkpt>
<trkpt lat="52.936658" lon="-3.148512"><ele>220</ele><time>2019-09-27T12:10:14Z</time><name>PT7551</name></trkpt>
<trkpt lat="52.936655" lon="-3.148517"><ele>220</ele><time>2019-09-27T12:10:15Z</time><name>PT7552</name></trkpt>
<trkpt lat="52.936659" lon="-3.148523"><ele>221</ele><time>2019-09-27T12:10:16Z</time><name>PT7553</name></trkpt>
<trkpt lat="52.936658" lon="-3.148527"><ele>221</ele><time>2019-09-27T12:10:17Z</time><name>PT7554</name></trkpt>
<trkpt lat="52.936660" lon="-3.148528"><ele>221</ele><time>2019-09-27T12:10:18Z</time><name>PT7555</name></trkpt>
<trkpt lat="52.936659" lon="-3.148529"><ele>221</ele><time>2019-09-27T12:10:19Z</time><name>PT7556</name></trkpt>
<trkpt lat="52.936659" lon="-3.148531"><ele>221</ele><time>2019-09-27T12:10:30Z</time><name>PT7557</name></trkpt>
<trkpt lat="52.936659" lon="-3.148528"><ele>221</ele><time>2019-09-27T12:10:31Z</time><name>PT7558</name></trkpt>
<trkpt lat="52.936659" lon="-3.148532"><ele>221</ele><time>2019-09-27T12:10:32Z</time><name>PT7559</name></trkpt>
<trkpt lat="52.936657" lon="-3.148532"><ele>221</ele><time>2019-09-27T12:10:33Z</time><name>PT7560</name></trkpt>
<trkpt lat="52.936660" lon="-3.148525"><ele>221</ele><time>2019-09-27T12:10:51Z</time><name>PT7561</name></trkpt>
<trkpt lat="52.936666" lon="-3.148529"><ele>221</ele><time>2019-09-27T12:10:52Z</time><name>PT7562</name></trkpt>
<trkpt lat="52.936674" lon="-3.148533"><ele>221</ele><time>2019-09-27T12:10:53Z</time><name>PT7563</name></trkpt>
<trkpt lat="52.936678" lon="-3.148534"><ele>221</ele><time>2019-09-27T12:10:54Z</time><name>PT7564</name></trkpt>
<trkpt lat="52.936681" lon="-3.148532"><ele>221</ele><time>2019-09-27T12:10:55Z</time><name>PT7565</name></trkpt>
<trkpt lat="52.936690" lon="-3.148533"><ele>221</ele><time>2019-09-27T12:10:56Z</time><name>PT7566</name></trkpt>
<trkpt lat="52.936697" lon="-3.148536"><ele>221</ele><time>2019-09-27T12:10:57Z</time><name>PT7567</name></trkpt>
<trkpt lat="52.936708" lon="-3.148538"><ele>221</ele><time>2019-09-27T12:10:58Z</time><name>PT7568</name></trkpt>
<trkpt lat="52.936711" lon="-3.148537"><ele>220</ele><time>2019-09-27T12:10:59Z</time><name>PT7569</name></trkpt>
<trkpt lat="52.936716" lon="-3.148541"><ele>221</ele><time>2019-09-27T12:11:00Z</time><name>PT7570</name></trkpt>
<trkpt lat="52.936723" lon="-3.148550"><ele>223</ele><time>2019-09-27T12:11:01Z</time><name>PT7571</name></trkpt>
<trkpt lat="52.936724" lon="-3.148548"><ele>223</ele><time>2019-09-27T12:11:02Z</time><name>PT7572</name></trkpt>
<trkpt lat="52.936730" lon="-3.148540"><ele>223</ele><time>2019-09-27T12:11:03Z</time><name>PT7573</name></trkpt>
<trkpt lat="52.936733" lon="-3.148543"><ele>222</ele><time>2019-09-27T12:11:04Z</time><name>PT7574</name></trkpt>
<trkpt lat="52.936737" lon="-3.148546"><ele>222</ele><time>2019-09-27T12:11:05Z</time><name>PT7575</name></trkpt>
<trkpt lat="52.936745" lon="-3.148551"><ele>222</ele><time>2019-09-27T12:11:06Z</time><name>PT7576</name></trkpt>
<trkpt lat="52.936751" lon="-3.148551"><ele>222</ele><time>2019-09-27T12:11:07Z</time><name>PT7577</name></trkpt>
<trkpt lat="52.936754" lon="-3.148553"><ele>222</ele><time>2019-09-27T12:11:08Z</time><name>PT7578</name></trkpt>
<trkpt lat="52.936759" lon="-3.148556"><ele>222</ele><time>2019-09-27T12:11:09Z</time><name>PT7579</name></trkpt>
<trkpt lat="52.936758" lon="-3.148554"><ele>222</ele><time>2019-09-27T12:11:10Z</time><name>PT7580</name></trkpt>
<trkpt lat="52.936763" lon="-3.148551"><ele>223</ele><time>2019-09-27T12:11:11Z</time><name>PT7581</name></trkpt>
<trkpt lat="52.936769" lon="-3.148549"><ele>223</ele><time>2019-09-27T12:11:12Z</time><name>PT7582</name></trkpt>
<trkpt lat="52.936772" lon="-3.148549"><ele>222</ele><time>2019-09-27T12:11:13Z</time><name>PT7583</name></trkpt>
<trkpt lat="52.936775" lon="-3.148549"><ele>222</ele><time>2019-09-27T12:11:14Z</time><name>PT7584</name></trkpt>
<trkpt lat="52.936779" lon="-3.148550"><ele>222</ele><time>2019-09-27T12:11:15Z</time><name>PT7585</name></trkpt>
<trkpt lat="52.936783" lon="-3.148548"><ele>222</ele><time>2019-09-27T12:11:16Z</time><name>PT7586</name></trkpt>
<trkpt lat="52.936788" lon="-3.148549"><ele>221</ele><time>2019-09-27T12:11:17Z</time><name>PT7587</name></trkpt>
<trkpt lat="52.936796" lon="-3.148548"><ele>221</ele><time>2019-09-27T12:11:18Z</time><name>PT7588</name></trkpt>
<trkpt lat="52.936802" lon="-3.148549"><ele>222</ele><time>2019-09-27T12:11:19Z</time><name>PT7589</name></trkpt>
<trkpt lat="52.936807" lon="-3.148550"><ele>222</ele><time>2019-09-27T12:11:20Z</time><name>PT7590</name></trkpt>
<trkpt lat="52.936811" lon="-3.148553"><ele>222</ele><time>2019-09-27T12:11:21Z</time><name>PT7591</name></trkpt>
<trkpt lat="52.936818" lon="-3.148557"><ele>222</ele><time>2019-09-27T12:11:22Z</time><name>PT7592</name></trkpt>
<trkpt lat="52.936822" lon="-3.148562"><ele>221</ele><time>2019-09-27T12:11:23Z</time><name>PT7593</name></trkpt>
<trkpt lat="52.936823" lon="-3.148563"><ele>221</ele><time>2019-09-27T12:11:26Z</time><name>PT7594</name></trkpt>
<trkpt lat="52.936835" lon="-3.148563"><ele>222</ele><time>2019-09-27T12:11:27Z</time><name>PT7595</name></trkpt>
<trkpt lat="52.936841" lon="-3.148563"><ele>222</ele><time>2019-09-27T12:11:28Z</time><name>PT7596</name></trkpt>
<trkpt lat="52.936852" lon="-3.148572"><ele>223</ele><time>2019-09-27T12:11:29Z</time><name>PT7597</name></trkpt>
<trkpt lat="52.936859" lon="-3.148573"><ele>223</ele><time>2019-09-27T12:11:32Z</time><name>PT7598</name></trkpt>
<trkpt lat="52.936867" lon="-3.148587"><ele>222</ele><time>2019-09-27T12:11:33Z</time><name>PT7599</name></trkpt>
<trkpt lat="52.936878" lon="-3.148585"><ele>222</ele><time>2019-09-27T12:11:34Z</time><name>PT7600</name></trkpt>
<trkpt lat="52.936885" lon="-3.148588"><ele>222</ele><time>2019-09-27T12:11:35Z</time><name>PT7601</name></trkpt>
<trkpt lat="52.936892" lon="-3.148590"><ele>222</ele><time>2019-09-27T12:11:36Z</time><name>PT7602</name></trkpt>
<trkpt lat="52.936901" lon="-3.148587"><ele>222</ele><time>2019-09-27T12:11:37Z</time><name>PT7603</name></trkpt>
<trkpt lat="52.936911" lon="-3.148581"><ele>222</ele><time>2019-09-27T12:11:38Z</time><name>PT7604</name></trkpt>
<trkpt lat="52.936919" lon="-3.148578"><ele>221</ele><time>2019-09-27T12:11:39Z</time><name>PT7605</name></trkpt>
<trkpt lat="52.936927" lon="-3.148579"><ele>221</ele><time>2019-09-27T12:11:40Z</time><name>PT7606</name></trkpt>
<trkpt lat="52.936932" lon="-3.148580"><ele>220</ele><time>2019-09-27T12:11:41Z</time><name>PT7607</name></trkpt>
<trkpt lat="52.936938" lon="-3.148579"><ele>220</ele><time>2019-09-27T12:11:42Z</time><name>PT7608</name></trkpt>
<trkpt lat="52.936947" lon="-3.148581"><ele>220</ele><time>2019-09-27T12:11:43Z</time><name>PT7609</name></trkpt>
<trkpt lat="52.936953" lon="-3.148581"><ele>220</ele><time>2019-09-27T12:11:44Z</time><name>PT7610</name></trkpt>
<trkpt lat="52.936960" lon="-3.148580"><ele>221</ele><time>2019-09-27T12:11:45Z</time><name>PT7611</name></trkpt>
<trkpt lat="52.936964" lon="-3.148578"><ele>221</ele><time>2019-09-27T12:11:46Z</time><name>PT7612</name></trkpt>
<trkpt lat="52.936969" lon="-3.148575"><ele>221</ele><time>2019-09-27T12:11:47Z</time><name>PT7613</name></trkpt>
<trkpt lat="52.936975" lon="-3.148575"><ele>221</ele><time>2019-09-27T12:11:48Z</time><name>PT7614</name></trkpt>
<trkpt lat="52.936986" lon="-3.148574"><ele>220</ele><time>2019-09-27T12:11:49Z</time><name>PT7615</name></trkpt>
<trkpt lat="52.936993" lon="-3.148574"><ele>220</ele><time>2019-09-27T12:11:50Z</time><name>PT7616</name></trkpt>
<trkpt lat="52.937000" lon="-3.148575"><ele>220</ele><time>2019-09-27T12:11:51Z</time><name>PT7617</name></trkpt>
<trkpt lat="52.937009" lon="-3.148576"><ele>219</ele><time>2019-09-27T12:11:52Z</time><name>PT7618</name></trkpt>
<trkpt lat="52.937014" lon="-3.148578"><ele>219</ele><time>2019-09-27T12:11:53Z</time><name>PT7619</name></trkpt>
<trkpt lat="52.937020" lon="-3.148583"><ele>219</ele><time>2019-09-27T12:11:54Z</time><name>PT7620</name></trkpt>
<trkpt lat="52.937027" lon="-3.148591"><ele>219</ele><time>2019-09-27T12:11:55Z</time><name>PT7621</name></trkpt>
<trkpt lat="52.937034" lon="-3.148594"><ele>219</ele><time>2019-09-27T12:11:56Z</time><name>PT7622</name></trkpt>
<trkpt lat="52.937040" lon="-3.148595"><ele>218</ele><time>2019-09-27T12:11:57Z</time><name>PT7623</name></trkpt>
<trkpt lat="52.937045" lon="-3.148594"><ele>218</ele><time>2019-09-27T12:11:58Z</time><name>PT7624</name></trkpt>
<trkpt lat="52.937050" lon="-3.148596"><ele>219</ele><time>2019-09-27T12:11:59Z</time><name>PT7625</name></trkpt>
<trkpt lat="52.937055" lon="-3.148596"><ele>220</ele><time>2019-09-27T12:12:00Z</time><name>PT7626</name></trkpt>
<trkpt lat="52.937059" lon="-3.148597"><ele>220</ele><time>2019-09-27T12:12:01Z</time><name>PT7627</name></trkpt>
<trkpt lat="52.937060" lon="-3.148602"><ele>219</ele><time>2019-09-27T12:12:02Z</time><name>PT7628</name></trkpt>
<trkpt lat="52.937065" lon="-3.148603"><ele>219</ele><time>2019-09-27T12:12:03Z</time><name>PT7629</name></trkpt>
<trkpt lat="52.937070" lon="-3.148600"><ele>219</ele><time>2019-09-27T12:12:04Z</time><name>PT7630</name></trkpt>
<trkpt lat="52.937076" lon="-3.148601"><ele>219</ele><time>2019-09-27T12:12:05Z</time><name>PT7631</name></trkpt>
<trkpt lat="52.937081" lon="-3.148606"><ele>218</ele><time>2019-09-27T12:12:06Z</time><name>PT7632</name></trkpt>
<trkpt lat="52.937087" lon="-3.148612"><ele>219</ele><time>2019-09-27T12:12:07Z</time><name>PT7633</name></trkpt>
<trkpt lat="52.937096" lon="-3.148616"><ele>219</ele><time>2019-09-27T12:12:08Z</time><name>PT7634</name></trkpt>
<trkpt lat="52.937105" lon="-3.148614"><ele>219</ele><time>2019-09-27T12:12:09Z</time><name>PT7635</name></trkpt>
<trkpt lat="52.937118" lon="-3.148611"><ele>220</ele><time>2019-09-27T12:12:10Z</time><name>PT7636</name></trkpt>
<trkpt lat="52.937124" lon="-3.148606"><ele>220</ele><time>2019-09-27T12:12:11Z</time><name>PT7637</name></trkpt>
<trkpt lat="52.937134" lon="-3.148606"><ele>221</ele><time>2019-09-27T12:12:12Z</time><name>PT7638</name></trkpt>
<trkpt lat="52.937138" lon="-3.148606"><ele>222</ele><time>2019-09-27T12:12:13Z</time><name>PT7639</name></trkpt>
<trkpt lat="52.937146" lon="-3.148607"><ele>222</ele><time>2019-09-27T12:12:14Z</time><name>PT7640</name></trkpt>
<trkpt lat="52.937152" lon="-3.148612"><ele>222</ele><time>2019-09-27T12:12:15Z</time><name>PT7641</name></trkpt>
<trkpt lat="52.937158" lon="-3.148610"><ele>223</ele><time>2019-09-27T12:12:16Z</time><name>PT7642</name></trkpt>
<trkpt lat="52.937168" lon="-3.148612"><ele>222</ele><time>2019-09-27T12:12:17Z</time><name>PT7643</name></trkpt>
<trkpt lat="52.937177" lon="-3.148613"><ele>222</ele><time>2019-09-27T12:12:18Z</time><name>PT7644</name></trkpt>
<trkpt lat="52.937185" lon="-3.148616"><ele>223</ele><time>2019-09-27T12:12:19Z</time><name>PT7645</name></trkpt>
<trkpt lat="52.937186" lon="-3.148617"><ele>223</ele><time>2019-09-27T12:12:20Z</time><name>PT7646</name></trkpt>
<trkpt lat="52.937189" lon="-3.148619"><ele>223</ele><time>2019-09-27T12:12:21Z</time><name>PT7647</name></trkpt>
<trkpt lat="52.937193" lon="-3.148620"><ele>222</ele><time>2019-09-27T12:12:22Z</time><name>PT7648</name></trkpt>
<trkpt lat="52.937195" lon="-3.148611"><ele>222</ele><time>2019-09-27T12:12:23Z</time><name>PT7649</name></trkpt>
<trkpt lat="52.937200" lon="-3.148609"><ele>223</ele><time>2019-09-27T12:12:24Z</time><name>PT7650</name></trkpt>
<trkpt lat="52.937205" lon="-3.148607"><ele>223</ele><time>2019-09-27T12:12:25Z</time><name>PT7651</name></trkpt>
<trkpt lat="52.937210" lon="-3.148610"><ele>223</ele><time>2019-09-27T12:12:26Z</time><name>PT7652</name></trkpt>
<trkpt lat="52.937221" lon="-3.148617"><ele>224</ele><time>2019-09-27T12:12:27Z</time><name>PT7653</name></trkpt>
<trkpt lat="52.937230" lon="-3.148621"><ele>225</ele><time>2019-09-27T12:12:28Z</time><name>PT7654</name></trkpt>
<trkpt lat="52.937239" lon="-3.148629"><ele>225</ele><time>2019-09-27T12:12:29Z</time><name>PT7655</name></trkpt>
<trkpt lat="52.937250" lon="-3.148642"><ele>225</ele><time>2019-09-27T12:12:30Z</time><name>PT7656</name></trkpt>
<trkpt lat="52.937254" lon="-3.148653"><ele>224</ele><time>2019-09-27T12:12:31Z</time><name>PT7657</name></trkpt>
<trkpt lat="52.937261" lon="-3.148653"><ele>224</ele><time>2019-09-27T12:12:32Z</time><name>PT7658</name></trkpt>
<trkpt lat="52.937259" lon="-3.148658"><ele>226</ele><time>2019-09-27T12:12:33Z</time><name>PT7659</name></trkpt>
<trkpt lat="52.937264" lon="-3.148660"><ele>226</ele><time>2019-09-27T12:12:34Z</time><name>PT7660</name></trkpt>
<trkpt lat="52.937272" lon="-3.148659"><ele>226</ele><time>2019-09-27T12:12:35Z</time><name>PT7661</name></trkpt>
<trkpt lat="52.937273" lon="-3.148661"><ele>224</ele><time>2019-09-27T12:12:36Z</time><name>PT7662</name></trkpt>
<trkpt lat="52.937280" lon="-3.148666"><ele>224</ele><time>2019-09-27T12:12:37Z</time><name>PT7663</name></trkpt>
<trkpt lat="52.937291" lon="-3.148670"><ele>224</ele><time>2019-09-27T12:12:38Z</time><name>PT7664</name></trkpt>
<trkpt lat="52.937302" lon="-3.148685"><ele>223</ele><time>2019-09-27T12:12:39Z</time><name>PT7665</name></trkpt>
<trkpt lat="52.937311" lon="-3.148691"><ele>224</ele><time>2019-09-27T12:12:40Z</time><name>PT7666</name></trkpt>
<trkpt lat="52.937319" lon="-3.148691"><ele>224</ele><time>2019-09-27T12:12:41Z</time><name>PT7667</name></trkpt>
<trkpt lat="52.937321" lon="-3.148694"><ele>224</ele><time>2019-09-27T12:12:42Z</time><name>PT7668</name></trkpt>
<trkpt lat="52.937326" lon="-3.148698"><ele>225</ele><time>2019-09-27T12:12:43Z</time><name>PT7669</name></trkpt>
<trkpt lat="52.937333" lon="-3.148697"><ele>226</ele><time>2019-09-27T12:12:44Z</time><name>PT7670</name></trkpt>
<trkpt lat="52.937346" lon="-3.148698"><ele>226</ele><time>2019-09-27T12:12:45Z</time><name>PT7671</name></trkpt>
<trkpt lat="52.937350" lon="-3.148700"><ele>227</ele><time>2019-09-27T12:12:46Z</time><name>PT7672</name></trkpt>
<trkpt lat="52.937358" lon="-3.148703"><ele>228</ele><time>2019-09-27T12:12:47Z</time><name>PT7673</name></trkpt>
<trkpt lat="52.937371" lon="-3.148707"><ele>228</ele><time>2019-09-27T12:12:48Z</time><name>PT7674</name></trkpt>
<trkpt lat="52.937379" lon="-3.148707"><ele>228</ele><time>2019-09-27T12:12:49Z</time><name>PT7675</name></trkpt>
<trkpt lat="52.937387" lon="-3.148706"><ele>229</ele><time>2019-09-27T12:12:50Z</time><name>PT7676</name></trkpt>
<trkpt lat="52.937393" lon="-3.148706"><ele>229</ele><time>2019-09-27T12:12:51Z</time><name>PT7677</name></trkpt>
<trkpt lat="52.937408" lon="-3.148724"><ele>229</ele><time>2019-09-27T12:12:52Z</time><name>PT7678</name></trkpt>
<trkpt lat="52.937419" lon="-3.148726"><ele>230</ele><time>2019-09-27T12:12:53Z</time><name>PT7679</name></trkpt>
<trkpt lat="52.937426" lon="-3.148724"><ele>230</ele><time>2019-09-27T12:12:54Z</time><name>PT7680</name></trkpt>
<trkpt lat="52.937435" lon="-3.148724"><ele>230</ele><time>2019-09-27T12:12:55Z</time><name>PT7681</name></trkpt>
<trkpt lat="52.937441" lon="-3.148721"><ele>229</ele><time>2019-09-27T12:12:56Z</time><name>PT7682</name></trkpt>
<trkpt lat="52.937444" lon="-3.148725"><ele>229</ele><time>2019-09-27T12:12:57Z</time><name>PT7683</name></trkpt>
<trkpt lat="52.937448" lon="-3.148734"><ele>229</ele><time>2019-09-27T12:12:58Z</time><name>PT7684</name></trkpt>
<trkpt lat="52.937457" lon="-3.148727"><ele>230</ele><time>2019-09-27T12:12:59Z</time><name>PT7685</name></trkpt>
<trkpt lat="52.937469" lon="-3.148737"><ele>229</ele><time>2019-09-27T12:13:00Z</time><name>PT7686</name></trkpt>
<trkpt lat="52.937476" lon="-3.148740"><ele>229</ele><time>2019-09-27T12:13:01Z</time><name>PT7687</name></trkpt>
<trkpt lat="52.937483" lon="-3.148738"><ele>229</ele><time>2019-09-27T12:13:02Z</time><name>PT7688</name></trkpt>
<trkpt lat="52.937486" lon="-3.148734"><ele>228</ele><time>2019-09-27T12:13:03Z</time><name>PT7689</name></trkpt>
<trkpt lat="52.937491" lon="-3.148727"><ele>228</ele><time>2019-09-27T12:13:04Z</time><name>PT7690</name></trkpt>
<trkpt lat="52.937494" lon="-3.148720"><ele>229</ele><time>2019-09-27T12:13:05Z</time><name>PT7691</name></trkpt>
<trkpt lat="52.937496" lon="-3.148719"><ele>229</ele><time>2019-09-27T12:13:06Z</time><name>PT7692</name></trkpt>
<trkpt lat="52.937500" lon="-3.148711"><ele>230</ele><time>2019-09-27T12:13:07Z</time><name>PT7693</name></trkpt>
<trkpt lat="52.937504" lon="-3.148704"><ele>229</ele><time>2019-09-27T12:13:08Z</time><name>PT7694</name></trkpt>
<trkpt lat="52.937506" lon="-3.148703"><ele>228</ele><time>2019-09-27T12:13:09Z</time><name>PT7695</name></trkpt>
<trkpt lat="52.937508" lon="-3.148698"><ele>229</ele><time>2019-09-27T12:13:10Z</time><name>PT7696</name></trkpt>
<trkpt lat="52.937516" lon="-3.148703"><ele>228</ele><time>2019-09-27T12:13:11Z</time><name>PT7697</name></trkpt>
<trkpt lat="52.937519" lon="-3.148702"><ele>228</ele><time>2019-09-27T12:13:12Z</time><name>PT7698</name></trkpt>
<trkpt lat="52.937522" lon="-3.148700"><ele>228</ele><time>2019-09-27T12:13:13Z</time><name>PT7699</name></trkpt>
<trkpt lat="52.937527" lon="-3.148700"><ele>228</ele><time>2019-09-27T12:13:14Z</time><name>PT7700</name></trkpt>
<trkpt lat="52.937531" lon="-3.148695"><ele>228</ele><time>2019-09-27T12:13:15Z</time><name>PT7701</name></trkpt>
<trkpt lat="52.937543" lon="-3.148692"><ele>228</ele><time>2019-09-27T12:13:16Z</time><name>PT7702</name></trkpt>
<trkpt lat="52.937547" lon="-3.148690"><ele>228</ele><time>2019-09-27T12:13:17Z</time><name>PT7703</name></trkpt>
<trkpt lat="52.937554" lon="-3.148691"><ele>228</ele><time>2019-09-27T12:13:18Z</time><name>PT7704</name></trkpt>
<trkpt lat="52.937557" lon="-3.148684"><ele>229</ele><time>2019-09-27T12:13:19Z</time><name>PT7705</name></trkpt>
<trkpt lat="52.937567" lon="-3.148676"><ele>230</ele><time>2019-09-27T12:13:20Z</time><name>PT7706</name></trkpt>
<trkpt lat="52.937575" lon="-3.148679"><ele>231</ele><time>2019-09-27T12:13:21Z</time><name>PT7707</name></trkpt>
<trkpt lat="52.937576" lon="-3.148681"><ele>231</ele><time>2019-09-27T12:13:22Z</time><name>PT7708</name></trkpt>
<trkpt lat="52.937595" lon="-3.148685"><ele>231</ele><time>2019-09-27T12:13:38Z</time><name>PT7709</name></trkpt>
<trkpt lat="52.937598" lon="-3.148675"><ele>231</ele><time>2019-09-27T12:13:39Z</time><name>PT7710</name></trkpt>
<trkpt lat="52.937612" lon="-3.148664"><ele>231</ele><time>2019-09-27T12:13:43Z</time><name>PT7711</name></trkpt>
<trkpt lat="52.937620" lon="-3.148667"><ele>232</ele><time>2019-09-27T12:13:44Z</time><name>PT7712</name></trkpt>
<trkpt lat="52.937631" lon="-3.148685"><ele>231</ele><time>2019-09-27T12:13:51Z</time><name>PT7713</name></trkpt>
<trkpt lat="52.937641" lon="-3.148692"><ele>230</ele><time>2019-09-27T12:13:52Z</time><name>PT7714</name></trkpt>
<trkpt lat="52.937643" lon="-3.148693"><ele>230</ele><time>2019-09-27T12:13:53Z</time><name>PT7715</name></trkpt>
<trkpt lat="52.937647" lon="-3.148696"><ele>230</ele><time>2019-09-27T12:13:54Z</time><name>PT7716</name></trkpt>
<trkpt lat="52.937653" lon="-3.148701"><ele>230</ele><time>2019-09-27T12:13:55Z</time><name>PT7717</name></trkpt>
<trkpt lat="52.937666" lon="-3.148704"><ele>229</ele><time>2019-09-27T12:13:56Z</time><name>PT7718</name></trkpt>
<trkpt lat="52.937672" lon="-3.148713"><ele>229</ele><time>2019-09-27T12:13:57Z</time><name>PT7719</name></trkpt>
<trkpt lat="52.937679" lon="-3.148722"><ele>229</ele><time>2019-09-27T12:13:58Z</time><name>PT7720</name></trkpt>
<trkpt lat="52.937689" lon="-3.148729"><ele>228</ele><time>2019-09-27T12:13:59Z</time><name>PT7721</name></trkpt>
<trkpt lat="52.937699" lon="-3.148727"><ele>228</ele><time>2019-09-27T12:14:00Z</time><name>PT7722</name></trkpt>
<trkpt lat="52.937713" lon="-3.148730"><ele>227</ele><time>2019-09-27T12:14:01Z</time><name>PT7723</name></trkpt>
<trkpt lat="52.937721" lon="-3.148742"><ele>227</ele><time>2019-09-27T12:14:02Z</time><name>PT7724</name></trkpt>
<trkpt lat="52.937733" lon="-3.148733"><ele>227</ele><time>2019-09-27T12:14:03Z</time><name>PT7725</name></trkpt>
<trkpt lat="52.937746" lon="-3.148738"><ele>229</ele><time>2019-09-27T12:14:04Z</time><name>PT7726</name></trkpt>
<trkpt lat="52.937752" lon="-3.148743"><ele>229</ele><time>2019-09-27T12:14:05Z</time><name>PT7727</name></trkpt>
<trkpt lat="52.937760" lon="-3.148751"><ele>228</ele><time>2019-09-27T12:14:06Z</time><name>PT7728</name></trkpt>
<trkpt lat="52.937765" lon="-3.148753"><ele>228</ele><time>2019-09-27T12:14:07Z</time><name>PT7729</name></trkpt>
<trkpt lat="52.937770" lon="-3.148750"><ele>227</ele><time>2019-09-27T12:14:08Z</time><name>PT7730</name></trkpt>
<trkpt lat="52.937776" lon="-3.148744"><ele>227</ele><time>2019-09-27T12:14:09Z</time><name>PT7731</name></trkpt>
<trkpt lat="52.937778" lon="-3.148739"><ele>228</ele><time>2019-09-27T12:14:10Z</time><name>PT7732</name></trkpt>
<trkpt lat="52.937783" lon="-3.148738"><ele>227</ele><time>2019-09-27T12:14:11Z</time><name>PT7733</name></trkpt>
<trkpt lat="52.937794" lon="-3.148735"><ele>227</ele><time>2019-09-27T12:14:12Z</time><name>PT7734</name></trkpt>
<trkpt lat="52.937801" lon="-3.148728"><ele>227</ele><time>2019-09-27T12:14:13Z</time><name>PT7735</name></trkpt>
<trkpt lat="52.937807" lon="-3.148725"><ele>227</ele><time>2019-09-27T12:14:14Z</time><name>PT7736</name></trkpt>
<trkpt lat="52.937807" lon="-3.148726"><ele>227</ele><time>2019-09-27T12:14:15Z</time><name>PT7737</name></trkpt>
<trkpt lat="52.937815" lon="-3.148733"><ele>227</ele><time>2019-09-27T12:14:16Z</time><name>PT7738</name></trkpt>
<trkpt lat="52.937827" lon="-3.148733"><ele>227</ele><time>2019-09-27T12:14:17Z</time><name>PT7739</name></trkpt>
<trkpt lat="52.937832" lon="-3.148735"><ele>226</ele><time>2019-09-27T12:14:18Z</time><name>PT7740</name></trkpt>
<trkpt lat="52.937839" lon="-3.148741"><ele>226</ele><time>2019-09-27T12:14:19Z</time><name>PT7741</name></trkpt>
<trkpt lat="52.937842" lon="-3.148743"><ele>225</ele><time>2019-09-27T12:14:20Z</time><name>PT7742</name></trkpt>
<trkpt lat="52.937848" lon="-3.148740"><ele>226</ele><time>2019-09-27T12:14:21Z</time><name>PT7743</name></trkpt>
<trkpt lat="52.937857" lon="-3.148739"><ele>226</ele><time>2019-09-27T12:14:22Z</time><name>PT7744</name></trkpt>
<trkpt lat="52.937865" lon="-3.148737"><ele>227</ele><time>2019-09-27T12:14:23Z</time><name>PT7745</name></trkpt>
<trkpt lat="52.937875" lon="-3.148744"><ele>226</ele><time>2019-09-27T12:14:24Z</time><name>PT7746</name></trkpt>
<trkpt lat="52.937887" lon="-3.148749"><ele>227</ele><time>2019-09-27T12:14:25Z</time><name>PT7747</name></trkpt>
<trkpt lat="52.937890" lon="-3.148751"><ele>227</ele><time>2019-09-27T12:14:26Z</time><name>PT7748</name></trkpt>
<trkpt lat="52.937899" lon="-3.148750"><ele>226</ele><time>2019-09-27T12:14:27Z</time><name>PT7749</name></trkpt>
<trkpt lat="52.937908" lon="-3.148748"><ele>227</ele><time>2019-09-27T12:14:28Z</time><name>PT7750</name></trkpt>
<trkpt lat="52.937918" lon="-3.148745"><ele>227</ele><time>2019-09-27T12:14:29Z</time><name>PT7751</name></trkpt>
<trkpt lat="52.937924" lon="-3.148747"><ele>227</ele><time>2019-09-27T12:14:30Z</time><name>PT7752</name></trkpt>
<trkpt lat="52.937930" lon="-3.148746"><ele>227</ele><time>2019-09-27T12:14:31Z</time><name>PT7753</name></trkpt>
<trkpt lat="52.937938" lon="-3.148754"><ele>226</ele><time>2019-09-27T12:14:32Z</time><name>PT7754</name></trkpt>
<trkpt lat="52.937947" lon="-3.148761"><ele>226</ele><time>2019-09-27T12:14:33Z</time><name>PT7755</name></trkpt>
<trkpt lat="52.937952" lon="-3.148763"><ele>227</ele><time>2019-09-27T12:14:34Z</time><name>PT7756</name></trkpt>
<trkpt lat="52.937964" lon="-3.148759"><ele>228</ele><time>2019-09-27T12:14:35Z</time><name>PT7757</name></trkpt>
<trkpt lat="52.937966" lon="-3.148760"><ele>227</ele><time>2019-09-27T12:14:36Z</time><name>PT7758</name></trkpt>
<trkpt lat="52.937969" lon="-3.148764"><ele>228</ele><time>2019-09-27T12:14:37Z</time><name>PT7759</name></trkpt>
<trkpt lat="52.937972" lon="-3.148770"><ele>228</ele><time>2019-09-27T12:14:38Z</time><name>PT7760</name></trkpt>
<trkpt lat="52.937982" lon="-3.148774"><ele>228</ele><time>2019-09-27T12:14:39Z</time><name>PT7761</name></trkpt>
<trkpt lat="52.937986" lon="-3.148781"><ele>228</ele><time>2019-09-27T12:14:40Z</time><name>PT7762</name></trkpt>
<trkpt lat="52.937993" lon="-3.148789"><ele>228</ele><time>2019-09-27T12:14:41Z</time><name>PT7763</name></trkpt>
<trkpt lat="52.937996" lon="-3.148790"><ele>228</ele><time>2019-09-27T12:14:42Z</time><name>PT7764</name></trkpt>
<trkpt lat="52.938000" lon="-3.148789"><ele>228</ele><time>2019-09-27T12:14:43Z</time><name>PT7765</name></trkpt>
<trkpt lat="52.938007" lon="-3.148793"><ele>228</ele><time>2019-09-27T12:14:44Z</time><name>PT7766</name></trkpt>
<trkpt lat="52.938013" lon="-3.148799"><ele>227</ele><time>2019-09-27T12:14:45Z</time><name>PT7767</name></trkpt>
<trkpt lat="52.938025" lon="-3.148801"><ele>227</ele><time>2019-09-27T12:14:46Z</time><name>PT7768</name></trkpt>
<trkpt lat="52.938031" lon="-3.148805"><ele>225</ele><time>2019-09-27T12:14:47Z</time><name>PT7769</name></trkpt>
<trkpt lat="52.938036" lon="-3.148808"><ele>225</ele><time>2019-09-27T12:14:48Z</time><name>PT7770</name></trkpt>
<trkpt lat="52.938045" lon="-3.148811"><ele>224</ele><time>2019-09-27T12:14:49Z</time><name>PT7771</name></trkpt>
<trkpt lat="52.938048" lon="-3.148821"><ele>224</ele><time>2019-09-27T12:14:50Z</time><name>PT7772</name></trkpt>
<trkpt lat="52.938058" lon="-3.148829"><ele>225</ele><time>2019-09-27T12:14:51Z</time><name>PT7773</name></trkpt>
<trkpt lat="52.938065" lon="-3.148840"><ele>225</ele><time>2019-09-27T12:14:52Z</time><name>PT7774</name></trkpt>
<trkpt lat="52.938071" lon="-3.148848"><ele>225</ele><time>2019-09-27T12:14:53Z</time><name>PT7775</name></trkpt>
<trkpt lat="52.938087" lon="-3.148854"><ele>227</ele><time>2019-09-27T12:14:54Z</time><name>PT7776</name></trkpt>
<trkpt lat="52.938095" lon="-3.148859"><ele>226</ele><time>2019-09-27T12:14:55Z</time><name>PT7777</name></trkpt>
<trkpt lat="52.938102" lon="-3.148863"><ele>226</ele><time>2019-09-27T12:14:56Z</time><name>PT7778</name></trkpt>
<trkpt lat="52.938111" lon="-3.148870"><ele>226</ele><time>2019-09-27T12:14:57Z</time><name>PT7779</name></trkpt>
<trkpt lat="52.938116" lon="-3.148875"><ele>226</ele><time>2019-09-27T12:14:58Z</time><name>PT7780</name></trkpt>
<trkpt lat="52.938130" lon="-3.148889"><ele>226</ele><time>2019-09-27T12:14:59Z</time><name>PT7781</name></trkpt>
<trkpt lat="52.938133" lon="-3.148894"><ele>224</ele><time>2019-09-27T12:15:00Z</time><name>PT7782</name></trkpt>
<trkpt lat="52.938141" lon="-3.148901"><ele>224</ele><time>2019-09-27T12:15:01Z</time><name>PT7783</name></trkpt>
<trkpt lat="52.938152" lon="-3.148906"><ele>225</ele><time>2019-09-27T12:15:02Z</time><name>PT7784</name></trkpt>
<trkpt lat="52.938158" lon="-3.148908"><ele>226</ele><time>2019-09-27T12:15:03Z</time><name>PT7785</name></trkpt>
<trkpt lat="52.938167" lon="-3.148908"><ele>226</ele><time>2019-09-27T12:15:04Z</time><name>PT7786</name></trkpt>
<trkpt lat="52.938179" lon="-3.148906"><ele>226</ele><time>2019-09-27T12:15:05Z</time><name>PT7787</name></trkpt>
<trkpt lat="52.938185" lon="-3.148910"><ele>227</ele><time>2019-09-27T12:15:06Z</time><name>PT7788</name></trkpt>
<trkpt lat="52.938200" lon="-3.148940"><ele>228</ele><time>2019-09-27T12:15:10Z</time><name>PT7789</name></trkpt>
<trkpt lat="52.938215" lon="-3.148955"><ele>228</ele><time>2019-09-27T12:15:11Z</time><name>PT7790</name></trkpt>
<trkpt lat="52.938229" lon="-3.148969"><ele>228</ele><time>2019-09-27T12:15:12Z</time><name>PT7791</name></trkpt>
<trkpt lat="52.938240" lon="-3.148979"><ele>229</ele><time>2019-09-27T12:15:13Z</time><name>PT7792</name></trkpt>
<trkpt lat="52.938254" lon="-3.148987"><ele>230</ele><time>2019-09-27T12:15:14Z</time><name>PT7793</name></trkpt>
<trkpt lat="52.938261" lon="-3.148989"><ele>231</ele><time>2019-09-27T12:15:15Z</time><name>PT7794</name></trkpt>
<trkpt lat="52.938272" lon="-3.149001"><ele>231</ele><time>2019-09-27T12:15:16Z</time><name>PT7795</name></trkpt>
<trkpt lat="52.938279" lon="-3.149014"><ele>231</ele><time>2019-09-27T12:15:17Z</time><name>PT7796</name></trkpt>
<trkpt lat="52.938292" lon="-3.149018"><ele>232</ele><time>2019-09-27T12:15:18Z</time><name>PT7797</name></trkpt>
<trkpt lat="52.938299" lon="-3.149028"><ele>231</ele><time>2019-09-27T12:15:19Z</time><name>PT7798</name></trkpt>
<trkpt lat="52.938307" lon="-3.149040"><ele>231</ele><time>2019-09-27T12:15:20Z</time><name>PT7799</name></trkpt>
<trkpt lat="52.938318" lon="-3.149053"><ele>232</ele><time>2019-09-27T12:15:21Z</time><name>PT7800</name></trkpt>
<trkpt lat="52.938327" lon="-3.149059"><ele>231</ele><time>2019-09-27T12:15:22Z</time><name>PT7801</name></trkpt>
<trkpt lat="52.938335" lon="-3.149064"><ele>232</ele><time>2019-09-27T12:15:23Z</time><name>PT7802</name></trkpt>
<trkpt lat="52.938348" lon="-3.149072"><ele>233</ele><time>2019-09-27T12:15:24Z</time><name>PT7803</name></trkpt>
<trkpt lat="52.938353" lon="-3.149078"><ele>232</ele><time>2019-09-27T12:15:25Z</time><name>PT7804</name></trkpt>
<trkpt lat="52.938361" lon="-3.149089"><ele>233</ele><time>2019-09-27T12:15:26Z</time><name>PT7805</name></trkpt>
<trkpt lat="52.938369" lon="-3.149099"><ele>233</ele><time>2019-09-27T12:15:27Z</time><name>PT7806</name></trkpt>
<trkpt lat="52.938375" lon="-3.149110"><ele>233</ele><time>2019-09-27T12:15:28Z</time><name>PT7807</name></trkpt>
<trkpt lat="52.938380" lon="-3.149119"><ele>233</ele><time>2019-09-27T12:15:29Z</time><name>PT7808</name></trkpt>
<trkpt lat="52.938386" lon="-3.149127"><ele>233</ele><time>2019-09-27T12:15:30Z</time><name>PT7809</name></trkpt>
<trkpt lat="52.938392" lon="-3.149135"><ele>233</ele><time>2019-09-27T12:15:31Z</time><name>PT7810</name></trkpt>
<trkpt lat="52.938397" lon="-3.149142"><ele>233</ele><time>2019-09-27T12:15:32Z</time><name>PT7811</name></trkpt>
<trkpt lat="52.938404" lon="-3.149147"><ele>233</ele><time>2019-09-27T12:15:33Z</time><name>PT7812</name></trkpt>
<trkpt lat="52.938412" lon="-3.149151"><ele>233</ele><time>2019-09-27T12:15:34Z</time><name>PT7813</name></trkpt>
<trkpt lat="52.938419" lon="-3.149157"><ele>233</ele><time>2019-09-27T12:15:35Z</time><name>PT7814</name></trkpt>
<trkpt lat="52.938427" lon="-3.149164"><ele>234</ele><time>2019-09-27T12:15:36Z</time><name>PT7815</name></trkpt>
<trkpt lat="52.938436" lon="-3.149175"><ele>235</ele><time>2019-09-27T12:15:37Z</time><name>PT7816</name></trkpt>
<trkpt lat="52.938445" lon="-3.149186"><ele>235</ele><time>2019-09-27T12:15:38Z</time><name>PT7817</name></trkpt>
<trkpt lat="52.938455" lon="-3.149196"><ele>236</ele><time>2019-09-27T12:15:39Z</time><name>PT7818</name></trkpt>
<trkpt lat="52.938460" lon="-3.149203"><ele>236</ele><time>2019-09-27T12:15:40Z</time><name>PT7819</name></trkpt>
<trkpt lat="52.938467" lon="-3.149208"><ele>235</ele><time>2019-09-27T12:15:41Z</time><name>PT7820</name></trkpt>
<trkpt lat="52.938472" lon="-3.149211"><ele>235</ele><time>2019-09-27T12:15:42Z</time><name>PT7821</name></trkpt>
<trkpt lat="52.938479" lon="-3.149213"><ele>234</ele><time>2019-09-27T12:15:43Z</time><name>PT7822</name></trkpt>
<trkpt lat="52.938488" lon="-3.149216"><ele>234</ele><time>2019-09-27T12:15:44Z</time><name>PT7823</name></trkpt>
<trkpt lat="52.938495" lon="-3.149222"><ele>234</ele><time>2019-09-27T12:15:45Z</time><name>PT7824</name></trkpt>
<trkpt lat="52.938502" lon="-3.149228"><ele>234</ele><time>2019-09-27T12:15:46Z</time><name>PT7825</name></trkpt>
<trkpt lat="52.938510" lon="-3.149239"><ele>234</ele><time>2019-09-27T12:15:47Z</time><name>PT7826</name></trkpt>
<trkpt lat="52.938517" lon="-3.149248"><ele>234</ele><time>2019-09-27T12:15:48Z</time><name>PT7827</name></trkpt>
<trkpt lat="52.938523" lon="-3.149257"><ele>234</ele><time>2019-09-27T12:15:49Z</time><name>PT7828</name></trkpt>
<trkpt lat="52.938529" lon="-3.149268"><ele>234</ele><time>2019-09-27T12:15:50Z</time><name>PT7829</name></trkpt>
<trkpt lat="52.938537" lon="-3.149278"><ele>234</ele><time>2019-09-27T12:15:51Z</time><name>PT7830</name></trkpt>
<trkpt lat="52.938544" lon="-3.149284"><ele>234</ele><time>2019-09-27T12:15:52Z</time><name>PT7831</name></trkpt>
<trkpt lat="52.938551" lon="-3.149290"><ele>234</ele><time>2019-09-27T12:15:53Z</time><name>PT7832</name></trkpt>
<trkpt lat="52.938559" lon="-3.149297"><ele>234</ele><time>2019-09-27T12:15:54Z</time><name>PT7833</name></trkpt>
<trkpt lat="52.938567" lon="-3.149303"><ele>234</ele><time>2019-09-27T12:15:55Z</time><name>PT7834</name></trkpt>
<trkpt lat="52.938575" lon="-3.149309"><ele>234</ele><time>2019-09-27T12:15:56Z</time><name>PT7835</name></trkpt>
<trkpt lat="52.938583" lon="-3.149317"><ele>234</ele><time>2019-09-27T12:15:57Z</time><name>PT7836</name></trkpt>
<trkpt lat="52.938589" lon="-3.149321"><ele>234</ele><time>2019-09-27T12:15:58Z</time><name>PT7837</name></trkpt>
<trkpt lat="52.938596" lon="-3.149326"><ele>234</ele><time>2019-09-27T12:15:59Z</time><name>PT7838</name></trkpt>
<trkpt lat="52.938602" lon="-3.149335"><ele>234</ele><time>2019-09-27T12:16:00Z</time><name>PT7839</name></trkpt>
<trkpt lat="52.938609" lon="-3.149345"><ele>235</ele><time>2019-09-27T12:16:01Z</time><name>PT7840</name></trkpt>
<trkpt lat="52.938613" lon="-3.149356"><ele>235</ele><time>2019-09-27T12:16:02Z</time><name>PT7841</name></trkpt>
<trkpt lat="52.938620" lon="-3.149364"><ele>235</ele><time>2019-09-27T12:16:03Z</time><name>PT7842</name></trkpt>
<trkpt lat="52.938627" lon="-3.149369"><ele>235</ele><time>2019-09-27T12:16:04Z</time><name>PT7843</name></trkpt>
<trkpt lat="52.938632" lon="-3.149379"><ele>235</ele><time>2019-09-27T12:16:05Z</time><name>PT7844</name></trkpt>
<trkpt lat="52.938639" lon="-3.149383"><ele>235</ele><time>2019-09-27T12:16:06Z</time><name>PT7845</name></trkpt>
<trkpt lat="52.938644" lon="-3.149394"><ele>235</ele><time>2019-09-27T12:16:07Z</time><name>PT7846</name></trkpt>
<trkpt lat="52.938648" lon="-3.149407"><ele>235</ele><time>2019-09-27T12:16:08Z</time><name>PT7847</name></trkpt>
<trkpt lat="52.938652" lon="-3.149417"><ele>236</ele><time>2019-09-27T12:16:09Z</time><name>PT7848</name></trkpt>
<trkpt lat="52.938659" lon="-3.149429"><ele>236</ele><time>2019-09-27T12:16:10Z</time><name>PT7849</name></trkpt>
<trkpt lat="52.938665" lon="-3.149438"><ele>237</ele><time>2019-09-27T12:16:11Z</time><name>PT7850</name></trkpt>
<trkpt lat="52.938669" lon="-3.149445"><ele>237</ele><time>2019-09-27T12:16:12Z</time><name>PT7851</name></trkpt>
<trkpt lat="52.938674" lon="-3.149452"><ele>237</ele><time>2019-09-27T12:16:13Z</time><name>PT7852</name></trkpt>
<trkpt lat="52.938680" lon="-3.149461"><ele>237</ele><time>2019-09-27T12:16:14Z</time><name>PT7853</name></trkpt>
<trkpt lat="52.938685" lon="-3.149473"><ele>237</ele><time>2019-09-27T12:16:15Z</time><name>PT7854</name></trkpt>
<trkpt lat="52.938695" lon="-3.149489"><ele>238</ele><time>2019-09-27T12:16:16Z</time><name>PT7855</name></trkpt>
<trkpt lat="52.938701" lon="-3.149499"><ele>238</ele><time>2019-09-27T12:16:17Z</time><name>PT7856</name></trkpt>
<trkpt lat="52.938708" lon="-3.149509"><ele>238</ele><time>2019-09-27T12:16:18Z</time><name>PT7857</name></trkpt>
<trkpt lat="52.938715" lon="-3.149519"><ele>239</ele><time>2019-09-27T12:16:19Z</time><name>PT7858</name></trkpt>
<trkpt lat="52.938718" lon="-3.149530"><ele>239</ele><time>2019-09-27T12:16:20Z</time><name>PT7859</name></trkpt>
<trkpt lat="52.938723" lon="-3.149539"><ele>239</ele><time>2019-09-27T12:16:21Z</time><name>PT7860</name></trkpt>
<trkpt lat="52.938728" lon="-3.149545"><ele>239</ele><time>2019-09-27T12:16:22Z</time><name>PT7861</name></trkpt>
<trkpt lat="52.938734" lon="-3.149554"><ele>239</ele><time>2019-09-27T12:16:23Z</time><name>PT7862</name></trkpt>
<trkpt lat="52.938742" lon="-3.149566"><ele>239</ele><time>2019-09-27T12:16:24Z</time><name>PT7863</name></trkpt>
<trkpt lat="52.938748" lon="-3.149578"><ele>239</ele><time>2019-09-27T12:16:25Z</time><name>PT7864</name></trkpt>
<trkpt lat="52.938752" lon="-3.149586"><ele>239</ele><time>2019-09-27T12:16:26Z</time><name>PT7865</name></trkpt>
<trkpt lat="52.938756" lon="-3.149595"><ele>239</ele><time>2019-09-27T12:16:27Z</time><name>PT7866</name></trkpt>
<trkpt lat="52.938763" lon="-3.149605"><ele>239</ele><time>2019-09-27T12:16:28Z</time><name>PT7867</name></trkpt>
<trkpt lat="52.938769" lon="-3.149616"><ele>239</ele><time>2019-09-27T12:16:29Z</time><name>PT7868</name></trkpt>
<trkpt lat="52.938771" lon="-3.149627"><ele>239</ele><time>2019-09-27T12:16:30Z</time><name>PT7869</name></trkpt>
<trkpt lat="52.938774" lon="-3.149638"><ele>239</ele><time>2019-09-27T12:16:31Z</time><name>PT7870</name></trkpt>
<trkpt lat="52.938778" lon="-3.149652"><ele>239</ele><time>2019-09-27T12:16:32Z</time><name>PT7871</name></trkpt>
<trkpt lat="52.938782" lon="-3.149666"><ele>239</ele><time>2019-09-27T12:16:33Z</time><name>PT7872</name></trkpt>
<trkpt lat="52.938786" lon="-3.149674"><ele>239</ele><time>2019-09-27T12:16:34Z</time><name>PT7873</name></trkpt>
<trkpt lat="52.938793" lon="-3.149682"><ele>239</ele><time>2019-09-27T12:16:35Z</time><name>PT7874</name></trkpt>
<trkpt lat="52.938802" lon="-3.149692"><ele>239</ele><time>2019-09-27T12:16:36Z</time><name>PT7875</name></trkpt>
<trkpt lat="52.938810" lon="-3.149702"><ele>239</ele><time>2019-09-27T12:16:37Z</time><name>PT7876</name></trkpt>
<trkpt lat="52.938818" lon="-3.149709"><ele>239</ele><time>2019-09-27T12:16:38Z</time><name>PT7877</name></trkpt>
<trkpt lat="52.938825" lon="-3.149719"><ele>239</ele><time>2019-09-27T12:16:39Z</time><name>PT7878</name></trkpt>
<trkpt lat="52.938831" lon="-3.149731"><ele>239</ele><time>2019-09-27T12:16:40Z</time><name>PT7879</name></trkpt>
<trkpt lat="52.938838" lon="-3.149738"><ele>240</ele><time>2019-09-27T12:16:41Z</time><name>PT7880</name></trkpt>
<trkpt lat="52.938842" lon="-3.149744"><ele>240</ele><time>2019-09-27T12:16:42Z</time><name>PT7881</name></trkpt>
<trkpt lat="52.938847" lon="-3.149749"><ele>240</ele><time>2019-09-27T12:16:43Z</time><name>PT7882</name></trkpt>
<trkpt lat="52.938853" lon="-3.149756"><ele>240</ele><time>2019-09-27T12:16:44Z</time><name>PT7883</name></trkpt>
<trkpt lat="52.938858" lon="-3.149765"><ele>240</ele><time>2019-09-27T12:16:45Z</time><name>PT7884</name></trkpt>
<trkpt lat="52.938863" lon="-3.149776"><ele>240</ele><time>2019-09-27T12:16:46Z</time><name>PT7885</name></trkpt>
<trkpt lat="52.938868" lon="-3.149789"><ele>241</ele><time>2019-09-27T12:16:47Z</time><name>PT7886</name></trkpt>
<trkpt lat="52.938874" lon="-3.149800"><ele>241</ele><time>2019-09-27T12:16:48Z</time><name>PT7887</name></trkpt>
<trkpt lat="52.938881" lon="-3.149810"><ele>241</ele><time>2019-09-27T12:16:49Z</time><name>PT7888</name></trkpt>
<trkpt lat="52.938889" lon="-3.149817"><ele>241</ele><time>2019-09-27T12:16:50Z</time><name>PT7889</name></trkpt>
<trkpt lat="52.938895" lon="-3.149820"><ele>241</ele><time>2019-09-27T12:16:51Z</time><name>PT7890</name></trkpt>
<trkpt lat="52.938899" lon="-3.149824"><ele>242</ele><time>2019-09-27T12:16:52Z</time><name>PT7891</name></trkpt>
<trkpt lat="52.938903" lon="-3.149832"><ele>242</ele><time>2019-09-27T12:16:53Z</time><name>PT7892</name></trkpt>
<trkpt lat="52.938906" lon="-3.149842"><ele>242</ele><time>2019-09-27T12:16:54Z</time><name>PT7893</name></trkpt>
<trkpt lat="52.938911" lon="-3.149850"><ele>243</ele><time>2019-09-27T12:16:55Z</time><name>PT7894</name></trkpt>
<trkpt lat="52.938916" lon="-3.149861"><ele>243</ele><time>2019-09-27T12:16:56Z</time><name>PT7895</name></trkpt>
<trkpt lat="52.938924" lon="-3.149872"><ele>243</ele><time>2019-09-27T12:16:57Z</time><name>PT7896</name></trkpt>
<trkpt lat="52.938931" lon="-3.149878"><ele>243</ele><time>2019-09-27T12:16:58Z</time><name>PT7897</name></trkpt>
<trkpt lat="52.938937" lon="-3.149889"><ele>243</ele><time>2019-09-27T12:16:59Z</time><name>PT7898</name></trkpt>
<trkpt lat="52.938941" lon="-3.149899"><ele>243</ele><time>2019-09-27T12:17:00Z</time><name>PT7899</name></trkpt>
<trkpt lat="52.938948" lon="-3.149909"><ele>243</ele><time>2019-09-27T12:17:01Z</time><name>PT7900</name></trkpt>
<trkpt lat="52.938955" lon="-3.149918"><ele>243</ele><time>2019-09-27T12:17:02Z</time><name>PT7901</name></trkpt>
<trkpt lat="52.938961" lon="-3.149928"><ele>243</ele><time>2019-09-27T12:17:03Z</time><name>PT7902</name></trkpt>
<trkpt lat="52.938966" lon="-3.149934"><ele>243</ele><time>2019-09-27T12:17:04Z</time><name>PT7903</name></trkpt>
<trkpt lat="52.938972" lon="-3.149944"><ele>243</ele><time>2019-09-27T12:17:05Z</time><name>PT7904</name></trkpt>
<trkpt lat="52.938978" lon="-3.149955"><ele>243</ele><time>2019-09-27T12:17:06Z</time><name>PT7905</name></trkpt>
<trkpt lat="52.938986" lon="-3.149966"><ele>243</ele><time>2019-09-27T12:17:07Z</time><name>PT7906</name></trkpt>
<trkpt lat="52.938992" lon="-3.149974"><ele>243</ele><time>2019-09-27T12:17:08Z</time><name>PT7907</name></trkpt>
<trkpt lat="52.938998" lon="-3.149984"><ele>244</ele><time>2019-09-27T12:17:09Z</time><name>PT7908</name></trkpt>
<trkpt lat="52.939004" lon="-3.149995"><ele>244</ele><time>2019-09-27T12:17:10Z</time><name>PT7909</name></trkpt>
<trkpt lat="52.939009" lon="-3.150004"><ele>244</ele><time>2019-09-27T12:17:11Z</time><name>PT7910</name></trkpt>
<trkpt lat="52.939013" lon="-3.150016"><ele>244</ele><time>2019-09-27T12:17:12Z</time><name>PT7911</name></trkpt>
<trkpt lat="52.939019" lon="-3.150025"><ele>243</ele><time>2019-09-27T12:17:13Z</time><name>PT7912</name></trkpt>
<trkpt lat="52.939023" lon="-3.150035"><ele>244</ele><time>2019-09-27T12:17:14Z</time><name>PT7913</name></trkpt>
<trkpt lat="52.939032" lon="-3.150049"><ele>244</ele><time>2019-09-27T12:17:15Z</time><name>PT7914</name></trkpt>
<trkpt lat="52.939035" lon="-3.150060"><ele>244</ele><time>2019-09-27T12:17:16Z</time><name>PT7915</name></trkpt>
<trkpt lat="52.939037" lon="-3.150068"><ele>244</ele><time>2019-09-27T12:17:17Z</time><name>PT7916</name></trkpt>
<trkpt lat="52.939041" lon="-3.150076"><ele>244</ele><time>2019-09-27T12:17:18Z</time><name>PT7917</name></trkpt>
<trkpt lat="52.939044" lon="-3.150084"><ele>244</ele><time>2019-09-27T12:17:19Z</time><name>PT7918</name></trkpt>
<trkpt lat="52.939048" lon="-3.150093"><ele>244</ele><time>2019-09-27T12:17:20Z</time><name>PT7919</name></trkpt>
<trkpt lat="52.939051" lon="-3.150102"><ele>244</ele><time>2019-09-27T12:17:21Z</time><name>PT7920</name></trkpt>
<trkpt lat="52.939053" lon="-3.150110"><ele>244</ele><time>2019-09-27T12:17:22Z</time><name>PT7921</name></trkpt>
<trkpt lat="52.939056" lon="-3.150121"><ele>245</ele><time>2019-09-27T12:17:23Z</time><name>PT7922</name></trkpt>
<trkpt lat="52.939061" lon="-3.150132"><ele>245</ele><time>2019-09-27T12:17:24Z</time><name>PT7923</name></trkpt>
<trkpt lat="52.939063" lon="-3.150143"><ele>245</ele><time>2019-09-27T12:17:25Z</time><name>PT7924</name></trkpt>
<trkpt lat="52.939067" lon="-3.150150"><ele>245</ele><time>2019-09-27T12:17:26Z</time><name>PT7925</name></trkpt>
<trkpt lat="52.939072" lon="-3.150161"><ele>245</ele><time>2019-09-27T12:17:27Z</time><name>PT7926</name></trkpt>
<trkpt lat="52.939074" lon="-3.150174"><ele>245</ele><time>2019-09-27T12:17:28Z</time><name>PT7927</name></trkpt>
<trkpt lat="52.939078" lon="-3.150184"><ele>245</ele><time>2019-09-27T12:17:29Z</time><name>PT7928</name></trkpt>
<trkpt lat="52.939080" lon="-3.150195"><ele>245</ele><time>2019-09-27T12:17:30Z</time><name>PT7929</name></trkpt>
<trkpt lat="52.939083" lon="-3.150209"><ele>245</ele><time>2019-09-27T12:17:31Z</time><name>PT7930</name></trkpt>
<trkpt lat="52.939087" lon="-3.150220"><ele>246</ele><time>2019-09-27T12:17:32Z</time><name>PT7931</name></trkpt>
<trkpt lat="52.939092" lon="-3.150230"><ele>246</ele><time>2019-09-27T12:17:33Z</time><name>PT7932</name></trkpt>
<trkpt lat="52.939093" lon="-3.150238"><ele>246</ele><time>2019-09-27T12:17:34Z</time><name>PT7933</name></trkpt>
<trkpt lat="52.939094" lon="-3.150247"><ele>246</ele><time>2019-09-27T12:17:35Z</time><name>PT7934</name></trkpt>
<trkpt lat="52.939096" lon="-3.150256"><ele>245</ele><time>2019-09-27T12:17:36Z</time><name>PT7935</name></trkpt>
<trkpt lat="52.939100" lon="-3.150269"><ele>246</ele><time>2019-09-27T12:17:37Z</time><name>PT7936</name></trkpt>
<trkpt lat="52.939102" lon="-3.150280"><ele>246</ele><time>2019-09-27T12:17:38Z</time><name>PT7937</name></trkpt>
<trkpt lat="52.939103" lon="-3.150292"><ele>246</ele><time>2019-09-27T12:17:39Z</time><name>PT7938</name></trkpt>
<trkpt lat="52.939106" lon="-3.150303"><ele>247</ele><time>2019-09-27T12:17:40Z</time><name>PT7939</name></trkpt>
<trkpt lat="52.939108" lon="-3.150310"><ele>246</ele><time>2019-09-27T12:17:41Z</time><name>PT7940</name></trkpt>
<trkpt lat="52.939110" lon="-3.150317"><ele>246</ele><time>2019-09-27T12:17:42Z</time><name>PT7941</name></trkpt>
<trkpt lat="52.939112" lon="-3.150327"><ele>246</ele><time>2019-09-27T12:17:43Z</time><name>PT7942</name></trkpt>
<trkpt lat="52.939114" lon="-3.150334"><ele>247</ele><time>2019-09-27T12:17:44Z</time><name>PT7943</name></trkpt>
<trkpt lat="52.939117" lon="-3.150344"><ele>247</ele><time>2019-09-27T12:17:45Z</time><name>PT7944</name></trkpt>
<trkpt lat="52.939119" lon="-3.150355"><ele>247</ele><time>2019-09-27T12:17:46Z</time><name>PT7945</name></trkpt>
<trkpt lat="52.939122" lon="-3.150366"><ele>247</ele><time>2019-09-27T12:17:47Z</time><name>PT7946</name></trkpt>
<trkpt lat="52.939124" lon="-3.150378"><ele>247</ele><time>2019-09-27T12:17:48Z</time><name>PT7947</name></trkpt>
<trkpt lat="52.939125" lon="-3.150387"><ele>247</ele><time>2019-09-27T12:17:49Z</time><name>PT7948</name></trkpt>
<trkpt lat="52.939125" lon="-3.150396"><ele>247</ele><time>2019-09-27T12:17:50Z</time><name>PT7949</name></trkpt>
<trkpt lat="52.939127" lon="-3.150403"><ele>248</ele><time>2019-09-27T12:17:51Z</time><name>PT7950</name></trkpt>
<trkpt lat="52.939129" lon="-3.150409"><ele>248</ele><time>2019-09-27T12:17:52Z</time><name>PT7951</name></trkpt>
<trkpt lat="52.939129" lon="-3.150418"><ele>248</ele><time>2019-09-27T12:17:53Z</time><name>PT7952</name></trkpt>
<trkpt lat="52.939130" lon="-3.150429"><ele>248</ele><time>2019-09-27T12:17:54Z</time><name>PT7953</name></trkpt>
<trkpt lat="52.939129" lon="-3.150439"><ele>248</ele><time>2019-09-27T12:17:55Z</time><name>PT7954</name></trkpt>
<trkpt lat="52.939132" lon="-3.150449"><ele>249</ele><time>2019-09-27T12:17:56Z</time><name>PT7955</name></trkpt>
<trkpt lat="52.939136" lon="-3.150460"><ele>249</ele><time>2019-09-27T12:17:57Z</time><name>PT7956</name></trkpt>
<trkpt lat="52.939142" lon="-3.150469"><ele>250</ele><time>2019-09-27T12:17:58Z</time><name>PT7957</name></trkpt>
<trkpt lat="52.939143" lon="-3.150479"><ele>249</ele><time>2019-09-27T12:17:59Z</time><name>PT7958</name></trkpt>
<trkpt lat="52.939145" lon="-3.150490"><ele>250</ele><time>2019-09-27T12:18:00Z</time><name>PT7959</name></trkpt>
<trkpt lat="52.939147" lon="-3.150499"><ele>250</ele><time>2019-09-27T12:18:01Z</time><name>PT7960</name></trkpt>
<trkpt lat="52.939152" lon="-3.150507"><ele>250</ele><time>2019-09-27T12:18:02Z</time><name>PT7961</name></trkpt>
<trkpt lat="52.939155" lon="-3.150514"><ele>250</ele><time>2019-09-27T12:18:03Z</time><name>PT7962</name></trkpt>
<trkpt lat="52.939156" lon="-3.150522"><ele>251</ele><time>2019-09-27T12:18:04Z</time><name>PT7963</name></trkpt>
<trkpt lat="52.939156" lon="-3.150531"><ele>250</ele><time>2019-09-27T12:18:05Z</time><name>PT7964</name></trkpt>
<trkpt lat="52.939158" lon="-3.150542"><ele>251</ele><time>2019-09-27T12:18:06Z</time><name>PT7965</name></trkpt>
<trkpt lat="52.939160" lon="-3.150554"><ele>251</ele><time>2019-09-27T12:18:07Z</time><name>PT7966</name></trkpt>
<trkpt lat="52.939161" lon="-3.150566"><ele>250</ele><time>2019-09-27T12:18:08Z</time><name>PT7967</name></trkpt>
<trkpt lat="52.939163" lon="-3.150577"><ele>249</ele><time>2019-09-27T12:18:09Z</time><name>PT7968</name></trkpt>
<trkpt lat="52.939167" lon="-3.150592"><ele>249</ele><time>2019-09-27T12:18:10Z</time><name>PT7969</name></trkpt>
<trkpt lat="52.939170" lon="-3.150605"><ele>249</ele><time>2019-09-27T12:18:11Z</time><name>PT7970</name></trkpt>
<trkpt lat="52.939172" lon="-3.150615"><ele>248</ele><time>2019-09-27T12:18:12Z</time><name>PT7971</name></trkpt>
<trkpt lat="52.939177" lon="-3.150628"><ele>248</ele><time>2019-09-27T12:18:13Z</time><name>PT7972</name></trkpt>
<trkpt lat="52.939179" lon="-3.150638"><ele>248</ele><time>2019-09-27T12:18:14Z</time><name>PT7973</name></trkpt>
<trkpt lat="52.939181" lon="-3.150651"><ele>248</ele><time>2019-09-27T12:18:15Z</time><name>PT7974</name></trkpt>
<trkpt lat="52.939187" lon="-3.150664"><ele>248</ele><time>2019-09-27T12:18:16Z</time><name>PT7975</name></trkpt>
<trkpt lat="52.939190" lon="-3.150677"><ele>248</ele><time>2019-09-27T12:18:17Z</time><name>PT7976</name></trkpt>
<trkpt lat="52.939192" lon="-3.150685"><ele>248</ele><time>2019-09-27T12:18:18Z</time><name>PT7977</name></trkpt>
<trkpt lat="52.939195" lon="-3.150694"><ele>248</ele><time>2019-09-27T12:18:19Z</time><name>PT7978</name></trkpt>
<trkpt lat="52.939200" lon="-3.150702"><ele>248</ele><time>2019-09-27T12:18:20Z</time><name>PT7979</name></trkpt>
<trkpt lat="52.939205" lon="-3.150712"><ele>248</ele><time>2019-09-27T12:18:21Z</time><name>PT7980</name></trkpt>
<trkpt lat="52.939206" lon="-3.150724"><ele>249</ele><time>2019-09-27T12:18:22Z</time><name>PT7981</name></trkpt>
<trkpt lat="52.939210" lon="-3.150735"><ele>248</ele><time>2019-09-27T12:18:23Z</time><name>PT7982</name></trkpt>
<trkpt lat="52.939216" lon="-3.150742"><ele>249</ele><time>2019-09-27T12:18:24Z</time><name>PT7983</name></trkpt>
<trkpt lat="52.939219" lon="-3.150749"><ele>249</ele><time>2019-09-27T12:18:25Z</time><name>PT7984</name></trkpt>
<trkpt lat="52.939222" lon="-3.150758"><ele>249</ele><time>2019-09-27T12:18:26Z</time><name>PT7985</name></trkpt>
<trkpt lat="52.939224" lon="-3.150766"><ele>249</ele><time>2019-09-27T12:18:27Z</time><name>PT7986</name></trkpt>
<trkpt lat="52.939225" lon="-3.150775"><ele>249</ele><time>2019-09-27T12:18:28Z</time><name>PT7987</name></trkpt>
<trkpt lat="52.939227" lon="-3.150786"><ele>249</ele><time>2019-09-27T12:18:29Z</time><name>PT7988</name></trkpt>
<trkpt lat="52.939230" lon="-3.150795"><ele>248</ele><time>2019-09-27T12:18:30Z</time><name>PT7989</name></trkpt>
<trkpt lat="52.939233" lon="-3.150803"><ele>248</ele><time>2019-09-27T12:18:31Z</time><name>PT7990</name></trkpt>
<trkpt lat="52.939236" lon="-3.150811"><ele>248</ele><time>2019-09-27T12:18:32Z</time><name>PT7991</name></trkpt>
<trkpt lat="52.939241" lon="-3.150822"><ele>248</ele><time>2019-09-27T12:18:33Z</time><name>PT7992</name></trkpt>
<trkpt lat="52.939244" lon="-3.150833"><ele>248</ele><time>2019-09-27T12:18:34Z</time><name>PT7993</name></trkpt>
<trkpt lat="52.939249" lon="-3.150840"><ele>248</ele><time>2019-09-27T12:18:35Z</time><name>PT7994</name></trkpt>
<trkpt lat="52.939254" lon="-3.150847"><ele>248</ele><time>2019-09-27T12:18:36Z</time><name>PT7995</name></trkpt>
<trkpt lat="52.939258" lon="-3.150855"><ele>248</ele><time>2019-09-27T12:18:37Z</time><name>PT7996</name></trkpt>
<trkpt lat="52.939264" lon="-3.150865"><ele>248</ele><time>2019-09-27T12:18:38Z</time><name>PT7997</name></trkpt>
<trkpt lat="52.939271" lon="-3.150874"><ele>249</ele><time>2019-09-27T12:18:39Z</time><name>PT7998</name></trkpt>
<trkpt lat="52.939274" lon="-3.150882"><ele>248</ele><time>2019-09-27T12:18:40Z</time><name>PT7999</name></trkpt>
<trkpt lat="52.939279" lon="-3.150893"><ele>248</ele><time>2019-09-27T12:18:41Z</time><name>PT8000</name></trkpt>
<trkpt lat="52.939286" lon="-3.150904"><ele>248</ele><time>2019-09-27T12:18:42Z</time><name>PT8001</name></trkpt>
<trkpt lat="52.939293" lon="-3.150909"><ele>248</ele><time>2019-09-27T12:18:43Z</time><name>PT8002</name></trkpt>
<trkpt lat="52.939300" lon="-3.150918"><ele>248</ele><time>2019-09-27T12:18:44Z</time><name>PT8003</name></trkpt>
<trkpt lat="52.939306" lon="-3.150925"><ele>248</ele><time>2019-09-27T12:18:45Z</time><name>PT8004</name></trkpt>
<trkpt lat="52.939314" lon="-3.150933"><ele>248</ele><time>2019-09-27T12:18:46Z</time><name>PT8005</name></trkpt>
<trkpt lat="52.939321" lon="-3.150943"><ele>248</ele><time>2019-09-27T12:18:47Z</time><name>PT8006</name></trkpt>
<trkpt lat="52.939332" lon="-3.150955"><ele>249</ele><time>2019-09-27T12:18:48Z</time><name>PT8007</name></trkpt>
<trkpt lat="52.939337" lon="-3.150963"><ele>248</ele><time>2019-09-27T12:18:49Z</time><name>PT8008</name></trkpt>
<trkpt lat="52.939343" lon="-3.150970"><ele>248</ele><time>2019-09-27T12:18:50Z</time><name>PT8009</name></trkpt>
<trkpt lat="52.939350" lon="-3.150979"><ele>248</ele><time>2019-09-27T12:18:51Z</time><name>PT8010</name></trkpt>
<trkpt lat="52.939356" lon="-3.150989"><ele>248</ele><time>2019-09-27T12:18:52Z</time><name>PT8011</name></trkpt>
<trkpt lat="52.939362" lon="-3.151000"><ele>248</ele><time>2019-09-27T12:18:53Z</time><name>PT8012</name></trkpt>
<trkpt lat="52.939366" lon="-3.151011"><ele>248</ele><time>2019-09-27T12:18:54Z</time><name>PT8013</name></trkpt>
<trkpt lat="52.939373" lon="-3.151020"><ele>247</ele><time>2019-09-27T12:18:55Z</time><name>PT8014</name></trkpt>
<trkpt lat="52.939377" lon="-3.151030"><ele>247</ele><time>2019-09-27T12:18:56Z</time><name>PT8015</name></trkpt>
<trkpt lat="52.939390" lon="-3.151036"><ele>247</ele><time>2019-09-27T12:18:57Z</time><name>PT8016</name></trkpt>
<trkpt lat="52.939396" lon="-3.151043"><ele>247</ele><time>2019-09-27T12:18:58Z</time><name>PT8017</name></trkpt>
<trkpt lat="52.939405" lon="-3.151052"><ele>247</ele><time>2019-09-27T12:18:59Z</time><name>PT8018</name></trkpt>
<trkpt lat="52.939405" lon="-3.151060"><ele>247</ele><time>2019-09-27T12:19:00Z</time><name>PT8019</name></trkpt>
<trkpt lat="52.939411" lon="-3.151069"><ele>247</ele><time>2019-09-27T12:19:01Z</time><name>PT8020</name></trkpt>
<trkpt lat="52.939417" lon="-3.151078"><ele>247</ele><time>2019-09-27T12:19:02Z</time><name>PT8021</name></trkpt>
<trkpt lat="52.939424" lon="-3.151091"><ele>247</ele><time>2019-09-27T12:19:03Z</time><name>PT8022</name></trkpt>
<trkpt lat="52.939435" lon="-3.151099"><ele>247</ele><time>2019-09-27T12:19:04Z</time><name>PT8023</name></trkpt>
<trkpt lat="52.939439" lon="-3.151103"><ele>247</ele><time>2019-09-27T12:19:05Z</time><name>PT8024</name></trkpt>
<trkpt lat="52.939444" lon="-3.151107"><ele>247</ele><time>2019-09-27T12:19:06Z</time><name>PT8025</name></trkpt>
<trkpt lat="52.939449" lon="-3.151114"><ele>247</ele><time>2019-09-27T12:19:07Z</time><name>PT8026</name></trkpt>
<trkpt lat="52.939453" lon="-3.151119"><ele>247</ele><time>2019-09-27T12:19:08Z</time><name>PT8027</name></trkpt>
<trkpt lat="52.939450" lon="-3.151120"><ele>246</ele><time>2019-09-27T12:19:09Z</time><name>PT8028</name></trkpt>
<trkpt lat="52.939458" lon="-3.151120"><ele>247</ele><time>2019-09-27T12:19:10Z</time><name>PT8029</name></trkpt>
<trkpt lat="52.939456" lon="-3.151121"><ele>247</ele><time>2019-09-27T12:19:11Z</time><name>PT8030</name></trkpt>
<trkpt lat="52.939463" lon="-3.151121"><ele>247</ele><time>2019-09-27T12:19:12Z</time><name>PT8031</name></trkpt>
<trkpt lat="52.939465" lon="-3.151121"><ele>248</ele><time>2019-09-27T12:19:58Z</time><name>PT8032</name></trkpt>
<trkpt lat="52.939466" lon="-3.151118"><ele>248</ele><time>2019-09-27T12:19:59Z</time><name>PT8033</name></trkpt>
<trkpt lat="52.939469" lon="-3.151126"><ele>248</ele><time>2019-09-27T12:20:32Z</time><name>PT8034</name></trkpt>
<trkpt lat="52.939477" lon="-3.151137"><ele>248</ele><time>2019-09-27T12:20:33Z</time><name>PT8035</name></trkpt>
<trkpt lat="52.939487" lon="-3.151154"><ele>248</ele><time>2019-09-27T12:20:34Z</time><name>PT8036</name></trkpt>
<trkpt lat="52.939498" lon="-3.151166"><ele>248</ele><time>2019-09-27T12:20:35Z</time><name>PT8037</name></trkpt>
<trkpt lat="52.939507" lon="-3.151180"><ele>248</ele><time>2019-09-27T12:20:36Z</time><name>PT8038</name></trkpt>
<trkpt lat="52.939518" lon="-3.151188"><ele>248</ele><time>2019-09-27T12:20:37Z</time><name>PT8039</name></trkpt>
<trkpt lat="52.939525" lon="-3.151201"><ele>247</ele><time>2019-09-27T12:20:38Z</time><name>PT8040</name></trkpt>
<trkpt lat="52.939534" lon="-3.151212"><ele>247</ele><time>2019-09-27T12:20:39Z</time><name>PT8041</name></trkpt>
<trkpt lat="52.939545" lon="-3.151225"><ele>247</ele><time>2019-09-27T12:20:40Z</time><name>PT8042</name></trkpt>
<trkpt lat="52.939551" lon="-3.151235"><ele>247</ele><time>2019-09-27T12:20:41Z</time><name>PT8043</name></trkpt>
<trkpt lat="52.939559" lon="-3.151245"><ele>247</ele><time>2019-09-27T12:20:42Z</time><name>PT8044</name></trkpt>
<trkpt lat="52.939564" lon="-3.151257"><ele>246</ele><time>2019-09-27T12:20:43Z</time><name>PT8045</name></trkpt>
<trkpt lat="52.939571" lon="-3.151275"><ele>246</ele><time>2019-09-27T12:20:44Z</time><name>PT8046</name></trkpt>
<trkpt lat="52.939576" lon="-3.151283"><ele>246</ele><time>2019-09-27T12:20:45Z</time><name>PT8047</name></trkpt>
<trkpt lat="52.939584" lon="-3.151294"><ele>246</ele><time>2019-09-27T12:20:46Z</time><name>PT8048</name></trkpt>
<trkpt lat="52.939586" lon="-3.151306"><ele>246</ele><time>2019-09-27T12:20:47Z</time><name>PT8049</name></trkpt>
<trkpt lat="52.939593" lon="-3.151316"><ele>246</ele><time>2019-09-27T12:20:48Z</time><name>PT8050</name></trkpt>
<trkpt lat="52.939598" lon="-3.151327"><ele>246</ele><time>2019-09-27T12:20:49Z</time><name>PT8051</name></trkpt>
<trkpt lat="52.939605" lon="-3.151342"><ele>246</ele><time>2019-09-27T12:20:50Z</time><name>PT8052</name></trkpt>
<trkpt lat="52.939611" lon="-3.151355"><ele>246</ele><time>2019-09-27T12:20:51Z</time><name>PT8053</name></trkpt>
<trkpt lat="52.939616" lon="-3.151368"><ele>246</ele><time>2019-09-27T12:20:52Z</time><name>PT8054</name></trkpt>
<trkpt lat="52.939616" lon="-3.151384"><ele>246</ele><time>2019-09-27T12:20:53Z</time><name>PT8055</name></trkpt>
<trkpt lat="52.939621" lon="-3.151394"><ele>246</ele><time>2019-09-27T12:20:54Z</time><name>PT8056</name></trkpt>
<trkpt lat="52.939629" lon="-3.151402"><ele>246</ele><time>2019-09-27T12:20:55Z</time><name>PT8057</name></trkpt>
<trkpt lat="52.939636" lon="-3.151408"><ele>246</ele><time>2019-09-27T12:20:56Z</time><name>PT8058</name></trkpt>
<trkpt lat="52.939641" lon="-3.151417"><ele>246</ele><time>2019-09-27T12:20:57Z</time><name>PT8059</name></trkpt>
<trkpt lat="52.939650" lon="-3.151417"><ele>246</ele><time>2019-09-27T12:20:58Z</time><name>PT8060</name></trkpt>
<trkpt lat="52.939657" lon="-3.151424"><ele>246</ele><time>2019-09-27T12:20:59Z</time><name>PT8061</name></trkpt>
<trkpt lat="52.939663" lon="-3.151434"><ele>246</ele><time>2019-09-27T12:21:00Z</time><name>PT8062</name></trkpt>
<trkpt lat="52.939668" lon="-3.151444"><ele>245</ele><time>2019-09-27T12:21:01Z</time><name>PT8063</name></trkpt>
<trkpt lat="52.939677" lon="-3.151453"><ele>245</ele><time>2019-09-27T12:21:02Z</time><name>PT8064</name></trkpt>
<trkpt lat="52.939683" lon="-3.151460"><ele>245</ele><time>2019-09-27T12:21:03Z</time><name>PT8065</name></trkpt>
<trkpt lat="52.939689" lon="-3.151466"><ele>245</ele><time>2019-09-27T12:21:04Z</time><name>PT8066</name></trkpt>
<trkpt lat="52.939693" lon="-3.151472"><ele>245</ele><time>2019-09-27T12:21:05Z</time><name>PT8067</name></trkpt>
<trkpt lat="52.939693" lon="-3.151475"><ele>246</ele><time>2019-09-27T12:21:06Z</time><name>PT8068</name></trkpt>
<trkpt lat="52.939703" lon="-3.151497"><ele>247</ele><time>2019-09-27T12:21:43Z</time><name>PT8069</name></trkpt>
<trkpt lat="52.939703" lon="-3.151502"><ele>247</ele><time>2019-09-27T12:21:44Z</time><name>PT8070</name></trkpt>
<trkpt lat="52.939702" lon="-3.151505"><ele>247</ele><time>2019-09-27T12:21:45Z</time><name>PT8071</name></trkpt>
<trkpt lat="52.939698" lon="-3.151508"><ele>247</ele><time>2019-09-27T12:21:46Z</time><name>PT8072</name></trkpt>
<trkpt lat="52.939698" lon="-3.151510"><ele>247</ele><time>2019-09-27T12:21:48Z</time><name>PT8073</name></trkpt>
<trkpt lat="52.939700" lon="-3.151509"><ele>248</ele><time>2019-09-27T12:21:49Z</time><name>PT8074</name></trkpt>
<trkpt lat="52.939704" lon="-3.151509"><ele>248</ele><time>2019-09-27T12:21:50Z</time><name>PT8075</name></trkpt>
<trkpt lat="52.939710" lon="-3.151507"><ele>249</ele><time>2019-09-27T12:21:51Z</time><name>PT8076</name></trkpt>
<trkpt lat="52.939717" lon="-3.151502"><ele>249</ele><time>2019-09-27T12:21:52Z</time><name>PT8077</name></trkpt>
<trkpt lat="52.939719" lon="-3.151500"><ele>249</ele><time>2019-09-27T12:21:53Z</time><name>PT8078</name></trkpt>
<trkpt lat="52.939718" lon="-3.151508"><ele>249</ele><time>2019-09-27T12:21:54Z</time><name>PT8079</name></trkpt>
<trkpt lat="52.939720" lon="-3.151508"><ele>249</ele><time>2019-09-27T12:21:55Z</time><name>PT8080</name></trkpt>
<trkpt lat="52.939723" lon="-3.151515"><ele>249</ele><time>2019-09-27T12:21:56Z</time><name>PT8081</name></trkpt>
<trkpt lat="52.939727" lon="-3.151518"><ele>250</ele><time>2019-09-27T12:21:57Z</time><name>PT8082</name></trkpt>
<trkpt lat="52.939734" lon="-3.151518"><ele>250</ele><time>2019-09-27T12:21:58Z</time><name>PT8083</name></trkpt>
<trkpt lat="52.939739" lon="-3.151517"><ele>250</ele><time>2019-09-27T12:21:59Z</time><name>PT8084</name></trkpt>
<trkpt lat="52.939742" lon="-3.151513"><ele>251</ele><time>2019-09-27T12:22:00Z</time><name>PT8085</name></trkpt>
<trkpt lat="52.939747" lon="-3.151510"><ele>251</ele><time>2019-09-27T12:22:01Z</time><name>PT8086</name></trkpt>
<trkpt lat="52.939744" lon="-3.151516"><ele>252</ele><time>2019-09-27T12:22:02Z</time><name>PT8087</name></trkpt>
<trkpt lat="52.939742" lon="-3.151517"><ele>252</ele><time>2019-09-27T12:22:03Z</time><name>PT8088</name></trkpt>
<trkpt lat="52.939739" lon="-3.151521"><ele>253</ele><time>2019-09-27T12:22:04Z</time><name>PT8089</name></trkpt>
<trkpt lat="52.939732" lon="-3.151528"><ele>252</ele><time>2019-09-27T12:22:11Z</time><name>PT8090</name></trkpt>
<trkpt lat="52.939740" lon="-3.151512"><ele>253</ele><time>2019-09-27T12:22:12Z</time><name>PT8091</name></trkpt>
<trkpt lat="52.939738" lon="-3.151513"><ele>253</ele><time>2019-09-27T12:22:13Z</time><name>PT8092</name></trkpt>
<trkpt lat="52.939735" lon="-3.151520"><ele>252</ele><time>2019-09-27T12:22:14Z</time><name>PT8093</name></trkpt>
<trkpt lat="52.939731" lon="-3.151522"><ele>252</ele><time>2019-09-27T12:22:15Z</time><name>PT8094</name></trkpt>
<trkpt lat="52.939728" lon="-3.151536"><ele>253</ele><time>2019-09-27T12:22:16Z</time><name>PT8095</name></trkpt>
<trkpt lat="52.939727" lon="-3.151534"><ele>252</ele><time>2019-09-27T12:22:17Z</time><name>PT8096</name></trkpt>
<trkpt lat="52.939728" lon="-3.151530"><ele>252</ele><time>2019-09-27T12:22:18Z</time><name>PT8097</name></trkpt>
<trkpt lat="52.939722" lon="-3.151538"><ele>253</ele><time>2019-09-27T12:22:19Z</time><name>PT8098</name></trkpt>
<trkpt lat="52.939724" lon="-3.151536"><ele>253</ele><time>2019-09-27T12:22:20Z</time><name>PT8099</name></trkpt>
<trkpt lat="52.939725" lon="-3.151528"><ele>253</ele><time>2019-09-27T12:22:21Z</time><name>PT8100</name></trkpt>
<trkpt lat="52.939728" lon="-3.151536"><ele>254</ele><time>2019-09-27T12:22:36Z</time><name>PT8101</name></trkpt>
<trkpt lat="52.939732" lon="-3.151536"><ele>255</ele><time>2019-09-27T12:22:37Z</time><name>PT8102</name></trkpt>
<trkpt lat="52.939735" lon="-3.151540"><ele>255</ele><time>2019-09-27T12:22:38Z</time><name>PT8103</name></trkpt>
<trkpt lat="52.939735" lon="-3.151538"><ele>255</ele><time>2019-09-27T12:22:39Z</time><name>PT8104</name></trkpt>
<trkpt lat="52.939735" lon="-3.151533"><ele>255</ele><time>2019-09-27T12:22:40Z</time><name>PT8105</name></trkpt>
<trkpt lat="52.939737" lon="-3.151528"><ele>254</ele><time>2019-09-27T12:22:41Z</time><name>PT8106</name></trkpt>
<trkpt lat="52.939740" lon="-3.151522"><ele>254</ele><time>2019-09-27T12:22:42Z</time><name>PT8107</name></trkpt>
<trkpt lat="52.939740" lon="-3.151529"><ele>254</ele><time>2019-09-27T12:22:43Z</time><name>PT8108</name></trkpt>
<trkpt lat="52.939741" lon="-3.151530"><ele>254</ele><time>2019-09-27T12:22:44Z</time><name>PT8109</name></trkpt>
<trkpt lat="52.939744" lon="-3.151528"><ele>254</ele><time>2019-09-27T12:22:45Z</time><name>PT8110</name></trkpt>
<trkpt lat="52.939745" lon="-3.151527"><ele>254</ele><time>2019-09-27T12:22:46Z</time><name>PT8111</name></trkpt>
<trkpt lat="52.939745" lon="-3.151527"><ele>254</ele><time>2019-09-27T12:22:48Z</time><name>PT8112</name></trkpt>
<trkpt lat="52.939746" lon="-3.151522"><ele>254</ele><time>2019-09-27T12:22:49Z</time><name>PT8113</name></trkpt>
<trkpt lat="52.939746" lon="-3.151522"><ele>254</ele><time>2019-09-27T12:22:50Z</time><name>PT8114</name></trkpt>
<trkpt lat="52.939744" lon="-3.151523"><ele>254</ele><time>2019-09-27T12:22:51Z</time><name>PT8115</name></trkpt>
<trkpt lat="52.939740" lon="-3.151527"><ele>254</ele><time>2019-09-27T12:22:52Z</time><name>PT8116</name></trkpt>
<trkpt lat="52.939736" lon="-3.151527"><ele>254</ele><time>2019-09-27T12:22:53Z</time><name>PT8117</name></trkpt>
<trkpt lat="52.939732" lon="-3.151524"><ele>254</ele><time>2019-09-27T12:22:54Z</time><name>PT8118</name></trkpt>
<trkpt lat="52.939730" lon="-3.151516"><ele>253</ele><time>2019-09-27T12:22:56Z</time><name>PT8119</name></trkpt>
<trkpt lat="52.939733" lon="-3.151510"><ele>253</ele><time>2019-09-27T12:22:57Z</time><name>PT8120</name></trkpt>
<trkpt lat="52.939737" lon="-3.151511"><ele>253</ele><time>2019-09-27T12:23:02Z</time><name>PT8121</name></trkpt>
<trkpt lat="52.939736" lon="-3.151511"><ele>253</ele><time>2019-09-27T12:23:03Z</time><name>PT8122</name></trkpt>
<trkpt lat="52.939736" lon="-3.151519"><ele>253</ele><time>2019-09-27T12:23:04Z</time><name>PT8123</name></trkpt>
<trkpt lat="52.939739" lon="-3.151520"><ele>253</ele><time>2019-09-27T12:23:05Z</time><name>PT8124</name></trkpt>
<trkpt lat="52.939745" lon="-3.151522"><ele>253</ele><time>2019-09-27T12:23:06Z</time><name>PT8125</name></trkpt>
<trkpt lat="52.939749" lon="-3.151523"><ele>253</ele><time>2019-09-27T12:23:07Z</time><name>PT8126</name></trkpt>
<trkpt lat="52.939746" lon="-3.151525"><ele>252</ele><time>2019-09-27T12:23:09Z</time><name>PT8127</name></trkpt>
<trkpt lat="52.939748" lon="-3.151531"><ele>251</ele><time>2019-09-27T12:23:10Z</time><name>PT8128</name></trkpt>
<trkpt lat="52.939746" lon="-3.151531"><ele>251</ele><time>2019-09-27T12:23:11Z</time><name>PT8129</name></trkpt>
<trkpt lat="52.939746" lon="-3.151534"><ele>251</ele><time>2019-09-27T12:23:12Z</time><name>PT8130</name></trkpt>
<trkpt lat="52.939741" lon="-3.151532"><ele>250</ele><time>2019-09-27T12:23:13Z</time><name>PT8131</name></trkpt>
<trkpt lat="52.939744" lon="-3.151540"><ele>250</ele><time>2019-09-27T12:23:14Z</time><name>PT8132</name></trkpt>
<trkpt lat="52.939741" lon="-3.151534"><ele>249</ele><time>2019-09-27T12:23:15Z</time><name>PT8133</name></trkpt>
<trkpt lat="52.939741" lon="-3.151531"><ele>249</ele><time>2019-09-27T12:23:16Z</time><name>PT8134</name></trkpt>
<trkpt lat="52.939735" lon="-3.151519"><ele>249</ele><time>2019-09-27T12:23:17Z</time><name>PT8135</name></trkpt>
<trkpt lat="52.939727" lon="-3.151522"><ele>249</ele><time>2019-09-27T12:23:18Z</time><name>PT8136</name></trkpt>
<trkpt lat="52.939722" lon="-3.151521"><ele>249</ele><time>2019-09-27T12:23:19Z</time><name>PT8137</name></trkpt>
<trkpt lat="52.939715" lon="-3.151524"><ele>249</ele><time>2019-09-27T12:23:20Z</time><name>PT8138</name></trkpt>
<trkpt lat="52.939711" lon="-3.151522"><ele>248</ele><time>2019-09-27T12:23:21Z</time><name>PT8139</name></trkpt>
<trkpt lat="52.939710" lon="-3.151521"><ele>248</ele><time>2019-09-27T12:23:22Z</time><name>PT8140</name></trkpt>
<trkpt lat="52.939699" lon="-3.151517"><ele>247</ele><time>2019-09-27T12:23:35Z</time><name>PT8141</name></trkpt>
<trkpt lat="52.939696" lon="-3.151519"><ele>247</ele><time>2019-09-27T12:23:36Z</time><name>PT8142</name></trkpt>
<trkpt lat="52.939697" lon="-3.151515"><ele>247</ele><time>2019-09-27T12:23:37Z</time><name>PT8143</name></trkpt>
<trkpt lat="52.939699" lon="-3.151509"><ele>247</ele><time>2019-09-27T12:23:38Z</time><name>PT8144</name></trkpt>
<trkpt lat="52.939700" lon="-3.151501"><ele>247</ele><time>2019-09-27T12:23:39Z</time><name>PT8145</name></trkpt>
<trkpt lat="52.939704" lon="-3.151497"><ele>247</ele><time>2019-09-27T12:23:40Z</time><name>PT8146</name></trkpt>
<trkpt lat="52.939706" lon="-3.151503"><ele>247</ele><time>2019-09-27T12:23:41Z</time><name>PT8147</name></trkpt>
<trkpt lat="52.939709" lon="-3.151498"><ele>247</ele><time>2019-09-27T12:23:42Z</time><name>PT8148</name></trkpt>
<trkpt lat="52.939709" lon="-3.151496"><ele>247</ele><time>2019-09-27T12:23:43Z</time><name>PT8149</name></trkpt>
<trkpt lat="52.939709" lon="-3.151500"><ele>247</ele><time>2019-09-27T12:23:54Z</time><name>PT8150</name></trkpt>
<trkpt lat="52.939702" lon="-3.151490"><ele>247</ele><time>2019-09-27T12:23:55Z</time><name>PT8151</name></trkpt>
<trkpt lat="52.939701" lon="-3.151491"><ele>247</ele><time>2019-09-27T12:23:56Z</time><name>PT8152</name></trkpt>
<trkpt lat="52.939704" lon="-3.151496"><ele>247</ele><time>2019-09-27T12:24:45Z</time><name>PT8153</name></trkpt>
<trkpt lat="52.939706" lon="-3.151503"><ele>248</ele><time>2019-09-27T12:24:46Z</time><name>PT8154</name></trkpt>
<trkpt lat="52.939710" lon="-3.151508"><ele>248</ele><time>2019-09-27T12:24:47Z</time><name>PT8155</name></trkpt>
<trkpt lat="52.939711" lon="-3.151506"><ele>248</ele><time>2019-09-27T12:24:48Z</time><name>PT8156</name></trkpt>
<trkpt lat="52.939714" lon="-3.151513"><ele>249</ele><time>2019-09-27T12:24:49Z</time><name>PT8157</name></trkpt>
<trkpt lat="52.939718" lon="-3.151529"><ele>250</ele><time>2019-09-27T12:25:09Z</time><name>PT8158</name></trkpt>
<trkpt lat="52.939720" lon="-3.151533"><ele>250</ele><time>2019-09-27T12:25:10Z</time><name>PT8159</name></trkpt>
<trkpt lat="52.939716" lon="-3.151521"><ele>251</ele><time>2019-09-27T12:25:13Z</time><name>PT8160</name></trkpt>
<trkpt lat="52.939715" lon="-3.151517"><ele>251</ele><time>2019-09-27T12:25:14Z</time><name>PT8161</name></trkpt>
<trkpt lat="52.939718" lon="-3.151523"><ele>251</ele><time>2019-09-27T12:25:15Z</time><name>PT8162</name></trkpt>
<trkpt lat="52.939721" lon="-3.151527"><ele>252</ele><time>2019-09-27T12:25:16Z</time><name>PT8163</name></trkpt>
<trkpt lat="52.939714" lon="-3.151532"><ele>251</ele><time>2019-09-27T12:25:26Z</time><name>PT8164</name></trkpt>
<trkpt lat="52.939712" lon="-3.151536"><ele>251</ele><time>2019-09-27T12:25:27Z</time><name>PT8165</name></trkpt>
<trkpt lat="52.939716" lon="-3.151545"><ele>251</ele><time>2019-09-27T12:25:28Z</time><name>PT8166</name></trkpt>
<trkpt lat="52.939731" lon="-3.151550"><ele>251</ele><time>2019-09-27T12:25:29Z</time><name>PT8167</name></trkpt>
<trkpt lat="52.939728" lon="-3.151553"><ele>252</ele><time>2019-09-27T12:25:30Z</time><name>PT8168</name></trkpt>
<trkpt lat="52.939724" lon="-3.151554"><ele>252</ele><time>2019-09-27T12:25:31Z</time><name>PT8169</name></trkpt>
<trkpt lat="52.939722" lon="-3.151563"><ele>251</ele><time>2019-09-27T12:25:32Z</time><name>PT8170</name></trkpt>
<trkpt lat="52.939722" lon="-3.151564"><ele>251</ele><time>2019-09-27T12:25:33Z</time><name>PT8171</name></trkpt>
<trkpt lat="52.939723" lon="-3.151570"><ele>250</ele><time>2019-09-27T12:25:34Z</time><name>PT8172</name></trkpt>
<trkpt lat="52.939725" lon="-3.151569"><ele>251</ele><time>2019-09-27T12:25:35Z</time><name>PT8173</name></trkpt>
<trkpt lat="52.939729" lon="-3.151574"><ele>251</ele><time>2019-09-27T12:25:36Z</time><name>PT8174</name></trkpt>
<trkpt lat="52.939732" lon="-3.151577"><ele>251</ele><time>2019-09-27T12:25:37Z</time><name>PT8175</name></trkpt>
<trkpt lat="52.939726" lon="-3.151572"><ele>251</ele><time>2019-09-27T12:25:38Z</time><name>PT8176</name></trkpt>
<trkpt lat="52.939725" lon="-3.151561"><ele>251</ele><time>2019-09-27T12:25:39Z</time><name>PT8177</name></trkpt>
<trkpt lat="52.939723" lon="-3.151557"><ele>250</ele><time>2019-09-27T12:25:40Z</time><name>PT8178</name></trkpt>
<trkpt lat="52.939724" lon="-3.151553"><ele>251</ele><time>2019-09-27T12:25:41Z</time><name>PT8179</name></trkpt>
<trkpt lat="52.939730" lon="-3.151545"><ele>250</ele><time>2019-09-27T12:25:42Z</time><name>PT8180</name></trkpt>
<trkpt lat="52.939730" lon="-3.151539"><ele>250</ele><time>2019-09-27T12:25:43Z</time><name>PT8181</name></trkpt>
<trkpt lat="52.939731" lon="-3.151532"><ele>251</ele><time>2019-09-27T12:25:44Z</time><name>PT8182</name></trkpt>
<trkpt lat="52.939733" lon="-3.151527"><ele>250</ele><time>2019-09-27T12:25:45Z</time><name>PT8183</name></trkpt>
<trkpt lat="52.939737" lon="-3.151531"><ele>250</ele><time>2019-09-27T12:25:47Z</time><name>PT8184</name></trkpt>
<trkpt lat="52.939742" lon="-3.151533"><ele>249</ele><time>2019-09-27T12:25:48Z</time><name>PT8185</name></trkpt>
<trkpt lat="52.939745" lon="-3.151530"><ele>250</ele><time>2019-09-27T12:25:49Z</time><name>PT8186</name></trkpt>
<trkpt lat="52.939754" lon="-3.151524"><ele>249</ele><time>2019-09-27T12:25:50Z</time><name>PT8187</name></trkpt>
<trkpt lat="52.939757" lon="-3.151509"><ele>249</ele><time>2019-09-27T12:25:51Z</time><name>PT8188</name></trkpt>
<trkpt lat="52.939758" lon="-3.151497"><ele>248</ele><time>2019-09-27T12:25:52Z</time><name>PT8189</name></trkpt>
<trkpt lat="52.939761" lon="-3.151489"><ele>247</ele><time>2019-09-27T12:25:53Z</time><name>PT8190</name></trkpt>
<trkpt lat="52.939763" lon="-3.151490"><ele>247</ele><time>2019-09-27T12:25:54Z</time><name>PT8191</name></trkpt>
<trkpt lat="52.939764" lon="-3.151490"><ele>246</ele><time>2019-09-27T12:25:55Z</time><name>PT8192</name></trkpt>
<trkpt lat="52.939773" lon="-3.151489"><ele>245</ele><time>2019-09-27T12:25:56Z</time><name>PT8193</name></trkpt>
<trkpt lat="52.939781" lon="-3.151497"><ele>245</ele><time>2019-09-27T12:25:57Z</time><name>PT8194</name></trkpt>
<trkpt lat="52.939781" lon="-3.151506"><ele>244</ele><time>2019-09-27T12:25:58Z</time><name>PT8195</name></trkpt>
<trkpt lat="52.939794" lon="-3.151508"><ele>244</ele><time>2019-09-27T12:25:59Z</time><name>PT8196</name></trkpt>
<trkpt lat="52.939792" lon="-3.151514"><ele>243</ele><time>2019-09-27T12:26:00Z</time><name>PT8197</name></trkpt>
<trkpt lat="52.939789" lon="-3.151508"><ele>243</ele><time>2019-09-27T12:26:01Z</time><name>PT8198</name></trkpt>
<trkpt lat="52.939778" lon="-3.151498"><ele>242</ele><time>2019-09-27T12:26:02Z</time><name>PT8199</name></trkpt>
<trkpt lat="52.939774" lon="-3.151499"><ele>242</ele><time>2019-09-27T12:26:03Z</time><name>PT8200</name></trkpt>
<trkpt lat="52.939771" lon="-3.151501"><ele>241</ele><time>2019-09-27T12:26:04Z</time><name>PT8201</name></trkpt>
<trkpt lat="52.939775" lon="-3.151493"><ele>242</ele><time>2019-09-27T12:26:05Z</time><name>PT8202</name></trkpt>
<trkpt lat="52.939778" lon="-3.151490"><ele>243</ele><time>2019-09-27T12:26:06Z</time><name>PT8203</name></trkpt>
<trkpt lat="52.939779" lon="-3.151493"><ele>243</ele><time>2019-09-27T12:26:07Z</time><name>PT8204</name></trkpt>
<trkpt lat="52.939783" lon="-3.151489"><ele>243</ele><time>2019-09-27T12:26:08Z</time><name>PT8205</name></trkpt>
<trkpt lat="52.939781" lon="-3.151492"><ele>244</ele><time>2019-09-27T12:26:09Z</time><name>PT8206</name></trkpt>
<trkpt lat="52.939780" lon="-3.151492"><ele>244</ele><time>2019-09-27T12:26:10Z</time><name>PT8207</name></trkpt>
<trkpt lat="52.939776" lon="-3.151497"><ele>245</ele><time>2019-09-27T12:26:11Z</time><name>PT8208</name></trkpt>
<trkpt lat="52.939766" lon="-3.151497"><ele>245</ele><time>2019-09-27T12:26:16Z</time><name>PT8209</name></trkpt>
<trkpt lat="52.939761" lon="-3.151490"><ele>245</ele><time>2019-09-27T12:26:17Z</time><name>PT8210</name></trkpt>
<trkpt lat="52.939759" lon="-3.151477"><ele>245</ele><time>2019-09-27T12:26:18Z</time><name>PT8211</name></trkpt>
<trkpt lat="52.939755" lon="-3.151476"><ele>246</ele><time>2019-09-27T12:26:19Z</time><name>PT8212</name></trkpt>
<trkpt lat="52.939755" lon="-3.151490"><ele>246</ele><time>2019-09-27T12:26:24Z</time><name>PT8213</name></trkpt>
<trkpt lat="52.939748" lon="-3.151516"><ele>246</ele><time>2019-09-27T12:26:25Z</time><name>PT8214</name></trkpt>
<trkpt lat="52.939746" lon="-3.151529"><ele>246</ele><time>2019-09-27T12:26:26Z</time><name>PT8215</name></trkpt>
<trkpt lat="52.939741" lon="-3.151537"><ele>246</ele><time>2019-09-27T12:26:27Z</time><name>PT8216</name></trkpt>
<trkpt lat="52.939737" lon="-3.151539"><ele>246</ele><time>2019-09-27T12:26:28Z</time><name>PT8217</name></trkpt>
<trkpt lat="52.939732" lon="-3.151540"><ele>246</ele><time>2019-09-27T12:26:29Z</time><name>PT8218</name></trkpt>
<trkpt lat="52.939726" lon="-3.151538"><ele>246</ele><time>2019-09-27T12:26:30Z</time><name>PT8219</name></trkpt>
<trkpt lat="52.939726" lon="-3.151526"><ele>245</ele><time>2019-09-27T12:26:32Z</time><name>PT8220</name></trkpt>
<trkpt lat="52.939724" lon="-3.151525"><ele>245</ele><time>2019-09-27T12:26:33Z</time><name>PT8221</name></trkpt>
<trkpt lat="52.939717" lon="-3.151528"><ele>245</ele><time>2019-09-27T12:26:34Z</time><name>PT8222</name></trkpt>
<trkpt lat="52.939710" lon="-3.151537"><ele>244</ele><time>2019-09-27T12:26:35Z</time><name>PT8223</name></trkpt>
<trkpt lat="52.939710" lon="-3.151532"><ele>245</ele><time>2019-09-27T12:26:36Z</time><name>PT8224</name></trkpt>
<trkpt lat="52.939715" lon="-3.151539"><ele>244</ele><time>2019-09-27T12:26:37Z</time><name>PT8225</name></trkpt>
<trkpt lat="52.939711" lon="-3.151537"><ele>243</ele><time>2019-09-27T12:26:38Z</time><name>PT8226</name></trkpt>
<trkpt lat="52.939718" lon="-3.151525"><ele>243</ele><time>2019-09-27T12:26:39Z</time><name>PT8227</name></trkpt>
<trkpt lat="52.939720" lon="-3.151533"><ele>242</ele><time>2019-09-27T12:26:40Z</time><name>PT8228</name></trkpt>
<trkpt lat="52.939723" lon="-3.151539"><ele>242</ele><time>2019-09-27T12:26:41Z</time><name>PT8229</name></trkpt>
<trkpt lat="52.939721" lon="-3.151547"><ele>242</ele><time>2019-09-27T12:26:42Z</time><name>PT8230</name></trkpt>
<trkpt lat="52.939717" lon="-3.151550"><ele>242</ele><time>2019-09-27T12:26:43Z</time><name>PT8231</name></trkpt>
<trkpt lat="52.939715" lon="-3.151555"><ele>242</ele><time>2019-09-27T12:26:44Z</time><name>PT8232</name></trkpt>
<trkpt lat="52.939708" lon="-3.151556"><ele>242</ele><time>2019-09-27T12:26:46Z</time><name>PT8233</name></trkpt>
<trkpt lat="52.939708" lon="-3.151557"><ele>242</ele><time>2019-09-27T12:26:47Z</time><name>PT8234</name></trkpt>
<trkpt lat="52.939705" lon="-3.151556"><ele>241</ele><time>2019-09-27T12:26:48Z</time><name>PT8235</name></trkpt>
<trkpt lat="52.939711" lon="-3.151549"><ele>241</ele><time>2019-09-27T12:26:49Z</time><name>PT8236</name></trkpt>
<trkpt lat="52.939711" lon="-3.151544"><ele>241</ele><time>2019-09-27T12:26:50Z</time><name>PT8237</name></trkpt>
<trkpt lat="52.939709" lon="-3.151552"><ele>240</ele><time>2019-09-27T12:26:51Z</time><name>PT8238</name></trkpt>
<trkpt lat="52.939706" lon="-3.151547"><ele>240</ele><time>2019-09-27T12:26:52Z</time><name>PT8239</name></trkpt>
<trkpt lat="52.939706" lon="-3.151540"><ele>240</ele><time>2019-09-27T12:26:53Z</time><name>PT8240</name></trkpt>
<trkpt lat="52.939708" lon="-3.151534"><ele>239</ele><time>2019-09-27T12:26:54Z</time><name>PT8241</name></trkpt>
<trkpt lat="52.939711" lon="-3.151525"><ele>239</ele><time>2019-09-27T12:26:55Z</time><name>PT8242</name></trkpt>
<trkpt lat="52.939717" lon="-3.151516"><ele>238</ele><time>2019-09-27T12:26:57Z</time><name>PT8243</name></trkpt>
<trkpt lat="52.939717" lon="-3.151512"><ele>238</ele><time>2019-09-27T12:26:58Z</time><name>PT8244</name></trkpt>
<trkpt lat="52.939716" lon="-3.151511"><ele>238</ele><time>2019-09-27T12:26:59Z</time><name>PT8245</name></trkpt>
<trkpt lat="52.939715" lon="-3.151495"><ele>238</ele><time>2019-09-27T12:27:00Z</time><name>PT8246</name></trkpt>
<trkpt lat="52.939712" lon="-3.151498"><ele>238</ele><time>2019-09-27T12:27:01Z</time><name>PT8247</name></trkpt>
<trkpt lat="52.939707" lon="-3.151487"><ele>237</ele><time>2019-09-27T12:27:02Z</time><name>PT8248</name></trkpt>
<trkpt lat="52.939700" lon="-3.151483"><ele>237</ele><time>2019-09-27T12:27:03Z</time><name>PT8249</name></trkpt>
<trkpt lat="52.939693" lon="-3.151488"><ele>236</ele><time>2019-09-27T12:27:04Z</time><name>PT8250</name></trkpt>
<trkpt lat="52.939689" lon="-3.151488"><ele>235</ele><time>2019-09-27T12:27:05Z</time><name>PT8251</name></trkpt>
<trkpt lat="52.939684" lon="-3.151476"><ele>232</ele><time>2019-09-27T12:27:06Z</time><name>PT8252</name></trkpt>
<trkpt lat="52.939680" lon="-3.151477"><ele>232</ele><time>2019-09-27T12:27:07Z</time><name>PT8253</name></trkpt>
<trkpt lat="52.939683" lon="-3.151472"><ele>232</ele><time>2019-09-27T12:27:08Z</time><name>PT8254</name></trkpt>
<trkpt lat="52.939676" lon="-3.151480"><ele>230</ele><time>2019-09-27T12:27:09Z</time><name>PT8255</name></trkpt>
<trkpt lat="52.939673" lon="-3.151476"><ele>229</ele><time>2019-09-27T12:27:10Z</time><name>PT8256</name></trkpt>
<trkpt lat="52.939668" lon="-3.151480"><ele>229</ele><time>2019-09-27T12:27:11Z</time><name>PT8257</name></trkpt>
<trkpt lat="52.939674" lon="-3.151475"><ele>228</ele><time>2019-09-27T12:27:12Z</time><name>PT8258</name></trkpt>
<trkpt lat="52.939691" lon="-3.151469"><ele>229</ele><time>2019-09-27T12:27:13Z</time><name>PT8259</name></trkpt>
<trkpt lat="52.939688" lon="-3.151476"><ele>229</ele><time>2019-09-27T12:27:14Z</time><name>PT8260</name></trkpt>
<trkpt lat="52.939685" lon="-3.151486"><ele>227</ele><time>2019-09-27T12:27:15Z</time><name>PT8261</name></trkpt>
<trkpt lat="52.939687" lon="-3.151491"><ele>226</ele><time>2019-09-27T12:27:16Z</time><name>PT8262</name></trkpt>
<trkpt lat="52.939685" lon="-3.151485"><ele>225</ele><time>2019-09-27T12:27:35Z</time><name>PT8263</name></trkpt>
<trkpt lat="52.939691" lon="-3.151483"><ele>225</ele><time>2019-09-27T12:27:36Z</time><name>PT8264</name></trkpt>
<trkpt lat="52.939693" lon="-3.151484"><ele>224</ele><time>2019-09-27T12:27:37Z</time><name>PT8265</name></trkpt>
<trkpt lat="52.939694" lon="-3.151479"><ele>224</ele><time>2019-09-27T12:27:38Z</time><name>PT8266</name></trkpt>
<trkpt lat="52.939702" lon="-3.151475"><ele>224</ele><time>2019-09-27T12:27:39Z</time><name>PT8267</name></trkpt>
<trkpt lat="52.939716" lon="-3.151503"><ele>229</ele><time>2019-09-27T12:28:46Z</time><name>PT8268</name></trkpt>
<trkpt lat="52.939712" lon="-3.151504"><ele>230</ele><time>2019-09-27T12:28:47Z</time><name>PT8269</name></trkpt>
<trkpt lat="52.939713" lon="-3.151514"><ele>233</ele><time>2019-09-27T12:29:29Z</time><name>PT8270</name></trkpt>
<trkpt lat="52.939712" lon="-3.151517"><ele>234</ele><time>2019-09-27T12:29:30Z</time><name>PT8271</name></trkpt>
<trkpt lat="52.939710" lon="-3.151520"><ele>235</ele><time>2019-09-27T12:29:31Z</time><name>PT8272</name></trkpt>
<trkpt lat="52.939709" lon="-3.151520"><ele>236</ele><time>2019-09-27T12:29:32Z</time><name>PT8273</name></trkpt>
<trkpt lat="52.939706" lon="-3.151520"><ele>236</ele><time>2019-09-27T12:29:40Z</time><name>PT8274</name></trkpt>
<trkpt lat="52.939706" lon="-3.151519"><ele>236</ele><time>2019-09-27T12:29:41Z</time><name>PT8275</name></trkpt>
<trkpt lat="52.939705" lon="-3.151519"><ele>236</ele><time>2019-09-27T12:29:42Z</time><name>PT8276</name></trkpt>
<trkpt lat="52.939705" lon="-3.151525"><ele>237</ele><time>2019-09-27T12:29:43Z</time><name>PT8277</name></trkpt>
<trkpt lat="52.939709" lon="-3.151526"><ele>238</ele><time>2019-09-27T12:29:51Z</time><name>PT8278</name></trkpt>
<trkpt lat="52.939709" lon="-3.151526"><ele>239</ele><time>2019-09-27T12:29:52Z</time><name>PT8279</name></trkpt>
<trkpt lat="52.939707" lon="-3.151523"><ele>239</ele><time>2019-09-27T12:29:53Z</time><name>PT8280</name></trkpt>
<trkpt lat="52.939701" lon="-3.151532"><ele>240</ele><time>2019-09-27T12:29:54Z</time><name>PT8281</name></trkpt>
<trkpt lat="52.939698" lon="-3.151535"><ele>240</ele><time>2019-09-27T12:29:55Z</time><name>PT8282</name></trkpt>
<trkpt lat="52.939697" lon="-3.151542"><ele>241</ele><time>2019-09-27T12:29:56Z</time><name>PT8283</name></trkpt>
<trkpt lat="52.939699" lon="-3.151545"><ele>241</ele><time>2019-09-27T12:29:57Z</time><name>PT8284</name></trkpt>
<trkpt lat="52.939701" lon="-3.151545"><ele>242</ele><time>2019-09-27T12:29:58Z</time><name>PT8285</name></trkpt>
<trkpt lat="52.939703" lon="-3.151544"><ele>242</ele><time>2019-09-27T12:29:59Z</time><name>PT8286</name></trkpt>
<trkpt lat="52.939697" lon="-3.151546"><ele>242</ele><time>2019-09-27T12:30:01Z</time><name>PT8287</name></trkpt>
<trkpt lat="52.939690" lon="-3.151550"><ele>242</ele><time>2019-09-27T12:30:02Z</time><name>PT8288</name></trkpt>
<trkpt lat="52.939685" lon="-3.151553"><ele>242</ele><time>2019-09-27T12:30:03Z</time><name>PT8289</name></trkpt>
<trkpt lat="52.939683" lon="-3.151553"><ele>243</ele><time>2019-09-27T12:30:04Z</time><name>PT8290</name></trkpt>
<trkpt lat="52.939685" lon="-3.151548"><ele>244</ele><time>2019-09-27T12:30:05Z</time><name>PT8291</name></trkpt>
<trkpt lat="52.939691" lon="-3.151541"><ele>244</ele><time>2019-09-27T12:30:06Z</time><name>PT8292</name></trkpt>
<trkpt lat="52.939692" lon="-3.151544"><ele>244</ele><time>2019-09-27T12:30:07Z</time><name>PT8293</name></trkpt>
<trkpt lat="52.939694" lon="-3.151540"><ele>244</ele><time>2019-09-27T12:30:08Z</time><name>PT8294</name></trkpt>
<trkpt lat="52.939695" lon="-3.151543"><ele>245</ele><time>2019-09-27T12:30:09Z</time><name>PT8295</name></trkpt>
<trkpt lat="52.939698" lon="-3.151534"><ele>245</ele><time>2019-09-27T12:30:11Z</time><name>PT8296</name></trkpt>
<trkpt lat="52.939700" lon="-3.151525"><ele>246</ele><time>2019-09-27T12:30:12Z</time><name>PT8297</name></trkpt>
<trkpt lat="52.939703" lon="-3.151524"><ele>246</ele><time>2019-09-27T12:30:13Z</time><name>PT8298</name></trkpt>
<trkpt lat="52.939702" lon="-3.151524"><ele>246</ele><time>2019-09-27T12:30:14Z</time><name>PT8299</name></trkpt>
<trkpt lat="52.939703" lon="-3.151524"><ele>245</ele><time>2019-09-27T12:30:15Z</time><name>PT8300</name></trkpt>
<trkpt lat="52.939704" lon="-3.151523"><ele>246</ele><time>2019-09-27T12:30:16Z</time><name>PT8301</name></trkpt>
<trkpt lat="52.939708" lon="-3.151522"><ele>246</ele><time>2019-09-27T12:30:17Z</time><name>PT8302</name></trkpt>
<trkpt lat="52.939710" lon="-3.151522"><ele>247</ele><time>2019-09-27T12:30:18Z</time><name>PT8303</name></trkpt>
<trkpt lat="52.939710" lon="-3.151519"><ele>247</ele><time>2019-09-27T12:30:19Z</time><name>PT8304</name></trkpt>
<trkpt lat="52.939706" lon="-3.151519"><ele>247</ele><time>2019-09-27T12:30:23Z</time><name>PT8305</name></trkpt>
<trkpt lat="52.939703" lon="-3.151513"><ele>247</ele><time>2019-09-27T12:30:24Z</time><name>PT8306</name></trkpt>
<trkpt lat="52.939706" lon="-3.151523"><ele>247</ele><time>2019-09-27T12:30:24Z</time><name>PT8307</name></trkpt>
<trkpt lat="52.939713" lon="-3.151525"><ele>249</ele><time>2019-09-27T12:31:02Z</time><name>PT8308</name></trkpt>
<trkpt lat="52.939715" lon="-3.151527"><ele>249</ele><time>2019-09-27T12:31:03Z</time><name>PT8309</name></trkpt>
<trkpt lat="52.939719" lon="-3.151535"><ele>250</ele><time>2019-09-27T12:31:04Z</time><name>PT8310</name></trkpt>
<trkpt lat="52.939721" lon="-3.151542"><ele>250</ele><time>2019-09-27T12:31:05Z</time><name>PT8311</name></trkpt>
<trkpt lat="52.939720" lon="-3.151546"><ele>250</ele><time>2019-09-27T12:31:06Z</time><name>PT8312</name></trkpt>
<trkpt lat="52.939720" lon="-3.151545"><ele>252</ele><time>2019-09-27T12:32:59Z</time><name>PT8313</name></trkpt>
<trkpt lat="52.939726" lon="-3.151541"><ele>253</ele><time>2019-09-27T12:33:00Z</time><name>PT8314</name></trkpt>
<trkpt lat="52.939729" lon="-3.151538"><ele>253</ele><time>2019-09-27T12:33:01Z</time><name>PT8315</name></trkpt>
<trkpt lat="52.939729" lon="-3.151532"><ele>254</ele><time>2019-09-27T12:33:02Z</time><name>PT8316</name></trkpt>
<trkpt lat="52.939726" lon="-3.151533"><ele>255</ele><time>2019-09-27T12:33:03Z</time><name>PT8317</name></trkpt>
<trkpt lat="52.939726" lon="-3.151525"><ele>256</ele><time>2019-09-27T12:33:04Z</time><name>PT8318</name></trkpt>
<trkpt lat="52.939725" lon="-3.151526"><ele>256</ele><time>2019-09-27T12:33:05Z</time><name>PT8319</name></trkpt>
<trkpt lat="52.939732" lon="-3.151520"><ele>256</ele><time>2019-09-27T12:33:06Z</time><name>PT8320</name></trkpt>
<trkpt lat="52.939733" lon="-3.151518"><ele>256</ele><time>2019-09-27T12:33:07Z</time><name>PT8321</name></trkpt>
<trkpt lat="52.939732" lon="-3.151515"><ele>256</ele><time>2019-09-27T12:33:08Z</time><name>PT8322</name></trkpt>
<trkpt lat="52.939731" lon="-3.151513"><ele>256</ele><time>2019-09-27T12:33:09Z</time><name>PT8323</name></trkpt>
<trkpt lat="52.939732" lon="-3.151509"><ele>255</ele><time>2019-09-27T12:33:10Z</time><name>PT8324</name></trkpt>
<trkpt lat="52.939733" lon="-3.151503"><ele>255</ele><time>2019-09-27T12:33:11Z</time><name>PT8325</name></trkpt>
<trkpt lat="52.939732" lon="-3.151491"><ele>255</ele><time>2019-09-27T12:33:33Z</time><name>PT8326</name></trkpt>
<trkpt lat="52.939727" lon="-3.151487"><ele>255</ele><time>2019-09-27T12:33:34Z</time><name>PT8327</name></trkpt>
<trkpt lat="52.939723" lon="-3.151492"><ele>256</ele><time>2019-09-27T12:33:35Z</time><name>PT8328</name></trkpt>
<trkpt lat="52.939720" lon="-3.151492"><ele>256</ele><time>2019-09-27T12:33:36Z</time><name>PT8329</name></trkpt>
<trkpt lat="52.939719" lon="-3.151485"><ele>256</ele><time>2019-09-27T12:33:37Z</time><name>PT8330</name></trkpt>
<trkpt lat="52.939718" lon="-3.151486"><ele>256</ele><time>2019-09-27T12:33:38Z</time><name>PT8331</name></trkpt>
<trkpt lat="52.939716" lon="-3.151479"><ele>256</ele><time>2019-09-27T12:33:39Z</time><name>PT8332</name></trkpt>
<trkpt lat="52.939717" lon="-3.151468"><ele>256</ele><time>2019-09-27T12:33:40Z</time><name>PT8333</name></trkpt>
<trkpt lat="52.939716" lon="-3.151467"><ele>256</ele><time>2019-09-27T12:33:41Z</time><name>PT8334</name></trkpt>
<trkpt lat="52.939714" lon="-3.151464"><ele>256</ele><time>2019-09-27T12:33:42Z</time><name>PT8335</name></trkpt>
<trkpt lat="52.939711" lon="-3.151461"><ele>255</ele><time>2019-09-27T12:33:42Z</time><name>PT8336</name></trkpt>
<trkpt lat="52.939711" lon="-3.151463"><ele>256</ele><time>2019-09-27T12:33:44Z</time><name>PT8337</name></trkpt>
<trkpt lat="52.939718" lon="-3.151460"><ele>256</ele><time>2019-09-27T12:33:47Z</time><name>PT8338</name></trkpt>
<trkpt lat="52.939721" lon="-3.151458"><ele>256</ele><time>2019-09-27T12:33:48Z</time><name>PT8339</name></trkpt>
<trkpt lat="52.939722" lon="-3.151457"><ele>256</ele><time>2019-09-27T12:33:49Z</time><name>PT8340</name></trkpt>
<trkpt lat="52.939735" lon="-3.151466"><ele>255</ele><time>2019-09-27T12:33:54Z</time><name>PT8341</name></trkpt>
<trkpt lat="52.939737" lon="-3.151462"><ele>255</ele><time>2019-09-27T12:33:55Z</time><name>PT8342</name></trkpt>
<trkpt lat="52.939740" lon="-3.151460"><ele>255</ele><time>2019-09-27T12:33:56Z</time><name>PT8343</name></trkpt>
<trkpt lat="52.939743" lon="-3.151464"><ele>255</ele><time>2019-09-27T12:33:57Z</time><name>PT8344</name></trkpt>
<trkpt lat="52.939746" lon="-3.151465"><ele>255</ele><time>2019-09-27T12:33:58Z</time><name>PT8345</name></trkpt>
<trkpt lat="52.939745" lon="-3.151463"><ele>254</ele><time>2019-09-27T12:33:59Z</time><name>PT8346</name></trkpt>
<trkpt lat="52.939746" lon="-3.151464"><ele>254</ele><time>2019-09-27T12:34:00Z</time><name>PT8347</name></trkpt>
<trkpt lat="52.939745" lon="-3.151473"><ele>254</ele><time>2019-09-27T12:34:07Z</time><name>PT8348</name></trkpt>
<trkpt lat="52.939743" lon="-3.151478"><ele>253</ele><time>2019-09-27T12:34:08Z</time><name>PT8349</name></trkpt>
<trkpt lat="52.939744" lon="-3.151480"><ele>253</ele><time>2019-09-27T12:34:09Z</time><name>PT8350</name></trkpt>
<trkpt lat="52.939744" lon="-3.151490"><ele>252</ele><time>2019-09-27T12:34:11Z</time><name>PT8351</name></trkpt>
<trkpt lat="52.939745" lon="-3.151493"><ele>252</ele><time>2019-09-27T12:34:12Z</time><name>PT8352</name></trkpt>
<trkpt lat="52.939744" lon="-3.151498"><ele>251</ele><time>2019-09-27T12:34:13Z</time><name>PT8353</name></trkpt>
<trkpt lat="52.939746" lon="-3.151491"><ele>251</ele><time>2019-09-27T12:34:32Z</time><name>PT8354</name></trkpt>
<trkpt lat="52.939753" lon="-3.151487"><ele>251</ele><time>2019-09-27T12:34:33Z</time><name>PT8355</name></trkpt>
<trkpt lat="52.939763" lon="-3.151496"><ele>251</ele><time>2019-09-27T12:34:34Z</time><name>PT8356</name></trkpt>
<trkpt lat="52.939768" lon="-3.151503"><ele>251</ele><time>2019-09-27T12:34:35Z</time><name>PT8357</name></trkpt>
<trkpt lat="52.939769" lon="-3.151506"><ele>251</ele><time>2019-09-27T12:34:36Z</time><name>PT8358</name></trkpt>
<trkpt lat="52.939764" lon="-3.151518"><ele>251</ele><time>2019-09-27T12:34:37Z</time><name>PT8359</name></trkpt>
<trkpt lat="52.939762" lon="-3.151521"><ele>251</ele><time>2019-09-27T12:34:38Z</time><name>PT8360</name></trkpt>
<trkpt lat="52.939763" lon="-3.151529"><ele>252</ele><time>2019-09-27T12:34:39Z</time><name>PT8361</name></trkpt>
<trkpt lat="52.939761" lon="-3.151540"><ele>252</ele><time>2019-09-27T12:34:40Z</time><name>PT8362</name></trkpt>
<trkpt lat="52.939758" lon="-3.151540"><ele>252</ele><time>2019-09-27T12:34:41Z</time><name>PT8363</name></trkpt>
<trkpt lat="52.939761" lon="-3.151545"><ele>252</ele><time>2019-09-27T12:34:42Z</time><name>PT8364</name></trkpt>
<trkpt lat="52.939763" lon="-3.151551"><ele>252</ele><time>2019-09-27T12:34:43Z</time><name>PT8365</name></trkpt>
<trkpt lat="52.939763" lon="-3.151558"><ele>252</ele><time>2019-09-27T12:34:44Z</time><name>PT8366</name></trkpt>
<trkpt lat="52.939761" lon="-3.151557"><ele>252</ele><time>2019-09-27T12:34:45Z</time><name>PT8367</name></trkpt>
<trkpt lat="52.939765" lon="-3.151553"><ele>252</ele><time>2019-09-27T12:34:46Z</time><name>PT8368</name></trkpt>
<trkpt lat="52.939768" lon="-3.151539"><ele>252</ele><time>2019-09-27T12:34:47Z</time><name>PT8369</name></trkpt>
<trkpt lat="52.939766" lon="-3.151532"><ele>252</ele><time>2019-09-27T12:34:48Z</time><name>PT8370</name></trkpt>
<trkpt lat="52.939763" lon="-3.151520"><ele>251</ele><time>2019-09-27T12:34:50Z</time><name>PT8371</name></trkpt>
<trkpt lat="52.939763" lon="-3.151516"><ele>250</ele><time>2019-09-27T12:34:51Z</time><name>PT8372</name></trkpt>
<trkpt lat="52.939763" lon="-3.151512"><ele>250</ele><time>2019-09-27T12:35:13Z</time><name>PT8373</name></trkpt>
<trkpt lat="52.939762" lon="-3.151516"><ele>250</ele><time>2019-09-27T12:35:14Z</time><name>PT8374</name></trkpt>
<trkpt lat="52.939757" lon="-3.151518"><ele>250</ele><time>2019-09-27T12:35:16Z</time><name>PT8375</name></trkpt>
<trkpt lat="52.939754" lon="-3.151520"><ele>250</ele><time>2019-09-27T12:35:24Z</time><name>PT8376</name></trkpt>
<trkpt lat="52.939751" lon="-3.151521"><ele>250</ele><time>2019-09-27T12:35:25Z</time><name>PT8377</name></trkpt>
<trkpt lat="52.939748" lon="-3.151526"><ele>251</ele><time>2019-09-27T12:36:02Z</time><name>PT8378</name></trkpt>
<trkpt lat="52.939749" lon="-3.151527"><ele>251</ele><time>2019-09-27T12:36:03Z</time><name>PT8379</name></trkpt>
<trkpt lat="52.939751" lon="-3.151528"><ele>252</ele><time>2019-09-27T12:36:04Z</time><name>PT8380</name></trkpt>
<trkpt lat="52.939756" lon="-3.151527"><ele>252</ele><time>2019-09-27T12:36:17Z</time><name>PT8381</name></trkpt>
<trkpt lat="52.939759" lon="-3.151526"><ele>252</ele><time>2019-09-27T12:36:18Z</time><name>PT8382</name></trkpt>
<trkpt lat="52.939763" lon="-3.151521"><ele>252</ele><time>2019-09-27T12:36:19Z</time><name>PT8383</name></trkpt>
<trkpt lat="52.939765" lon="-3.151510"><ele>252</ele><time>2019-09-27T12:36:20Z</time><name>PT8384</name></trkpt>
<trkpt lat="52.939765" lon="-3.151509"><ele>252</ele><time>2019-09-27T12:36:21Z</time><name>PT8385</name></trkpt>
<trkpt lat="52.939766" lon="-3.151503"><ele>252</ele><time>2019-09-27T12:36:22Z</time><name>PT8386</name></trkpt>
<trkpt lat="52.939769" lon="-3.151504"><ele>251</ele><time>2019-09-27T12:36:23Z</time><name>PT8387</name></trkpt>
<trkpt lat="52.939770" lon="-3.151510"><ele>251</ele><time>2019-09-27T12:36:24Z</time><name>PT8388</name></trkpt>
<trkpt lat="52.939775" lon="-3.151514"><ele>251</ele><time>2019-09-27T12:36:25Z</time><name>PT8389</name></trkpt>
<trkpt lat="52.939771" lon="-3.151497"><ele>251</ele><time>2019-09-27T12:36:29Z</time><name>PT8390</name></trkpt>
<trkpt lat="52.939769" lon="-3.151492"><ele>251</ele><time>2019-09-27T12:36:30Z</time><name>PT8391</name></trkpt>
<trkpt lat="52.939766" lon="-3.151487"><ele>250</ele><time>2019-09-27T12:36:31Z</time><name>PT8392</name></trkpt>
<trkpt lat="52.939767" lon="-3.151475"><ele>251</ele><time>2019-09-27T12:36:32Z</time><name>PT8393</name></trkpt>
<trkpt lat="52.939765" lon="-3.151475"><ele>251</ele><time>2019-09-27T12:36:33Z</time><name>PT8394</name></trkpt>
<trkpt lat="52.939761" lon="-3.151471"><ele>252</ele><time>2019-09-27T12:36:35Z</time><name>PT8395</name></trkpt>
<trkpt lat="52.939759" lon="-3.151471"><ele>252</ele><time>2019-09-27T12:36:36Z</time><name>PT8396</name></trkpt>
<trkpt lat="52.939755" lon="-3.151467"><ele>253</ele><time>2019-09-27T12:36:37Z</time><name>PT8397</name></trkpt>
<trkpt lat="52.939759" lon="-3.151465"><ele>253</ele><time>2019-09-27T12:36:38Z</time><name>PT8398</name></trkpt>
<trkpt lat="52.939763" lon="-3.151462"><ele>253</ele><time>2019-09-27T12:36:39Z</time><name>PT8399</name></trkpt>
<trkpt lat="52.939768" lon="-3.151465"><ele>253</ele><time>2019-09-27T12:38:45Z</time><name>PT8400</name></trkpt>
<trkpt lat="52.939766" lon="-3.151468"><ele>253</ele><time>2019-09-27T12:38:46Z</time><name>PT8401</name></trkpt>
<trkpt lat="52.939765" lon="-3.151468"><ele>254</ele><time>2019-09-27T12:38:47Z</time><name>PT8402</name></trkpt>
<trkpt lat="52.939764" lon="-3.151469"><ele>254</ele><time>2019-09-27T12:38:48Z</time><name>PT8403</name></trkpt>
<trkpt lat="52.939763" lon="-3.151480"><ele>254</ele><time>2019-09-27T12:38:56Z</time><name>PT8404</name></trkpt>
<trkpt lat="52.939765" lon="-3.151499"><ele>255</ele><time>2019-09-27T12:38:57Z</time><name>PT8405</name></trkpt>
<trkpt lat="52.939763" lon="-3.151501"><ele>255</ele><time>2019-09-27T12:38:58Z</time><name>PT8406</name></trkpt>
<trkpt lat="52.939763" lon="-3.151509"><ele>255</ele><time>2019-09-27T12:38:59Z</time><name>PT8407</name></trkpt>
<trkpt lat="52.939762" lon="-3.151518"><ele>254</ele><time>2019-09-27T12:39:09Z</time><name>PT8408</name></trkpt>
<trkpt lat="52.939770" lon="-3.151538"><ele>253</ele><time>2019-09-27T12:39:10Z</time><name>PT8409</name></trkpt>
<trkpt lat="52.939777" lon="-3.151564"><ele>252</ele><time>2019-09-27T12:39:11Z</time><name>PT8410</name></trkpt>
<trkpt lat="52.939782" lon="-3.151577"><ele>251</ele><time>2019-09-27T12:39:12Z</time><name>PT8411</name></trkpt>
<trkpt lat="52.939783" lon="-3.151587"><ele>251</ele><time>2019-09-27T12:39:13Z</time><name>PT8412</name></trkpt>
<trkpt lat="52.939787" lon="-3.151597"><ele>250</ele><time>2019-09-27T12:39:14Z</time><name>PT8413</name></trkpt>
<trkpt lat="52.939789" lon="-3.151607"><ele>250</ele><time>2019-09-27T12:39:15Z</time><name>PT8414</name></trkpt>
<trkpt lat="52.939795" lon="-3.151629"><ele>248</ele><time>2019-09-27T12:39:29Z</time><name>PT8415</name></trkpt>
<trkpt lat="52.939803" lon="-3.151649"><ele>247</ele><time>2019-09-27T12:39:30Z</time><name>PT8416</name></trkpt>
<trkpt lat="52.939812" lon="-3.151690"><ele>247</ele><time>2019-09-27T12:39:31Z</time><name>PT8417</name></trkpt>
<trkpt lat="52.939813" lon="-3.151710"><ele>246</ele><time>2019-09-27T12:39:32Z</time><name>PT8418</name></trkpt>
<trkpt lat="52.939821" lon="-3.151724"><ele>245</ele><time>2019-09-27T12:39:33Z</time><name>PT8419</name></trkpt>
<trkpt lat="52.939834" lon="-3.151735"><ele>245</ele><time>2019-09-27T12:39:34Z</time><name>PT8420</name></trkpt>
<trkpt lat="52.939846" lon="-3.151753"><ele>245</ele><time>2019-09-27T12:39:35Z</time><name>PT8421</name></trkpt>
<trkpt lat="52.939860" lon="-3.151768"><ele>246</ele><time>2019-09-27T12:39:36Z</time><name>PT8422</name></trkpt>
<trkpt lat="52.939872" lon="-3.151784"><ele>246</ele><time>2019-09-27T12:39:37Z</time><name>PT8423</name></trkpt>
<trkpt lat="52.939876" lon="-3.151791"><ele>246</ele><time>2019-09-27T12:39:38Z</time><name>PT8424</name></trkpt>
<trkpt lat="52.939879" lon="-3.151799"><ele>246</ele><time>2019-09-27T12:39:39Z</time><name>PT8425</name></trkpt>
<trkpt lat="52.939883" lon="-3.151806"><ele>246</ele><time>2019-09-27T12:39:40Z</time><name>PT8426</name></trkpt>
<trkpt lat="52.939885" lon="-3.151816"><ele>246</ele><time>2019-09-27T12:39:41Z</time><name>PT8427</name></trkpt>
<trkpt lat="52.939893" lon="-3.151824"><ele>247</ele><time>2019-09-27T12:39:42Z</time><name>PT8428</name></trkpt>
<trkpt lat="52.939899" lon="-3.151834"><ele>247</ele><time>2019-09-27T12:39:43Z</time><name>PT8429</name></trkpt>
<trkpt lat="52.939902" lon="-3.151841"><ele>247</ele><time>2019-09-27T12:39:44Z</time><name>PT8430</name></trkpt>
<trkpt lat="52.939910" lon="-3.151849"><ele>246</ele><time>2019-09-27T12:39:47Z</time><name>PT8431</name></trkpt>
<trkpt lat="52.939914" lon="-3.151872"><ele>246</ele><time>2019-09-27T12:39:48Z</time><name>PT8432</name></trkpt>
<trkpt lat="52.939919" lon="-3.151895"><ele>246</ele><time>2019-09-27T12:39:49Z</time><name>PT8433</name></trkpt>
<trkpt lat="52.939923" lon="-3.151908"><ele>246</ele><time>2019-09-27T12:39:50Z</time><name>PT8434</name></trkpt>
<trkpt lat="52.939927" lon="-3.151920"><ele>246</ele><time>2019-09-27T12:39:51Z</time><name>PT8435</name></trkpt>
<trkpt lat="52.939928" lon="-3.151937"><ele>245</ele><time>2019-09-27T12:39:57Z</time><name>PT8436</name></trkpt>
<trkpt lat="52.939939" lon="-3.151953"><ele>245</ele><time>2019-09-27T12:39:58Z</time><name>PT8437</name></trkpt>
<trkpt lat="52.939944" lon="-3.151978"><ele>245</ele><time>2019-09-27T12:39:59Z</time><name>PT8438</name></trkpt>
<trkpt lat="52.939949" lon="-3.151988"><ele>245</ele><time>2019-09-27T12:40:00Z</time><name>PT8439</name></trkpt>
<trkpt lat="52.939955" lon="-3.152002"><ele>245</ele><time>2019-09-27T12:40:01Z</time><name>PT8440</name></trkpt>
<trkpt lat="52.939959" lon="-3.152016"><ele>245</ele><time>2019-09-27T12:40:02Z</time><name>PT8441</name></trkpt>
<trkpt lat="52.939963" lon="-3.152020"><ele>245</ele><time>2019-09-27T12:40:03Z</time><name>PT8442</name></trkpt>
<trkpt lat="52.939965" lon="-3.152032"><ele>245</ele><time>2019-09-27T12:40:04Z</time><name>PT8443</name></trkpt>
<trkpt lat="52.939968" lon="-3.152043"><ele>245</ele><time>2019-09-27T12:40:05Z</time><name>PT8444</name></trkpt>
<trkpt lat="52.939974" lon="-3.152053"><ele>245</ele><time>2019-09-27T12:40:06Z</time><name>PT8445</name></trkpt>
<trkpt lat="52.939977" lon="-3.152062"><ele>244</ele><time>2019-09-27T12:40:07Z</time><name>PT8446</name></trkpt>
<trkpt lat="52.939978" lon="-3.152073"><ele>244</ele><time>2019-09-27T12:40:08Z</time><name>PT8447</name></trkpt>
<trkpt lat="52.939988" lon="-3.152089"><ele>244</ele><time>2019-09-27T12:40:09Z</time><name>PT8448</name></trkpt>
<trkpt lat="52.939995" lon="-3.152098"><ele>245</ele><time>2019-09-27T12:40:10Z</time><name>PT8449</name></trkpt>
<trkpt lat="52.939996" lon="-3.152106"><ele>244</ele><time>2019-09-27T12:40:11Z</time><name>PT8450</name></trkpt>
<trkpt lat="52.940003" lon="-3.152116"><ele>245</ele><time>2019-09-27T12:40:12Z</time><name>PT8451</name></trkpt>
<trkpt lat="52.940009" lon="-3.152130"><ele>246</ele><time>2019-09-27T12:40:13Z</time><name>PT8452</name></trkpt>
<trkpt lat="52.940011" lon="-3.152139"><ele>247</ele><time>2019-09-27T12:40:14Z</time><name>PT8453</name></trkpt>
<trkpt lat="52.940017" lon="-3.152150"><ele>248</ele><time>2019-09-27T12:40:15Z</time><name>PT8454</name></trkpt>
<trkpt lat="52.940016" lon="-3.152162"><ele>248</ele><time>2019-09-27T12:40:16Z</time><name>PT8455</name></trkpt>
<trkpt lat="52.940021" lon="-3.152187"><ele>248</ele><time>2019-09-27T12:40:18Z</time><name>PT8456</name></trkpt>
<trkpt lat="52.940021" lon="-3.152205"><ele>250</ele><time>2019-09-27T12:40:19Z</time><name>PT8457</name></trkpt>
<trkpt lat="52.940030" lon="-3.152221"><ele>250</ele><time>2019-09-27T12:40:20Z</time><name>PT8458</name></trkpt>
<trkpt lat="52.940039" lon="-3.152241"><ele>250</ele><time>2019-09-27T12:40:21Z</time><name>PT8459</name></trkpt>
<trkpt lat="52.940041" lon="-3.152259"><ele>251</ele><time>2019-09-27T12:40:22Z</time><name>PT8460</name></trkpt>
<trkpt lat="52.940047" lon="-3.152266"><ele>251</ele><time>2019-09-27T12:40:23Z</time><name>PT8461</name></trkpt>
<trkpt lat="52.940047" lon="-3.152275"><ele>250</ele><time>2019-09-27T12:40:24Z</time><name>PT8462</name></trkpt>
<trkpt lat="52.940055" lon="-3.152283"><ele>251</ele><time>2019-09-27T12:40:25Z</time><name>PT8463</name></trkpt>
<trkpt lat="52.940062" lon="-3.152300"><ele>251</ele><time>2019-09-27T12:40:26Z</time><name>PT8464</name></trkpt>
<trkpt lat="52.940066" lon="-3.152306"><ele>251</ele><time>2019-09-27T12:40:27Z</time><name>PT8465</name></trkpt>
<trkpt lat="52.940072" lon="-3.152311"><ele>251</ele><time>2019-09-27T12:40:28Z</time><name>PT8466</name></trkpt>
<trkpt lat="52.940079" lon="-3.152318"><ele>251</ele><time>2019-09-27T12:40:29Z</time><name>PT8467</name></trkpt>
<trkpt lat="52.940084" lon="-3.152323"><ele>252</ele><time>2019-09-27T12:40:30Z</time><name>PT8468</name></trkpt>
<trkpt lat="52.940089" lon="-3.152326"><ele>253</ele><time>2019-09-27T12:40:31Z</time><name>PT8469</name></trkpt>
<trkpt lat="52.940098" lon="-3.152328"><ele>254</ele><time>2019-09-27T12:40:32Z</time><name>PT8470</name></trkpt>
<trkpt lat="52.940099" lon="-3.152338"><ele>254</ele><time>2019-09-27T12:40:33Z</time><name>PT8471</name></trkpt>
<trkpt lat="52.940098" lon="-3.152346"><ele>254</ele><time>2019-09-27T12:40:34Z</time><name>PT8472</name></trkpt>
<trkpt lat="52.940104" lon="-3.152351"><ele>255</ele><time>2019-09-27T12:40:35Z</time><name>PT8473</name></trkpt>
<trkpt lat="52.940107" lon="-3.152368"><ele>256</ele><time>2019-09-27T12:40:48Z</time><name>PT8474</name></trkpt>
<trkpt lat="52.940110" lon="-3.152381"><ele>256</ele><time>2019-09-27T12:40:49Z</time><name>PT8475</name></trkpt>
<trkpt lat="52.940110" lon="-3.152401"><ele>256</ele><time>2019-09-27T12:40:50Z</time><name>PT8476</name></trkpt>
<trkpt lat="52.940114" lon="-3.152417"><ele>255</ele><time>2019-09-27T12:40:51Z</time><name>PT8477</name></trkpt>
<trkpt lat="52.940115" lon="-3.152434"><ele>255</ele><time>2019-09-27T12:40:52Z</time><name>PT8478</name></trkpt>
<trkpt lat="52.940119" lon="-3.152447"><ele>255</ele><time>2019-09-27T12:40:53Z</time><name>PT8479</name></trkpt>
<trkpt lat="52.940118" lon="-3.152454"><ele>255</ele><time>2019-09-27T12:40:54Z</time><name>PT8480</name></trkpt>
<trkpt lat="52.940123" lon="-3.152447"><ele>256</ele><time>2019-09-27T12:40:55Z</time><name>PT8481</name></trkpt>
<trkpt lat="52.940128" lon="-3.152451"><ele>256</ele><time>2019-09-27T12:40:56Z</time><name>PT8482</name></trkpt>
<trkpt lat="52.940133" lon="-3.152452"><ele>256</ele><time>2019-09-27T12:40:57Z</time><name>PT8483</name></trkpt>
<trkpt lat="52.940134" lon="-3.152462"><ele>256</ele><time>2019-09-27T12:40:58Z</time><name>PT8484</name></trkpt>
<trkpt lat="52.940134" lon="-3.152469"><ele>256</ele><time>2019-09-27T12:40:59Z</time><name>PT8485</name></trkpt>
<trkpt lat="52.940136" lon="-3.152470"><ele>256</ele><time>2019-09-27T12:41:00Z</time><name>PT8486</name></trkpt>
<trkpt lat="52.940136" lon="-3.152477"><ele>256</ele><time>2019-09-27T12:41:01Z</time><name>PT8487</name></trkpt>
<trkpt lat="52.940139" lon="-3.152484"><ele>256</ele><time>2019-09-27T12:41:02Z</time><name>PT8488</name></trkpt>
<trkpt lat="52.940140" lon="-3.152490"><ele>256</ele><time>2019-09-27T12:41:03Z</time><name>PT8489</name></trkpt>
<trkpt lat="52.940144" lon="-3.152508"><ele>256</ele><time>2019-09-27T12:41:06Z</time><name>PT8490</name></trkpt>
<trkpt lat="52.940153" lon="-3.152515"><ele>256</ele><time>2019-09-27T12:41:07Z</time><name>PT8491</name></trkpt>
<trkpt lat="52.940161" lon="-3.152517"><ele>256</ele><time>2019-09-27T12:41:08Z</time><name>PT8492</name></trkpt>
<trkpt lat="52.940163" lon="-3.152527"><ele>256</ele><time>2019-09-27T12:41:09Z</time><name>PT8493</name></trkpt>
<trkpt lat="52.940165" lon="-3.152521"><ele>256</ele><time>2019-09-27T12:41:10Z</time><name>PT8494</name></trkpt>
<trkpt lat="52.940168" lon="-3.152522"><ele>255</ele><time>2019-09-27T12:41:11Z</time><name>PT8495</name></trkpt>
<trkpt lat="52.940175" lon="-3.152527"><ele>256</ele><time>2019-09-27T12:41:12Z</time><name>PT8496</name></trkpt>
<trkpt lat="52.940182" lon="-3.152534"><ele>256</ele><time>2019-09-27T12:41:13Z</time><name>PT8497</name></trkpt>
<trkpt lat="52.940186" lon="-3.152534"><ele>255</ele><time>2019-09-27T12:41:17Z</time><name>PT8498</name></trkpt>
<trkpt lat="52.940194" lon="-3.152531"><ele>254</ele><time>2019-09-27T12:41:18Z</time><name>PT8499</name></trkpt>
<trkpt lat="52.940208" lon="-3.152528"><ele>253</ele><time>2019-09-27T12:41:19Z</time><name>PT8500</name></trkpt>
<trkpt lat="52.940223" lon="-3.152517"><ele>253</ele><time>2019-09-27T12:41:20Z</time><name>PT8501</name></trkpt>
<trkpt lat="52.940230" lon="-3.152519"><ele>252</ele><time>2019-09-27T12:41:21Z</time><name>PT8502</name></trkpt>
<trkpt lat="52.940235" lon="-3.152531"><ele>252</ele><time>2019-09-27T12:41:22Z</time><name>PT8503</name></trkpt>
<trkpt lat="52.940240" lon="-3.152519"><ele>252</ele><time>2019-09-27T12:41:23Z</time><name>PT8504</name></trkpt>
<trkpt lat="52.940240" lon="-3.152516"><ele>252</ele><time>2019-09-27T12:41:24Z</time><name>PT8505</name></trkpt>
<trkpt lat="52.940237" lon="-3.152521"><ele>252</ele><time>2019-09-27T12:41:25Z</time><name>PT8506</name></trkpt>
<trkpt lat="52.940239" lon="-3.152525"><ele>252</ele><time>2019-09-27T12:41:26Z</time><name>PT8507</name></trkpt>
<trkpt lat="52.940245" lon="-3.152539"><ele>252</ele><time>2019-09-27T12:41:27Z</time><name>PT8508</name></trkpt>
<trkpt lat="52.940248" lon="-3.152544"><ele>251</ele><time>2019-09-27T12:41:28Z</time><name>PT8509</name></trkpt>
<trkpt lat="52.940261" lon="-3.152544"><ele>252</ele><time>2019-09-27T12:41:29Z</time><name>PT8510</name></trkpt>
<trkpt lat="52.940257" lon="-3.152552"><ele>250</ele><time>2019-09-27T12:41:30Z</time><name>PT8511</name></trkpt>
<trkpt lat="52.940266" lon="-3.152556"><ele>250</ele><time>2019-09-27T12:41:31Z</time><name>PT8512</name></trkpt>
<trkpt lat="52.940276" lon="-3.152551"><ele>250</ele><time>2019-09-27T12:41:32Z</time><name>PT8513</name></trkpt>
<trkpt lat="52.940282" lon="-3.152551"><ele>250</ele><time>2019-09-27T12:41:33Z</time><name>PT8514</name></trkpt>
<trkpt lat="52.940290" lon="-3.152559"><ele>250</ele><time>2019-09-27T12:41:33Z</time><name>PT8515</name></trkpt>
<trkpt lat="52.940297" lon="-3.152564"><ele>250</ele><time>2019-09-27T12:41:35Z</time><name>PT8516</name></trkpt>
<trkpt lat="52.940307" lon="-3.152575"><ele>250</ele><time>2019-09-27T12:41:36Z</time><name>PT8517</name></trkpt>
<trkpt lat="52.940312" lon="-3.152580"><ele>250</ele><time>2019-09-27T12:41:37Z</time><name>PT8518</name></trkpt>
<trkpt lat="52.940312" lon="-3.152588"><ele>250</ele><time>2019-09-27T12:41:38Z</time><name>PT8519</name></trkpt>
<trkpt lat="52.940313" lon="-3.152590"><ele>250</ele><time>2019-09-27T12:41:39Z</time><name>PT8520</name></trkpt>
<trkpt lat="52.940334" lon="-3.152593"><ele>248</ele><time>2019-09-27T12:41:43Z</time><name>PT8521</name></trkpt>
<trkpt lat="52.940339" lon="-3.152601"><ele>248</ele><time>2019-09-27T12:41:44Z</time><name>PT8522</name></trkpt>
<trkpt lat="52.940339" lon="-3.152600"><ele>247</ele><time>2019-09-27T12:41:45Z</time><name>PT8523</name></trkpt>
<trkpt lat="52.940348" lon="-3.152603"><ele>247</ele><time>2019-09-27T12:41:46Z</time><name>PT8524</name></trkpt>
<trkpt lat="52.940353" lon="-3.152613"><ele>246</ele><time>2019-09-27T12:41:47Z</time><name>PT8525</name></trkpt>
<trkpt lat="52.940357" lon="-3.152615"><ele>246</ele><time>2019-09-27T12:41:48Z</time><name>PT8526</name></trkpt>
<trkpt lat="52.940358" lon="-3.152617"><ele>245</ele><time>2019-09-27T12:41:49Z</time><name>PT8527</name></trkpt>
<trkpt lat="52.940368" lon="-3.152618"><ele>246</ele><time>2019-09-27T12:42:01Z</time><name>PT8528</name></trkpt>
<trkpt lat="52.940374" lon="-3.152625"><ele>245</ele><time>2019-09-27T12:42:02Z</time><name>PT8529</name></trkpt>
<trkpt lat="52.940385" lon="-3.152634"><ele>245</ele><time>2019-09-27T12:42:03Z</time><name>PT8530</name></trkpt>
<trkpt lat="52.940390" lon="-3.152642"><ele>245</ele><time>2019-09-27T12:42:04Z</time><name>PT8531</name></trkpt>
<trkpt lat="52.940395" lon="-3.152661"><ele>245</ele><time>2019-09-27T12:42:20Z</time><name>PT8532</name></trkpt>
<trkpt lat="52.940407" lon="-3.152673"><ele>245</ele><time>2019-09-27T12:42:21Z</time><name>PT8533</name></trkpt>
<trkpt lat="52.940418" lon="-3.152680"><ele>245</ele><time>2019-09-27T12:42:22Z</time><name>PT8534</name></trkpt>
<trkpt lat="52.940428" lon="-3.152699"><ele>245</ele><time>2019-09-27T12:42:23Z</time><name>PT8535</name></trkpt>
<trkpt lat="52.940440" lon="-3.152719"><ele>245</ele><time>2019-09-27T12:42:24Z</time><name>PT8536</name></trkpt>
<trkpt lat="52.940449" lon="-3.152730"><ele>245</ele><time>2019-09-27T12:42:25Z</time><name>PT8537</name></trkpt>
<trkpt lat="52.940457" lon="-3.152754"><ele>245</ele><time>2019-09-27T12:42:26Z</time><name>PT8538</name></trkpt>
<trkpt lat="52.940460" lon="-3.152767"><ele>245</ele><time>2019-09-27T12:42:27Z</time><name>PT8539</name></trkpt>
<trkpt lat="52.940468" lon="-3.152791"><ele>245</ele><time>2019-09-27T12:42:38Z</time><name>PT8540</name></trkpt>
<trkpt lat="52.940479" lon="-3.152797"><ele>245</ele><time>2019-09-27T12:42:39Z</time><name>PT8541</name></trkpt>
<trkpt lat="52.940487" lon="-3.152808"><ele>245</ele><time>2019-09-27T12:42:40Z</time><name>PT8542</name></trkpt>
<trkpt lat="52.940498" lon="-3.152830"><ele>245</ele><time>2019-09-27T12:43:10Z</time><name>PT8543</name></trkpt>
<trkpt lat="52.940510" lon="-3.152851"><ele>245</ele><time>2019-09-27T12:43:11Z</time><name>PT8544</name></trkpt>
<trkpt lat="52.940521" lon="-3.152878"><ele>245</ele><time>2019-09-27T12:43:16Z</time><name>PT8545</name></trkpt>
<trkpt lat="52.940537" lon="-3.152901"><ele>246</ele><time>2019-09-27T12:43:17Z</time><name>PT8546</name></trkpt>
<trkpt lat="52.940549" lon="-3.152915"><ele>245</ele><time>2019-09-27T12:43:18Z</time><name>PT8547</name></trkpt>
<trkpt lat="52.940564" lon="-3.152939"><ele>246</ele><time>2019-09-27T12:43:19Z</time><name>PT8548</name></trkpt>
<trkpt lat="52.940574" lon="-3.152966"><ele>246</ele><time>2019-09-27T12:43:20Z</time><name>PT8549</name></trkpt>
<trkpt lat="52.940588" lon="-3.152985"><ele>246</ele><time>2019-09-27T12:43:21Z</time><name>PT8550</name></trkpt>
<trkpt lat="52.940598" lon="-3.153009"><ele>246</ele><time>2019-09-27T12:43:22Z</time><name>PT8551</name></trkpt>
<trkpt lat="52.940617" lon="-3.153040"><ele>246</ele><time>2019-09-27T12:43:23Z</time><name>PT8552</name></trkpt>
<trkpt lat="52.940626" lon="-3.153061"><ele>246</ele><time>2019-09-27T12:43:24Z</time><name>PT8553</name></trkpt>
<trkpt lat="52.940639" lon="-3.153074"><ele>247</ele><time>2019-09-27T12:43:30Z</time><name>PT8554</name></trkpt>
<trkpt lat="52.940651" lon="-3.153092"><ele>246</ele><time>2019-09-27T12:43:31Z</time><name>PT8555</name></trkpt>
<trkpt lat="52.940662" lon="-3.153118"><ele>246</ele><time>2019-09-27T12:43:32Z</time><name>PT8556</name></trkpt>
<trkpt lat="52.940666" lon="-3.153134"><ele>246</ele><time>2019-09-27T12:43:50Z</time><name>PT8557</name></trkpt>
<trkpt lat="52.940675" lon="-3.153150"><ele>246</ele><time>2019-09-27T12:43:51Z</time><name>PT8558</name></trkpt>
<trkpt lat="52.940679" lon="-3.153157"><ele>246</ele><time>2019-09-27T12:43:52Z</time><name>PT8559</name></trkpt>
<trkpt lat="52.940685" lon="-3.153167"><ele>245</ele><time>2019-09-27T12:43:53Z</time><name>PT8560</name></trkpt>
<trkpt lat="52.940695" lon="-3.153176"><ele>245</ele><time>2019-09-27T12:43:54Z</time><name>PT8561</name></trkpt>
<trkpt lat="52.940705" lon="-3.153188"><ele>246</ele><time>2019-09-27T12:43:54Z</time><name>PT8562</name></trkpt>
<trkpt lat="52.940708" lon="-3.153199"><ele>246</ele><time>2019-09-27T12:43:56Z</time><name>PT8563</name></trkpt>
<trkpt lat="52.940717" lon="-3.153216"><ele>246</ele><time>2019-09-27T12:43:57Z</time><name>PT8564</name></trkpt>
<trkpt lat="52.940729" lon="-3.153226"><ele>246</ele><time>2019-09-27T12:43:57Z</time><name>PT8565</name></trkpt>
<trkpt lat="52.940735" lon="-3.153237"><ele>247</ele><time>2019-09-27T12:43:59Z</time><name>PT8566</name></trkpt>
<trkpt lat="52.940740" lon="-3.153249"><ele>247</ele><time>2019-09-27T12:44:00Z</time><name>PT8567</name></trkpt>
<trkpt lat="52.940745" lon="-3.153264"><ele>247</ele><time>2019-09-27T12:44:01Z</time><name>PT8568</name></trkpt>
<trkpt lat="52.940755" lon="-3.153271"><ele>247</ele><time>2019-09-27T12:44:02Z</time><name>PT8569</name></trkpt>
<trkpt lat="52.940756" lon="-3.153278"><ele>248</ele><time>2019-09-27T12:44:03Z</time><name>PT8570</name></trkpt>
<trkpt lat="52.940761" lon="-3.153288"><ele>248</ele><time>2019-09-27T12:44:04Z</time><name>PT8571</name></trkpt>
<trkpt lat="52.940770" lon="-3.153296"><ele>249</ele><time>2019-09-27T12:44:05Z</time><name>PT8572</name></trkpt>
<trkpt lat="52.940778" lon="-3.153306"><ele>249</ele><time>2019-09-27T12:44:06Z</time><name>PT8573</name></trkpt>
<trkpt lat="52.940782" lon="-3.153311"><ele>249</ele><time>2019-09-27T12:44:07Z</time><name>PT8574</name></trkpt>
<trkpt lat="52.940788" lon="-3.153318"><ele>249</ele><time>2019-09-27T12:44:08Z</time><name>PT8575</name></trkpt>
<trkpt lat="52.940797" lon="-3.153327"><ele>250</ele><time>2019-09-27T12:44:09Z</time><name>PT8576</name></trkpt>
<trkpt lat="52.940797" lon="-3.153337"><ele>249</ele><time>2019-09-27T12:44:17Z</time><name>PT8577</name></trkpt>
<trkpt lat="52.940805" lon="-3.153369"><ele>250</ele><time>2019-09-27T12:44:18Z</time><name>PT8578</name></trkpt>
<trkpt lat="52.940816" lon="-3.153384"><ele>250</ele><time>2019-09-27T12:44:19Z</time><name>PT8579</name></trkpt>
<trkpt lat="52.940825" lon="-3.153387"><ele>251</ele><time>2019-09-27T12:44:20Z</time><name>PT8580</name></trkpt>
<trkpt lat="52.940837" lon="-3.153407"><ele>250</ele><time>2019-09-27T12:44:22Z</time><name>PT8581</name></trkpt>
<trkpt lat="52.940859" lon="-3.153415"><ele>250</ele><time>2019-09-27T12:44:23Z</time><name>PT8582</name></trkpt>
<trkpt lat="52.940878" lon="-3.153424"><ele>249</ele><time>2019-09-27T12:44:24Z</time><name>PT8583</name></trkpt>
<trkpt lat="52.940890" lon="-3.153427"><ele>249</ele><time>2019-09-27T12:44:25Z</time><name>PT8584</name></trkpt>
<trkpt lat="52.940905" lon="-3.153441"><ele>250</ele><time>2019-09-27T12:44:26Z</time><name>PT8585</name></trkpt>
<trkpt lat="52.940916" lon="-3.153451"><ele>250</ele><time>2019-09-27T12:44:27Z</time><name>PT8586</name></trkpt>
<trkpt lat="52.940923" lon="-3.153461"><ele>250</ele><time>2019-09-27T12:44:28Z</time><name>PT8587</name></trkpt>
<trkpt lat="52.940931" lon="-3.153480"><ele>250</ele><time>2019-09-27T12:44:29Z</time><name>PT8588</name></trkpt>
<trkpt lat="52.940940" lon="-3.153496"><ele>251</ele><time>2019-09-27T12:44:30Z</time><name>PT8589</name></trkpt>
<trkpt lat="52.940946" lon="-3.153503"><ele>251</ele><time>2019-09-27T12:44:31Z</time><name>PT8590</name></trkpt>
<trkpt lat="52.940952" lon="-3.153515"><ele>252</ele><time>2019-09-27T12:44:32Z</time><name>PT8591</name></trkpt>
<trkpt lat="52.940960" lon="-3.153532"><ele>252</ele><time>2019-09-27T12:44:33Z</time><name>PT8592</name></trkpt>
<trkpt lat="52.940963" lon="-3.153548"><ele>252</ele><time>2019-09-27T12:44:34Z</time><name>PT8593</name></trkpt>
<trkpt lat="52.940972" lon="-3.153561"><ele>252</ele><time>2019-09-27T12:44:35Z</time><name>PT8594</name></trkpt>
<trkpt lat="52.940982" lon="-3.153576"><ele>252</ele><time>2019-09-27T12:44:36Z</time><name>PT8595</name></trkpt>
<trkpt lat="52.940988" lon="-3.153586"><ele>252</ele><time>2019-09-27T12:44:37Z</time><name>PT8596</name></trkpt>
<trkpt lat="52.940997" lon="-3.153605"><ele>252</ele><time>2019-09-27T12:44:38Z</time><name>PT8597</name></trkpt>
<trkpt lat="52.941005" lon="-3.153615"><ele>253</ele><time>2019-09-27T12:44:39Z</time><name>PT8598</name></trkpt>
<trkpt lat="52.941017" lon="-3.153624"><ele>254</ele><time>2019-09-27T12:44:40Z</time><name>PT8599</name></trkpt>
<trkpt lat="52.941028" lon="-3.153637"><ele>254</ele><time>2019-09-27T12:44:41Z</time><name>PT8600</name></trkpt>
<trkpt lat="52.941038" lon="-3.153650"><ele>254</ele><time>2019-09-27T12:44:42Z</time><name>PT8601</name></trkpt>
<trkpt lat="52.941050" lon="-3.153662"><ele>255</ele><time>2019-09-27T12:44:43Z</time><name>PT8602</name></trkpt>
<trkpt lat="52.941057" lon="-3.153671"><ele>255</ele><time>2019-09-27T12:44:44Z</time><name>PT8603</name></trkpt>
<trkpt lat="52.941064" lon="-3.153685"><ele>255</ele><time>2019-09-27T12:44:45Z</time><name>PT8604</name></trkpt>
<trkpt lat="52.941072" lon="-3.153699"><ele>256</ele><time>2019-09-27T12:44:45Z</time><name>PT8605</name></trkpt>
<trkpt lat="52.941083" lon="-3.153716"><ele>257</ele><time>2019-09-27T12:44:47Z</time><name>PT8606</name></trkpt>
<trkpt lat="52.941091" lon="-3.153727"><ele>258</ele><time>2019-09-27T12:44:48Z</time><name>PT8607</name></trkpt>
<trkpt lat="52.941099" lon="-3.153739"><ele>258</ele><time>2019-09-27T12:44:49Z</time><name>PT8608</name></trkpt>
<trkpt lat="52.941106" lon="-3.153750"><ele>258</ele><time>2019-09-27T12:44:50Z</time><name>PT8609</name></trkpt>
<trkpt lat="52.941116" lon="-3.153761"><ele>259</ele><time>2019-09-27T12:44:51Z</time><name>PT8610</name></trkpt>
<trkpt lat="52.941126" lon="-3.153770"><ele>260</ele><time>2019-09-27T12:44:52Z</time><name>PT8611</name></trkpt>
<trkpt lat="52.941140" lon="-3.153797"><ele>262</ele><time>2019-09-27T12:45:08Z</time><name>PT8612</name></trkpt>
<trkpt lat="52.941162" lon="-3.153828"><ele>263</ele><time>2019-09-27T12:45:09Z</time><name>PT8613</name></trkpt>
<trkpt lat="52.941179" lon="-3.153847"><ele>263</ele><time>2019-09-27T12:45:10Z</time><name>PT8614</name></trkpt>
<trkpt lat="52.941189" lon="-3.153858"><ele>263</ele><time>2019-09-27T12:45:11Z</time><name>PT8615</name></trkpt>
<trkpt lat="52.941199" lon="-3.153870"><ele>263</ele><time>2019-09-27T12:45:12Z</time><name>PT8616</name></trkpt>
<trkpt lat="52.941209" lon="-3.153882"><ele>263</ele><time>2019-09-27T12:45:13Z</time><name>PT8617</name></trkpt>
<trkpt lat="52.941219" lon="-3.153895"><ele>263</ele><time>2019-09-27T12:45:14Z</time><name>PT8618</name></trkpt>
<trkpt lat="52.941230" lon="-3.153903"><ele>263</ele><time>2019-09-27T12:45:15Z</time><name>PT8619</name></trkpt>
<trkpt lat="52.941233" lon="-3.153920"><ele>263</ele><time>2019-09-27T12:45:18Z</time><name>PT8620</name></trkpt>
<trkpt lat="52.941245" lon="-3.153931"><ele>262</ele><time>2019-09-27T12:45:19Z</time><name>PT8621</name></trkpt>
<trkpt lat="52.941256" lon="-3.153942"><ele>262</ele><time>2019-09-27T12:45:20Z</time><name>PT8622</name></trkpt>
<trkpt lat="52.941263" lon="-3.153949"><ele>262</ele><time>2019-09-27T12:45:21Z</time><name>PT8623</name></trkpt>
<trkpt lat="52.941278" lon="-3.153956"><ele>262</ele><time>2019-09-27T12:45:22Z</time><name>PT8624</name></trkpt>
<trkpt lat="52.941288" lon="-3.153958"><ele>262</ele><time>2019-09-27T12:45:23Z</time><name>PT8625</name></trkpt>
<trkpt lat="52.941297" lon="-3.153962"><ele>262</ele><time>2019-09-27T12:45:24Z</time><name>PT8626</name></trkpt>
<trkpt lat="52.941305" lon="-3.153965"><ele>262</ele><time>2019-09-27T12:45:25Z</time><name>PT8627</name></trkpt>
<trkpt lat="52.941322" lon="-3.153979"><ele>262</ele><time>2019-09-27T12:45:26Z</time><name>PT8628</name></trkpt>
<trkpt lat="52.941341" lon="-3.154019"><ele>262</ele><time>2019-09-27T12:45:34Z</time><name>PT8629</name></trkpt>
<trkpt lat="52.941353" lon="-3.154039"><ele>262</ele><time>2019-09-27T12:45:35Z</time><name>PT8630</name></trkpt>
<trkpt lat="52.941368" lon="-3.154036"><ele>263</ele><time>2019-09-27T12:45:36Z</time><name>PT8631</name></trkpt>
<trkpt lat="52.941393" lon="-3.154033"><ele>263</ele><time>2019-09-27T12:45:37Z</time><name>PT8632</name></trkpt>
<trkpt lat="52.941409" lon="-3.154040"><ele>263</ele><time>2019-09-27T12:45:38Z</time><name>PT8633</name></trkpt>
<trkpt lat="52.941419" lon="-3.154050"><ele>263</ele><time>2019-09-27T12:45:39Z</time><name>PT8634</name></trkpt>
<trkpt lat="52.941431" lon="-3.154056"><ele>263</ele><time>2019-09-27T12:45:40Z</time><name>PT8635</name></trkpt>
<trkpt lat="52.941445" lon="-3.154062"><ele>263</ele><time>2019-09-27T12:45:41Z</time><name>PT8636</name></trkpt>
<trkpt lat="52.941453" lon="-3.154068"><ele>263</ele><time>2019-09-27T12:45:42Z</time><name>PT8637</name></trkpt>
<trkpt lat="52.941471" lon="-3.154069"><ele>264</ele><time>2019-09-27T12:45:43Z</time><name>PT8638</name></trkpt>
<trkpt lat="52.941482" lon="-3.154075"><ele>265</ele><time>2019-09-27T12:45:44Z</time><name>PT8639</name></trkpt>
<trkpt lat="52.941492" lon="-3.154085"><ele>265</ele><time>2019-09-27T12:45:45Z</time><name>PT8640</name></trkpt>
<trkpt lat="52.941503" lon="-3.154094"><ele>267</ele><time>2019-09-27T12:45:46Z</time><name>PT8641</name></trkpt>
<trkpt lat="52.941514" lon="-3.154102"><ele>267</ele><time>2019-09-27T12:45:47Z</time><name>PT8642</name></trkpt>
<trkpt lat="52.941522" lon="-3.154107"><ele>268</ele><time>2019-09-27T12:45:48Z</time><name>PT8643</name></trkpt>
<trkpt lat="52.941524" lon="-3.154111"><ele>268</ele><time>2019-09-27T12:45:49Z</time><name>PT8644</name></trkpt>
<trkpt lat="52.941530" lon="-3.154118"><ele>269</ele><time>2019-09-27T12:45:50Z</time><name>PT8645</name></trkpt>
<trkpt lat="52.941538" lon="-3.154124"><ele>269</ele><time>2019-09-27T12:45:51Z</time><name>PT8646</name></trkpt>
<trkpt lat="52.941543" lon="-3.154124"><ele>270</ele><time>2019-09-27T12:45:52Z</time><name>PT8647</name></trkpt>
<trkpt lat="52.941546" lon="-3.154129"><ele>269</ele><time>2019-09-27T12:45:53Z</time><name>PT8648</name></trkpt>
<trkpt lat="52.941555" lon="-3.154139"><ele>271</ele><time>2019-09-27T12:45:54Z</time><name>PT8649</name></trkpt>
<trkpt lat="52.941562" lon="-3.154146"><ele>271</ele><time>2019-09-27T12:45:55Z</time><name>PT8650</name></trkpt>
<trkpt lat="52.941568" lon="-3.154152"><ele>272</ele><time>2019-09-27T12:45:56Z</time><name>PT8651</name></trkpt>
<trkpt lat="52.941574" lon="-3.154157"><ele>272</ele><time>2019-09-27T12:45:57Z</time><name>PT8652</name></trkpt>
<trkpt lat="52.941583" lon="-3.154161"><ele>274</ele><time>2019-09-27T12:45:57Z</time><name>PT8653</name></trkpt>
<trkpt lat="52.941589" lon="-3.154163"><ele>274</ele><time>2019-09-27T12:45:59Z</time><name>PT8654</name></trkpt>
<trkpt lat="52.941595" lon="-3.154167"><ele>274</ele><time>2019-09-27T12:46:00Z</time><name>PT8655</name></trkpt>
<trkpt lat="52.941602" lon="-3.154173"><ele>274</ele><time>2019-09-27T12:46:01Z</time><name>PT8656</name></trkpt>
<trkpt lat="52.941606" lon="-3.154181"><ele>274</ele><time>2019-09-27T12:46:02Z</time><name>PT8657</name></trkpt>
<trkpt lat="52.941616" lon="-3.154192"><ele>275</ele><time>2019-09-27T12:46:03Z</time><name>PT8658</name></trkpt>
<trkpt lat="52.941622" lon="-3.154200"><ele>275</ele><time>2019-09-27T12:46:04Z</time><name>PT8659</name></trkpt>
<trkpt lat="52.941637" lon="-3.154208"><ele>277</ele><time>2019-09-27T12:46:05Z</time><name>PT8660</name></trkpt>
<trkpt lat="52.941646" lon="-3.154220"><ele>277</ele><time>2019-09-27T12:46:06Z</time><name>PT8661</name></trkpt>
<trkpt lat="52.941651" lon="-3.154228"><ele>277</ele><time>2019-09-27T12:46:07Z</time><name>PT8662</name></trkpt>
<trkpt lat="52.941660" lon="-3.154232"><ele>278</ele><time>2019-09-27T12:46:08Z</time><name>PT8663</name></trkpt>
<trkpt lat="52.941667" lon="-3.154237"><ele>279</ele><time>2019-09-27T12:46:09Z</time><name>PT8664</name></trkpt>
<trkpt lat="52.941678" lon="-3.154239"><ele>279</ele><time>2019-09-27T12:46:09Z</time><name>PT8665</name></trkpt>
<trkpt lat="52.941681" lon="-3.154237"><ele>279</ele><time>2019-09-27T12:46:11Z</time><name>PT8666</name></trkpt>
<trkpt lat="52.941686" lon="-3.154236"><ele>279</ele><time>2019-09-27T12:46:12Z</time><name>PT8667</name></trkpt>
<trkpt lat="52.941690" lon="-3.154242"><ele>279</ele><time>2019-09-27T12:46:13Z</time><name>PT8668</name></trkpt>
<trkpt lat="52.941693" lon="-3.154247"><ele>279</ele><time>2019-09-27T12:46:14Z</time><name>PT8669</name></trkpt>
<trkpt lat="52.941698" lon="-3.154253"><ele>278</ele><time>2019-09-27T12:46:15Z</time><name>PT8670</name></trkpt>
<trkpt lat="52.941704" lon="-3.154260"><ele>278</ele><time>2019-09-27T12:46:16Z</time><name>PT8671</name></trkpt>
<trkpt lat="52.941712" lon="-3.154267"><ele>278</ele><time>2019-09-27T12:46:17Z</time><name>PT8672</name></trkpt>
<trkpt lat="52.941724" lon="-3.154272"><ele>280</ele><time>2019-09-27T12:46:18Z</time><name>PT8673</name></trkpt>
<trkpt lat="52.941734" lon="-3.154275"><ele>280</ele><time>2019-09-27T12:46:19Z</time><name>PT8674</name></trkpt>
<trkpt lat="52.941739" lon="-3.154283"><ele>280</ele><time>2019-09-27T12:46:20Z</time><name>PT8675</name></trkpt>
<trkpt lat="52.941746" lon="-3.154290"><ele>280</ele><time>2019-09-27T12:46:21Z</time><name>PT8676</name></trkpt>
<trkpt lat="52.941752" lon="-3.154295"><ele>280</ele><time>2019-09-27T12:46:22Z</time><name>PT8677</name></trkpt>
<trkpt lat="52.941758" lon="-3.154298"><ele>280</ele><time>2019-09-27T12:46:23Z</time><name>PT8678</name></trkpt>
<trkpt lat="52.941762" lon="-3.154303"><ele>280</ele><time>2019-09-27T12:46:24Z</time><name>PT8679</name></trkpt>
<trkpt lat="52.941769" lon="-3.154308"><ele>279</ele><time>2019-09-27T12:46:25Z</time><name>PT8680</name></trkpt>
<trkpt lat="52.941772" lon="-3.154314"><ele>279</ele><time>2019-09-27T12:46:26Z</time><name>PT8681</name></trkpt>
<trkpt lat="52.941784" lon="-3.154320"><ele>279</ele><time>2019-09-27T12:46:27Z</time><name>PT8682</name></trkpt>
<trkpt lat="52.941794" lon="-3.154328"><ele>279</ele><time>2019-09-27T12:46:28Z</time><name>PT8683</name></trkpt>
<trkpt lat="52.941799" lon="-3.154336"><ele>279</ele><time>2019-09-27T12:46:29Z</time><name>PT8684</name></trkpt>
<trkpt lat="52.941825" lon="-3.154331"><ele>282</ele><time>2019-09-27T12:46:30Z</time><name>PT8685</name></trkpt>
<trkpt lat="52.941835" lon="-3.154335"><ele>282</ele><time>2019-09-27T12:46:31Z</time><name>PT8686</name></trkpt>
<trkpt lat="52.941849" lon="-3.154341"><ele>283</ele><time>2019-09-27T12:46:32Z</time><name>PT8687</name></trkpt>
<trkpt lat="52.941856" lon="-3.154348"><ele>283</ele><time>2019-09-27T12:46:33Z</time><name>PT8688</name></trkpt>
<trkpt lat="52.941866" lon="-3.154352"><ele>283</ele><time>2019-09-27T12:46:34Z</time><name>PT8689</name></trkpt>
<trkpt lat="52.941871" lon="-3.154351"><ele>283</ele><time>2019-09-27T12:46:35Z</time><name>PT8690</name></trkpt>
<trkpt lat="52.941880" lon="-3.154353"><ele>283</ele><time>2019-09-27T12:46:36Z</time><name>PT8691</name></trkpt>
<trkpt lat="52.941908" lon="-3.154336"><ele>286</ele><time>2019-09-27T12:46:37Z</time><name>PT8692</name></trkpt>
<trkpt lat="52.941913" lon="-3.154335"><ele>286</ele><time>2019-09-27T12:46:38Z</time><name>PT8693</name></trkpt>
<trkpt lat="52.941924" lon="-3.154335"><ele>286</ele><time>2019-09-27T12:46:39Z</time><name>PT8694</name></trkpt>
<trkpt lat="52.941932" lon="-3.154336"><ele>286</ele><time>2019-09-27T12:46:40Z</time><name>PT8695</name></trkpt>
<trkpt lat="52.941948" lon="-3.154330"><ele>287</ele><time>2019-09-27T12:46:41Z</time><name>PT8696</name></trkpt>
<trkpt lat="52.941959" lon="-3.154328"><ele>287</ele><time>2019-09-27T12:46:42Z</time><name>PT8697</name></trkpt>
<trkpt lat="52.941971" lon="-3.154327"><ele>288</ele><time>2019-09-27T12:46:43Z</time><name>PT8698</name></trkpt>
<trkpt lat="52.941976" lon="-3.154327"><ele>288</ele><time>2019-09-27T12:46:44Z</time><name>PT8699</name></trkpt>
<trkpt lat="52.941983" lon="-3.154327"><ele>288</ele><time>2019-09-27T12:46:45Z</time><name>PT8700</name></trkpt>
<trkpt lat="52.941995" lon="-3.154329"><ele>289</ele><time>2019-09-27T12:46:45Z</time><name>PT8701</name></trkpt>
<trkpt lat="52.942005" lon="-3.154334"><ele>289</ele><time>2019-09-27T12:46:47Z</time><name>PT8702</name></trkpt>
<trkpt lat="52.942013" lon="-3.154337"><ele>289</ele><time>2019-09-27T12:46:48Z</time><name>PT8703</name></trkpt>
<trkpt lat="52.942024" lon="-3.154339"><ele>289</ele><time>2019-09-27T12:46:49Z</time><name>PT8704</name></trkpt>
<trkpt lat="52.942031" lon="-3.154343"><ele>289</ele><time>2019-09-27T12:46:50Z</time><name>PT8705</name></trkpt>
<trkpt lat="52.942035" lon="-3.154348"><ele>289</ele><time>2019-09-27T12:46:51Z</time><name>PT8706</name></trkpt>
<trkpt lat="52.942041" lon="-3.154352"><ele>288</ele><time>2019-09-27T12:46:52Z</time><name>PT8707</name></trkpt>
<trkpt lat="52.942052" lon="-3.154356"><ele>289</ele><time>2019-09-27T12:46:53Z</time><name>PT8708</name></trkpt>
<trkpt lat="52.942065" lon="-3.154360"><ele>290</ele><time>2019-09-27T12:46:54Z</time><name>PT8709</name></trkpt>
<trkpt lat="52.942075" lon="-3.154367"><ele>290</ele><time>2019-09-27T12:46:55Z</time><name>PT8710</name></trkpt>
<trkpt lat="52.942078" lon="-3.154369"><ele>289</ele><time>2019-09-27T12:46:56Z</time><name>PT8711</name></trkpt>
<trkpt lat="52.942088" lon="-3.154371"><ele>290</ele><time>2019-09-27T12:46:57Z</time><name>PT8712</name></trkpt>
<trkpt lat="52.942099" lon="-3.154373"><ele>290</ele><time>2019-09-27T12:46:58Z</time><name>PT8713</name></trkpt>
<trkpt lat="52.942108" lon="-3.154372"><ele>290</ele><time>2019-09-27T12:46:59Z</time><name>PT8714</name></trkpt>
<trkpt lat="52.942119" lon="-3.154371"><ele>291</ele><time>2019-09-27T12:47:00Z</time><name>PT8715</name></trkpt>
<trkpt lat="52.942128" lon="-3.154372"><ele>291</ele><time>2019-09-27T12:47:01Z</time><name>PT8716</name></trkpt>
<trkpt lat="52.942134" lon="-3.154369"><ele>291</ele><time>2019-09-27T12:47:02Z</time><name>PT8717</name></trkpt>
<trkpt lat="52.942142" lon="-3.154365"><ele>291</ele><time>2019-09-27T12:47:03Z</time><name>PT8718</name></trkpt>
<trkpt lat="52.942150" lon="-3.154363"><ele>291</ele><time>2019-09-27T12:47:04Z</time><name>PT8719</name></trkpt>
<trkpt lat="52.942157" lon="-3.154364"><ele>291</ele><time>2019-09-27T12:47:05Z</time><name>PT8720</name></trkpt>
<trkpt lat="52.942163" lon="-3.154365"><ele>291</ele><time>2019-09-27T12:47:06Z</time><name>PT8721</name></trkpt>
<trkpt lat="52.942170" lon="-3.154363"><ele>290</ele><time>2019-09-27T12:47:06Z</time><name>PT8722</name></trkpt>
<trkpt lat="52.942179" lon="-3.154363"><ele>291</ele><time>2019-09-27T12:47:08Z</time><name>PT8723</name></trkpt>
<trkpt lat="52.942186" lon="-3.154361"><ele>291</ele><time>2019-09-27T12:47:09Z</time><name>PT8724</name></trkpt>
<trkpt lat="52.942197" lon="-3.154368"><ele>291</ele><time>2019-09-27T12:47:10Z</time><name>PT8725</name></trkpt>
<trkpt lat="52.942207" lon="-3.154370"><ele>291</ele><time>2019-09-27T12:47:11Z</time><name>PT8726</name></trkpt>
<trkpt lat="52.942215" lon="-3.154372"><ele>292</ele><time>2019-09-27T12:47:12Z</time><name>PT8727</name></trkpt>
<trkpt lat="52.942224" lon="-3.154371"><ele>293</ele><time>2019-09-27T12:47:13Z</time><name>PT8728</name></trkpt>
<trkpt lat="52.942232" lon="-3.154370"><ele>293</ele><time>2019-09-27T12:47:14Z</time><name>PT8729</name></trkpt>
<trkpt lat="52.942241" lon="-3.154371"><ele>294</ele><time>2019-09-27T12:47:15Z</time><name>PT8730</name></trkpt>
<trkpt lat="52.942250" lon="-3.154370"><ele>294</ele><time>2019-09-27T12:47:16Z</time><name>PT8731</name></trkpt>
<trkpt lat="52.942256" lon="-3.154372"><ele>295</ele><time>2019-09-27T12:47:17Z</time><name>PT8732</name></trkpt>
<trkpt lat="52.942266" lon="-3.154373"><ele>295</ele><time>2019-09-27T12:47:18Z</time><name>PT8733</name></trkpt>
<trkpt lat="52.942273" lon="-3.154368"><ele>295</ele><time>2019-09-27T12:47:19Z</time><name>PT8734</name></trkpt>
<trkpt lat="52.942281" lon="-3.154366"><ele>295</ele><time>2019-09-27T12:47:20Z</time><name>PT8735</name></trkpt>
<trkpt lat="52.942290" lon="-3.154369"><ele>295</ele><time>2019-09-27T12:47:21Z</time><name>PT8736</name></trkpt>
<trkpt lat="52.942302" lon="-3.154370"><ele>296</ele><time>2019-09-27T12:47:22Z</time><name>PT8737</name></trkpt>
<trkpt lat="52.942312" lon="-3.154368"><ele>296</ele><time>2019-09-27T12:47:23Z</time><name>PT8738</name></trkpt>
<trkpt lat="52.942324" lon="-3.154363"><ele>297</ele><time>2019-09-27T12:47:24Z</time><name>PT8739</name></trkpt>
<trkpt lat="52.942336" lon="-3.154364"><ele>297</ele><time>2019-09-27T12:47:24Z</time><name>PT8740</name></trkpt>
<trkpt lat="52.942345" lon="-3.154365"><ele>297</ele><time>2019-09-27T12:47:26Z</time><name>PT8741</name></trkpt>
<trkpt lat="52.942355" lon="-3.154365"><ele>297</ele><time>2019-09-27T12:47:27Z</time><name>PT8742</name></trkpt>
<trkpt lat="52.942365" lon="-3.154363"><ele>298</ele><time>2019-09-27T12:47:28Z</time><name>PT8743</name></trkpt>
<trkpt lat="52.942371" lon="-3.154364"><ele>297</ele><time>2019-09-27T12:47:29Z</time><name>PT8744</name></trkpt>
<trkpt lat="52.942379" lon="-3.154363"><ele>297</ele><time>2019-09-27T12:47:30Z</time><name>PT8745</name></trkpt>
<trkpt lat="52.942387" lon="-3.154364"><ele>298</ele><time>2019-09-27T12:47:31Z</time><name>PT8746</name></trkpt>
<trkpt lat="52.942393" lon="-3.154366"><ele>298</ele><time>2019-09-27T12:47:32Z</time><name>PT8747</name></trkpt>
<trkpt lat="52.942401" lon="-3.154364"><ele>298</ele><time>2019-09-27T12:47:33Z</time><name>PT8748</name></trkpt>
<trkpt lat="52.942413" lon="-3.154357"><ele>298</ele><time>2019-09-27T12:47:34Z</time><name>PT8749</name></trkpt>
<trkpt lat="52.942416" lon="-3.154356"><ele>298</ele><time>2019-09-27T12:47:35Z</time><name>PT8750</name></trkpt>
<trkpt lat="52.942425" lon="-3.154354"><ele>298</ele><time>2019-09-27T12:47:36Z</time><name>PT8751</name></trkpt>
<trkpt lat="52.942432" lon="-3.154354"><ele>298</ele><time>2019-09-27T12:47:36Z</time><name>PT8752</name></trkpt>
<trkpt lat="52.942435" lon="-3.154350"><ele>297</ele><time>2019-09-27T12:47:38Z</time><name>PT8753</name></trkpt>
<trkpt lat="52.942440" lon="-3.154350"><ele>297</ele><time>2019-09-27T12:47:39Z</time><name>PT8754</name></trkpt>
<trkpt lat="52.942449" lon="-3.154347"><ele>297</ele><time>2019-09-27T12:47:40Z</time><name>PT8755</name></trkpt>
<trkpt lat="52.942457" lon="-3.154343"><ele>297</ele><time>2019-09-27T12:47:41Z</time><name>PT8756</name></trkpt>
<trkpt lat="52.942461" lon="-3.154341"><ele>296</ele><time>2019-09-27T12:47:42Z</time><name>PT8757</name></trkpt>
<trkpt lat="52.942466" lon="-3.154340"><ele>296</ele><time>2019-09-27T12:47:43Z</time><name>PT8758</name></trkpt>
<trkpt lat="52.942473" lon="-3.154337"><ele>296</ele><time>2019-09-27T12:47:44Z</time><name>PT8759</name></trkpt>
<trkpt lat="52.942482" lon="-3.154334"><ele>296</ele><time>2019-09-27T12:47:45Z</time><name>PT8760</name></trkpt>
<trkpt lat="52.942494" lon="-3.154328"><ele>297</ele><time>2019-09-27T12:47:46Z</time><name>PT8761</name></trkpt>
<trkpt lat="52.942502" lon="-3.154324"><ele>297</ele><time>2019-09-27T12:47:47Z</time><name>PT8762</name></trkpt>
<trkpt lat="52.942509" lon="-3.154323"><ele>297</ele><time>2019-09-27T12:47:48Z</time><name>PT8763</name></trkpt>
<trkpt lat="52.942518" lon="-3.154320"><ele>297</ele><time>2019-09-27T12:47:49Z</time><name>PT8764</name></trkpt>
<trkpt lat="52.942525" lon="-3.154315"><ele>297</ele><time>2019-09-27T12:47:50Z</time><name>PT8765</name></trkpt>
<trkpt lat="52.942531" lon="-3.154313"><ele>298</ele><time>2019-09-27T12:47:51Z</time><name>PT8766</name></trkpt>
<trkpt lat="52.942541" lon="-3.154312"><ele>298</ele><time>2019-09-27T12:47:52Z</time><name>PT8767</name></trkpt>
<trkpt lat="52.942550" lon="-3.154313"><ele>298</ele><time>2019-09-27T12:47:53Z</time><name>PT8768</name></trkpt>
<trkpt lat="52.942556" lon="-3.154311"><ele>298</ele><time>2019-09-27T12:47:54Z</time><name>PT8769</name></trkpt>
<trkpt lat="52.942561" lon="-3.154311"><ele>298</ele><time>2019-09-27T12:47:55Z</time><name>PT8770</name></trkpt>
<trkpt lat="52.942568" lon="-3.154312"><ele>298</ele><time>2019-09-27T12:47:56Z</time><name>PT8771</name></trkpt>
<trkpt lat="52.942575" lon="-3.154311"><ele>298</ele><time>2019-09-27T12:47:57Z</time><name>PT8772</name></trkpt>
<trkpt lat="52.942585" lon="-3.154309"><ele>299</ele><time>2019-09-27T12:47:58Z</time><name>PT8773</name></trkpt>
<trkpt lat="52.942595" lon="-3.154310"><ele>298</ele><time>2019-09-27T12:47:59Z</time><name>PT8774</name></trkpt>
<trkpt lat="52.942602" lon="-3.154313"><ele>298</ele><time>2019-09-27T12:48:00Z</time><name>PT8775</name></trkpt>
<trkpt lat="52.942612" lon="-3.154311"><ele>299</ele><time>2019-09-27T12:48:01Z</time><name>PT8776</name></trkpt>
<trkpt lat="52.942622" lon="-3.154311"><ele>299</ele><time>2019-09-27T12:48:02Z</time><name>PT8777</name></trkpt>
<trkpt lat="52.942635" lon="-3.154308"><ele>299</ele><time>2019-09-27T12:48:03Z</time><name>PT8778</name></trkpt>
<trkpt lat="52.942643" lon="-3.154306"><ele>300</ele><time>2019-09-27T12:48:04Z</time><name>PT8779</name></trkpt>
<trkpt lat="52.942652" lon="-3.154304"><ele>300</ele><time>2019-09-27T12:48:05Z</time><name>PT8780</name></trkpt>
<trkpt lat="52.942659" lon="-3.154301"><ele>300</ele><time>2019-09-27T12:48:06Z</time><name>PT8781</name></trkpt>
<trkpt lat="52.942667" lon="-3.154301"><ele>300</ele><time>2019-09-27T12:48:07Z</time><name>PT8782</name></trkpt>
<trkpt lat="52.942674" lon="-3.154298"><ele>300</ele><time>2019-09-27T12:48:08Z</time><name>PT8783</name></trkpt>
<trkpt lat="52.942682" lon="-3.154296"><ele>300</ele><time>2019-09-27T12:48:09Z</time><name>PT8784</name></trkpt>
<trkpt lat="52.942690" lon="-3.154296"><ele>300</ele><time>2019-09-27T12:48:10Z</time><name>PT8785</name></trkpt>
<trkpt lat="52.942697" lon="-3.154294"><ele>301</ele><time>2019-09-27T12:48:11Z</time><name>PT8786</name></trkpt>
<trkpt lat="52.942706" lon="-3.154290"><ele>301</ele><time>2019-09-27T12:48:12Z</time><name>PT8787</name></trkpt>
<trkpt lat="52.942711" lon="-3.154290"><ele>301</ele><time>2019-09-27T12:48:13Z</time><name>PT8788</name></trkpt>
<trkpt lat="52.942720" lon="-3.154290"><ele>301</ele><time>2019-09-27T12:48:14Z</time><name>PT8789</name></trkpt>
<trkpt lat="52.942730" lon="-3.154289"><ele>301</ele><time>2019-09-27T12:48:15Z</time><name>PT8790</name></trkpt>
<trkpt lat="52.942739" lon="-3.154287"><ele>301</ele><time>2019-09-27T12:48:16Z</time><name>PT8791</name></trkpt>
<trkpt lat="52.942747" lon="-3.154284"><ele>301</ele><time>2019-09-27T12:48:17Z</time><name>PT8792</name></trkpt>
<trkpt lat="52.942754" lon="-3.154284"><ele>301</ele><time>2019-09-27T12:48:18Z</time><name>PT8793</name></trkpt>
<trkpt lat="52.942758" lon="-3.154288"><ele>300</ele><time>2019-09-27T12:48:19Z</time><name>PT8794</name></trkpt>
<trkpt lat="52.942764" lon="-3.154289"><ele>301</ele><time>2019-09-27T12:48:20Z</time><name>PT8795</name></trkpt>
<trkpt lat="52.942769" lon="-3.154286"><ele>301</ele><time>2019-09-27T12:48:21Z</time><name>PT8796</name></trkpt>
<trkpt lat="52.942779" lon="-3.154282"><ele>300</ele><time>2019-09-27T12:48:22Z</time><name>PT8797</name></trkpt>
<trkpt lat="52.942784" lon="-3.154282"><ele>300</ele><time>2019-09-27T12:48:23Z</time><name>PT8798</name></trkpt>
<trkpt lat="52.942784" lon="-3.154281"><ele>300</ele><time>2019-09-27T12:48:24Z</time><name>PT8799</name></trkpt>
<trkpt lat="52.942789" lon="-3.154283"><ele>301</ele><time>2019-09-27T12:48:25Z</time><name>PT8800</name></trkpt>
<trkpt lat="52.942796" lon="-3.154280"><ele>301</ele><time>2019-09-27T12:48:26Z</time><name>PT8801</name></trkpt>
<trkpt lat="52.942804" lon="-3.154275"><ele>302</ele><time>2019-09-27T12:48:27Z</time><name>PT8802</name></trkpt>
<trkpt lat="52.942809" lon="-3.154273"><ele>302</ele><time>2019-09-27T12:48:28Z</time><name>PT8803</name></trkpt>
<trkpt lat="52.942813" lon="-3.154271"><ele>302</ele><time>2019-09-27T12:48:29Z</time><name>PT8804</name></trkpt>
<trkpt lat="52.942820" lon="-3.154273"><ele>302</ele><time>2019-09-27T12:48:30Z</time><name>PT8805</name></trkpt>
<trkpt lat="52.942827" lon="-3.154268"><ele>302</ele><time>2019-09-27T12:48:31Z</time><name>PT8806</name></trkpt>
<trkpt lat="52.942833" lon="-3.154264"><ele>302</ele><time>2019-09-27T12:48:32Z</time><name>PT8807</name></trkpt>
<trkpt lat="52.942838" lon="-3.154258"><ele>303</ele><time>2019-09-27T12:48:33Z</time><name>PT8808</name></trkpt>
<trkpt lat="52.942845" lon="-3.154251"><ele>303</ele><time>2019-09-27T12:48:34Z</time><name>PT8809</name></trkpt>
<trkpt lat="52.942853" lon="-3.154244"><ele>303</ele><time>2019-09-27T12:48:35Z</time><name>PT8810</name></trkpt>
<trkpt lat="52.942857" lon="-3.154242"><ele>302</ele><time>2019-09-27T12:48:36Z</time><name>PT8811</name></trkpt>
<trkpt lat="52.942866" lon="-3.154240"><ele>303</ele><time>2019-09-27T12:48:37Z</time><name>PT8812</name></trkpt>
<trkpt lat="52.942871" lon="-3.154234"><ele>302</ele><time>2019-09-27T12:48:38Z</time><name>PT8813</name></trkpt>
<trkpt lat="52.942877" lon="-3.154228"><ele>302</ele><time>2019-09-27T12:48:39Z</time><name>PT8814</name></trkpt>
<trkpt lat="52.942885" lon="-3.154225"><ele>302</ele><time>2019-09-27T12:48:40Z</time><name>PT8815</name></trkpt>
<trkpt lat="52.942890" lon="-3.154224"><ele>302</ele><time>2019-09-27T12:48:41Z</time><name>PT8816</name></trkpt>
<trkpt lat="52.942894" lon="-3.154221"><ele>302</ele><time>2019-09-27T12:48:42Z</time><name>PT8817</name></trkpt>
<trkpt lat="52.942902" lon="-3.154216"><ele>302</ele><time>2019-09-27T12:48:43Z</time><name>PT8818</name></trkpt>
<trkpt lat="52.942908" lon="-3.154212"><ele>302</ele><time>2019-09-27T12:48:44Z</time><name>PT8819</name></trkpt>
<trkpt lat="52.942915" lon="-3.154212"><ele>303</ele><time>2019-09-27T12:48:45Z</time><name>PT8820</name></trkpt>
<trkpt lat="52.942924" lon="-3.154208"><ele>303</ele><time>2019-09-27T12:48:46Z</time><name>PT8821</name></trkpt>
<trkpt lat="52.942932" lon="-3.154209"><ele>303</ele><time>2019-09-27T12:48:47Z</time><name>PT8822</name></trkpt>
<trkpt lat="52.942940" lon="-3.154209"><ele>303</ele><time>2019-09-27T12:48:48Z</time><name>PT8823</name></trkpt>
<trkpt lat="52.942949" lon="-3.154205"><ele>303</ele><time>2019-09-27T12:48:49Z</time><name>PT8824</name></trkpt>
<trkpt lat="52.942955" lon="-3.154201"><ele>302</ele><time>2019-09-27T12:48:50Z</time><name>PT8825</name></trkpt>
<trkpt lat="52.942962" lon="-3.154201"><ele>301</ele><time>2019-09-27T12:48:51Z</time><name>PT8826</name></trkpt>
<trkpt lat="52.942967" lon="-3.154201"><ele>300</ele><time>2019-09-27T12:48:52Z</time><name>PT8827</name></trkpt>
<trkpt lat="52.942972" lon="-3.154200"><ele>300</ele><time>2019-09-27T12:48:53Z</time><name>PT8828</name></trkpt>
<trkpt lat="52.942981" lon="-3.154190"><ele>299</ele><time>2019-09-27T12:48:54Z</time><name>PT8829</name></trkpt>
<trkpt lat="52.942990" lon="-3.154184"><ele>299</ele><time>2019-09-27T12:48:55Z</time><name>PT8830</name></trkpt>
<trkpt lat="52.942994" lon="-3.154184"><ele>299</ele><time>2019-09-27T12:48:56Z</time><name>PT8831</name></trkpt>
<trkpt lat="52.942997" lon="-3.154188"><ele>299</ele><time>2019-09-27T12:48:57Z</time><name>PT8832</name></trkpt>
<trkpt lat="52.943003" lon="-3.154189"><ele>300</ele><time>2019-09-27T12:48:58Z</time><name>PT8833</name></trkpt>
<trkpt lat="52.943009" lon="-3.154188"><ele>299</ele><time>2019-09-27T12:48:59Z</time><name>PT8834</name></trkpt>
<trkpt lat="52.943018" lon="-3.154182"><ele>300</ele><time>2019-09-27T12:49:00Z</time><name>PT8835</name></trkpt>
<trkpt lat="52.943028" lon="-3.154179"><ele>300</ele><time>2019-09-27T12:49:01Z</time><name>PT8836</name></trkpt>
<trkpt lat="52.943034" lon="-3.154181"><ele>300</ele><time>2019-09-27T12:49:02Z</time><name>PT8837</name></trkpt>
<trkpt lat="52.943042" lon="-3.154183"><ele>300</ele><time>2019-09-27T12:49:03Z</time><name>PT8838</name></trkpt>
<trkpt lat="52.943052" lon="-3.154180"><ele>301</ele><time>2019-09-27T12:49:03Z</time><name>PT8839</name></trkpt>
<trkpt lat="52.943061" lon="-3.154173"><ele>301</ele><time>2019-09-27T12:49:05Z</time><name>PT8840</name></trkpt>
<trkpt lat="52.943074" lon="-3.154172"><ele>302</ele><time>2019-09-27T12:49:06Z</time><name>PT8841</name></trkpt>
<trkpt lat="52.943081" lon="-3.154168"><ele>302</ele><time>2019-09-27T12:49:07Z</time><name>PT8842</name></trkpt>
<trkpt lat="52.943096" lon="-3.154165"><ele>302</ele><time>2019-09-27T12:49:08Z</time><name>PT8843</name></trkpt>
<trkpt lat="52.943104" lon="-3.154167"><ele>302</ele><time>2019-09-27T12:49:09Z</time><name>PT8844</name></trkpt>
<trkpt lat="52.943118" lon="-3.154167"><ele>302</ele><time>2019-09-27T12:49:09Z</time><name>PT8845</name></trkpt>
<trkpt lat="52.943131" lon="-3.154161"><ele>302</ele><time>2019-09-27T12:49:11Z</time><name>PT8846</name></trkpt>
<trkpt lat="52.943146" lon="-3.154159"><ele>303</ele><time>2019-09-27T12:49:12Z</time><name>PT8847</name></trkpt>
<trkpt lat="52.943155" lon="-3.154161"><ele>302</ele><time>2019-09-27T12:49:13Z</time><name>PT8848</name></trkpt>
<trkpt lat="52.943164" lon="-3.154165"><ele>302</ele><time>2019-09-27T12:49:14Z</time><name>PT8849</name></trkpt>
<trkpt lat="52.943175" lon="-3.154164"><ele>301</ele><time>2019-09-27T12:49:15Z</time><name>PT8850</name></trkpt>
<trkpt lat="52.943185" lon="-3.154169"><ele>300</ele><time>2019-09-27T12:49:16Z</time><name>PT8851</name></trkpt>
<trkpt lat="52.943194" lon="-3.154173"><ele>300</ele><time>2019-09-27T12:49:17Z</time><name>PT8852</name></trkpt>
<trkpt lat="52.943201" lon="-3.154175"><ele>300</ele><time>2019-09-27T12:49:18Z</time><name>PT8853</name></trkpt>
<trkpt lat="52.943210" lon="-3.154179"><ele>300</ele><time>2019-09-27T12:49:19Z</time><name>PT8854</name></trkpt>
<trkpt lat="52.943216" lon="-3.154192"><ele>300</ele><time>2019-09-27T12:49:20Z</time><name>PT8855</name></trkpt>
<trkpt lat="52.943220" lon="-3.154197"><ele>300</ele><time>2019-09-27T12:49:21Z</time><name>PT8856</name></trkpt>
<trkpt lat="52.943226" lon="-3.154199"><ele>299</ele><time>2019-09-27T12:49:22Z</time><name>PT8857</name></trkpt>
<trkpt lat="52.943236" lon="-3.154205"><ele>300</ele><time>2019-09-27T12:49:23Z</time><name>PT8858</name></trkpt>
<trkpt lat="52.943251" lon="-3.154251"><ele>301</ele><time>2019-09-27T12:49:33Z</time><name>PT8859</name></trkpt>
<trkpt lat="52.943259" lon="-3.154269"><ele>301</ele><time>2019-09-27T12:49:34Z</time><name>PT8860</name></trkpt>
<trkpt lat="52.943272" lon="-3.154284"><ele>300</ele><time>2019-09-27T12:49:35Z</time><name>PT8861</name></trkpt>
<trkpt lat="52.943280" lon="-3.154292"><ele>299</ele><time>2019-09-27T12:49:36Z</time><name>PT8862</name></trkpt>
<trkpt lat="52.943287" lon="-3.154302"><ele>299</ele><time>2019-09-27T12:49:37Z</time><name>PT8863</name></trkpt>
<trkpt lat="52.943293" lon="-3.154308"><ele>298</ele><time>2019-09-27T12:49:38Z</time><name>PT8864</name></trkpt>
<trkpt lat="52.943303" lon="-3.154315"><ele>298</ele><time>2019-09-27T12:49:39Z</time><name>PT8865</name></trkpt>
<trkpt lat="52.943312" lon="-3.154323"><ele>297</ele><time>2019-09-27T12:49:40Z</time><name>PT8866</name></trkpt>
<trkpt lat="52.943320" lon="-3.154333"><ele>297</ele><time>2019-09-27T12:49:41Z</time><name>PT8867</name></trkpt>
<trkpt lat="52.943332" lon="-3.154339"><ele>296</ele><time>2019-09-27T12:49:42Z</time><name>PT8868</name></trkpt>
<trkpt lat="52.943340" lon="-3.154344"><ele>296</ele><time>2019-09-27T12:49:43Z</time><name>PT8869</name></trkpt>
<trkpt lat="52.943351" lon="-3.154345"><ele>296</ele><time>2019-09-27T12:49:44Z</time><name>PT8870</name></trkpt>
<trkpt lat="52.943365" lon="-3.154347"><ele>296</ele><time>2019-09-27T12:49:45Z</time><name>PT8871</name></trkpt>
<trkpt lat="52.943378" lon="-3.154349"><ele>297</ele><time>2019-09-27T12:49:46Z</time><name>PT8872</name></trkpt>
<trkpt lat="52.943388" lon="-3.154350"><ele>296</ele><time>2019-09-27T12:49:47Z</time><name>PT8873</name></trkpt>
<trkpt lat="52.943398" lon="-3.154357"><ele>296</ele><time>2019-09-27T12:49:48Z</time><name>PT8874</name></trkpt>
<trkpt lat="52.943409" lon="-3.154364"><ele>296</ele><time>2019-09-27T12:49:49Z</time><name>PT8875</name></trkpt>
<trkpt lat="52.943415" lon="-3.154370"><ele>296</ele><time>2019-09-27T12:49:50Z</time><name>PT8876</name></trkpt>
<trkpt lat="52.943424" lon="-3.154373"><ele>296</ele><time>2019-09-27T12:49:51Z</time><name>PT8877</name></trkpt>
<trkpt lat="52.943431" lon="-3.154379"><ele>296</ele><time>2019-09-27T12:49:52Z</time><name>PT8878</name></trkpt>
<trkpt lat="52.943443" lon="-3.154385"><ele>296</ele><time>2019-09-27T12:49:53Z</time><name>PT8879</name></trkpt>
<trkpt lat="52.943457" lon="-3.154390"><ele>296</ele><time>2019-09-27T12:49:54Z</time><name>PT8880</name></trkpt>
<trkpt lat="52.943466" lon="-3.154393"><ele>296</ele><time>2019-09-27T12:49:55Z</time><name>PT8881</name></trkpt>
<trkpt lat="52.943476" lon="-3.154395"><ele>296</ele><time>2019-09-27T12:49:56Z</time><name>PT8882</name></trkpt>
<trkpt lat="52.943484" lon="-3.154403"><ele>296</ele><time>2019-09-27T12:49:57Z</time><name>PT8883</name></trkpt>
<trkpt lat="52.943493" lon="-3.154402"><ele>297</ele><time>2019-09-27T12:49:58Z</time><name>PT8884</name></trkpt>
<trkpt lat="52.943502" lon="-3.154400"><ele>296</ele><time>2019-09-27T12:49:59Z</time><name>PT8885</name></trkpt>
<trkpt lat="52.943508" lon="-3.154399"><ele>296</ele><time>2019-09-27T12:50:04Z</time><name>PT8886</name></trkpt>
<trkpt lat="52.943515" lon="-3.154393"><ele>296</ele><time>2019-09-27T12:50:05Z</time><name>PT8887</name></trkpt>
<trkpt lat="52.943525" lon="-3.154398"><ele>296</ele><time>2019-09-27T12:50:06Z</time><name>PT8888</name></trkpt>
<trkpt lat="52.943534" lon="-3.154403"><ele>295</ele><time>2019-09-27T12:50:07Z</time><name>PT8889</name></trkpt>
<trkpt lat="52.943545" lon="-3.154412"><ele>295</ele><time>2019-09-27T12:50:08Z</time><name>PT8890</name></trkpt>
<trkpt lat="52.943557" lon="-3.154416"><ele>295</ele><time>2019-09-27T12:50:09Z</time><name>PT8891</name></trkpt>
<trkpt lat="52.943565" lon="-3.154423"><ele>295</ele><time>2019-09-27T12:50:10Z</time><name>PT8892</name></trkpt>
<trkpt lat="52.943581" lon="-3.154418"><ele>295</ele><time>2019-09-27T12:50:11Z</time><name>PT8893</name></trkpt>
<trkpt lat="52.943593" lon="-3.154412"><ele>295</ele><time>2019-09-27T12:50:12Z</time><name>PT8894</name></trkpt>
<trkpt lat="52.943607" lon="-3.154408"><ele>296</ele><time>2019-09-27T12:50:13Z</time><name>PT8895</name></trkpt>
<trkpt lat="52.943622" lon="-3.154412"><ele>297</ele><time>2019-09-27T12:50:14Z</time><name>PT8896</name></trkpt>
<trkpt lat="52.943629" lon="-3.154415"><ele>296</ele><time>2019-09-27T12:50:15Z</time><name>PT8897</name></trkpt>
<trkpt lat="52.943635" lon="-3.154414"><ele>296</ele><time>2019-09-27T12:50:16Z</time><name>PT8898</name></trkpt>
<trkpt lat="52.943643" lon="-3.154415"><ele>296</ele><time>2019-09-27T12:50:17Z</time><name>PT8899</name></trkpt>
<trkpt lat="52.943651" lon="-3.154419"><ele>297</ele><time>2019-09-27T12:50:18Z</time><name>PT8900</name></trkpt>
<trkpt lat="52.943666" lon="-3.154425"><ele>298</ele><time>2019-09-27T12:50:19Z</time><name>PT8901</name></trkpt>
<trkpt lat="52.943669" lon="-3.154429"><ele>298</ele><time>2019-09-27T12:50:20Z</time><name>PT8902</name></trkpt>
<trkpt lat="52.943681" lon="-3.154431"><ele>299</ele><time>2019-09-27T12:50:21Z</time><name>PT8903</name></trkpt>
<trkpt lat="52.943689" lon="-3.154434"><ele>298</ele><time>2019-09-27T12:50:21Z</time><name>PT8904</name></trkpt>
<trkpt lat="52.943702" lon="-3.154436"><ele>299</ele><time>2019-09-27T12:50:23Z</time><name>PT8905</name></trkpt>
<trkpt lat="52.943703" lon="-3.154439"><ele>299</ele><time>2019-09-27T12:50:24Z</time><name>PT8906</name></trkpt>
<trkpt lat="52.943705" lon="-3.154441"><ele>299</ele><time>2019-09-27T12:50:25Z</time><name>PT8907</name></trkpt>
<trkpt lat="52.943716" lon="-3.154446"><ele>300</ele><time>2019-09-27T12:50:26Z</time><name>PT8908</name></trkpt>
<trkpt lat="52.943726" lon="-3.154453"><ele>300</ele><time>2019-09-27T12:50:27Z</time><name>PT8909</name></trkpt>
<trkpt lat="52.943732" lon="-3.154458"><ele>300</ele><time>2019-09-27T12:50:28Z</time><name>PT8910</name></trkpt>
<trkpt lat="52.943740" lon="-3.154462"><ele>300</ele><time>2019-09-27T12:50:29Z</time><name>PT8911</name></trkpt>
<trkpt lat="52.943750" lon="-3.154473"><ele>300</ele><time>2019-09-27T12:50:30Z</time><name>PT8912</name></trkpt>
<trkpt lat="52.943757" lon="-3.154480"><ele>300</ele><time>2019-09-27T12:50:31Z</time><name>PT8913</name></trkpt>
<trkpt lat="52.943767" lon="-3.154485"><ele>300</ele><time>2019-09-27T12:50:32Z</time><name>PT8914</name></trkpt>
<trkpt lat="52.943770" lon="-3.154494"><ele>300</ele><time>2019-09-27T12:50:33Z</time><name>PT8915</name></trkpt>
<trkpt lat="52.943774" lon="-3.154507"><ele>299</ele><time>2019-09-27T12:50:34Z</time><name>PT8916</name></trkpt>
<trkpt lat="52.943773" lon="-3.154530"><ele>299</ele><time>2019-09-27T12:50:35Z</time><name>PT8917</name></trkpt>
<trkpt lat="52.943780" lon="-3.154543"><ele>299</ele><time>2019-09-27T12:50:36Z</time><name>PT8918</name></trkpt>
<trkpt lat="52.943796" lon="-3.154562"><ele>300</ele><time>2019-09-27T12:50:37Z</time><name>PT8919</name></trkpt>
<trkpt lat="52.943808" lon="-3.154571"><ele>300</ele><time>2019-09-27T12:50:38Z</time><name>PT8920</name></trkpt>
<trkpt lat="52.943816" lon="-3.154579"><ele>300</ele><time>2019-09-27T12:50:39Z</time><name>PT8921</name></trkpt>
<trkpt lat="52.943821" lon="-3.154583"><ele>299</ele><time>2019-09-27T12:50:40Z</time><name>PT8922</name></trkpt>
<trkpt lat="52.943829" lon="-3.154590"><ele>299</ele><time>2019-09-27T12:50:41Z</time><name>PT8923</name></trkpt>
<trkpt lat="52.943833" lon="-3.154598"><ele>299</ele><time>2019-09-27T12:50:42Z</time><name>PT8924</name></trkpt>
<trkpt lat="52.943838" lon="-3.154604"><ele>299</ele><time>2019-09-27T12:50:43Z</time><name>PT8925</name></trkpt>
<trkpt lat="52.943845" lon="-3.154617"><ele>299</ele><time>2019-09-27T12:50:44Z</time><name>PT8926</name></trkpt>
<trkpt lat="52.943850" lon="-3.154629"><ele>298</ele><time>2019-09-27T12:50:45Z</time><name>PT8927</name></trkpt>
<trkpt lat="52.943856" lon="-3.154641"><ele>298</ele><time>2019-09-27T12:50:46Z</time><name>PT8928</name></trkpt>
<trkpt lat="52.943859" lon="-3.154652"><ele>298</ele><time>2019-09-27T12:50:47Z</time><name>PT8929</name></trkpt>
<trkpt lat="52.943861" lon="-3.154669"><ele>298</ele><time>2019-09-27T12:50:48Z</time><name>PT8930</name></trkpt>
<trkpt lat="52.943867" lon="-3.154686"><ele>298</ele><time>2019-09-27T12:50:49Z</time><name>PT8931</name></trkpt>
<trkpt lat="52.943872" lon="-3.154702"><ele>298</ele><time>2019-09-27T12:50:50Z</time><name>PT8932</name></trkpt>
<trkpt lat="52.943873" lon="-3.154714"><ele>299</ele><time>2019-09-27T12:50:51Z</time><name>PT8933</name></trkpt>
<trkpt lat="52.943874" lon="-3.154723"><ele>298</ele><time>2019-09-27T12:50:51Z</time><name>PT8934</name></trkpt>
<trkpt lat="52.943878" lon="-3.154736"><ele>298</ele><time>2019-09-27T12:50:53Z</time><name>PT8935</name></trkpt>
<trkpt lat="52.943887" lon="-3.154749"><ele>299</ele><time>2019-09-27T12:50:54Z</time><name>PT8936</name></trkpt>
<trkpt lat="52.943892" lon="-3.154760"><ele>299</ele><time>2019-09-27T12:50:55Z</time><name>PT8937</name></trkpt>
<trkpt lat="52.943901" lon="-3.154771"><ele>301</ele><time>2019-09-27T12:50:56Z</time><name>PT8938</name></trkpt>
<trkpt lat="52.943911" lon="-3.154777"><ele>303</ele><time>2019-09-27T12:50:57Z</time><name>PT8939</name></trkpt>
<trkpt lat="52.943916" lon="-3.154785"><ele>304</ele><time>2019-09-27T12:50:58Z</time><name>PT8940</name></trkpt>
<trkpt lat="52.943922" lon="-3.154798"><ele>303</ele><time>2019-09-27T12:50:59Z</time><name>PT8941</name></trkpt>
<trkpt lat="52.943921" lon="-3.154809"><ele>302</ele><time>2019-09-27T12:51:00Z</time><name>PT8942</name></trkpt>
<trkpt lat="52.943921" lon="-3.154824"><ele>302</ele><time>2019-09-27T12:51:01Z</time><name>PT8943</name></trkpt>
<trkpt lat="52.943929" lon="-3.154831"><ele>303</ele><time>2019-09-27T12:51:02Z</time><name>PT8944</name></trkpt>
<trkpt lat="52.943936" lon="-3.154836"><ele>303</ele><time>2019-09-27T12:51:03Z</time><name>PT8945</name></trkpt>
<trkpt lat="52.943950" lon="-3.154842"><ele>302</ele><time>2019-09-27T12:51:04Z</time><name>PT8946</name></trkpt>
<trkpt lat="52.943959" lon="-3.154850"><ele>302</ele><time>2019-09-27T12:51:05Z</time><name>PT8947</name></trkpt>
<trkpt lat="52.943965" lon="-3.154852"><ele>302</ele><time>2019-09-27T12:51:06Z</time><name>PT8948</name></trkpt>
<trkpt lat="52.943972" lon="-3.154860"><ele>303</ele><time>2019-09-27T12:51:07Z</time><name>PT8949</name></trkpt>
<trkpt lat="52.943983" lon="-3.154868"><ele>304</ele><time>2019-09-27T12:51:08Z</time><name>PT8950</name></trkpt>
<trkpt lat="52.943991" lon="-3.154875"><ele>305</ele><time>2019-09-27T12:51:09Z</time><name>PT8951</name></trkpt>
<trkpt lat="52.943993" lon="-3.154875"><ele>304</ele><time>2019-09-27T12:51:10Z</time><name>PT8952</name></trkpt>
<trkpt lat="52.944001" lon="-3.154878"><ele>305</ele><time>2019-09-27T12:51:11Z</time><name>PT8953</name></trkpt>
<trkpt lat="52.944008" lon="-3.154882"><ele>304</ele><time>2019-09-27T12:51:12Z</time><name>PT8954</name></trkpt>
<trkpt lat="52.944016" lon="-3.154878"><ele>304</ele><time>2019-09-27T12:51:13Z</time><name>PT8955</name></trkpt>
<trkpt lat="52.944022" lon="-3.154879"><ele>304</ele><time>2019-09-27T12:51:14Z</time><name>PT8956</name></trkpt>
<trkpt lat="52.944025" lon="-3.154874"><ele>305</ele><time>2019-09-27T12:51:15Z</time><name>PT8957</name></trkpt>
<trkpt lat="52.944036" lon="-3.154871"><ele>306</ele><time>2019-09-27T12:51:16Z</time><name>PT8958</name></trkpt>
<trkpt lat="52.944045" lon="-3.154869"><ele>305</ele><time>2019-09-27T12:51:17Z</time><name>PT8959</name></trkpt>
<trkpt lat="52.944054" lon="-3.154865"><ele>306</ele><time>2019-09-27T12:51:18Z</time><name>PT8960</name></trkpt>
<trkpt lat="52.944057" lon="-3.154864"><ele>306</ele><time>2019-09-27T12:51:18Z</time><name>PT8961</name></trkpt>
<trkpt lat="52.944062" lon="-3.154862"><ele>307</ele><time>2019-09-27T12:51:20Z</time><name>PT8962</name></trkpt>
<trkpt lat="52.944064" lon="-3.154856"><ele>307</ele><time>2019-09-27T12:51:21Z</time><name>PT8963</name></trkpt>
<trkpt lat="52.944072" lon="-3.154852"><ele>307</ele><time>2019-09-27T12:51:22Z</time><name>PT8964</name></trkpt>
<trkpt lat="52.944079" lon="-3.154845"><ele>307</ele><time>2019-09-27T12:51:23Z</time><name>PT8965</name></trkpt>
<trkpt lat="52.944083" lon="-3.154840"><ele>307</ele><time>2019-09-27T12:51:24Z</time><name>PT8966</name></trkpt>
<trkpt lat="52.944088" lon="-3.154836"><ele>308</ele><time>2019-09-27T12:51:25Z</time><name>PT8967</name></trkpt>
<trkpt lat="52.944093" lon="-3.154827"><ele>308</ele><time>2019-09-27T12:51:26Z</time><name>PT8968</name></trkpt>
<trkpt lat="52.944098" lon="-3.154820"><ele>308</ele><time>2019-09-27T12:51:27Z</time><name>PT8969</name></trkpt>
<trkpt lat="52.944101" lon="-3.154817"><ele>308</ele><time>2019-09-27T12:51:27Z</time><name>PT8970</name></trkpt>
<trkpt lat="52.944101" lon="-3.154806"><ele>308</ele><time>2019-09-27T12:51:29Z</time><name>PT8971</name></trkpt>
<trkpt lat="52.944104" lon="-3.154796"><ele>308</ele><time>2019-09-27T12:51:30Z</time><name>PT8972</name></trkpt>
<trkpt lat="52.944111" lon="-3.154788"><ele>308</ele><time>2019-09-27T12:51:31Z</time><name>PT8973</name></trkpt>
<trkpt lat="52.944111" lon="-3.154776"><ele>308</ele><time>2019-09-27T12:51:32Z</time><name>PT8974</name></trkpt>
<trkpt lat="52.944115" lon="-3.154763"><ele>309</ele><time>2019-09-27T12:51:33Z</time><name>PT8975</name></trkpt>
<trkpt lat="52.944119" lon="-3.154749"><ele>308</ele><time>2019-09-27T12:51:34Z</time><name>PT8976</name></trkpt>
<trkpt lat="52.944120" lon="-3.154739"><ele>308</ele><time>2019-09-27T12:51:35Z</time><name>PT8977</name></trkpt>
<trkpt lat="52.944121" lon="-3.154736"><ele>308</ele><time>2019-09-27T12:51:36Z</time><name>PT8978</name></trkpt>
<trkpt lat="52.944127" lon="-3.154740"><ele>308</ele><time>2019-09-27T12:51:37Z</time><name>PT8979</name></trkpt>
<trkpt lat="52.944131" lon="-3.154739"><ele>308</ele><time>2019-09-27T12:51:38Z</time><name>PT8980</name></trkpt>
<trkpt lat="52.944133" lon="-3.154739"><ele>308</ele><time>2019-09-27T12:51:39Z</time><name>PT8981</name></trkpt>
<trkpt lat="52.944143" lon="-3.154743"><ele>308</ele><time>2019-09-27T12:51:46Z</time><name>PT8982</name></trkpt>
<trkpt lat="52.944145" lon="-3.154734"><ele>308</ele><time>2019-09-27T12:51:47Z</time><name>PT8983</name></trkpt>
<trkpt lat="52.944148" lon="-3.154725"><ele>308</ele><time>2019-09-27T12:51:48Z</time><name>PT8984</name></trkpt>
<trkpt lat="52.944147" lon="-3.154728"><ele>308</ele><time>2019-09-27T12:52:05Z</time><name>PT8985</name></trkpt>
<trkpt lat="52.944149" lon="-3.154722"><ele>308</ele><time>2019-09-27T12:52:06Z</time><name>PT8986</name></trkpt>
<trkpt lat="52.944148" lon="-3.154719"><ele>308</ele><time>2019-09-27T12:52:07Z</time><name>PT8987</name></trkpt>
<trkpt lat="52.944145" lon="-3.154716"><ele>309</ele><time>2019-09-27T12:52:08Z</time><name>PT8988</name></trkpt>
<trkpt lat="52.944143" lon="-3.154715"><ele>309</ele><time>2019-09-27T12:52:09Z</time><name>PT8989</name></trkpt>
<trkpt lat="52.944142" lon="-3.154717"><ele>309</ele><time>2019-09-27T12:52:10Z</time><name>PT8990</name></trkpt>
<trkpt lat="52.944141" lon="-3.154716"><ele>310</ele><time>2019-09-27T12:52:11Z</time><name>PT8991</name></trkpt>
<trkpt lat="52.944140" lon="-3.154716"><ele>310</ele><time>2019-09-27T12:52:12Z</time><name>PT8992</name></trkpt>
<trkpt lat="52.944139" lon="-3.154719"><ele>310</ele><time>2019-09-27T12:52:13Z</time><name>PT8993</name></trkpt>
<trkpt lat="52.944136" lon="-3.154719"><ele>310</ele><time>2019-09-27T12:52:14Z</time><name>PT8994</name></trkpt>
<trkpt lat="52.944133" lon="-3.154716"><ele>311</ele><time>2019-09-27T12:52:15Z</time><name>PT8995</name></trkpt>
<trkpt lat="52.944133" lon="-3.154713"><ele>311</ele><time>2019-09-27T12:52:16Z</time><name>PT8996</name></trkpt>
<trkpt lat="52.944130" lon="-3.154718"><ele>311</ele><time>2019-09-27T12:52:17Z</time><name>PT8997</name></trkpt>
<trkpt lat="52.944131" lon="-3.154724"><ele>311</ele><time>2019-09-27T12:52:18Z</time><name>PT8998</name></trkpt>
<trkpt lat="52.944137" lon="-3.154731"><ele>311</ele><time>2019-09-27T12:52:19Z</time><name>PT8999</name></trkpt>
<trkpt lat="52.944137" lon="-3.154734"><ele>311</ele><time>2019-09-27T12:52:20Z</time><name>PT9000</name></trkpt>
<trkpt lat="52.944137" lon="-3.154739"><ele>311</ele><time>2019-09-27T12:52:21Z</time><name>PT9001</name></trkpt>
<trkpt lat="52.944137" lon="-3.154742"><ele>312</ele><time>2019-09-27T12:52:22Z</time><name>PT9002</name></trkpt>
<trkpt lat="52.944139" lon="-3.154748"><ele>311</ele><time>2019-09-27T12:52:23Z</time><name>PT9003</name></trkpt>
<trkpt lat="52.944138" lon="-3.154757"><ele>311</ele><time>2019-09-27T12:52:24Z</time><name>PT9004</name></trkpt>
<trkpt lat="52.944139" lon="-3.154761"><ele>311</ele><time>2019-09-27T12:52:25Z</time><name>PT9005</name></trkpt>
<trkpt lat="52.944143" lon="-3.154760"><ele>312</ele><time>2019-09-27T12:52:26Z</time><name>PT9006</name></trkpt>
<trkpt lat="52.944146" lon="-3.154759"><ele>312</ele><time>2019-09-27T12:52:27Z</time><name>PT9007</name></trkpt>
<trkpt lat="52.944146" lon="-3.154763"><ele>312</ele><time>2019-09-27T12:52:28Z</time><name>PT9008</name></trkpt>
<trkpt lat="52.944148" lon="-3.154766"><ele>313</ele><time>2019-09-27T12:52:29Z</time><name>PT9009</name></trkpt>
<trkpt lat="52.944147" lon="-3.154766"><ele>313</ele><time>2019-09-27T12:52:30Z</time><name>PT9010</name></trkpt>
<trkpt lat="52.944148" lon="-3.154768"><ele>313</ele><time>2019-09-27T12:52:31Z</time><name>PT9011</name></trkpt>
<trkpt lat="52.944148" lon="-3.154762"><ele>313</ele><time>2019-09-27T12:52:49Z</time><name>PT9012</name></trkpt>
<trkpt lat="52.944150" lon="-3.154760"><ele>313</ele><time>2019-09-27T12:52:50Z</time><name>PT9013</name></trkpt>
<trkpt lat="52.944150" lon="-3.154757"><ele>313</ele><time>2019-09-27T12:52:51Z</time><name>PT9014</name></trkpt>
<trkpt lat="52.944149" lon="-3.154755"><ele>312</ele><time>2019-09-27T12:52:51Z</time><name>PT9015</name></trkpt>
<trkpt lat="52.944148" lon="-3.154757"><ele>312</ele><time>2019-09-27T12:52:53Z</time><name>PT9016</name></trkpt>
<trkpt lat="52.944150" lon="-3.154759"><ele>312</ele><time>2019-09-27T12:52:54Z</time><name>PT9017</name></trkpt>
<trkpt lat="52.944150" lon="-3.154764"><ele>312</ele><time>2019-09-27T12:52:54Z</time><name>PT9018</name></trkpt>
<trkpt lat="52.944151" lon="-3.154766"><ele>312</ele><time>2019-09-27T12:52:56Z</time><name>PT9019</name></trkpt>
<trkpt lat="52.944162" lon="-3.154778"><ele>311</ele><time>2019-09-27T12:53:03Z</time><name>PT9020</name></trkpt>
<trkpt lat="52.944166" lon="-3.154777"><ele>311</ele><time>2019-09-27T12:53:04Z</time><name>PT9021</name></trkpt>
<trkpt lat="52.944173" lon="-3.154767"><ele>311</ele><time>2019-09-27T12:53:05Z</time><name>PT9022</name></trkpt>
<trkpt lat="52.944174" lon="-3.154762"><ele>310</ele><time>2019-09-27T12:53:06Z</time><name>PT9023</name></trkpt>
<trkpt lat="52.944177" lon="-3.154759"><ele>311</ele><time>2019-09-27T12:53:07Z</time><name>PT9024</name></trkpt>
<trkpt lat="52.944184" lon="-3.154753"><ele>311</ele><time>2019-09-27T12:53:08Z</time><name>PT9025</name></trkpt>
<trkpt lat="52.944190" lon="-3.154747"><ele>311</ele><time>2019-09-27T12:53:09Z</time><name>PT9026</name></trkpt>
<trkpt lat="52.944196" lon="-3.154748"><ele>311</ele><time>2019-09-27T12:53:09Z</time><name>PT9027</name></trkpt>
<trkpt lat="52.944202" lon="-3.154757"><ele>312</ele><time>2019-09-27T12:53:11Z</time><name>PT9028</name></trkpt>
<trkpt lat="52.944209" lon="-3.154752"><ele>312</ele><time>2019-09-27T12:53:12Z</time><name>PT9029</name></trkpt>
<trkpt lat="52.944213" lon="-3.154758"><ele>312</ele><time>2019-09-27T12:53:12Z</time><name>PT9030</name></trkpt>
<trkpt lat="52.944222" lon="-3.154782"><ele>313</ele><time>2019-09-27T12:53:20Z</time><name>PT9031</name></trkpt>
<trkpt lat="52.944224" lon="-3.154802"><ele>312</ele><time>2019-09-27T12:53:21Z</time><name>PT9032</name></trkpt>
<trkpt lat="52.944227" lon="-3.154819"><ele>312</ele><time>2019-09-27T12:53:22Z</time><name>PT9033</name></trkpt>
<trkpt lat="52.944227" lon="-3.154833"><ele>312</ele><time>2019-09-27T12:53:23Z</time><name>PT9034</name></trkpt>
<trkpt lat="52.944230" lon="-3.154848"><ele>312</ele><time>2019-09-27T12:53:24Z</time><name>PT9035</name></trkpt>
<trkpt lat="52.944236" lon="-3.154857"><ele>312</ele><time>2019-09-27T12:53:25Z</time><name>PT9036</name></trkpt>
<trkpt lat="52.944241" lon="-3.154881"><ele>312</ele><time>2019-09-27T12:53:26Z</time><name>PT9037</name></trkpt>
<trkpt lat="52.944247" lon="-3.154898"><ele>312</ele><time>2019-09-27T12:53:27Z</time><name>PT9038</name></trkpt>
<trkpt lat="52.944249" lon="-3.154912"><ele>312</ele><time>2019-09-27T12:53:28Z</time><name>PT9039</name></trkpt>
<trkpt lat="52.944250" lon="-3.154925"><ele>312</ele><time>2019-09-27T12:53:29Z</time><name>PT9040</name></trkpt>
<trkpt lat="52.944253" lon="-3.154937"><ele>312</ele><time>2019-09-27T12:53:30Z</time><name>PT9041</name></trkpt>
<trkpt lat="52.944250" lon="-3.154951"><ele>311</ele><time>2019-09-27T12:53:31Z</time><name>PT9042</name></trkpt>
<trkpt lat="52.944250" lon="-3.154967"><ele>311</ele><time>2019-09-27T12:53:32Z</time><name>PT9043</name></trkpt>
<trkpt lat="52.944255" lon="-3.154980"><ele>311</ele><time>2019-09-27T12:53:33Z</time><name>PT9044</name></trkpt>
<trkpt lat="52.944257" lon="-3.154995"><ele>311</ele><time>2019-09-27T12:53:34Z</time><name>PT9045</name></trkpt>
<trkpt lat="52.944264" lon="-3.155005"><ele>313</ele><time>2019-09-27T12:53:35Z</time><name>PT9046</name></trkpt>
<trkpt lat="52.944261" lon="-3.155016"><ele>312</ele><time>2019-09-27T12:53:36Z</time><name>PT9047</name></trkpt>
<trkpt lat="52.944268" lon="-3.155026"><ele>312</ele><time>2019-09-27T12:53:37Z</time><name>PT9048</name></trkpt>
<trkpt lat="52.944277" lon="-3.155038"><ele>312</ele><time>2019-09-27T12:53:38Z</time><name>PT9049</name></trkpt>
<trkpt lat="52.944285" lon="-3.155048"><ele>313</ele><time>2019-09-27T12:53:39Z</time><name>PT9050</name></trkpt>
<trkpt lat="52.944292" lon="-3.155062"><ele>313</ele><time>2019-09-27T12:53:40Z</time><name>PT9051</name></trkpt>
<trkpt lat="52.944299" lon="-3.155073"><ele>313</ele><time>2019-09-27T12:53:41Z</time><name>PT9052</name></trkpt>
<trkpt lat="52.944298" lon="-3.155087"><ele>313</ele><time>2019-09-27T12:53:42Z</time><name>PT9053</name></trkpt>
<trkpt lat="52.944298" lon="-3.155103"><ele>312</ele><time>2019-09-27T12:53:43Z</time><name>PT9054</name></trkpt>
<trkpt lat="52.944301" lon="-3.155120"><ele>313</ele><time>2019-09-27T12:53:44Z</time><name>PT9055</name></trkpt>
<trkpt lat="52.944299" lon="-3.155136"><ele>312</ele><time>2019-09-27T12:53:45Z</time><name>PT9056</name></trkpt>
<trkpt lat="52.944295" lon="-3.155143"><ele>310</ele><time>2019-09-27T12:53:46Z</time><name>PT9057</name></trkpt>
<trkpt lat="52.944303" lon="-3.155151"><ele>310</ele><time>2019-09-27T12:53:47Z</time><name>PT9058</name></trkpt>
<trkpt lat="52.944310" lon="-3.155165"><ele>311</ele><time>2019-09-27T12:53:48Z</time><name>PT9059</name></trkpt>
<trkpt lat="52.944317" lon="-3.155174"><ele>311</ele><time>2019-09-27T12:53:48Z</time><name>PT9060</name></trkpt>
<trkpt lat="52.944322" lon="-3.155184"><ele>311</ele><time>2019-09-27T12:53:50Z</time><name>PT9061</name></trkpt>
<trkpt lat="52.944328" lon="-3.155198"><ele>312</ele><time>2019-09-27T12:53:51Z</time><name>PT9062</name></trkpt>
<trkpt lat="52.944335" lon="-3.155209"><ele>313</ele><time>2019-09-27T12:53:52Z</time><name>PT9063</name></trkpt>
<trkpt lat="52.944346" lon="-3.155218"><ele>313</ele><time>2019-09-27T12:53:53Z</time><name>PT9064</name></trkpt>
<trkpt lat="52.944355" lon="-3.155229"><ele>314</ele><time>2019-09-27T12:53:54Z</time><name>PT9065</name></trkpt>
<trkpt lat="52.944362" lon="-3.155237"><ele>314</ele><time>2019-09-27T12:53:55Z</time><name>PT9066</name></trkpt>
<trkpt lat="52.944371" lon="-3.155243"><ele>314</ele><time>2019-09-27T12:53:56Z</time><name>PT9067</name></trkpt>
<trkpt lat="52.944377" lon="-3.155256"><ele>315</ele><time>2019-09-27T12:53:57Z</time><name>PT9068</name></trkpt>
<trkpt lat="52.944383" lon="-3.155269"><ele>315</ele><time>2019-09-27T12:53:57Z</time><name>PT9069</name></trkpt>
<trkpt lat="52.944394" lon="-3.155277"><ele>317</ele><time>2019-09-27T12:53:59Z</time><name>PT9070</name></trkpt>
<trkpt lat="52.944399" lon="-3.155288"><ele>317</ele><time>2019-09-27T12:54:00Z</time><name>PT9071</name></trkpt>
<trkpt lat="52.944402" lon="-3.155302"><ele>317</ele><time>2019-09-27T12:54:01Z</time><name>PT9072</name></trkpt>
<trkpt lat="52.944407" lon="-3.155316"><ele>318</ele><time>2019-09-27T12:54:02Z</time><name>PT9073</name></trkpt>
<trkpt lat="52.944413" lon="-3.155329"><ele>318</ele><time>2019-09-27T12:54:03Z</time><name>PT9074</name></trkpt>
<trkpt lat="52.944417" lon="-3.155340"><ele>318</ele><time>2019-09-27T12:54:03Z</time><name>PT9075</name></trkpt>
<trkpt lat="52.944422" lon="-3.155354"><ele>318</ele><time>2019-09-27T12:54:05Z</time><name>PT9076</name></trkpt>
<trkpt lat="52.944431" lon="-3.155361"><ele>319</ele><time>2019-09-27T12:54:06Z</time><name>PT9077</name></trkpt>
<trkpt lat="52.944436" lon="-3.155372"><ele>320</ele><time>2019-09-27T12:54:07Z</time><name>PT9078</name></trkpt>
<trkpt lat="52.944440" lon="-3.155383"><ele>320</ele><time>2019-09-27T12:54:08Z</time><name>PT9079</name></trkpt>
<trkpt lat="52.944446" lon="-3.155394"><ele>320</ele><time>2019-09-27T12:54:09Z</time><name>PT9080</name></trkpt>
<trkpt lat="52.944447" lon="-3.155403"><ele>320</ele><time>2019-09-27T12:54:10Z</time><name>PT9081</name></trkpt>
<trkpt lat="52.944455" lon="-3.155412"><ele>320</ele><time>2019-09-27T12:54:11Z</time><name>PT9082</name></trkpt>
<trkpt lat="52.944459" lon="-3.155427"><ele>321</ele><time>2019-09-27T12:54:12Z</time><name>PT9083</name></trkpt>
<trkpt lat="52.944463" lon="-3.155442"><ele>320</ele><time>2019-09-27T12:54:13Z</time><name>PT9084</name></trkpt>
<trkpt lat="52.944465" lon="-3.155455"><ele>320</ele><time>2019-09-27T12:54:14Z</time><name>PT9085</name></trkpt>
<trkpt lat="52.944472" lon="-3.155463"><ele>320</ele><time>2019-09-27T12:54:15Z</time><name>PT9086</name></trkpt>
<trkpt lat="52.944478" lon="-3.155473"><ele>320</ele><time>2019-09-27T12:54:16Z</time><name>PT9087</name></trkpt>
<trkpt lat="52.944481" lon="-3.155485"><ele>320</ele><time>2019-09-27T12:54:17Z</time><name>PT9088</name></trkpt>
<trkpt lat="52.944484" lon="-3.155493"><ele>320</ele><time>2019-09-27T12:54:18Z</time><name>PT9089</name></trkpt>
<trkpt lat="52.944487" lon="-3.155503"><ele>320</ele><time>2019-09-27T12:54:19Z</time><name>PT9090</name></trkpt>
<trkpt lat="52.944492" lon="-3.155513"><ele>320</ele><time>2019-09-27T12:54:20Z</time><name>PT9091</name></trkpt>
<trkpt lat="52.944499" lon="-3.155524"><ele>320</ele><time>2019-09-27T12:54:21Z</time><name>PT9092</name></trkpt>
<trkpt lat="52.944498" lon="-3.155535"><ele>319</ele><time>2019-09-27T12:54:22Z</time><name>PT9093</name></trkpt>
<trkpt lat="52.944501" lon="-3.155543"><ele>319</ele><time>2019-09-27T12:54:23Z</time><name>PT9094</name></trkpt>
<trkpt lat="52.944511" lon="-3.155553"><ele>320</ele><time>2019-09-27T12:54:24Z</time><name>PT9095</name></trkpt>
<trkpt lat="52.944521" lon="-3.155559"><ele>321</ele><time>2019-09-27T12:54:25Z</time><name>PT9096</name></trkpt>
<trkpt lat="52.944531" lon="-3.155571"><ele>322</ele><time>2019-09-27T12:54:26Z</time><name>PT9097</name></trkpt>
<trkpt lat="52.944536" lon="-3.155583"><ele>322</ele><time>2019-09-27T12:54:27Z</time><name>PT9098</name></trkpt>
<trkpt lat="52.944543" lon="-3.155594"><ele>323</ele><time>2019-09-27T12:54:28Z</time><name>PT9099</name></trkpt>
<trkpt lat="52.944548" lon="-3.155605"><ele>323</ele><time>2019-09-27T12:54:29Z</time><name>PT9100</name></trkpt>
<trkpt lat="52.944551" lon="-3.155613"><ele>322</ele><time>2019-09-27T12:54:30Z</time><name>PT9101</name></trkpt>
<trkpt lat="52.944552" lon="-3.155624"><ele>322</ele><time>2019-09-27T12:54:31Z</time><name>PT9102</name></trkpt>
<trkpt lat="52.944557" lon="-3.155636"><ele>322</ele><time>2019-09-27T12:54:32Z</time><name>PT9103</name></trkpt>
<trkpt lat="52.944564" lon="-3.155646"><ele>322</ele><time>2019-09-27T12:54:33Z</time><name>PT9104</name></trkpt>
<trkpt lat="52.944572" lon="-3.155654"><ele>323</ele><time>2019-09-27T12:54:34Z</time><name>PT9105</name></trkpt>
<trkpt lat="52.944578" lon="-3.155664"><ele>323</ele><time>2019-09-27T12:54:35Z</time><name>PT9106</name></trkpt>
<trkpt lat="52.944586" lon="-3.155674"><ele>323</ele><time>2019-09-27T12:54:36Z</time><name>PT9107</name></trkpt>
<trkpt lat="52.944593" lon="-3.155684"><ele>323</ele><time>2019-09-27T12:54:37Z</time><name>PT9108</name></trkpt>
<trkpt lat="52.944603" lon="-3.155695"><ele>323</ele><time>2019-09-27T12:54:38Z</time><name>PT9109</name></trkpt>
<trkpt lat="52.944609" lon="-3.155706"><ele>323</ele><time>2019-09-27T12:54:39Z</time><name>PT9110</name></trkpt>
<trkpt lat="52.944627" lon="-3.155715"><ele>325</ele><time>2019-09-27T12:54:40Z</time><name>PT9111</name></trkpt>
<trkpt lat="52.944632" lon="-3.155728"><ele>325</ele><time>2019-09-27T12:54:41Z</time><name>PT9112</name></trkpt>
<trkpt lat="52.944629" lon="-3.155743"><ele>324</ele><time>2019-09-27T12:54:42Z</time><name>PT9113</name></trkpt>
<trkpt lat="52.944631" lon="-3.155755"><ele>323</ele><time>2019-09-27T12:54:42Z</time><name>PT9114</name></trkpt>
<trkpt lat="52.944639" lon="-3.155763"><ele>323</ele><time>2019-09-27T12:54:44Z</time><name>PT9115</name></trkpt>
<trkpt lat="52.944644" lon="-3.155775"><ele>323</ele><time>2019-09-27T12:54:45Z</time><name>PT9116</name></trkpt>
<trkpt lat="52.944652" lon="-3.155787"><ele>323</ele><time>2019-09-27T12:54:46Z</time><name>PT9117</name></trkpt>
<trkpt lat="52.944658" lon="-3.155798"><ele>324</ele><time>2019-09-27T12:54:47Z</time><name>PT9118</name></trkpt>
<trkpt lat="52.944663" lon="-3.155811"><ele>324</ele><time>2019-09-27T12:54:48Z</time><name>PT9119</name></trkpt>
<trkpt lat="52.944670" lon="-3.155824"><ele>324</ele><time>2019-09-27T12:54:49Z</time><name>PT9120</name></trkpt>
<trkpt lat="52.944672" lon="-3.155834"><ele>324</ele><time>2019-09-27T12:54:50Z</time><name>PT9121</name></trkpt>
<trkpt lat="52.944681" lon="-3.155843"><ele>324</ele><time>2019-09-27T12:54:51Z</time><name>PT9122</name></trkpt>
<trkpt lat="52.944690" lon="-3.155854"><ele>325</ele><time>2019-09-27T12:54:52Z</time><name>PT9123</name></trkpt>
<trkpt lat="52.944695" lon="-3.155865"><ele>324</ele><time>2019-09-27T12:54:53Z</time><name>PT9124</name></trkpt>
<trkpt lat="52.944700" lon="-3.155879"><ele>324</ele><time>2019-09-27T12:54:54Z</time><name>PT9125</name></trkpt>
<trkpt lat="52.944707" lon="-3.155892"><ele>324</ele><time>2019-09-27T12:54:55Z</time><name>PT9126</name></trkpt>
<trkpt lat="52.944710" lon="-3.155906"><ele>324</ele><time>2019-09-27T12:54:56Z</time><name>PT9127</name></trkpt>
<trkpt lat="52.944716" lon="-3.155918"><ele>323</ele><time>2019-09-27T12:54:57Z</time><name>PT9128</name></trkpt>
<trkpt lat="52.944726" lon="-3.155929"><ele>324</ele><time>2019-09-27T12:54:58Z</time><name>PT9129</name></trkpt>
<trkpt lat="52.944732" lon="-3.155939"><ele>324</ele><time>2019-09-27T12:54:59Z</time><name>PT9130</name></trkpt>
<trkpt lat="52.944739" lon="-3.155950"><ele>324</ele><time>2019-09-27T12:55:00Z</time><name>PT9131</name></trkpt>
<trkpt lat="52.944746" lon="-3.155961"><ele>325</ele><time>2019-09-27T12:55:01Z</time><name>PT9132</name></trkpt>
<trkpt lat="52.944751" lon="-3.155972"><ele>325</ele><time>2019-09-27T12:55:02Z</time><name>PT9133</name></trkpt>
<trkpt lat="52.944758" lon="-3.155982"><ele>325</ele><time>2019-09-27T12:55:03Z</time><name>PT9134</name></trkpt>
<trkpt lat="52.944765" lon="-3.155993"><ele>325</ele><time>2019-09-27T12:55:04Z</time><name>PT9135</name></trkpt>
<trkpt lat="52.944772" lon="-3.156003"><ele>325</ele><time>2019-09-27T12:55:05Z</time><name>PT9136</name></trkpt>
<trkpt lat="52.944778" lon="-3.156012"><ele>325</ele><time>2019-09-27T12:55:06Z</time><name>PT9137</name></trkpt>
<trkpt lat="52.944787" lon="-3.156021"><ele>325</ele><time>2019-09-27T12:55:07Z</time><name>PT9138</name></trkpt>
<trkpt lat="52.944795" lon="-3.156031"><ele>325</ele><time>2019-09-27T12:55:08Z</time><name>PT9139</name></trkpt>
<trkpt lat="52.944802" lon="-3.156042"><ele>325</ele><time>2019-09-27T12:55:09Z</time><name>PT9140</name></trkpt>
<trkpt lat="52.944809" lon="-3.156052"><ele>325</ele><time>2019-09-27T12:55:10Z</time><name>PT9141</name></trkpt>
<trkpt lat="52.944814" lon="-3.156063"><ele>326</ele><time>2019-09-27T12:55:11Z</time><name>PT9142</name></trkpt>
<trkpt lat="52.944818" lon="-3.156074"><ele>326</ele><time>2019-09-27T12:55:12Z</time><name>PT9143</name></trkpt>
<trkpt lat="52.944823" lon="-3.156091"><ele>326</ele><time>2019-09-27T12:55:13Z</time><name>PT9144</name></trkpt>
<trkpt lat="52.944830" lon="-3.156104"><ele>327</ele><time>2019-09-27T12:55:14Z</time><name>PT9145</name></trkpt>
<trkpt lat="52.944836" lon="-3.156115"><ele>327</ele><time>2019-09-27T12:55:15Z</time><name>PT9146</name></trkpt>
<trkpt lat="52.944843" lon="-3.156125"><ele>327</ele><time>2019-09-27T12:55:16Z</time><name>PT9147</name></trkpt>
<trkpt lat="52.944850" lon="-3.156138"><ele>327</ele><time>2019-09-27T12:55:17Z</time><name>PT9148</name></trkpt>
<trkpt lat="52.944855" lon="-3.156152"><ele>327</ele><time>2019-09-27T12:55:18Z</time><name>PT9149</name></trkpt>
<trkpt lat="52.944860" lon="-3.156161"><ele>327</ele><time>2019-09-27T12:55:19Z</time><name>PT9150</name></trkpt>
<trkpt lat="52.944869" lon="-3.156172"><ele>327</ele><time>2019-09-27T12:55:20Z</time><name>PT9151</name></trkpt>
<trkpt lat="52.944876" lon="-3.156184"><ele>327</ele><time>2019-09-27T12:55:21Z</time><name>PT9152</name></trkpt>
<trkpt lat="52.944881" lon="-3.156198"><ele>328</ele><time>2019-09-27T12:55:22Z</time><name>PT9153</name></trkpt>
<trkpt lat="52.944885" lon="-3.156214"><ele>328</ele><time>2019-09-27T12:55:23Z</time><name>PT9154</name></trkpt>
<trkpt lat="52.944888" lon="-3.156228"><ele>328</ele><time>2019-09-27T12:55:24Z</time><name>PT9155</name></trkpt>
<trkpt lat="52.944897" lon="-3.156240"><ele>328</ele><time>2019-09-27T12:55:25Z</time><name>PT9156</name></trkpt>
<trkpt lat="52.944910" lon="-3.156249"><ele>329</ele><time>2019-09-27T12:55:26Z</time><name>PT9157</name></trkpt>
<trkpt lat="52.944916" lon="-3.156259"><ele>330</ele><time>2019-09-27T12:55:27Z</time><name>PT9158</name></trkpt>
<trkpt lat="52.944921" lon="-3.156270"><ele>330</ele><time>2019-09-27T12:55:27Z</time><name>PT9159</name></trkpt>
<trkpt lat="52.944926" lon="-3.156281"><ele>330</ele><time>2019-09-27T12:55:29Z</time><name>PT9160</name></trkpt>
<trkpt lat="52.944933" lon="-3.156294"><ele>331</ele><time>2019-09-27T12:55:30Z</time><name>PT9161</name></trkpt>
<trkpt lat="52.944941" lon="-3.156304"><ele>331</ele><time>2019-09-27T12:55:31Z</time><name>PT9162</name></trkpt>
<trkpt lat="52.944949" lon="-3.156315"><ele>332</ele><time>2019-09-27T12:55:32Z</time><name>PT9163</name></trkpt>
<trkpt lat="52.944955" lon="-3.156323"><ele>332</ele><time>2019-09-27T12:55:33Z</time><name>PT9164</name></trkpt>
<trkpt lat="52.944962" lon="-3.156330"><ele>332</ele><time>2019-09-27T12:55:33Z</time><name>PT9165</name></trkpt>
<trkpt lat="52.944968" lon="-3.156339"><ele>332</ele><time>2019-09-27T12:55:35Z</time><name>PT9166</name></trkpt>
<trkpt lat="52.944976" lon="-3.156345"><ele>333</ele><time>2019-09-27T12:55:36Z</time><name>PT9167</name></trkpt>
<trkpt lat="52.944982" lon="-3.156357"><ele>333</ele><time>2019-09-27T12:55:37Z</time><name>PT9168</name></trkpt>
<trkpt lat="52.944988" lon="-3.156367"><ele>333</ele><time>2019-09-27T12:55:38Z</time><name>PT9169</name></trkpt>
<trkpt lat="52.944992" lon="-3.156379"><ele>333</ele><time>2019-09-27T12:55:39Z</time><name>PT9170</name></trkpt>
<trkpt lat="52.944999" lon="-3.156383"><ele>331</ele><time>2019-09-27T12:55:40Z</time><name>PT9171</name></trkpt>
<trkpt lat="52.945006" lon="-3.156390"><ele>331</ele><time>2019-09-27T12:55:41Z</time><name>PT9172</name></trkpt>
<trkpt lat="52.945014" lon="-3.156399"><ele>332</ele><time>2019-09-27T12:55:42Z</time><name>PT9173</name></trkpt>
<trkpt lat="52.945023" lon="-3.156412"><ele>332</ele><time>2019-09-27T12:55:43Z</time><name>PT9174</name></trkpt>
<trkpt lat="52.945028" lon="-3.156422"><ele>333</ele><time>2019-09-27T12:55:44Z</time><name>PT9175</name></trkpt>
<trkpt lat="52.945033" lon="-3.156434"><ele>333</ele><time>2019-09-27T12:55:45Z</time><name>PT9176</name></trkpt>
<trkpt lat="52.945040" lon="-3.156441"><ele>333</ele><time>2019-09-27T12:55:46Z</time><name>PT9177</name></trkpt>
<trkpt lat="52.945047" lon="-3.156449"><ele>333</ele><time>2019-09-27T12:55:47Z</time><name>PT9178</name></trkpt>
<trkpt lat="52.945054" lon="-3.156459"><ele>334</ele><time>2019-09-27T12:55:48Z</time><name>PT9179</name></trkpt>
<trkpt lat="52.945062" lon="-3.156471"><ele>334</ele><time>2019-09-27T12:55:49Z</time><name>PT9180</name></trkpt>
<trkpt lat="52.945068" lon="-3.156483"><ele>334</ele><time>2019-09-27T12:55:50Z</time><name>PT9181</name></trkpt>
<trkpt lat="52.945075" lon="-3.156490"><ele>334</ele><time>2019-09-27T12:55:51Z</time><name>PT9182</name></trkpt>
<trkpt lat="52.945086" lon="-3.156490"><ele>333</ele><time>2019-09-27T12:55:52Z</time><name>PT9183</name></trkpt>
<trkpt lat="52.945096" lon="-3.156495"><ele>334</ele><time>2019-09-27T12:55:53Z</time><name>PT9184</name></trkpt>
<trkpt lat="52.945107" lon="-3.156495"><ele>334</ele><time>2019-09-27T12:55:54Z</time><name>PT9185</name></trkpt>
<trkpt lat="52.945118" lon="-3.156491"><ele>334</ele><time>2019-09-27T12:55:55Z</time><name>PT9186</name></trkpt>
<trkpt lat="52.945127" lon="-3.156488"><ele>334</ele><time>2019-09-27T12:55:56Z</time><name>PT9187</name></trkpt>
<trkpt lat="52.945135" lon="-3.156478"><ele>334</ele><time>2019-09-27T12:55:57Z</time><name>PT9188</name></trkpt>
<trkpt lat="52.945141" lon="-3.156467"><ele>334</ele><time>2019-09-27T12:55:58Z</time><name>PT9189</name></trkpt>
<trkpt lat="52.945150" lon="-3.156453"><ele>334</ele><time>2019-09-27T12:55:59Z</time><name>PT9190</name></trkpt>
<trkpt lat="52.945156" lon="-3.156440"><ele>334</ele><time>2019-09-27T12:56:00Z</time><name>PT9191</name></trkpt>
<trkpt lat="52.945162" lon="-3.156430"><ele>334</ele><time>2019-09-27T12:56:01Z</time><name>PT9192</name></trkpt>
<trkpt lat="52.945167" lon="-3.156417"><ele>334</ele><time>2019-09-27T12:56:02Z</time><name>PT9193</name></trkpt>
<trkpt lat="52.945171" lon="-3.156403"><ele>334</ele><time>2019-09-27T12:56:03Z</time><name>PT9194</name></trkpt>
<trkpt lat="52.945176" lon="-3.156392"><ele>335</ele><time>2019-09-27T12:56:04Z</time><name>PT9195</name></trkpt>
<trkpt lat="52.945181" lon="-3.156378"><ele>335</ele><time>2019-09-27T12:56:05Z</time><name>PT9196</name></trkpt>
<trkpt lat="52.945186" lon="-3.156368"><ele>335</ele><time>2019-09-27T12:56:06Z</time><name>PT9197</name></trkpt>
<trkpt lat="52.945192" lon="-3.156353"><ele>335</ele><time>2019-09-27T12:56:07Z</time><name>PT9198</name></trkpt>
<trkpt lat="52.945197" lon="-3.156340"><ele>335</ele><time>2019-09-27T12:56:08Z</time><name>PT9199</name></trkpt>
<trkpt lat="52.945202" lon="-3.156330"><ele>335</ele><time>2019-09-27T12:56:09Z</time><name>PT9200</name></trkpt>
<trkpt lat="52.945207" lon="-3.156312"><ele>335</ele><time>2019-09-27T12:56:10Z</time><name>PT9201</name></trkpt>
<trkpt lat="52.945211" lon="-3.156299"><ele>335</ele><time>2019-09-27T12:56:11Z</time><name>PT9202</name></trkpt>
<trkpt lat="52.945215" lon="-3.156284"><ele>335</ele><time>2019-09-27T12:56:12Z</time><name>PT9203</name></trkpt>
<trkpt lat="52.945219" lon="-3.156269"><ele>335</ele><time>2019-09-27T12:56:13Z</time><name>PT9204</name></trkpt>
<trkpt lat="52.945223" lon="-3.156254"><ele>336</ele><time>2019-09-27T12:56:14Z</time><name>PT9205</name></trkpt>
<trkpt lat="52.945227" lon="-3.156242"><ele>336</ele><time>2019-09-27T12:56:15Z</time><name>PT9206</name></trkpt>
<trkpt lat="52.945232" lon="-3.156230"><ele>336</ele><time>2019-09-27T12:56:16Z</time><name>PT9207</name></trkpt>
<trkpt lat="52.945236" lon="-3.156215"><ele>336</ele><time>2019-09-27T12:56:17Z</time><name>PT9208</name></trkpt>
<trkpt lat="52.945241" lon="-3.156198"><ele>336</ele><time>2019-09-27T12:56:18Z</time><name>PT9209</name></trkpt>
<trkpt lat="52.945245" lon="-3.156188"><ele>336</ele><time>2019-09-27T12:56:19Z</time><name>PT9210</name></trkpt>
<trkpt lat="52.945251" lon="-3.156177"><ele>336</ele><time>2019-09-27T12:56:20Z</time><name>PT9211</name></trkpt>
<trkpt lat="52.945256" lon="-3.156169"><ele>337</ele><time>2019-09-27T12:56:21Z</time><name>PT9212</name></trkpt>
<trkpt lat="52.945261" lon="-3.156155"><ele>337</ele><time>2019-09-27T12:56:22Z</time><name>PT9213</name></trkpt>
<trkpt lat="52.945268" lon="-3.156142"><ele>336</ele><time>2019-09-27T12:56:23Z</time><name>PT9214</name></trkpt>
<trkpt lat="52.945274" lon="-3.156130"><ele>336</ele><time>2019-09-27T12:56:24Z</time><name>PT9215</name></trkpt>
<trkpt lat="52.945277" lon="-3.156119"><ele>336</ele><time>2019-09-27T12:56:25Z</time><name>PT9216</name></trkpt>
<trkpt lat="52.945281" lon="-3.156108"><ele>336</ele><time>2019-09-27T12:56:26Z</time><name>PT9217</name></trkpt>
<trkpt lat="52.945285" lon="-3.156097"><ele>336</ele><time>2019-09-27T12:56:27Z</time><name>PT9218</name></trkpt>
<trkpt lat="52.945289" lon="-3.156086"><ele>337</ele><time>2019-09-27T12:56:28Z</time><name>PT9219</name></trkpt>
<trkpt lat="52.945294" lon="-3.156068"><ele>337</ele><time>2019-09-27T12:56:29Z</time><name>PT9220</name></trkpt>
<trkpt lat="52.945300" lon="-3.156051"><ele>337</ele><time>2019-09-27T12:56:30Z</time><name>PT9221</name></trkpt>
<trkpt lat="52.945305" lon="-3.156036"><ele>337</ele><time>2019-09-27T12:56:31Z</time><name>PT9222</name></trkpt>
<trkpt lat="52.945310" lon="-3.156022"><ele>337</ele><time>2019-09-27T12:56:32Z</time><name>PT9223</name></trkpt>
<trkpt lat="52.945315" lon="-3.156008"><ele>337</ele><time>2019-09-27T12:56:33Z</time><name>PT9224</name></trkpt>
<trkpt lat="52.945321" lon="-3.155994"><ele>338</ele><time>2019-09-27T12:56:34Z</time><name>PT9225</name></trkpt>
<trkpt lat="52.945326" lon="-3.155980"><ele>338</ele><time>2019-09-27T12:56:35Z</time><name>PT9226</name></trkpt>
<trkpt lat="52.945334" lon="-3.155967"><ele>338</ele><time>2019-09-27T12:56:36Z</time><name>PT9227</name></trkpt>
<trkpt lat="52.945339" lon="-3.155953"><ele>338</ele><time>2019-09-27T12:56:37Z</time><name>PT9228</name></trkpt>
<trkpt lat="52.945344" lon="-3.155937"><ele>338</ele><time>2019-09-27T12:56:38Z</time><name>PT9229</name></trkpt>
<trkpt lat="52.945349" lon="-3.155923"><ele>339</ele><time>2019-09-27T12:56:39Z</time><name>PT9230</name></trkpt>
<trkpt lat="52.945354" lon="-3.155910"><ele>339</ele><time>2019-09-27T12:56:40Z</time><name>PT9231</name></trkpt>
<trkpt lat="52.945359" lon="-3.155897"><ele>339</ele><time>2019-09-27T12:56:41Z</time><name>PT9232</name></trkpt>
<trkpt lat="52.945364" lon="-3.155885"><ele>339</ele><time>2019-09-27T12:56:42Z</time><name>PT9233</name></trkpt>
<trkpt lat="52.945370" lon="-3.155869"><ele>339</ele><time>2019-09-27T12:56:43Z</time><name>PT9234</name></trkpt>
<trkpt lat="52.945377" lon="-3.155852"><ele>339</ele><time>2019-09-27T12:56:44Z</time><name>PT9235</name></trkpt>
<trkpt lat="52.945382" lon="-3.155838"><ele>339</ele><time>2019-09-27T12:56:45Z</time><name>PT9236</name></trkpt>
<trkpt lat="52.945387" lon="-3.155823"><ele>339</ele><time>2019-09-27T12:56:45Z</time><name>PT9237</name></trkpt>
<trkpt lat="52.945394" lon="-3.155807"><ele>340</ele><time>2019-09-27T12:56:47Z</time><name>PT9238</name></trkpt>
<trkpt lat="52.945399" lon="-3.155788"><ele>340</ele><time>2019-09-27T12:56:48Z</time><name>PT9239</name></trkpt>
<trkpt lat="52.945403" lon="-3.155770"><ele>339</ele><time>2019-09-27T12:56:49Z</time><name>PT9240</name></trkpt>
<trkpt lat="52.945410" lon="-3.155756"><ele>340</ele><time>2019-09-27T12:56:50Z</time><name>PT9241</name></trkpt>
<trkpt lat="52.945416" lon="-3.155745"><ele>340</ele><time>2019-09-27T12:56:51Z</time><name>PT9242</name></trkpt>
<trkpt lat="52.945423" lon="-3.155730"><ele>340</ele><time>2019-09-27T12:56:51Z</time><name>PT9243</name></trkpt>
<trkpt lat="52.945431" lon="-3.155723"><ele>340</ele><time>2019-09-27T12:56:53Z</time><name>PT9244</name></trkpt>
<trkpt lat="52.945439" lon="-3.155707"><ele>340</ele><time>2019-09-27T12:56:54Z</time><name>PT9245</name></trkpt>
<trkpt lat="52.945446" lon="-3.155693"><ele>340</ele><time>2019-09-27T12:56:55Z</time><name>PT9246</name></trkpt>
<trkpt lat="52.945451" lon="-3.155680"><ele>340</ele><time>2019-09-27T12:56:56Z</time><name>PT9247</name></trkpt>
<trkpt lat="52.945457" lon="-3.155664"><ele>340</ele><time>2019-09-27T12:56:57Z</time><name>PT9248</name></trkpt>
<trkpt lat="52.945462" lon="-3.155650"><ele>340</ele><time>2019-09-27T12:56:58Z</time><name>PT9249</name></trkpt>
<trkpt lat="52.945468" lon="-3.155634"><ele>340</ele><time>2019-09-27T12:56:59Z</time><name>PT9250</name></trkpt>
<trkpt lat="52.945474" lon="-3.155619"><ele>339</ele><time>2019-09-27T12:57:00Z</time><name>PT9251</name></trkpt>
<trkpt lat="52.945480" lon="-3.155604"><ele>339</ele><time>2019-09-27T12:57:01Z</time><name>PT9252</name></trkpt>
<trkpt lat="52.945486" lon="-3.155588"><ele>340</ele><time>2019-09-27T12:57:02Z</time><name>PT9253</name></trkpt>
<trkpt lat="52.945492" lon="-3.155571"><ele>340</ele><time>2019-09-27T12:57:03Z</time><name>PT9254</name></trkpt>
<trkpt lat="52.945498" lon="-3.155557"><ele>340</ele><time>2019-09-27T12:57:04Z</time><name>PT9255</name></trkpt>
<trkpt lat="52.945504" lon="-3.155545"><ele>340</ele><time>2019-09-27T12:57:05Z</time><name>PT9256</name></trkpt>
<trkpt lat="52.945511" lon="-3.155532"><ele>341</ele><time>2019-09-27T12:57:06Z</time><name>PT9257</name></trkpt>
<trkpt lat="52.945519" lon="-3.155522"><ele>341</ele><time>2019-09-27T12:57:07Z</time><name>PT9258</name></trkpt>
<trkpt lat="52.945525" lon="-3.155509"><ele>341</ele><time>2019-09-27T12:57:08Z</time><name>PT9259</name></trkpt>
<trkpt lat="52.945529" lon="-3.155498"><ele>340</ele><time>2019-09-27T12:57:09Z</time><name>PT9260</name></trkpt>
<trkpt lat="52.945539" lon="-3.155494"><ele>340</ele><time>2019-09-27T12:57:09Z</time><name>PT9261</name></trkpt>
<trkpt lat="52.945546" lon="-3.155484"><ele>340</ele><time>2019-09-27T12:57:11Z</time><name>PT9262</name></trkpt>
<trkpt lat="52.945552" lon="-3.155470"><ele>339</ele><time>2019-09-27T12:57:12Z</time><name>PT9263</name></trkpt>
<trkpt lat="52.945563" lon="-3.155460"><ele>339</ele><time>2019-09-27T12:57:13Z</time><name>PT9264</name></trkpt>
<trkpt lat="52.945571" lon="-3.155452"><ele>340</ele><time>2019-09-27T12:57:14Z</time><name>PT9265</name></trkpt>
<trkpt lat="52.945578" lon="-3.155443"><ele>340</ele><time>2019-09-27T12:57:15Z</time><name>PT9266</name></trkpt>
<trkpt lat="52.945586" lon="-3.155434"><ele>340</ele><time>2019-09-27T12:57:16Z</time><name>PT9267</name></trkpt>
<trkpt lat="52.945593" lon="-3.155421"><ele>340</ele><time>2019-09-27T12:57:17Z</time><name>PT9268</name></trkpt>
<trkpt lat="52.945603" lon="-3.155409"><ele>340</ele><time>2019-09-27T12:57:18Z</time><name>PT9269</name></trkpt>
<trkpt lat="52.945612" lon="-3.155400"><ele>340</ele><time>2019-09-27T12:57:19Z</time><name>PT9270</name></trkpt>
<trkpt lat="52.945620" lon="-3.155392"><ele>340</ele><time>2019-09-27T12:57:20Z</time><name>PT9271</name></trkpt>
<trkpt lat="52.945626" lon="-3.155376"><ele>339</ele><time>2019-09-27T12:57:21Z</time><name>PT9272</name></trkpt>
<trkpt lat="52.945634" lon="-3.155366"><ele>339</ele><time>2019-09-27T12:57:22Z</time><name>PT9273</name></trkpt>
<trkpt lat="52.945640" lon="-3.155354"><ele>340</ele><time>2019-09-27T12:57:23Z</time><name>PT9274</name></trkpt>
<trkpt lat="52.945648" lon="-3.155338"><ele>340</ele><time>2019-09-27T12:57:24Z</time><name>PT9275</name></trkpt>
<trkpt lat="52.945656" lon="-3.155323"><ele>340</ele><time>2019-09-27T12:57:25Z</time><name>PT9276</name></trkpt>
<trkpt lat="52.945663" lon="-3.155305"><ele>340</ele><time>2019-09-27T12:57:26Z</time><name>PT9277</name></trkpt>
<trkpt lat="52.945672" lon="-3.155294"><ele>340</ele><time>2019-09-27T12:57:27Z</time><name>PT9278</name></trkpt>
<trkpt lat="52.945682" lon="-3.155284"><ele>340</ele><time>2019-09-27T12:57:28Z</time><name>PT9279</name></trkpt>
<trkpt lat="52.945693" lon="-3.155272"><ele>341</ele><time>2019-09-27T12:57:29Z</time><name>PT9280</name></trkpt>
<trkpt lat="52.945702" lon="-3.155259"><ele>340</ele><time>2019-09-27T12:57:30Z</time><name>PT9281</name></trkpt>
<trkpt lat="52.945709" lon="-3.155249"><ele>340</ele><time>2019-09-27T12:57:31Z</time><name>PT9282</name></trkpt>
<trkpt lat="52.945714" lon="-3.155240"><ele>339</ele><time>2019-09-27T12:57:32Z</time><name>PT9283</name></trkpt>
<trkpt lat="52.945720" lon="-3.155229"><ele>339</ele><time>2019-09-27T12:57:33Z</time><name>PT9284</name></trkpt>
<trkpt lat="52.945729" lon="-3.155220"><ele>339</ele><time>2019-09-27T12:57:34Z</time><name>PT9285</name></trkpt>
<trkpt lat="52.945737" lon="-3.155207"><ele>339</ele><time>2019-09-27T12:57:35Z</time><name>PT9286</name></trkpt>
<trkpt lat="52.945749" lon="-3.155194"><ele>340</ele><time>2019-09-27T12:57:36Z</time><name>PT9287</name></trkpt>
<trkpt lat="52.945757" lon="-3.155181"><ele>339</ele><time>2019-09-27T12:57:37Z</time><name>PT9288</name></trkpt>
<trkpt lat="52.945764" lon="-3.155169"><ele>339</ele><time>2019-09-27T12:57:38Z</time><name>PT9289</name></trkpt>
<trkpt lat="52.945775" lon="-3.155158"><ele>339</ele><time>2019-09-27T12:57:39Z</time><name>PT9290</name></trkpt>
<trkpt lat="52.945785" lon="-3.155147"><ele>339</ele><time>2019-09-27T12:57:39Z</time><name>PT9291</name></trkpt>
<trkpt lat="52.945793" lon="-3.155135"><ele>339</ele><time>2019-09-27T12:57:41Z</time><name>PT9292</name></trkpt>
<trkpt lat="52.945801" lon="-3.155119"><ele>340</ele><time>2019-09-27T12:57:42Z</time><name>PT9293</name></trkpt>
<trkpt lat="52.945814" lon="-3.155107"><ele>340</ele><time>2019-09-27T12:57:43Z</time><name>PT9294</name></trkpt>
<trkpt lat="52.945825" lon="-3.155094"><ele>340</ele><time>2019-09-27T12:57:44Z</time><name>PT9295</name></trkpt>
<trkpt lat="52.945830" lon="-3.155070"><ele>339</ele><time>2019-09-27T12:57:45Z</time><name>PT9296</name></trkpt>
<trkpt lat="52.945844" lon="-3.155060"><ele>340</ele><time>2019-09-27T12:57:46Z</time><name>PT9297</name></trkpt>
<trkpt lat="52.945854" lon="-3.155050"><ele>340</ele><time>2019-09-27T12:57:47Z</time><name>PT9298</name></trkpt>
<trkpt lat="52.945862" lon="-3.155039"><ele>340</ele><time>2019-09-27T12:57:48Z</time><name>PT9299</name></trkpt>
<trkpt lat="52.945870" lon="-3.155029"><ele>341</ele><time>2019-09-27T12:57:49Z</time><name>PT9300</name></trkpt>
<trkpt lat="52.945880" lon="-3.155018"><ele>341</ele><time>2019-09-27T12:57:50Z</time><name>PT9301</name></trkpt>
<trkpt lat="52.945892" lon="-3.155009"><ele>342</ele><time>2019-09-27T12:57:51Z</time><name>PT9302</name></trkpt>
<trkpt lat="52.945902" lon="-3.154999"><ele>342</ele><time>2019-09-27T12:57:51Z</time><name>PT9303</name></trkpt>
<trkpt lat="52.945910" lon="-3.154989"><ele>342</ele><time>2019-09-27T12:57:53Z</time><name>PT9304</name></trkpt>
<trkpt lat="52.945921" lon="-3.154979"><ele>342</ele><time>2019-09-27T12:57:54Z</time><name>PT9305</name></trkpt>
<trkpt lat="52.945932" lon="-3.154969"><ele>342</ele><time>2019-09-27T12:57:54Z</time><name>PT9306</name></trkpt>
<trkpt lat="52.945942" lon="-3.154958"><ele>342</ele><time>2019-09-27T12:57:56Z</time><name>PT9307</name></trkpt>
<trkpt lat="52.945955" lon="-3.154950"><ele>343</ele><time>2019-09-27T12:57:57Z</time><name>PT9308</name></trkpt>
<trkpt lat="52.945961" lon="-3.154941"><ele>343</ele><time>2019-09-27T12:57:57Z</time><name>PT9309</name></trkpt>
<trkpt lat="52.945969" lon="-3.154932"><ele>343</ele><time>2019-09-27T12:57:59Z</time><name>PT9310</name></trkpt>
<trkpt lat="52.945979" lon="-3.154919"><ele>343</ele><time>2019-09-27T12:58:00Z</time><name>PT9311</name></trkpt>
<trkpt lat="52.945990" lon="-3.154909"><ele>344</ele><time>2019-09-27T12:58:01Z</time><name>PT9312</name></trkpt>
<trkpt lat="52.946003" lon="-3.154900"><ele>344</ele><time>2019-09-27T12:58:02Z</time><name>PT9313</name></trkpt>
<trkpt lat="52.946016" lon="-3.154891"><ele>344</ele><time>2019-09-27T12:58:03Z</time><name>PT9314</name></trkpt>
<trkpt lat="52.946024" lon="-3.154879"><ele>345</ele><time>2019-09-27T12:58:04Z</time><name>PT9315</name></trkpt>
<trkpt lat="52.946035" lon="-3.154872"><ele>345</ele><time>2019-09-27T12:58:05Z</time><name>PT9316</name></trkpt>
<trkpt lat="52.946047" lon="-3.154864"><ele>345</ele><time>2019-09-27T12:58:06Z</time><name>PT9317</name></trkpt>
<trkpt lat="52.946059" lon="-3.154857"><ele>346</ele><time>2019-09-27T12:58:07Z</time><name>PT9318</name></trkpt>
<trkpt lat="52.946068" lon="-3.154851"><ele>346</ele><time>2019-09-27T12:58:08Z</time><name>PT9319</name></trkpt>
<trkpt lat="52.946080" lon="-3.154843"><ele>346</ele><time>2019-09-27T12:58:09Z</time><name>PT9320</name></trkpt>
<trkpt lat="52.946091" lon="-3.154836"><ele>347</ele><time>2019-09-27T12:58:10Z</time><name>PT9321</name></trkpt>
<trkpt lat="52.946102" lon="-3.154829"><ele>347</ele><time>2019-09-27T12:58:11Z</time><name>PT9322</name></trkpt>
<trkpt lat="52.946113" lon="-3.154824"><ele>347</ele><time>2019-09-27T12:58:12Z</time><name>PT9323</name></trkpt>
<trkpt lat="52.946125" lon="-3.154817"><ele>347</ele><time>2019-09-27T12:58:13Z</time><name>PT9324</name></trkpt>
<trkpt lat="52.946136" lon="-3.154811"><ele>347</ele><time>2019-09-27T12:58:14Z</time><name>PT9325</name></trkpt>
<trkpt lat="52.946146" lon="-3.154805"><ele>347</ele><time>2019-09-27T12:58:15Z</time><name>PT9326</name></trkpt>
<trkpt lat="52.946155" lon="-3.154803"><ele>347</ele><time>2019-09-27T12:58:16Z</time><name>PT9327</name></trkpt>
<trkpt lat="52.946166" lon="-3.154795"><ele>347</ele><time>2019-09-27T12:58:17Z</time><name>PT9328</name></trkpt>
<trkpt lat="52.946175" lon="-3.154791"><ele>347</ele><time>2019-09-27T12:58:18Z</time><name>PT9329</name></trkpt>
<trkpt lat="52.946186" lon="-3.154789"><ele>346</ele><time>2019-09-27T12:58:19Z</time><name>PT9330</name></trkpt>
<trkpt lat="52.946197" lon="-3.154786"><ele>347</ele><time>2019-09-27T12:58:20Z</time><name>PT9331</name></trkpt>
<trkpt lat="52.946207" lon="-3.154781"><ele>346</ele><time>2019-09-27T12:58:21Z</time><name>PT9332</name></trkpt>
<trkpt lat="52.946216" lon="-3.154778"><ele>346</ele><time>2019-09-27T12:58:22Z</time><name>PT9333</name></trkpt>
<trkpt lat="52.946224" lon="-3.154776"><ele>346</ele><time>2019-09-27T12:58:23Z</time><name>PT9334</name></trkpt>
<trkpt lat="52.946234" lon="-3.154773"><ele>346</ele><time>2019-09-27T12:58:24Z</time><name>PT9335</name></trkpt>
<trkpt lat="52.946245" lon="-3.154767"><ele>346</ele><time>2019-09-27T12:58:25Z</time><name>PT9336</name></trkpt>
<trkpt lat="52.946259" lon="-3.154763"><ele>346</ele><time>2019-09-27T12:58:26Z</time><name>PT9337</name></trkpt>
<trkpt lat="52.946270" lon="-3.154760"><ele>347</ele><time>2019-09-27T12:58:27Z</time><name>PT9338</name></trkpt>
<trkpt lat="52.946282" lon="-3.154757"><ele>347</ele><time>2019-09-27T12:58:28Z</time><name>PT9339</name></trkpt>
<trkpt lat="52.946293" lon="-3.154756"><ele>347</ele><time>2019-09-27T12:58:29Z</time><name>PT9340</name></trkpt>
<trkpt lat="52.946304" lon="-3.154756"><ele>347</ele><time>2019-09-27T12:58:30Z</time><name>PT9341</name></trkpt>
<trkpt lat="52.946317" lon="-3.154755"><ele>347</ele><time>2019-09-27T12:58:30Z</time><name>PT9342</name></trkpt>
<trkpt lat="52.946328" lon="-3.154753"><ele>347</ele><time>2019-09-27T12:58:32Z</time><name>PT9343</name></trkpt>
<trkpt lat="52.946338" lon="-3.154753"><ele>347</ele><time>2019-09-27T12:58:33Z</time><name>PT9344</name></trkpt>
<trkpt lat="52.946349" lon="-3.154754"><ele>347</ele><time>2019-09-27T12:58:34Z</time><name>PT9345</name></trkpt>
<trkpt lat="52.946360" lon="-3.154757"><ele>347</ele><time>2019-09-27T12:58:35Z</time><name>PT9346</name></trkpt>
<trkpt lat="52.946370" lon="-3.154758"><ele>347</ele><time>2019-09-27T12:58:36Z</time><name>PT9347</name></trkpt>
<trkpt lat="52.946385" lon="-3.154758"><ele>347</ele><time>2019-09-27T12:58:37Z</time><name>PT9348</name></trkpt>
<trkpt lat="52.946395" lon="-3.154759"><ele>347</ele><time>2019-09-27T12:58:38Z</time><name>PT9349</name></trkpt>
<trkpt lat="52.946402" lon="-3.154758"><ele>347</ele><time>2019-09-27T12:58:39Z</time><name>PT9350</name></trkpt>
<trkpt lat="52.946411" lon="-3.154759"><ele>347</ele><time>2019-09-27T12:58:40Z</time><name>PT9351</name></trkpt>
<trkpt lat="52.946421" lon="-3.154761"><ele>347</ele><time>2019-09-27T12:58:41Z</time><name>PT9352</name></trkpt>
<trkpt lat="52.946431" lon="-3.154762"><ele>347</ele><time>2019-09-27T12:58:42Z</time><name>PT9353</name></trkpt>
<trkpt lat="52.946440" lon="-3.154764"><ele>347</ele><time>2019-09-27T12:58:43Z</time><name>PT9354</name></trkpt>
<trkpt lat="52.946452" lon="-3.154766"><ele>347</ele><time>2019-09-27T12:58:44Z</time><name>PT9355</name></trkpt>
<trkpt lat="52.946461" lon="-3.154769"><ele>347</ele><time>2019-09-27T12:58:45Z</time><name>PT9356</name></trkpt>
<trkpt lat="52.946471" lon="-3.154770"><ele>347</ele><time>2019-09-27T12:58:46Z</time><name>PT9357</name></trkpt>
<trkpt lat="52.946480" lon="-3.154772"><ele>347</ele><time>2019-09-27T12:58:47Z</time><name>PT9358</name></trkpt>
<trkpt lat="52.946491" lon="-3.154773"><ele>347</ele><time>2019-09-27T12:58:48Z</time><name>PT9359</name></trkpt>
<trkpt lat="52.946504" lon="-3.154774"><ele>347</ele><time>2019-09-27T12:58:49Z</time><name>PT9360</name></trkpt>
<trkpt lat="52.946514" lon="-3.154777"><ele>347</ele><time>2019-09-27T12:58:50Z</time><name>PT9361</name></trkpt>
<trkpt lat="52.946523" lon="-3.154779"><ele>347</ele><time>2019-09-27T12:58:51Z</time><name>PT9362</name></trkpt>
<trkpt lat="52.946535" lon="-3.154781"><ele>347</ele><time>2019-09-27T12:58:52Z</time><name>PT9363</name></trkpt>
<trkpt lat="52.946546" lon="-3.154783"><ele>347</ele><time>2019-09-27T12:58:53Z</time><name>PT9364</name></trkpt>
<trkpt lat="52.946557" lon="-3.154786"><ele>348</ele><time>2019-09-27T12:58:54Z</time><name>PT9365</name></trkpt>
<trkpt lat="52.946569" lon="-3.154790"><ele>348</ele><time>2019-09-27T12:58:55Z</time><name>PT9366</name></trkpt>
<trkpt lat="52.946579" lon="-3.154794"><ele>348</ele><time>2019-09-27T12:58:56Z</time><name>PT9367</name></trkpt>
<trkpt lat="52.946589" lon="-3.154795"><ele>348</ele><time>2019-09-27T12:58:57Z</time><name>PT9368</name></trkpt>
<trkpt lat="52.946599" lon="-3.154797"><ele>348</ele><time>2019-09-27T12:58:58Z</time><name>PT9369</name></trkpt>
<trkpt lat="52.946608" lon="-3.154802"><ele>348</ele><time>2019-09-27T12:58:59Z</time><name>PT9370</name></trkpt>
<trkpt lat="52.946616" lon="-3.154807"><ele>348</ele><time>2019-09-27T12:59:00Z</time><name>PT9371</name></trkpt>
<trkpt lat="52.946627" lon="-3.154811"><ele>348</ele><time>2019-09-27T12:59:01Z</time><name>PT9372</name></trkpt>
<trkpt lat="52.946639" lon="-3.154815"><ele>348</ele><time>2019-09-27T12:59:02Z</time><name>PT9373</name></trkpt>
<trkpt lat="52.946649" lon="-3.154819"><ele>348</ele><time>2019-09-27T12:59:03Z</time><name>PT9374</name></trkpt>
<trkpt lat="52.946659" lon="-3.154823"><ele>348</ele><time>2019-09-27T12:59:04Z</time><name>PT9375</name></trkpt>
<trkpt lat="52.946671" lon="-3.154823"><ele>348</ele><time>2019-09-27T12:59:05Z</time><name>PT9376</name></trkpt>
<trkpt lat="52.946679" lon="-3.154827"><ele>348</ele><time>2019-09-27T12:59:06Z</time><name>PT9377</name></trkpt>
<trkpt lat="52.946687" lon="-3.154832"><ele>348</ele><time>2019-09-27T12:59:07Z</time><name>PT9378</name></trkpt>
<trkpt lat="52.946697" lon="-3.154836"><ele>348</ele><time>2019-09-27T12:59:08Z</time><name>PT9379</name></trkpt>
<trkpt lat="52.946705" lon="-3.154843"><ele>349</ele><time>2019-09-27T12:59:09Z</time><name>PT9380</name></trkpt>
<trkpt lat="52.946715" lon="-3.154849"><ele>349</ele><time>2019-09-27T12:59:10Z</time><name>PT9381</name></trkpt>
<trkpt lat="52.946727" lon="-3.154853"><ele>349</ele><time>2019-09-27T12:59:11Z</time><name>PT9382</name></trkpt>
<trkpt lat="52.946737" lon="-3.154855"><ele>349</ele><time>2019-09-27T12:59:12Z</time><name>PT9383</name></trkpt>
<trkpt lat="52.946748" lon="-3.154859"><ele>348</ele><time>2019-09-27T12:59:13Z</time><name>PT9384</name></trkpt>
<trkpt lat="52.946760" lon="-3.154865"><ele>349</ele><time>2019-09-27T12:59:14Z</time><name>PT9385</name></trkpt>
<trkpt lat="52.946769" lon="-3.154870"><ele>349</ele><time>2019-09-27T12:59:15Z</time><name>PT9386</name></trkpt>
<trkpt lat="52.946778" lon="-3.154875"><ele>349</ele><time>2019-09-27T12:59:15Z</time><name>PT9387</name></trkpt>
<trkpt lat="52.946790" lon="-3.154878"><ele>349</ele><time>2019-09-27T12:59:17Z</time><name>PT9388</name></trkpt>
<trkpt lat="52.946801" lon="-3.154882"><ele>349</ele><time>2019-09-27T12:59:18Z</time><name>PT9389</name></trkpt>
<trkpt lat="52.946813" lon="-3.154887"><ele>349</ele><time>2019-09-27T12:59:19Z</time><name>PT9390</name></trkpt>
<trkpt lat="52.946825" lon="-3.154891"><ele>349</ele><time>2019-09-27T12:59:20Z</time><name>PT9391</name></trkpt>
<trkpt lat="52.946834" lon="-3.154897"><ele>349</ele><time>2019-09-27T12:59:21Z</time><name>PT9392</name></trkpt>
<trkpt lat="52.946844" lon="-3.154900"><ele>349</ele><time>2019-09-27T12:59:21Z</time><name>PT9393</name></trkpt>
<trkpt lat="52.946856" lon="-3.154900"><ele>349</ele><time>2019-09-27T12:59:23Z</time><name>PT9394</name></trkpt>
<trkpt lat="52.946868" lon="-3.154904"><ele>349</ele><time>2019-09-27T12:59:24Z</time><name>PT9395</name></trkpt>
<trkpt lat="52.946879" lon="-3.154911"><ele>350</ele><time>2019-09-27T12:59:25Z</time><name>PT9396</name></trkpt>
<trkpt lat="52.946889" lon="-3.154916"><ele>350</ele><time>2019-09-27T12:59:26Z</time><name>PT9397</name></trkpt>
<trkpt lat="52.946900" lon="-3.154917"><ele>350</ele><time>2019-09-27T12:59:27Z</time><name>PT9398</name></trkpt>
<trkpt lat="52.946912" lon="-3.154920"><ele>350</ele><time>2019-09-27T12:59:28Z</time><name>PT9399</name></trkpt>
<trkpt lat="52.946923" lon="-3.154922"><ele>350</ele><time>2019-09-27T12:59:29Z</time><name>PT9400</name></trkpt>
<trkpt lat="52.946933" lon="-3.154922"><ele>350</ele><time>2019-09-27T12:59:30Z</time><name>PT9401</name></trkpt>
<trkpt lat="52.946943" lon="-3.154929"><ele>350</ele><time>2019-09-27T12:59:30Z</time><name>PT9402</name></trkpt>
<trkpt lat="52.946951" lon="-3.154936"><ele>350</ele><time>2019-09-27T12:59:32Z</time><name>PT9403</name></trkpt>
<trkpt lat="52.946959" lon="-3.154941"><ele>350</ele><time>2019-09-27T12:59:33Z</time><name>PT9404</name></trkpt>
<trkpt lat="52.946971" lon="-3.154947"><ele>350</ele><time>2019-09-27T12:59:33Z</time><name>PT9405</name></trkpt>
<trkpt lat="52.946982" lon="-3.154953"><ele>350</ele><time>2019-09-27T12:59:35Z</time><name>PT9406</name></trkpt>
<trkpt lat="52.946991" lon="-3.154959"><ele>351</ele><time>2019-09-27T12:59:36Z</time><name>PT9407</name></trkpt>
<trkpt lat="52.947002" lon="-3.154965"><ele>351</ele><time>2019-09-27T12:59:37Z</time><name>PT9408</name></trkpt>
<trkpt lat="52.947013" lon="-3.154966"><ele>351</ele><time>2019-09-27T12:59:38Z</time><name>PT9409</name></trkpt>
<trkpt lat="52.947023" lon="-3.154969"><ele>351</ele><time>2019-09-27T12:59:39Z</time><name>PT9410</name></trkpt>
<trkpt lat="52.947036" lon="-3.154975"><ele>352</ele><time>2019-09-27T12:59:40Z</time><name>PT9411</name></trkpt>
<trkpt lat="52.947045" lon="-3.154983"><ele>352</ele><time>2019-09-27T12:59:41Z</time><name>PT9412</name></trkpt>
<trkpt lat="52.947055" lon="-3.154990"><ele>351</ele><time>2019-09-27T12:59:42Z</time><name>PT9413</name></trkpt>
<trkpt lat="52.947065" lon="-3.154996"><ele>351</ele><time>2019-09-27T12:59:43Z</time><name>PT9414</name></trkpt>
<trkpt lat="52.947074" lon="-3.155003"><ele>351</ele><time>2019-09-27T12:59:44Z</time><name>PT9415</name></trkpt>
<trkpt lat="52.947085" lon="-3.155008"><ele>351</ele><time>2019-09-27T12:59:45Z</time><name>PT9416</name></trkpt>
<trkpt lat="52.947092" lon="-3.155016"><ele>351</ele><time>2019-09-27T12:59:46Z</time><name>PT9417</name></trkpt>
<trkpt lat="52.947100" lon="-3.155022"><ele>352</ele><time>2019-09-27T12:59:47Z</time><name>PT9418</name></trkpt>
<trkpt lat="52.947110" lon="-3.155027"><ele>352</ele><time>2019-09-27T12:59:48Z</time><name>PT9419</name></trkpt>
<trkpt lat="52.947118" lon="-3.155031"><ele>351</ele><time>2019-09-27T12:59:49Z</time><name>PT9420</name></trkpt>
<trkpt lat="52.947127" lon="-3.155039"><ele>351</ele><time>2019-09-27T12:59:50Z</time><name>PT9421</name></trkpt>
<trkpt lat="52.947137" lon="-3.155047"><ele>352</ele><time>2019-09-27T12:59:51Z</time><name>PT9422</name></trkpt>
<trkpt lat="52.947146" lon="-3.155056"><ele>352</ele><time>2019-09-27T12:59:52Z</time><name>PT9423</name></trkpt>
<trkpt lat="52.947157" lon="-3.155064"><ele>352</ele><time>2019-09-27T12:59:53Z</time><name>PT9424</name></trkpt>
<trkpt lat="52.947165" lon="-3.155072"><ele>352</ele><time>2019-09-27T12:59:54Z</time><name>PT9425</name></trkpt>
<trkpt lat="52.947176" lon="-3.155081"><ele>352</ele><time>2019-09-27T12:59:55Z</time><name>PT9426</name></trkpt>
<trkpt lat="52.947184" lon="-3.155089"><ele>351</ele><time>2019-09-27T12:59:56Z</time><name>PT9427</name></trkpt>
<trkpt lat="52.947193" lon="-3.155096"><ele>351</ele><time>2019-09-27T12:59:57Z</time><name>PT9428</name></trkpt>
<trkpt lat="52.947203" lon="-3.155103"><ele>351</ele><time>2019-09-27T12:59:58Z</time><name>PT9429</name></trkpt>
<trkpt lat="52.947212" lon="-3.155108"><ele>351</ele><time>2019-09-27T12:59:59Z</time><name>PT9430</name></trkpt>
<trkpt lat="52.947219" lon="-3.155114"><ele>350</ele><time>2019-09-27T13:00:00Z</time><name>PT9431</name></trkpt>
<trkpt lat="52.947229" lon="-3.155120"><ele>350</ele><time>2019-09-27T13:00:01Z</time><name>PT9432</name></trkpt>
<trkpt lat="52.947238" lon="-3.155126"><ele>350</ele><time>2019-09-27T13:00:02Z</time><name>PT9433</name></trkpt>
<trkpt lat="52.947247" lon="-3.155132"><ele>350</ele><time>2019-09-27T13:00:03Z</time><name>PT9434</name></trkpt>
<trkpt lat="52.947258" lon="-3.155140"><ele>349</ele><time>2019-09-27T13:00:04Z</time><name>PT9435</name></trkpt>
<trkpt lat="52.947265" lon="-3.155153"><ele>349</ele><time>2019-09-27T13:00:05Z</time><name>PT9436</name></trkpt>
<trkpt lat="52.947277" lon="-3.155165"><ele>349</ele><time>2019-09-27T13:00:06Z</time><name>PT9437</name></trkpt>
<trkpt lat="52.947288" lon="-3.155171"><ele>350</ele><time>2019-09-27T13:00:06Z</time><name>PT9438</name></trkpt>
<trkpt lat="52.947298" lon="-3.155176"><ele>350</ele><time>2019-09-27T13:00:08Z</time><name>PT9439</name></trkpt>
<trkpt lat="52.947313" lon="-3.155183"><ele>350</ele><time>2019-09-27T13:00:09Z</time><name>PT9440</name></trkpt>
<trkpt lat="52.947323" lon="-3.155191"><ele>350</ele><time>2019-09-27T13:00:09Z</time><name>PT9441</name></trkpt>
<trkpt lat="52.947335" lon="-3.155194"><ele>350</ele><time>2019-09-27T13:00:11Z</time><name>PT9442</name></trkpt>
<trkpt lat="52.947345" lon="-3.155201"><ele>351</ele><time>2019-09-27T13:00:12Z</time><name>PT9443</name></trkpt>
<trkpt lat="52.947355" lon="-3.155206"><ele>351</ele><time>2019-09-27T13:00:13Z</time><name>PT9444</name></trkpt>
<trkpt lat="52.947367" lon="-3.155211"><ele>352</ele><time>2019-09-27T13:00:14Z</time><name>PT9445</name></trkpt>
<trkpt lat="52.947377" lon="-3.155219"><ele>352</ele><time>2019-09-27T13:00:15Z</time><name>PT9446</name></trkpt>
<trkpt lat="52.947390" lon="-3.155225"><ele>352</ele><time>2019-09-27T13:00:16Z</time><name>PT9447</name></trkpt>
<trkpt lat="52.947400" lon="-3.155235"><ele>352</ele><time>2019-09-27T13:00:17Z</time><name>PT9448</name></trkpt>
<trkpt lat="52.947410" lon="-3.155244"><ele>352</ele><time>2019-09-27T13:00:18Z</time><name>PT9449</name></trkpt>
<trkpt lat="52.947423" lon="-3.155251"><ele>353</ele><time>2019-09-27T13:00:19Z</time><name>PT9450</name></trkpt>
<trkpt lat="52.947435" lon="-3.155255"><ele>352</ele><time>2019-09-27T13:00:20Z</time><name>PT9451</name></trkpt>
<trkpt lat="52.947449" lon="-3.155261"><ele>353</ele><time>2019-09-27T13:00:21Z</time><name>PT9452</name></trkpt>
<trkpt lat="52.947460" lon="-3.155269"><ele>353</ele><time>2019-09-27T13:00:22Z</time><name>PT9453</name></trkpt>
<trkpt lat="52.947468" lon="-3.155276"><ele>353</ele><time>2019-09-27T13:00:23Z</time><name>PT9454</name></trkpt>
<trkpt lat="52.947477" lon="-3.155282"><ele>353</ele><time>2019-09-27T13:00:24Z</time><name>PT9455</name></trkpt>
<trkpt lat="52.947488" lon="-3.155287"><ele>353</ele><time>2019-09-27T13:00:25Z</time><name>PT9456</name></trkpt>
<trkpt lat="52.947498" lon="-3.155292"><ele>354</ele><time>2019-09-27T13:00:26Z</time><name>PT9457</name></trkpt>
<trkpt lat="52.947508" lon="-3.155302"><ele>354</ele><time>2019-09-27T13:00:27Z</time><name>PT9458</name></trkpt>
<trkpt lat="52.947519" lon="-3.155309"><ele>354</ele><time>2019-09-27T13:00:28Z</time><name>PT9459</name></trkpt>
<trkpt lat="52.947529" lon="-3.155315"><ele>355</ele><time>2019-09-27T13:00:29Z</time><name>PT9460</name></trkpt>
<trkpt lat="52.947539" lon="-3.155320"><ele>355</ele><time>2019-09-27T13:00:30Z</time><name>PT9461</name></trkpt>
<trkpt lat="52.947550" lon="-3.155327"><ele>355</ele><time>2019-09-27T13:00:31Z</time><name>PT9462</name></trkpt>
<trkpt lat="52.947559" lon="-3.155335"><ele>355</ele><time>2019-09-27T13:00:32Z</time><name>PT9463</name></trkpt>
<trkpt lat="52.947568" lon="-3.155341"><ele>355</ele><time>2019-09-27T13:00:33Z</time><name>PT9464</name></trkpt>
<trkpt lat="52.947580" lon="-3.155350"><ele>355</ele><time>2019-09-27T13:00:34Z</time><name>PT9465</name></trkpt>
<trkpt lat="52.947589" lon="-3.155357"><ele>355</ele><time>2019-09-27T13:00:35Z</time><name>PT9466</name></trkpt>
<trkpt lat="52.947600" lon="-3.155363"><ele>355</ele><time>2019-09-27T13:00:36Z</time><name>PT9467</name></trkpt>
<trkpt lat="52.947611" lon="-3.155370"><ele>355</ele><time>2019-09-27T13:00:37Z</time><name>PT9468</name></trkpt>
<trkpt lat="52.947621" lon="-3.155375"><ele>355</ele><time>2019-09-27T13:00:38Z</time><name>PT9469</name></trkpt>
<trkpt lat="52.947631" lon="-3.155381"><ele>355</ele><time>2019-09-27T13:00:39Z</time><name>PT9470</name></trkpt>
<trkpt lat="52.947642" lon="-3.155387"><ele>355</ele><time>2019-09-27T13:00:40Z</time><name>PT9471</name></trkpt>
<trkpt lat="52.947652" lon="-3.155395"><ele>356</ele><time>2019-09-27T13:00:41Z</time><name>PT9472</name></trkpt>
<trkpt lat="52.947663" lon="-3.155401"><ele>355</ele><time>2019-09-27T13:00:42Z</time><name>PT9473</name></trkpt>
<trkpt lat="52.947675" lon="-3.155410"><ele>355</ele><time>2019-09-27T13:00:43Z</time><name>PT9474</name></trkpt>
<trkpt lat="52.947689" lon="-3.155417"><ele>356</ele><time>2019-09-27T13:00:44Z</time><name>PT9475</name></trkpt>
<trkpt lat="52.947699" lon="-3.155423"><ele>356</ele><time>2019-09-27T13:00:45Z</time><name>PT9476</name></trkpt>
<trkpt lat="52.947711" lon="-3.155429"><ele>356</ele><time>2019-09-27T13:00:46Z</time><name>PT9477</name></trkpt>
<trkpt lat="52.947721" lon="-3.155434"><ele>357</ele><time>2019-09-27T13:00:47Z</time><name>PT9478</name></trkpt>
<trkpt lat="52.947731" lon="-3.155438"><ele>357</ele><time>2019-09-27T13:00:48Z</time><name>PT9479</name></trkpt>
<trkpt lat="52.947746" lon="-3.155444"><ele>357</ele><time>2019-09-27T13:00:49Z</time><name>PT9480</name></trkpt>
<trkpt lat="52.947758" lon="-3.155444"><ele>358</ele><time>2019-09-27T13:00:50Z</time><name>PT9481</name></trkpt>
<trkpt lat="52.947768" lon="-3.155448"><ele>358</ele><time>2019-09-27T13:00:51Z</time><name>PT9482</name></trkpt>
<trkpt lat="52.947780" lon="-3.155452"><ele>358</ele><time>2019-09-27T13:00:52Z</time><name>PT9483</name></trkpt>
<trkpt lat="52.947788" lon="-3.155455"><ele>358</ele><time>2019-09-27T13:00:53Z</time><name>PT9484</name></trkpt>
<trkpt lat="52.947795" lon="-3.155461"><ele>358</ele><time>2019-09-27T13:00:54Z</time><name>PT9485</name></trkpt>
<trkpt lat="52.947807" lon="-3.155468"><ele>358</ele><time>2019-09-27T13:00:55Z</time><name>PT9486</name></trkpt>
<trkpt lat="52.947818" lon="-3.155476"><ele>358</ele><time>2019-09-27T13:00:56Z</time><name>PT9487</name></trkpt>
<trkpt lat="52.947829" lon="-3.155480"><ele>358</ele><time>2019-09-27T13:00:57Z</time><name>PT9488</name></trkpt>
<trkpt lat="52.947840" lon="-3.155486"><ele>358</ele><time>2019-09-27T13:00:57Z</time><name>PT9489</name></trkpt>
<trkpt lat="52.947851" lon="-3.155492"><ele>359</ele><time>2019-09-27T13:00:59Z</time><name>PT9490</name></trkpt>
<trkpt lat="52.947861" lon="-3.155497"><ele>359</ele><time>2019-09-27T13:01:00Z</time><name>PT9491</name></trkpt>
<trkpt lat="52.947872" lon="-3.155504"><ele>359</ele><time>2019-09-27T13:01:01Z</time><name>PT9492</name></trkpt>
<trkpt lat="52.947881" lon="-3.155510"><ele>359</ele><time>2019-09-27T13:01:02Z</time><name>PT9493</name></trkpt>
<trkpt lat="52.947892" lon="-3.155514"><ele>359</ele><time>2019-09-27T13:01:03Z</time><name>PT9494</name></trkpt>
<trkpt lat="52.947903" lon="-3.155521"><ele>359</ele><time>2019-09-27T13:01:04Z</time><name>PT9495</name></trkpt>
<trkpt lat="52.947913" lon="-3.155529"><ele>359</ele><time>2019-09-27T13:01:05Z</time><name>PT9496</name></trkpt>
<trkpt lat="52.947924" lon="-3.155538"><ele>359</ele><time>2019-09-27T13:01:06Z</time><name>PT9497</name></trkpt>
<trkpt lat="52.947932" lon="-3.155547"><ele>359</ele><time>2019-09-27T13:01:07Z</time><name>PT9498</name></trkpt>
<trkpt lat="52.947942" lon="-3.155557"><ele>359</ele><time>2019-09-27T13:01:08Z</time><name>PT9499</name></trkpt>
<trkpt lat="52.947952" lon="-3.155565"><ele>360</ele><time>2019-09-27T13:01:09Z</time><name>PT9500</name></trkpt>
<trkpt lat="52.947963" lon="-3.155572"><ele>360</ele><time>2019-09-27T13:01:09Z</time><name>PT9501</name></trkpt>
<trkpt lat="52.947973" lon="-3.155576"><ele>360</ele><time>2019-09-27T13:01:11Z</time><name>PT9502</name></trkpt>
<trkpt lat="52.947983" lon="-3.155582"><ele>360</ele><time>2019-09-27T13:01:12Z</time><name>PT9503</name></trkpt>
<trkpt lat="52.947991" lon="-3.155591"><ele>359</ele><time>2019-09-27T13:01:13Z</time><name>PT9504</name></trkpt>
<trkpt lat="52.948001" lon="-3.155597"><ele>359</ele><time>2019-09-27T13:01:14Z</time><name>PT9505</name></trkpt>
<trkpt lat="52.948010" lon="-3.155603"><ele>359</ele><time>2019-09-27T13:01:15Z</time><name>PT9506</name></trkpt>
<trkpt lat="52.948021" lon="-3.155609"><ele>360</ele><time>2019-09-27T13:01:16Z</time><name>PT9507</name></trkpt>
<trkpt lat="52.948031" lon="-3.155615"><ele>360</ele><time>2019-09-27T13:01:17Z</time><name>PT9508</name></trkpt>
<trkpt lat="52.948040" lon="-3.155621"><ele>360</ele><time>2019-09-27T13:01:18Z</time><name>PT9509</name></trkpt>
<trkpt lat="52.948052" lon="-3.155623"><ele>359</ele><time>2019-09-27T13:01:18Z</time><name>PT9510</name></trkpt>
<trkpt lat="52.948063" lon="-3.155625"><ele>360</ele><time>2019-09-27T13:01:20Z</time><name>PT9511</name></trkpt>
<trkpt lat="52.948074" lon="-3.155628"><ele>360</ele><time>2019-09-27T13:01:21Z</time><name>PT9512</name></trkpt>
<trkpt lat="52.948086" lon="-3.155635"><ele>360</ele><time>2019-09-27T13:01:22Z</time><name>PT9513</name></trkpt>
<trkpt lat="52.948098" lon="-3.155640"><ele>360</ele><time>2019-09-27T13:01:23Z</time><name>PT9514</name></trkpt>
<trkpt lat="52.948110" lon="-3.155651"><ele>360</ele><time>2019-09-27T13:01:24Z</time><name>PT9515</name></trkpt>
<trkpt lat="52.948118" lon="-3.155660"><ele>360</ele><time>2019-09-27T13:01:25Z</time><name>PT9516</name></trkpt>
<trkpt lat="52.948130" lon="-3.155665"><ele>360</ele><time>2019-09-27T13:01:26Z</time><name>PT9517</name></trkpt>
<trkpt lat="52.948140" lon="-3.155671"><ele>360</ele><time>2019-09-27T13:01:27Z</time><name>PT9518</name></trkpt>
<trkpt lat="52.948153" lon="-3.155679"><ele>360</ele><time>2019-09-27T13:01:28Z</time><name>PT9519</name></trkpt>
<trkpt lat="52.948159" lon="-3.155683"><ele>360</ele><time>2019-09-27T13:01:29Z</time><name>PT9520</name></trkpt>
<trkpt lat="52.948167" lon="-3.155691"><ele>360</ele><time>2019-09-27T13:01:30Z</time><name>PT9521</name></trkpt>
<trkpt lat="52.948173" lon="-3.155694"><ele>360</ele><time>2019-09-27T13:01:31Z</time><name>PT9522</name></trkpt>
<trkpt lat="52.948183" lon="-3.155698"><ele>360</ele><time>2019-09-27T13:01:32Z</time><name>PT9523</name></trkpt>
<trkpt lat="52.948194" lon="-3.155703"><ele>361</ele><time>2019-09-27T13:01:33Z</time><name>PT9524</name></trkpt>
<trkpt lat="52.948199" lon="-3.155708"><ele>360</ele><time>2019-09-27T13:01:34Z</time><name>PT9525</name></trkpt>
<trkpt lat="52.948208" lon="-3.155712"><ele>360</ele><time>2019-09-27T13:01:35Z</time><name>PT9526</name></trkpt>
<trkpt lat="52.948219" lon="-3.155718"><ele>360</ele><time>2019-09-27T13:01:36Z</time><name>PT9527</name></trkpt>
<trkpt lat="52.948230" lon="-3.155724"><ele>361</ele><time>2019-09-27T13:01:36Z</time><name>PT9528</name></trkpt>
<trkpt lat="52.948241" lon="-3.155729"><ele>361</ele><time>2019-09-27T13:01:38Z</time><name>PT9529</name></trkpt>
<trkpt lat="52.948250" lon="-3.155736"><ele>361</ele><time>2019-09-27T13:01:39Z</time><name>PT9530</name></trkpt>
<trkpt lat="52.948259" lon="-3.155741"><ele>361</ele><time>2019-09-27T13:01:39Z</time><name>PT9531</name></trkpt>
<trkpt lat="52.948270" lon="-3.155749"><ele>361</ele><time>2019-09-27T13:01:41Z</time><name>PT9532</name></trkpt>
<trkpt lat="52.948281" lon="-3.155759"><ele>361</ele><time>2019-09-27T13:01:42Z</time><name>PT9533</name></trkpt>
<trkpt lat="52.948292" lon="-3.155766"><ele>361</ele><time>2019-09-27T13:01:42Z</time><name>PT9534</name></trkpt>
<trkpt lat="52.948303" lon="-3.155772"><ele>361</ele><time>2019-09-27T13:01:44Z</time><name>PT9535</name></trkpt>
<trkpt lat="52.948314" lon="-3.155773"><ele>360</ele><time>2019-09-27T13:01:45Z</time><name>PT9536</name></trkpt>
<trkpt lat="52.948325" lon="-3.155779"><ele>360</ele><time>2019-09-27T13:01:45Z</time><name>PT9537</name></trkpt>
<trkpt lat="52.948340" lon="-3.155787"><ele>361</ele><time>2019-09-27T13:01:47Z</time><name>PT9538</name></trkpt>
<trkpt lat="52.948354" lon="-3.155793"><ele>361</ele><time>2019-09-27T13:01:48Z</time><name>PT9539</name></trkpt>
<trkpt lat="52.948368" lon="-3.155798"><ele>362</ele><time>2019-09-27T13:01:49Z</time><name>PT9540</name></trkpt>
<trkpt lat="52.948379" lon="-3.155801"><ele>362</ele><time>2019-09-27T13:01:50Z</time><name>PT9541</name></trkpt>
<trkpt lat="52.948390" lon="-3.155805"><ele>362</ele><time>2019-09-27T13:01:51Z</time><name>PT9542</name></trkpt>
<trkpt lat="52.948398" lon="-3.155811"><ele>362</ele><time>2019-09-27T13:01:51Z</time><name>PT9543</name></trkpt>
<trkpt lat="52.948411" lon="-3.155815"><ele>361</ele><time>2019-09-27T13:01:53Z</time><name>PT9544</name></trkpt>
<trkpt lat="52.948424" lon="-3.155821"><ele>361</ele><time>2019-09-27T13:01:54Z</time><name>PT9545</name></trkpt>
<trkpt lat="52.948435" lon="-3.155824"><ele>361</ele><time>2019-09-27T13:01:55Z</time><name>PT9546</name></trkpt>
<trkpt lat="52.948445" lon="-3.155827"><ele>361</ele><time>2019-09-27T13:01:56Z</time><name>PT9547</name></trkpt>
<trkpt lat="52.948455" lon="-3.155828"><ele>360</ele><time>2019-09-27T13:01:57Z</time><name>PT9548</name></trkpt>
<trkpt lat="52.948468" lon="-3.155833"><ele>361</ele><time>2019-09-27T13:01:57Z</time><name>PT9549</name></trkpt>
<trkpt lat="52.948481" lon="-3.155841"><ele>361</ele><time>2019-09-27T13:01:59Z</time><name>PT9550</name></trkpt>
<trkpt lat="52.948493" lon="-3.155846"><ele>361</ele><time>2019-09-27T13:02:00Z</time><name>PT9551</name></trkpt>
<trkpt lat="52.948503" lon="-3.155850"><ele>361</ele><time>2019-09-27T13:02:00Z</time><name>PT9552</name></trkpt>
<trkpt lat="52.948516" lon="-3.155853"><ele>361</ele><time>2019-09-27T13:02:02Z</time><name>PT9553</name></trkpt>
<trkpt lat="52.948530" lon="-3.155855"><ele>361</ele><time>2019-09-27T13:02:03Z</time><name>PT9554</name></trkpt>
<trkpt lat="52.948541" lon="-3.155856"><ele>361</ele><time>2019-09-27T13:02:04Z</time><name>PT9555</name></trkpt>
<trkpt lat="52.948553" lon="-3.155859"><ele>361</ele><time>2019-09-27T13:02:05Z</time><name>PT9556</name></trkpt>
<trkpt lat="52.948564" lon="-3.155862"><ele>361</ele><time>2019-09-27T13:02:06Z</time><name>PT9557</name></trkpt>
<trkpt lat="52.948574" lon="-3.155865"><ele>362</ele><time>2019-09-27T13:02:07Z</time><name>PT9558</name></trkpt>
<trkpt lat="52.948584" lon="-3.155866"><ele>362</ele><time>2019-09-27T13:02:08Z</time><name>PT9559</name></trkpt>
<trkpt lat="52.948596" lon="-3.155865"><ele>362</ele><time>2019-09-27T13:02:09Z</time><name>PT9560</name></trkpt>
<trkpt lat="52.948607" lon="-3.155862"><ele>362</ele><time>2019-09-27T13:02:10Z</time><name>PT9561</name></trkpt>
<trkpt lat="52.948620" lon="-3.155857"><ele>362</ele><time>2019-09-27T13:02:11Z</time><name>PT9562</name></trkpt>
<trkpt lat="52.948631" lon="-3.155858"><ele>362</ele><time>2019-09-27T13:02:12Z</time><name>PT9563</name></trkpt>
<trkpt lat="52.948646" lon="-3.155861"><ele>362</ele><time>2019-09-27T13:02:13Z</time><name>PT9564</name></trkpt>
<trkpt lat="52.948660" lon="-3.155867"><ele>362</ele><time>2019-09-27T13:02:14Z</time><name>PT9565</name></trkpt>
<trkpt lat="52.948672" lon="-3.155870"><ele>362</ele><time>2019-09-27T13:02:15Z</time><name>PT9566</name></trkpt>
<trkpt lat="52.948684" lon="-3.155871"><ele>362</ele><time>2019-09-27T13:02:16Z</time><name>PT9567</name></trkpt>
<trkpt lat="52.948695" lon="-3.155869"><ele>362</ele><time>2019-09-27T13:02:17Z</time><name>PT9568</name></trkpt>
<trkpt lat="52.948708" lon="-3.155866"><ele>362</ele><time>2019-09-27T13:02:18Z</time><name>PT9569</name></trkpt>
<trkpt lat="52.948720" lon="-3.155863"><ele>362</ele><time>2019-09-27T13:02:19Z</time><name>PT9570</name></trkpt>
<trkpt lat="52.948734" lon="-3.155865"><ele>362</ele><time>2019-09-27T13:02:20Z</time><name>PT9571</name></trkpt>
<trkpt lat="52.948748" lon="-3.155865"><ele>362</ele><time>2019-09-27T13:02:21Z</time><name>PT9572</name></trkpt>
<trkpt lat="52.948762" lon="-3.155867"><ele>362</ele><time>2019-09-27T13:02:22Z</time><name>PT9573</name></trkpt>
<trkpt lat="52.948774" lon="-3.155870"><ele>363</ele><time>2019-09-27T13:02:23Z</time><name>PT9574</name></trkpt>
<trkpt lat="52.948786" lon="-3.155870"><ele>363</ele><time>2019-09-27T13:02:24Z</time><name>PT9575</name></trkpt>
<trkpt lat="52.948797" lon="-3.155869"><ele>363</ele><time>2019-09-27T13:02:25Z</time><name>PT9576</name></trkpt>
<trkpt lat="52.948810" lon="-3.155868"><ele>363</ele><time>2019-09-27T13:02:26Z</time><name>PT9577</name></trkpt>
<trkpt lat="52.948821" lon="-3.155869"><ele>363</ele><time>2019-09-27T13:02:27Z</time><name>PT9578</name></trkpt>
<trkpt lat="52.948834" lon="-3.155869"><ele>363</ele><time>2019-09-27T13:02:28Z</time><name>PT9579</name></trkpt>
<trkpt lat="52.948845" lon="-3.155869"><ele>362</ele><time>2019-09-27T13:02:29Z</time><name>PT9580</name></trkpt>
<trkpt lat="52.948854" lon="-3.155868"><ele>362</ele><time>2019-09-27T13:02:30Z</time><name>PT9581</name></trkpt>
<trkpt lat="52.948865" lon="-3.155867"><ele>363</ele><time>2019-09-27T13:02:31Z</time><name>PT9582</name></trkpt>
<trkpt lat="52.948879" lon="-3.155864"><ele>363</ele><time>2019-09-27T13:02:32Z</time><name>PT9583</name></trkpt>
<trkpt lat="52.948893" lon="-3.155861"><ele>363</ele><time>2019-09-27T13:02:33Z</time><name>PT9584</name></trkpt>
<trkpt lat="52.948907" lon="-3.155861"><ele>363</ele><time>2019-09-27T13:02:34Z</time><name>PT9585</name></trkpt>
<trkpt lat="52.948918" lon="-3.155861"><ele>363</ele><time>2019-09-27T13:02:35Z</time><name>PT9586</name></trkpt>
<trkpt lat="52.948928" lon="-3.155861"><ele>362</ele><time>2019-09-27T13:02:36Z</time><name>PT9587</name></trkpt>
<trkpt lat="52.948940" lon="-3.155861"><ele>363</ele><time>2019-09-27T13:02:37Z</time><name>PT9588</name></trkpt>
<trkpt lat="52.948951" lon="-3.155859"><ele>362</ele><time>2019-09-27T13:02:38Z</time><name>PT9589</name></trkpt>
<trkpt lat="52.948965" lon="-3.155858"><ele>362</ele><time>2019-09-27T13:02:39Z</time><name>PT9590</name></trkpt>
<trkpt lat="52.948978" lon="-3.155858"><ele>362</ele><time>2019-09-27T13:02:39Z</time><name>PT9591</name></trkpt>
<trkpt lat="52.948991" lon="-3.155859"><ele>362</ele><time>2019-09-27T13:02:41Z</time><name>PT9592</name></trkpt>
<trkpt lat="52.949006" lon="-3.155857"><ele>362</ele><time>2019-09-27T13:02:42Z</time><name>PT9593</name></trkpt>
<trkpt lat="52.949017" lon="-3.155854"><ele>363</ele><time>2019-09-27T13:02:43Z</time><name>PT9594</name></trkpt>
<trkpt lat="52.949031" lon="-3.155852"><ele>363</ele><time>2019-09-27T13:02:44Z</time><name>PT9595</name></trkpt>
<trkpt lat="52.949043" lon="-3.155850"><ele>363</ele><time>2019-09-27T13:02:45Z</time><name>PT9596</name></trkpt>
<trkpt lat="52.949056" lon="-3.155849"><ele>362</ele><time>2019-09-27T13:02:46Z</time><name>PT9597</name></trkpt>
<trkpt lat="52.949067" lon="-3.155848"><ele>362</ele><time>2019-09-27T13:02:47Z</time><name>PT9598</name></trkpt>
<trkpt lat="52.949077" lon="-3.155847"><ele>362</ele><time>2019-09-27T13:02:48Z</time><name>PT9599</name></trkpt>
<trkpt lat="52.949085" lon="-3.155846"><ele>361</ele><time>2019-09-27T13:02:49Z</time><name>PT9600</name></trkpt>
<trkpt lat="52.949095" lon="-3.155843"><ele>361</ele><time>2019-09-27T13:02:50Z</time><name>PT9601</name></trkpt>
<trkpt lat="52.949108" lon="-3.155840"><ele>361</ele><time>2019-09-27T13:02:51Z</time><name>PT9602</name></trkpt>
<trkpt lat="52.949122" lon="-3.155840"><ele>360</ele><time>2019-09-27T13:02:52Z</time><name>PT9603</name></trkpt>
<trkpt lat="52.949135" lon="-3.155840"><ele>360</ele><time>2019-09-27T13:02:53Z</time><name>PT9604</name></trkpt>
<trkpt lat="52.949146" lon="-3.155839"><ele>360</ele><time>2019-09-27T13:02:54Z</time><name>PT9605</name></trkpt>
<trkpt lat="52.949156" lon="-3.155836"><ele>360</ele><time>2019-09-27T13:02:55Z</time><name>PT9606</name></trkpt>
<trkpt lat="52.949167" lon="-3.155832"><ele>360</ele><time>2019-09-27T13:02:56Z</time><name>PT9607</name></trkpt>
<trkpt lat="52.949177" lon="-3.155829"><ele>359</ele><time>2019-09-27T13:02:57Z</time><name>PT9608</name></trkpt>
<trkpt lat="52.949189" lon="-3.155826"><ele>359</ele><time>2019-09-27T13:02:57Z</time><name>PT9609</name></trkpt>
<trkpt lat="52.949204" lon="-3.155827"><ele>359</ele><time>2019-09-27T13:02:59Z</time><name>PT9610</name></trkpt>
<trkpt lat="52.949217" lon="-3.155828"><ele>359</ele><time>2019-09-27T13:03:00Z</time><name>PT9611</name></trkpt>
<trkpt lat="52.949230" lon="-3.155828"><ele>359</ele><time>2019-09-27T13:03:01Z</time><name>PT9612</name></trkpt>
<trkpt lat="52.949244" lon="-3.155826"><ele>359</ele><time>2019-09-27T13:03:02Z</time><name>PT9613</name></trkpt>
<trkpt lat="52.949257" lon="-3.155823"><ele>359</ele><time>2019-09-27T13:03:03Z</time><name>PT9614</name></trkpt>
<trkpt lat="52.949269" lon="-3.155819"><ele>359</ele><time>2019-09-27T13:03:04Z</time><name>PT9615</name></trkpt>
<trkpt lat="52.949280" lon="-3.155819"><ele>359</ele><time>2019-09-27T13:03:05Z</time><name>PT9616</name></trkpt>
<trkpt lat="52.949294" lon="-3.155822"><ele>359</ele><time>2019-09-27T13:03:06Z</time><name>PT9617</name></trkpt>
<trkpt lat="52.949310" lon="-3.155819"><ele>360</ele><time>2019-09-27T13:03:07Z</time><name>PT9618</name></trkpt>
<trkpt lat="52.949325" lon="-3.155816"><ele>360</ele><time>2019-09-27T13:03:08Z</time><name>PT9619</name></trkpt>
<trkpt lat="52.949339" lon="-3.155810"><ele>360</ele><time>2019-09-27T13:03:09Z</time><name>PT9620</name></trkpt>
<trkpt lat="52.949354" lon="-3.155803"><ele>361</ele><time>2019-09-27T13:03:09Z</time><name>PT9621</name></trkpt>
<trkpt lat="52.949367" lon="-3.155793"><ele>360</ele><time>2019-09-27T13:03:11Z</time><name>PT9622</name></trkpt>
<trkpt lat="52.949380" lon="-3.155786"><ele>361</ele><time>2019-09-27T13:03:12Z</time><name>PT9623</name></trkpt>
<trkpt lat="52.949393" lon="-3.155779"><ele>361</ele><time>2019-09-27T13:03:13Z</time><name>PT9624</name></trkpt>
<trkpt lat="52.949403" lon="-3.155768"><ele>361</ele><time>2019-09-27T13:03:14Z</time><name>PT9625</name></trkpt>
<trkpt lat="52.949411" lon="-3.155759"><ele>361</ele><time>2019-09-27T13:03:15Z</time><name>PT9626</name></trkpt>
<trkpt lat="52.949421" lon="-3.155747"><ele>362</ele><time>2019-09-27T13:03:16Z</time><name>PT9627</name></trkpt>
<trkpt lat="52.949435" lon="-3.155736"><ele>362</ele><time>2019-09-27T13:03:17Z</time><name>PT9628</name></trkpt>
<trkpt lat="52.949443" lon="-3.155725"><ele>363</ele><time>2019-09-27T13:03:18Z</time><name>PT9629</name></trkpt>
<trkpt lat="52.949455" lon="-3.155715"><ele>364</ele><time>2019-09-27T13:03:18Z</time><name>PT9630</name></trkpt>
<trkpt lat="52.949464" lon="-3.155700"><ele>364</ele><time>2019-09-27T13:03:20Z</time><name>PT9631</name></trkpt>
<trkpt lat="52.949473" lon="-3.155684"><ele>364</ele><time>2019-09-27T13:03:21Z</time><name>PT9632</name></trkpt>
<trkpt lat="52.949480" lon="-3.155667"><ele>364</ele><time>2019-09-27T13:03:21Z</time><name>PT9633</name></trkpt>
<trkpt lat="52.949487" lon="-3.155656"><ele>364</ele><time>2019-09-27T13:03:23Z</time><name>PT9634</name></trkpt>
<trkpt lat="52.949496" lon="-3.155642"><ele>365</ele><time>2019-09-27T13:03:24Z</time><name>PT9635</name></trkpt>
<trkpt lat="52.949504" lon="-3.155631"><ele>364</ele><time>2019-09-27T13:03:24Z</time><name>PT9636</name></trkpt>
<trkpt lat="52.949513" lon="-3.155622"><ele>364</ele><time>2019-09-27T13:03:26Z</time><name>PT9637</name></trkpt>
<trkpt lat="52.949522" lon="-3.155615"><ele>364</ele><time>2019-09-27T13:03:27Z</time><name>PT9638</name></trkpt>
<trkpt lat="52.949530" lon="-3.155605"><ele>364</ele><time>2019-09-27T13:03:27Z</time><name>PT9639</name></trkpt>
<trkpt lat="52.949538" lon="-3.155596"><ele>364</ele><time>2019-09-27T13:03:29Z</time><name>PT9640</name></trkpt>
<trkpt lat="52.949544" lon="-3.155584"><ele>364</ele><time>2019-09-27T13:03:30Z</time><name>PT9641</name></trkpt>
<trkpt lat="52.949551" lon="-3.155571"><ele>364</ele><time>2019-09-27T13:03:30Z</time><name>PT9642</name></trkpt>
<trkpt lat="52.949559" lon="-3.155554"><ele>364</ele><time>2019-09-27T13:03:32Z</time><name>PT9643</name></trkpt>
<trkpt lat="52.949565" lon="-3.155540"><ele>364</ele><time>2019-09-27T13:03:33Z</time><name>PT9644</name></trkpt>
<trkpt lat="52.949565" lon="-3.155525"><ele>363</ele><time>2019-09-27T13:03:34Z</time><name>PT9645</name></trkpt>
<trkpt lat="52.949571" lon="-3.155510"><ele>364</ele><time>2019-09-27T13:03:35Z</time><name>PT9646</name></trkpt>
<trkpt lat="52.949577" lon="-3.155496"><ele>364</ele><time>2019-09-27T13:03:36Z</time><name>PT9647</name></trkpt>
<trkpt lat="52.949581" lon="-3.155481"><ele>363</ele><time>2019-09-27T13:03:37Z</time><name>PT9648</name></trkpt>
<trkpt lat="52.949586" lon="-3.155464"><ele>362</ele><time>2019-09-27T13:03:38Z</time><name>PT9649</name></trkpt>
<trkpt lat="52.949595" lon="-3.155445"><ele>362</ele><time>2019-09-27T13:03:39Z</time><name>PT9650</name></trkpt>
<trkpt lat="52.949601" lon="-3.155431"><ele>362</ele><time>2019-09-27T13:03:39Z</time><name>PT9651</name></trkpt>
<trkpt lat="52.949608" lon="-3.155416"><ele>361</ele><time>2019-09-27T13:03:41Z</time><name>PT9652</name></trkpt>
<trkpt lat="52.949618" lon="-3.155407"><ele>361</ele><time>2019-09-27T13:03:42Z</time><name>PT9653</name></trkpt>
<trkpt lat="52.949627" lon="-3.155388"><ele>361</ele><time>2019-09-27T13:03:43Z</time><name>PT9654</name></trkpt>
<trkpt lat="52.949635" lon="-3.155378"><ele>360</ele><time>2019-09-27T13:03:44Z</time><name>PT9655</name></trkpt>
<trkpt lat="52.949639" lon="-3.155368"><ele>360</ele><time>2019-09-27T13:03:45Z</time><name>PT9656</name></trkpt>
<trkpt lat="52.949642" lon="-3.155351"><ele>360</ele><time>2019-09-27T13:03:46Z</time><name>PT9657</name></trkpt>
<trkpt lat="52.949646" lon="-3.155338"><ele>360</ele><time>2019-09-27T13:03:47Z</time><name>PT9658</name></trkpt>
<trkpt lat="52.949651" lon="-3.155324"><ele>360</ele><time>2019-09-27T13:03:48Z</time><name>PT9659</name></trkpt>
<trkpt lat="52.949659" lon="-3.155307"><ele>360</ele><time>2019-09-27T13:03:49Z</time><name>PT9660</name></trkpt>
<trkpt lat="52.949663" lon="-3.155285"><ele>360</ele><time>2019-09-27T13:03:50Z</time><name>PT9661</name></trkpt>
<trkpt lat="52.949669" lon="-3.155263"><ele>360</ele><time>2019-09-27T13:03:51Z</time><name>PT9662</name></trkpt>
<trkpt lat="52.949676" lon="-3.155241"><ele>360</ele><time>2019-09-27T13:03:51Z</time><name>PT9663</name></trkpt>
<trkpt lat="52.949682" lon="-3.155219"><ele>361</ele><time>2019-09-27T13:03:53Z</time><name>PT9664</name></trkpt>
<trkpt lat="52.949686" lon="-3.155202"><ele>361</ele><time>2019-09-27T13:03:54Z</time><name>PT9665</name></trkpt>
<trkpt lat="52.949688" lon="-3.155187"><ele>361</ele><time>2019-09-27T13:03:55Z</time><name>PT9666</name></trkpt>
<trkpt lat="52.949692" lon="-3.155164"><ele>360</ele><time>2019-09-27T13:03:56Z</time><name>PT9667</name></trkpt>
<trkpt lat="52.949697" lon="-3.155147"><ele>360</ele><time>2019-09-27T13:03:57Z</time><name>PT9668</name></trkpt>
<trkpt lat="52.949699" lon="-3.155131"><ele>360</ele><time>2019-09-27T13:03:57Z</time><name>PT9669</name></trkpt>
<trkpt lat="52.949703" lon="-3.155111"><ele>360</ele><time>2019-09-27T13:03:59Z</time><name>PT9670</name></trkpt>
<trkpt lat="52.949709" lon="-3.155093"><ele>359</ele><time>2019-09-27T13:04:00Z</time><name>PT9671</name></trkpt>
<trkpt lat="52.949722" lon="-3.155070"><ele>359</ele><time>2019-09-27T13:04:00Z</time><name>PT9672</name></trkpt>
<trkpt lat="52.949731" lon="-3.155052"><ele>359</ele><time>2019-09-27T13:04:02Z</time><name>PT9673</name></trkpt>
<trkpt lat="52.949737" lon="-3.155037"><ele>359</ele><time>2019-09-27T13:04:03Z</time><name>PT9674</name></trkpt>
<trkpt lat="52.949745" lon="-3.155024"><ele>358</ele><time>2019-09-27T13:04:04Z</time><name>PT9675</name></trkpt>
<trkpt lat="52.949750" lon="-3.154999"><ele>359</ele><time>2019-09-27T13:04:05Z</time><name>PT9676</name></trkpt>
<trkpt lat="52.949756" lon="-3.154976"><ele>359</ele><time>2019-09-27T13:04:06Z</time><name>PT9677</name></trkpt>
<trkpt lat="52.949760" lon="-3.154949"><ele>359</ele><time>2019-09-27T13:04:07Z</time><name>PT9678</name></trkpt>
<trkpt lat="52.949765" lon="-3.154923"><ele>360</ele><time>2019-09-27T13:04:08Z</time><name>PT9679</name></trkpt>
<trkpt lat="52.949770" lon="-3.154895"><ele>360</ele><time>2019-09-27T13:04:09Z</time><name>PT9680</name></trkpt>
<trkpt lat="52.949776" lon="-3.154867"><ele>361</ele><time>2019-09-27T13:04:10Z</time><name>PT9681</name></trkpt>
<trkpt lat="52.949785" lon="-3.154847"><ele>361</ele><time>2019-09-27T13:04:11Z</time><name>PT9682</name></trkpt>
<trkpt lat="52.949792" lon="-3.154824"><ele>361</ele><time>2019-09-27T13:04:12Z</time><name>PT9683</name></trkpt>
<trkpt lat="52.949796" lon="-3.154800"><ele>361</ele><time>2019-09-27T13:04:13Z</time><name>PT9684</name></trkpt>
<trkpt lat="52.949801" lon="-3.154785"><ele>360</ele><time>2019-09-27T13:04:14Z</time><name>PT9685</name></trkpt>
<trkpt lat="52.949804" lon="-3.154761"><ele>360</ele><time>2019-09-27T13:04:15Z</time><name>PT9686</name></trkpt>
<trkpt lat="52.949807" lon="-3.154730"><ele>361</ele><time>2019-09-27T13:04:16Z</time><name>PT9687</name></trkpt>
<trkpt lat="52.949812" lon="-3.154704"><ele>361</ele><time>2019-09-27T13:04:17Z</time><name>PT9688</name></trkpt>
<trkpt lat="52.949817" lon="-3.154680"><ele>361</ele><time>2019-09-27T13:04:18Z</time><name>PT9689</name></trkpt>
<trkpt lat="52.949821" lon="-3.154660"><ele>361</ele><time>2019-09-27T13:04:19Z</time><name>PT9690</name></trkpt>
<trkpt lat="52.949825" lon="-3.154645"><ele>361</ele><time>2019-09-27T13:04:20Z</time><name>PT9691</name></trkpt>
<trkpt lat="52.949829" lon="-3.154628"><ele>361</ele><time>2019-09-27T13:04:21Z</time><name>PT9692</name></trkpt>
<trkpt lat="52.949833" lon="-3.154610"><ele>362</ele><time>2019-09-27T13:04:22Z</time><name>PT9693</name></trkpt>
<trkpt lat="52.949837" lon="-3.154588"><ele>362</ele><time>2019-09-27T13:04:23Z</time><name>PT9694</name></trkpt>
<trkpt lat="52.949841" lon="-3.154569"><ele>362</ele><time>2019-09-27T13:04:24Z</time><name>PT9695</name></trkpt>
<trkpt lat="52.949846" lon="-3.154548"><ele>362</ele><time>2019-09-27T13:04:25Z</time><name>PT9696</name></trkpt>
<trkpt lat="52.949851" lon="-3.154530"><ele>362</ele><time>2019-09-27T13:04:26Z</time><name>PT9697</name></trkpt>
<trkpt lat="52.949856" lon="-3.154511"><ele>362</ele><time>2019-09-27T13:04:27Z</time><name>PT9698</name></trkpt>
<trkpt lat="52.949859" lon="-3.154486"><ele>362</ele><time>2019-09-27T13:04:28Z</time><name>PT9699</name></trkpt>
<trkpt lat="52.949863" lon="-3.154469"><ele>362</ele><time>2019-09-27T13:04:29Z</time><name>PT9700</name></trkpt>
<trkpt lat="52.949865" lon="-3.154446"><ele>362</ele><time>2019-09-27T13:04:30Z</time><name>PT9701</name></trkpt>
<trkpt lat="52.949868" lon="-3.154421"><ele>362</ele><time>2019-09-27T13:04:31Z</time><name>PT9702</name></trkpt>
<trkpt lat="52.949871" lon="-3.154403"><ele>362</ele><time>2019-09-27T13:04:32Z</time><name>PT9703</name></trkpt>
<trkpt lat="52.949875" lon="-3.154376"><ele>362</ele><time>2019-09-27T13:04:33Z</time><name>PT9704</name></trkpt>
<trkpt lat="52.949880" lon="-3.154349"><ele>362</ele><time>2019-09-27T13:04:34Z</time><name>PT9705</name></trkpt>
<trkpt lat="52.949884" lon="-3.154330"><ele>363</ele><time>2019-09-27T13:04:35Z</time><name>PT9706</name></trkpt>
<trkpt lat="52.949885" lon="-3.154300"><ele>363</ele><time>2019-09-27T13:04:36Z</time><name>PT9707</name></trkpt>
<trkpt lat="52.949887" lon="-3.154272"><ele>363</ele><time>2019-09-27T13:04:37Z</time><name>PT9708</name></trkpt>
<trkpt lat="52.949889" lon="-3.154245"><ele>363</ele><time>2019-09-27T13:04:38Z</time><name>PT9709</name></trkpt>
<trkpt lat="52.949890" lon="-3.154219"><ele>363</ele><time>2019-09-27T13:04:39Z</time><name>PT9710</name></trkpt>
<trkpt lat="52.949892" lon="-3.154198"><ele>363</ele><time>2019-09-27T13:04:40Z</time><name>PT9711</name></trkpt>
<trkpt lat="52.949897" lon="-3.154176"><ele>364</ele><time>2019-09-27T13:04:41Z</time><name>PT9712</name></trkpt>
<trkpt lat="52.949901" lon="-3.154149"><ele>364</ele><time>2019-09-27T13:04:42Z</time><name>PT9713</name></trkpt>
<trkpt lat="52.949905" lon="-3.154127"><ele>364</ele><time>2019-09-27T13:04:43Z</time><name>PT9714</name></trkpt>
<trkpt lat="52.949908" lon="-3.154106"><ele>364</ele><time>2019-09-27T13:04:44Z</time><name>PT9715</name></trkpt>
<trkpt lat="52.949911" lon="-3.154083"><ele>364</ele><time>2019-09-27T13:04:45Z</time><name>PT9716</name></trkpt>
<trkpt lat="52.949913" lon="-3.154067"><ele>364</ele><time>2019-09-27T13:04:46Z</time><name>PT9717</name></trkpt>
<trkpt lat="52.949915" lon="-3.154049"><ele>364</ele><time>2019-09-27T13:04:47Z</time><name>PT9718</name></trkpt>
<trkpt lat="52.949918" lon="-3.154026"><ele>365</ele><time>2019-09-27T13:04:48Z</time><name>PT9719</name></trkpt>
<trkpt lat="52.949921" lon="-3.153999"><ele>365</ele><time>2019-09-27T13:04:49Z</time><name>PT9720</name></trkpt>
<trkpt lat="52.949923" lon="-3.153975"><ele>365</ele><time>2019-09-27T13:04:50Z</time><name>PT9721</name></trkpt>
<trkpt lat="52.949928" lon="-3.153950"><ele>365</ele><time>2019-09-27T13:04:51Z</time><name>PT9722</name></trkpt>
<trkpt lat="52.949931" lon="-3.153924"><ele>366</ele><time>2019-09-27T13:04:52Z</time><name>PT9723</name></trkpt>
<trkpt lat="52.949934" lon="-3.153906"><ele>366</ele><time>2019-09-27T13:04:53Z</time><name>PT9724</name></trkpt>
<trkpt lat="52.949938" lon="-3.153888"><ele>365</ele><time>2019-09-27T13:04:54Z</time><name>PT9725</name></trkpt>
<trkpt lat="52.949941" lon="-3.153867"><ele>366</ele><time>2019-09-27T13:04:55Z</time><name>PT9726</name></trkpt>
<trkpt lat="52.949943" lon="-3.153847"><ele>366</ele><time>2019-09-27T13:04:56Z</time><name>PT9727</name></trkpt>
<trkpt lat="52.949945" lon="-3.153826"><ele>366</ele><time>2019-09-27T13:04:57Z</time><name>PT9728</name></trkpt>
<trkpt lat="52.949947" lon="-3.153811"><ele>366</ele><time>2019-09-27T13:04:58Z</time><name>PT9729</name></trkpt>
<trkpt lat="52.949954" lon="-3.153814"><ele>366</ele><time>2019-09-27T13:04:59Z</time><name>PT9730</name></trkpt>
<trkpt lat="52.949958" lon="-3.153800"><ele>366</ele><time>2019-09-27T13:05:00Z</time><name>PT9731</name></trkpt>
<trkpt lat="52.949960" lon="-3.153781"><ele>366</ele><time>2019-09-27T13:05:01Z</time><name>PT9732</name></trkpt>
<trkpt lat="52.949960" lon="-3.153761"><ele>366</ele><time>2019-09-27T13:05:02Z</time><name>PT9733</name></trkpt>
<trkpt lat="52.949962" lon="-3.153743"><ele>366</ele><time>2019-09-27T13:05:03Z</time><name>PT9734</name></trkpt>
<trkpt lat="52.949964" lon="-3.153734"><ele>366</ele><time>2019-09-27T13:05:04Z</time><name>PT9735</name></trkpt>
<trkpt lat="52.949968" lon="-3.153717"><ele>367</ele><time>2019-09-27T13:05:05Z</time><name>PT9736</name></trkpt>
<trkpt lat="52.949972" lon="-3.153698"><ele>367</ele><time>2019-09-27T13:05:06Z</time><name>PT9737</name></trkpt>
<trkpt lat="52.949976" lon="-3.153678"><ele>368</ele><time>2019-09-27T13:05:07Z</time><name>PT9738</name></trkpt>
<trkpt lat="52.949978" lon="-3.153652"><ele>368</ele><time>2019-09-27T13:05:08Z</time><name>PT9739</name></trkpt>
<trkpt lat="52.949977" lon="-3.153632"><ele>367</ele><time>2019-09-27T13:05:09Z</time><name>PT9740</name></trkpt>
<trkpt lat="52.949979" lon="-3.153609"><ele>368</ele><time>2019-09-27T13:05:10Z</time><name>PT9741</name></trkpt>
<trkpt lat="52.949981" lon="-3.153590"><ele>368</ele><time>2019-09-27T13:05:11Z</time><name>PT9742</name></trkpt>
<trkpt lat="52.949986" lon="-3.153566"><ele>368</ele><time>2019-09-27T13:05:12Z</time><name>PT9743</name></trkpt>
<trkpt lat="52.949986" lon="-3.153551"><ele>368</ele><time>2019-09-27T13:05:13Z</time><name>PT9744</name></trkpt>
<trkpt lat="52.949987" lon="-3.153535"><ele>368</ele><time>2019-09-27T13:05:14Z</time><name>PT9745</name></trkpt>
<trkpt lat="52.949985" lon="-3.153513"><ele>368</ele><time>2019-09-27T13:05:15Z</time><name>PT9746</name></trkpt>
<trkpt lat="52.949987" lon="-3.153488"><ele>368</ele><time>2019-09-27T13:05:15Z</time><name>PT9747</name></trkpt>
<trkpt lat="52.949986" lon="-3.153460"><ele>368</ele><time>2019-09-27T13:05:17Z</time><name>PT9748</name></trkpt>
<trkpt lat="52.949988" lon="-3.153443"><ele>368</ele><time>2019-09-27T13:05:18Z</time><name>PT9749</name></trkpt>
<trkpt lat="52.949990" lon="-3.153426"><ele>368</ele><time>2019-09-27T13:05:19Z</time><name>PT9750</name></trkpt>
<trkpt lat="52.949993" lon="-3.153407"><ele>368</ele><time>2019-09-27T13:05:20Z</time><name>PT9751</name></trkpt>
<trkpt lat="52.949994" lon="-3.153387"><ele>368</ele><time>2019-09-27T13:05:21Z</time><name>PT9752</name></trkpt>
<trkpt lat="52.949997" lon="-3.153368"><ele>368</ele><time>2019-09-27T13:05:22Z</time><name>PT9753</name></trkpt>
<trkpt lat="52.950000" lon="-3.153358"><ele>368</ele><time>2019-09-27T13:05:23Z</time><name>PT9754</name></trkpt>
<trkpt lat="52.950002" lon="-3.153338"><ele>369</ele><time>2019-09-27T13:05:24Z</time><name>PT9755</name></trkpt>
<trkpt lat="52.950004" lon="-3.153325"><ele>369</ele><time>2019-09-27T13:05:24Z</time><name>PT9756</name></trkpt>
<trkpt lat="52.950007" lon="-3.153307"><ele>369</ele><time>2019-09-27T13:05:26Z</time><name>PT9757</name></trkpt>
<trkpt lat="52.950005" lon="-3.153283"><ele>368</ele><time>2019-09-27T13:05:27Z</time><name>PT9758</name></trkpt>
<trkpt lat="52.950004" lon="-3.153262"><ele>368</ele><time>2019-09-27T13:05:28Z</time><name>PT9759</name></trkpt>
<trkpt lat="52.950008" lon="-3.153237"><ele>368</ele><time>2019-09-27T13:05:29Z</time><name>PT9760</name></trkpt>
<trkpt lat="52.950009" lon="-3.153218"><ele>368</ele><time>2019-09-27T13:05:30Z</time><name>PT9761</name></trkpt>
<trkpt lat="52.950011" lon="-3.153195"><ele>368</ele><time>2019-09-27T13:05:31Z</time><name>PT9762</name></trkpt>
<trkpt lat="52.950008" lon="-3.153172"><ele>368</ele><time>2019-09-27T13:05:32Z</time><name>PT9763</name></trkpt>
<trkpt lat="52.950012" lon="-3.153157"><ele>368</ele><time>2019-09-27T13:05:33Z</time><name>PT9764</name></trkpt>
<trkpt lat="52.950015" lon="-3.153144"><ele>368</ele><time>2019-09-27T13:05:34Z</time><name>PT9765</name></trkpt>
<trkpt lat="52.950022" lon="-3.153123"><ele>368</ele><time>2019-09-27T13:05:35Z</time><name>PT9766</name></trkpt>
<trkpt lat="52.950022" lon="-3.153106"><ele>368</ele><time>2019-09-27T13:05:36Z</time><name>PT9767</name></trkpt>
<trkpt lat="52.950022" lon="-3.153088"><ele>368</ele><time>2019-09-27T13:05:37Z</time><name>PT9768</name></trkpt>
<trkpt lat="52.950022" lon="-3.153065"><ele>368</ele><time>2019-09-27T13:05:38Z</time><name>PT9769</name></trkpt>
<trkpt lat="52.950023" lon="-3.153049"><ele>368</ele><time>2019-09-27T13:05:39Z</time><name>PT9770</name></trkpt>
<trkpt lat="52.950025" lon="-3.153026"><ele>368</ele><time>2019-09-27T13:05:40Z</time><name>PT9771</name></trkpt>
<trkpt lat="52.950023" lon="-3.153007"><ele>367</ele><time>2019-09-27T13:05:41Z</time><name>PT9772</name></trkpt>
<trkpt lat="52.950025" lon="-3.152990"><ele>368</ele><time>2019-09-27T13:05:42Z</time><name>PT9773</name></trkpt>
<trkpt lat="52.950025" lon="-3.152970"><ele>367</ele><time>2019-09-27T13:05:43Z</time><name>PT9774</name></trkpt>
<trkpt lat="52.950029" lon="-3.152952"><ele>367</ele><time>2019-09-27T13:05:44Z</time><name>PT9775</name></trkpt>
<trkpt lat="52.950029" lon="-3.152923"><ele>367</ele><time>2019-09-27T13:05:45Z</time><name>PT9776</name></trkpt>
<trkpt lat="52.950032" lon="-3.152902"><ele>367</ele><time>2019-09-27T13:05:46Z</time><name>PT9777</name></trkpt>
<trkpt lat="52.950032" lon="-3.152883"><ele>367</ele><time>2019-09-27T13:05:47Z</time><name>PT9778</name></trkpt>
<trkpt lat="52.950033" lon="-3.152865"><ele>366</ele><time>2019-09-27T13:05:48Z</time><name>PT9779</name></trkpt>
<trkpt lat="52.950036" lon="-3.152845"><ele>367</ele><time>2019-09-27T13:05:49Z</time><name>PT9780</name></trkpt>
<trkpt lat="52.950036" lon="-3.152825"><ele>366</ele><time>2019-09-27T13:05:50Z</time><name>PT9781</name></trkpt>
<trkpt lat="52.950038" lon="-3.152808"><ele>366</ele><time>2019-09-27T13:05:51Z</time><name>PT9782</name></trkpt>
<trkpt lat="52.950041" lon="-3.152784"><ele>367</ele><time>2019-09-27T13:05:52Z</time><name>PT9783</name></trkpt>
<trkpt lat="52.950042" lon="-3.152767"><ele>367</ele><time>2019-09-27T13:05:53Z</time><name>PT9784</name></trkpt>
<trkpt lat="52.950041" lon="-3.152744"><ele>366</ele><time>2019-09-27T13:05:54Z</time><name>PT9785</name></trkpt>
<trkpt lat="52.950043" lon="-3.152720"><ele>367</ele><time>2019-09-27T13:05:54Z</time><name>PT9786</name></trkpt>
<trkpt lat="52.950045" lon="-3.152697"><ele>367</ele><time>2019-09-27T13:05:56Z</time><name>PT9787</name></trkpt>
<trkpt lat="52.950045" lon="-3.152677"><ele>367</ele><time>2019-09-27T13:05:57Z</time><name>PT9788</name></trkpt>
<trkpt lat="52.950049" lon="-3.152661"><ele>367</ele><time>2019-09-27T13:05:58Z</time><name>PT9789</name></trkpt>
<trkpt lat="52.950053" lon="-3.152646"><ele>367</ele><time>2019-09-27T13:05:59Z</time><name>PT9790</name></trkpt>
<trkpt lat="52.950056" lon="-3.152626"><ele>367</ele><time>2019-09-27T13:06:00Z</time><name>PT9791</name></trkpt>
<trkpt lat="52.950054" lon="-3.152606"><ele>366</ele><time>2019-09-27T13:06:00Z</time><name>PT9792</name></trkpt>
<trkpt lat="52.950056" lon="-3.152587"><ele>366</ele><time>2019-09-27T13:06:02Z</time><name>PT9793</name></trkpt>
<trkpt lat="52.950056" lon="-3.152561"><ele>366</ele><time>2019-09-27T13:06:03Z</time><name>PT9794</name></trkpt>
<trkpt lat="52.950056" lon="-3.152545"><ele>366</ele><time>2019-09-27T13:06:03Z</time><name>PT9795</name></trkpt>
<trkpt lat="52.950057" lon="-3.152528"><ele>366</ele><time>2019-09-27T13:06:05Z</time><name>PT9796</name></trkpt>
<trkpt lat="52.950060" lon="-3.152515"><ele>365</ele><time>2019-09-27T13:06:06Z</time><name>PT9797</name></trkpt>
<trkpt lat="52.950062" lon="-3.152501"><ele>365</ele><time>2019-09-27T13:06:07Z</time><name>PT9798</name></trkpt>
<trkpt lat="52.950068" lon="-3.152488"><ele>366</ele><time>2019-09-27T13:06:08Z</time><name>PT9799</name></trkpt>
<trkpt lat="52.950070" lon="-3.152475"><ele>365</ele><time>2019-09-27T13:06:09Z</time><name>PT9800</name></trkpt>
<trkpt lat="52.950071" lon="-3.152465"><ele>365</ele><time>2019-09-27T13:06:09Z</time><name>PT9801</name></trkpt>
<trkpt lat="52.950076" lon="-3.152456"><ele>366</ele><time>2019-09-27T13:06:11Z</time><name>PT9802</name></trkpt>
<trkpt lat="52.950081" lon="-3.152449"><ele>366</ele><time>2019-09-27T13:06:12Z</time><name>PT9803</name></trkpt>
<trkpt lat="52.950090" lon="-3.152432"><ele>367</ele><time>2019-09-27T13:06:13Z</time><name>PT9804</name></trkpt>
<trkpt lat="52.950095" lon="-3.152422"><ele>367</ele><time>2019-09-27T13:06:14Z</time><name>PT9805</name></trkpt>
<trkpt lat="52.950099" lon="-3.152418"><ele>367</ele><time>2019-09-27T13:06:15Z</time><name>PT9806</name></trkpt>
<trkpt lat="52.950100" lon="-3.152413"><ele>367</ele><time>2019-09-27T13:06:16Z</time><name>PT9807</name></trkpt>
<trkpt lat="52.950102" lon="-3.152409"><ele>367</ele><time>2019-09-27T13:06:17Z</time><name>PT9808</name></trkpt>
<trkpt lat="52.950103" lon="-3.152392"><ele>368</ele><time>2019-09-27T13:06:27Z</time><name>PT9809</name></trkpt>
<trkpt lat="52.950102" lon="-3.152388"><ele>368</ele><time>2019-09-27T13:06:29Z</time><name>PT9810</name></trkpt>
<trkpt lat="52.950102" lon="-3.152383"><ele>368</ele><time>2019-09-27T13:06:30Z</time><name>PT9811</name></trkpt>
<trkpt lat="52.950105" lon="-3.152374"><ele>368</ele><time>2019-09-27T13:06:31Z</time><name>PT9812</name></trkpt>
<trkpt lat="52.950109" lon="-3.152365"><ele>368</ele><time>2019-09-27T13:06:32Z</time><name>PT9813</name></trkpt>
<trkpt lat="52.950111" lon="-3.152364"><ele>367</ele><time>2019-09-27T13:06:37Z</time><name>PT9814</name></trkpt>
<trkpt lat="52.950110" lon="-3.152365"><ele>367</ele><time>2019-09-27T13:06:38Z</time><name>PT9815</name></trkpt>
<trkpt lat="52.950112" lon="-3.152361"><ele>367</ele><time>2019-09-27T13:06:39Z</time><name>PT9816</name></trkpt>
<trkpt lat="52.950113" lon="-3.152359"><ele>367</ele><time>2019-09-27T13:06:40Z</time><name>PT9817</name></trkpt>
<trkpt lat="52.950112" lon="-3.152355"><ele>367</ele><time>2019-09-27T13:07:05Z</time><name>PT9818</name></trkpt>
<trkpt lat="52.950113" lon="-3.152351"><ele>368</ele><time>2019-09-27T13:07:06Z</time><name>PT9819</name></trkpt>
<trkpt lat="52.950112" lon="-3.152347"><ele>368</ele><time>2019-09-27T13:07:20Z</time><name>PT9820</name></trkpt>
<trkpt lat="52.950111" lon="-3.152347"><ele>367</ele><time>2019-09-27T13:07:21Z</time><name>PT9821</name></trkpt>
<trkpt lat="52.950111" lon="-3.152349"><ele>368</ele><time>2019-09-27T13:07:22Z</time><name>PT9822</name></trkpt>
<trkpt lat="52.950108" lon="-3.152348"><ele>368</ele><time>2019-09-27T13:07:42Z</time><name>PT9823</name></trkpt>
<trkpt lat="52.950108" lon="-3.152351"><ele>368</ele><time>2019-09-27T13:07:43Z</time><name>PT9824</name></trkpt>
<trkpt lat="52.950110" lon="-3.152350"><ele>368</ele><time>2019-09-27T13:07:44Z</time><name>PT9825</name></trkpt>
<trkpt lat="52.950113" lon="-3.152347"><ele>368</ele><time>2019-09-27T13:07:45Z</time><name>PT9826</name></trkpt>
<trkpt lat="52.950111" lon="-3.152350"><ele>368</ele><time>2019-09-27T13:07:46Z</time><name>PT9827</name></trkpt>
<trkpt lat="52.950112" lon="-3.152348"><ele>368</ele><time>2019-09-27T13:07:47Z</time><name>PT9828</name></trkpt>
<trkpt lat="52.950110" lon="-3.152347"><ele>368</ele><time>2019-09-27T13:07:48Z</time><name>PT9829</name></trkpt>
<trkpt lat="52.950108" lon="-3.152350"><ele>369</ele><time>2019-09-27T13:07:49Z</time><name>PT9830</name></trkpt>
<trkpt lat="52.950105" lon="-3.152354"><ele>368</ele><time>2019-09-27T13:07:50Z</time><name>PT9831</name></trkpt>
<trkpt lat="52.950104" lon="-3.152347"><ele>369</ele><time>2019-09-27T13:08:07Z</time><name>PT9832</name></trkpt>
<trkpt lat="52.950110" lon="-3.152333"><ele>370</ele><time>2019-09-27T13:08:08Z</time><name>PT9833</name></trkpt>
<trkpt lat="52.950121" lon="-3.152320"><ele>370</ele><time>2019-09-27T13:08:09Z</time><name>PT9834</name></trkpt>
<trkpt lat="52.950128" lon="-3.152316"><ele>371</ele><time>2019-09-27T13:08:10Z</time><name>PT9835</name></trkpt>
<trkpt lat="52.950138" lon="-3.152311"><ele>371</ele><time>2019-09-27T13:08:11Z</time><name>PT9836</name></trkpt>
<trkpt lat="52.950137" lon="-3.152307"><ele>371</ele><time>2019-09-27T13:08:12Z</time><name>PT9837</name></trkpt>
<trkpt lat="52.950142" lon="-3.152298"><ele>370</ele><time>2019-09-27T13:08:13Z</time><name>PT9838</name></trkpt>
<trkpt lat="52.950139" lon="-3.152283"><ele>371</ele><time>2019-09-27T13:08:14Z</time><name>PT9839</name></trkpt>
<trkpt lat="52.950142" lon="-3.152276"><ele>371</ele><time>2019-09-27T13:08:15Z</time><name>PT9840</name></trkpt>
<trkpt lat="52.950145" lon="-3.152265"><ele>371</ele><time>2019-09-27T13:08:16Z</time><name>PT9841</name></trkpt>
<trkpt lat="52.950149" lon="-3.152256"><ele>371</ele><time>2019-09-27T13:08:17Z</time><name>PT9842</name></trkpt>
<trkpt lat="52.950154" lon="-3.152248"><ele>371</ele><time>2019-09-27T13:08:18Z</time><name>PT9843</name></trkpt>
<trkpt lat="52.950159" lon="-3.152243"><ele>371</ele><time>2019-09-27T13:08:19Z</time><name>PT9844</name></trkpt>
<trkpt lat="52.950166" lon="-3.152248"><ele>371</ele><time>2019-09-27T13:08:20Z</time><name>PT9845</name></trkpt>
<trkpt lat="52.950172" lon="-3.152248"><ele>371</ele><time>2019-09-27T13:08:21Z</time><name>PT9846</name></trkpt>
<trkpt lat="52.950179" lon="-3.152249"><ele>371</ele><time>2019-09-27T13:08:22Z</time><name>PT9847</name></trkpt>
<trkpt lat="52.950184" lon="-3.152249"><ele>371</ele><time>2019-09-27T13:08:23Z</time><name>PT9848</name></trkpt>
<trkpt lat="52.950190" lon="-3.152250"><ele>371</ele><time>2019-09-27T13:08:24Z</time><name>PT9849</name></trkpt>
<trkpt lat="52.950196" lon="-3.152253"><ele>371</ele><time>2019-09-27T13:08:25Z</time><name>PT9850</name></trkpt>
<trkpt lat="52.950204" lon="-3.152253"><ele>370</ele><time>2019-09-27T13:08:26Z</time><name>PT9851</name></trkpt>
<trkpt lat="52.950211" lon="-3.152251"><ele>370</ele><time>2019-09-27T13:08:27Z</time><name>PT9852</name></trkpt>
<trkpt lat="52.950220" lon="-3.152251"><ele>371</ele><time>2019-09-27T13:08:27Z</time><name>PT9853</name></trkpt>
<trkpt lat="52.950226" lon="-3.152249"><ele>370</ele><time>2019-09-27T13:08:29Z</time><name>PT9854</name></trkpt>
<trkpt lat="52.950232" lon="-3.152250"><ele>370</ele><time>2019-09-27T13:08:30Z</time><name>PT9855</name></trkpt>
<trkpt lat="52.950241" lon="-3.152244"><ele>370</ele><time>2019-09-27T13:08:30Z</time><name>PT9856</name></trkpt>
<trkpt lat="52.950248" lon="-3.152243"><ele>370</ele><time>2019-09-27T13:08:32Z</time><name>PT9857</name></trkpt>
<trkpt lat="52.950254" lon="-3.152242"><ele>370</ele><time>2019-09-27T13:08:33Z</time><name>PT9858</name></trkpt>
<trkpt lat="52.950260" lon="-3.152239"><ele>369</ele><time>2019-09-27T13:08:33Z</time><name>PT9859</name></trkpt>
<trkpt lat="52.950263" lon="-3.152240"><ele>369</ele><time>2019-09-27T13:08:35Z</time><name>PT9860</name></trkpt>
<trkpt lat="52.950264" lon="-3.152239"><ele>369</ele><time>2019-09-27T13:08:36Z</time><name>PT9861</name></trkpt>
<trkpt lat="52.950263" lon="-3.152236"><ele>369</ele><time>2019-09-27T13:08:37Z</time><name>PT9862</name></trkpt>
<trkpt lat="52.950263" lon="-3.152234"><ele>369</ele><time>2019-09-27T13:08:38Z</time><name>PT9863</name></trkpt>
<trkpt lat="52.950265" lon="-3.152235"><ele>369</ele><time>2019-09-27T13:08:39Z</time><name>PT9864</name></trkpt>
<trkpt lat="52.950267" lon="-3.152229"><ele>369</ele><time>2019-09-27T13:08:41Z</time><name>PT9865</name></trkpt>
<trkpt lat="52.950278" lon="-3.152238"><ele>370</ele><time>2019-09-27T13:08:42Z</time><name>PT9866</name></trkpt>
<trkpt lat="52.950273" lon="-3.152233"><ele>369</ele><time>2019-09-27T13:08:44Z</time><name>PT9867</name></trkpt>
<trkpt lat="52.950274" lon="-3.152229"><ele>369</ele><time>2019-09-27T13:08:45Z</time><name>PT9868</name></trkpt>
<trkpt lat="52.950278" lon="-3.152222"><ele>369</ele><time>2019-09-27T13:08:46Z</time><name>PT9869</name></trkpt>
<trkpt lat="52.950282" lon="-3.152219"><ele>369</ele><time>2019-09-27T13:08:47Z</time><name>PT9870</name></trkpt>
<trkpt lat="52.950282" lon="-3.152222"><ele>369</ele><time>2019-09-27T13:08:48Z</time><name>PT9871</name></trkpt>
<trkpt lat="52.950284" lon="-3.152222"><ele>369</ele><time>2019-09-27T13:08:48Z</time><name>PT9872</name></trkpt>
<trkpt lat="52.950287" lon="-3.152222"><ele>369</ele><time>2019-09-27T13:08:50Z</time><name>PT9873</name></trkpt>
<trkpt lat="52.950292" lon="-3.152218"><ele>369</ele><time>2019-09-27T13:08:51Z</time><name>PT9874</name></trkpt>
<trkpt lat="52.950303" lon="-3.152203"><ele>369</ele><time>2019-09-27T13:08:51Z</time><name>PT9875</name></trkpt>
<trkpt lat="52.950312" lon="-3.152199"><ele>369</ele><time>2019-09-27T13:08:53Z</time><name>PT9876</name></trkpt>
<trkpt lat="52.950320" lon="-3.152194"><ele>369</ele><time>2019-09-27T13:08:54Z</time><name>PT9877</name></trkpt>
<trkpt lat="52.950328" lon="-3.152187"><ele>369</ele><time>2019-09-27T13:08:54Z</time><name>PT9878</name></trkpt>
<trkpt lat="52.950335" lon="-3.152181"><ele>369</ele><time>2019-09-27T13:08:56Z</time><name>PT9879</name></trkpt>
<trkpt lat="52.950342" lon="-3.152173"><ele>368</ele><time>2019-09-27T13:08:57Z</time><name>PT9880</name></trkpt>
<trkpt lat="52.950351" lon="-3.152169"><ele>368</ele><time>2019-09-27T13:08:57Z</time><name>PT9881</name></trkpt>
<trkpt lat="52.950357" lon="-3.152165"><ele>368</ele><time>2019-09-27T13:08:59Z</time><name>PT9882</name></trkpt>
<trkpt lat="52.950366" lon="-3.152155"><ele>367</ele><time>2019-09-27T13:09:00Z</time><name>PT9883</name></trkpt>
<trkpt lat="52.950373" lon="-3.152146"><ele>367</ele><time>2019-09-27T13:09:01Z</time><name>PT9884</name></trkpt>
<trkpt lat="52.950380" lon="-3.152141"><ele>366</ele><time>2019-09-27T13:09:02Z</time><name>PT9885</name></trkpt>
<trkpt lat="52.950386" lon="-3.152136"><ele>365</ele><time>2019-09-27T13:09:03Z</time><name>PT9886</name></trkpt>
<trkpt lat="52.950395" lon="-3.152130"><ele>365</ele><time>2019-09-27T13:09:03Z</time><name>PT9887</name></trkpt>
<trkpt lat="52.950405" lon="-3.152118"><ele>366</ele><time>2019-09-27T13:09:05Z</time><name>PT9888</name></trkpt>
<trkpt lat="52.950411" lon="-3.152110"><ele>366</ele><time>2019-09-27T13:09:06Z</time><name>PT9889</name></trkpt>
<trkpt lat="52.950420" lon="-3.152099"><ele>366</ele><time>2019-09-27T13:09:07Z</time><name>PT9890</name></trkpt>
<trkpt lat="52.950428" lon="-3.152090"><ele>366</ele><time>2019-09-27T13:09:08Z</time><name>PT9891</name></trkpt>
<trkpt lat="52.950437" lon="-3.152083"><ele>366</ele><time>2019-09-27T13:09:09Z</time><name>PT9892</name></trkpt>
<trkpt lat="52.950441" lon="-3.152074"><ele>365</ele><time>2019-09-27T13:09:10Z</time><name>PT9893</name></trkpt>
<trkpt lat="52.950447" lon="-3.152064"><ele>365</ele><time>2019-09-27T13:09:11Z</time><name>PT9894</name></trkpt>
<trkpt lat="52.950454" lon="-3.152056"><ele>365</ele><time>2019-09-27T13:09:12Z</time><name>PT9895</name></trkpt>
<trkpt lat="52.950461" lon="-3.152051"><ele>365</ele><time>2019-09-27T13:09:13Z</time><name>PT9896</name></trkpt>
<trkpt lat="52.950472" lon="-3.152045"><ele>365</ele><time>2019-09-27T13:09:14Z</time><name>PT9897</name></trkpt>
<trkpt lat="52.950481" lon="-3.152039"><ele>366</ele><time>2019-09-27T13:09:15Z</time><name>PT9898</name></trkpt>
<trkpt lat="52.950487" lon="-3.152031"><ele>366</ele><time>2019-09-27T13:09:16Z</time><name>PT9899</name></trkpt>
<trkpt lat="52.950492" lon="-3.152023"><ele>366</ele><time>2019-09-27T13:09:17Z</time><name>PT9900</name></trkpt>
<trkpt lat="52.950501" lon="-3.152014"><ele>366</ele><time>2019-09-27T13:09:18Z</time><name>PT9901</name></trkpt>
<trkpt lat="52.950511" lon="-3.152007"><ele>367</ele><time>2019-09-27T13:09:19Z</time><name>PT9902</name></trkpt>
<trkpt lat="52.950519" lon="-3.152000"><ele>366</ele><time>2019-09-27T13:09:20Z</time><name>PT9903</name></trkpt>
<trkpt lat="52.950525" lon="-3.151996"><ele>366</ele><time>2019-09-27T13:09:21Z</time><name>PT9904</name></trkpt>
<trkpt lat="52.950533" lon="-3.151988"><ele>366</ele><time>2019-09-27T13:09:22Z</time><name>PT9905</name></trkpt>
<trkpt lat="52.950541" lon="-3.151981"><ele>366</ele><time>2019-09-27T13:09:23Z</time><name>PT9906</name></trkpt>
<trkpt lat="52.950548" lon="-3.151973"><ele>366</ele><time>2019-09-27T13:09:24Z</time><name>PT9907</name></trkpt>
<trkpt lat="52.950552" lon="-3.151966"><ele>366</ele><time>2019-09-27T13:09:25Z</time><name>PT9908</name></trkpt>
<trkpt lat="52.950559" lon="-3.151960"><ele>366</ele><time>2019-09-27T13:09:26Z</time><name>PT9909</name></trkpt>
<trkpt lat="52.950560" lon="-3.151952"><ele>364</ele><time>2019-09-27T13:09:27Z</time><name>PT9910</name></trkpt>
<trkpt lat="52.950566" lon="-3.151945"><ele>364</ele><time>2019-09-27T13:09:28Z</time><name>PT9911</name></trkpt>
<trkpt lat="52.950568" lon="-3.151939"><ele>363</ele><time>2019-09-27T13:09:29Z</time><name>PT9912</name></trkpt>
<trkpt lat="52.950579" lon="-3.151929"><ele>363</ele><time>2019-09-27T13:09:30Z</time><name>PT9913</name></trkpt>
<trkpt lat="52.950588" lon="-3.151923"><ele>363</ele><time>2019-09-27T13:09:31Z</time><name>PT9914</name></trkpt>
<trkpt lat="52.950600" lon="-3.151911"><ele>364</ele><time>2019-09-27T13:09:32Z</time><name>PT9915</name></trkpt>
<trkpt lat="52.950611" lon="-3.151901"><ele>364</ele><time>2019-09-27T13:09:33Z</time><name>PT9916</name></trkpt>
<trkpt lat="52.950622" lon="-3.151897"><ele>364</ele><time>2019-09-27T13:09:34Z</time><name>PT9917</name></trkpt>
<trkpt lat="52.950630" lon="-3.151894"><ele>364</ele><time>2019-09-27T13:09:35Z</time><name>PT9918</name></trkpt>
<trkpt lat="52.950642" lon="-3.151878"><ele>365</ele><time>2019-09-27T13:09:36Z</time><name>PT9919</name></trkpt>
<trkpt lat="52.950656" lon="-3.151872"><ele>365</ele><time>2019-09-27T13:09:36Z</time><name>PT9920</name></trkpt>
<trkpt lat="52.950669" lon="-3.151866"><ele>366</ele><time>2019-09-27T13:09:38Z</time><name>PT9921</name></trkpt>
<trkpt lat="52.950679" lon="-3.151858"><ele>366</ele><time>2019-09-27T13:09:39Z</time><name>PT9922</name></trkpt>
<trkpt lat="52.950687" lon="-3.151850"><ele>366</ele><time>2019-09-27T13:09:40Z</time><name>PT9923</name></trkpt>
<trkpt lat="52.950695" lon="-3.151843"><ele>366</ele><time>2019-09-27T13:09:41Z</time><name>PT9924</name></trkpt>
<trkpt lat="52.950704" lon="-3.151840"><ele>366</ele><time>2019-09-27T13:09:42Z</time><name>PT9925</name></trkpt>
<trkpt lat="52.950711" lon="-3.151832"><ele>366</ele><time>2019-09-27T13:09:43Z</time><name>PT9926</name></trkpt>
<trkpt lat="52.950724" lon="-3.151827"><ele>366</ele><time>2019-09-27T13:09:44Z</time><name>PT9927</name></trkpt>
<trkpt lat="52.950740" lon="-3.151822"><ele>366</ele><time>2019-09-27T13:09:45Z</time><name>PT9928</name></trkpt>
<trkpt lat="52.950749" lon="-3.151814"><ele>366</ele><time>2019-09-27T13:09:46Z</time><name>PT9929</name></trkpt>
<trkpt lat="52.950755" lon="-3.151804"><ele>366</ele><time>2019-09-27T13:09:47Z</time><name>PT9930</name></trkpt>
<trkpt lat="52.950762" lon="-3.151797"><ele>366</ele><time>2019-09-27T13:09:48Z</time><name>PT9931</name></trkpt>
<trkpt lat="52.950767" lon="-3.151791"><ele>366</ele><time>2019-09-27T13:09:49Z</time><name>PT9932</name></trkpt>
<trkpt lat="52.950771" lon="-3.151785"><ele>365</ele><time>2019-09-27T13:09:50Z</time><name>PT9933</name></trkpt>
<trkpt lat="52.950777" lon="-3.151783"><ele>366</ele><time>2019-09-27T13:09:51Z</time><name>PT9934</name></trkpt>
<trkpt lat="52.950779" lon="-3.151781"><ele>366</ele><time>2019-09-27T13:09:51Z</time><name>PT9935</name></trkpt>
<trkpt lat="52.950779" lon="-3.151785"><ele>366</ele><time>2019-09-27T13:09:57Z</time><name>PT9936</name></trkpt>
<trkpt lat="52.950781" lon="-3.151788"><ele>366</ele><time>2019-09-27T13:09:58Z</time><name>PT9937</name></trkpt>
<trkpt lat="52.950784" lon="-3.151788"><ele>366</ele><time>2019-09-27T13:09:59Z</time><name>PT9938</name></trkpt>
<trkpt lat="52.950788" lon="-3.151783"><ele>366</ele><time>2019-09-27T13:10:03Z</time><name>PT9939</name></trkpt>
<trkpt lat="52.950797" lon="-3.151770"><ele>366</ele><time>2019-09-27T13:10:04Z</time><name>PT9940</name></trkpt>
<trkpt lat="52.950807" lon="-3.151748"><ele>366</ele><time>2019-09-27T13:10:05Z</time><name>PT9941</name></trkpt>
<trkpt lat="52.950818" lon="-3.151735"><ele>366</ele><time>2019-09-27T13:10:06Z</time><name>PT9942</name></trkpt>
<trkpt lat="52.950828" lon="-3.151722"><ele>366</ele><time>2019-09-27T13:10:07Z</time><name>PT9943</name></trkpt>
<trkpt lat="52.950835" lon="-3.151709"><ele>366</ele><time>2019-09-27T13:10:08Z</time><name>PT9944</name></trkpt>
<trkpt lat="52.950843" lon="-3.151699"><ele>365</ele><time>2019-09-27T13:10:09Z</time><name>PT9945</name></trkpt>
<trkpt lat="52.950851" lon="-3.151691"><ele>365</ele><time>2019-09-27T13:10:10Z</time><name>PT9946</name></trkpt>
<trkpt lat="52.950856" lon="-3.151677"><ele>364</ele><time>2019-09-27T13:10:11Z</time><name>PT9947</name></trkpt>
<trkpt lat="52.950859" lon="-3.151667"><ele>364</ele><time>2019-09-27T13:10:12Z</time><name>PT9948</name></trkpt>
<trkpt lat="52.950864" lon="-3.151656"><ele>363</ele><time>2019-09-27T13:10:13Z</time><name>PT9949</name></trkpt>
<trkpt lat="52.950868" lon="-3.151647"><ele>363</ele><time>2019-09-27T13:10:14Z</time><name>PT9950</name></trkpt>
<trkpt lat="52.950872" lon="-3.151632"><ele>363</ele><time>2019-09-27T13:10:15Z</time><name>PT9951</name></trkpt>
<trkpt lat="52.950874" lon="-3.151622"><ele>362</ele><time>2019-09-27T13:10:16Z</time><name>PT9952</name></trkpt>
<trkpt lat="52.950878" lon="-3.151610"><ele>362</ele><time>2019-09-27T13:10:17Z</time><name>PT9953</name></trkpt>
<trkpt lat="52.950887" lon="-3.151601"><ele>362</ele><time>2019-09-27T13:10:18Z</time><name>PT9954</name></trkpt>
<trkpt lat="52.950894" lon="-3.151592"><ele>362</ele><time>2019-09-27T13:10:19Z</time><name>PT9955</name></trkpt>
<trkpt lat="52.950901" lon="-3.151583"><ele>362</ele><time>2019-09-27T13:10:20Z</time><name>PT9956</name></trkpt>
<trkpt lat="52.950909" lon="-3.151575"><ele>362</ele><time>2019-09-27T13:10:21Z</time><name>PT9957</name></trkpt>
<trkpt lat="52.950913" lon="-3.151570"><ele>361</ele><time>2019-09-27T13:10:22Z</time><name>PT9958</name></trkpt>
<trkpt lat="52.950913" lon="-3.151564"><ele>361</ele><time>2019-09-27T13:10:23Z</time><name>PT9959</name></trkpt>
<trkpt lat="52.950921" lon="-3.151551"><ele>361</ele><time>2019-09-27T13:10:24Z</time><name>PT9960</name></trkpt>
<trkpt lat="52.950923" lon="-3.151541"><ele>360</ele><time>2019-09-27T13:10:25Z</time><name>PT9961</name></trkpt>
<trkpt lat="52.950928" lon="-3.151531"><ele>360</ele><time>2019-09-27T13:10:26Z</time><name>PT9962</name></trkpt>
<trkpt lat="52.950932" lon="-3.151521"><ele>359</ele><time>2019-09-27T13:10:27Z</time><name>PT9963</name></trkpt>
<trkpt lat="52.950940" lon="-3.151516"><ele>360</ele><time>2019-09-27T13:10:28Z</time><name>PT9964</name></trkpt>
<trkpt lat="52.950944" lon="-3.151509"><ele>359</ele><time>2019-09-27T13:10:29Z</time><name>PT9965</name></trkpt>
<trkpt lat="52.950954" lon="-3.151501"><ele>359</ele><time>2019-09-27T13:10:30Z</time><name>PT9966</name></trkpt>
<trkpt lat="52.950960" lon="-3.151491"><ele>359</ele><time>2019-09-27T13:10:31Z</time><name>PT9967</name></trkpt>
<trkpt lat="52.950964" lon="-3.151479"><ele>359</ele><time>2019-09-27T13:10:32Z</time><name>PT9968</name></trkpt>
<trkpt lat="52.950968" lon="-3.151466"><ele>358</ele><time>2019-09-27T13:10:33Z</time><name>PT9969</name></trkpt>
<trkpt lat="52.950969" lon="-3.151457"><ele>358</ele><time>2019-09-27T13:10:34Z</time><name>PT9970</name></trkpt>
<trkpt lat="52.950974" lon="-3.151446"><ele>357</ele><time>2019-09-27T13:10:35Z</time><name>PT9971</name></trkpt>
<trkpt lat="52.950978" lon="-3.151437"><ele>357</ele><time>2019-09-27T13:10:36Z</time><name>PT9972</name></trkpt>
<trkpt lat="52.950985" lon="-3.151425"><ele>357</ele><time>2019-09-27T13:10:36Z</time><name>PT9973</name></trkpt>
<trkpt lat="52.950989" lon="-3.151411"><ele>356</ele><time>2019-09-27T13:10:38Z</time><name>PT9974</name></trkpt>
<trkpt lat="52.951000" lon="-3.151399"><ele>356</ele><time>2019-09-27T13:10:39Z</time><name>PT9975</name></trkpt>
<trkpt lat="52.951008" lon="-3.151387"><ele>356</ele><time>2019-09-27T13:10:40Z</time><name>PT9976</name></trkpt>
<trkpt lat="52.951017" lon="-3.151376"><ele>357</ele><time>2019-09-27T13:10:41Z</time><name>PT9977</name></trkpt>
<trkpt lat="52.951021" lon="-3.151364"><ele>356</ele><time>2019-09-27T13:10:42Z</time><name>PT9978</name></trkpt>
<trkpt lat="52.951030" lon="-3.151351"><ele>357</ele><time>2019-09-27T13:10:43Z</time><name>PT9979</name></trkpt>
<trkpt lat="52.951035" lon="-3.151339"><ele>357</ele><time>2019-09-27T13:10:44Z</time><name>PT9980</name></trkpt>
<trkpt lat="52.951042" lon="-3.151325"><ele>357</ele><time>2019-09-27T13:10:45Z</time><name>PT9981</name></trkpt>
<trkpt lat="52.951050" lon="-3.151313"><ele>357</ele><time>2019-09-27T13:10:46Z</time><name>PT9982</name></trkpt>
<trkpt lat="52.951056" lon="-3.151300"><ele>357</ele><time>2019-09-27T13:10:47Z</time><name>PT9983</name></trkpt>
<trkpt lat="52.951061" lon="-3.151286"><ele>356</ele><time>2019-09-27T13:10:48Z</time><name>PT9984</name></trkpt>
<trkpt lat="52.951068" lon="-3.151276"><ele>356</ele><time>2019-09-27T13:10:49Z</time><name>PT9985</name></trkpt>
<trkpt lat="52.951073" lon="-3.151264"><ele>356</ele><time>2019-09-27T13:10:50Z</time><name>PT9986</name></trkpt>
<trkpt lat="52.951081" lon="-3.151252"><ele>356</ele><time>2019-09-27T13:10:51Z</time><name>PT9987</name></trkpt>
<trkpt lat="52.951085" lon="-3.151240"><ele>355</ele><time>2019-09-27T13:10:52Z</time><name>PT9988</name></trkpt>
<trkpt lat="52.951093" lon="-3.151227"><ele>355</ele><time>2019-09-27T13:10:53Z</time><name>PT9989</name></trkpt>
<trkpt lat="52.951103" lon="-3.151214"><ele>356</ele><time>2019-09-27T13:10:54Z</time><name>PT9990</name></trkpt>
<trkpt lat="52.951111" lon="-3.151203"><ele>356</ele><time>2019-09-27T13:10:55Z</time><name>PT9991</name></trkpt>
<trkpt lat="52.951121" lon="-3.151196"><ele>356</ele><time>2019-09-27T13:10:56Z</time><name>PT9992</name></trkpt>
<trkpt lat="52.951128" lon="-3.151189"><ele>356</ele><time>2019-09-27T13:10:57Z</time><name>PT9993</name></trkpt>
<trkpt lat="52.951134" lon="-3.151179"><ele>355</ele><time>2019-09-27T13:10:58Z</time><name>PT9994</name></trkpt>
<trkpt lat="52.951138" lon="-3.151166"><ele>354</ele><time>2019-09-27T13:10:59Z</time><name>PT9995</name></trkpt>
<trkpt lat="52.951147" lon="-3.151156"><ele>354</ele><time>2019-09-27T13:11:00Z</time><name>PT9996</name></trkpt>
<trkpt lat="52.951161" lon="-3.151144"><ele>355</ele><time>2019-09-27T13:11:01Z</time><name>PT9997</name></trkpt>
<trkpt lat="52.951167" lon="-3.151134"><ele>354</ele><time>2019-09-27T13:11:02Z</time><name>PT9998</name></trkpt>
<trkpt lat="52.951174" lon="-3.151121"><ele>355</ele><time>2019-09-27T13:11:03Z</time><name>PT9999</name></trkpt>
<trkpt lat="52.951183" lon="-3.151114"><ele>355</ele><time>2019-09-27T13:11:04Z</time><name>PT10000</name></trkpt>
<trkpt lat="52.951201" lon="-3.151105"><ele>355</ele><time>2019-09-27T13:11:05Z</time><name>PT10001</name></trkpt>
<trkpt lat="52.951208" lon="-3.151092"><ele>355</ele><time>2019-09-27T13:11:06Z</time><name>PT10002</name></trkpt>
<trkpt lat="52.951220" lon="-3.151079"><ele>356</ele><time>2019-09-27T13:11:07Z</time><name>PT10003</name></trkpt>
<trkpt lat="52.951234" lon="-3.151070"><ele>357</ele><time>2019-09-27T13:11:08Z</time><name>PT10004</name></trkpt>
<trkpt lat="52.951244" lon="-3.151061"><ele>357</ele><time>2019-09-27T13:11:09Z</time><name>PT10005</name></trkpt>
<trkpt lat="52.951264" lon="-3.151049"><ele>358</ele><time>2019-09-27T13:11:09Z</time><name>PT10006</name></trkpt>
<trkpt lat="52.951273" lon="-3.151037"><ele>358</ele><time>2019-09-27T13:11:11Z</time><name>PT10007</name></trkpt>
<trkpt lat="52.951281" lon="-3.151023"><ele>358</ele><time>2019-09-27T13:11:12Z</time><name>PT10008</name></trkpt>
<trkpt lat="52.951290" lon="-3.151010"><ele>358</ele><time>2019-09-27T13:11:13Z</time><name>PT10009</name></trkpt>
<trkpt lat="52.951299" lon="-3.150998"><ele>358</ele><time>2019-09-27T13:11:14Z</time><name>PT10010</name></trkpt>
<trkpt lat="52.951306" lon="-3.150985"><ele>358</ele><time>2019-09-27T13:11:15Z</time><name>PT10011</name></trkpt>
<trkpt lat="52.951314" lon="-3.150972"><ele>358</ele><time>2019-09-27T13:11:15Z</time><name>PT10012</name></trkpt>
<trkpt lat="52.951322" lon="-3.150959"><ele>358</ele><time>2019-09-27T13:11:17Z</time><name>PT10013</name></trkpt>
<trkpt lat="52.951330" lon="-3.150948"><ele>358</ele><time>2019-09-27T13:11:18Z</time><name>PT10014</name></trkpt>
<trkpt lat="52.951346" lon="-3.150933"><ele>359</ele><time>2019-09-27T13:11:18Z</time><name>PT10015</name></trkpt>
<trkpt lat="52.951359" lon="-3.150924"><ele>359</ele><time>2019-09-27T13:11:20Z</time><name>PT10016</name></trkpt>
<trkpt lat="52.951375" lon="-3.150916"><ele>359</ele><time>2019-09-27T13:11:21Z</time><name>PT10017</name></trkpt>
<trkpt lat="52.951381" lon="-3.150907"><ele>358</ele><time>2019-09-27T13:11:22Z</time><name>PT10018</name></trkpt>
<trkpt lat="52.951389" lon="-3.150897"><ele>359</ele><time>2019-09-27T13:11:23Z</time><name>PT10019</name></trkpt>
<trkpt lat="52.951394" lon="-3.150888"><ele>359</ele><time>2019-09-27T13:11:24Z</time><name>PT10020</name></trkpt>
<trkpt lat="52.951402" lon="-3.150872"><ele>359</ele><time>2019-09-27T13:11:25Z</time><name>PT10021</name></trkpt>
<trkpt lat="52.951407" lon="-3.150859"><ele>359</ele><time>2019-09-27T13:11:26Z</time><name>PT10022</name></trkpt>
<trkpt lat="52.951410" lon="-3.150845"><ele>359</ele><time>2019-09-27T13:11:27Z</time><name>PT10023</name></trkpt>
<trkpt lat="52.951412" lon="-3.150837"><ele>359</ele><time>2019-09-27T13:11:28Z</time><name>PT10024</name></trkpt>
<trkpt lat="52.951417" lon="-3.150827"><ele>359</ele><time>2019-09-27T13:11:29Z</time><name>PT10025</name></trkpt>
<trkpt lat="52.951425" lon="-3.150817"><ele>359</ele><time>2019-09-27T13:11:30Z</time><name>PT10026</name></trkpt>
<trkpt lat="52.951432" lon="-3.150805"><ele>359</ele><time>2019-09-27T13:11:30Z</time><name>PT10027</name></trkpt>
<trkpt lat="52.951438" lon="-3.150799"><ele>359</ele><time>2019-09-27T13:11:32Z</time><name>PT10028</name></trkpt>
<trkpt lat="52.951448" lon="-3.150792"><ele>359</ele><time>2019-09-27T13:11:33Z</time><name>PT10029</name></trkpt>
<trkpt lat="52.951455" lon="-3.150786"><ele>359</ele><time>2019-09-27T13:11:34Z</time><name>PT10030</name></trkpt>
<trkpt lat="52.951462" lon="-3.150775"><ele>360</ele><time>2019-09-27T13:11:35Z</time><name>PT10031</name></trkpt>
<trkpt lat="52.951471" lon="-3.150764"><ele>360</ele><time>2019-09-27T13:11:36Z</time><name>PT10032</name></trkpt>
<trkpt lat="52.951479" lon="-3.150755"><ele>360</ele><time>2019-09-27T13:11:36Z</time><name>PT10033</name></trkpt>
<trkpt lat="52.951484" lon="-3.150742"><ele>360</ele><time>2019-09-27T13:11:38Z</time><name>PT10034</name></trkpt>
<trkpt lat="52.951491" lon="-3.150726"><ele>360</ele><time>2019-09-27T13:11:39Z</time><name>PT10035</name></trkpt>
<trkpt lat="52.951497" lon="-3.150713"><ele>360</ele><time>2019-09-27T13:11:39Z</time><name>PT10036</name></trkpt>
<trkpt lat="52.951502" lon="-3.150698"><ele>361</ele><time>2019-09-27T13:11:41Z</time><name>PT10037</name></trkpt>
<trkpt lat="52.951506" lon="-3.150689"><ele>360</ele><time>2019-09-27T13:11:42Z</time><name>PT10038</name></trkpt>
<trkpt lat="52.951509" lon="-3.150678"><ele>360</ele><time>2019-09-27T13:11:42Z</time><name>PT10039</name></trkpt>
<trkpt lat="52.951514" lon="-3.150666"><ele>360</ele><time>2019-09-27T13:11:44Z</time><name>PT10040</name></trkpt>
<trkpt lat="52.951520" lon="-3.150654"><ele>360</ele><time>2019-09-27T13:11:45Z</time><name>PT10041</name></trkpt>
<trkpt lat="52.951529" lon="-3.150638"><ele>360</ele><time>2019-09-27T13:11:46Z</time><name>PT10042</name></trkpt>
<trkpt lat="52.951533" lon="-3.150625"><ele>360</ele><time>2019-09-27T13:11:47Z</time><name>PT10043</name></trkpt>
<trkpt lat="52.951539" lon="-3.150612"><ele>359</ele><time>2019-09-27T13:11:48Z</time><name>PT10044</name></trkpt>
<trkpt lat="52.951543" lon="-3.150596"><ele>359</ele><time>2019-09-27T13:11:48Z</time><name>PT10045</name></trkpt>
<trkpt lat="52.951547" lon="-3.150581"><ele>359</ele><time>2019-09-27T13:11:50Z</time><name>PT10046</name></trkpt>
<trkpt lat="52.951553" lon="-3.150565"><ele>359</ele><time>2019-09-27T13:11:51Z</time><name>PT10047</name></trkpt>
<trkpt lat="52.951560" lon="-3.150551"><ele>359</ele><time>2019-09-27T13:11:51Z</time><name>PT10048</name></trkpt>
<trkpt lat="52.951567" lon="-3.150538"><ele>359</ele><time>2019-09-27T13:11:53Z</time><name>PT10049</name></trkpt>
<trkpt lat="52.951574" lon="-3.150524"><ele>359</ele><time>2019-09-27T13:11:54Z</time><name>PT10050</name></trkpt>
<trkpt lat="52.951579" lon="-3.150511"><ele>358</ele><time>2019-09-27T13:11:54Z</time><name>PT10051</name></trkpt>
<trkpt lat="52.951584" lon="-3.150497"><ele>358</ele><time>2019-09-27T13:11:56Z</time><name>PT10052</name></trkpt>
<trkpt lat="52.951588" lon="-3.150484"><ele>358</ele><time>2019-09-27T13:11:57Z</time><name>PT10053</name></trkpt>
<trkpt lat="52.951597" lon="-3.150466"><ele>358</ele><time>2019-09-27T13:11:57Z</time><name>PT10054</name></trkpt>
<trkpt lat="52.951602" lon="-3.150450"><ele>358</ele><time>2019-09-27T13:11:59Z</time><name>PT10055</name></trkpt>
<trkpt lat="52.951608" lon="-3.150435"><ele>358</ele><time>2019-09-27T13:12:00Z</time><name>PT10056</name></trkpt>
<trkpt lat="52.951613" lon="-3.150421"><ele>357</ele><time>2019-09-27T13:12:01Z</time><name>PT10057</name></trkpt>
<trkpt lat="52.951618" lon="-3.150408"><ele>357</ele><time>2019-09-27T13:12:02Z</time><name>PT10058</name></trkpt>
<trkpt lat="52.951624" lon="-3.150392"><ele>357</ele><time>2019-09-27T13:12:03Z</time><name>PT10059</name></trkpt>
<trkpt lat="52.951631" lon="-3.150377"><ele>357</ele><time>2019-09-27T13:12:03Z</time><name>PT10060</name></trkpt>
<trkpt lat="52.951638" lon="-3.150364"><ele>357</ele><time>2019-09-27T13:12:05Z</time><name>PT10061</name></trkpt>
<trkpt lat="52.951643" lon="-3.150350"><ele>357</ele><time>2019-09-27T13:12:06Z</time><name>PT10062</name></trkpt>
<trkpt lat="52.951650" lon="-3.150335"><ele>357</ele><time>2019-09-27T13:12:07Z</time><name>PT10063</name></trkpt>
<trkpt lat="52.951656" lon="-3.150319"><ele>357</ele><time>2019-09-27T13:12:08Z</time><name>PT10064</name></trkpt>
<trkpt lat="52.951661" lon="-3.150303"><ele>357</ele><time>2019-09-27T13:12:09Z</time><name>PT10065</name></trkpt>
<trkpt lat="52.951669" lon="-3.150287"><ele>357</ele><time>2019-09-27T13:12:10Z</time><name>PT10066</name></trkpt>
<trkpt lat="52.951678" lon="-3.150276"><ele>357</ele><time>2019-09-27T13:12:11Z</time><name>PT10067</name></trkpt>
<trkpt lat="52.951686" lon="-3.150262"><ele>357</ele><time>2019-09-27T13:12:12Z</time><name>PT10068</name></trkpt>
<trkpt lat="52.951692" lon="-3.150245"><ele>356</ele><time>2019-09-27T13:12:13Z</time><name>PT10069</name></trkpt>
<trkpt lat="52.951698" lon="-3.150229"><ele>356</ele><time>2019-09-27T13:12:14Z</time><name>PT10070</name></trkpt>
<trkpt lat="52.951706" lon="-3.150210"><ele>356</ele><time>2019-09-27T13:12:15Z</time><name>PT10071</name></trkpt>
<trkpt lat="52.951712" lon="-3.150193"><ele>356</ele><time>2019-09-27T13:12:16Z</time><name>PT10072</name></trkpt>
<trkpt lat="52.951720" lon="-3.150177"><ele>355</ele><time>2019-09-27T13:12:17Z</time><name>PT10073</name></trkpt>
<trkpt lat="52.951726" lon="-3.150163"><ele>355</ele><time>2019-09-27T13:12:18Z</time><name>PT10074</name></trkpt>
<trkpt lat="52.951733" lon="-3.150148"><ele>355</ele><time>2019-09-27T13:12:19Z</time><name>PT10075</name></trkpt>
<trkpt lat="52.951743" lon="-3.150132"><ele>356</ele><time>2019-09-27T13:12:20Z</time><name>PT10076</name></trkpt>
<trkpt lat="52.951752" lon="-3.150118"><ele>356</ele><time>2019-09-27T13:12:21Z</time><name>PT10077</name></trkpt>
<trkpt lat="52.951758" lon="-3.150104"><ele>356</ele><time>2019-09-27T13:12:22Z</time><name>PT10078</name></trkpt>
<trkpt lat="52.951765" lon="-3.150087"><ele>356</ele><time>2019-09-27T13:12:23Z</time><name>PT10079</name></trkpt>
<trkpt lat="52.951770" lon="-3.150071"><ele>356</ele><time>2019-09-27T13:12:24Z</time><name>PT10080</name></trkpt>
<trkpt lat="52.951775" lon="-3.150055"><ele>356</ele><time>2019-09-27T13:12:25Z</time><name>PT10081</name></trkpt>
<trkpt lat="52.951778" lon="-3.150042"><ele>355</ele><time>2019-09-27T13:12:26Z</time><name>PT10082</name></trkpt>
<trkpt lat="52.951782" lon="-3.150028"><ele>355</ele><time>2019-09-27T13:12:27Z</time><name>PT10083</name></trkpt>
<trkpt lat="52.951787" lon="-3.150016"><ele>355</ele><time>2019-09-27T13:12:28Z</time><name>PT10084</name></trkpt>
<trkpt lat="52.951794" lon="-3.150001"><ele>355</ele><time>2019-09-27T13:12:29Z</time><name>PT10085</name></trkpt>
<trkpt lat="52.951797" lon="-3.149986"><ele>354</ele><time>2019-09-27T13:12:30Z</time><name>PT10086</name></trkpt>
<trkpt lat="52.951801" lon="-3.149975"><ele>354</ele><time>2019-09-27T13:12:31Z</time><name>PT10087</name></trkpt>
<trkpt lat="52.951805" lon="-3.149960"><ele>354</ele><time>2019-09-27T13:12:32Z</time><name>PT10088</name></trkpt>
<trkpt lat="52.951811" lon="-3.149944"><ele>354</ele><time>2019-09-27T13:12:33Z</time><name>PT10089</name></trkpt>
<trkpt lat="52.951817" lon="-3.149930"><ele>354</ele><time>2019-09-27T13:12:34Z</time><name>PT10090</name></trkpt>
<trkpt lat="52.951820" lon="-3.149912"><ele>354</ele><time>2019-09-27T13:12:35Z</time><name>PT10091</name></trkpt>
<trkpt lat="52.951822" lon="-3.149894"><ele>354</ele><time>2019-09-27T13:12:36Z</time><name>PT10092</name></trkpt>
<trkpt lat="52.951826" lon="-3.149882"><ele>353</ele><time>2019-09-27T13:12:37Z</time><name>PT10093</name></trkpt>
<trkpt lat="52.951830" lon="-3.149867"><ele>353</ele><time>2019-09-27T13:12:38Z</time><name>PT10094</name></trkpt>
<trkpt lat="52.951833" lon="-3.149852"><ele>353</ele><time>2019-09-27T13:12:39Z</time><name>PT10095</name></trkpt>
<trkpt lat="52.951833" lon="-3.149836"><ele>352</ele><time>2019-09-27T13:12:40Z</time><name>PT10096</name></trkpt>
<trkpt lat="52.951838" lon="-3.149823"><ele>352</ele><time>2019-09-27T13:12:41Z</time><name>PT10097</name></trkpt>
<trkpt lat="52.951841" lon="-3.149810"><ele>351</ele><time>2019-09-27T13:12:42Z</time><name>PT10098</name></trkpt>
<trkpt lat="52.951844" lon="-3.149798"><ele>351</ele><time>2019-09-27T13:12:42Z</time><name>PT10099</name></trkpt>
<trkpt lat="52.951843" lon="-3.149785"><ele>350</ele><time>2019-09-27T13:12:44Z</time><name>PT10100</name></trkpt>
<trkpt lat="52.951844" lon="-3.149771"><ele>350</ele><time>2019-09-27T13:12:45Z</time><name>PT10101</name></trkpt>
<trkpt lat="52.951852" lon="-3.149755"><ele>350</ele><time>2019-09-27T13:12:45Z</time><name>PT10102</name></trkpt>
<trkpt lat="52.951856" lon="-3.149742"><ele>349</ele><time>2019-09-27T13:12:47Z</time><name>PT10103</name></trkpt>
<trkpt lat="52.951862" lon="-3.149730"><ele>349</ele><time>2019-09-27T13:12:48Z</time><name>PT10104</name></trkpt>
<trkpt lat="52.951871" lon="-3.149717"><ele>349</ele><time>2019-09-27T13:12:48Z</time><name>PT10105</name></trkpt>
<trkpt lat="52.951870" lon="-3.149703"><ele>348</ele><time>2019-09-27T13:12:50Z</time><name>PT10106</name></trkpt>
<trkpt lat="52.951872" lon="-3.149687"><ele>348</ele><time>2019-09-27T13:12:51Z</time><name>PT10107</name></trkpt>
<trkpt lat="52.951870" lon="-3.149673"><ele>348</ele><time>2019-09-27T13:12:51Z</time><name>PT10108</name></trkpt>
<trkpt lat="52.951872" lon="-3.149658"><ele>347</ele><time>2019-09-27T13:12:53Z</time><name>PT10109</name></trkpt>
<trkpt lat="52.951876" lon="-3.149643"><ele>347</ele><time>2019-09-27T13:12:54Z</time><name>PT10110</name></trkpt>
<trkpt lat="52.951878" lon="-3.149627"><ele>346</ele><time>2019-09-27T13:12:54Z</time><name>PT10111</name></trkpt>
<trkpt lat="52.951880" lon="-3.149613"><ele>345</ele><time>2019-09-27T13:12:56Z</time><name>PT10112</name></trkpt>
<trkpt lat="52.951886" lon="-3.149600"><ele>345</ele><time>2019-09-27T13:12:57Z</time><name>PT10113</name></trkpt>
<trkpt lat="52.951892" lon="-3.149584"><ele>345</ele><time>2019-09-27T13:12:57Z</time><name>PT10114</name></trkpt>
<trkpt lat="52.951897" lon="-3.149569"><ele>345</ele><time>2019-09-27T13:12:59Z</time><name>PT10115</name></trkpt>
<trkpt lat="52.951899" lon="-3.149555"><ele>344</ele><time>2019-09-27T13:13:00Z</time><name>PT10116</name></trkpt>
<trkpt lat="52.951903" lon="-3.149539"><ele>344</ele><time>2019-09-27T13:13:01Z</time><name>PT10117</name></trkpt>
<trkpt lat="52.951911" lon="-3.149522"><ele>344</ele><time>2019-09-27T13:13:02Z</time><name>PT10118</name></trkpt>
<trkpt lat="52.951919" lon="-3.149505"><ele>344</ele><time>2019-09-27T13:13:03Z</time><name>PT10119</name></trkpt>
<trkpt lat="52.951926" lon="-3.149492"><ele>344</ele><time>2019-09-27T13:13:04Z</time><name>PT10120</name></trkpt>
<trkpt lat="52.951930" lon="-3.149476"><ele>344</ele><time>2019-09-27T13:13:05Z</time><name>PT10121</name></trkpt>
<trkpt lat="52.951937" lon="-3.149465"><ele>344</ele><time>2019-09-27T13:13:06Z</time><name>PT10122</name></trkpt>
<trkpt lat="52.951947" lon="-3.149456"><ele>344</ele><time>2019-09-27T13:13:06Z</time><name>PT10123</name></trkpt>
<trkpt lat="52.951957" lon="-3.149444"><ele>345</ele><time>2019-09-27T13:13:08Z</time><name>PT10124</name></trkpt>
<trkpt lat="52.951964" lon="-3.149440"><ele>345</ele><time>2019-09-27T13:13:09Z</time><name>PT10125</name></trkpt>
<trkpt lat="52.951973" lon="-3.149442"><ele>345</ele><time>2019-09-27T13:13:09Z</time><name>PT10126</name></trkpt>
<trkpt lat="52.951997" lon="-3.149439"><ele>347</ele><time>2019-09-27T13:13:11Z</time><name>PT10127</name></trkpt>
<trkpt lat="52.952005" lon="-3.149436"><ele>347</ele><time>2019-09-27T13:13:12Z</time><name>PT10128</name></trkpt>
<trkpt lat="52.952025" lon="-3.149435"><ele>349</ele><time>2019-09-27T13:13:12Z</time><name>PT10129</name></trkpt>
<trkpt lat="52.952031" lon="-3.149435"><ele>350</ele><time>2019-09-27T13:13:14Z</time><name>PT10130</name></trkpt>
<trkpt lat="52.952035" lon="-3.149436"><ele>350</ele><time>2019-09-27T13:13:15Z</time><name>PT10131</name></trkpt>
<trkpt lat="52.952046" lon="-3.149415"><ele>351</ele><time>2019-09-27T13:13:41Z</time><name>PT10132</name></trkpt>
<trkpt lat="52.952045" lon="-3.149402"><ele>351</ele><time>2019-09-27T13:13:42Z</time><name>PT10133</name></trkpt>
<trkpt lat="52.952049" lon="-3.149392"><ele>351</ele><time>2019-09-27T13:14:11Z</time><name>PT10134</name></trkpt>
<trkpt lat="52.952055" lon="-3.149378"><ele>350</ele><time>2019-09-27T13:14:12Z</time><name>PT10135</name></trkpt>
<trkpt lat="52.952056" lon="-3.149365"><ele>350</ele><time>2019-09-27T13:14:12Z</time><name>PT10136</name></trkpt>
<trkpt lat="52.952059" lon="-3.149360"><ele>350</ele><time>2019-09-27T13:14:14Z</time><name>PT10137</name></trkpt>
<trkpt lat="52.952060" lon="-3.149359"><ele>350</ele><time>2019-09-27T13:14:15Z</time><name>PT10138</name></trkpt>
<trkpt lat="52.952061" lon="-3.149358"><ele>351</ele><time>2019-09-27T13:14:15Z</time><name>PT10139</name></trkpt>
<trkpt lat="52.952060" lon="-3.149355"><ele>350</ele><time>2019-09-27T13:14:17Z</time><name>PT10140</name></trkpt>
<trkpt lat="52.952066" lon="-3.149337"><ele>350</ele><time>2019-09-27T13:14:29Z</time><name>PT10141</name></trkpt>
<trkpt lat="52.952068" lon="-3.149313"><ele>350</ele><time>2019-09-27T13:14:30Z</time><name>PT10142</name></trkpt>
<trkpt lat="52.952073" lon="-3.149299"><ele>350</ele><time>2019-09-27T13:14:30Z</time><name>PT10143</name></trkpt>
<trkpt lat="52.952086" lon="-3.149286"><ele>350</ele><time>2019-09-27T13:14:32Z</time><name>PT10144</name></trkpt>
<trkpt lat="52.952093" lon="-3.149280"><ele>349</ele><time>2019-09-27T13:14:33Z</time><name>PT10145</name></trkpt>
<trkpt lat="52.952100" lon="-3.149277"><ele>349</ele><time>2019-09-27T13:14:33Z</time><name>PT10146</name></trkpt>
<trkpt lat="52.952105" lon="-3.149275"><ele>349</ele><time>2019-09-27T13:14:35Z</time><name>PT10147</name></trkpt>
<trkpt lat="52.952105" lon="-3.149277"><ele>349</ele><time>2019-09-27T13:14:36Z</time><name>PT10148</name></trkpt>
<trkpt lat="52.952107" lon="-3.149280"><ele>349</ele><time>2019-09-27T13:14:37Z</time><name>PT10149</name></trkpt>
<trkpt lat="52.952109" lon="-3.149273"><ele>349</ele><time>2019-09-27T13:14:42Z</time><name>PT10150</name></trkpt>
<trkpt lat="52.952114" lon="-3.149253"><ele>349</ele><time>2019-09-27T13:14:42Z</time><name>PT10151</name></trkpt>
<trkpt lat="52.952119" lon="-3.149234"><ele>349</ele><time>2019-09-27T13:14:44Z</time><name>PT10152</name></trkpt>
<trkpt lat="52.952123" lon="-3.149217"><ele>348</ele><time>2019-09-27T13:14:45Z</time><name>PT10153</name></trkpt>
<trkpt lat="52.952128" lon="-3.149201"><ele>348</ele><time>2019-09-27T13:14:45Z</time><name>PT10154</name></trkpt>
<trkpt lat="52.952134" lon="-3.149183"><ele>348</ele><time>2019-09-27T13:14:47Z</time><name>PT10155</name></trkpt>
<trkpt lat="52.952133" lon="-3.149166"><ele>347</ele><time>2019-09-27T13:14:48Z</time><name>PT10156</name></trkpt>
<trkpt lat="52.952135" lon="-3.149152"><ele>346</ele><time>2019-09-27T13:14:49Z</time><name>PT10157</name></trkpt>
<trkpt lat="52.952141" lon="-3.149139"><ele>346</ele><time>2019-09-27T13:14:50Z</time><name>PT10158</name></trkpt>
<trkpt lat="52.952148" lon="-3.149124"><ele>345</ele><time>2019-09-27T13:14:51Z</time><name>PT10159</name></trkpt>
<trkpt lat="52.952155" lon="-3.149107"><ele>345</ele><time>2019-09-27T13:14:52Z</time><name>PT10160</name></trkpt>
<trkpt lat="52.952160" lon="-3.149091"><ele>345</ele><time>2019-09-27T13:14:53Z</time><name>PT10161</name></trkpt>
<trkpt lat="52.952168" lon="-3.149075"><ele>345</ele><time>2019-09-27T13:14:54Z</time><name>PT10162</name></trkpt>
<trkpt lat="52.952169" lon="-3.149058"><ele>344</ele><time>2019-09-27T13:14:55Z</time><name>PT10163</name></trkpt>
<trkpt lat="52.952171" lon="-3.149047"><ele>344</ele><time>2019-09-27T13:14:56Z</time><name>PT10164</name></trkpt>
<trkpt lat="52.952175" lon="-3.149037"><ele>343</ele><time>2019-09-27T13:14:57Z</time><name>PT10165</name></trkpt>
<trkpt lat="52.952177" lon="-3.149032"><ele>343</ele><time>2019-09-27T13:14:58Z</time><name>PT10166</name></trkpt>
<trkpt lat="52.952174" lon="-3.149026"><ele>343</ele><time>2019-09-27T13:14:59Z</time><name>PT10167</name></trkpt>
<trkpt lat="52.952181" lon="-3.149016"><ele>343</ele><time>2019-09-27T13:15:00Z</time><name>PT10168</name></trkpt>
<trkpt lat="52.952189" lon="-3.148998"><ele>343</ele><time>2019-09-27T13:15:01Z</time><name>PT10169</name></trkpt>
<trkpt lat="52.952194" lon="-3.148983"><ele>342</ele><time>2019-09-27T13:15:02Z</time><name>PT10170</name></trkpt>
<trkpt lat="52.952195" lon="-3.148970"><ele>342</ele><time>2019-09-27T13:15:03Z</time><name>PT10171</name></trkpt>
<trkpt lat="52.952198" lon="-3.148956"><ele>341</ele><time>2019-09-27T13:15:04Z</time><name>PT10172</name></trkpt>
<trkpt lat="52.952204" lon="-3.148946"><ele>341</ele><time>2019-09-27T13:15:05Z</time><name>PT10173</name></trkpt>
<trkpt lat="52.952208" lon="-3.148933"><ele>340</ele><time>2019-09-27T13:15:06Z</time><name>PT10174</name></trkpt>
<trkpt lat="52.952211" lon="-3.148920"><ele>340</ele><time>2019-09-27T13:15:07Z</time><name>PT10175</name></trkpt>
<trkpt lat="52.952215" lon="-3.148909"><ele>340</ele><time>2019-09-27T13:15:08Z</time><name>PT10176</name></trkpt>
<trkpt lat="52.952218" lon="-3.148894"><ele>340</ele><time>2019-09-27T13:15:09Z</time><name>PT10177</name></trkpt>
<trkpt lat="52.952222" lon="-3.148880"><ele>340</ele><time>2019-09-27T13:15:10Z</time><name>PT10178</name></trkpt>
<trkpt lat="52.952222" lon="-3.148866"><ele>339</ele><time>2019-09-27T13:15:11Z</time><name>PT10179</name></trkpt>
<trkpt lat="52.952221" lon="-3.148850"><ele>339</ele><time>2019-09-27T13:15:12Z</time><name>PT10180</name></trkpt>
<trkpt lat="52.952221" lon="-3.148833"><ele>338</ele><time>2019-09-27T13:15:12Z</time><name>PT10181</name></trkpt>
<trkpt lat="52.952227" lon="-3.148818"><ele>338</ele><time>2019-09-27T13:15:14Z</time><name>PT10182</name></trkpt>
<trkpt lat="52.952231" lon="-3.148806"><ele>338</ele><time>2019-09-27T13:15:15Z</time><name>PT10183</name></trkpt>
<trkpt lat="52.952236" lon="-3.148789"><ele>338</ele><time>2019-09-27T13:15:15Z</time><name>PT10184</name></trkpt>
<trkpt lat="52.952242" lon="-3.148771"><ele>338</ele><time>2019-09-27T13:15:17Z</time><name>PT10185</name></trkpt>
<trkpt lat="52.952255" lon="-3.148758"><ele>339</ele><time>2019-09-27T13:15:18Z</time><name>PT10186</name></trkpt>
<trkpt lat="52.952259" lon="-3.148745"><ele>339</ele><time>2019-09-27T13:15:18Z</time><name>PT10187</name></trkpt>
<trkpt lat="52.952261" lon="-3.148730"><ele>339</ele><time>2019-09-27T13:15:20Z</time><name>PT10188</name></trkpt>
<trkpt lat="52.952263" lon="-3.148719"><ele>339</ele><time>2019-09-27T13:15:21Z</time><name>PT10189</name></trkpt>
<trkpt lat="52.952269" lon="-3.148707"><ele>339</ele><time>2019-09-27T13:15:21Z</time><name>PT10190</name></trkpt>
<trkpt lat="52.952274" lon="-3.148694"><ele>339</ele><time>2019-09-27T13:15:23Z</time><name>PT10191</name></trkpt>
<trkpt lat="52.952274" lon="-3.148680"><ele>338</ele><time>2019-09-27T13:15:24Z</time><name>PT10192</name></trkpt>
<trkpt lat="52.952274" lon="-3.148664"><ele>338</ele><time>2019-09-27T13:15:24Z</time><name>PT10193</name></trkpt>
<trkpt lat="52.952272" lon="-3.148650"><ele>337</ele><time>2019-09-27T13:15:26Z</time><name>PT10194</name></trkpt>
<trkpt lat="52.952275" lon="-3.148636"><ele>337</ele><time>2019-09-27T13:15:27Z</time><name>PT10195</name></trkpt>
<trkpt lat="52.952287" lon="-3.148628"><ele>337</ele><time>2019-09-27T13:15:27Z</time><name>PT10196</name></trkpt>
<trkpt lat="52.952292" lon="-3.148613"><ele>336</ele><time>2019-09-27T13:15:29Z</time><name>PT10197</name></trkpt>
<trkpt lat="52.952296" lon="-3.148598"><ele>336</ele><time>2019-09-27T13:15:30Z</time><name>PT10198</name></trkpt>
<trkpt lat="52.952294" lon="-3.148581"><ele>335</ele><time>2019-09-27T13:15:30Z</time><name>PT10199</name></trkpt>
<trkpt lat="52.952291" lon="-3.148566"><ele>334</ele><time>2019-09-27T13:15:32Z</time><name>PT10200</name></trkpt>
<trkpt lat="52.952290" lon="-3.148551"><ele>334</ele><time>2019-09-27T13:15:33Z</time><name>PT10201</name></trkpt>
<trkpt lat="52.952296" lon="-3.148537"><ele>334</ele><time>2019-09-27T13:15:33Z</time><name>PT10202</name></trkpt>
<trkpt lat="52.952302" lon="-3.148522"><ele>334</ele><time>2019-09-27T13:15:35Z</time><name>PT10203</name></trkpt>
<trkpt lat="52.952307" lon="-3.148510"><ele>334</ele><time>2019-09-27T13:15:36Z</time><name>PT10204</name></trkpt>
<trkpt lat="52.952312" lon="-3.148496"><ele>334</ele><time>2019-09-27T13:15:36Z</time><name>PT10205</name></trkpt>
<trkpt lat="52.952322" lon="-3.148480"><ele>334</ele><time>2019-09-27T13:15:38Z</time><name>PT10206</name></trkpt>
<trkpt lat="52.952324" lon="-3.148461"><ele>333</ele><time>2019-09-27T13:15:39Z</time><name>PT10207</name></trkpt>
<trkpt lat="52.952326" lon="-3.148448"><ele>333</ele><time>2019-09-27T13:15:39Z</time><name>PT10208</name></trkpt>
<trkpt lat="52.952335" lon="-3.148440"><ele>333</ele><time>2019-09-27T13:15:41Z</time><name>PT10209</name></trkpt>
<trkpt lat="52.952339" lon="-3.148426"><ele>333</ele><time>2019-09-27T13:15:42Z</time><name>PT10210</name></trkpt>
<trkpt lat="52.952341" lon="-3.148412"><ele>333</ele><time>2019-09-27T13:15:42Z</time><name>PT10211</name></trkpt>
<trkpt lat="52.952357" lon="-3.148397"><ele>334</ele><time>2019-09-27T13:15:44Z</time><name>PT10212</name></trkpt>
<trkpt lat="52.952363" lon="-3.148383"><ele>334</ele><time>2019-09-27T13:15:45Z</time><name>PT10213</name></trkpt>
<trkpt lat="52.952364" lon="-3.148367"><ele>334</ele><time>2019-09-27T13:15:45Z</time><name>PT10214</name></trkpt>
<trkpt lat="52.952359" lon="-3.148352"><ele>333</ele><time>2019-09-27T13:15:47Z</time><name>PT10215</name></trkpt>
<trkpt lat="52.952354" lon="-3.148335"><ele>332</ele><time>2019-09-27T13:15:48Z</time><name>PT10216</name></trkpt>
<trkpt lat="52.952363" lon="-3.148318"><ele>332</ele><time>2019-09-27T13:15:48Z</time><name>PT10217</name></trkpt>
<trkpt lat="52.952370" lon="-3.148299"><ele>332</ele><time>2019-09-27T13:15:50Z</time><name>PT10218</name></trkpt>
<trkpt lat="52.952378" lon="-3.148279"><ele>332</ele><time>2019-09-27T13:15:51Z</time><name>PT10219</name></trkpt>
<trkpt lat="52.952383" lon="-3.148263"><ele>333</ele><time>2019-09-27T13:15:52Z</time><name>PT10220</name></trkpt>
<trkpt lat="52.952384" lon="-3.148248"><ele>332</ele><time>2019-09-27T13:15:53Z</time><name>PT10221</name></trkpt>
<trkpt lat="52.952388" lon="-3.148232"><ele>332</ele><time>2019-09-27T13:15:54Z</time><name>PT10222</name></trkpt>
<trkpt lat="52.952394" lon="-3.148217"><ele>332</ele><time>2019-09-27T13:15:54Z</time><name>PT10223</name></trkpt>
<trkpt lat="52.952411" lon="-3.148202"><ele>333</ele><time>2019-09-27T13:15:56Z</time><name>PT10224</name></trkpt>
<trkpt lat="52.952424" lon="-3.148188"><ele>334</ele><time>2019-09-27T13:15:57Z</time><name>PT10225</name></trkpt>
<trkpt lat="52.952430" lon="-3.148175"><ele>334</ele><time>2019-09-27T13:15:58Z</time><name>PT10226</name></trkpt>
<trkpt lat="52.952432" lon="-3.148158"><ele>333</ele><time>2019-09-27T13:15:59Z</time><name>PT10227</name></trkpt>
<trkpt lat="52.952434" lon="-3.148143"><ele>333</ele><time>2019-09-27T13:16:00Z</time><name>PT10228</name></trkpt>
<trkpt lat="52.952439" lon="-3.148128"><ele>333</ele><time>2019-09-27T13:16:00Z</time><name>PT10229</name></trkpt>
<trkpt lat="52.952443" lon="-3.148118"><ele>333</ele><time>2019-09-27T13:16:02Z</time><name>PT10230</name></trkpt>
<trkpt lat="52.952445" lon="-3.148107"><ele>333</ele><time>2019-09-27T13:16:03Z</time><name>PT10231</name></trkpt>
<trkpt lat="52.952450" lon="-3.148097"><ele>333</ele><time>2019-09-27T13:16:04Z</time><name>PT10232</name></trkpt>
<trkpt lat="52.952454" lon="-3.148088"><ele>334</ele><time>2019-09-27T13:16:05Z</time><name>PT10233</name></trkpt>
<trkpt lat="52.952451" lon="-3.148084"><ele>333</ele><time>2019-09-27T13:16:06Z</time><name>PT10234</name></trkpt>
<trkpt lat="52.952454" lon="-3.148074"><ele>333</ele><time>2019-09-27T13:16:06Z</time><name>PT10235</name></trkpt>
<trkpt lat="52.952468" lon="-3.148060"><ele>335</ele><time>2019-09-27T13:16:08Z</time><name>PT10236</name></trkpt>
<trkpt lat="52.952471" lon="-3.148022"><ele>335</ele><time>2019-09-27T13:16:15Z</time><name>PT10237</name></trkpt>
<trkpt lat="52.952483" lon="-3.148004"><ele>335</ele><time>2019-09-27T13:16:15Z</time><name>PT10238</name></trkpt>
<trkpt lat="52.952486" lon="-3.147995"><ele>334</ele><time>2019-09-27T13:16:17Z</time><name>PT10239</name></trkpt>
<trkpt lat="52.952486" lon="-3.147986"><ele>334</ele><time>2019-09-27T13:16:18Z</time><name>PT10240</name></trkpt>
<trkpt lat="52.952491" lon="-3.147980"><ele>334</ele><time>2019-09-27T13:16:18Z</time><name>PT10241</name></trkpt>
<trkpt lat="52.952491" lon="-3.147969"><ele>333</ele><time>2019-09-27T13:16:20Z</time><name>PT10242</name></trkpt>
<trkpt lat="52.952494" lon="-3.147958"><ele>333</ele><time>2019-09-27T13:16:21Z</time><name>PT10243</name></trkpt>
<trkpt lat="52.952494" lon="-3.147952"><ele>333</ele><time>2019-09-27T13:16:22Z</time><name>PT10244</name></trkpt>
<trkpt lat="52.952496" lon="-3.147948"><ele>333</ele><time>2019-09-27T13:16:23Z</time><name>PT10245</name></trkpt>
<trkpt lat="52.952496" lon="-3.147945"><ele>333</ele><time>2019-09-27T13:16:24Z</time><name>PT10246</name></trkpt>
<trkpt lat="52.952500" lon="-3.147944"><ele>333</ele><time>2019-09-27T13:16:24Z</time><name>PT10247</name></trkpt>
<trkpt lat="52.952502" lon="-3.147942"><ele>333</ele><time>2019-09-27T13:16:26Z</time><name>PT10248</name></trkpt>
<trkpt lat="52.952504" lon="-3.147913"><ele>332</ele><time>2019-09-27T13:16:45Z</time><name>PT10249</name></trkpt>
<trkpt lat="52.952509" lon="-3.147892"><ele>332</ele><time>2019-09-27T13:16:45Z</time><name>PT10250</name></trkpt>
<trkpt lat="52.952513" lon="-3.147885"><ele>331</ele><time>2019-09-27T13:16:47Z</time><name>PT10251</name></trkpt>
<trkpt lat="52.952514" lon="-3.147869"><ele>330</ele><time>2019-09-27T13:16:48Z</time><name>PT10252</name></trkpt>
<trkpt lat="52.952517" lon="-3.147852"><ele>330</ele><time>2019-09-27T13:16:48Z</time><name>PT10253</name></trkpt>
<trkpt lat="52.952516" lon="-3.147839"><ele>330</ele><time>2019-09-27T13:16:50Z</time><name>PT10254</name></trkpt>
<trkpt lat="52.952517" lon="-3.147824"><ele>330</ele><time>2019-09-27T13:16:51Z</time><name>PT10255</name></trkpt>
<trkpt lat="52.952520" lon="-3.147809"><ele>329</ele><time>2019-09-27T13:16:52Z</time><name>PT10256</name></trkpt>
<trkpt lat="52.952520" lon="-3.147794"><ele>329</ele><time>2019-09-27T13:16:53Z</time><name>PT10257</name></trkpt>
<trkpt lat="52.952523" lon="-3.147781"><ele>329</ele><time>2019-09-27T13:16:54Z</time><name>PT10258</name></trkpt>
<trkpt lat="52.952525" lon="-3.147767"><ele>329</ele><time>2019-09-27T13:16:54Z</time><name>PT10259</name></trkpt>
<trkpt lat="52.952528" lon="-3.147751"><ele>328</ele><time>2019-09-27T13:16:56Z</time><name>PT10260</name></trkpt>
<trkpt lat="52.952526" lon="-3.147738"><ele>328</ele><time>2019-09-27T13:16:57Z</time><name>PT10261</name></trkpt>
<trkpt lat="52.952529" lon="-3.147727"><ele>327</ele><time>2019-09-27T13:16:58Z</time><name>PT10262</name></trkpt>
<trkpt lat="52.952531" lon="-3.147721"><ele>327</ele><time>2019-09-27T13:16:59Z</time><name>PT10263</name></trkpt>
<trkpt lat="52.952536" lon="-3.147709"><ele>327</ele><time>2019-09-27T13:17:00Z</time><name>PT10264</name></trkpt>
<trkpt lat="52.952542" lon="-3.147699"><ele>327</ele><time>2019-09-27T13:17:00Z</time><name>PT10265</name></trkpt>
<trkpt lat="52.952546" lon="-3.147689"><ele>327</ele><time>2019-09-27T13:17:02Z</time><name>PT10266</name></trkpt>
<trkpt lat="52.952552" lon="-3.147680"><ele>327</ele><time>2019-09-27T13:17:03Z</time><name>PT10267</name></trkpt>
<trkpt lat="52.952556" lon="-3.147664"><ele>327</ele><time>2019-09-27T13:17:03Z</time><name>PT10268</name></trkpt>
<trkpt lat="52.952557" lon="-3.147651"><ele>327</ele><time>2019-09-27T13:17:05Z</time><name>PT10269</name></trkpt>
<trkpt lat="52.952551" lon="-3.147636"><ele>326</ele><time>2019-09-27T13:17:06Z</time><name>PT10270</name></trkpt>
<trkpt lat="52.952553" lon="-3.147623"><ele>326</ele><time>2019-09-27T13:17:07Z</time><name>PT10271</name></trkpt>
<trkpt lat="52.952555" lon="-3.147612"><ele>325</ele><time>2019-09-27T13:17:08Z</time><name>PT10272</name></trkpt>
<trkpt lat="52.952557" lon="-3.147596"><ele>325</ele><time>2019-09-27T13:17:09Z</time><name>PT10273</name></trkpt>
<trkpt lat="52.952559" lon="-3.147582"><ele>324</ele><time>2019-09-27T13:17:10Z</time><name>PT10274</name></trkpt>
<trkpt lat="52.952566" lon="-3.147568"><ele>324</ele><time>2019-09-27T13:17:11Z</time><name>PT10275</name></trkpt>
<trkpt lat="52.952567" lon="-3.147554"><ele>324</ele><time>2019-09-27T13:17:12Z</time><name>PT10276</name></trkpt>
<trkpt lat="52.952568" lon="-3.147545"><ele>324</ele><time>2019-09-27T13:17:13Z</time><name>PT10277</name></trkpt>
<trkpt lat="52.952578" lon="-3.147538"><ele>324</ele><time>2019-09-27T13:17:14Z</time><name>PT10278</name></trkpt>
<trkpt lat="52.952585" lon="-3.147526"><ele>324</ele><time>2019-09-27T13:17:15Z</time><name>PT10279</name></trkpt>
<trkpt lat="52.952597" lon="-3.147513"><ele>324</ele><time>2019-09-27T13:17:16Z</time><name>PT10280</name></trkpt>
<trkpt lat="52.952602" lon="-3.147497"><ele>324</ele><time>2019-09-27T13:17:17Z</time><name>PT10281</name></trkpt>
<trkpt lat="52.952607" lon="-3.147481"><ele>324</ele><time>2019-09-27T13:17:18Z</time><name>PT10282</name></trkpt>
<trkpt lat="52.952616" lon="-3.147467"><ele>325</ele><time>2019-09-27T13:17:19Z</time><name>PT10283</name></trkpt>
<trkpt lat="52.952625" lon="-3.147451"><ele>325</ele><time>2019-09-27T13:17:20Z</time><name>PT10284</name></trkpt>
<trkpt lat="52.952627" lon="-3.147436"><ele>324</ele><time>2019-09-27T13:17:21Z</time><name>PT10285</name></trkpt>
<trkpt lat="52.952632" lon="-3.147421"><ele>324</ele><time>2019-09-27T13:17:22Z</time><name>PT10286</name></trkpt>
<trkpt lat="52.952636" lon="-3.147410"><ele>324</ele><time>2019-09-27T13:17:23Z</time><name>PT10287</name></trkpt>
<trkpt lat="52.952639" lon="-3.147397"><ele>324</ele><time>2019-09-27T13:17:24Z</time><name>PT10288</name></trkpt>
<trkpt lat="52.952645" lon="-3.147384"><ele>324</ele><time>2019-09-27T13:17:25Z</time><name>PT10289</name></trkpt>
<trkpt lat="52.952645" lon="-3.147374"><ele>324</ele><time>2019-09-27T13:17:26Z</time><name>PT10290</name></trkpt>
<trkpt lat="52.952649" lon="-3.147367"><ele>324</ele><time>2019-09-27T13:17:27Z</time><name>PT10291</name></trkpt>
<trkpt lat="52.952649" lon="-3.147359"><ele>324</ele><time>2019-09-27T13:17:28Z</time><name>PT10292</name></trkpt>
<trkpt lat="52.952647" lon="-3.147347"><ele>323</ele><time>2019-09-27T13:17:29Z</time><name>PT10293</name></trkpt>
<trkpt lat="52.952648" lon="-3.147336"><ele>323</ele><time>2019-09-27T13:17:30Z</time><name>PT10294</name></trkpt>
<trkpt lat="52.952649" lon="-3.147325"><ele>323</ele><time>2019-09-27T13:17:31Z</time><name>PT10295</name></trkpt>
<trkpt lat="52.952657" lon="-3.147314"><ele>323</ele><time>2019-09-27T13:17:32Z</time><name>PT10296</name></trkpt>
<trkpt lat="52.952655" lon="-3.147299"><ele>322</ele><time>2019-09-27T13:17:33Z</time><name>PT10297</name></trkpt>
<trkpt lat="52.952656" lon="-3.147287"><ele>322</ele><time>2019-09-27T13:17:34Z</time><name>PT10298</name></trkpt>
<trkpt lat="52.952661" lon="-3.147272"><ele>322</ele><time>2019-09-27T13:17:35Z</time><name>PT10299</name></trkpt>
<trkpt lat="52.952666" lon="-3.147257"><ele>322</ele><time>2019-09-27T13:17:36Z</time><name>PT10300</name></trkpt>
<trkpt lat="52.952669" lon="-3.147242"><ele>321</ele><time>2019-09-27T13:17:37Z</time><name>PT10301</name></trkpt>
<trkpt lat="52.952672" lon="-3.147231"><ele>321</ele><time>2019-09-27T13:17:38Z</time><name>PT10302</name></trkpt>
<trkpt lat="52.952678" lon="-3.147216"><ele>321</ele><time>2019-09-27T13:17:39Z</time><name>PT10303</name></trkpt>
<trkpt lat="52.952689" lon="-3.147205"><ele>321</ele><time>2019-09-27T13:17:40Z</time><name>PT10304</name></trkpt>
<trkpt lat="52.952689" lon="-3.147195"><ele>321</ele><time>2019-09-27T13:17:41Z</time><name>PT10305</name></trkpt>
<trkpt lat="52.952695" lon="-3.147185"><ele>321</ele><time>2019-09-27T13:17:42Z</time><name>PT10306</name></trkpt>
<trkpt lat="52.952697" lon="-3.147171"><ele>320</ele><time>2019-09-27T13:17:43Z</time><name>PT10307</name></trkpt>
<trkpt lat="52.952704" lon="-3.147158"><ele>321</ele><time>2019-09-27T13:17:44Z</time><name>PT10308</name></trkpt>
<trkpt lat="52.952711" lon="-3.147145"><ele>321</ele><time>2019-09-27T13:17:45Z</time><name>PT10309</name></trkpt>
<trkpt lat="52.952716" lon="-3.147131"><ele>321</ele><time>2019-09-27T13:17:45Z</time><name>PT10310</name></trkpt>
<trkpt lat="52.952719" lon="-3.147120"><ele>321</ele><time>2019-09-27T13:17:47Z</time><name>PT10311</name></trkpt>
<trkpt lat="52.952721" lon="-3.147108"><ele>321</ele><time>2019-09-27T13:17:48Z</time><name>PT10312</name></trkpt>
<trkpt lat="52.952721" lon="-3.147093"><ele>320</ele><time>2019-09-27T13:17:48Z</time><name>PT10313</name></trkpt>
<trkpt lat="52.952720" lon="-3.147079"><ele>320</ele><time>2019-09-27T13:17:50Z</time><name>PT10314</name></trkpt>
<trkpt lat="52.952723" lon="-3.147066"><ele>319</ele><time>2019-09-27T13:17:51Z</time><name>PT10315</name></trkpt>
<trkpt lat="52.952732" lon="-3.147052"><ele>320</ele><time>2019-09-27T13:17:51Z</time><name>PT10316</name></trkpt>
<trkpt lat="52.952740" lon="-3.147039"><ele>320</ele><time>2019-09-27T13:17:53Z</time><name>PT10317</name></trkpt>
<trkpt lat="52.952736" lon="-3.147033"><ele>319</ele><time>2019-09-27T13:17:54Z</time><name>PT10318</name></trkpt>
<trkpt lat="52.952750" lon="-3.147025"><ele>320</ele><time>2019-09-27T13:17:54Z</time><name>PT10319</name></trkpt>
<trkpt lat="52.952746" lon="-3.147016"><ele>319</ele><time>2019-09-27T13:17:56Z</time><name>PT10320</name></trkpt>
<trkpt lat="52.952745" lon="-3.147004"><ele>318</ele><time>2019-09-27T13:17:57Z</time><name>PT10321</name></trkpt>
<trkpt lat="52.952740" lon="-3.146990"><ele>317</ele><time>2019-09-27T13:17:57Z</time><name>PT10322</name></trkpt>
<trkpt lat="52.952741" lon="-3.146980"><ele>317</ele><time>2019-09-27T13:17:59Z</time><name>PT10323</name></trkpt>
<trkpt lat="52.952741" lon="-3.146970"><ele>316</ele><time>2019-09-27T13:18:00Z</time><name>PT10324</name></trkpt>
<trkpt lat="52.952741" lon="-3.146961"><ele>315</ele><time>2019-09-27T13:18:00Z</time><name>PT10325</name></trkpt>
<trkpt lat="52.952740" lon="-3.146946"><ele>315</ele><time>2019-09-27T13:18:02Z</time><name>PT10326</name></trkpt>
<trkpt lat="52.952738" lon="-3.146934"><ele>314</ele><time>2019-09-27T13:18:03Z</time><name>PT10327</name></trkpt>
<trkpt lat="52.952745" lon="-3.146922"><ele>314</ele><time>2019-09-27T13:18:03Z</time><name>PT10328</name></trkpt>
<trkpt lat="52.952738" lon="-3.146903"><ele>312</ele><time>2019-09-27T13:18:05Z</time><name>PT10329</name></trkpt>
<trkpt lat="52.952741" lon="-3.146887"><ele>312</ele><time>2019-09-27T13:18:06Z</time><name>PT10330</name></trkpt>
<trkpt lat="52.952741" lon="-3.146873"><ele>312</ele><time>2019-09-27T13:18:06Z</time><name>PT10331</name></trkpt>
<trkpt lat="52.952753" lon="-3.146860"><ele>312</ele><time>2019-09-27T13:18:08Z</time><name>PT10332</name></trkpt>
<trkpt lat="52.952766" lon="-3.146840"><ele>313</ele><time>2019-09-27T13:18:09Z</time><name>PT10333</name></trkpt>
<trkpt lat="52.952775" lon="-3.146822"><ele>313</ele><time>2019-09-27T13:18:09Z</time><name>PT10334</name></trkpt>
<trkpt lat="52.952783" lon="-3.146803"><ele>313</ele><time>2019-09-27T13:18:11Z</time><name>PT10335</name></trkpt>
<trkpt lat="52.952784" lon="-3.146784"><ele>313</ele><time>2019-09-27T13:18:12Z</time><name>PT10336</name></trkpt>
<trkpt lat="52.952783" lon="-3.146765"><ele>312</ele><time>2019-09-27T13:18:12Z</time><name>PT10337</name></trkpt>
<trkpt lat="52.952786" lon="-3.146748"><ele>312</ele><time>2019-09-27T13:18:14Z</time><name>PT10338</name></trkpt>
<trkpt lat="52.952799" lon="-3.146730"><ele>313</ele><time>2019-09-27T13:18:15Z</time><name>PT10339</name></trkpt>
<trkpt lat="52.952803" lon="-3.146712"><ele>313</ele><time>2019-09-27T13:18:15Z</time><name>PT10340</name></trkpt>
<trkpt lat="52.952808" lon="-3.146695"><ele>313</ele><time>2019-09-27T13:18:17Z</time><name>PT10341</name></trkpt>
<trkpt lat="52.952808" lon="-3.146679"><ele>313</ele><time>2019-09-27T13:18:18Z</time><name>PT10342</name></trkpt>
<trkpt lat="52.952808" lon="-3.146664"><ele>312</ele><time>2019-09-27T13:18:18Z</time><name>PT10343</name></trkpt>
<trkpt lat="52.952814" lon="-3.146644"><ele>313</ele><time>2019-09-27T13:18:20Z</time><name>PT10344</name></trkpt>
<trkpt lat="52.952814" lon="-3.146629"><ele>312</ele><time>2019-09-27T13:18:21Z</time><name>PT10345</name></trkpt>
<trkpt lat="52.952819" lon="-3.146614"><ele>312</ele><time>2019-09-27T13:18:21Z</time><name>PT10346</name></trkpt>
<trkpt lat="52.952828" lon="-3.146598"><ele>313</ele><time>2019-09-27T13:18:23Z</time><name>PT10347</name></trkpt>
<trkpt lat="52.952830" lon="-3.146580"><ele>312</ele><time>2019-09-27T13:18:24Z</time><name>PT10348</name></trkpt>
<trkpt lat="52.952839" lon="-3.146559"><ele>312</ele><time>2019-09-27T13:18:24Z</time><name>PT10349</name></trkpt>
<trkpt lat="52.952845" lon="-3.146539"><ele>313</ele><time>2019-09-27T13:18:26Z</time><name>PT10350</name></trkpt>
<trkpt lat="52.952843" lon="-3.146526"><ele>312</ele><time>2019-09-27T13:18:27Z</time><name>PT10351</name></trkpt>
<trkpt lat="52.952851" lon="-3.146512"><ele>312</ele><time>2019-09-27T13:18:27Z</time><name>PT10352</name></trkpt>
<trkpt lat="52.952858" lon="-3.146497"><ele>313</ele><time>2019-09-27T13:18:29Z</time><name>PT10353</name></trkpt>
<trkpt lat="52.952866" lon="-3.146481"><ele>313</ele><time>2019-09-27T13:18:30Z</time><name>PT10354</name></trkpt>
<trkpt lat="52.952867" lon="-3.146463"><ele>313</ele><time>2019-09-27T13:18:30Z</time><name>PT10355</name></trkpt>
<trkpt lat="52.952877" lon="-3.146446"><ele>312</ele><time>2019-09-27T13:18:32Z</time><name>PT10356</name></trkpt>
<trkpt lat="52.952885" lon="-3.146428"><ele>312</ele><time>2019-09-27T13:18:33Z</time><name>PT10357</name></trkpt>
<trkpt lat="52.952888" lon="-3.146410"><ele>312</ele><time>2019-09-27T13:18:33Z</time><name>PT10358</name></trkpt>
<trkpt lat="52.952889" lon="-3.146396"><ele>312</ele><time>2019-09-27T13:18:35Z</time><name>PT10359</name></trkpt>
<trkpt lat="52.952894" lon="-3.146381"><ele>312</ele><time>2019-09-27T13:18:36Z</time><name>PT10360</name></trkpt>
<trkpt lat="52.952901" lon="-3.146365"><ele>312</ele><time>2019-09-27T13:18:36Z</time><name>PT10361</name></trkpt>
<trkpt lat="52.952910" lon="-3.146350"><ele>312</ele><time>2019-09-27T13:18:38Z</time><name>PT10362</name></trkpt>
<trkpt lat="52.952907" lon="-3.146335"><ele>312</ele><time>2019-09-27T13:18:39Z</time><name>PT10363</name></trkpt>
<trkpt lat="52.952899" lon="-3.146317"><ele>311</ele><time>2019-09-27T13:18:39Z</time><name>PT10364</name></trkpt>
<trkpt lat="52.952899" lon="-3.146301"><ele>311</ele><time>2019-09-27T13:18:41Z</time><name>PT10365</name></trkpt>
<trkpt lat="52.952903" lon="-3.146285"><ele>311</ele><time>2019-09-27T13:18:42Z</time><name>PT10366</name></trkpt>
<trkpt lat="52.952912" lon="-3.146268"><ele>311</ele><time>2019-09-27T13:18:42Z</time><name>PT10367</name></trkpt>
<trkpt lat="52.952914" lon="-3.146252"><ele>310</ele><time>2019-09-27T13:18:44Z</time><name>PT10368</name></trkpt>
<trkpt lat="52.952923" lon="-3.146235"><ele>311</ele><time>2019-09-27T13:18:45Z</time><name>PT10369</name></trkpt>
<trkpt lat="52.952932" lon="-3.146219"><ele>311</ele><time>2019-09-27T13:18:46Z</time><name>PT10370</name></trkpt>
<trkpt lat="52.952939" lon="-3.146202"><ele>311</ele><time>2019-09-27T13:18:47Z</time><name>PT10371</name></trkpt>
<trkpt lat="52.952945" lon="-3.146183"><ele>311</ele><time>2019-09-27T13:18:48Z</time><name>PT10372</name></trkpt>
<trkpt lat="52.952952" lon="-3.146168"><ele>311</ele><time>2019-09-27T13:18:48Z</time><name>PT10373</name></trkpt>
<trkpt lat="52.952956" lon="-3.146149"><ele>311</ele><time>2019-09-27T13:18:50Z</time><name>PT10374</name></trkpt>
<trkpt lat="52.952957" lon="-3.146134"><ele>311</ele><time>2019-09-27T13:18:51Z</time><name>PT10375</name></trkpt>
<trkpt lat="52.952968" lon="-3.146120"><ele>311</ele><time>2019-09-27T13:18:52Z</time><name>PT10376</name></trkpt>
<trkpt lat="52.952979" lon="-3.146103"><ele>312</ele><time>2019-09-27T13:18:53Z</time><name>PT10377</name></trkpt>
<trkpt lat="52.952989" lon="-3.146085"><ele>312</ele><time>2019-09-27T13:18:54Z</time><name>PT10378</name></trkpt>
<trkpt lat="52.952992" lon="-3.146069"><ele>312</ele><time>2019-09-27T13:18:55Z</time><name>PT10379</name></trkpt>
<trkpt lat="52.952991" lon="-3.146053"><ele>311</ele><time>2019-09-27T13:18:56Z</time><name>PT10380</name></trkpt>
<trkpt lat="52.952997" lon="-3.146037"><ele>312</ele><time>2019-09-27T13:18:57Z</time><name>PT10381</name></trkpt>
<trkpt lat="52.953007" lon="-3.146018"><ele>311</ele><time>2019-09-27T13:18:58Z</time><name>PT10382</name></trkpt>
<trkpt lat="52.953015" lon="-3.146001"><ele>312</ele><time>2019-09-27T13:18:59Z</time><name>PT10383</name></trkpt>
<trkpt lat="52.953022" lon="-3.145983"><ele>311</ele><time>2019-09-27T13:19:00Z</time><name>PT10384</name></trkpt>
<trkpt lat="52.953025" lon="-3.145966"><ele>311</ele><time>2019-09-27T13:19:01Z</time><name>PT10385</name></trkpt>
<trkpt lat="52.953027" lon="-3.145947"><ele>311</ele><time>2019-09-27T13:19:02Z</time><name>PT10386</name></trkpt>
<trkpt lat="52.953033" lon="-3.145928"><ele>311</ele><time>2019-09-27T13:19:03Z</time><name>PT10387</name></trkpt>
<trkpt lat="52.953041" lon="-3.145909"><ele>311</ele><time>2019-09-27T13:19:04Z</time><name>PT10388</name></trkpt>
<trkpt lat="52.953046" lon="-3.145895"><ele>311</ele><time>2019-09-27T13:19:05Z</time><name>PT10389</name></trkpt>
<trkpt lat="52.953045" lon="-3.145878"><ele>310</ele><time>2019-09-27T13:19:06Z</time><name>PT10390</name></trkpt>
<trkpt lat="52.953042" lon="-3.145865"><ele>310</ele><time>2019-09-27T13:19:07Z</time><name>PT10391</name></trkpt>
<trkpt lat="52.953046" lon="-3.145851"><ele>309</ele><time>2019-09-27T13:19:08Z</time><name>PT10392</name></trkpt>
<trkpt lat="52.953054" lon="-3.145835"><ele>309</ele><time>2019-09-27T13:19:09Z</time><name>PT10393</name></trkpt>
<trkpt lat="52.953058" lon="-3.145820"><ele>309</ele><time>2019-09-27T13:19:10Z</time><name>PT10394</name></trkpt>
<trkpt lat="52.953059" lon="-3.145808"><ele>309</ele><time>2019-09-27T13:19:11Z</time><name>PT10395</name></trkpt>
<trkpt lat="52.953059" lon="-3.145793"><ele>308</ele><time>2019-09-27T13:19:12Z</time><name>PT10396</name></trkpt>
<trkpt lat="52.953066" lon="-3.145778"><ele>308</ele><time>2019-09-27T13:19:12Z</time><name>PT10397</name></trkpt>
<trkpt lat="52.953071" lon="-3.145761"><ele>309</ele><time>2019-09-27T13:19:14Z</time><name>PT10398</name></trkpt>
<trkpt lat="52.953070" lon="-3.145744"><ele>308</ele><time>2019-09-27T13:19:15Z</time><name>PT10399</name></trkpt>
<trkpt lat="52.953077" lon="-3.145729"><ele>308</ele><time>2019-09-27T13:19:15Z</time><name>PT10400</name></trkpt>
<trkpt lat="52.953079" lon="-3.145713"><ele>308</ele><time>2019-09-27T13:19:17Z</time><name>PT10401</name></trkpt>
<trkpt lat="52.953082" lon="-3.145694"><ele>307</ele><time>2019-09-27T13:19:18Z</time><name>PT10402</name></trkpt>
<trkpt lat="52.953085" lon="-3.145676"><ele>307</ele><time>2019-09-27T13:19:18Z</time><name>PT10403</name></trkpt>
<trkpt lat="52.953085" lon="-3.145665"><ele>307</ele><time>2019-09-27T13:19:20Z</time><name>PT10404</name></trkpt>
<trkpt lat="52.953091" lon="-3.145653"><ele>307</ele><time>2019-09-27T13:19:21Z</time><name>PT10405</name></trkpt>
<trkpt lat="52.953097" lon="-3.145639"><ele>307</ele><time>2019-09-27T13:19:21Z</time><name>PT10406</name></trkpt>
<trkpt lat="52.953102" lon="-3.145625"><ele>307</ele><time>2019-09-27T13:19:23Z</time><name>PT10407</name></trkpt>
<trkpt lat="52.953109" lon="-3.145607"><ele>306</ele><time>2019-09-27T13:19:24Z</time><name>PT10408</name></trkpt>
<trkpt lat="52.953116" lon="-3.145593"><ele>306</ele><time>2019-09-27T13:19:24Z</time><name>PT10409</name></trkpt>
<trkpt lat="52.953121" lon="-3.145575"><ele>306</ele><time>2019-09-27T13:19:26Z</time><name>PT10410</name></trkpt>
<trkpt lat="52.953131" lon="-3.145553"><ele>306</ele><time>2019-09-27T13:19:27Z</time><name>PT10411</name></trkpt>
<trkpt lat="52.953137" lon="-3.145538"><ele>306</ele><time>2019-09-27T13:19:27Z</time><name>PT10412</name></trkpt>
<trkpt lat="52.953137" lon="-3.145523"><ele>306</ele><time>2019-09-27T13:19:29Z</time><name>PT10413</name></trkpt>
<trkpt lat="52.953141" lon="-3.145505"><ele>306</ele><time>2019-09-27T13:19:30Z</time><name>PT10414</name></trkpt>
<trkpt lat="52.953152" lon="-3.145487"><ele>306</ele><time>2019-09-27T13:19:30Z</time><name>PT10415</name></trkpt>
<trkpt lat="52.953151" lon="-3.145474"><ele>306</ele><time>2019-09-27T13:19:32Z</time><name>PT10416</name></trkpt>
<trkpt lat="52.953159" lon="-3.145461"><ele>306</ele><time>2019-09-27T13:19:33Z</time><name>PT10417</name></trkpt>
<trkpt lat="52.953163" lon="-3.145447"><ele>306</ele><time>2019-09-27T13:19:33Z</time><name>PT10418</name></trkpt>
<trkpt lat="52.953171" lon="-3.145431"><ele>306</ele><time>2019-09-27T13:19:35Z</time><name>PT10419</name></trkpt>
<trkpt lat="52.953178" lon="-3.145417"><ele>306</ele><time>2019-09-27T13:19:36Z</time><name>PT10420</name></trkpt>
<trkpt lat="52.953185" lon="-3.145402"><ele>306</ele><time>2019-09-27T13:19:36Z</time><name>PT10421</name></trkpt>
<trkpt lat="52.953184" lon="-3.145391"><ele>306</ele><time>2019-09-27T13:19:38Z</time><name>PT10422</name></trkpt>
<trkpt lat="52.953190" lon="-3.145378"><ele>306</ele><time>2019-09-27T13:19:39Z</time><name>PT10423</name></trkpt>
<trkpt lat="52.953197" lon="-3.145362"><ele>306</ele><time>2019-09-27T13:19:40Z</time><name>PT10424</name></trkpt>
<trkpt lat="52.953209" lon="-3.145345"><ele>306</ele><time>2019-09-27T13:19:41Z</time><name>PT10425</name></trkpt>
<trkpt lat="52.953218" lon="-3.145333"><ele>307</ele><time>2019-09-27T13:19:42Z</time><name>PT10426</name></trkpt>
<trkpt lat="52.953225" lon="-3.145321"><ele>306</ele><time>2019-09-27T13:19:42Z</time><name>PT10427</name></trkpt>
<trkpt lat="52.953230" lon="-3.145305"><ele>306</ele><time>2019-09-27T13:19:44Z</time><name>PT10428</name></trkpt>
<trkpt lat="52.953227" lon="-3.145296"><ele>306</ele><time>2019-09-27T13:19:45Z</time><name>PT10429</name></trkpt>
<trkpt lat="52.953230" lon="-3.145284"><ele>306</ele><time>2019-09-27T13:19:46Z</time><name>PT10430</name></trkpt>
<trkpt lat="52.953229" lon="-3.145268"><ele>305</ele><time>2019-09-27T13:19:47Z</time><name>PT10431</name></trkpt>
<trkpt lat="52.953236" lon="-3.145255"><ele>305</ele><time>2019-09-27T13:19:48Z</time><name>PT10432</name></trkpt>
<trkpt lat="52.953241" lon="-3.145242"><ele>305</ele><time>2019-09-27T13:19:49Z</time><name>PT10433</name></trkpt>
<trkpt lat="52.953247" lon="-3.145228"><ele>305</ele><time>2019-09-27T13:19:50Z</time><name>PT10434</name></trkpt>
<trkpt lat="52.953250" lon="-3.145214"><ele>304</ele><time>2019-09-27T13:19:51Z</time><name>PT10435</name></trkpt>
<trkpt lat="52.953260" lon="-3.145199"><ele>305</ele><time>2019-09-27T13:19:51Z</time><name>PT10436</name></trkpt>
<trkpt lat="52.953269" lon="-3.145186"><ele>305</ele><time>2019-09-27T13:19:53Z</time><name>PT10437</name></trkpt>
<trkpt lat="52.953269" lon="-3.145170"><ele>304</ele><time>2019-09-27T13:19:54Z</time><name>PT10438</name></trkpt>
<trkpt lat="52.953279" lon="-3.145154"><ele>304</ele><time>2019-09-27T13:19:54Z</time><name>PT10439</name></trkpt>
<trkpt lat="52.953291" lon="-3.145137"><ele>305</ele><time>2019-09-27T13:19:56Z</time><name>PT10440</name></trkpt>
<trkpt lat="52.953296" lon="-3.145124"><ele>305</ele><time>2019-09-27T13:19:57Z</time><name>PT10441</name></trkpt>
<trkpt lat="52.953301" lon="-3.145107"><ele>305</ele><time>2019-09-27T13:19:58Z</time><name>PT10442</name></trkpt>
<trkpt lat="52.953304" lon="-3.145091"><ele>304</ele><time>2019-09-27T13:19:59Z</time><name>PT10443</name></trkpt>
<trkpt lat="52.953307" lon="-3.145075"><ele>305</ele><time>2019-09-27T13:20:00Z</time><name>PT10444</name></trkpt>
<trkpt lat="52.953310" lon="-3.145060"><ele>304</ele><time>2019-09-27T13:20:00Z</time><name>PT10445</name></trkpt>
<trkpt lat="52.953312" lon="-3.145046"><ele>304</ele><time>2019-09-27T13:20:02Z</time><name>PT10446</name></trkpt>
<trkpt lat="52.953320" lon="-3.145030"><ele>305</ele><time>2019-09-27T13:20:03Z</time><name>PT10447</name></trkpt>
<trkpt lat="52.953328" lon="-3.145014"><ele>305</ele><time>2019-09-27T13:20:03Z</time><name>PT10448</name></trkpt>
<trkpt lat="52.953333" lon="-3.144997"><ele>305</ele><time>2019-09-27T13:20:05Z</time><name>PT10449</name></trkpt>
<trkpt lat="52.953342" lon="-3.144983"><ele>305</ele><time>2019-09-27T13:20:06Z</time><name>PT10450</name></trkpt>
<trkpt lat="52.953349" lon="-3.144971"><ele>305</ele><time>2019-09-27T13:20:06Z</time><name>PT10451</name></trkpt>
<trkpt lat="52.953354" lon="-3.144957"><ele>305</ele><time>2019-09-27T13:20:08Z</time><name>PT10452</name></trkpt>
<trkpt lat="52.953358" lon="-3.144943"><ele>304</ele><time>2019-09-27T13:20:09Z</time><name>PT10453</name></trkpt>
<trkpt lat="52.953371" lon="-3.144931"><ele>305</ele><time>2019-09-27T13:20:09Z</time><name>PT10454</name></trkpt>
<trkpt lat="52.953387" lon="-3.144915"><ele>306</ele><time>2019-09-27T13:20:11Z</time><name>PT10455</name></trkpt>
<trkpt lat="52.953395" lon="-3.144902"><ele>306</ele><time>2019-09-27T13:20:12Z</time><name>PT10456</name></trkpt>
<trkpt lat="52.953396" lon="-3.144888"><ele>305</ele><time>2019-09-27T13:20:13Z</time><name>PT10457</name></trkpt>
<trkpt lat="52.953407" lon="-3.144876"><ele>305</ele><time>2019-09-27T13:20:14Z</time><name>PT10458</name></trkpt>
<trkpt lat="52.953410" lon="-3.144864"><ele>305</ele><time>2019-09-27T13:20:15Z</time><name>PT10459</name></trkpt>
<trkpt lat="52.953416" lon="-3.144852"><ele>304</ele><time>2019-09-27T13:20:15Z</time><name>PT10460</name></trkpt>
<trkpt lat="52.953420" lon="-3.144839"><ele>304</ele><time>2019-09-27T13:20:17Z</time><name>PT10461</name></trkpt>
<trkpt lat="52.953425" lon="-3.144824"><ele>304</ele><time>2019-09-27T13:20:18Z</time><name>PT10462</name></trkpt>
<trkpt lat="52.953429" lon="-3.144811"><ele>304</ele><time>2019-09-27T13:20:18Z</time><name>PT10463</name></trkpt>
<trkpt lat="52.953433" lon="-3.144800"><ele>304</ele><time>2019-09-27T13:20:20Z</time><name>PT10464</name></trkpt>
<trkpt lat="52.953438" lon="-3.144787"><ele>303</ele><time>2019-09-27T13:20:21Z</time><name>PT10465</name></trkpt>
<trkpt lat="52.953444" lon="-3.144774"><ele>304</ele><time>2019-09-27T13:20:21Z</time><name>PT10466</name></trkpt>
<trkpt lat="52.953456" lon="-3.144763"><ele>304</ele><time>2019-09-27T13:20:23Z</time><name>PT10467</name></trkpt>
<trkpt lat="52.953464" lon="-3.144750"><ele>304</ele><time>2019-09-27T13:20:24Z</time><name>PT10468</name></trkpt>
<trkpt lat="52.953469" lon="-3.144734"><ele>304</ele><time>2019-09-27T13:20:24Z</time><name>PT10469</name></trkpt>
<trkpt lat="52.953478" lon="-3.144721"><ele>304</ele><time>2019-09-27T13:20:26Z</time><name>PT10470</name></trkpt>
<trkpt lat="52.953482" lon="-3.144706"><ele>304</ele><time>2019-09-27T13:20:27Z</time><name>PT10471</name></trkpt>
<trkpt lat="52.953481" lon="-3.144694"><ele>303</ele><time>2019-09-27T13:20:28Z</time><name>PT10472</name></trkpt>
<trkpt lat="52.953487" lon="-3.144678"><ele>303</ele><time>2019-09-27T13:20:29Z</time><name>PT10473</name></trkpt>
<trkpt lat="52.953501" lon="-3.144659"><ele>304</ele><time>2019-09-27T13:20:30Z</time><name>PT10474</name></trkpt>
<trkpt lat="52.953502" lon="-3.144641"><ele>303</ele><time>2019-09-27T13:20:30Z</time><name>PT10475</name></trkpt>
<trkpt lat="52.953501" lon="-3.144627"><ele>303</ele><time>2019-09-27T13:20:32Z</time><name>PT10476</name></trkpt>
<trkpt lat="52.953502" lon="-3.144613"><ele>302</ele><time>2019-09-27T13:20:33Z</time><name>PT10477</name></trkpt>
<trkpt lat="52.953504" lon="-3.144600"><ele>302</ele><time>2019-09-27T13:20:33Z</time><name>PT10478</name></trkpt>
<trkpt lat="52.953504" lon="-3.144588"><ele>301</ele><time>2019-09-27T13:20:35Z</time><name>PT10479</name></trkpt>
<trkpt lat="52.953502" lon="-3.144572"><ele>300</ele><time>2019-09-27T13:20:36Z</time><name>PT10480</name></trkpt>
<trkpt lat="52.953507" lon="-3.144565"><ele>300</ele><time>2019-09-27T13:20:36Z</time><name>PT10481</name></trkpt>
<trkpt lat="52.953509" lon="-3.144553"><ele>300</ele><time>2019-09-27T13:20:38Z</time><name>PT10482</name></trkpt>
<trkpt lat="52.953518" lon="-3.144542"><ele>300</ele><time>2019-09-27T13:20:39Z</time><name>PT10483</name></trkpt>
<trkpt lat="52.953526" lon="-3.144530"><ele>300</ele><time>2019-09-27T13:20:39Z</time><name>PT10484</name></trkpt>
<trkpt lat="52.953531" lon="-3.144516"><ele>299</ele><time>2019-09-27T13:20:41Z</time><name>PT10485</name></trkpt>
<trkpt lat="52.953537" lon="-3.144502"><ele>299</ele><time>2019-09-27T13:20:42Z</time><name>PT10486</name></trkpt>
<trkpt lat="52.953542" lon="-3.144485"><ele>298</ele><time>2019-09-27T13:20:43Z</time><name>PT10487</name></trkpt>
<trkpt lat="52.953549" lon="-3.144473"><ele>298</ele><time>2019-09-27T13:20:44Z</time><name>PT10488</name></trkpt>
<trkpt lat="52.953554" lon="-3.144457"><ele>298</ele><time>2019-09-27T13:20:45Z</time><name>PT10489</name></trkpt>
<trkpt lat="52.953557" lon="-3.144443"><ele>297</ele><time>2019-09-27T13:20:45Z</time><name>PT10490</name></trkpt>
<trkpt lat="52.953563" lon="-3.144429"><ele>297</ele><time>2019-09-27T13:20:47Z</time><name>PT10491</name></trkpt>
<trkpt lat="52.953569" lon="-3.144417"><ele>297</ele><time>2019-09-27T13:20:48Z</time><name>PT10492</name></trkpt>
<trkpt lat="52.953570" lon="-3.144404"><ele>296</ele><time>2019-09-27T13:20:49Z</time><name>PT10493</name></trkpt>
<trkpt lat="52.953579" lon="-3.144390"><ele>296</ele><time>2019-09-27T13:20:50Z</time><name>PT10494</name></trkpt>
<trkpt lat="52.953581" lon="-3.144375"><ele>296</ele><time>2019-09-27T13:20:51Z</time><name>PT10495</name></trkpt>
<trkpt lat="52.953591" lon="-3.144357"><ele>296</ele><time>2019-09-27T13:20:51Z</time><name>PT10496</name></trkpt>
<trkpt lat="52.953598" lon="-3.144340"><ele>296</ele><time>2019-09-27T13:20:53Z</time><name>PT10497</name></trkpt>
<trkpt lat="52.953603" lon="-3.144322"><ele>296</ele><time>2019-09-27T13:20:54Z</time><name>PT10498</name></trkpt>
<trkpt lat="52.953612" lon="-3.144303"><ele>296</ele><time>2019-09-27T13:20:55Z</time><name>PT10499</name></trkpt>
<trkpt lat="52.953616" lon="-3.144287"><ele>296</ele><time>2019-09-27T13:20:56Z</time><name>PT10500</name></trkpt>
<trkpt lat="52.953619" lon="-3.144275"><ele>295</ele><time>2019-09-27T13:20:57Z</time><name>PT10501</name></trkpt>
<trkpt lat="52.953627" lon="-3.144262"><ele>296</ele><time>2019-09-27T13:20:58Z</time><name>PT10502</name></trkpt>
<trkpt lat="52.953627" lon="-3.144252"><ele>295</ele><time>2019-09-27T13:20:59Z</time><name>PT10503</name></trkpt>
<trkpt lat="52.953631" lon="-3.144241"><ele>295</ele><time>2019-09-27T13:21:00Z</time><name>PT10504</name></trkpt>
<trkpt lat="52.953638" lon="-3.144229"><ele>295</ele><time>2019-09-27T13:21:01Z</time><name>PT10505</name></trkpt>
<trkpt lat="52.953645" lon="-3.144214"><ele>295</ele><time>2019-09-27T13:21:02Z</time><name>PT10506</name></trkpt>
<trkpt lat="52.953663" lon="-3.144194"><ele>296</ele><time>2019-09-27T13:21:03Z</time><name>PT10507</name></trkpt>
<trkpt lat="52.953667" lon="-3.144177"><ele>296</ele><time>2019-09-27T13:21:04Z</time><name>PT10508</name></trkpt>
<trkpt lat="52.953676" lon="-3.144164"><ele>296</ele><time>2019-09-27T13:21:05Z</time><name>PT10509</name></trkpt>
<trkpt lat="52.953694" lon="-3.144153"><ele>297</ele><time>2019-09-27T13:21:06Z</time><name>PT10510</name></trkpt>
<trkpt lat="52.953711" lon="-3.144143"><ele>298</ele><time>2019-09-27T13:21:07Z</time><name>PT10511</name></trkpt>
<trkpt lat="52.953720" lon="-3.144134"><ele>298</ele><time>2019-09-27T13:21:08Z</time><name>PT10512</name></trkpt>
<trkpt lat="52.953732" lon="-3.144125"><ele>299</ele><time>2019-09-27T13:21:09Z</time><name>PT10513</name></trkpt>
<trkpt lat="52.953736" lon="-3.144111"><ele>298</ele><time>2019-09-27T13:21:10Z</time><name>PT10514</name></trkpt>
<trkpt lat="52.953745" lon="-3.144096"><ele>298</ele><time>2019-09-27T13:21:11Z</time><name>PT10515</name></trkpt>
<trkpt lat="52.953752" lon="-3.144080"><ele>298</ele><time>2019-09-27T13:21:12Z</time><name>PT10516</name></trkpt>
<trkpt lat="52.953756" lon="-3.144065"><ele>298</ele><time>2019-09-27T13:21:13Z</time><name>PT10517</name></trkpt>
<trkpt lat="52.953761" lon="-3.144051"><ele>298</ele><time>2019-09-27T13:21:14Z</time><name>PT10518</name></trkpt>
<trkpt lat="52.953760" lon="-3.144034"><ele>296</ele><time>2019-09-27T13:21:15Z</time><name>PT10519</name></trkpt>
<trkpt lat="52.953769" lon="-3.144017"><ele>296</ele><time>2019-09-27T13:21:16Z</time><name>PT10520</name></trkpt>
<trkpt lat="52.953779" lon="-3.144002"><ele>296</ele><time>2019-09-27T13:21:17Z</time><name>PT10521</name></trkpt>
<trkpt lat="52.953789" lon="-3.143989"><ele>296</ele><time>2019-09-27T13:21:18Z</time><name>PT10522</name></trkpt>
<trkpt lat="52.953797" lon="-3.143976"><ele>296</ele><time>2019-09-27T13:21:19Z</time><name>PT10523</name></trkpt>
<trkpt lat="52.953802" lon="-3.143964"><ele>296</ele><time>2019-09-27T13:21:20Z</time><name>PT10524</name></trkpt>
<trkpt lat="52.953807" lon="-3.143951"><ele>296</ele><time>2019-09-27T13:21:21Z</time><name>PT10525</name></trkpt>
<trkpt lat="52.953814" lon="-3.143934"><ele>296</ele><time>2019-09-27T13:21:22Z</time><name>PT10526</name></trkpt>
<trkpt lat="52.953822" lon="-3.143918"><ele>296</ele><time>2019-09-27T13:21:23Z</time><name>PT10527</name></trkpt>
<trkpt lat="52.953828" lon="-3.143904"><ele>295</ele><time>2019-09-27T13:21:24Z</time><name>PT10528</name></trkpt>
<trkpt lat="52.953839" lon="-3.143886"><ele>295</ele><time>2019-09-27T13:21:24Z</time><name>PT10529</name></trkpt>
<trkpt lat="52.953853" lon="-3.143872"><ele>296</ele><time>2019-09-27T13:21:26Z</time><name>PT10530</name></trkpt>
<trkpt lat="52.953863" lon="-3.143860"><ele>296</ele><time>2019-09-27T13:21:27Z</time><name>PT10531</name></trkpt>
<trkpt lat="52.953871" lon="-3.143852"><ele>296</ele><time>2019-09-27T13:21:27Z</time><name>PT10532</name></trkpt>
<trkpt lat="52.953876" lon="-3.143840"><ele>296</ele><time>2019-09-27T13:21:29Z</time><name>PT10533</name></trkpt>
<trkpt lat="52.953876" lon="-3.143830"><ele>295</ele><time>2019-09-27T13:21:30Z</time><name>PT10534</name></trkpt>
<trkpt lat="52.953881" lon="-3.143819"><ele>295</ele><time>2019-09-27T13:21:30Z</time><name>PT10535</name></trkpt>
<trkpt lat="52.953889" lon="-3.143808"><ele>295</ele><time>2019-09-27T13:21:32Z</time><name>PT10536</name></trkpt>
<trkpt lat="52.953894" lon="-3.143794"><ele>294</ele><time>2019-09-27T13:21:33Z</time><name>PT10537</name></trkpt>
<trkpt lat="52.953899" lon="-3.143782"><ele>294</ele><time>2019-09-27T13:21:33Z</time><name>PT10538</name></trkpt>
<trkpt lat="52.953902" lon="-3.143767"><ele>294</ele><time>2019-09-27T13:21:35Z</time><name>PT10539</name></trkpt>
<trkpt lat="52.953904" lon="-3.143750"><ele>294</ele><time>2019-09-27T13:21:36Z</time><name>PT10540</name></trkpt>
<trkpt lat="52.953912" lon="-3.143735"><ele>294</ele><time>2019-09-27T13:21:36Z</time><name>PT10541</name></trkpt>
<trkpt lat="52.953920" lon="-3.143719"><ele>293</ele><time>2019-09-27T13:21:38Z</time><name>PT10542</name></trkpt>
<trkpt lat="52.953928" lon="-3.143706"><ele>294</ele><time>2019-09-27T13:21:39Z</time><name>PT10543</name></trkpt>
<trkpt lat="52.953934" lon="-3.143693"><ele>294</ele><time>2019-09-27T13:21:39Z</time><name>PT10544</name></trkpt>
<trkpt lat="52.953941" lon="-3.143678"><ele>294</ele><time>2019-09-27T13:21:41Z</time><name>PT10545</name></trkpt>
<trkpt lat="52.953946" lon="-3.143663"><ele>294</ele><time>2019-09-27T13:21:42Z</time><name>PT10546</name></trkpt>
<trkpt lat="52.953951" lon="-3.143650"><ele>293</ele><time>2019-09-27T13:21:42Z</time><name>PT10547</name></trkpt>
<trkpt lat="52.953961" lon="-3.143636"><ele>294</ele><time>2019-09-27T13:21:44Z</time><name>PT10548</name></trkpt>
<trkpt lat="52.953962" lon="-3.143625"><ele>293</ele><time>2019-09-27T13:21:45Z</time><name>PT10549</name></trkpt>
<trkpt lat="52.953971" lon="-3.143611"><ele>293</ele><time>2019-09-27T13:21:45Z</time><name>PT10550</name></trkpt>
<trkpt lat="52.953985" lon="-3.143596"><ele>294</ele><time>2019-09-27T13:21:47Z</time><name>PT10551</name></trkpt>
<trkpt lat="52.953994" lon="-3.143581"><ele>294</ele><time>2019-09-27T13:21:48Z</time><name>PT10552</name></trkpt>
<trkpt lat="52.954001" lon="-3.143567"><ele>294</ele><time>2019-09-27T13:21:48Z</time><name>PT10553</name></trkpt>
<trkpt lat="52.954008" lon="-3.143554"><ele>293</ele><time>2019-09-27T13:21:50Z</time><name>PT10554</name></trkpt>
<trkpt lat="52.954014" lon="-3.143542"><ele>293</ele><time>2019-09-27T13:21:51Z</time><name>PT10555</name></trkpt>
<trkpt lat="52.954020" lon="-3.143526"><ele>293</ele><time>2019-09-27T13:21:51Z</time><name>PT10556</name></trkpt>
<trkpt lat="52.954025" lon="-3.143512"><ele>293</ele><time>2019-09-27T13:21:53Z</time><name>PT10557</name></trkpt>
<trkpt lat="52.954031" lon="-3.143501"><ele>293</ele><time>2019-09-27T13:21:54Z</time><name>PT10558</name></trkpt>
<trkpt lat="52.954044" lon="-3.143490"><ele>294</ele><time>2019-09-27T13:21:54Z</time><name>PT10559</name></trkpt>
<trkpt lat="52.954051" lon="-3.143477"><ele>294</ele><time>2019-09-27T13:21:56Z</time><name>PT10560</name></trkpt>
<trkpt lat="52.954055" lon="-3.143464"><ele>293</ele><time>2019-09-27T13:21:57Z</time><name>PT10561</name></trkpt>
<trkpt lat="52.954058" lon="-3.143450"><ele>293</ele><time>2019-09-27T13:21:57Z</time><name>PT10562</name></trkpt>
<trkpt lat="52.954061" lon="-3.143439"><ele>292</ele><time>2019-09-27T13:21:59Z</time><name>PT10563</name></trkpt>
<trkpt lat="52.954074" lon="-3.143427"><ele>292</ele><time>2019-09-27T13:22:00Z</time><name>PT10564</name></trkpt>
<trkpt lat="52.954078" lon="-3.143413"><ele>292</ele><time>2019-09-27T13:22:00Z</time><name>PT10565</name></trkpt>
<trkpt lat="52.954092" lon="-3.143403"><ele>293</ele><time>2019-09-27T13:22:02Z</time><name>PT10566</name></trkpt>
<trkpt lat="52.954095" lon="-3.143394"><ele>293</ele><time>2019-09-27T13:22:03Z</time><name>PT10567</name></trkpt>
<trkpt lat="52.954107" lon="-3.143383"><ele>293</ele><time>2019-09-27T13:22:03Z</time><name>PT10568</name></trkpt>
<trkpt lat="52.954116" lon="-3.143369"><ele>294</ele><time>2019-09-27T13:22:05Z</time><name>PT10569</name></trkpt>
<trkpt lat="52.954119" lon="-3.143358"><ele>293</ele><time>2019-09-27T13:22:06Z</time><name>PT10570</name></trkpt>
<trkpt lat="52.954121" lon="-3.143346"><ele>293</ele><time>2019-09-27T13:22:06Z</time><name>PT10571</name></trkpt>
<trkpt lat="52.954130" lon="-3.143333"><ele>293</ele><time>2019-09-27T13:22:08Z</time><name>PT10572</name></trkpt>
<trkpt lat="52.954138" lon="-3.143319"><ele>293</ele><time>2019-09-27T13:22:09Z</time><name>PT10573</name></trkpt>
<trkpt lat="52.954152" lon="-3.143312"><ele>293</ele><time>2019-09-27T13:22:10Z</time><name>PT10574</name></trkpt>
<trkpt lat="52.954158" lon="-3.143297"><ele>293</ele><time>2019-09-27T13:22:11Z</time><name>PT10575</name></trkpt>
<trkpt lat="52.954166" lon="-3.143284"><ele>293</ele><time>2019-09-27T13:22:12Z</time><name>PT10576</name></trkpt>
<trkpt lat="52.954175" lon="-3.143271"><ele>293</ele><time>2019-09-27T13:22:12Z</time><name>PT10577</name></trkpt>
<trkpt lat="52.954184" lon="-3.143260"><ele>294</ele><time>2019-09-27T13:22:14Z</time><name>PT10578</name></trkpt>
<trkpt lat="52.954193" lon="-3.143247"><ele>294</ele><time>2019-09-27T13:22:15Z</time><name>PT10579</name></trkpt>
<trkpt lat="52.954200" lon="-3.143235"><ele>294</ele><time>2019-09-27T13:22:15Z</time><name>PT10580</name></trkpt>
<trkpt lat="52.954200" lon="-3.143224"><ele>293</ele><time>2019-09-27T13:22:17Z</time><name>PT10581</name></trkpt>
<trkpt lat="52.954201" lon="-3.143212"><ele>293</ele><time>2019-09-27T13:22:18Z</time><name>PT10582</name></trkpt>
<trkpt lat="52.954207" lon="-3.143201"><ele>292</ele><time>2019-09-27T13:22:18Z</time><name>PT10583</name></trkpt>
<trkpt lat="52.954215" lon="-3.143191"><ele>292</ele><time>2019-09-27T13:22:20Z</time><name>PT10584</name></trkpt>
<trkpt lat="52.954227" lon="-3.143177"><ele>292</ele><time>2019-09-27T13:22:21Z</time><name>PT10585</name></trkpt>
<trkpt lat="52.954236" lon="-3.143165"><ele>292</ele><time>2019-09-27T13:22:21Z</time><name>PT10586</name></trkpt>
<trkpt lat="52.954244" lon="-3.143154"><ele>292</ele><time>2019-09-27T13:22:23Z</time><name>PT10587</name></trkpt>
<trkpt lat="52.954251" lon="-3.143140"><ele>292</ele><time>2019-09-27T13:22:24Z</time><name>PT10588</name></trkpt>
<trkpt lat="52.954263" lon="-3.143127"><ele>292</ele><time>2019-09-27T13:22:24Z</time><name>PT10589</name></trkpt>
<trkpt lat="52.954272" lon="-3.143116"><ele>292</ele><time>2019-09-27T13:22:26Z</time><name>PT10590</name></trkpt>
<trkpt lat="52.954280" lon="-3.143105"><ele>293</ele><time>2019-09-27T13:22:27Z</time><name>PT10591</name></trkpt>
<trkpt lat="52.954284" lon="-3.143094"><ele>292</ele><time>2019-09-27T13:22:27Z</time><name>PT10592</name></trkpt>
<trkpt lat="52.954292" lon="-3.143085"><ele>292</ele><time>2019-09-27T13:22:29Z</time><name>PT10593</name></trkpt>
<trkpt lat="52.954299" lon="-3.143073"><ele>292</ele><time>2019-09-27T13:22:30Z</time><name>PT10594</name></trkpt>
<trkpt lat="52.954307" lon="-3.143060"><ele>292</ele><time>2019-09-27T13:22:30Z</time><name>PT10595</name></trkpt>
<trkpt lat="52.954316" lon="-3.143049"><ele>292</ele><time>2019-09-27T13:22:32Z</time><name>PT10596</name></trkpt>
<trkpt lat="52.954316" lon="-3.143039"><ele>292</ele><time>2019-09-27T13:22:33Z</time><name>PT10597</name></trkpt>
<trkpt lat="52.954320" lon="-3.143026"><ele>292</ele><time>2019-09-27T13:22:34Z</time><name>PT10598</name></trkpt>
<trkpt lat="52.954323" lon="-3.143015"><ele>291</ele><time>2019-09-27T13:22:35Z</time><name>PT10599</name></trkpt>
<trkpt lat="52.954325" lon="-3.143003"><ele>291</ele><time>2019-09-27T13:22:36Z</time><name>PT10600</name></trkpt>
<trkpt lat="52.954327" lon="-3.142990"><ele>290</ele><time>2019-09-27T13:22:37Z</time><name>PT10601</name></trkpt>
<trkpt lat="52.954330" lon="-3.142974"><ele>290</ele><time>2019-09-27T13:22:38Z</time><name>PT10602</name></trkpt>
<trkpt lat="52.954333" lon="-3.142961"><ele>290</ele><time>2019-09-27T13:22:39Z</time><name>PT10603</name></trkpt>
<trkpt lat="52.954348" lon="-3.142950"><ele>290</ele><time>2019-09-27T13:22:39Z</time><name>PT10604</name></trkpt>
<trkpt lat="52.954358" lon="-3.142941"><ele>290</ele><time>2019-09-27T13:22:41Z</time><name>PT10605</name></trkpt>
<trkpt lat="52.954364" lon="-3.142930"><ele>290</ele><time>2019-09-27T13:22:42Z</time><name>PT10606</name></trkpt>
<trkpt lat="52.954367" lon="-3.142922"><ele>290</ele><time>2019-09-27T13:22:43Z</time><name>PT10607</name></trkpt>
<trkpt lat="52.954377" lon="-3.142914"><ele>290</ele><time>2019-09-27T13:22:44Z</time><name>PT10608</name></trkpt>
<trkpt lat="52.954381" lon="-3.142907"><ele>290</ele><time>2019-09-27T13:22:45Z</time><name>PT10609</name></trkpt>
<trkpt lat="52.954383" lon="-3.142897"><ele>289</ele><time>2019-09-27T13:22:46Z</time><name>PT10610</name></trkpt>
<trkpt lat="52.954389" lon="-3.142889"><ele>289</ele><time>2019-09-27T13:22:47Z</time><name>PT10611</name></trkpt>
<trkpt lat="52.954398" lon="-3.142885"><ele>289</ele><time>2019-09-27T13:22:48Z</time><name>PT10612</name></trkpt>
<trkpt lat="52.954411" lon="-3.142876"><ele>289</ele><time>2019-09-27T13:22:49Z</time><name>PT10613</name></trkpt>
<trkpt lat="52.954418" lon="-3.142866"><ele>289</ele><time>2019-09-27T13:22:50Z</time><name>PT10614</name></trkpt>
<trkpt lat="52.954433" lon="-3.142859"><ele>290</ele><time>2019-09-27T13:22:51Z</time><name>PT10615</name></trkpt>
<trkpt lat="52.954437" lon="-3.142852"><ele>289</ele><time>2019-09-27T13:22:52Z</time><name>PT10616</name></trkpt>
<trkpt lat="52.954440" lon="-3.142846"><ele>289</ele><time>2019-09-27T13:22:53Z</time><name>PT10617</name></trkpt>
<trkpt lat="52.954447" lon="-3.142836"><ele>289</ele><time>2019-09-27T13:22:54Z</time><name>PT10618</name></trkpt>
<trkpt lat="52.954457" lon="-3.142824"><ele>290</ele><time>2019-09-27T13:22:55Z</time><name>PT10619</name></trkpt>
<trkpt lat="52.954466" lon="-3.142813"><ele>290</ele><time>2019-09-27T13:22:56Z</time><name>PT10620</name></trkpt>
<trkpt lat="52.954473" lon="-3.142802"><ele>289</ele><time>2019-09-27T13:22:57Z</time><name>PT10621</name></trkpt>
<trkpt lat="52.954488" lon="-3.142794"><ele>290</ele><time>2019-09-27T13:22:57Z</time><name>PT10622</name></trkpt>
<trkpt lat="52.954496" lon="-3.142785"><ele>290</ele><time>2019-09-27T13:22:59Z</time><name>PT10623</name></trkpt>
<trkpt lat="52.954503" lon="-3.142773"><ele>290</ele><time>2019-09-27T13:23:00Z</time><name>PT10624</name></trkpt>
<trkpt lat="52.954506" lon="-3.142761"><ele>289</ele><time>2019-09-27T13:23:00Z</time><name>PT10625</name></trkpt>
<trkpt lat="52.954510" lon="-3.142749"><ele>289</ele><time>2019-09-27T13:23:02Z</time><name>PT10626</name></trkpt>
<trkpt lat="52.954521" lon="-3.142738"><ele>290</ele><time>2019-09-27T13:23:03Z</time><name>PT10627</name></trkpt>
<trkpt lat="52.954528" lon="-3.142729"><ele>290</ele><time>2019-09-27T13:23:03Z</time><name>PT10628</name></trkpt>
<trkpt lat="52.954538" lon="-3.142721"><ele>290</ele><time>2019-09-27T13:23:05Z</time><name>PT10629</name></trkpt>
<trkpt lat="52.954549" lon="-3.142711"><ele>291</ele><time>2019-09-27T13:23:06Z</time><name>PT10630</name></trkpt>
<trkpt lat="52.954556" lon="-3.142700"><ele>291</ele><time>2019-09-27T13:23:06Z</time><name>PT10631</name></trkpt>
<trkpt lat="52.954558" lon="-3.142685"><ele>290</ele><time>2019-09-27T13:23:08Z</time><name>PT10632</name></trkpt>
<trkpt lat="52.954567" lon="-3.142671"><ele>290</ele><time>2019-09-27T13:23:09Z</time><name>PT10633</name></trkpt>
<trkpt lat="52.954573" lon="-3.142657"><ele>289</ele><time>2019-09-27T13:23:09Z</time><name>PT10634</name></trkpt>
<trkpt lat="52.954582" lon="-3.142645"><ele>289</ele><time>2019-09-27T13:23:11Z</time><name>PT10635</name></trkpt>
<trkpt lat="52.954586" lon="-3.142632"><ele>289</ele><time>2019-09-27T13:23:12Z</time><name>PT10636</name></trkpt>
<trkpt lat="52.954592" lon="-3.142623"><ele>288</ele><time>2019-09-27T13:23:12Z</time><name>PT10637</name></trkpt>
<trkpt lat="52.954603" lon="-3.142615"><ele>289</ele><time>2019-09-27T13:23:14Z</time><name>PT10638</name></trkpt>
<trkpt lat="52.954611" lon="-3.142603"><ele>289</ele><time>2019-09-27T13:23:15Z</time><name>PT10639</name></trkpt>
<trkpt lat="52.954615" lon="-3.142593"><ele>289</ele><time>2019-09-27T13:23:15Z</time><name>PT10640</name></trkpt>
<trkpt lat="52.954623" lon="-3.142587"><ele>289</ele><time>2019-09-27T13:23:17Z</time><name>PT10641</name></trkpt>
<trkpt lat="52.954630" lon="-3.142580"><ele>288</ele><time>2019-09-27T13:23:18Z</time><name>PT10642</name></trkpt>
<trkpt lat="52.954636" lon="-3.142575"><ele>288</ele><time>2019-09-27T13:23:18Z</time><name>PT10643</name></trkpt>
<trkpt lat="52.954640" lon="-3.142572"><ele>288</ele><time>2019-09-27T13:23:20Z</time><name>PT10644</name></trkpt>
<trkpt lat="52.954645" lon="-3.142570"><ele>289</ele><time>2019-09-27T13:23:21Z</time><name>PT10645</name></trkpt>
<trkpt lat="52.954646" lon="-3.142568"><ele>289</ele><time>2019-09-27T13:23:21Z</time><name>PT10646</name></trkpt>
<trkpt lat="52.954645" lon="-3.142562"><ele>289</ele><time>2019-09-27T13:23:26Z</time><name>PT10647</name></trkpt>
<trkpt lat="52.954653" lon="-3.142542"><ele>289</ele><time>2019-09-27T13:23:27Z</time><name>PT10648</name></trkpt>
<trkpt lat="52.954655" lon="-3.142527"><ele>289</ele><time>2019-09-27T13:23:28Z</time><name>PT10649</name></trkpt>
<trkpt lat="52.954658" lon="-3.142508"><ele>288</ele><time>2019-09-27T13:23:29Z</time><name>PT10650</name></trkpt>
<trkpt lat="52.954664" lon="-3.142496"><ele>287</ele><time>2019-09-27T13:23:30Z</time><name>PT10651</name></trkpt>
<trkpt lat="52.954667" lon="-3.142484"><ele>287</ele><time>2019-09-27T13:23:30Z</time><name>PT10652</name></trkpt>
<trkpt lat="52.954675" lon="-3.142472"><ele>286</ele><time>2019-09-27T13:23:32Z</time><name>PT10653</name></trkpt>
<trkpt lat="52.954683" lon="-3.142462"><ele>286</ele><time>2019-09-27T13:23:33Z</time><name>PT10654</name></trkpt>
<trkpt lat="52.954687" lon="-3.142458"><ele>285</ele><time>2019-09-27T13:23:34Z</time><name>PT10655</name></trkpt>
<trkpt lat="52.954692" lon="-3.142444"><ele>285</ele><time>2019-09-27T13:23:35Z</time><name>PT10656</name></trkpt>
<trkpt lat="52.954692" lon="-3.142426"><ele>284</ele><time>2019-09-27T13:23:36Z</time><name>PT10657</name></trkpt>
<trkpt lat="52.954702" lon="-3.142412"><ele>284</ele><time>2019-09-27T13:23:36Z</time><name>PT10658</name></trkpt>
<trkpt lat="52.954716" lon="-3.142404"><ele>284</ele><time>2019-09-27T13:23:38Z</time><name>PT10659</name></trkpt>
<trkpt lat="52.954725" lon="-3.142395"><ele>284</ele><time>2019-09-27T13:23:39Z</time><name>PT10660</name></trkpt>
<trkpt lat="52.954732" lon="-3.142386"><ele>284</ele><time>2019-09-27T13:23:39Z</time><name>PT10661</name></trkpt>
<trkpt lat="52.954740" lon="-3.142385"><ele>284</ele><time>2019-09-27T13:23:41Z</time><name>PT10662</name></trkpt>
<trkpt lat="52.954744" lon="-3.142374"><ele>283</ele><time>2019-09-27T13:23:42Z</time><name>PT10663</name></trkpt>
<trkpt lat="52.954749" lon="-3.142364"><ele>283</ele><time>2019-09-27T13:23:42Z</time><name>PT10664</name></trkpt>
<trkpt lat="52.954754" lon="-3.142353"><ele>282</ele><time>2019-09-27T13:23:44Z</time><name>PT10665</name></trkpt>
<trkpt lat="52.954759" lon="-3.142343"><ele>282</ele><time>2019-09-27T13:23:45Z</time><name>PT10666</name></trkpt>
<trkpt lat="52.954763" lon="-3.142332"><ele>282</ele><time>2019-09-27T13:23:45Z</time><name>PT10667</name></trkpt>
<trkpt lat="52.954768" lon="-3.142318"><ele>282</ele><time>2019-09-27T13:23:47Z</time><name>PT10668</name></trkpt>
<trkpt lat="52.954776" lon="-3.142307"><ele>282</ele><time>2019-09-27T13:23:48Z</time><name>PT10669</name></trkpt>
<trkpt lat="52.954783" lon="-3.142295"><ele>281</ele><time>2019-09-27T13:23:49Z</time><name>PT10670</name></trkpt>
<trkpt lat="52.954789" lon="-3.142283"><ele>281</ele><time>2019-09-27T13:23:50Z</time><name>PT10671</name></trkpt>
<trkpt lat="52.954794" lon="-3.142272"><ele>280</ele><time>2019-09-27T13:23:51Z</time><name>PT10672</name></trkpt>
<trkpt lat="52.954799" lon="-3.142260"><ele>280</ele><time>2019-09-27T13:23:51Z</time><name>PT10673</name></trkpt>
<trkpt lat="52.954804" lon="-3.142249"><ele>280</ele><time>2019-09-27T13:23:53Z</time><name>PT10674</name></trkpt>
<trkpt lat="52.954812" lon="-3.142239"><ele>279</ele><time>2019-09-27T13:23:54Z</time><name>PT10675</name></trkpt>
<trkpt lat="52.954814" lon="-3.142229"><ele>279</ele><time>2019-09-27T13:23:55Z</time><name>PT10676</name></trkpt>
<trkpt lat="52.954818" lon="-3.142219"><ele>278</ele><time>2019-09-27T13:23:56Z</time><name>PT10677</name></trkpt>
<trkpt lat="52.954824" lon="-3.142207"><ele>279</ele><time>2019-09-27T13:23:57Z</time><name>PT10678</name></trkpt>
<trkpt lat="52.954832" lon="-3.142199"><ele>278</ele><time>2019-09-27T13:23:57Z</time><name>PT10679</name></trkpt>
<trkpt lat="52.954839" lon="-3.142192"><ele>278</ele><time>2019-09-27T13:23:59Z</time><name>PT10680</name></trkpt>
<trkpt lat="52.954840" lon="-3.142183"><ele>277</ele><time>2019-09-27T13:24:00Z</time><name>PT10681</name></trkpt>
<trkpt lat="52.954844" lon="-3.142172"><ele>277</ele><time>2019-09-27T13:24:00Z</time><name>PT10682</name></trkpt>
<trkpt lat="52.954846" lon="-3.142160"><ele>277</ele><time>2019-09-27T13:24:02Z</time><name>PT10683</name></trkpt>
<trkpt lat="52.954854" lon="-3.142150"><ele>277</ele><time>2019-09-27T13:24:03Z</time><name>PT10684</name></trkpt>
<trkpt lat="52.954867" lon="-3.142146"><ele>277</ele><time>2019-09-27T13:24:03Z</time><name>PT10685</name></trkpt>
<trkpt lat="52.954877" lon="-3.142138"><ele>276</ele><time>2019-09-27T13:24:05Z</time><name>PT10686</name></trkpt>
<trkpt lat="52.954885" lon="-3.142131"><ele>276</ele><time>2019-09-27T13:24:06Z</time><name>PT10687</name></trkpt>
<trkpt lat="52.954890" lon="-3.142121"><ele>276</ele><time>2019-09-27T13:24:06Z</time><name>PT10688</name></trkpt>
<trkpt lat="52.954900" lon="-3.142114"><ele>276</ele><time>2019-09-27T13:24:08Z</time><name>PT10689</name></trkpt>
<trkpt lat="52.954906" lon="-3.142102"><ele>276</ele><time>2019-09-27T13:24:09Z</time><name>PT10690</name></trkpt>
<trkpt lat="52.954913" lon="-3.142094"><ele>276</ele><time>2019-09-27T13:24:09Z</time><name>PT10691</name></trkpt>
<trkpt lat="52.954916" lon="-3.142080"><ele>275</ele><time>2019-09-27T13:24:11Z</time><name>PT10692</name></trkpt>
<trkpt lat="52.954922" lon="-3.142070"><ele>275</ele><time>2019-09-27T13:24:12Z</time><name>PT10693</name></trkpt>
<trkpt lat="52.954924" lon="-3.142058"><ele>275</ele><time>2019-09-27T13:24:12Z</time><name>PT10694</name></trkpt>
<trkpt lat="52.954931" lon="-3.142045"><ele>275</ele><time>2019-09-27T13:24:14Z</time><name>PT10695</name></trkpt>
<trkpt lat="52.954939" lon="-3.142034"><ele>274</ele><time>2019-09-27T13:24:15Z</time><name>PT10696</name></trkpt>
<trkpt lat="52.954949" lon="-3.142027"><ele>275</ele><time>2019-09-27T13:24:15Z</time><name>PT10697</name></trkpt>
<trkpt lat="52.954952" lon="-3.142018"><ele>274</ele><time>2019-09-27T13:24:17Z</time><name>PT10698</name></trkpt>
<trkpt lat="52.954962" lon="-3.142006"><ele>274</ele><time>2019-09-27T13:24:18Z</time><name>PT10699</name></trkpt>
<trkpt lat="52.954961" lon="-3.141994"><ele>273</ele><time>2019-09-27T13:24:19Z</time><name>PT10700</name></trkpt>
<trkpt lat="52.954965" lon="-3.141982"><ele>273</ele><time>2019-09-27T13:24:20Z</time><name>PT10701</name></trkpt>
<trkpt lat="52.954974" lon="-3.141968"><ele>273</ele><time>2019-09-27T13:24:21Z</time><name>PT10702</name></trkpt>
<trkpt lat="52.954983" lon="-3.141951"><ele>273</ele><time>2019-09-27T13:24:21Z</time><name>PT10703</name></trkpt>
<trkpt lat="52.954998" lon="-3.141941"><ele>274</ele><time>2019-09-27T13:24:23Z</time><name>PT10704</name></trkpt>
<trkpt lat="52.955000" lon="-3.141931"><ele>273</ele><time>2019-09-27T13:24:24Z</time><name>PT10705</name></trkpt>
<trkpt lat="52.955012" lon="-3.141925"><ele>274</ele><time>2019-09-27T13:24:24Z</time><name>PT10706</name></trkpt>
<trkpt lat="52.955015" lon="-3.141914"><ele>274</ele><time>2019-09-27T13:24:26Z</time><name>PT10707</name></trkpt>
<trkpt lat="52.955028" lon="-3.141903"><ele>274</ele><time>2019-09-27T13:24:27Z</time><name>PT10708</name></trkpt>
<trkpt lat="52.955034" lon="-3.141890"><ele>274</ele><time>2019-09-27T13:24:27Z</time><name>PT10709</name></trkpt>
<trkpt lat="52.955042" lon="-3.141883"><ele>274</ele><time>2019-09-27T13:24:29Z</time><name>PT10710</name></trkpt>
<trkpt lat="52.955048" lon="-3.141870"><ele>274</ele><time>2019-09-27T13:24:30Z</time><name>PT10711</name></trkpt>
<trkpt lat="52.955051" lon="-3.141858"><ele>273</ele><time>2019-09-27T13:24:30Z</time><name>PT10712</name></trkpt>
<trkpt lat="52.955054" lon="-3.141850"><ele>272</ele><time>2019-09-27T13:24:32Z</time><name>PT10713</name></trkpt>
<trkpt lat="52.955064" lon="-3.141843"><ele>273</ele><time>2019-09-27T13:24:33Z</time><name>PT10714</name></trkpt>
<trkpt lat="52.955066" lon="-3.141831"><ele>272</ele><time>2019-09-27T13:24:33Z</time><name>PT10715</name></trkpt>
<trkpt lat="52.955076" lon="-3.141817"><ele>272</ele><time>2019-09-27T13:24:35Z</time><name>PT10716</name></trkpt>
<trkpt lat="52.955087" lon="-3.141811"><ele>272</ele><time>2019-09-27T13:24:36Z</time><name>PT10717</name></trkpt>
<trkpt lat="52.955094" lon="-3.141802"><ele>271</ele><time>2019-09-27T13:24:36Z</time><name>PT10718</name></trkpt>
<trkpt lat="52.955100" lon="-3.141795"><ele>270</ele><time>2019-09-27T13:24:38Z</time><name>PT10719</name></trkpt>
<trkpt lat="52.955103" lon="-3.141787"><ele>270</ele><time>2019-09-27T13:24:39Z</time><name>PT10720</name></trkpt>
<trkpt lat="52.955106" lon="-3.141776"><ele>270</ele><time>2019-09-27T13:24:40Z</time><name>PT10721</name></trkpt>
<trkpt lat="52.955112" lon="-3.141763"><ele>269</ele><time>2019-09-27T13:24:41Z</time><name>PT10722</name></trkpt>
<trkpt lat="52.955126" lon="-3.141753"><ele>270</ele><time>2019-09-27T13:24:42Z</time><name>PT10723</name></trkpt>
<trkpt lat="52.955126" lon="-3.141740"><ele>269</ele><time>2019-09-27T13:24:42Z</time><name>PT10724</name></trkpt>
<trkpt lat="52.955148" lon="-3.141724"><ele>270</ele><time>2019-09-27T13:24:44Z</time><name>PT10725</name></trkpt>
<trkpt lat="52.955150" lon="-3.141713"><ele>270</ele><time>2019-09-27T13:24:45Z</time><name>PT10726</name></trkpt>
<trkpt lat="52.955156" lon="-3.141700"><ele>269</ele><time>2019-09-27T13:24:45Z</time><name>PT10727</name></trkpt>
<trkpt lat="52.955186" lon="-3.141687"><ele>272</ele><time>2019-09-27T13:24:47Z</time><name>PT10728</name></trkpt>
<trkpt lat="52.955188" lon="-3.141671"><ele>271</ele><time>2019-09-27T13:24:48Z</time><name>PT10729</name></trkpt>
<trkpt lat="52.955197" lon="-3.141660"><ele>271</ele><time>2019-09-27T13:24:48Z</time><name>PT10730</name></trkpt>
<trkpt lat="52.955211" lon="-3.141649"><ele>271</ele><time>2019-09-27T13:24:50Z</time><name>PT10731</name></trkpt>
<trkpt lat="52.955217" lon="-3.141639"><ele>271</ele><time>2019-09-27T13:24:51Z</time><name>PT10732</name></trkpt>
<trkpt lat="52.955222" lon="-3.141633"><ele>271</ele><time>2019-09-27T13:24:51Z</time><name>PT10733</name></trkpt>
<trkpt lat="52.955223" lon="-3.141632"><ele>270</ele><time>2019-09-27T13:24:53Z</time><name>PT10734</name></trkpt>
<trkpt lat="52.955248" lon="-3.141633"><ele>271</ele><time>2019-09-27T13:24:54Z</time><name>PT10735</name></trkpt>
<trkpt lat="52.955268" lon="-3.141614"><ele>272</ele><time>2019-09-27T13:24:54Z</time><name>PT10736</name></trkpt>
<trkpt lat="52.955291" lon="-3.141598"><ele>273</ele><time>2019-09-27T13:24:56Z</time><name>PT10737</name></trkpt>
<trkpt lat="52.955302" lon="-3.141590"><ele>273</ele><time>2019-09-27T13:24:57Z</time><name>PT10738</name></trkpt>
<trkpt lat="52.955310" lon="-3.141579"><ele>273</ele><time>2019-09-27T13:24:58Z</time><name>PT10739</name></trkpt>
<trkpt lat="52.955325" lon="-3.141573"><ele>273</ele><time>2019-09-27T13:24:59Z</time><name>PT10740</name></trkpt>
<trkpt lat="52.955342" lon="-3.141569"><ele>274</ele><time>2019-09-27T13:25:00Z</time><name>PT10741</name></trkpt>
<trkpt lat="52.955351" lon="-3.141558"><ele>274</ele><time>2019-09-27T13:25:01Z</time><name>PT10742</name></trkpt>
<trkpt lat="52.955359" lon="-3.141554"><ele>274</ele><time>2019-09-27T13:25:02Z</time><name>PT10743</name></trkpt>
<trkpt lat="52.955366" lon="-3.141543"><ele>274</ele><time>2019-09-27T13:25:03Z</time><name>PT10744</name></trkpt>
<trkpt lat="52.955374" lon="-3.141535"><ele>274</ele><time>2019-09-27T13:25:03Z</time><name>PT10745</name></trkpt>
<trkpt lat="52.955383" lon="-3.141530"><ele>275</ele><time>2019-09-27T13:25:05Z</time><name>PT10746</name></trkpt>
<trkpt lat="52.955392" lon="-3.141520"><ele>275</ele><time>2019-09-27T13:25:06Z</time><name>PT10747</name></trkpt>
<trkpt lat="52.955406" lon="-3.141513"><ele>275</ele><time>2019-09-27T13:25:07Z</time><name>PT10748</name></trkpt>
<trkpt lat="52.955414" lon="-3.141510"><ele>275</ele><time>2019-09-27T13:25:08Z</time><name>PT10749</name></trkpt>
<trkpt lat="52.955418" lon="-3.141506"><ele>275</ele><time>2019-09-27T13:25:09Z</time><name>PT10750</name></trkpt>
<trkpt lat="52.955431" lon="-3.141498"><ele>274</ele><time>2019-09-27T13:25:10Z</time><name>PT10751</name></trkpt>
<trkpt lat="52.955439" lon="-3.141495"><ele>274</ele><time>2019-09-27T13:25:11Z</time><name>PT10752</name></trkpt>
<trkpt lat="52.955447" lon="-3.141492"><ele>274</ele><time>2019-09-27T13:25:12Z</time><name>PT10753</name></trkpt>
<trkpt lat="52.955458" lon="-3.141490"><ele>275</ele><time>2019-09-27T13:25:13Z</time><name>PT10754</name></trkpt>
<trkpt lat="52.955465" lon="-3.141484"><ele>275</ele><time>2019-09-27T13:25:14Z</time><name>PT10755</name></trkpt>
<trkpt lat="52.955466" lon="-3.141477"><ele>274</ele><time>2019-09-27T13:25:15Z</time><name>PT10756</name></trkpt>
<trkpt lat="52.955466" lon="-3.141472"><ele>274</ele><time>2019-09-27T13:25:16Z</time><name>PT10757</name></trkpt>
<trkpt lat="52.955472" lon="-3.141469"><ele>273</ele><time>2019-09-27T13:25:17Z</time><name>PT10758</name></trkpt>
<trkpt lat="52.955480" lon="-3.141462"><ele>272</ele><time>2019-09-27T13:25:18Z</time><name>PT10759</name></trkpt>
<trkpt lat="52.955493" lon="-3.141462"><ele>273</ele><time>2019-09-27T13:25:19Z</time><name>PT10760</name></trkpt>
<trkpt lat="52.955502" lon="-3.141462"><ele>273</ele><time>2019-09-27T13:25:20Z</time><name>PT10761</name></trkpt>
<trkpt lat="52.955510" lon="-3.141457"><ele>273</ele><time>2019-09-27T13:25:21Z</time><name>PT10762</name></trkpt>
<trkpt lat="52.955515" lon="-3.141452"><ele>273</ele><time>2019-09-27T13:25:21Z</time><name>PT10763</name></trkpt>
<trkpt lat="52.955516" lon="-3.141444"><ele>273</ele><time>2019-09-27T13:25:23Z</time><name>PT10764</name></trkpt>
<trkpt lat="52.955523" lon="-3.141435"><ele>273</ele><time>2019-09-27T13:25:24Z</time><name>PT10765</name></trkpt>
<trkpt lat="52.955524" lon="-3.141424"><ele>272</ele><time>2019-09-27T13:25:24Z</time><name>PT10766</name></trkpt>
<trkpt lat="52.955536" lon="-3.141419"><ele>272</ele><time>2019-09-27T13:25:26Z</time><name>PT10767</name></trkpt>
<trkpt lat="52.955554" lon="-3.141404"><ele>272</ele><time>2019-09-27T13:25:27Z</time><name>PT10768</name></trkpt>
<trkpt lat="52.955566" lon="-3.141389"><ele>272</ele><time>2019-09-27T13:25:27Z</time><name>PT10769</name></trkpt>
<trkpt lat="52.955574" lon="-3.141382"><ele>272</ele><time>2019-09-27T13:25:29Z</time><name>PT10770</name></trkpt>
<trkpt lat="52.955587" lon="-3.141371"><ele>273</ele><time>2019-09-27T13:25:30Z</time><name>PT10771</name></trkpt>
<trkpt lat="52.955602" lon="-3.141368"><ele>274</ele><time>2019-09-27T13:25:30Z</time><name>PT10772</name></trkpt>
<trkpt lat="52.955610" lon="-3.141358"><ele>273</ele><time>2019-09-27T13:25:32Z</time><name>PT10773</name></trkpt>
<trkpt lat="52.955622" lon="-3.141349"><ele>273</ele><time>2019-09-27T13:25:33Z</time><name>PT10774</name></trkpt>
<trkpt lat="52.955634" lon="-3.141342"><ele>272</ele><time>2019-09-27T13:25:33Z</time><name>PT10775</name></trkpt>
<trkpt lat="52.955639" lon="-3.141329"><ele>272</ele><time>2019-09-27T13:25:35Z</time><name>PT10776</name></trkpt>
<trkpt lat="52.955652" lon="-3.141323"><ele>273</ele><time>2019-09-27T13:25:36Z</time><name>PT10777</name></trkpt>
<trkpt lat="52.955659" lon="-3.141312"><ele>272</ele><time>2019-09-27T13:25:36Z</time><name>PT10778</name></trkpt>
<trkpt lat="52.955665" lon="-3.141300"><ele>272</ele><time>2019-09-27T13:25:38Z</time><name>PT10779</name></trkpt>
<trkpt lat="52.955668" lon="-3.141287"><ele>271</ele><time>2019-09-27T13:25:39Z</time><name>PT10780</name></trkpt>
<trkpt lat="52.955679" lon="-3.141280"><ele>271</ele><time>2019-09-27T13:25:39Z</time><name>PT10781</name></trkpt>
<trkpt lat="52.955691" lon="-3.141265"><ele>270</ele><time>2019-09-27T13:25:41Z</time><name>PT10782</name></trkpt>
<trkpt lat="52.955699" lon="-3.141253"><ele>269</ele><time>2019-09-27T13:25:42Z</time><name>PT10783</name></trkpt>
<trkpt lat="52.955698" lon="-3.141239"><ele>268</ele><time>2019-09-27T13:25:42Z</time><name>PT10784</name></trkpt>
<trkpt lat="52.955700" lon="-3.141231"><ele>267</ele><time>2019-09-27T13:25:44Z</time><name>PT10785</name></trkpt>
<trkpt lat="52.955710" lon="-3.141222"><ele>267</ele><time>2019-09-27T13:25:45Z</time><name>PT10786</name></trkpt>
<trkpt lat="52.955725" lon="-3.141213"><ele>267</ele><time>2019-09-27T13:25:45Z</time><name>PT10787</name></trkpt>
<trkpt lat="52.955733" lon="-3.141206"><ele>267</ele><time>2019-09-27T13:25:47Z</time><name>PT10788</name></trkpt>
<trkpt lat="52.955742" lon="-3.141198"><ele>267</ele><time>2019-09-27T13:25:48Z</time><name>PT10789</name></trkpt>
<trkpt lat="52.955745" lon="-3.141188"><ele>266</ele><time>2019-09-27T13:25:48Z</time><name>PT10790</name></trkpt>
<trkpt lat="52.955752" lon="-3.141181"><ele>265</ele><time>2019-09-27T13:25:50Z</time><name>PT10791</name></trkpt>
<trkpt lat="52.955760" lon="-3.141169"><ele>265</ele><time>2019-09-27T13:25:51Z</time><name>PT10792</name></trkpt>
<trkpt lat="52.955779" lon="-3.141163"><ele>265</ele><time>2019-09-27T13:25:51Z</time><name>PT10793</name></trkpt>
<trkpt lat="52.955795" lon="-3.141154"><ele>265</ele><time>2019-09-27T13:25:53Z</time><name>PT10794</name></trkpt>
<trkpt lat="52.955810" lon="-3.141143"><ele>266</ele><time>2019-09-27T13:25:54Z</time><name>PT10795</name></trkpt>
<trkpt lat="52.955824" lon="-3.141131"><ele>266</ele><time>2019-09-27T13:25:54Z</time><name>PT10796</name></trkpt>
<trkpt lat="52.955840" lon="-3.141123"><ele>267</ele><time>2019-09-27T13:25:56Z</time><name>PT10797</name></trkpt>
<trkpt lat="52.955847" lon="-3.141120"><ele>266</ele><time>2019-09-27T13:25:57Z</time><name>PT10798</name></trkpt>
<trkpt lat="52.955856" lon="-3.141109"><ele>266</ele><time>2019-09-27T13:25:57Z</time><name>PT10799</name></trkpt>
<trkpt lat="52.955874" lon="-3.141097"><ele>267</ele><time>2019-09-27T13:25:59Z</time><name>PT10800</name></trkpt>
<trkpt lat="52.955890" lon="-3.141084"><ele>268</ele><time>2019-09-27T13:26:00Z</time><name>PT10801</name></trkpt>
<trkpt lat="52.955900" lon="-3.141069"><ele>267</ele><time>2019-09-27T13:26:00Z</time><name>PT10802</name></trkpt>
<trkpt lat="52.955915" lon="-3.141061"><ele>268</ele><time>2019-09-27T13:26:02Z</time><name>PT10803</name></trkpt>
<trkpt lat="52.955929" lon="-3.141054"><ele>268</ele><time>2019-09-27T13:26:03Z</time><name>PT10804</name></trkpt>
<trkpt lat="52.955945" lon="-3.141042"><ele>270</ele><time>2019-09-27T13:26:03Z</time><name>PT10805</name></trkpt>
<trkpt lat="52.955948" lon="-3.141031"><ele>270</ele><time>2019-09-27T13:26:05Z</time><name>PT10806</name></trkpt>
<trkpt lat="52.955961" lon="-3.141022"><ele>270</ele><time>2019-09-27T13:26:06Z</time><name>PT10807</name></trkpt>
<trkpt lat="52.955972" lon="-3.141013"><ele>271</ele><time>2019-09-27T13:26:06Z</time><name>PT10808</name></trkpt>
<trkpt lat="52.955982" lon="-3.141006"><ele>271</ele><time>2019-09-27T13:26:08Z</time><name>PT10809</name></trkpt>
<trkpt lat="52.956000" lon="-3.140992"><ele>271</ele><time>2019-09-27T13:26:09Z</time><name>PT10810</name></trkpt>
<trkpt lat="52.956018" lon="-3.140983"><ele>273</ele><time>2019-09-27T13:26:10Z</time><name>PT10811</name></trkpt>
<trkpt lat="52.956030" lon="-3.140971"><ele>273</ele><time>2019-09-27T13:26:11Z</time><name>PT10812</name></trkpt>
<trkpt lat="52.956046" lon="-3.140959"><ele>274</ele><time>2019-09-27T13:26:12Z</time><name>PT10813</name></trkpt>
<trkpt lat="52.956059" lon="-3.140955"><ele>275</ele><time>2019-09-27T13:26:13Z</time><name>PT10814</name></trkpt>
<trkpt lat="52.956069" lon="-3.140954"><ele>276</ele><time>2019-09-27T13:26:14Z</time><name>PT10815</name></trkpt>
<trkpt lat="52.956080" lon="-3.140946"><ele>276</ele><time>2019-09-27T13:26:15Z</time><name>PT10816</name></trkpt>
<trkpt lat="52.956094" lon="-3.140937"><ele>276</ele><time>2019-09-27T13:26:16Z</time><name>PT10817</name></trkpt>
<trkpt lat="52.956103" lon="-3.140931"><ele>276</ele><time>2019-09-27T13:26:17Z</time><name>PT10818</name></trkpt>
<trkpt lat="52.956104" lon="-3.140917"><ele>275</ele><time>2019-09-27T13:26:18Z</time><name>PT10819</name></trkpt>
<trkpt lat="52.956108" lon="-3.140909"><ele>275</ele><time>2019-09-27T13:26:18Z</time><name>PT10820</name></trkpt>
<trkpt lat="52.956116" lon="-3.140902"><ele>275</ele><time>2019-09-27T13:26:20Z</time><name>PT10821</name></trkpt>
<trkpt lat="52.956120" lon="-3.140894"><ele>275</ele><time>2019-09-27T13:26:21Z</time><name>PT10822</name></trkpt>
<trkpt lat="52.956124" lon="-3.140895"><ele>274</ele><time>2019-09-27T13:26:22Z</time><name>PT10823</name></trkpt>
<trkpt lat="52.956127" lon="-3.140890"><ele>273</ele><time>2019-09-27T13:26:23Z</time><name>PT10824</name></trkpt>
<trkpt lat="52.956129" lon="-3.140884"><ele>272</ele><time>2019-09-27T13:26:24Z</time><name>PT10825</name></trkpt>
<trkpt lat="52.956134" lon="-3.140872"><ele>271</ele><time>2019-09-27T13:26:24Z</time><name>PT10826</name></trkpt>
<trkpt lat="52.956142" lon="-3.140861"><ele>271</ele><time>2019-09-27T13:26:26Z</time><name>PT10827</name></trkpt>
<trkpt lat="52.956147" lon="-3.140857"><ele>270</ele><time>2019-09-27T13:26:27Z</time><name>PT10828</name></trkpt>
<trkpt lat="52.956152" lon="-3.140846"><ele>270</ele><time>2019-09-27T13:26:28Z</time><name>PT10829</name></trkpt>
<trkpt lat="52.956153" lon="-3.140830"><ele>267</ele><time>2019-09-27T13:26:29Z</time><name>PT10830</name></trkpt>
<trkpt lat="52.956159" lon="-3.140822"><ele>267</ele><time>2019-09-27T13:26:30Z</time><name>PT10831</name></trkpt>
<trkpt lat="52.956164" lon="-3.140814"><ele>267</ele><time>2019-09-27T13:26:31Z</time><name>PT10832</name></trkpt>
<trkpt lat="52.956166" lon="-3.140805"><ele>267</ele><time>2019-09-27T13:26:32Z</time><name>PT10833</name></trkpt>
<trkpt lat="52.956171" lon="-3.140795"><ele>266</ele><time>2019-09-27T13:26:33Z</time><name>PT10834</name></trkpt>
<trkpt lat="52.956173" lon="-3.140787"><ele>266</ele><time>2019-09-27T13:26:34Z</time><name>PT10835</name></trkpt>
<trkpt lat="52.956180" lon="-3.140782"><ele>266</ele><time>2019-09-27T13:26:35Z</time><name>PT10836</name></trkpt>
<trkpt lat="52.956185" lon="-3.140772"><ele>266</ele><time>2019-09-27T13:26:36Z</time><name>PT10837</name></trkpt>
<trkpt lat="52.956189" lon="-3.140763"><ele>265</ele><time>2019-09-27T13:26:37Z</time><name>PT10838</name></trkpt>
<trkpt lat="52.956198" lon="-3.140746"><ele>265</ele><time>2019-09-27T13:26:38Z</time><name>PT10839</name></trkpt>
<trkpt lat="52.956208" lon="-3.140733"><ele>266</ele><time>2019-09-27T13:26:39Z</time><name>PT10840</name></trkpt>
<trkpt lat="52.956219" lon="-3.140720"><ele>266</ele><time>2019-09-27T13:26:39Z</time><name>PT10841</name></trkpt>
<trkpt lat="52.956225" lon="-3.140714"><ele>267</ele><time>2019-09-27T13:26:41Z</time><name>PT10842</name></trkpt>
<trkpt lat="52.956229" lon="-3.140705"><ele>267</ele><time>2019-09-27T13:26:42Z</time><name>PT10843</name></trkpt>
<trkpt lat="52.956231" lon="-3.140694"><ele>266</ele><time>2019-09-27T13:26:42Z</time><name>PT10844</name></trkpt>
<trkpt lat="52.956240" lon="-3.140681"><ele>265</ele><time>2019-09-27T13:26:44Z</time><name>PT10845</name></trkpt>
<trkpt lat="52.956245" lon="-3.140667"><ele>265</ele><time>2019-09-27T13:26:45Z</time><name>PT10846</name></trkpt>
<trkpt lat="52.956237" lon="-3.140657"><ele>264</ele><time>2019-09-27T13:26:45Z</time><name>PT10847</name></trkpt>
<trkpt lat="52.956226" lon="-3.140648"><ele>263</ele><time>2019-09-27T13:26:47Z</time><name>PT10848</name></trkpt>
<trkpt lat="52.956228" lon="-3.140634"><ele>262</ele><time>2019-09-27T13:26:48Z</time><name>PT10849</name></trkpt>
<trkpt lat="52.956223" lon="-3.140627"><ele>262</ele><time>2019-09-27T13:26:48Z</time><name>PT10850</name></trkpt>
<trkpt lat="52.956234" lon="-3.140616"><ele>262</ele><time>2019-09-27T13:26:50Z</time><name>PT10851</name></trkpt>
<trkpt lat="52.956245" lon="-3.140606"><ele>262</ele><time>2019-09-27T13:26:51Z</time><name>PT10852</name></trkpt>
<trkpt lat="52.956256" lon="-3.140602"><ele>262</ele><time>2019-09-27T13:26:51Z</time><name>PT10853</name></trkpt>
<trkpt lat="52.956265" lon="-3.140596"><ele>262</ele><time>2019-09-27T13:26:53Z</time><name>PT10854</name></trkpt>
<trkpt lat="52.956276" lon="-3.140587"><ele>263</ele><time>2019-09-27T13:26:54Z</time><name>PT10855</name></trkpt>
<trkpt lat="52.956276" lon="-3.140569"><ele>261</ele><time>2019-09-27T13:26:54Z</time><name>PT10856</name></trkpt>
<trkpt lat="52.956290" lon="-3.140560"><ele>262</ele><time>2019-09-27T13:26:56Z</time><name>PT10857</name></trkpt>
<trkpt lat="52.956297" lon="-3.140561"><ele>261</ele><time>2019-09-27T13:26:57Z</time><name>PT10858</name></trkpt>
<trkpt lat="52.956315" lon="-3.140547"><ele>262</ele><time>2019-09-27T13:26:57Z</time><name>PT10859</name></trkpt>
<trkpt lat="52.956315" lon="-3.140537"><ele>261</ele><time>2019-09-27T13:26:59Z</time><name>PT10860</name></trkpt>
<trkpt lat="52.956314" lon="-3.140526"><ele>261</ele><time>2019-09-27T13:27:00Z</time><name>PT10861</name></trkpt>
<trkpt lat="52.956334" lon="-3.140454"><ele>256</ele><time>2019-09-27T13:27:02Z</time><name>PT10862</name></trkpt>
<trkpt lat="52.956351" lon="-3.140428"><ele>255</ele><time>2019-09-27T13:27:03Z</time><name>PT10863</name></trkpt>
<trkpt lat="52.956365" lon="-3.140417"><ele>255</ele><time>2019-09-27T13:27:03Z</time><name>PT10864</name></trkpt>
<trkpt lat="52.956378" lon="-3.140408"><ele>254</ele><time>2019-09-27T13:27:05Z</time><name>PT10865</name></trkpt>
<trkpt lat="52.956393" lon="-3.140402"><ele>253</ele><time>2019-09-27T13:27:06Z</time><name>PT10866</name></trkpt>
<trkpt lat="52.956407" lon="-3.140389"><ele>253</ele><time>2019-09-27T13:27:06Z</time><name>PT10867</name></trkpt>
<trkpt lat="52.956410" lon="-3.140371"><ele>252</ele><time>2019-09-27T13:27:08Z</time><name>PT10868</name></trkpt>
<trkpt lat="52.956420" lon="-3.140363"><ele>252</ele><time>2019-09-27T13:27:09Z</time><name>PT10869</name></trkpt>
<trkpt lat="52.956433" lon="-3.140353"><ele>252</ele><time>2019-09-27T13:27:09Z</time><name>PT10870</name></trkpt>
<trkpt lat="52.956436" lon="-3.140344"><ele>251</ele><time>2019-09-27T13:27:11Z</time><name>PT10871</name></trkpt>
<trkpt lat="52.956443" lon="-3.140335"><ele>250</ele><time>2019-09-27T13:27:12Z</time><name>PT10872</name></trkpt>
<trkpt lat="52.956450" lon="-3.140326"><ele>251</ele><time>2019-09-27T13:27:13Z</time><name>PT10873</name></trkpt>
<trkpt lat="52.956472" lon="-3.140314"><ele>253</ele><time>2019-09-27T13:27:14Z</time><name>PT10874</name></trkpt>
<trkpt lat="52.956472" lon="-3.140285"><ele>251</ele><time>2019-09-27T13:27:15Z</time><name>PT10875</name></trkpt>
<trkpt lat="52.956489" lon="-3.140276"><ele>252</ele><time>2019-09-27T13:27:15Z</time><name>PT10876</name></trkpt>
<trkpt lat="52.956504" lon="-3.140270"><ele>252</ele><time>2019-09-27T13:27:17Z</time><name>PT10877</name></trkpt>
<trkpt lat="52.956512" lon="-3.140265"><ele>251</ele><time>2019-09-27T13:27:18Z</time><name>PT10878</name></trkpt>
<trkpt lat="52.956506" lon="-3.140263"><ele>250</ele><time>2019-09-27T13:27:19Z</time><name>PT10879</name></trkpt>
<trkpt lat="52.956504" lon="-3.140262"><ele>249</ele><time>2019-09-27T13:27:20Z</time><name>PT10880</name></trkpt>
<trkpt lat="52.956510" lon="-3.140255"><ele>249</ele><time>2019-09-27T13:27:21Z</time><name>PT10881</name></trkpt>
<trkpt lat="52.956517" lon="-3.140251"><ele>249</ele><time>2019-09-27T13:27:21Z</time><name>PT10882</name></trkpt>
<trkpt lat="52.956511" lon="-3.140243"><ele>247</ele><time>2019-09-27T13:27:23Z</time><name>PT10883</name></trkpt>
<trkpt lat="52.956498" lon="-3.140234"><ele>245</ele><time>2019-09-27T13:27:24Z</time><name>PT10884</name></trkpt>
<trkpt lat="52.956501" lon="-3.140229"><ele>245</ele><time>2019-09-27T13:27:24Z</time><name>PT10885</name></trkpt>
<trkpt lat="52.956504" lon="-3.140226"><ele>245</ele><time>2019-09-27T13:27:26Z</time><name>PT10886</name></trkpt>
<trkpt lat="52.956509" lon="-3.140213"><ele>244</ele><time>2019-09-27T13:27:27Z</time><name>PT10887</name></trkpt>
<trkpt lat="52.956518" lon="-3.140203"><ele>243</ele><time>2019-09-27T13:27:27Z</time><name>PT10888</name></trkpt>
<trkpt lat="52.956518" lon="-3.140186"><ele>242</ele><time>2019-09-27T13:27:29Z</time><name>PT10889</name></trkpt>
<trkpt lat="52.956525" lon="-3.140172"><ele>242</ele><time>2019-09-27T13:27:30Z</time><name>PT10890</name></trkpt>
<trkpt lat="52.956534" lon="-3.140158"><ele>242</ele><time>2019-09-27T13:27:30Z</time><name>PT10891</name></trkpt>
<trkpt lat="52.956552" lon="-3.140153"><ele>243</ele><time>2019-09-27T13:27:32Z</time><name>PT10892</name></trkpt>
<trkpt lat="52.956559" lon="-3.140143"><ele>242</ele><time>2019-09-27T13:27:33Z</time><name>PT10893</name></trkpt>
<trkpt lat="52.956573" lon="-3.140135"><ele>243</ele><time>2019-09-27T13:27:34Z</time><name>PT10894</name></trkpt>
<trkpt lat="52.956585" lon="-3.140127"><ele>244</ele><time>2019-09-27T13:27:35Z</time><name>PT10895</name></trkpt>
<trkpt lat="52.956600" lon="-3.140119"><ele>244</ele><time>2019-09-27T13:27:36Z</time><name>PT10896</name></trkpt>
<trkpt lat="52.956616" lon="-3.140109"><ele>245</ele><time>2019-09-27T13:27:37Z</time><name>PT10897</name></trkpt>
<trkpt lat="52.956624" lon="-3.140100"><ele>244</ele><time>2019-09-27T13:27:38Z</time><name>PT10898</name></trkpt>
<trkpt lat="52.956638" lon="-3.140094"><ele>244</ele><time>2019-09-27T13:27:39Z</time><name>PT10899</name></trkpt>
<trkpt lat="52.956653" lon="-3.140094"><ele>245</ele><time>2019-09-27T13:27:40Z</time><name>PT10900</name></trkpt>
<trkpt lat="52.956674" lon="-3.140098"><ele>246</ele><time>2019-09-27T13:27:41Z</time><name>PT10901</name></trkpt>
<trkpt lat="52.956692" lon="-3.140092"><ele>246</ele><time>2019-09-27T13:27:42Z</time><name>PT10902</name></trkpt>
<trkpt lat="52.956700" lon="-3.140090"><ele>246</ele><time>2019-09-27T13:27:43Z</time><name>PT10903</name></trkpt>
<trkpt lat="52.956712" lon="-3.140091"><ele>247</ele><time>2019-09-27T13:27:44Z</time><name>PT10904</name></trkpt>
<trkpt lat="52.956724" lon="-3.140085"><ele>247</ele><time>2019-09-27T13:27:45Z</time><name>PT10905</name></trkpt>
<trkpt lat="52.956737" lon="-3.140084"><ele>248</ele><time>2019-09-27T13:27:45Z</time><name>PT10906</name></trkpt>
<trkpt lat="52.956747" lon="-3.140078"><ele>248</ele><time>2019-09-27T13:27:47Z</time><name>PT10907</name></trkpt>
<trkpt lat="52.956757" lon="-3.140070"><ele>248</ele><time>2019-09-27T13:27:48Z</time><name>PT10908</name></trkpt>
<trkpt lat="52.956768" lon="-3.140056"><ele>248</ele><time>2019-09-27T13:27:49Z</time><name>PT10909</name></trkpt>
<trkpt lat="52.956756" lon="-3.140035"><ele>245</ele><time>2019-09-27T13:27:50Z</time><name>PT10910</name></trkpt>
<trkpt lat="52.956765" lon="-3.140025"><ele>245</ele><time>2019-09-27T13:27:51Z</time><name>PT10911</name></trkpt>
<trkpt lat="52.956767" lon="-3.140017"><ele>244</ele><time>2019-09-27T13:27:52Z</time><name>PT10912</name></trkpt>
<trkpt lat="52.956768" lon="-3.140004"><ele>243</ele><time>2019-09-27T13:27:53Z</time><name>PT10913</name></trkpt>
<trkpt lat="52.956784" lon="-3.140002"><ele>244</ele><time>2019-09-27T13:27:54Z</time><name>PT10914</name></trkpt>
<trkpt lat="52.956795" lon="-3.139998"><ele>244</ele><time>2019-09-27T13:27:55Z</time><name>PT10915</name></trkpt>
<trkpt lat="52.956802" lon="-3.139990"><ele>244</ele><time>2019-09-27T13:27:56Z</time><name>PT10916</name></trkpt>
<trkpt lat="52.956813" lon="-3.139986"><ele>244</ele><time>2019-09-27T13:27:57Z</time><name>PT10917</name></trkpt>
<trkpt lat="52.956817" lon="-3.139976"><ele>243</ele><time>2019-09-27T13:27:58Z</time><name>PT10918</name></trkpt>
<trkpt lat="52.956824" lon="-3.139963"><ele>242</ele><time>2019-09-27T13:27:59Z</time><name>PT10919</name></trkpt>
<trkpt lat="52.956839" lon="-3.139952"><ele>242</ele><time>2019-09-27T13:28:00Z</time><name>PT10920</name></trkpt>
<trkpt lat="52.956847" lon="-3.139938"><ele>241</ele><time>2019-09-27T13:28:00Z</time><name>PT10921</name></trkpt>
<trkpt lat="52.956860" lon="-3.139928"><ele>241</ele><time>2019-09-27T13:28:02Z</time><name>PT10922</name></trkpt>
<trkpt lat="52.956865" lon="-3.139915"><ele>240</ele><time>2019-09-27T13:28:03Z</time><name>PT10923</name></trkpt>
<trkpt lat="52.956867" lon="-3.139908"><ele>240</ele><time>2019-09-27T13:28:03Z</time><name>PT10924</name></trkpt>
<trkpt lat="52.956884" lon="-3.139903"><ele>240</ele><time>2019-09-27T13:28:05Z</time><name>PT10925</name></trkpt>
<trkpt lat="52.956904" lon="-3.139893"><ele>240</ele><time>2019-09-27T13:28:06Z</time><name>PT10926</name></trkpt>
<trkpt lat="52.956920" lon="-3.139883"><ele>241</ele><time>2019-09-27T13:28:06Z</time><name>PT10927</name></trkpt>
<trkpt lat="52.956944" lon="-3.139875"><ele>243</ele><time>2019-09-27T13:28:08Z</time><name>PT10928</name></trkpt>
<trkpt lat="52.956959" lon="-3.139867"><ele>243</ele><time>2019-09-27T13:28:09Z</time><name>PT10929</name></trkpt>
<trkpt lat="52.956988" lon="-3.139855"><ele>245</ele><time>2019-09-27T13:28:09Z</time><name>PT10930</name></trkpt>
<trkpt lat="52.957005" lon="-3.139845"><ele>247</ele><time>2019-09-27T13:28:11Z</time><name>PT10931</name></trkpt>
<trkpt lat="52.957018" lon="-3.139836"><ele>247</ele><time>2019-09-27T13:28:12Z</time><name>PT10932</name></trkpt>
<trkpt lat="52.957022" lon="-3.139827"><ele>248</ele><time>2019-09-27T13:28:12Z</time><name>PT10933</name></trkpt>
<trkpt lat="52.957047" lon="-3.139820"><ele>250</ele><time>2019-09-27T13:28:14Z</time><name>PT10934</name></trkpt>
<trkpt lat="52.957058" lon="-3.139804"><ele>250</ele><time>2019-09-27T13:28:15Z</time><name>PT10935</name></trkpt>
<trkpt lat="52.957072" lon="-3.139799"><ele>250</ele><time>2019-09-27T13:28:15Z</time><name>PT10936</name></trkpt>
<trkpt lat="52.957081" lon="-3.139794"><ele>250</ele><time>2019-09-27T13:28:17Z</time><name>PT10937</name></trkpt>
<trkpt lat="52.957091" lon="-3.139784"><ele>250</ele><time>2019-09-27T13:28:18Z</time><name>PT10938</name></trkpt>
<trkpt lat="52.957099" lon="-3.139775"><ele>250</ele><time>2019-09-27T13:28:18Z</time><name>PT10939</name></trkpt>
<trkpt lat="52.957101" lon="-3.139766"><ele>249</ele><time>2019-09-27T13:28:20Z</time><name>PT10940</name></trkpt>
<trkpt lat="52.957102" lon="-3.139757"><ele>248</ele><time>2019-09-27T13:28:21Z</time><name>PT10941</name></trkpt>
<trkpt lat="52.957116" lon="-3.139755"><ele>249</ele><time>2019-09-27T13:28:21Z</time><name>PT10942</name></trkpt>
<trkpt lat="52.957134" lon="-3.139753"><ele>249</ele><time>2019-09-27T13:28:23Z</time><name>PT10943</name></trkpt>
<trkpt lat="52.957145" lon="-3.139748"><ele>250</ele><time>2019-09-27T13:28:24Z</time><name>PT10944</name></trkpt>
<trkpt lat="52.957164" lon="-3.139742"><ele>251</ele><time>2019-09-27T13:28:24Z</time><name>PT10945</name></trkpt>
<trkpt lat="52.957176" lon="-3.139736"><ele>251</ele><time>2019-09-27T13:28:26Z</time><name>PT10946</name></trkpt>
<trkpt lat="52.957197" lon="-3.139729"><ele>252</ele><time>2019-09-27T13:28:27Z</time><name>PT10947</name></trkpt>
<trkpt lat="52.957219" lon="-3.139723"><ele>253</ele><time>2019-09-27T13:28:27Z</time><name>PT10948</name></trkpt>
<trkpt lat="52.957243" lon="-3.139717"><ele>255</ele><time>2019-09-27T13:28:29Z</time><name>PT10949</name></trkpt>
<trkpt lat="52.957256" lon="-3.139708"><ele>255</ele><time>2019-09-27T13:28:30Z</time><name>PT10950</name></trkpt>
<trkpt lat="52.957280" lon="-3.139702"><ele>257</ele><time>2019-09-27T13:28:30Z</time><name>PT10951</name></trkpt>
<trkpt lat="52.957290" lon="-3.139690"><ele>257</ele><time>2019-09-27T13:28:32Z</time><name>PT10952</name></trkpt>
<trkpt lat="52.957293" lon="-3.139684"><ele>256</ele><time>2019-09-27T13:28:33Z</time><name>PT10953</name></trkpt>
<trkpt lat="52.957309" lon="-3.139675"><ele>256</ele><time>2019-09-27T13:28:33Z</time><name>PT10954</name></trkpt>
<trkpt lat="52.957330" lon="-3.139666"><ele>256</ele><time>2019-09-27T13:28:35Z</time><name>PT10955</name></trkpt>
<trkpt lat="52.957341" lon="-3.139658"><ele>256</ele><time>2019-09-27T13:28:36Z</time><name>PT10956</name></trkpt>
<trkpt lat="52.957352" lon="-3.139649"><ele>257</ele><time>2019-09-27T13:28:36Z</time><name>PT10957</name></trkpt>
<trkpt lat="52.957359" lon="-3.139644"><ele>257</ele><time>2019-09-27T13:28:38Z</time><name>PT10958</name></trkpt>
<trkpt lat="52.957365" lon="-3.139635"><ele>256</ele><time>2019-09-27T13:28:39Z</time><name>PT10959</name></trkpt>
<trkpt lat="52.957381" lon="-3.139627"><ele>257</ele><time>2019-09-27T13:28:39Z</time><name>PT10960</name></trkpt>
<trkpt lat="52.957390" lon="-3.139617"><ele>257</ele><time>2019-09-27T13:28:41Z</time><name>PT10961</name></trkpt>
<trkpt lat="52.957402" lon="-3.139606"><ele>258</ele><time>2019-09-27T13:28:42Z</time><name>PT10962</name></trkpt>
<trkpt lat="52.957413" lon="-3.139597"><ele>258</ele><time>2019-09-27T13:28:42Z</time><name>PT10963</name></trkpt>
<trkpt lat="52.957421" lon="-3.139585"><ele>258</ele><time>2019-09-27T13:28:44Z</time><name>PT10964</name></trkpt>
<trkpt lat="52.957427" lon="-3.139574"><ele>258</ele><time>2019-09-27T13:28:45Z</time><name>PT10965</name></trkpt>
<trkpt lat="52.957437" lon="-3.139562"><ele>258</ele><time>2019-09-27T13:28:45Z</time><name>PT10966</name></trkpt>
<trkpt lat="52.957445" lon="-3.139550"><ele>258</ele><time>2019-09-27T13:28:47Z</time><name>PT10967</name></trkpt>
<trkpt lat="52.957457" lon="-3.139543"><ele>259</ele><time>2019-09-27T13:28:48Z</time><name>PT10968</name></trkpt>
<trkpt lat="52.957474" lon="-3.139538"><ele>259</ele><time>2019-09-27T13:28:48Z</time><name>PT10969</name></trkpt>
<trkpt lat="52.957480" lon="-3.139526"><ele>258</ele><time>2019-09-27T13:28:50Z</time><name>PT10970</name></trkpt>
<trkpt lat="52.957489" lon="-3.139509"><ele>257</ele><time>2019-09-27T13:28:51Z</time><name>PT10971</name></trkpt>
<trkpt lat="52.957502" lon="-3.139498"><ele>258</ele><time>2019-09-27T13:28:51Z</time><name>PT10972</name></trkpt>
<trkpt lat="52.957511" lon="-3.139491"><ele>258</ele><time>2019-09-27T13:28:53Z</time><name>PT10973</name></trkpt>
<trkpt lat="52.957516" lon="-3.139481"><ele>257</ele><time>2019-09-27T13:28:54Z</time><name>PT10974</name></trkpt>
<trkpt lat="52.957510" lon="-3.139474"><ele>255</ele><time>2019-09-27T13:28:55Z</time><name>PT10975</name></trkpt>
<trkpt lat="52.957513" lon="-3.139464"><ele>254</ele><time>2019-09-27T13:28:56Z</time><name>PT10976</name></trkpt>
<trkpt lat="52.957513" lon="-3.139455"><ele>253</ele><time>2019-09-27T13:28:57Z</time><name>PT10977</name></trkpt>
<trkpt lat="52.957520" lon="-3.139447"><ele>252</ele><time>2019-09-27T13:28:57Z</time><name>PT10978</name></trkpt>
<trkpt lat="52.957530" lon="-3.139438"><ele>252</ele><time>2019-09-27T13:28:59Z</time><name>PT10979</name></trkpt>
<trkpt lat="52.957537" lon="-3.139422"><ele>251</ele><time>2019-09-27T13:29:00Z</time><name>PT10980</name></trkpt>
<trkpt lat="52.957536" lon="-3.139411"><ele>250</ele><time>2019-09-27T13:29:00Z</time><name>PT10981</name></trkpt>
<trkpt lat="52.957539" lon="-3.139403"><ele>250</ele><time>2019-09-27T13:29:02Z</time><name>PT10982</name></trkpt>
<trkpt lat="52.957543" lon="-3.139394"><ele>249</ele><time>2019-09-27T13:29:03Z</time><name>PT10983</name></trkpt>
<trkpt lat="52.957550" lon="-3.139384"><ele>249</ele><time>2019-09-27T13:29:03Z</time><name>PT10984</name></trkpt>
<trkpt lat="52.957559" lon="-3.139373"><ele>249</ele><time>2019-09-27T13:29:05Z</time><name>PT10985</name></trkpt>
<trkpt lat="52.957566" lon="-3.139359"><ele>249</ele><time>2019-09-27T13:29:06Z</time><name>PT10986</name></trkpt>
<trkpt lat="52.957570" lon="-3.139345"><ele>249</ele><time>2019-09-27T13:29:06Z</time><name>PT10987</name></trkpt>
<trkpt lat="52.957582" lon="-3.139337"><ele>250</ele><time>2019-09-27T13:29:08Z</time><name>PT10988</name></trkpt>
<trkpt lat="52.957590" lon="-3.139328"><ele>250</ele><time>2019-09-27T13:29:09Z</time><name>PT10989</name></trkpt>
<trkpt lat="52.957603" lon="-3.139312"><ele>250</ele><time>2019-09-27T13:29:10Z</time><name>PT10990</name></trkpt>
<trkpt lat="52.957610" lon="-3.139302"><ele>250</ele><time>2019-09-27T13:29:11Z</time><name>PT10991</name></trkpt>
<trkpt lat="52.957617" lon="-3.139286"><ele>250</ele><time>2019-09-27T13:29:12Z</time><name>PT10992</name></trkpt>
<trkpt lat="52.957614" lon="-3.139273"><ele>249</ele><time>2019-09-27T13:29:12Z</time><name>PT10993</name></trkpt>
<trkpt lat="52.957617" lon="-3.139261"><ele>249</ele><time>2019-09-27T13:29:14Z</time><name>PT10994</name></trkpt>
<trkpt lat="52.957626" lon="-3.139251"><ele>249</ele><time>2019-09-27T13:29:15Z</time><name>PT10995</name></trkpt>
<trkpt lat="52.957635" lon="-3.139243"><ele>248</ele><time>2019-09-27T13:29:15Z</time><name>PT10996</name></trkpt>
<trkpt lat="52.957637" lon="-3.139230"><ele>247</ele><time>2019-09-27T13:29:17Z</time><name>PT10997</name></trkpt>
<trkpt lat="52.957642" lon="-3.139221"><ele>248</ele><time>2019-09-27T13:29:18Z</time><name>PT10998</name></trkpt>
<trkpt lat="52.957647" lon="-3.139211"><ele>247</ele><time>2019-09-27T13:29:18Z</time><name>PT10999</name></trkpt>
<trkpt lat="52.957649" lon="-3.139199"><ele>246</ele><time>2019-09-27T13:29:20Z</time><name>PT11000</name></trkpt>
<trkpt lat="52.957656" lon="-3.139186"><ele>245</ele><time>2019-09-27T13:29:21Z</time><name>PT11001</name></trkpt>
<trkpt lat="52.957673" lon="-3.139178"><ele>246</ele><time>2019-09-27T13:29:22Z</time><name>PT11002</name></trkpt>
<trkpt lat="52.957687" lon="-3.139169"><ele>247</ele><time>2019-09-27T13:29:23Z</time><name>PT11003</name></trkpt>
<trkpt lat="52.957701" lon="-3.139161"><ele>247</ele><time>2019-09-27T13:29:24Z</time><name>PT11004</name></trkpt>
<trkpt lat="52.957713" lon="-3.139152"><ele>248</ele><time>2019-09-27T13:29:25Z</time><name>PT11005</name></trkpt>
<trkpt lat="52.957719" lon="-3.139138"><ele>248</ele><time>2019-09-27T13:29:26Z</time><name>PT11006</name></trkpt>
<trkpt lat="52.957732" lon="-3.139121"><ele>248</ele><time>2019-09-27T13:29:27Z</time><name>PT11007</name></trkpt>
<trkpt lat="52.957739" lon="-3.139107"><ele>248</ele><time>2019-09-27T13:29:28Z</time><name>PT11008</name></trkpt>
<trkpt lat="52.957742" lon="-3.139094"><ele>248</ele><time>2019-09-27T13:29:29Z</time><name>PT11009</name></trkpt>
<trkpt lat="52.957744" lon="-3.139078"><ele>246</ele><time>2019-09-27T13:29:30Z</time><name>PT11010</name></trkpt>
<trkpt lat="52.957748" lon="-3.139065"><ele>246</ele><time>2019-09-27T13:29:31Z</time><name>PT11011</name></trkpt>
<trkpt lat="52.957754" lon="-3.139052"><ele>246</ele><time>2019-09-27T13:29:32Z</time><name>PT11012</name></trkpt>
<trkpt lat="52.957755" lon="-3.139041"><ele>245</ele><time>2019-09-27T13:29:33Z</time><name>PT11013</name></trkpt>
<trkpt lat="52.957761" lon="-3.139036"><ele>246</ele><time>2019-09-27T13:29:34Z</time><name>PT11014</name></trkpt>
<trkpt lat="52.957762" lon="-3.139032"><ele>245</ele><time>2019-09-27T13:29:35Z</time><name>PT11015</name></trkpt>
<trkpt lat="52.957770" lon="-3.139024"><ele>245</ele><time>2019-09-27T13:29:36Z</time><name>PT11016</name></trkpt>
<trkpt lat="52.957787" lon="-3.139011"><ele>245</ele><time>2019-09-27T13:29:37Z</time><name>PT11017</name></trkpt>
<trkpt lat="52.957796" lon="-3.138998"><ele>246</ele><time>2019-09-27T13:29:38Z</time><name>PT11018</name></trkpt>
<trkpt lat="52.957809" lon="-3.138987"><ele>247</ele><time>2019-09-27T13:29:39Z</time><name>PT11019</name></trkpt>
<trkpt lat="52.957817" lon="-3.138979"><ele>247</ele><time>2019-09-27T13:29:40Z</time><name>PT11020</name></trkpt>
<trkpt lat="52.957832" lon="-3.138970"><ele>248</ele><time>2019-09-27T13:29:41Z</time><name>PT11021</name></trkpt>
<trkpt lat="52.957841" lon="-3.138959"><ele>248</ele><time>2019-09-27T13:29:42Z</time><name>PT11022</name></trkpt>
<trkpt lat="52.957846" lon="-3.138950"><ele>247</ele><time>2019-09-27T13:29:43Z</time><name>PT11023</name></trkpt>
<trkpt lat="52.957854" lon="-3.138945"><ele>247</ele><time>2019-09-27T13:29:44Z</time><name>PT11024</name></trkpt>
<trkpt lat="52.957860" lon="-3.138937"><ele>247</ele><time>2019-09-27T13:29:45Z</time><name>PT11025</name></trkpt>
<trkpt lat="52.957869" lon="-3.138933"><ele>248</ele><time>2019-09-27T13:29:45Z</time><name>PT11026</name></trkpt>
<trkpt lat="52.957874" lon="-3.138923"><ele>248</ele><time>2019-09-27T13:29:47Z</time><name>PT11027</name></trkpt>
<trkpt lat="52.957872" lon="-3.138908"><ele>247</ele><time>2019-09-27T13:29:48Z</time><name>PT11028</name></trkpt>
<trkpt lat="52.957874" lon="-3.138896"><ele>247</ele><time>2019-09-27T13:29:48Z</time><name>PT11029</name></trkpt>
<trkpt lat="52.957871" lon="-3.138885"><ele>246</ele><time>2019-09-27T13:29:50Z</time><name>PT11030</name></trkpt>
<trkpt lat="52.957877" lon="-3.138876"><ele>247</ele><time>2019-09-27T13:29:51Z</time><name>PT11031</name></trkpt>
<trkpt lat="52.957881" lon="-3.138867"><ele>247</ele><time>2019-09-27T13:29:51Z</time><name>PT11032</name></trkpt>
<trkpt lat="52.957885" lon="-3.138864"><ele>246</ele><time>2019-09-27T13:29:53Z</time><name>PT11033</name></trkpt>
<trkpt lat="52.957890" lon="-3.138853"><ele>246</ele><time>2019-09-27T13:29:54Z</time><name>PT11034</name></trkpt>
<trkpt lat="52.957894" lon="-3.138838"><ele>246</ele><time>2019-09-27T13:29:54Z</time><name>PT11035</name></trkpt>
<trkpt lat="52.957900" lon="-3.138829"><ele>246</ele><time>2019-09-27T13:29:56Z</time><name>PT11036</name></trkpt>
<trkpt lat="52.957905" lon="-3.138820"><ele>246</ele><time>2019-09-27T13:29:57Z</time><name>PT11037</name></trkpt>
<trkpt lat="52.957915" lon="-3.138802"><ele>246</ele><time>2019-09-27T13:29:57Z</time><name>PT11038</name></trkpt>
<trkpt lat="52.957920" lon="-3.138791"><ele>246</ele><time>2019-09-27T13:29:59Z</time><name>PT11039</name></trkpt>
<trkpt lat="52.957927" lon="-3.138776"><ele>245</ele><time>2019-09-27T13:30:00Z</time><name>PT11040</name></trkpt>
<trkpt lat="52.957925" lon="-3.138766"><ele>244</ele><time>2019-09-27T13:30:00Z</time><name>PT11041</name></trkpt>
<trkpt lat="52.957918" lon="-3.138749"><ele>240</ele><time>2019-09-27T13:30:02Z</time><name>PT11042</name></trkpt>
<trkpt lat="52.957925" lon="-3.138730"><ele>239</ele><time>2019-09-27T13:30:03Z</time><name>PT11043</name></trkpt>
<trkpt lat="52.957927" lon="-3.138708"><ele>237</ele><time>2019-09-27T13:30:03Z</time><name>PT11044</name></trkpt>
<trkpt lat="52.957932" lon="-3.138686"><ele>235</ele><time>2019-09-27T13:30:05Z</time><name>PT11045</name></trkpt>
<trkpt lat="52.957944" lon="-3.138668"><ele>235</ele><time>2019-09-27T13:30:06Z</time><name>PT11046</name></trkpt>
<trkpt lat="52.957948" lon="-3.138658"><ele>233</ele><time>2019-09-27T13:30:06Z</time><name>PT11047</name></trkpt>
<trkpt lat="52.957955" lon="-3.138647"><ele>232</ele><time>2019-09-27T13:30:08Z</time><name>PT11048</name></trkpt>
<trkpt lat="52.957960" lon="-3.138639"><ele>231</ele><time>2019-09-27T13:30:09Z</time><name>PT11049</name></trkpt>
<trkpt lat="52.957966" lon="-3.138629"><ele>230</ele><time>2019-09-27T13:30:09Z</time><name>PT11050</name></trkpt>
<trkpt lat="52.957972" lon="-3.138620"><ele>229</ele><time>2019-09-27T13:30:11Z</time><name>PT11051</name></trkpt>
<trkpt lat="52.957980" lon="-3.138605"><ele>229</ele><time>2019-09-27T13:30:12Z</time><name>PT11052</name></trkpt>
<trkpt lat="52.957984" lon="-3.138597"><ele>228</ele><time>2019-09-27T13:30:12Z</time><name>PT11053</name></trkpt>
<trkpt lat="52.957994" lon="-3.138581"><ele>228</ele><time>2019-09-27T13:30:14Z</time><name>PT11054</name></trkpt>
<trkpt lat="52.958004" lon="-3.138563"><ele>228</ele><time>2019-09-27T13:30:15Z</time><name>PT11055</name></trkpt>
<trkpt lat="52.958014" lon="-3.138545"><ele>228</ele><time>2019-09-27T13:30:15Z</time><name>PT11056</name></trkpt>
<trkpt lat="52.958022" lon="-3.138535"><ele>228</ele><time>2019-09-27T13:30:17Z</time><name>PT11057</name></trkpt>
<trkpt lat="52.958029" lon="-3.138527"><ele>228</ele><time>2019-09-27T13:30:18Z</time><name>PT11058</name></trkpt>
<trkpt lat="52.958034" lon="-3.138517"><ele>227</ele><time>2019-09-27T13:30:18Z</time><name>PT11059</name></trkpt>
<trkpt lat="52.958041" lon="-3.138501"><ele>228</ele><time>2019-09-27T13:30:20Z</time><name>PT11060</name></trkpt>
<trkpt lat="52.958051" lon="-3.138485"><ele>228</ele><time>2019-09-27T13:30:21Z</time><name>PT11061</name></trkpt>
<trkpt lat="52.958058" lon="-3.138475"><ele>227</ele><time>2019-09-27T13:30:21Z</time><name>PT11062</name></trkpt>
<trkpt lat="52.958061" lon="-3.138460"><ele>226</ele><time>2019-09-27T13:30:23Z</time><name>PT11063</name></trkpt>
<trkpt lat="52.958069" lon="-3.138448"><ele>226</ele><time>2019-09-27T13:30:24Z</time><name>PT11064</name></trkpt>
<trkpt lat="52.958075" lon="-3.138435"><ele>226</ele><time>2019-09-27T13:30:24Z</time><name>PT11065</name></trkpt>
<trkpt lat="52.958079" lon="-3.138425"><ele>226</ele><time>2019-09-27T13:30:26Z</time><name>PT11066</name></trkpt>
<trkpt lat="52.958083" lon="-3.138410"><ele>226</ele><time>2019-09-27T13:30:27Z</time><name>PT11067</name></trkpt>
<trkpt lat="52.958092" lon="-3.138394"><ele>227</ele><time>2019-09-27T13:30:27Z</time><name>PT11068</name></trkpt>
<trkpt lat="52.958094" lon="-3.138384"><ele>225</ele><time>2019-09-27T13:30:29Z</time><name>PT11069</name></trkpt>
<trkpt lat="52.958099" lon="-3.138367"><ele>226</ele><time>2019-09-27T13:30:30Z</time><name>PT11070</name></trkpt>
<trkpt lat="52.958104" lon="-3.138351"><ele>226</ele><time>2019-09-27T13:30:30Z</time><name>PT11071</name></trkpt>
<trkpt lat="52.958109" lon="-3.138338"><ele>226</ele><time>2019-09-27T13:30:32Z</time><name>PT11072</name></trkpt>
<trkpt lat="52.958113" lon="-3.138327"><ele>226</ele><time>2019-09-27T13:30:33Z</time><name>PT11073</name></trkpt>
<trkpt lat="52.958120" lon="-3.138314"><ele>226</ele><time>2019-09-27T13:30:33Z</time><name>PT11074</name></trkpt>
<trkpt lat="52.958127" lon="-3.138306"><ele>226</ele><time>2019-09-27T13:30:35Z</time><name>PT11075</name></trkpt>
<trkpt lat="52.958127" lon="-3.138294"><ele>224</ele><time>2019-09-27T13:30:36Z</time><name>PT11076</name></trkpt>
<trkpt lat="52.958131" lon="-3.138287"><ele>224</ele><time>2019-09-27T13:30:36Z</time><name>PT11077</name></trkpt>
<trkpt lat="52.958136" lon="-3.138275"><ele>223</ele><time>2019-09-27T13:30:38Z</time><name>PT11078</name></trkpt>
<trkpt lat="52.958142" lon="-3.138264"><ele>223</ele><time>2019-09-27T13:30:39Z</time><name>PT11079</name></trkpt>
<trkpt lat="52.958147" lon="-3.138258"><ele>223</ele><time>2019-09-27T13:30:39Z</time><name>PT11080</name></trkpt>
<trkpt lat="52.958153" lon="-3.138245"><ele>223</ele><time>2019-09-27T13:30:41Z</time><name>PT11081</name></trkpt>
<trkpt lat="52.958160" lon="-3.138233"><ele>224</ele><time>2019-09-27T13:30:42Z</time><name>PT11082</name></trkpt>
<trkpt lat="52.958167" lon="-3.138225"><ele>223</ele><time>2019-09-27T13:30:43Z</time><name>PT11083</name></trkpt>
<trkpt lat="52.958177" lon="-3.138219"><ele>224</ele><time>2019-09-27T13:30:44Z</time><name>PT11084</name></trkpt>
<trkpt lat="52.958182" lon="-3.138204"><ele>224</ele><time>2019-09-27T13:30:45Z</time><name>PT11085</name></trkpt>
<trkpt lat="52.958187" lon="-3.138191"><ele>224</ele><time>2019-09-27T13:30:45Z</time><name>PT11086</name></trkpt>
<trkpt lat="52.958191" lon="-3.138177"><ele>224</ele><time>2019-09-27T13:30:47Z</time><name>PT11087</name></trkpt>
<trkpt lat="52.958196" lon="-3.138169"><ele>224</ele><time>2019-09-27T13:30:48Z</time><name>PT11088</name></trkpt>
<trkpt lat="52.958205" lon="-3.138168"><ele>225</ele><time>2019-09-27T13:30:49Z</time><name>PT11089</name></trkpt>
<trkpt lat="52.958215" lon="-3.138163"><ele>225</ele><time>2019-09-27T13:30:50Z</time><name>PT11090</name></trkpt>
<trkpt lat="52.958225" lon="-3.138154"><ele>225</ele><time>2019-09-27T13:30:51Z</time><name>PT11091</name></trkpt>
<trkpt lat="52.958230" lon="-3.138148"><ele>225</ele><time>2019-09-27T13:30:51Z</time><name>PT11092</name></trkpt>
<trkpt lat="52.958232" lon="-3.138133"><ele>224</ele><time>2019-09-27T13:30:53Z</time><name>PT11093</name></trkpt>
<trkpt lat="52.958236" lon="-3.138119"><ele>224</ele><time>2019-09-27T13:30:54Z</time><name>PT11094</name></trkpt>
<trkpt lat="52.958244" lon="-3.138106"><ele>224</ele><time>2019-09-27T13:30:54Z</time><name>PT11095</name></trkpt>
<trkpt lat="52.958253" lon="-3.138094"><ele>224</ele><time>2019-09-27T13:30:56Z</time><name>PT11096</name></trkpt>
<trkpt lat="52.958261" lon="-3.138082"><ele>224</ele><time>2019-09-27T13:30:57Z</time><name>PT11097</name></trkpt>
<trkpt lat="52.958269" lon="-3.138074"><ele>224</ele><time>2019-09-27T13:30:57Z</time><name>PT11098</name></trkpt>
<trkpt lat="52.958278" lon="-3.138064"><ele>224</ele><time>2019-09-27T13:30:59Z</time><name>PT11099</name></trkpt>
<trkpt lat="52.958285" lon="-3.138054"><ele>224</ele><time>2019-09-27T13:31:00Z</time><name>PT11100</name></trkpt>
<trkpt lat="52.958289" lon="-3.138041"><ele>224</ele><time>2019-09-27T13:31:00Z</time><name>PT11101</name></trkpt>
<trkpt lat="52.958294" lon="-3.138031"><ele>224</ele><time>2019-09-27T13:31:02Z</time><name>PT11102</name></trkpt>
<trkpt lat="52.958299" lon="-3.138022"><ele>223</ele><time>2019-09-27T13:31:03Z</time><name>PT11103</name></trkpt>
<trkpt lat="52.958301" lon="-3.138020"><ele>221</ele><time>2019-09-27T13:31:03Z</time><name>PT11104</name></trkpt>
<trkpt lat="52.958306" lon="-3.138010"><ele>221</ele><time>2019-09-27T13:31:05Z</time><name>PT11105</name></trkpt>
<trkpt lat="52.958307" lon="-3.138000"><ele>220</ele><time>2019-09-27T13:31:06Z</time><name>PT11106</name></trkpt>
<trkpt lat="52.958320" lon="-3.137990"><ele>221</ele><time>2019-09-27T13:31:06Z</time><name>PT11107</name></trkpt>
<trkpt lat="52.958328" lon="-3.137977"><ele>221</ele><time>2019-09-27T13:31:08Z</time><name>PT11108</name></trkpt>
<trkpt lat="52.958342" lon="-3.137962"><ele>222</ele><time>2019-09-27T13:31:09Z</time><name>PT11109</name></trkpt>
<trkpt lat="52.958351" lon="-3.137950"><ele>221</ele><time>2019-09-27T13:31:09Z</time><name>PT11110</name></trkpt>
<trkpt lat="52.958361" lon="-3.137939"><ele>221</ele><time>2019-09-27T13:31:11Z</time><name>PT11111</name></trkpt>
<trkpt lat="52.958368" lon="-3.137931"><ele>221</ele><time>2019-09-27T13:31:12Z</time><name>PT11112</name></trkpt>
<trkpt lat="52.958379" lon="-3.137919"><ele>221</ele><time>2019-09-27T13:31:12Z</time><name>PT11113</name></trkpt>
<trkpt lat="52.958389" lon="-3.137911"><ele>221</ele><time>2019-09-27T13:31:14Z</time><name>PT11114</name></trkpt>
<trkpt lat="52.958397" lon="-3.137904"><ele>220</ele><time>2019-09-27T13:31:15Z</time><name>PT11115</name></trkpt>
<trkpt lat="52.958408" lon="-3.137891"><ele>221</ele><time>2019-09-27T13:31:15Z</time><name>PT11116</name></trkpt>
<trkpt lat="52.958416" lon="-3.137884"><ele>220</ele><time>2019-09-27T13:31:17Z</time><name>PT11117</name></trkpt>
<trkpt lat="52.958425" lon="-3.137876"><ele>220</ele><time>2019-09-27T13:31:18Z</time><name>PT11118</name></trkpt>
<trkpt lat="52.958433" lon="-3.137863"><ele>220</ele><time>2019-09-27T13:31:19Z</time><name>PT11119</name></trkpt>
<trkpt lat="52.958442" lon="-3.137852"><ele>220</ele><time>2019-09-27T13:31:20Z</time><name>PT11120</name></trkpt>
<trkpt lat="52.958453" lon="-3.137841"><ele>220</ele><time>2019-09-27T13:31:21Z</time><name>PT11121</name></trkpt>
<trkpt lat="52.958467" lon="-3.137830"><ele>221</ele><time>2019-09-27T13:31:22Z</time><name>PT11122</name></trkpt>
<trkpt lat="52.958476" lon="-3.137820"><ele>220</ele><time>2019-09-27T13:31:23Z</time><name>PT11123</name></trkpt>
<trkpt lat="52.958487" lon="-3.137809"><ele>221</ele><time>2019-09-27T13:31:24Z</time><name>PT11124</name></trkpt>
<trkpt lat="52.958498" lon="-3.137793"><ele>221</ele><time>2019-09-27T13:31:25Z</time><name>PT11125</name></trkpt>
<trkpt lat="52.958508" lon="-3.137781"><ele>221</ele><time>2019-09-27T13:31:26Z</time><name>PT11126</name></trkpt>
<trkpt lat="52.958520" lon="-3.137769"><ele>221</ele><time>2019-09-27T13:31:27Z</time><name>PT11127</name></trkpt>
<trkpt lat="52.958531" lon="-3.137755"><ele>221</ele><time>2019-09-27T13:31:28Z</time><name>PT11128</name></trkpt>
<trkpt lat="52.958544" lon="-3.137743"><ele>221</ele><time>2019-09-27T13:31:29Z</time><name>PT11129</name></trkpt>
<trkpt lat="52.958554" lon="-3.137738"><ele>221</ele><time>2019-09-27T13:31:30Z</time><name>PT11130</name></trkpt>
<trkpt lat="52.958564" lon="-3.137728"><ele>221</ele><time>2019-09-27T13:31:31Z</time><name>PT11131</name></trkpt>
<trkpt lat="52.958572" lon="-3.137721"><ele>221</ele><time>2019-09-27T13:31:32Z</time><name>PT11132</name></trkpt>
<trkpt lat="52.958578" lon="-3.137709"><ele>220</ele><time>2019-09-27T13:31:33Z</time><name>PT11133</name></trkpt>
<trkpt lat="52.958586" lon="-3.137700"><ele>220</ele><time>2019-09-27T13:31:34Z</time><name>PT11134</name></trkpt>
<trkpt lat="52.958594" lon="-3.137694"><ele>220</ele><time>2019-09-27T13:31:35Z</time><name>PT11135</name></trkpt>
<trkpt lat="52.958602" lon="-3.137692"><ele>219</ele><time>2019-09-27T13:31:36Z</time><name>PT11136</name></trkpt>
<trkpt lat="52.958609" lon="-3.137689"><ele>219</ele><time>2019-09-27T13:31:37Z</time><name>PT11137</name></trkpt>
<trkpt lat="52.958615" lon="-3.137684"><ele>218</ele><time>2019-09-27T13:31:38Z</time><name>PT11138</name></trkpt>
<trkpt lat="52.958620" lon="-3.137681"><ele>218</ele><time>2019-09-27T13:31:39Z</time><name>PT11139</name></trkpt>
<trkpt lat="52.958630" lon="-3.137679"><ele>218</ele><time>2019-09-27T13:31:40Z</time><name>PT11140</name></trkpt>
<trkpt lat="52.958638" lon="-3.137678"><ele>217</ele><time>2019-09-27T13:31:41Z</time><name>PT11141</name></trkpt>
<trkpt lat="52.958645" lon="-3.137677"><ele>217</ele><time>2019-09-27T13:31:42Z</time><name>PT11142</name></trkpt>
<trkpt lat="52.958655" lon="-3.137674"><ele>217</ele><time>2019-09-27T13:31:42Z</time><name>PT11143</name></trkpt>
<trkpt lat="52.958667" lon="-3.137671"><ele>217</ele><time>2019-09-27T13:31:44Z</time><name>PT11144</name></trkpt>
<trkpt lat="52.958672" lon="-3.137670"><ele>217</ele><time>2019-09-27T13:31:45Z</time><name>PT11145</name></trkpt>
<trkpt lat="52.958677" lon="-3.137671"><ele>216</ele><time>2019-09-27T13:31:45Z</time><name>PT11146</name></trkpt>
<trkpt lat="52.958689" lon="-3.137669"><ele>216</ele><time>2019-09-27T13:31:47Z</time><name>PT11147</name></trkpt>
<trkpt lat="52.958701" lon="-3.137670"><ele>216</ele><time>2019-09-27T13:31:48Z</time><name>PT11148</name></trkpt>
<trkpt lat="52.958712" lon="-3.137671"><ele>216</ele><time>2019-09-27T13:31:48Z</time><name>PT11149</name></trkpt>
<trkpt lat="52.958715" lon="-3.137669"><ele>216</ele><time>2019-09-27T13:31:50Z</time><name>PT11150</name></trkpt>
<trkpt lat="52.958722" lon="-3.137669"><ele>216</ele><time>2019-09-27T13:31:51Z</time><name>PT11151</name></trkpt>
<trkpt lat="52.958728" lon="-3.137666"><ele>215</ele><time>2019-09-27T13:31:51Z</time><name>PT11152</name></trkpt>
<trkpt lat="52.958731" lon="-3.137665"><ele>214</ele><time>2019-09-27T13:31:53Z</time><name>PT11153</name></trkpt>
<trkpt lat="52.958739" lon="-3.137665"><ele>214</ele><time>2019-09-27T13:31:54Z</time><name>PT11154</name></trkpt>
<trkpt lat="52.958750" lon="-3.137664"><ele>214</ele><time>2019-09-27T13:31:54Z</time><name>PT11155</name></trkpt>
<trkpt lat="52.958758" lon="-3.137664"><ele>214</ele><time>2019-09-27T13:31:56Z</time><name>PT11156</name></trkpt>
<trkpt lat="52.958767" lon="-3.137662"><ele>214</ele><time>2019-09-27T13:31:57Z</time><name>PT11157</name></trkpt>
<trkpt lat="52.958775" lon="-3.137660"><ele>214</ele><time>2019-09-27T13:31:58Z</time><name>PT11158</name></trkpt>
<trkpt lat="52.958781" lon="-3.137658"><ele>213</ele><time>2019-09-27T13:31:59Z</time><name>PT11159</name></trkpt>
<trkpt lat="52.958786" lon="-3.137655"><ele>213</ele><time>2019-09-27T13:32:00Z</time><name>PT11160</name></trkpt>
<trkpt lat="52.958793" lon="-3.137657"><ele>213</ele><time>2019-09-27T13:32:00Z</time><name>PT11161</name></trkpt>
<trkpt lat="52.958803" lon="-3.137660"><ele>213</ele><time>2019-09-27T13:32:02Z</time><name>PT11162</name></trkpt>
<trkpt lat="52.958813" lon="-3.137655"><ele>213</ele><time>2019-09-27T13:32:03Z</time><name>PT11163</name></trkpt>
<trkpt lat="52.958819" lon="-3.137656"><ele>212</ele><time>2019-09-27T13:32:04Z</time><name>PT11164</name></trkpt>
<trkpt lat="52.958834" lon="-3.137654"><ele>213</ele><time>2019-09-27T13:32:05Z</time><name>PT11165</name></trkpt>
<trkpt lat="52.958845" lon="-3.137654"><ele>213</ele><time>2019-09-27T13:32:06Z</time><name>PT11166</name></trkpt>
<trkpt lat="52.958851" lon="-3.137658"><ele>212</ele><time>2019-09-27T13:32:06Z</time><name>PT11167</name></trkpt>
<trkpt lat="52.958857" lon="-3.137662"><ele>212</ele><time>2019-09-27T13:32:08Z</time><name>PT11168</name></trkpt>
<trkpt lat="52.958862" lon="-3.137664"><ele>211</ele><time>2019-09-27T13:32:09Z</time><name>PT11169</name></trkpt>
<trkpt lat="52.958868" lon="-3.137662"><ele>211</ele><time>2019-09-27T13:32:09Z</time><name>PT11170</name></trkpt>
<trkpt lat="52.958882" lon="-3.137664"><ele>211</ele><time>2019-09-27T13:32:11Z</time><name>PT11171</name></trkpt>
<trkpt lat="52.958892" lon="-3.137668"><ele>212</ele><time>2019-09-27T13:32:12Z</time><name>PT11172</name></trkpt>
<trkpt lat="52.958900" lon="-3.137670"><ele>211</ele><time>2019-09-27T13:32:13Z</time><name>PT11173</name></trkpt>
<trkpt lat="52.958910" lon="-3.137670"><ele>211</ele><time>2019-09-27T13:32:14Z</time><name>PT11174</name></trkpt>
<trkpt lat="52.958920" lon="-3.137668"><ele>211</ele><time>2019-09-27T13:32:15Z</time><name>PT11175</name></trkpt>
<trkpt lat="52.958930" lon="-3.137669"><ele>211</ele><time>2019-09-27T13:32:16Z</time><name>PT11176</name></trkpt>
<trkpt lat="52.958939" lon="-3.137672"><ele>211</ele><time>2019-09-27T13:32:17Z</time><name>PT11177</name></trkpt>
<trkpt lat="52.958950" lon="-3.137675"><ele>211</ele><time>2019-09-27T13:32:18Z</time><name>PT11178</name></trkpt>
<trkpt lat="52.958955" lon="-3.137675"><ele>210</ele><time>2019-09-27T13:32:19Z</time><name>PT11179</name></trkpt>
<trkpt lat="52.958966" lon="-3.137680"><ele>210</ele><time>2019-09-27T13:32:20Z</time><name>PT11180</name></trkpt>
<trkpt lat="52.958976" lon="-3.137685"><ele>210</ele><time>2019-09-27T13:32:21Z</time><name>PT11181</name></trkpt>
<trkpt lat="52.958987" lon="-3.137690"><ele>210</ele><time>2019-09-27T13:32:22Z</time><name>PT11182</name></trkpt>
<trkpt lat="52.959008" lon="-3.137693"><ele>211</ele><time>2019-09-27T13:32:23Z</time><name>PT11183</name></trkpt>
<trkpt lat="52.959017" lon="-3.137693"><ele>211</ele><time>2019-09-27T13:32:24Z</time><name>PT11184</name></trkpt>
<trkpt lat="52.959023" lon="-3.137695"><ele>210</ele><time>2019-09-27T13:32:25Z</time><name>PT11185</name></trkpt>
<trkpt lat="52.959034" lon="-3.137697"><ele>211</ele><time>2019-09-27T13:32:26Z</time><name>PT11186</name></trkpt>
<trkpt lat="52.959043" lon="-3.137697"><ele>211</ele><time>2019-09-27T13:32:27Z</time><name>PT11187</name></trkpt>
<trkpt lat="52.959056" lon="-3.137701"><ele>210</ele><time>2019-09-27T13:32:27Z</time><name>PT11188</name></trkpt>
<trkpt lat="52.959066" lon="-3.137700"><ele>210</ele><time>2019-09-27T13:32:29Z</time><name>PT11189</name></trkpt>
<trkpt lat="52.959072" lon="-3.137703"><ele>209</ele><time>2019-09-27T13:32:30Z</time><name>PT11190</name></trkpt>
<trkpt lat="52.959081" lon="-3.137711"><ele>209</ele><time>2019-09-27T13:32:30Z</time><name>PT11191</name></trkpt>
<trkpt lat="52.959084" lon="-3.137712"><ele>208</ele><time>2019-09-27T13:32:32Z</time><name>PT11192</name></trkpt>
<trkpt lat="52.959090" lon="-3.137709"><ele>208</ele><time>2019-09-27T13:32:33Z</time><name>PT11193</name></trkpt>
<trkpt lat="52.959097" lon="-3.137704"><ele>208</ele><time>2019-09-27T13:32:33Z</time><name>PT11194</name></trkpt>
<trkpt lat="52.959104" lon="-3.137702"><ele>207</ele><time>2019-09-27T13:32:35Z</time><name>PT11195</name></trkpt>
<trkpt lat="52.959108" lon="-3.137702"><ele>207</ele><time>2019-09-27T13:32:36Z</time><name>PT11196</name></trkpt>
<trkpt lat="52.959112" lon="-3.137704"><ele>206</ele><time>2019-09-27T13:32:36Z</time><name>PT11197</name></trkpt>
<trkpt lat="52.959125" lon="-3.137705"><ele>206</ele><time>2019-09-27T13:32:38Z</time><name>PT11198</name></trkpt>
<trkpt lat="52.959134" lon="-3.137702"><ele>207</ele><time>2019-09-27T13:32:39Z</time><name>PT11199</name></trkpt>
<trkpt lat="52.959145" lon="-3.137702"><ele>207</ele><time>2019-09-27T13:32:39Z</time><name>PT11200</name></trkpt>
<trkpt lat="52.959151" lon="-3.137701"><ele>207</ele><time>2019-09-27T13:32:41Z</time><name>PT11201</name></trkpt>
<trkpt lat="52.959157" lon="-3.137702"><ele>207</ele><time>2019-09-27T13:32:42Z</time><name>PT11202</name></trkpt>
<trkpt lat="52.959165" lon="-3.137703"><ele>207</ele><time>2019-09-27T13:32:42Z</time><name>PT11203</name></trkpt>
<trkpt lat="52.959173" lon="-3.137702"><ele>207</ele><time>2019-09-27T13:32:48Z</time><name>PT11204</name></trkpt>
<trkpt lat="52.959185" lon="-3.137697"><ele>206</ele><time>2019-09-27T13:32:50Z</time><name>PT11205</name></trkpt>
<trkpt lat="52.959197" lon="-3.137708"><ele>206</ele><time>2019-09-27T13:32:51Z</time><name>PT11206</name></trkpt>
<trkpt lat="52.959209" lon="-3.137718"><ele>205</ele><time>2019-09-27T13:32:51Z</time><name>PT11207</name></trkpt>
<trkpt lat="52.959221" lon="-3.137724"><ele>205</ele><time>2019-09-27T13:32:53Z</time><name>PT11208</name></trkpt>
<trkpt lat="52.959231" lon="-3.137729"><ele>204</ele><time>2019-09-27T13:32:54Z</time><name>PT11209</name></trkpt>
<trkpt lat="52.959252" lon="-3.137730"><ele>205</ele><time>2019-09-27T13:32:54Z</time><name>PT11210</name></trkpt>
<trkpt lat="52.959262" lon="-3.137731"><ele>205</ele><time>2019-09-27T13:32:56Z</time><name>PT11211</name></trkpt>
<trkpt lat="52.959273" lon="-3.137732"><ele>206</ele><time>2019-09-27T13:32:57Z</time><name>PT11212</name></trkpt>
<trkpt lat="52.959281" lon="-3.137733"><ele>205</ele><time>2019-09-27T13:32:57Z</time><name>PT11213</name></trkpt>
<trkpt lat="52.959287" lon="-3.137732"><ele>205</ele><time>2019-09-27T13:32:59Z</time><name>PT11214</name></trkpt>
<trkpt lat="52.959291" lon="-3.137732"><ele>205</ele><time>2019-09-27T13:33:00Z</time><name>PT11215</name></trkpt>
<trkpt lat="52.959293" lon="-3.137733"><ele>205</ele><time>2019-09-27T13:33:00Z</time><name>PT11216</name></trkpt>
<trkpt lat="52.959301" lon="-3.137732"><ele>205</ele><time>2019-09-27T13:33:12Z</time><name>PT11217</name></trkpt>
<trkpt lat="52.959305" lon="-3.137733"><ele>205</ele><time>2019-09-27T13:33:14Z</time><name>PT11218</name></trkpt>
<trkpt lat="52.959325" lon="-3.137710"><ele>206</ele><time>2019-09-27T13:33:35Z</time><name>PT11219</name></trkpt>
<trkpt lat="52.959336" lon="-3.137695"><ele>206</ele><time>2019-09-27T13:33:36Z</time><name>PT11220</name></trkpt>
<trkpt lat="52.959336" lon="-3.137686"><ele>206</ele><time>2019-09-27T13:33:37Z</time><name>PT11221</name></trkpt>
<trkpt lat="52.959336" lon="-3.137680"><ele>206</ele><time>2019-09-27T13:33:38Z</time><name>PT11222</name></trkpt>
<trkpt lat="52.959334" lon="-3.137681"><ele>206</ele><time>2019-09-27T13:33:39Z</time><name>PT11223</name></trkpt>
<trkpt lat="52.959330" lon="-3.137672"><ele>207</ele><time>2019-09-27T13:33:40Z</time><name>PT11224</name></trkpt>
<trkpt lat="52.959329" lon="-3.137667"><ele>207</ele><time>2019-09-27T13:33:41Z</time><name>PT11225</name></trkpt>
<trkpt lat="52.959333" lon="-3.137667"><ele>206</ele><time>2019-09-27T13:33:42Z</time><name>PT11226</name></trkpt>
<trkpt lat="52.959329" lon="-3.137665"><ele>206</ele><time>2019-09-27T13:33:43Z</time><name>PT11227</name></trkpt>
<trkpt lat="52.959324" lon="-3.137663"><ele>206</ele><time>2019-09-27T13:33:44Z</time><name>PT11228</name></trkpt>
<trkpt lat="52.959319" lon="-3.137659"><ele>206</ele><time>2019-09-27T13:33:45Z</time><name>PT11229</name></trkpt>
<trkpt lat="52.959315" lon="-3.137656"><ele>206</ele><time>2019-09-27T13:33:46Z</time><name>PT11230</name></trkpt>
<trkpt lat="52.959309" lon="-3.137648"><ele>206</ele><time>2019-09-27T13:33:47Z</time><name>PT11231</name></trkpt>
<trkpt lat="52.959305" lon="-3.137637"><ele>206</ele><time>2019-09-27T13:33:48Z</time><name>PT11232</name></trkpt>
<trkpt lat="52.959303" lon="-3.137631"><ele>206</ele><time>2019-09-27T13:33:49Z</time><name>PT11233</name></trkpt>
<trkpt lat="52.959298" lon="-3.137621"><ele>207</ele><time>2019-09-27T13:33:50Z</time><name>PT11234</name></trkpt>
<trkpt lat="52.959296" lon="-3.137608"><ele>207</ele><time>2019-09-27T13:33:51Z</time><name>PT11235</name></trkpt>
<trkpt lat="52.959293" lon="-3.137605"><ele>208</ele><time>2019-09-27T13:33:52Z</time><name>PT11236</name></trkpt>
<trkpt lat="52.959291" lon="-3.137600"><ele>208</ele><time>2019-09-27T13:33:53Z</time><name>PT11237</name></trkpt>
<trkpt lat="52.959288" lon="-3.137594"><ele>208</ele><time>2019-09-27T13:33:54Z</time><name>PT11238</name></trkpt>
<trkpt lat="52.959287" lon="-3.137588"><ele>209</ele><time>2019-09-27T13:33:54Z</time><name>PT11239</name></trkpt>
<trkpt lat="52.959285" lon="-3.137579"><ele>208</ele><time>2019-09-27T13:33:56Z</time><name>PT11240</name></trkpt>
<trkpt lat="52.959285" lon="-3.137570"><ele>208</ele><time>2019-09-27T13:33:57Z</time><name>PT11241</name></trkpt>
<trkpt lat="52.959286" lon="-3.137563"><ele>208</ele><time>2019-09-27T13:33:57Z</time><name>PT11242</name></trkpt>
<trkpt lat="52.959284" lon="-3.137549"><ele>209</ele><time>2019-09-27T13:33:59Z</time><name>PT11243</name></trkpt>
<trkpt lat="52.959286" lon="-3.137539"><ele>209</ele><time>2019-09-27T13:34:00Z</time><name>PT11244</name></trkpt>
<trkpt lat="52.959287" lon="-3.137531"><ele>209</ele><time>2019-09-27T13:34:00Z</time><name>PT11245</name></trkpt>
<trkpt lat="52.959286" lon="-3.137529"><ele>209</ele><time>2019-09-27T13:34:02Z</time><name>PT11246</name></trkpt>
<trkpt lat="52.959288" lon="-3.137522"><ele>209</ele><time>2019-09-27T13:34:03Z</time><name>PT11247</name></trkpt>
<trkpt lat="52.959293" lon="-3.137508"><ele>209</ele><time>2019-09-27T13:34:03Z</time><name>PT11248</name></trkpt>
<trkpt lat="52.959298" lon="-3.137497"><ele>210</ele><time>2019-09-27T13:34:05Z</time><name>PT11249</name></trkpt>
<trkpt lat="52.959301" lon="-3.137480"><ele>211</ele><time>2019-09-27T13:34:06Z</time><name>PT11250</name></trkpt>
<trkpt lat="52.959304" lon="-3.137465"><ele>211</ele><time>2019-09-27T13:34:06Z</time><name>PT11251</name></trkpt>
<trkpt lat="52.959307" lon="-3.137455"><ele>211</ele><time>2019-09-27T13:34:08Z</time><name>PT11252</name></trkpt>
<trkpt lat="52.959311" lon="-3.137442"><ele>212</ele><time>2019-09-27T13:34:09Z</time><name>PT11253</name></trkpt>
<trkpt lat="52.959314" lon="-3.137434"><ele>212</ele><time>2019-09-27T13:34:09Z</time><name>PT11254</name></trkpt>
<trkpt lat="52.959317" lon="-3.137423"><ele>212</ele><time>2019-09-27T13:34:11Z</time><name>PT11255</name></trkpt>
<trkpt lat="52.959323" lon="-3.137412"><ele>212</ele><time>2019-09-27T13:34:12Z</time><name>PT11256</name></trkpt>
<trkpt lat="52.959327" lon="-3.137400"><ele>212</ele><time>2019-09-27T13:34:12Z</time><name>PT11257</name></trkpt>
<trkpt lat="52.959331" lon="-3.137386"><ele>213</ele><time>2019-09-27T13:34:14Z</time><name>PT11258</name></trkpt>
<trkpt lat="52.959335" lon="-3.137373"><ele>213</ele><time>2019-09-27T13:34:15Z</time><name>PT11259</name></trkpt>
<trkpt lat="52.959339" lon="-3.137369"><ele>213</ele><time>2019-09-27T13:34:15Z</time><name>PT11260</name></trkpt>
<trkpt lat="52.959343" lon="-3.137367"><ele>213</ele><time>2019-09-27T13:34:17Z</time><name>PT11261</name></trkpt>
<trkpt lat="52.959347" lon="-3.137352"><ele>213</ele><time>2019-09-27T13:34:18Z</time><name>PT11262</name></trkpt>
<trkpt lat="52.959349" lon="-3.137341"><ele>213</ele><time>2019-09-27T13:34:18Z</time><name>PT11263</name></trkpt>
<trkpt lat="52.959351" lon="-3.137327"><ele>212</ele><time>2019-09-27T13:34:20Z</time><name>PT11264</name></trkpt>
<trkpt lat="52.959355" lon="-3.137313"><ele>213</ele><time>2019-09-27T13:34:21Z</time><name>PT11265</name></trkpt>
<trkpt lat="52.959357" lon="-3.137301"><ele>213</ele><time>2019-09-27T13:34:21Z</time><name>PT11266</name></trkpt>
<trkpt lat="52.959360" lon="-3.137290"><ele>213</ele><time>2019-09-27T13:34:23Z</time><name>PT11267</name></trkpt>
<trkpt lat="52.959363" lon="-3.137280"><ele>214</ele><time>2019-09-27T13:34:24Z</time><name>PT11268</name></trkpt>
<trkpt lat="52.959364" lon="-3.137269"><ele>215</ele><time>2019-09-27T13:34:24Z</time><name>PT11269</name></trkpt>
<trkpt lat="52.959365" lon="-3.137261"><ele>215</ele><time>2019-09-27T13:34:26Z</time><name>PT11270</name></trkpt>
<trkpt lat="52.959367" lon="-3.137247"><ele>215</ele><time>2019-09-27T13:34:27Z</time><name>PT11271</name></trkpt>
<trkpt lat="52.959368" lon="-3.137237"><ele>215</ele><time>2019-09-27T13:34:27Z</time><name>PT11272</name></trkpt>
<trkpt lat="52.959369" lon="-3.137227"><ele>215</ele><time>2019-09-27T13:34:29Z</time><name>PT11273</name></trkpt>
<trkpt lat="52.959371" lon="-3.137217"><ele>215</ele><time>2019-09-27T13:34:30Z</time><name>PT11274</name></trkpt>
<trkpt lat="52.959372" lon="-3.137205"><ele>215</ele><time>2019-09-27T13:34:30Z</time><name>PT11275</name></trkpt>
<trkpt lat="52.959376" lon="-3.137192"><ele>215</ele><time>2019-09-27T13:34:32Z</time><name>PT11276</name></trkpt>
<trkpt lat="52.959379" lon="-3.137183"><ele>216</ele><time>2019-09-27T13:34:33Z</time><name>PT11277</name></trkpt>
<trkpt lat="52.959382" lon="-3.137174"><ele>216</ele><time>2019-09-27T13:34:33Z</time><name>PT11278</name></trkpt>
<trkpt lat="52.959380" lon="-3.137165"><ele>216</ele><time>2019-09-27T13:34:35Z</time><name>PT11279</name></trkpt>
<trkpt lat="52.959382" lon="-3.137155"><ele>216</ele><time>2019-09-27T13:34:36Z</time><name>PT11280</name></trkpt>
<trkpt lat="52.959383" lon="-3.137142"><ele>216</ele><time>2019-09-27T13:34:36Z</time><name>PT11281</name></trkpt>
<trkpt lat="52.959384" lon="-3.137129"><ele>216</ele><time>2019-09-27T13:34:38Z</time><name>PT11282</name></trkpt>
<trkpt lat="52.959385" lon="-3.137119"><ele>216</ele><time>2019-09-27T13:34:39Z</time><name>PT11283</name></trkpt>
<trkpt lat="52.959387" lon="-3.137114"><ele>216</ele><time>2019-09-27T13:34:39Z</time><name>PT11284</name></trkpt>
<trkpt lat="52.959388" lon="-3.137106"><ele>216</ele><time>2019-09-27T13:34:41Z</time><name>PT11285</name></trkpt>
<trkpt lat="52.959390" lon="-3.137096"><ele>216</ele><time>2019-09-27T13:34:42Z</time><name>PT11286</name></trkpt>
<trkpt lat="52.959390" lon="-3.137087"><ele>216</ele><time>2019-09-27T13:34:42Z</time><name>PT11287</name></trkpt>
<trkpt lat="52.959390" lon="-3.137078"><ele>216</ele><time>2019-09-27T13:34:44Z</time><name>PT11288</name></trkpt>
<trkpt lat="52.959392" lon="-3.137066"><ele>216</ele><time>2019-09-27T13:34:45Z</time><name>PT11289</name></trkpt>
<trkpt lat="52.959395" lon="-3.137051"><ele>217</ele><time>2019-09-27T13:34:46Z</time><name>PT11290</name></trkpt>
<trkpt lat="52.959397" lon="-3.137039"><ele>217</ele><time>2019-09-27T13:34:47Z</time><name>PT11291</name></trkpt>
<trkpt lat="52.959398" lon="-3.137031"><ele>217</ele><time>2019-09-27T13:34:48Z</time><name>PT11292</name></trkpt>
<trkpt lat="52.959400" lon="-3.137019"><ele>217</ele><time>2019-09-27T13:34:48Z</time><name>PT11293</name></trkpt>
<trkpt lat="52.959401" lon="-3.137010"><ele>217</ele><time>2019-09-27T13:34:50Z</time><name>PT11294</name></trkpt>
<trkpt lat="52.959402" lon="-3.136998"><ele>217</ele><time>2019-09-27T13:34:51Z</time><name>PT11295</name></trkpt>
<trkpt lat="52.959405" lon="-3.136985"><ele>217</ele><time>2019-09-27T13:34:52Z</time><name>PT11296</name></trkpt>
<trkpt lat="52.959408" lon="-3.136973"><ele>217</ele><time>2019-09-27T13:34:53Z</time><name>PT11297</name></trkpt>
<trkpt lat="52.959410" lon="-3.136961"><ele>218</ele><time>2019-09-27T13:34:54Z</time><name>PT11298</name></trkpt>
<trkpt lat="52.959411" lon="-3.136948"><ele>217</ele><time>2019-09-27T13:34:55Z</time><name>PT11299</name></trkpt>
<trkpt lat="52.959413" lon="-3.136939"><ele>218</ele><time>2019-09-27T13:34:56Z</time><name>PT11300</name></trkpt>
<trkpt lat="52.959415" lon="-3.136925"><ele>218</ele><time>2019-09-27T13:34:57Z</time><name>PT11301</name></trkpt>
<trkpt lat="52.959417" lon="-3.136914"><ele>218</ele><time>2019-09-27T13:34:58Z</time><name>PT11302</name></trkpt>
<trkpt lat="52.959418" lon="-3.136901"><ele>218</ele><time>2019-09-27T13:34:59Z</time><name>PT11303</name></trkpt>
<trkpt lat="52.959419" lon="-3.136888"><ele>218</ele><time>2019-09-27T13:35:00Z</time><name>PT11304</name></trkpt>
<trkpt lat="52.959421" lon="-3.136874"><ele>219</ele><time>2019-09-27T13:35:01Z</time><name>PT11305</name></trkpt>
<trkpt lat="52.959422" lon="-3.136863"><ele>218</ele><time>2019-09-27T13:35:02Z</time><name>PT11306</name></trkpt>
<trkpt lat="52.959422" lon="-3.136849"><ele>218</ele><time>2019-09-27T13:35:03Z</time><name>PT11307</name></trkpt>
<trkpt lat="52.959422" lon="-3.136836"><ele>219</ele><time>2019-09-27T13:35:04Z</time><name>PT11308</name></trkpt>
<trkpt lat="52.959424" lon="-3.136821"><ele>219</ele><time>2019-09-27T13:35:05Z</time><name>PT11309</name></trkpt>
<trkpt lat="52.959427" lon="-3.136808"><ele>219</ele><time>2019-09-27T13:35:06Z</time><name>PT11310</name></trkpt>
<trkpt lat="52.959428" lon="-3.136792"><ele>219</ele><time>2019-09-27T13:35:07Z</time><name>PT11311</name></trkpt>
<trkpt lat="52.959430" lon="-3.136777"><ele>220</ele><time>2019-09-27T13:35:08Z</time><name>PT11312</name></trkpt>
<trkpt lat="52.959431" lon="-3.136764"><ele>219</ele><time>2019-09-27T13:35:09Z</time><name>PT11313</name></trkpt>
<trkpt lat="52.959432" lon="-3.136750"><ele>219</ele><time>2019-09-27T13:35:10Z</time><name>PT11314</name></trkpt>
<trkpt lat="52.959433" lon="-3.136733"><ele>219</ele><time>2019-09-27T13:35:11Z</time><name>PT11315</name></trkpt>
<trkpt lat="52.959436" lon="-3.136715"><ele>220</ele><time>2019-09-27T13:35:12Z</time><name>PT11316</name></trkpt>
<trkpt lat="52.959437" lon="-3.136701"><ele>220</ele><time>2019-09-27T13:35:13Z</time><name>PT11317</name></trkpt>
<trkpt lat="52.959438" lon="-3.136689"><ele>220</ele><time>2019-09-27T13:35:14Z</time><name>PT11318</name></trkpt>
<trkpt lat="52.959439" lon="-3.136678"><ele>220</ele><time>2019-09-27T13:35:15Z</time><name>PT11319</name></trkpt>
<trkpt lat="52.959440" lon="-3.136665"><ele>220</ele><time>2019-09-27T13:35:15Z</time><name>PT11320</name></trkpt>
<trkpt lat="52.959443" lon="-3.136655"><ele>220</ele><time>2019-09-27T13:35:17Z</time><name>PT11321</name></trkpt>
<trkpt lat="52.959443" lon="-3.136643"><ele>220</ele><time>2019-09-27T13:35:18Z</time><name>PT11322</name></trkpt>
<trkpt lat="52.959446" lon="-3.136632"><ele>220</ele><time>2019-09-27T13:35:18Z</time><name>PT11323</name></trkpt>
<trkpt lat="52.959449" lon="-3.136616"><ele>221</ele><time>2019-09-27T13:35:20Z</time><name>PT11324</name></trkpt>
<trkpt lat="52.959449" lon="-3.136601"><ele>221</ele><time>2019-09-27T13:35:21Z</time><name>PT11325</name></trkpt>
<trkpt lat="52.959452" lon="-3.136585"><ele>221</ele><time>2019-09-27T13:35:21Z</time><name>PT11326</name></trkpt>
<trkpt lat="52.959451" lon="-3.136577"><ele>221</ele><time>2019-09-27T13:35:23Z</time><name>PT11327</name></trkpt>
<trkpt lat="52.959449" lon="-3.136575"><ele>221</ele><time>2019-09-27T13:35:24Z</time><name>PT11328</name></trkpt>
<trkpt lat="52.959450" lon="-3.136568"><ele>221</ele><time>2019-09-27T13:35:24Z</time><name>PT11329</name></trkpt>
<trkpt lat="52.959451" lon="-3.136558"><ele>221</ele><time>2019-09-27T13:35:26Z</time><name>PT11330</name></trkpt>
<trkpt lat="52.959452" lon="-3.136555"><ele>221</ele><time>2019-09-27T13:35:27Z</time><name>PT11331</name></trkpt>
<trkpt lat="52.959451" lon="-3.136554"><ele>221</ele><time>2019-09-27T13:35:27Z</time><name>PT11332</name></trkpt>
<trkpt lat="52.959453" lon="-3.136547"><ele>221</ele><time>2019-09-27T13:35:29Z</time><name>PT11333</name></trkpt>
<trkpt lat="52.959455" lon="-3.136538"><ele>222</ele><time>2019-09-27T13:35:30Z</time><name>PT11334</name></trkpt>
<trkpt lat="52.959456" lon="-3.136531"><ele>222</ele><time>2019-09-27T13:35:30Z</time><name>PT11335</name></trkpt>
<trkpt lat="52.959456" lon="-3.136524"><ele>222</ele><time>2019-09-27T13:35:33Z</time><name>PT11336</name></trkpt>
<trkpt lat="52.959459" lon="-3.136502"><ele>222</ele><time>2019-09-27T13:35:35Z</time><name>PT11337</name></trkpt>
<trkpt lat="52.959455" lon="-3.136484"><ele>222</ele><time>2019-09-27T13:35:36Z</time><name>PT11338</name></trkpt>
<trkpt lat="52.959456" lon="-3.136469"><ele>222</ele><time>2019-09-27T13:35:36Z</time><name>PT11339</name></trkpt>
<trkpt lat="52.959459" lon="-3.136456"><ele>222</ele><time>2019-09-27T13:35:38Z</time><name>PT11340</name></trkpt>
<trkpt lat="52.959460" lon="-3.136440"><ele>222</ele><time>2019-09-27T13:35:39Z</time><name>PT11341</name></trkpt>
<trkpt lat="52.959458" lon="-3.136424"><ele>222</ele><time>2019-09-27T13:35:39Z</time><name>PT11342</name></trkpt>
<trkpt lat="52.959459" lon="-3.136406"><ele>222</ele><time>2019-09-27T13:35:41Z</time><name>PT11343</name></trkpt>
<trkpt lat="52.959462" lon="-3.136393"><ele>222</ele><time>2019-09-27T13:35:42Z</time><name>PT11344</name></trkpt>
<trkpt lat="52.959461" lon="-3.136383"><ele>222</ele><time>2019-09-27T13:35:42Z</time><name>PT11345</name></trkpt>
<trkpt lat="52.959458" lon="-3.136369"><ele>222</ele><time>2019-09-27T13:35:44Z</time><name>PT11346</name></trkpt>
<trkpt lat="52.959458" lon="-3.136351"><ele>222</ele><time>2019-09-27T13:35:45Z</time><name>PT11347</name></trkpt>
<trkpt lat="52.959460" lon="-3.136333"><ele>222</ele><time>2019-09-27T13:35:46Z</time><name>PT11348</name></trkpt>
<trkpt lat="52.959463" lon="-3.136318"><ele>222</ele><time>2019-09-27T13:35:47Z</time><name>PT11349</name></trkpt>
<trkpt lat="52.959467" lon="-3.136302"><ele>223</ele><time>2019-09-27T13:35:48Z</time><name>PT11350</name></trkpt>
<trkpt lat="52.959468" lon="-3.136287"><ele>223</ele><time>2019-09-27T13:35:48Z</time><name>PT11351</name></trkpt>
<trkpt lat="52.959469" lon="-3.136275"><ele>223</ele><time>2019-09-27T13:35:50Z</time><name>PT11352</name></trkpt>
<trkpt lat="52.959468" lon="-3.136268"><ele>222</ele><time>2019-09-27T13:35:51Z</time><name>PT11353</name></trkpt>
<trkpt lat="52.959468" lon="-3.136257"><ele>222</ele><time>2019-09-27T13:35:51Z</time><name>PT11354</name></trkpt>
<trkpt lat="52.959470" lon="-3.136246"><ele>222</ele><time>2019-09-27T13:35:53Z</time><name>PT11355</name></trkpt>
<trkpt lat="52.959469" lon="-3.136236"><ele>222</ele><time>2019-09-27T13:35:54Z</time><name>PT11356</name></trkpt>
<trkpt lat="52.959471" lon="-3.136216"><ele>222</ele><time>2019-09-27T13:35:54Z</time><name>PT11357</name></trkpt>
<trkpt lat="52.959474" lon="-3.136200"><ele>222</ele><time>2019-09-27T13:35:56Z</time><name>PT11358</name></trkpt>
<trkpt lat="52.959473" lon="-3.136185"><ele>223</ele><time>2019-09-27T13:35:57Z</time><name>PT11359</name></trkpt>
<trkpt lat="52.959470" lon="-3.136174"><ele>222</ele><time>2019-09-27T13:35:57Z</time><name>PT11360</name></trkpt>
<trkpt lat="52.959470" lon="-3.136159"><ele>223</ele><time>2019-09-27T13:35:59Z</time><name>PT11361</name></trkpt>
<trkpt lat="52.959472" lon="-3.136144"><ele>223</ele><time>2019-09-27T13:36:00Z</time><name>PT11362</name></trkpt>
<trkpt lat="52.959475" lon="-3.136133"><ele>223</ele><time>2019-09-27T13:36:00Z</time><name>PT11363</name></trkpt>
<trkpt lat="52.959475" lon="-3.136123"><ele>223</ele><time>2019-09-27T13:36:02Z</time><name>PT11364</name></trkpt>
<trkpt lat="52.959477" lon="-3.136106"><ele>224</ele><time>2019-09-27T13:36:03Z</time><name>PT11365</name></trkpt>
<trkpt lat="52.959478" lon="-3.136089"><ele>224</ele><time>2019-09-27T13:36:03Z</time><name>PT11366</name></trkpt>
<trkpt lat="52.959476" lon="-3.136081"><ele>224</ele><time>2019-09-27T13:36:05Z</time><name>PT11367</name></trkpt>
<trkpt lat="52.959475" lon="-3.136077"><ele>224</ele><time>2019-09-27T13:36:06Z</time><name>PT11368</name></trkpt>
<trkpt lat="52.959473" lon="-3.136063"><ele>224</ele><time>2019-09-27T13:36:06Z</time><name>PT11369</name></trkpt>
<trkpt lat="52.959475" lon="-3.136046"><ele>224</ele><time>2019-09-27T13:36:08Z</time><name>PT11370</name></trkpt>
<trkpt lat="52.959475" lon="-3.136033"><ele>224</ele><time>2019-09-27T13:36:09Z</time><name>PT11371</name></trkpt>
<trkpt lat="52.959473" lon="-3.136021"><ele>224</ele><time>2019-09-27T13:36:09Z</time><name>PT11372</name></trkpt>
<trkpt lat="52.959472" lon="-3.136006"><ele>225</ele><time>2019-09-27T13:36:11Z</time><name>PT11373</name></trkpt>
<trkpt lat="52.959474" lon="-3.135993"><ele>225</ele><time>2019-09-27T13:36:12Z</time><name>PT11374</name></trkpt>
<trkpt lat="52.959473" lon="-3.135982"><ele>224</ele><time>2019-09-27T13:36:12Z</time><name>PT11375</name></trkpt>
<trkpt lat="52.959473" lon="-3.135971"><ele>224</ele><time>2019-09-27T13:36:14Z</time><name>PT11376</name></trkpt>
<trkpt lat="52.959473" lon="-3.135958"><ele>224</ele><time>2019-09-27T13:36:15Z</time><name>PT11377</name></trkpt>
<trkpt lat="52.959474" lon="-3.135942"><ele>224</ele><time>2019-09-27T13:36:16Z</time><name>PT11378</name></trkpt>
<trkpt lat="52.959475" lon="-3.135931"><ele>224</ele><time>2019-09-27T13:36:17Z</time><name>PT11379</name></trkpt>
<trkpt lat="52.959476" lon="-3.135922"><ele>224</ele><time>2019-09-27T13:36:18Z</time><name>PT11380</name></trkpt>
<trkpt lat="52.959477" lon="-3.135906"><ele>224</ele><time>2019-09-27T13:36:19Z</time><name>PT11381</name></trkpt>
<trkpt lat="52.959478" lon="-3.135894"><ele>224</ele><time>2019-09-27T13:36:20Z</time><name>PT11382</name></trkpt>
<trkpt lat="52.959479" lon="-3.135882"><ele>225</ele><time>2019-09-27T13:36:21Z</time><name>PT11383</name></trkpt>
<trkpt lat="52.959483" lon="-3.135865"><ele>225</ele><time>2019-09-27T13:36:22Z</time><name>PT11384</name></trkpt>
<trkpt lat="52.959486" lon="-3.135847"><ele>226</ele><time>2019-09-27T13:36:23Z</time><name>PT11385</name></trkpt>
<trkpt lat="52.959486" lon="-3.135832"><ele>226</ele><time>2019-09-27T13:36:24Z</time><name>PT11386</name></trkpt>
<trkpt lat="52.959486" lon="-3.135818"><ele>226</ele><time>2019-09-27T13:36:24Z</time><name>PT11387</name></trkpt>
<trkpt lat="52.959486" lon="-3.135801"><ele>226</ele><time>2019-09-27T13:36:26Z</time><name>PT11388</name></trkpt>
<trkpt lat="52.959485" lon="-3.135787"><ele>226</ele><time>2019-09-27T13:36:27Z</time><name>PT11389</name></trkpt>
<trkpt lat="52.959490" lon="-3.135766"><ele>226</ele><time>2019-09-27T13:36:27Z</time><name>PT11390</name></trkpt>
<trkpt lat="52.959494" lon="-3.135753"><ele>226</ele><time>2019-09-27T13:36:29Z</time><name>PT11391</name></trkpt>
<trkpt lat="52.959496" lon="-3.135742"><ele>226</ele><time>2019-09-27T13:36:30Z</time><name>PT11392</name></trkpt>
<trkpt lat="52.959497" lon="-3.135735"><ele>226</ele><time>2019-09-27T13:36:30Z</time><name>PT11393</name></trkpt>
<trkpt lat="52.959499" lon="-3.135724"><ele>226</ele><time>2019-09-27T13:36:32Z</time><name>PT11394</name></trkpt>
<trkpt lat="52.959499" lon="-3.135710"><ele>225</ele><time>2019-09-27T13:36:33Z</time><name>PT11395</name></trkpt>
<trkpt lat="52.959499" lon="-3.135701"><ele>225</ele><time>2019-09-27T13:36:33Z</time><name>PT11396</name></trkpt>
<trkpt lat="52.959501" lon="-3.135687"><ele>225</ele><time>2019-09-27T13:36:35Z</time><name>PT11397</name></trkpt>
<trkpt lat="52.959502" lon="-3.135673"><ele>225</ele><time>2019-09-27T13:36:36Z</time><name>PT11398</name></trkpt>
<trkpt lat="52.959504" lon="-3.135657"><ele>225</ele><time>2019-09-27T13:36:36Z</time><name>PT11399</name></trkpt>
<trkpt lat="52.959502" lon="-3.135643"><ele>227</ele><time>2019-09-27T13:36:38Z</time><name>PT11400</name></trkpt>
<trkpt lat="52.959500" lon="-3.135633"><ele>227</ele><time>2019-09-27T13:36:39Z</time><name>PT11401</name></trkpt>
<trkpt lat="52.959501" lon="-3.135616"><ele>228</ele><time>2019-09-27T13:36:39Z</time><name>PT11402</name></trkpt>
<trkpt lat="52.959501" lon="-3.135602"><ele>228</ele><time>2019-09-27T13:36:41Z</time><name>PT11403</name></trkpt>
<trkpt lat="52.959504" lon="-3.135586"><ele>228</ele><time>2019-09-27T13:36:42Z</time><name>PT11404</name></trkpt>
<trkpt lat="52.959506" lon="-3.135574"><ele>228</ele><time>2019-09-27T13:36:42Z</time><name>PT11405</name></trkpt>
<trkpt lat="52.959507" lon="-3.135557"><ele>228</ele><time>2019-09-27T13:36:44Z</time><name>PT11406</name></trkpt>
<trkpt lat="52.959506" lon="-3.135539"><ele>228</ele><time>2019-09-27T13:36:45Z</time><name>PT11407</name></trkpt>
<trkpt lat="52.959506" lon="-3.135520"><ele>229</ele><time>2019-09-27T13:36:45Z</time><name>PT11408</name></trkpt>
<trkpt lat="52.959506" lon="-3.135515"><ele>229</ele><time>2019-09-27T13:36:47Z</time><name>PT11409</name></trkpt>
<trkpt lat="52.959506" lon="-3.135505"><ele>229</ele><time>2019-09-27T13:36:48Z</time><name>PT11410</name></trkpt>
<trkpt lat="52.959506" lon="-3.135492"><ele>229</ele><time>2019-09-27T13:36:48Z</time><name>PT11411</name></trkpt>
<trkpt lat="52.959507" lon="-3.135473"><ele>229</ele><time>2019-09-27T13:36:50Z</time><name>PT11412</name></trkpt>
<trkpt lat="52.959508" lon="-3.135459"><ele>229</ele><time>2019-09-27T13:36:51Z</time><name>PT11413</name></trkpt>
<trkpt lat="52.959512" lon="-3.135441"><ele>229</ele><time>2019-09-27T13:36:51Z</time><name>PT11414</name></trkpt>
<trkpt lat="52.959514" lon="-3.135424"><ele>229</ele><time>2019-09-27T13:36:53Z</time><name>PT11415</name></trkpt>
<trkpt lat="52.959514" lon="-3.135409"><ele>229</ele><time>2019-09-27T13:36:54Z</time><name>PT11416</name></trkpt>
<trkpt lat="52.959516" lon="-3.135393"><ele>229</ele><time>2019-09-27T13:36:54Z</time><name>PT11417</name></trkpt>
<trkpt lat="52.959515" lon="-3.135380"><ele>229</ele><time>2019-09-27T13:36:56Z</time><name>PT11418</name></trkpt>
<trkpt lat="52.959515" lon="-3.135368"><ele>229</ele><time>2019-09-27T13:36:57Z</time><name>PT11419</name></trkpt>
<trkpt lat="52.959516" lon="-3.135351"><ele>229</ele><time>2019-09-27T13:36:57Z</time><name>PT11420</name></trkpt>
<trkpt lat="52.959516" lon="-3.135328"><ele>229</ele><time>2019-09-27T13:36:59Z</time><name>PT11421</name></trkpt>
<trkpt lat="52.959519" lon="-3.135309"><ele>229</ele><time>2019-09-27T13:37:00Z</time><name>PT11422</name></trkpt>
<trkpt lat="52.959519" lon="-3.135293"><ele>229</ele><time>2019-09-27T13:37:00Z</time><name>PT11423</name></trkpt>
<trkpt lat="52.959520" lon="-3.135277"><ele>230</ele><time>2019-09-27T13:37:02Z</time><name>PT11424</name></trkpt>
<trkpt lat="52.959522" lon="-3.135260"><ele>230</ele><time>2019-09-27T13:37:03Z</time><name>PT11425</name></trkpt>
<trkpt lat="52.959524" lon="-3.135242"><ele>230</ele><time>2019-09-27T13:37:03Z</time><name>PT11426</name></trkpt>
<trkpt lat="52.959526" lon="-3.135222"><ele>230</ele><time>2019-09-27T13:37:05Z</time><name>PT11427</name></trkpt>
<trkpt lat="52.959527" lon="-3.135204"><ele>230</ele><time>2019-09-27T13:37:06Z</time><name>PT11428</name></trkpt>
<trkpt lat="52.959527" lon="-3.135189"><ele>231</ele><time>2019-09-27T13:37:06Z</time><name>PT11429</name></trkpt>
<trkpt lat="52.959528" lon="-3.135176"><ele>231</ele><time>2019-09-27T13:37:08Z</time><name>PT11430</name></trkpt>
<trkpt lat="52.959529" lon="-3.135161"><ele>231</ele><time>2019-09-27T13:37:09Z</time><name>PT11431</name></trkpt>
<trkpt lat="52.959532" lon="-3.135148"><ele>231</ele><time>2019-09-27T13:37:09Z</time><name>PT11432</name></trkpt>
<trkpt lat="52.959531" lon="-3.135132"><ele>231</ele><time>2019-09-27T13:37:11Z</time><name>PT11433</name></trkpt>
<trkpt lat="52.959532" lon="-3.135120"><ele>231</ele><time>2019-09-27T13:37:12Z</time><name>PT11434</name></trkpt>
<trkpt lat="52.959533" lon="-3.135105"><ele>231</ele><time>2019-09-27T13:37:13Z</time><name>PT11435</name></trkpt>
<trkpt lat="52.959535" lon="-3.135091"><ele>231</ele><time>2019-09-27T13:37:14Z</time><name>PT11436</name></trkpt>
<trkpt lat="52.959536" lon="-3.135075"><ele>231</ele><time>2019-09-27T13:37:15Z</time><name>PT11437</name></trkpt>
<trkpt lat="52.959536" lon="-3.135061"><ele>231</ele><time>2019-09-27T13:37:15Z</time><name>PT11438</name></trkpt>
<trkpt lat="52.959538" lon="-3.135050"><ele>231</ele><time>2019-09-27T13:37:17Z</time><name>PT11439</name></trkpt>
<trkpt lat="52.959538" lon="-3.135037"><ele>231</ele><time>2019-09-27T13:37:18Z</time><name>PT11440</name></trkpt>
<trkpt lat="52.959536" lon="-3.135024"><ele>231</ele><time>2019-09-27T13:37:19Z</time><name>PT11441</name></trkpt>
<trkpt lat="52.959537" lon="-3.135013"><ele>231</ele><time>2019-09-27T13:37:20Z</time><name>PT11442</name></trkpt>
<trkpt lat="52.959537" lon="-3.135003"><ele>230</ele><time>2019-09-27T13:37:21Z</time><name>PT11443</name></trkpt>
<trkpt lat="52.959539" lon="-3.134985"><ele>231</ele><time>2019-09-27T13:37:22Z</time><name>PT11444</name></trkpt>
<trkpt lat="52.959541" lon="-3.134974"><ele>231</ele><time>2019-09-27T13:37:23Z</time><name>PT11445</name></trkpt>
<trkpt lat="52.959542" lon="-3.134961"><ele>231</ele><time>2019-09-27T13:37:24Z</time><name>PT11446</name></trkpt>
<trkpt lat="52.959543" lon="-3.134945"><ele>231</ele><time>2019-09-27T13:37:25Z</time><name>PT11447</name></trkpt>
<trkpt lat="52.959545" lon="-3.134928"><ele>232</ele><time>2019-09-27T13:37:26Z</time><name>PT11448</name></trkpt>
<trkpt lat="52.959547" lon="-3.134913"><ele>232</ele><time>2019-09-27T13:37:27Z</time><name>PT11449</name></trkpt>
<trkpt lat="52.959547" lon="-3.134900"><ele>232</ele><time>2019-09-27T13:37:28Z</time><name>PT11450</name></trkpt>
<trkpt lat="52.959546" lon="-3.134887"><ele>231</ele><time>2019-09-27T13:37:29Z</time><name>PT11451</name></trkpt>
<trkpt lat="52.959547" lon="-3.134872"><ele>232</ele><time>2019-09-27T13:37:30Z</time><name>PT11452</name></trkpt>
<trkpt lat="52.959548" lon="-3.134859"><ele>232</ele><time>2019-09-27T13:37:31Z</time><name>PT11453</name></trkpt>
<trkpt lat="52.959547" lon="-3.134847"><ele>233</ele><time>2019-09-27T13:37:32Z</time><name>PT11454</name></trkpt>
<trkpt lat="52.959547" lon="-3.134832"><ele>233</ele><time>2019-09-27T13:37:33Z</time><name>PT11455</name></trkpt>
<trkpt lat="52.959548" lon="-3.134818"><ele>233</ele><time>2019-09-27T13:37:34Z</time><name>PT11456</name></trkpt>
<trkpt lat="52.959552" lon="-3.134803"><ele>233</ele><time>2019-09-27T13:37:35Z</time><name>PT11457</name></trkpt>
<trkpt lat="52.959554" lon="-3.134786"><ele>233</ele><time>2019-09-27T13:37:36Z</time><name>PT11458</name></trkpt>
<trkpt lat="52.959555" lon="-3.134770"><ele>233</ele><time>2019-09-27T13:37:37Z</time><name>PT11459</name></trkpt>
<trkpt lat="52.959556" lon="-3.134751"><ele>233</ele><time>2019-09-27T13:37:38Z</time><name>PT11460</name></trkpt>
<trkpt lat="52.959557" lon="-3.134736"><ele>233</ele><time>2019-09-27T13:37:39Z</time><name>PT11461</name></trkpt>
<trkpt lat="52.959558" lon="-3.134721"><ele>233</ele><time>2019-09-27T13:37:40Z</time><name>PT11462</name></trkpt>
<trkpt lat="52.959558" lon="-3.134713"><ele>233</ele><time>2019-09-27T13:37:41Z</time><name>PT11463</name></trkpt>
<trkpt lat="52.959557" lon="-3.134702"><ele>233</ele><time>2019-09-27T13:37:42Z</time><name>PT11464</name></trkpt>
<trkpt lat="52.959557" lon="-3.134686"><ele>233</ele><time>2019-09-27T13:37:42Z</time><name>PT11465</name></trkpt>
<trkpt lat="52.959561" lon="-3.134663"><ele>234</ele><time>2019-09-27T13:37:44Z</time><name>PT11466</name></trkpt>
<trkpt lat="52.959562" lon="-3.134651"><ele>235</ele><time>2019-09-27T13:37:45Z</time><name>PT11467</name></trkpt>
<trkpt lat="52.959561" lon="-3.134637"><ele>235</ele><time>2019-09-27T13:37:45Z</time><name>PT11468</name></trkpt>
<trkpt lat="52.959564" lon="-3.134620"><ele>236</ele><time>2019-09-27T13:37:47Z</time><name>PT11469</name></trkpt>
<trkpt lat="52.959566" lon="-3.134603"><ele>236</ele><time>2019-09-27T13:37:48Z</time><name>PT11470</name></trkpt>
<trkpt lat="52.959569" lon="-3.134594"><ele>236</ele><time>2019-09-27T13:37:48Z</time><name>PT11471</name></trkpt>
<trkpt lat="52.959569" lon="-3.134576"><ele>236</ele><time>2019-09-27T13:37:50Z</time><name>PT11472</name></trkpt>
<trkpt lat="52.959571" lon="-3.134556"><ele>237</ele><time>2019-09-27T13:37:51Z</time><name>PT11473</name></trkpt>
<trkpt lat="52.959571" lon="-3.134541"><ele>236</ele><time>2019-09-27T13:37:51Z</time><name>PT11474</name></trkpt>
<trkpt lat="52.959570" lon="-3.134526"><ele>236</ele><time>2019-09-27T13:37:53Z</time><name>PT11475</name></trkpt>
<trkpt lat="52.959571" lon="-3.134511"><ele>237</ele><time>2019-09-27T13:37:54Z</time><name>PT11476</name></trkpt>
<trkpt lat="52.959571" lon="-3.134493"><ele>237</ele><time>2019-09-27T13:37:54Z</time><name>PT11477</name></trkpt>
<trkpt lat="52.959571" lon="-3.134482"><ele>237</ele><time>2019-09-27T13:37:56Z</time><name>PT11478</name></trkpt>
<trkpt lat="52.959571" lon="-3.134469"><ele>238</ele><time>2019-09-27T13:37:57Z</time><name>PT11479</name></trkpt>
<trkpt lat="52.959571" lon="-3.134456"><ele>238</ele><time>2019-09-27T13:37:57Z</time><name>PT11480</name></trkpt>
<trkpt lat="52.959570" lon="-3.134444"><ele>238</ele><time>2019-09-27T13:37:59Z</time><name>PT11481</name></trkpt>
<trkpt lat="52.959570" lon="-3.134433"><ele>238</ele><time>2019-09-27T13:38:00Z</time><name>PT11482</name></trkpt>
<trkpt lat="52.959571" lon="-3.134428"><ele>238</ele><time>2019-09-27T13:38:00Z</time><name>PT11483</name></trkpt>
<trkpt lat="52.959571" lon="-3.134412"><ele>238</ele><time>2019-09-27T13:38:02Z</time><name>PT11484</name></trkpt>
<trkpt lat="52.959573" lon="-3.134393"><ele>238</ele><time>2019-09-27T13:38:03Z</time><name>PT11485</name></trkpt>
<trkpt lat="52.959577" lon="-3.134380"><ele>239</ele><time>2019-09-27T13:38:03Z</time><name>PT11486</name></trkpt>
<trkpt lat="52.959579" lon="-3.134369"><ele>239</ele><time>2019-09-27T13:38:05Z</time><name>PT11487</name></trkpt>
<trkpt lat="52.959580" lon="-3.134353"><ele>240</ele><time>2019-09-27T13:38:06Z</time><name>PT11488</name></trkpt>
<trkpt lat="52.959581" lon="-3.134339"><ele>240</ele><time>2019-09-27T13:38:06Z</time><name>PT11489</name></trkpt>
<trkpt lat="52.959582" lon="-3.134330"><ele>240</ele><time>2019-09-27T13:38:08Z</time><name>PT11490</name></trkpt>
<trkpt lat="52.959583" lon="-3.134323"><ele>240</ele><time>2019-09-27T13:38:09Z</time><name>PT11491</name></trkpt>
<trkpt lat="52.959584" lon="-3.134318"><ele>241</ele><time>2019-09-27T13:38:09Z</time><name>PT11492</name></trkpt>
<trkpt lat="52.959585" lon="-3.134318"><ele>241</ele><time>2019-09-27T13:38:11Z</time><name>PT11493</name></trkpt>
<trkpt lat="52.959583" lon="-3.134314"><ele>240</ele><time>2019-09-27T13:38:12Z</time><name>PT11494</name></trkpt>
<trkpt lat="52.959580" lon="-3.134314"><ele>240</ele><time>2019-09-27T13:38:15Z</time><name>PT11495</name></trkpt>
<trkpt lat="52.959578" lon="-3.134300"><ele>240</ele><time>2019-09-27T13:38:15Z</time><name>PT11496</name></trkpt>
<trkpt lat="52.959580" lon="-3.134284"><ele>240</ele><time>2019-09-27T13:38:17Z</time><name>PT11497</name></trkpt>
<trkpt lat="52.959581" lon="-3.134268"><ele>240</ele><time>2019-09-27T13:38:18Z</time><name>PT11498</name></trkpt>
<trkpt lat="52.959582" lon="-3.134245"><ele>240</ele><time>2019-09-27T13:38:18Z</time><name>PT11499</name></trkpt>
<trkpt lat="52.959581" lon="-3.134227"><ele>241</ele><time>2019-09-27T13:38:20Z</time><name>PT11500</name></trkpt>
<trkpt lat="52.959581" lon="-3.134214"><ele>241</ele><time>2019-09-27T13:38:21Z</time><name>PT11501</name></trkpt>
<trkpt lat="52.959582" lon="-3.134206"><ele>241</ele><time>2019-09-27T13:38:21Z</time><name>PT11502</name></trkpt>
<trkpt lat="52.959581" lon="-3.134193"><ele>240</ele><time>2019-09-27T13:38:23Z</time><name>PT11503</name></trkpt>
<trkpt lat="52.959581" lon="-3.134181"><ele>240</ele><time>2019-09-27T13:38:24Z</time><name>PT11504</name></trkpt>
<trkpt lat="52.959582" lon="-3.134168"><ele>240</ele><time>2019-09-27T13:38:24Z</time><name>PT11505</name></trkpt>
<trkpt lat="52.959581" lon="-3.134160"><ele>240</ele><time>2019-09-27T13:38:26Z</time><name>PT11506</name></trkpt>
<trkpt lat="52.959582" lon="-3.134149"><ele>241</ele><time>2019-09-27T13:38:27Z</time><name>PT11507</name></trkpt>
<trkpt lat="52.959584" lon="-3.134136"><ele>241</ele><time>2019-09-27T13:38:27Z</time><name>PT11508</name></trkpt>
<trkpt lat="52.959585" lon="-3.134120"><ele>241</ele><time>2019-09-27T13:38:29Z</time><name>PT11509</name></trkpt>
<trkpt lat="52.959585" lon="-3.134104"><ele>241</ele><time>2019-09-27T13:38:30Z</time><name>PT11510</name></trkpt>
<trkpt lat="52.959587" lon="-3.134089"><ele>241</ele><time>2019-09-27T13:38:30Z</time><name>PT11511</name></trkpt>
<trkpt lat="52.959588" lon="-3.134080"><ele>241</ele><time>2019-09-27T13:38:32Z</time><name>PT11512</name></trkpt>
<trkpt lat="52.959588" lon="-3.134069"><ele>241</ele><time>2019-09-27T13:38:33Z</time><name>PT11513</name></trkpt>
<trkpt lat="52.959589" lon="-3.134058"><ele>241</ele><time>2019-09-27T13:38:34Z</time><name>PT11514</name></trkpt>
<trkpt lat="52.959591" lon="-3.134050"><ele>241</ele><time>2019-09-27T13:38:35Z</time><name>PT11515</name></trkpt>
<trkpt lat="52.959591" lon="-3.134042"><ele>241</ele><time>2019-09-27T13:38:36Z</time><name>PT11516</name></trkpt>
<trkpt lat="52.959592" lon="-3.134033"><ele>241</ele><time>2019-09-27T13:38:37Z</time><name>PT11517</name></trkpt>
<trkpt lat="52.959594" lon="-3.134018"><ele>241</ele><time>2019-09-27T13:38:38Z</time><name>PT11518</name></trkpt>
<trkpt lat="52.959597" lon="-3.134006"><ele>241</ele><time>2019-09-27T13:38:39Z</time><name>PT11519</name></trkpt>
<trkpt lat="52.959599" lon="-3.133991"><ele>241</ele><time>2019-09-27T13:38:40Z</time><name>PT11520</name></trkpt>
<trkpt lat="52.959600" lon="-3.133972"><ele>241</ele><time>2019-09-27T13:38:41Z</time><name>PT11521</name></trkpt>
<trkpt lat="52.959602" lon="-3.133956"><ele>242</ele><time>2019-09-27T13:38:42Z</time><name>PT11522</name></trkpt>
<trkpt lat="52.959604" lon="-3.133945"><ele>242</ele><time>2019-09-27T13:38:43Z</time><name>PT11523</name></trkpt>
<trkpt lat="52.959607" lon="-3.133930"><ele>243</ele><time>2019-09-27T13:38:44Z</time><name>PT11524</name></trkpt>
<trkpt lat="52.959608" lon="-3.133917"><ele>243</ele><time>2019-09-27T13:38:45Z</time><name>PT11525</name></trkpt>
<trkpt lat="52.959610" lon="-3.133905"><ele>244</ele><time>2019-09-27T13:38:46Z</time><name>PT11526</name></trkpt>
<trkpt lat="52.959611" lon="-3.133889"><ele>244</ele><time>2019-09-27T13:38:47Z</time><name>PT11527</name></trkpt>
<trkpt lat="52.959613" lon="-3.133871"><ele>244</ele><time>2019-09-27T13:38:48Z</time><name>PT11528</name></trkpt>
<trkpt lat="52.959613" lon="-3.133856"><ele>244</ele><time>2019-09-27T13:38:48Z</time><name>PT11529</name></trkpt>
<trkpt lat="52.959614" lon="-3.133844"><ele>244</ele><time>2019-09-27T13:38:50Z</time><name>PT11530</name></trkpt>
<trkpt lat="52.959618" lon="-3.133827"><ele>245</ele><time>2019-09-27T13:38:51Z</time><name>PT11531</name></trkpt>
<trkpt lat="52.959620" lon="-3.133811"><ele>246</ele><time>2019-09-27T13:38:52Z</time><name>PT11532</name></trkpt>
<trkpt lat="52.959621" lon="-3.133798"><ele>246</ele><time>2019-09-27T13:38:53Z</time><name>PT11533</name></trkpt>
<trkpt lat="52.959623" lon="-3.133784"><ele>246</ele><time>2019-09-27T13:38:54Z</time><name>PT11534</name></trkpt>
<trkpt lat="52.959626" lon="-3.133771"><ele>247</ele><time>2019-09-27T13:38:55Z</time><name>PT11535</name></trkpt>
<trkpt lat="52.959628" lon="-3.133762"><ele>247</ele><time>2019-09-27T13:38:56Z</time><name>PT11536</name></trkpt>
<trkpt lat="52.959631" lon="-3.133757"><ele>246</ele><time>2019-09-27T13:38:57Z</time><name>PT11537</name></trkpt>
<trkpt lat="52.959632" lon="-3.133749"><ele>246</ele><time>2019-09-27T13:38:58Z</time><name>PT11538</name></trkpt>
<trkpt lat="52.959634" lon="-3.133739"><ele>246</ele><time>2019-09-27T13:38:59Z</time><name>PT11539</name></trkpt>
<trkpt lat="52.959636" lon="-3.133721"><ele>246</ele><time>2019-09-27T13:39:00Z</time><name>PT11540</name></trkpt>
<trkpt lat="52.959639" lon="-3.133708"><ele>246</ele><time>2019-09-27T13:39:01Z</time><name>PT11541</name></trkpt>
<trkpt lat="52.959640" lon="-3.133695"><ele>246</ele><time>2019-09-27T13:39:02Z</time><name>PT11542</name></trkpt>
<trkpt lat="52.959640" lon="-3.133681"><ele>247</ele><time>2019-09-27T13:39:03Z</time><name>PT11543</name></trkpt>
<trkpt lat="52.959639" lon="-3.133672"><ele>247</ele><time>2019-09-27T13:39:04Z</time><name>PT11544</name></trkpt>
<trkpt lat="52.959641" lon="-3.133658"><ele>247</ele><time>2019-09-27T13:39:05Z</time><name>PT11545</name></trkpt>
<trkpt lat="52.959641" lon="-3.133645"><ele>247</ele><time>2019-09-27T13:39:06Z</time><name>PT11546</name></trkpt>
<trkpt lat="52.959643" lon="-3.133638"><ele>247</ele><time>2019-09-27T13:39:06Z</time><name>PT11547</name></trkpt>
<trkpt lat="52.959644" lon="-3.133629"><ele>247</ele><time>2019-09-27T13:39:08Z</time><name>PT11548</name></trkpt>
<trkpt lat="52.959645" lon="-3.133621"><ele>247</ele><time>2019-09-27T13:39:09Z</time><name>PT11549</name></trkpt>
<trkpt lat="52.959647" lon="-3.133613"><ele>247</ele><time>2019-09-27T13:39:09Z</time><name>PT11550</name></trkpt>
<trkpt lat="52.959649" lon="-3.133598"><ele>248</ele><time>2019-09-27T13:39:11Z</time><name>PT11551</name></trkpt>
<trkpt lat="52.959649" lon="-3.133596"><ele>248</ele><time>2019-09-27T13:39:12Z</time><name>PT11552</name></trkpt>
<trkpt lat="52.959652" lon="-3.133593"><ele>248</ele><time>2019-09-27T13:39:32Z</time><name>PT11553</name></trkpt>
<trkpt lat="52.959650" lon="-3.133590"><ele>248</ele><time>2019-09-27T13:39:33Z</time><name>PT11554</name></trkpt>
<trkpt lat="52.959651" lon="-3.133588"><ele>248</ele><time>2019-09-27T13:39:33Z</time><name>PT11555</name></trkpt>
<trkpt lat="52.959652" lon="-3.133580"><ele>248</ele><time>2019-09-27T13:39:39Z</time><name>PT11556</name></trkpt>
<trkpt lat="52.959655" lon="-3.133561"><ele>248</ele><time>2019-09-27T13:39:40Z</time><name>PT11557</name></trkpt>
<trkpt lat="52.959651" lon="-3.133544"><ele>248</ele><time>2019-09-27T13:39:41Z</time><name>PT11558</name></trkpt>
<trkpt lat="52.959652" lon="-3.133530"><ele>249</ele><time>2019-09-27T13:39:42Z</time><name>PT11559</name></trkpt>
<trkpt lat="52.959652" lon="-3.133515"><ele>248</ele><time>2019-09-27T13:39:43Z</time><name>PT11560</name></trkpt>
<trkpt lat="52.959651" lon="-3.133501"><ele>248</ele><time>2019-09-27T13:39:44Z</time><name>PT11561</name></trkpt>
<trkpt lat="52.959653" lon="-3.133483"><ele>248</ele><time>2019-09-27T13:39:45Z</time><name>PT11562</name></trkpt>
<trkpt lat="52.959655" lon="-3.133472"><ele>249</ele><time>2019-09-27T13:39:46Z</time><name>PT11563</name></trkpt>
<trkpt lat="52.959656" lon="-3.133461"><ele>249</ele><time>2019-09-27T13:39:47Z</time><name>PT11564</name></trkpt>
<trkpt lat="52.959655" lon="-3.133452"><ele>249</ele><time>2019-09-27T13:39:48Z</time><name>PT11565</name></trkpt>
<trkpt lat="52.959655" lon="-3.133443"><ele>249</ele><time>2019-09-27T13:39:48Z</time><name>PT11566</name></trkpt>
<trkpt lat="52.959649" lon="-3.133429"><ele>249</ele><time>2019-09-27T13:39:52Z</time><name>PT11567</name></trkpt>
<trkpt lat="52.959652" lon="-3.133413"><ele>249</ele><time>2019-09-27T13:39:53Z</time><name>PT11568</name></trkpt>
<trkpt lat="52.959654" lon="-3.133391"><ele>249</ele><time>2019-09-27T13:39:54Z</time><name>PT11569</name></trkpt>
<trkpt lat="52.959656" lon="-3.133380"><ele>248</ele><time>2019-09-27T13:39:55Z</time><name>PT11570</name></trkpt>
<trkpt lat="52.959656" lon="-3.133373"><ele>248</ele><time>2019-09-27T13:39:56Z</time><name>PT11571</name></trkpt>
<trkpt lat="52.959656" lon="-3.133366"><ele>248</ele><time>2019-09-27T13:39:57Z</time><name>PT11572</name></trkpt>
<trkpt lat="52.959658" lon="-3.133355"><ele>249</ele><time>2019-09-27T13:40:00Z</time><name>PT11573</name></trkpt>
<trkpt lat="52.959658" lon="-3.133343"><ele>249</ele><time>2019-09-27T13:40:01Z</time><name>PT11574</name></trkpt>
<trkpt lat="52.959659" lon="-3.133330"><ele>248</ele><time>2019-09-27T13:40:02Z</time><name>PT11575</name></trkpt>
<trkpt lat="52.959660" lon="-3.133320"><ele>248</ele><time>2019-09-27T13:40:03Z</time><name>PT11576</name></trkpt>
<trkpt lat="52.959659" lon="-3.133310"><ele>248</ele><time>2019-09-27T13:40:03Z</time><name>PT11577</name></trkpt>
<trkpt lat="52.959659" lon="-3.133301"><ele>248</ele><time>2019-09-27T13:40:12Z</time><name>PT11578</name></trkpt>
<trkpt lat="52.959656" lon="-3.133289"><ele>249</ele><time>2019-09-27T13:40:14Z</time><name>PT11579</name></trkpt>
<trkpt lat="52.959653" lon="-3.133269"><ele>249</ele><time>2019-09-27T13:40:15Z</time><name>PT11580</name></trkpt>
<trkpt lat="52.959650" lon="-3.133257"><ele>249</ele><time>2019-09-27T13:40:15Z</time><name>PT11581</name></trkpt>
<trkpt lat="52.959650" lon="-3.133247"><ele>248</ele><time>2019-09-27T13:40:17Z</time><name>PT11582</name></trkpt>
<trkpt lat="52.959644" lon="-3.133202"><ele>250</ele><time>2019-09-27T13:40:29Z</time><name>PT11583</name></trkpt>
<trkpt lat="52.959641" lon="-3.133177"><ele>250</ele><time>2019-09-27T13:40:30Z</time><name>PT11584</name></trkpt>
<trkpt lat="52.959638" lon="-3.133147"><ele>250</ele><time>2019-09-27T13:40:30Z</time><name>PT11585</name></trkpt>
<trkpt lat="52.959636" lon="-3.133129"><ele>250</ele><time>2019-09-27T13:40:32Z</time><name>PT11586</name></trkpt>
<trkpt lat="52.959637" lon="-3.133112"><ele>250</ele><time>2019-09-27T13:40:33Z</time><name>PT11587</name></trkpt>
<trkpt lat="52.959639" lon="-3.133093"><ele>249</ele><time>2019-09-27T13:40:33Z</time><name>PT11588</name></trkpt>
<trkpt lat="52.959643" lon="-3.133071"><ele>249</ele><time>2019-09-27T13:40:35Z</time><name>PT11589</name></trkpt>
<trkpt lat="52.959644" lon="-3.133054"><ele>249</ele><time>2019-09-27T13:40:36Z</time><name>PT11590</name></trkpt>
<trkpt lat="52.959648" lon="-3.133029"><ele>248</ele><time>2019-09-27T13:40:36Z</time><name>PT11591</name></trkpt>
<trkpt lat="52.959648" lon="-3.133014"><ele>248</ele><time>2019-09-27T13:40:38Z</time><name>PT11592</name></trkpt>
<trkpt lat="52.959649" lon="-3.133002"><ele>248</ele><time>2019-09-27T13:40:39Z</time><name>PT11593</name></trkpt>
<trkpt lat="52.959650" lon="-3.132979"><ele>249</ele><time>2019-09-27T13:40:39Z</time><name>PT11594</name></trkpt>
<trkpt lat="52.959650" lon="-3.132967"><ele>249</ele><time>2019-09-27T13:40:41Z</time><name>PT11595</name></trkpt>
<trkpt lat="52.959648" lon="-3.132957"><ele>249</ele><time>2019-09-27T13:40:42Z</time><name>PT11596</name></trkpt>
<trkpt lat="52.959648" lon="-3.132941"><ele>249</ele><time>2019-09-27T13:40:42Z</time><name>PT11597</name></trkpt>
<trkpt lat="52.959649" lon="-3.132925"><ele>250</ele><time>2019-09-27T13:40:44Z</time><name>PT11598</name></trkpt>
<trkpt lat="52.959651" lon="-3.132911"><ele>250</ele><time>2019-09-27T13:40:45Z</time><name>PT11599</name></trkpt>
<trkpt lat="52.959655" lon="-3.132892"><ele>250</ele><time>2019-09-27T13:40:45Z</time><name>PT11600</name></trkpt>
<trkpt lat="52.959657" lon="-3.132874"><ele>250</ele><time>2019-09-27T13:40:47Z</time><name>PT11601</name></trkpt>
<trkpt lat="52.959656" lon="-3.132856"><ele>251</ele><time>2019-09-27T13:40:48Z</time><name>PT11602</name></trkpt>
<trkpt lat="52.959656" lon="-3.132842"><ele>251</ele><time>2019-09-27T13:40:49Z</time><name>PT11603</name></trkpt>
<trkpt lat="52.959659" lon="-3.132825"><ele>251</ele><time>2019-09-27T13:40:50Z</time><name>PT11604</name></trkpt>
<trkpt lat="52.959660" lon="-3.132812"><ele>252</ele><time>2019-09-27T13:40:51Z</time><name>PT11605</name></trkpt>
<trkpt lat="52.959662" lon="-3.132799"><ele>252</ele><time>2019-09-27T13:40:51Z</time><name>PT11606</name></trkpt>
<trkpt lat="52.959666" lon="-3.132784"><ele>252</ele><time>2019-09-27T13:40:53Z</time><name>PT11607</name></trkpt>
<trkpt lat="52.959664" lon="-3.132770"><ele>253</ele><time>2019-09-27T13:40:54Z</time><name>PT11608</name></trkpt>
<trkpt lat="52.959664" lon="-3.132755"><ele>253</ele><time>2019-09-27T13:40:54Z</time><name>PT11609</name></trkpt>
<trkpt lat="52.959664" lon="-3.132738"><ele>254</ele><time>2019-09-27T13:40:56Z</time><name>PT11610</name></trkpt>
<trkpt lat="52.959663" lon="-3.132723"><ele>254</ele><time>2019-09-27T13:40:57Z</time><name>PT11611</name></trkpt>
<trkpt lat="52.959662" lon="-3.132711"><ele>254</ele><time>2019-09-27T13:40:57Z</time><name>PT11612</name></trkpt>
<trkpt lat="52.959660" lon="-3.132698"><ele>254</ele><time>2019-09-27T13:40:59Z</time><name>PT11613</name></trkpt>
<trkpt lat="52.959655" lon="-3.132690"><ele>254</ele><time>2019-09-27T13:41:00Z</time><name>PT11614</name></trkpt>
<trkpt lat="52.959654" lon="-3.132680"><ele>254</ele><time>2019-09-27T13:41:00Z</time><name>PT11615</name></trkpt>
<trkpt lat="52.959653" lon="-3.132673"><ele>254</ele><time>2019-09-27T13:41:02Z</time><name>PT11616</name></trkpt>
<trkpt lat="52.959651" lon="-3.132662"><ele>254</ele><time>2019-09-27T13:41:03Z</time><name>PT11617</name></trkpt>
<trkpt lat="52.959652" lon="-3.132649"><ele>254</ele><time>2019-09-27T13:41:04Z</time><name>PT11618</name></trkpt>
<trkpt lat="52.959651" lon="-3.132636"><ele>255</ele><time>2019-09-27T13:41:05Z</time><name>PT11619</name></trkpt>
<trkpt lat="52.959646" lon="-3.132629"><ele>254</ele><time>2019-09-27T13:41:06Z</time><name>PT11620</name></trkpt>
<trkpt lat="52.959642" lon="-3.132619"><ele>254</ele><time>2019-09-27T13:41:06Z</time><name>PT11621</name></trkpt>
<trkpt lat="52.959643" lon="-3.132606"><ele>254</ele><time>2019-09-27T13:41:08Z</time><name>PT11622</name></trkpt>
<trkpt lat="52.959643" lon="-3.132596"><ele>255</ele><time>2019-09-27T13:41:09Z</time><name>PT11623</name></trkpt>
<trkpt lat="52.959640" lon="-3.132584"><ele>255</ele><time>2019-09-27T13:41:09Z</time><name>PT11624</name></trkpt>
<trkpt lat="52.959637" lon="-3.132567"><ele>255</ele><time>2019-09-27T13:41:11Z</time><name>PT11625</name></trkpt>
<trkpt lat="52.959634" lon="-3.132552"><ele>256</ele><time>2019-09-27T13:41:12Z</time><name>PT11626</name></trkpt>
<trkpt lat="52.959631" lon="-3.132534"><ele>256</ele><time>2019-09-27T13:41:12Z</time><name>PT11627</name></trkpt>
<trkpt lat="52.959630" lon="-3.132522"><ele>257</ele><time>2019-09-27T13:41:14Z</time><name>PT11628</name></trkpt>
<trkpt lat="52.959631" lon="-3.132508"><ele>257</ele><time>2019-09-27T13:41:15Z</time><name>PT11629</name></trkpt>
<trkpt lat="52.959629" lon="-3.132495"><ele>258</ele><time>2019-09-27T13:41:15Z</time><name>PT11630</name></trkpt>
<trkpt lat="52.959629" lon="-3.132483"><ele>258</ele><time>2019-09-27T13:41:17Z</time><name>PT11631</name></trkpt>
<trkpt lat="52.959627" lon="-3.132468"><ele>258</ele><time>2019-09-27T13:41:18Z</time><name>PT11632</name></trkpt>
<trkpt lat="52.959626" lon="-3.132453"><ele>258</ele><time>2019-09-27T13:41:18Z</time><name>PT11633</name></trkpt>
<trkpt lat="52.959624" lon="-3.132440"><ele>258</ele><time>2019-09-27T13:41:20Z</time><name>PT11634</name></trkpt>
<trkpt lat="52.959623" lon="-3.132426"><ele>258</ele><time>2019-09-27T13:41:21Z</time><name>PT11635</name></trkpt>
<trkpt lat="52.959622" lon="-3.132416"><ele>258</ele><time>2019-09-27T13:41:21Z</time><name>PT11636</name></trkpt>
<trkpt lat="52.959622" lon="-3.132409"><ele>259</ele><time>2019-09-27T13:41:23Z</time><name>PT11637</name></trkpt>
<trkpt lat="52.959620" lon="-3.132393"><ele>259</ele><time>2019-09-27T13:41:24Z</time><name>PT11638</name></trkpt>
<trkpt lat="52.959618" lon="-3.132388"><ele>260</ele><time>2019-09-27T13:41:24Z</time><name>PT11639</name></trkpt>
<trkpt lat="52.959619" lon="-3.132387"><ele>260</ele><time>2019-09-27T13:41:26Z</time><name>PT11640</name></trkpt>
<trkpt lat="52.959620" lon="-3.132390"><ele>260</ele><time>2019-09-27T13:41:27Z</time><name>PT11641</name></trkpt>
<trkpt lat="52.959620" lon="-3.132395"><ele>260</ele><time>2019-09-27T13:41:27Z</time><name>PT11642</name></trkpt>
<trkpt lat="52.959624" lon="-3.132383"><ele>261</ele><time>2019-09-27T13:41:57Z</time><name>PT11643</name></trkpt>
<trkpt lat="52.959622" lon="-3.132364"><ele>260</ele><time>2019-09-27T13:41:58Z</time><name>PT11644</name></trkpt>
<trkpt lat="52.959624" lon="-3.132346"><ele>260</ele><time>2019-09-27T13:41:59Z</time><name>PT11645</name></trkpt>
<trkpt lat="52.959625" lon="-3.132323"><ele>260</ele><time>2019-09-27T13:42:00Z</time><name>PT11646</name></trkpt>
<trkpt lat="52.959629" lon="-3.132307"><ele>259</ele><time>2019-09-27T13:42:01Z</time><name>PT11647</name></trkpt>
<trkpt lat="52.959633" lon="-3.132293"><ele>260</ele><time>2019-09-27T13:42:02Z</time><name>PT11648</name></trkpt>
<trkpt lat="52.959635" lon="-3.132277"><ele>259</ele><time>2019-09-27T13:42:03Z</time><name>PT11649</name></trkpt>
<trkpt lat="52.959636" lon="-3.132262"><ele>260</ele><time>2019-09-27T13:42:04Z</time><name>PT11650</name></trkpt>
<trkpt lat="52.959637" lon="-3.132246"><ele>259</ele><time>2019-09-27T13:42:05Z</time><name>PT11651</name></trkpt>
<trkpt lat="52.959638" lon="-3.132231"><ele>259</ele><time>2019-09-27T13:42:06Z</time><name>PT11652</name></trkpt>
<trkpt lat="52.959639" lon="-3.132219"><ele>259</ele><time>2019-09-27T13:42:07Z</time><name>PT11653</name></trkpt>
<trkpt lat="52.959637" lon="-3.132209"><ele>259</ele><time>2019-09-27T13:42:08Z</time><name>PT11654</name></trkpt>
<trkpt lat="52.959639" lon="-3.132196"><ele>259</ele><time>2019-09-27T13:42:09Z</time><name>PT11655</name></trkpt>
<trkpt lat="52.959640" lon="-3.132180"><ele>259</ele><time>2019-09-27T13:42:10Z</time><name>PT11656</name></trkpt>
<trkpt lat="52.959641" lon="-3.132168"><ele>260</ele><time>2019-09-27T13:42:11Z</time><name>PT11657</name></trkpt>
<trkpt lat="52.959641" lon="-3.132156"><ele>260</ele><time>2019-09-27T13:42:12Z</time><name>PT11658</name></trkpt>
<trkpt lat="52.959641" lon="-3.132143"><ele>260</ele><time>2019-09-27T13:42:13Z</time><name>PT11659</name></trkpt>
<trkpt lat="52.959641" lon="-3.132131"><ele>260</ele><time>2019-09-27T13:42:14Z</time><name>PT11660</name></trkpt>
<trkpt lat="52.959641" lon="-3.132117"><ele>260</ele><time>2019-09-27T13:42:15Z</time><name>PT11661</name></trkpt>
<trkpt lat="52.959641" lon="-3.132103"><ele>261</ele><time>2019-09-27T13:42:16Z</time><name>PT11662</name></trkpt>
<trkpt lat="52.959641" lon="-3.132092"><ele>261</ele><time>2019-09-27T13:42:17Z</time><name>PT11663</name></trkpt>
<trkpt lat="52.959640" lon="-3.132073"><ele>261</ele><time>2019-09-27T13:42:18Z</time><name>PT11664</name></trkpt>
<trkpt lat="52.959640" lon="-3.132058"><ele>261</ele><time>2019-09-27T13:42:19Z</time><name>PT11665</name></trkpt>
<trkpt lat="52.959641" lon="-3.132044"><ele>261</ele><time>2019-09-27T13:42:20Z</time><name>PT11666</name></trkpt>
<trkpt lat="52.959642" lon="-3.132027"><ele>262</ele><time>2019-09-27T13:42:21Z</time><name>PT11667</name></trkpt>
<trkpt lat="52.959643" lon="-3.132014"><ele>262</ele><time>2019-09-27T13:42:21Z</time><name>PT11668</name></trkpt>
<trkpt lat="52.959643" lon="-3.132003"><ele>262</ele><time>2019-09-27T13:42:23Z</time><name>PT11669</name></trkpt>
<trkpt lat="52.959643" lon="-3.131990"><ele>262</ele><time>2019-09-27T13:42:24Z</time><name>PT11670</name></trkpt>
<trkpt lat="52.959643" lon="-3.131980"><ele>262</ele><time>2019-09-27T13:42:24Z</time><name>PT11671</name></trkpt>
<trkpt lat="52.959644" lon="-3.131973"><ele>262</ele><time>2019-09-27T13:42:26Z</time><name>PT11672</name></trkpt>
<trkpt lat="52.959644" lon="-3.131961"><ele>262</ele><time>2019-09-27T13:42:27Z</time><name>PT11673</name></trkpt>
<trkpt lat="52.959646" lon="-3.131954"><ele>262</ele><time>2019-09-27T13:42:27Z</time><name>PT11674</name></trkpt>
<trkpt lat="52.959646" lon="-3.131945"><ele>262</ele><time>2019-09-27T13:42:29Z</time><name>PT11675</name></trkpt>
<trkpt lat="52.959645" lon="-3.131930"><ele>262</ele><time>2019-09-27T13:42:30Z</time><name>PT11676</name></trkpt>
<trkpt lat="52.959644" lon="-3.131913"><ele>262</ele><time>2019-09-27T13:42:30Z</time><name>PT11677</name></trkpt>
<trkpt lat="52.959644" lon="-3.131900"><ele>263</ele><time>2019-09-27T13:42:32Z</time><name>PT11678</name></trkpt>
<trkpt lat="52.959642" lon="-3.131888"><ele>262</ele><time>2019-09-27T13:42:33Z</time><name>PT11679</name></trkpt>
<trkpt lat="52.959641" lon="-3.131875"><ele>262</ele><time>2019-09-27T13:42:33Z</time><name>PT11680</name></trkpt>
<trkpt lat="52.959641" lon="-3.131867"><ele>263</ele><time>2019-09-27T13:42:35Z</time><name>PT11681</name></trkpt>
<trkpt lat="52.959639" lon="-3.131855"><ele>263</ele><time>2019-09-27T13:42:36Z</time><name>PT11682</name></trkpt>
<trkpt lat="52.959638" lon="-3.131839"><ele>263</ele><time>2019-09-27T13:42:36Z</time><name>PT11683</name></trkpt>
<trkpt lat="52.959636" lon="-3.131824"><ele>263</ele><time>2019-09-27T13:42:38Z</time><name>PT11684</name></trkpt>
<trkpt lat="52.959636" lon="-3.131809"><ele>263</ele><time>2019-09-27T13:42:39Z</time><name>PT11685</name></trkpt>
<trkpt lat="52.959636" lon="-3.131796"><ele>264</ele><time>2019-09-27T13:42:39Z</time><name>PT11686</name></trkpt>
<trkpt lat="52.959636" lon="-3.131787"><ele>263</ele><time>2019-09-27T13:42:41Z</time><name>PT11687</name></trkpt>
<trkpt lat="52.959637" lon="-3.131775"><ele>264</ele><time>2019-09-27T13:42:42Z</time><name>PT11688</name></trkpt>
<trkpt lat="52.959636" lon="-3.131763"><ele>264</ele><time>2019-09-27T13:42:42Z</time><name>PT11689</name></trkpt>
<trkpt lat="52.959636" lon="-3.131749"><ele>264</ele><time>2019-09-27T13:42:44Z</time><name>PT11690</name></trkpt>
<trkpt lat="52.959636" lon="-3.131737"><ele>265</ele><time>2019-09-27T13:42:45Z</time><name>PT11691</name></trkpt>
<trkpt lat="52.959638" lon="-3.131722"><ele>265</ele><time>2019-09-27T13:42:45Z</time><name>PT11692</name></trkpt>
<trkpt lat="52.959637" lon="-3.131710"><ele>265</ele><time>2019-09-27T13:42:47Z</time><name>PT11693</name></trkpt>
<trkpt lat="52.959637" lon="-3.131699"><ele>265</ele><time>2019-09-27T13:42:48Z</time><name>PT11694</name></trkpt>
<trkpt lat="52.959636" lon="-3.131687"><ele>266</ele><time>2019-09-27T13:42:48Z</time><name>PT11695</name></trkpt>
<trkpt lat="52.959633" lon="-3.131675"><ele>266</ele><time>2019-09-27T13:42:50Z</time><name>PT11696</name></trkpt>
<trkpt lat="52.959632" lon="-3.131662"><ele>266</ele><time>2019-09-27T13:42:51Z</time><name>PT11697</name></trkpt>
<trkpt lat="52.959627" lon="-3.131650"><ele>266</ele><time>2019-09-27T13:42:51Z</time><name>PT11698</name></trkpt>
<trkpt lat="52.959624" lon="-3.131639"><ele>266</ele><time>2019-09-27T13:42:53Z</time><name>PT11699</name></trkpt>
<trkpt lat="52.959621" lon="-3.131623"><ele>266</ele><time>2019-09-27T13:42:54Z</time><name>PT11700</name></trkpt>
<trkpt lat="52.959619" lon="-3.131613"><ele>266</ele><time>2019-09-27T13:42:55Z</time><name>PT11701</name></trkpt>
<trkpt lat="52.959618" lon="-3.131596"><ele>267</ele><time>2019-09-27T13:42:56Z</time><name>PT11702</name></trkpt>
<trkpt lat="52.959619" lon="-3.131581"><ele>267</ele><time>2019-09-27T13:42:57Z</time><name>PT11703</name></trkpt>
<trkpt lat="52.959617" lon="-3.131572"><ele>267</ele><time>2019-09-27T13:42:57Z</time><name>PT11704</name></trkpt>
<trkpt lat="52.959617" lon="-3.131561"><ele>267</ele><time>2019-09-27T13:42:59Z</time><name>PT11705</name></trkpt>
<trkpt lat="52.959617" lon="-3.131548"><ele>267</ele><time>2019-09-27T13:43:00Z</time><name>PT11706</name></trkpt>
<trkpt lat="52.959616" lon="-3.131538"><ele>267</ele><time>2019-09-27T13:43:00Z</time><name>PT11707</name></trkpt>
<trkpt lat="52.959614" lon="-3.131524"><ele>268</ele><time>2019-09-27T13:43:02Z</time><name>PT11708</name></trkpt>
<trkpt lat="52.959613" lon="-3.131514"><ele>268</ele><time>2019-09-27T13:43:03Z</time><name>PT11709</name></trkpt>
<trkpt lat="52.959611" lon="-3.131505"><ele>267</ele><time>2019-09-27T13:43:03Z</time><name>PT11710</name></trkpt>
<trkpt lat="52.959612" lon="-3.131492"><ele>267</ele><time>2019-09-27T13:43:05Z</time><name>PT11711</name></trkpt>
<trkpt lat="52.959614" lon="-3.131478"><ele>267</ele><time>2019-09-27T13:43:06Z</time><name>PT11712</name></trkpt>
<trkpt lat="52.959616" lon="-3.131469"><ele>267</ele><time>2019-09-27T13:43:07Z</time><name>PT11713</name></trkpt>
<trkpt lat="52.959618" lon="-3.131453"><ele>267</ele><time>2019-09-27T13:43:08Z</time><name>PT11714</name></trkpt>
<trkpt lat="52.959620" lon="-3.131440"><ele>267</ele><time>2019-09-27T13:43:09Z</time><name>PT11715</name></trkpt>
<trkpt lat="52.959620" lon="-3.131433"><ele>267</ele><time>2019-09-27T13:43:10Z</time><name>PT11716</name></trkpt>
<trkpt lat="52.959620" lon="-3.131427"><ele>267</ele><time>2019-09-27T13:43:11Z</time><name>PT11717</name></trkpt>
<trkpt lat="52.959622" lon="-3.131415"><ele>267</ele><time>2019-09-27T13:43:12Z</time><name>PT11718</name></trkpt>
<trkpt lat="52.959620" lon="-3.131402"><ele>267</ele><time>2019-09-27T13:43:13Z</time><name>PT11719</name></trkpt>
<trkpt lat="52.959622" lon="-3.131389"><ele>268</ele><time>2019-09-27T13:43:14Z</time><name>PT11720</name></trkpt>
<trkpt lat="52.959623" lon="-3.131376"><ele>268</ele><time>2019-09-27T13:43:15Z</time><name>PT11721</name></trkpt>
<trkpt lat="52.959625" lon="-3.131363"><ele>268</ele><time>2019-09-27T13:43:16Z</time><name>PT11722</name></trkpt>
<trkpt lat="52.959626" lon="-3.131353"><ele>268</ele><time>2019-09-27T13:43:17Z</time><name>PT11723</name></trkpt>
<trkpt lat="52.959627" lon="-3.131344"><ele>268</ele><time>2019-09-27T13:43:18Z</time><name>PT11724</name></trkpt>
<trkpt lat="52.959626" lon="-3.131328"><ele>268</ele><time>2019-09-27T13:43:19Z</time><name>PT11725</name></trkpt>
<trkpt lat="52.959625" lon="-3.131321"><ele>268</ele><time>2019-09-27T13:43:20Z</time><name>PT11726</name></trkpt>
<trkpt lat="52.959626" lon="-3.131309"><ele>268</ele><time>2019-09-27T13:43:21Z</time><name>PT11727</name></trkpt>
<trkpt lat="52.959626" lon="-3.131299"><ele>268</ele><time>2019-09-27T13:43:22Z</time><name>PT11728</name></trkpt>
<trkpt lat="52.959626" lon="-3.131289"><ele>267</ele><time>2019-09-27T13:43:23Z</time><name>PT11729</name></trkpt>
<trkpt lat="52.959626" lon="-3.131282"><ele>267</ele><time>2019-09-27T13:43:24Z</time><name>PT11730</name></trkpt>
<trkpt lat="52.959625" lon="-3.131271"><ele>267</ele><time>2019-09-27T13:43:25Z</time><name>PT11731</name></trkpt>
<trkpt lat="52.959628" lon="-3.131253"><ele>268</ele><time>2019-09-27T13:43:26Z</time><name>PT11732</name></trkpt>
<trkpt lat="52.959628" lon="-3.131239"><ele>269</ele><time>2019-09-27T13:43:27Z</time><name>PT11733</name></trkpt>
<trkpt lat="52.959627" lon="-3.131228"><ele>269</ele><time>2019-09-27T13:43:28Z</time><name>PT11734</name></trkpt>
<trkpt lat="52.959626" lon="-3.131214"><ele>269</ele><time>2019-09-27T13:43:29Z</time><name>PT11735</name></trkpt>
<trkpt lat="52.959625" lon="-3.131200"><ele>269</ele><time>2019-09-27T13:43:30Z</time><name>PT11736</name></trkpt>
<trkpt lat="52.959626" lon="-3.131187"><ele>270</ele><time>2019-09-27T13:43:31Z</time><name>PT11737</name></trkpt>
<trkpt lat="52.959627" lon="-3.131171"><ele>270</ele><time>2019-09-27T13:43:32Z</time><name>PT11738</name></trkpt>
<trkpt lat="52.959629" lon="-3.131159"><ele>271</ele><time>2019-09-27T13:43:33Z</time><name>PT11739</name></trkpt>
<trkpt lat="52.959629" lon="-3.131146"><ele>271</ele><time>2019-09-27T13:43:33Z</time><name>PT11740</name></trkpt>
<trkpt lat="52.959630" lon="-3.131125"><ele>271</ele><time>2019-09-27T13:43:35Z</time><name>PT11741</name></trkpt>
<trkpt lat="52.959628" lon="-3.131111"><ele>271</ele><time>2019-09-27T13:43:36Z</time><name>PT11742</name></trkpt>
<trkpt lat="52.959628" lon="-3.131097"><ele>271</ele><time>2019-09-27T13:43:36Z</time><name>PT11743</name></trkpt>
<trkpt lat="52.959628" lon="-3.131084"><ele>272</ele><time>2019-09-27T13:43:38Z</time><name>PT11744</name></trkpt>
<trkpt lat="52.959626" lon="-3.131070"><ele>272</ele><time>2019-09-27T13:43:39Z</time><name>PT11745</name></trkpt>
<trkpt lat="52.959626" lon="-3.131053"><ele>273</ele><time>2019-09-27T13:43:39Z</time><name>PT11746</name></trkpt>
<trkpt lat="52.959626" lon="-3.131041"><ele>273</ele><time>2019-09-27T13:43:41Z</time><name>PT11747</name></trkpt>
<trkpt lat="52.959625" lon="-3.131025"><ele>273</ele><time>2019-09-27T13:43:42Z</time><name>PT11748</name></trkpt>
<trkpt lat="52.959624" lon="-3.131016"><ele>273</ele><time>2019-09-27T13:43:42Z</time><name>PT11749</name></trkpt>
<trkpt lat="52.959623" lon="-3.131006"><ele>273</ele><time>2019-09-27T13:43:44Z</time><name>PT11750</name></trkpt>
<trkpt lat="52.959622" lon="-3.130994"><ele>273</ele><time>2019-09-27T13:43:45Z</time><name>PT11751</name></trkpt>
<trkpt lat="52.959622" lon="-3.130986"><ele>273</ele><time>2019-09-27T13:43:45Z</time><name>PT11752</name></trkpt>
<trkpt lat="52.959622" lon="-3.130975"><ele>273</ele><time>2019-09-27T13:43:47Z</time><name>PT11753</name></trkpt>
<trkpt lat="52.959622" lon="-3.130963"><ele>274</ele><time>2019-09-27T13:43:48Z</time><name>PT11754</name></trkpt>
<trkpt lat="52.959621" lon="-3.130951"><ele>274</ele><time>2019-09-27T13:43:48Z</time><name>PT11755</name></trkpt>
<trkpt lat="52.959621" lon="-3.130939"><ele>274</ele><time>2019-09-27T13:43:50Z</time><name>PT11756</name></trkpt>
<trkpt lat="52.959620" lon="-3.130926"><ele>274</ele><time>2019-09-27T13:43:51Z</time><name>PT11757</name></trkpt>
<trkpt lat="52.959620" lon="-3.130910"><ele>274</ele><time>2019-09-27T13:43:51Z</time><name>PT11758</name></trkpt>
<trkpt lat="52.959618" lon="-3.130898"><ele>274</ele><time>2019-09-27T13:43:53Z</time><name>PT11759</name></trkpt>
<trkpt lat="52.959617" lon="-3.130885"><ele>274</ele><time>2019-09-27T13:43:54Z</time><name>PT11760</name></trkpt>
<trkpt lat="52.959616" lon="-3.130875"><ele>274</ele><time>2019-09-27T13:43:54Z</time><name>PT11761</name></trkpt>
<trkpt lat="52.959614" lon="-3.130865"><ele>274</ele><time>2019-09-27T13:43:56Z</time><name>PT11762</name></trkpt>
<trkpt lat="52.959610" lon="-3.130847"><ele>275</ele><time>2019-09-27T13:43:57Z</time><name>PT11763</name></trkpt>
<trkpt lat="52.959608" lon="-3.130836"><ele>274</ele><time>2019-09-27T13:43:58Z</time><name>PT11764</name></trkpt>
<trkpt lat="52.959606" lon="-3.130822"><ele>274</ele><time>2019-09-27T13:43:59Z</time><name>PT11765</name></trkpt>
<trkpt lat="52.959606" lon="-3.130811"><ele>274</ele><time>2019-09-27T13:44:00Z</time><name>PT11766</name></trkpt>
<trkpt lat="52.959606" lon="-3.130802"><ele>274</ele><time>2019-09-27T13:44:01Z</time><name>PT11767</name></trkpt>
<trkpt lat="52.959603" lon="-3.130790"><ele>274</ele><time>2019-09-27T13:44:02Z</time><name>PT11768</name></trkpt>
<trkpt lat="52.959601" lon="-3.130782"><ele>274</ele><time>2019-09-27T13:44:03Z</time><name>PT11769</name></trkpt>
<trkpt lat="52.959601" lon="-3.130770"><ele>275</ele><time>2019-09-27T13:44:04Z</time><name>PT11770</name></trkpt>
<trkpt lat="52.959600" lon="-3.130759"><ele>275</ele><time>2019-09-27T13:44:05Z</time><name>PT11771</name></trkpt>
<trkpt lat="52.959600" lon="-3.130747"><ele>275</ele><time>2019-09-27T13:44:06Z</time><name>PT11772</name></trkpt>
<trkpt lat="52.959598" lon="-3.130736"><ele>275</ele><time>2019-09-27T13:44:07Z</time><name>PT11773</name></trkpt>
<trkpt lat="52.959596" lon="-3.130721"><ele>275</ele><time>2019-09-27T13:44:08Z</time><name>PT11774</name></trkpt>
<trkpt lat="52.959593" lon="-3.130708"><ele>275</ele><time>2019-09-27T13:44:09Z</time><name>PT11775</name></trkpt>
<trkpt lat="52.959593" lon="-3.130698"><ele>275</ele><time>2019-09-27T13:44:09Z</time><name>PT11776</name></trkpt>
<trkpt lat="52.959592" lon="-3.130691"><ele>275</ele><time>2019-09-27T13:44:11Z</time><name>PT11777</name></trkpt>
<trkpt lat="52.959594" lon="-3.130683"><ele>275</ele><time>2019-09-27T13:44:12Z</time><name>PT11778</name></trkpt>
<trkpt lat="52.959595" lon="-3.130680"><ele>276</ele><time>2019-09-27T13:44:13Z</time><name>PT11779</name></trkpt>
<trkpt lat="52.959595" lon="-3.130676"><ele>276</ele><time>2019-09-27T13:44:14Z</time><name>PT11780</name></trkpt>
<trkpt lat="52.959596" lon="-3.130676"><ele>276</ele><time>2019-09-27T13:44:15Z</time><name>PT11781</name></trkpt>
<trkpt lat="52.959597" lon="-3.130680"><ele>276</ele><time>2019-09-27T13:44:20Z</time><name>PT11782</name></trkpt>
<trkpt lat="52.959596" lon="-3.130685"><ele>276</ele><time>2019-09-27T13:44:21Z</time><name>PT11783</name></trkpt>
<trkpt lat="52.959596" lon="-3.130690"><ele>276</ele><time>2019-09-27T13:44:21Z</time><name>PT11784</name></trkpt>
<trkpt lat="52.959597" lon="-3.130693"><ele>276</ele><time>2019-09-27T13:44:27Z</time><name>PT11785</name></trkpt>
<trkpt lat="52.959599" lon="-3.130694"><ele>276</ele><time>2019-09-27T13:44:29Z</time><name>PT11786</name></trkpt>
<trkpt lat="52.959601" lon="-3.130696"><ele>275</ele><time>2019-09-27T13:44:30Z</time><name>PT11787</name></trkpt>
<trkpt lat="52.959600" lon="-3.130691"><ele>275</ele><time>2019-09-27T13:44:47Z</time><name>PT11788</name></trkpt>
<trkpt lat="52.959598" lon="-3.130676"><ele>276</ele><time>2019-09-27T13:44:48Z</time><name>PT11789</name></trkpt>
<trkpt lat="52.959598" lon="-3.130664"><ele>275</ele><time>2019-09-27T13:44:48Z</time><name>PT11790</name></trkpt>
<trkpt lat="52.959596" lon="-3.130658"><ele>275</ele><time>2019-09-27T13:44:50Z</time><name>PT11791</name></trkpt>
<trkpt lat="52.959594" lon="-3.130646"><ele>275</ele><time>2019-09-27T13:44:51Z</time><name>PT11792</name></trkpt>
<trkpt lat="52.959595" lon="-3.130633"><ele>275</ele><time>2019-09-27T13:44:51Z</time><name>PT11793</name></trkpt>
<trkpt lat="52.959594" lon="-3.130621"><ele>275</ele><time>2019-09-27T13:44:53Z</time><name>PT11794</name></trkpt>
<trkpt lat="52.959593" lon="-3.130609"><ele>275</ele><time>2019-09-27T13:44:54Z</time><name>PT11795</name></trkpt>
<trkpt lat="52.959595" lon="-3.130592"><ele>276</ele><time>2019-09-27T13:44:54Z</time><name>PT11796</name></trkpt>
<trkpt lat="52.959596" lon="-3.130577"><ele>276</ele><time>2019-09-27T13:44:56Z</time><name>PT11797</name></trkpt>
<trkpt lat="52.959596" lon="-3.130561"><ele>277</ele><time>2019-09-27T13:44:57Z</time><name>PT11798</name></trkpt>
<trkpt lat="52.959596" lon="-3.130548"><ele>277</ele><time>2019-09-27T13:44:57Z</time><name>PT11799</name></trkpt>
<trkpt lat="52.959597" lon="-3.130539"><ele>276</ele><time>2019-09-27T13:44:59Z</time><name>PT11800</name></trkpt>
<trkpt lat="52.959595" lon="-3.130528"><ele>277</ele><time>2019-09-27T13:45:00Z</time><name>PT11801</name></trkpt>
<trkpt lat="52.959596" lon="-3.130517"><ele>277</ele><time>2019-09-27T13:45:00Z</time><name>PT11802</name></trkpt>
<trkpt lat="52.959597" lon="-3.130504"><ele>277</ele><time>2019-09-27T13:45:02Z</time><name>PT11803</name></trkpt>
<trkpt lat="52.959598" lon="-3.130486"><ele>278</ele><time>2019-09-27T13:45:03Z</time><name>PT11804</name></trkpt>
<trkpt lat="52.959598" lon="-3.130475"><ele>278</ele><time>2019-09-27T13:45:04Z</time><name>PT11805</name></trkpt>
<trkpt lat="52.959596" lon="-3.130464"><ele>278</ele><time>2019-09-27T13:45:05Z</time><name>PT11806</name></trkpt>
<trkpt lat="52.959596" lon="-3.130453"><ele>279</ele><time>2019-09-27T13:45:06Z</time><name>PT11807</name></trkpt>
<trkpt lat="52.959593" lon="-3.130441"><ele>279</ele><time>2019-09-27T13:45:06Z</time><name>PT11808</name></trkpt>
<trkpt lat="52.959589" lon="-3.130428"><ele>278</ele><time>2019-09-27T13:45:08Z</time><name>PT11809</name></trkpt>
<trkpt lat="52.959587" lon="-3.130423"><ele>278</ele><time>2019-09-27T13:45:09Z</time><name>PT11810</name></trkpt>
<trkpt lat="52.959586" lon="-3.130411"><ele>278</ele><time>2019-09-27T13:45:09Z</time><name>PT11811</name></trkpt>
<trkpt lat="52.959584" lon="-3.130400"><ele>278</ele><time>2019-09-27T13:45:11Z</time><name>PT11812</name></trkpt>
<trkpt lat="52.959586" lon="-3.130388"><ele>278</ele><time>2019-09-27T13:45:12Z</time><name>PT11813</name></trkpt>
<trkpt lat="52.959586" lon="-3.130377"><ele>278</ele><time>2019-09-27T13:45:12Z</time><name>PT11814</name></trkpt>
<trkpt lat="52.959585" lon="-3.130364"><ele>278</ele><time>2019-09-27T13:45:14Z</time><name>PT11815</name></trkpt>
<trkpt lat="52.959583" lon="-3.130353"><ele>278</ele><time>2019-09-27T13:45:15Z</time><name>PT11816</name></trkpt>
<trkpt lat="52.959580" lon="-3.130344"><ele>278</ele><time>2019-09-27T13:45:15Z</time><name>PT11817</name></trkpt>
<trkpt lat="52.959578" lon="-3.130334"><ele>278</ele><time>2019-09-27T13:45:17Z</time><name>PT11818</name></trkpt>
<trkpt lat="52.959576" lon="-3.130326"><ele>278</ele><time>2019-09-27T13:45:18Z</time><name>PT11819</name></trkpt>
<trkpt lat="52.959576" lon="-3.130317"><ele>278</ele><time>2019-09-27T13:45:18Z</time><name>PT11820</name></trkpt>
<trkpt lat="52.959574" lon="-3.130308"><ele>278</ele><time>2019-09-27T13:45:20Z</time><name>PT11821</name></trkpt>
<trkpt lat="52.959571" lon="-3.130296"><ele>278</ele><time>2019-09-27T13:45:21Z</time><name>PT11822</name></trkpt>
<trkpt lat="52.959570" lon="-3.130286"><ele>278</ele><time>2019-09-27T13:45:21Z</time><name>PT11823</name></trkpt>
<trkpt lat="52.959569" lon="-3.130275"><ele>278</ele><time>2019-09-27T13:45:23Z</time><name>PT11824</name></trkpt>
<trkpt lat="52.959568" lon="-3.130271"><ele>278</ele><time>2019-09-27T13:45:27Z</time><name>PT11825</name></trkpt>
<trkpt lat="52.959566" lon="-3.130254"><ele>279</ele><time>2019-09-27T13:45:29Z</time><name>PT11826</name></trkpt>
<trkpt lat="52.959565" lon="-3.130245"><ele>279</ele><time>2019-09-27T13:45:30Z</time><name>PT11827</name></trkpt>
<trkpt lat="52.959552" lon="-3.130217"><ele>280</ele><time>2019-09-27T13:45:42Z</time><name>PT11828</name></trkpt>
<trkpt lat="52.959547" lon="-3.130194"><ele>280</ele><time>2019-09-27T13:45:44Z</time><name>PT11829</name></trkpt>
<trkpt lat="52.959541" lon="-3.130164"><ele>280</ele><time>2019-09-27T13:45:45Z</time><name>PT11830</name></trkpt>
<trkpt lat="52.959539" lon="-3.130137"><ele>280</ele><time>2019-09-27T13:45:45Z</time><name>PT11831</name></trkpt>
<trkpt lat="52.959535" lon="-3.130121"><ele>280</ele><time>2019-09-27T13:45:47Z</time><name>PT11832</name></trkpt>
<trkpt lat="52.959527" lon="-3.130104"><ele>279</ele><time>2019-09-27T13:45:48Z</time><name>PT11833</name></trkpt>
<trkpt lat="52.959523" lon="-3.130088"><ele>279</ele><time>2019-09-27T13:45:49Z</time><name>PT11834</name></trkpt>
<trkpt lat="52.959521" lon="-3.130077"><ele>279</ele><time>2019-09-27T13:45:50Z</time><name>PT11835</name></trkpt>
<trkpt lat="52.959518" lon="-3.130064"><ele>279</ele><time>2019-09-27T13:45:51Z</time><name>PT11836</name></trkpt>
<trkpt lat="52.959513" lon="-3.130052"><ele>279</ele><time>2019-09-27T13:45:51Z</time><name>PT11837</name></trkpt>
<trkpt lat="52.959509" lon="-3.130040"><ele>279</ele><time>2019-09-27T13:45:53Z</time><name>PT11838</name></trkpt>
<trkpt lat="52.959505" lon="-3.130024"><ele>279</ele><time>2019-09-27T13:45:54Z</time><name>PT11839</name></trkpt>
<trkpt lat="52.959503" lon="-3.130010"><ele>280</ele><time>2019-09-27T13:45:55Z</time><name>PT11840</name></trkpt>
<trkpt lat="52.959498" lon="-3.129993"><ele>280</ele><time>2019-09-27T13:45:56Z</time><name>PT11841</name></trkpt>
<trkpt lat="52.959495" lon="-3.129981"><ele>280</ele><time>2019-09-27T13:45:57Z</time><name>PT11842</name></trkpt>
<trkpt lat="52.959490" lon="-3.129965"><ele>280</ele><time>2019-09-27T13:45:57Z</time><name>PT11843</name></trkpt>
<trkpt lat="52.959486" lon="-3.129954"><ele>280</ele><time>2019-09-27T13:45:59Z</time><name>PT11844</name></trkpt>
<trkpt lat="52.959480" lon="-3.129932"><ele>280</ele><time>2019-09-27T13:46:00Z</time><name>PT11845</name></trkpt>
<trkpt lat="52.959477" lon="-3.129922"><ele>280</ele><time>2019-09-27T13:46:00Z</time><name>PT11846</name></trkpt>
<trkpt lat="52.959474" lon="-3.129905"><ele>280</ele><time>2019-09-27T13:46:02Z</time><name>PT11847</name></trkpt>
<trkpt lat="52.959471" lon="-3.129889"><ele>281</ele><time>2019-09-27T13:46:03Z</time><name>PT11848</name></trkpt>
<trkpt lat="52.959468" lon="-3.129879"><ele>280</ele><time>2019-09-27T13:46:04Z</time><name>PT11849</name></trkpt>
<trkpt lat="52.959464" lon="-3.129868"><ele>281</ele><time>2019-09-27T13:46:05Z</time><name>PT11850</name></trkpt>
<trkpt lat="52.959460" lon="-3.129856"><ele>281</ele><time>2019-09-27T13:46:06Z</time><name>PT11851</name></trkpt>
<trkpt lat="52.959455" lon="-3.129847"><ele>281</ele><time>2019-09-27T13:46:06Z</time><name>PT11852</name></trkpt>
<trkpt lat="52.959452" lon="-3.129834"><ele>281</ele><time>2019-09-27T13:46:08Z</time><name>PT11853</name></trkpt>
<trkpt lat="52.959450" lon="-3.129815"><ele>282</ele><time>2019-09-27T13:46:09Z</time><name>PT11854</name></trkpt>
<trkpt lat="52.959449" lon="-3.129803"><ele>282</ele><time>2019-09-27T13:46:10Z</time><name>PT11855</name></trkpt>
<trkpt lat="52.959446" lon="-3.129789"><ele>282</ele><time>2019-09-27T13:46:11Z</time><name>PT11856</name></trkpt>
<trkpt lat="52.959443" lon="-3.129777"><ele>282</ele><time>2019-09-27T13:46:12Z</time><name>PT11857</name></trkpt>
<trkpt lat="52.959440" lon="-3.129762"><ele>283</ele><time>2019-09-27T13:46:12Z</time><name>PT11858</name></trkpt>
<trkpt lat="52.959434" lon="-3.129749"><ele>283</ele><time>2019-09-27T13:46:14Z</time><name>PT11859</name></trkpt>
<trkpt lat="52.959431" lon="-3.129733"><ele>283</ele><time>2019-09-27T13:46:15Z</time><name>PT11860</name></trkpt>
<trkpt lat="52.959427" lon="-3.129718"><ele>283</ele><time>2019-09-27T13:46:15Z</time><name>PT11861</name></trkpt>
<trkpt lat="52.959422" lon="-3.129704"><ele>283</ele><time>2019-09-27T13:46:17Z</time><name>PT11862</name></trkpt>
<trkpt lat="52.959418" lon="-3.129690"><ele>284</ele><time>2019-09-27T13:46:18Z</time><name>PT11863</name></trkpt>
<trkpt lat="52.959414" lon="-3.129673"><ele>284</ele><time>2019-09-27T13:46:19Z</time><name>PT11864</name></trkpt>
<trkpt lat="52.959410" lon="-3.129660"><ele>284</ele><time>2019-09-27T13:46:20Z</time><name>PT11865</name></trkpt>
<trkpt lat="52.959407" lon="-3.129646"><ele>284</ele><time>2019-09-27T13:46:21Z</time><name>PT11866</name></trkpt>
<trkpt lat="52.959403" lon="-3.129630"><ele>285</ele><time>2019-09-27T13:46:22Z</time><name>PT11867</name></trkpt>
<trkpt lat="52.959400" lon="-3.129615"><ele>285</ele><time>2019-09-27T13:46:23Z</time><name>PT11868</name></trkpt>
<trkpt lat="52.959399" lon="-3.129603"><ele>285</ele><time>2019-09-27T13:46:24Z</time><name>PT11869</name></trkpt>
<trkpt lat="52.959396" lon="-3.129586"><ele>285</ele><time>2019-09-27T13:46:24Z</time><name>PT11870</name></trkpt>
<trkpt lat="52.959392" lon="-3.129577"><ele>285</ele><time>2019-09-27T13:46:26Z</time><name>PT11871</name></trkpt>
<trkpt lat="52.959388" lon="-3.129564"><ele>285</ele><time>2019-09-27T13:46:27Z</time><name>PT11872</name></trkpt>
<trkpt lat="52.959385" lon="-3.129553"><ele>285</ele><time>2019-09-27T13:46:28Z</time><name>PT11873</name></trkpt>
<trkpt lat="52.959385" lon="-3.129543"><ele>285</ele><time>2019-09-27T13:46:29Z</time><name>PT11874</name></trkpt>
<trkpt lat="52.959382" lon="-3.129531"><ele>285</ele><time>2019-09-27T13:46:30Z</time><name>PT11875</name></trkpt>
<trkpt lat="52.959378" lon="-3.129517"><ele>285</ele><time>2019-09-27T13:46:31Z</time><name>PT11876</name></trkpt>
<trkpt lat="52.959374" lon="-3.129505"><ele>285</ele><time>2019-09-27T13:46:32Z</time><name>PT11877</name></trkpt>
<trkpt lat="52.959370" lon="-3.129495"><ele>285</ele><time>2019-09-27T13:46:33Z</time><name>PT11878</name></trkpt>
<trkpt lat="52.959364" lon="-3.129481"><ele>286</ele><time>2019-09-27T13:46:34Z</time><name>PT11879</name></trkpt>
<trkpt lat="52.959358" lon="-3.129468"><ele>286</ele><time>2019-09-27T13:46:35Z</time><name>PT11880</name></trkpt>
<trkpt lat="52.959354" lon="-3.129454"><ele>286</ele><time>2019-09-27T13:46:36Z</time><name>PT11881</name></trkpt>
<trkpt lat="52.959349" lon="-3.129445"><ele>286</ele><time>2019-09-27T13:46:37Z</time><name>PT11882</name></trkpt>
<trkpt lat="52.959344" lon="-3.129434"><ele>286</ele><time>2019-09-27T13:46:38Z</time><name>PT11883</name></trkpt>
<trkpt lat="52.959338" lon="-3.129425"><ele>286</ele><time>2019-09-27T13:46:39Z</time><name>PT11884</name></trkpt>
<trkpt lat="52.959333" lon="-3.129415"><ele>286</ele><time>2019-09-27T13:46:39Z</time><name>PT11885</name></trkpt>
<trkpt lat="52.959328" lon="-3.129399"><ele>286</ele><time>2019-09-27T13:46:41Z</time><name>PT11886</name></trkpt>
<trkpt lat="52.959323" lon="-3.129389"><ele>286</ele><time>2019-09-27T13:46:42Z</time><name>PT11887</name></trkpt>
<trkpt lat="52.959317" lon="-3.129375"><ele>287</ele><time>2019-09-27T13:46:42Z</time><name>PT11888</name></trkpt>
<trkpt lat="52.959310" lon="-3.129361"><ele>287</ele><time>2019-09-27T13:46:44Z</time><name>PT11889</name></trkpt>
<trkpt lat="52.959305" lon="-3.129351"><ele>287</ele><time>2019-09-27T13:46:45Z</time><name>PT11890</name></trkpt>
<trkpt lat="52.959299" lon="-3.129336"><ele>287</ele><time>2019-09-27T13:46:45Z</time><name>PT11891</name></trkpt>
<trkpt lat="52.959293" lon="-3.129325"><ele>288</ele><time>2019-09-27T13:46:47Z</time><name>PT11892</name></trkpt>
<trkpt lat="52.959287" lon="-3.129313"><ele>288</ele><time>2019-09-27T13:46:48Z</time><name>PT11893</name></trkpt>
<trkpt lat="52.959281" lon="-3.129299"><ele>288</ele><time>2019-09-27T13:46:48Z</time><name>PT11894</name></trkpt>
<trkpt lat="52.959275" lon="-3.129290"><ele>288</ele><time>2019-09-27T13:46:50Z</time><name>PT11895</name></trkpt>
<trkpt lat="52.959269" lon="-3.129278"><ele>288</ele><time>2019-09-27T13:46:51Z</time><name>PT11896</name></trkpt>
<trkpt lat="52.959262" lon="-3.129266"><ele>288</ele><time>2019-09-27T13:46:52Z</time><name>PT11897</name></trkpt>
<trkpt lat="52.959257" lon="-3.129257"><ele>288</ele><time>2019-09-27T13:46:53Z</time><name>PT11898</name></trkpt>
<trkpt lat="52.959252" lon="-3.129244"><ele>288</ele><time>2019-09-27T13:46:54Z</time><name>PT11899</name></trkpt>
<trkpt lat="52.959247" lon="-3.129236"><ele>288</ele><time>2019-09-27T13:46:54Z</time><name>PT11900</name></trkpt>
<trkpt lat="52.959242" lon="-3.129221"><ele>289</ele><time>2019-09-27T13:46:56Z</time><name>PT11901</name></trkpt>
<trkpt lat="52.959240" lon="-3.129212"><ele>289</ele><time>2019-09-27T13:46:57Z</time><name>PT11902</name></trkpt>
<trkpt lat="52.959238" lon="-3.129207"><ele>289</ele><time>2019-09-27T13:46:57Z</time><name>PT11903</name></trkpt>
<trkpt lat="52.959238" lon="-3.129204"><ele>289</ele><time>2019-09-27T13:46:59Z</time><name>PT11904</name></trkpt>
<trkpt lat="52.959237" lon="-3.129201"><ele>289</ele><time>2019-09-27T13:47:00Z</time><name>PT11905</name></trkpt>
<trkpt lat="52.959228" lon="-3.129187"><ele>290</ele><time>2019-09-27T13:47:21Z</time><name>PT11906</name></trkpt>
<trkpt lat="52.959226" lon="-3.129179"><ele>291</ele><time>2019-09-27T13:47:23Z</time><name>PT11907</name></trkpt>
<trkpt lat="52.959225" lon="-3.129174"><ele>291</ele><time>2019-09-27T13:47:24Z</time><name>PT11908</name></trkpt>
<trkpt lat="52.959226" lon="-3.129172"><ele>291</ele><time>2019-09-27T13:47:36Z</time><name>PT11909</name></trkpt>
<trkpt lat="52.959225" lon="-3.129169"><ele>291</ele><time>2019-09-27T13:47:38Z</time><name>PT11910</name></trkpt>
<trkpt lat="52.959226" lon="-3.129163"><ele>290</ele><time>2019-09-27T13:47:39Z</time><name>PT11911</name></trkpt>
<trkpt lat="52.959226" lon="-3.129161"><ele>290</ele><time>2019-09-27T13:47:39Z</time><name>PT11912</name></trkpt>
<trkpt lat="52.959223" lon="-3.129162"><ele>290</ele><time>2019-09-27T13:47:45Z</time><name>PT11913</name></trkpt>
<trkpt lat="52.959216" lon="-3.129157"><ele>290</ele><time>2019-09-27T13:47:46Z</time><name>PT11914</name></trkpt>
<trkpt lat="52.959208" lon="-3.129153"><ele>290</ele><time>2019-09-27T13:47:47Z</time><name>PT11915</name></trkpt>
<trkpt lat="52.959199" lon="-3.129148"><ele>290</ele><time>2019-09-27T13:47:48Z</time><name>PT11916</name></trkpt>
<trkpt lat="52.959193" lon="-3.129144"><ele>290</ele><time>2019-09-27T13:47:49Z</time><name>PT11917</name></trkpt>
<trkpt lat="52.959185" lon="-3.129141"><ele>290</ele><time>2019-09-27T13:47:50Z</time><name>PT11918</name></trkpt>
<trkpt lat="52.959177" lon="-3.129132"><ele>290</ele><time>2019-09-27T13:47:51Z</time><name>PT11919</name></trkpt>
<trkpt lat="52.959171" lon="-3.129127"><ele>290</ele><time>2019-09-27T13:47:52Z</time><name>PT11920</name></trkpt>
<trkpt lat="52.959163" lon="-3.129120"><ele>290</ele><time>2019-09-27T13:47:53Z</time><name>PT11921</name></trkpt>
<trkpt lat="52.959155" lon="-3.129111"><ele>290</ele><time>2019-09-27T13:47:54Z</time><name>PT11922</name></trkpt>
<trkpt lat="52.959149" lon="-3.129104"><ele>291</ele><time>2019-09-27T13:47:55Z</time><name>PT11923</name></trkpt>
<trkpt lat="52.959145" lon="-3.129098"><ele>291</ele><time>2019-09-27T13:47:56Z</time><name>PT11924</name></trkpt>
<trkpt lat="52.959139" lon="-3.129090"><ele>291</ele><time>2019-09-27T13:47:57Z</time><name>PT11925</name></trkpt>
<trkpt lat="52.959134" lon="-3.129084"><ele>291</ele><time>2019-09-27T13:47:58Z</time><name>PT11926</name></trkpt>
<trkpt lat="52.959125" lon="-3.129079"><ele>291</ele><time>2019-09-27T13:47:59Z</time><name>PT11927</name></trkpt>
<trkpt lat="52.959118" lon="-3.129071"><ele>291</ele><time>2019-09-27T13:48:00Z</time><name>PT11928</name></trkpt>
<trkpt lat="52.959110" lon="-3.129061"><ele>291</ele><time>2019-09-27T13:48:01Z</time><name>PT11929</name></trkpt>
<trkpt lat="52.959103" lon="-3.129054"><ele>291</ele><time>2019-09-27T13:48:02Z</time><name>PT11930</name></trkpt>
<trkpt lat="52.959094" lon="-3.129050"><ele>291</ele><time>2019-09-27T13:48:03Z</time><name>PT11931</name></trkpt>
<trkpt lat="52.959086" lon="-3.129044"><ele>291</ele><time>2019-09-27T13:48:04Z</time><name>PT11932</name></trkpt>
<trkpt lat="52.959079" lon="-3.129033"><ele>291</ele><time>2019-09-27T13:48:05Z</time><name>PT11933</name></trkpt>
<trkpt lat="52.959071" lon="-3.129025"><ele>291</ele><time>2019-09-27T13:48:06Z</time><name>PT11934</name></trkpt>
<trkpt lat="52.959062" lon="-3.129018"><ele>291</ele><time>2019-09-27T13:48:06Z</time><name>PT11935</name></trkpt>
<trkpt lat="52.959055" lon="-3.129012"><ele>291</ele><time>2019-09-27T13:48:08Z</time><name>PT11936</name></trkpt>
<trkpt lat="52.959047" lon="-3.129005"><ele>291</ele><time>2019-09-27T13:48:09Z</time><name>PT11937</name></trkpt>
<trkpt lat="52.959040" lon="-3.128998"><ele>291</ele><time>2019-09-27T13:48:09Z</time><name>PT11938</name></trkpt>
<trkpt lat="52.959035" lon="-3.128996"><ele>291</ele><time>2019-09-27T13:48:11Z</time><name>PT11939</name></trkpt>
<trkpt lat="52.959028" lon="-3.128988"><ele>291</ele><time>2019-09-27T13:48:12Z</time><name>PT11940</name></trkpt>
<trkpt lat="52.959018" lon="-3.128978"><ele>291</ele><time>2019-09-27T13:48:12Z</time><name>PT11941</name></trkpt>
<trkpt lat="52.959010" lon="-3.128972"><ele>291</ele><time>2019-09-27T13:48:14Z</time><name>PT11942</name></trkpt>
<trkpt lat="52.959001" lon="-3.128966"><ele>291</ele><time>2019-09-27T13:48:15Z</time><name>PT11943</name></trkpt>
<trkpt lat="52.958995" lon="-3.128968"><ele>291</ele><time>2019-09-27T13:48:15Z</time><name>PT11944</name></trkpt>
<trkpt lat="52.958989" lon="-3.128963"><ele>291</ele><time>2019-09-27T13:48:17Z</time><name>PT11945</name></trkpt>
<trkpt lat="52.958983" lon="-3.128954"><ele>292</ele><time>2019-09-27T13:48:18Z</time><name>PT11946</name></trkpt>
<trkpt lat="52.958975" lon="-3.128948"><ele>292</ele><time>2019-09-27T13:48:18Z</time><name>PT11947</name></trkpt>
<trkpt lat="52.958967" lon="-3.128940"><ele>292</ele><time>2019-09-27T13:48:20Z</time><name>PT11948</name></trkpt>
<trkpt lat="52.958959" lon="-3.128931"><ele>292</ele><time>2019-09-27T13:48:21Z</time><name>PT11949</name></trkpt>
<trkpt lat="52.958952" lon="-3.128925"><ele>292</ele><time>2019-09-27T13:48:21Z</time><name>PT11950</name></trkpt>
<trkpt lat="52.958943" lon="-3.128920"><ele>292</ele><time>2019-09-27T13:48:23Z</time><name>PT11951</name></trkpt>
<trkpt lat="52.958934" lon="-3.128912"><ele>292</ele><time>2019-09-27T13:48:24Z</time><name>PT11952</name></trkpt>
<trkpt lat="52.958926" lon="-3.128904"><ele>292</ele><time>2019-09-27T13:48:24Z</time><name>PT11953</name></trkpt>
<trkpt lat="52.958918" lon="-3.128897"><ele>292</ele><time>2019-09-27T13:48:26Z</time><name>PT11954</name></trkpt>
<trkpt lat="52.958912" lon="-3.128889"><ele>292</ele><time>2019-09-27T13:48:27Z</time><name>PT11955</name></trkpt>
<trkpt lat="52.958904" lon="-3.128881"><ele>291</ele><time>2019-09-27T13:48:27Z</time><name>PT11956</name></trkpt>
<trkpt lat="52.958897" lon="-3.128876"><ele>291</ele><time>2019-09-27T13:48:29Z</time><name>PT11957</name></trkpt>
<trkpt lat="52.958890" lon="-3.128870"><ele>291</ele><time>2019-09-27T13:48:30Z</time><name>PT11958</name></trkpt>
<trkpt lat="52.958883" lon="-3.128862"><ele>291</ele><time>2019-09-27T13:48:30Z</time><name>PT11959</name></trkpt>
<trkpt lat="52.958876" lon="-3.128855"><ele>290</ele><time>2019-09-27T13:48:32Z</time><name>PT11960</name></trkpt>
<trkpt lat="52.958869" lon="-3.128843"><ele>290</ele><time>2019-09-27T13:48:33Z</time><name>PT11961</name></trkpt>
<trkpt lat="52.958865" lon="-3.128834"><ele>290</ele><time>2019-09-27T13:48:33Z</time><name>PT11962</name></trkpt>
<trkpt lat="52.958858" lon="-3.128828"><ele>290</ele><time>2019-09-27T13:48:35Z</time><name>PT11963</name></trkpt>
<trkpt lat="52.958852" lon="-3.128823"><ele>289</ele><time>2019-09-27T13:48:36Z</time><name>PT11964</name></trkpt>
<trkpt lat="52.958845" lon="-3.128816"><ele>289</ele><time>2019-09-27T13:48:36Z</time><name>PT11965</name></trkpt>
<trkpt lat="52.958837" lon="-3.128809"><ele>289</ele><time>2019-09-27T13:48:38Z</time><name>PT11966</name></trkpt>
<trkpt lat="52.958831" lon="-3.128802"><ele>289</ele><time>2019-09-27T13:48:39Z</time><name>PT11967</name></trkpt>
<trkpt lat="52.958824" lon="-3.128798"><ele>289</ele><time>2019-09-27T13:48:39Z</time><name>PT11968</name></trkpt>
<trkpt lat="52.958817" lon="-3.128793"><ele>289</ele><time>2019-09-27T13:48:41Z</time><name>PT11969</name></trkpt>
<trkpt lat="52.958808" lon="-3.128787"><ele>289</ele><time>2019-09-27T13:48:42Z</time><name>PT11970</name></trkpt>
<trkpt lat="52.958802" lon="-3.128777"><ele>289</ele><time>2019-09-27T13:48:43Z</time><name>PT11971</name></trkpt>
<trkpt lat="52.958801" lon="-3.128773"><ele>290</ele><time>2019-09-27T13:48:44Z</time><name>PT11972</name></trkpt>
<trkpt lat="52.958797" lon="-3.128769"><ele>291</ele><time>2019-09-27T13:48:45Z</time><name>PT11973</name></trkpt>
<trkpt lat="52.958796" lon="-3.128766"><ele>291</ele><time>2019-09-27T13:48:45Z</time><name>PT11974</name></trkpt>
<trkpt lat="52.958790" lon="-3.128762"><ele>291</ele><time>2019-09-27T13:48:51Z</time><name>PT11975</name></trkpt>
<trkpt lat="52.958781" lon="-3.128747"><ele>291</ele><time>2019-09-27T13:48:53Z</time><name>PT11976</name></trkpt>
<trkpt lat="52.958770" lon="-3.128736"><ele>291</ele><time>2019-09-27T13:48:54Z</time><name>PT11977</name></trkpt>
<trkpt lat="52.958758" lon="-3.128723"><ele>290</ele><time>2019-09-27T13:48:54Z</time><name>PT11978</name></trkpt>
<trkpt lat="52.958747" lon="-3.128710"><ele>290</ele><time>2019-09-27T13:48:56Z</time><name>PT11979</name></trkpt>
<trkpt lat="52.958735" lon="-3.128693"><ele>291</ele><time>2019-09-27T13:48:57Z</time><name>PT11980</name></trkpt>
<trkpt lat="52.958723" lon="-3.128681"><ele>291</ele><time>2019-09-27T13:48:57Z</time><name>PT11981</name></trkpt>
<trkpt lat="52.958714" lon="-3.128677"><ele>291</ele><time>2019-09-27T13:48:59Z</time><name>PT11982</name></trkpt>
<trkpt lat="52.958702" lon="-3.128674"><ele>291</ele><time>2019-09-27T13:49:00Z</time><name>PT11983</name></trkpt>
<trkpt lat="52.958688" lon="-3.128670"><ele>291</ele><time>2019-09-27T13:49:00Z</time><name>PT11984</name></trkpt>
<trkpt lat="52.958679" lon="-3.128666"><ele>291</ele><time>2019-09-27T13:49:02Z</time><name>PT11985</name></trkpt>
<trkpt lat="52.958669" lon="-3.128656"><ele>291</ele><time>2019-09-27T13:49:03Z</time><name>PT11986</name></trkpt>
<trkpt lat="52.958661" lon="-3.128648"><ele>291</ele><time>2019-09-27T13:49:03Z</time><name>PT11987</name></trkpt>
<trkpt lat="52.958650" lon="-3.128636"><ele>291</ele><time>2019-09-27T13:49:05Z</time><name>PT11988</name></trkpt>
<trkpt lat="52.958638" lon="-3.128631"><ele>291</ele><time>2019-09-27T13:49:06Z</time><name>PT11989</name></trkpt>
<trkpt lat="52.958630" lon="-3.128629"><ele>290</ele><time>2019-09-27T13:49:07Z</time><name>PT11990</name></trkpt>
<trkpt lat="52.958621" lon="-3.128623"><ele>290</ele><time>2019-09-27T13:49:08Z</time><name>PT11991</name></trkpt>
<trkpt lat="52.958611" lon="-3.128615"><ele>291</ele><time>2019-09-27T13:49:09Z</time><name>PT11992</name></trkpt>
<trkpt lat="52.958600" lon="-3.128611"><ele>291</ele><time>2019-09-27T13:49:10Z</time><name>PT11993</name></trkpt>
<trkpt lat="52.958589" lon="-3.128607"><ele>291</ele><time>2019-09-27T13:49:11Z</time><name>PT11994</name></trkpt>
<trkpt lat="52.958580" lon="-3.128603"><ele>291</ele><time>2019-09-27T13:49:12Z</time><name>PT11995</name></trkpt>
<trkpt lat="52.958570" lon="-3.128596"><ele>290</ele><time>2019-09-27T13:49:13Z</time><name>PT11996</name></trkpt>
<trkpt lat="52.958561" lon="-3.128590"><ele>290</ele><time>2019-09-27T13:49:14Z</time><name>PT11997</name></trkpt>
<trkpt lat="52.958552" lon="-3.128592"><ele>291</ele><time>2019-09-27T13:49:15Z</time><name>PT11998</name></trkpt>
<trkpt lat="52.958543" lon="-3.128592"><ele>290</ele><time>2019-09-27T13:49:15Z</time><name>PT11999</name></trkpt>
<trkpt lat="52.958536" lon="-3.128584"><ele>291</ele><time>2019-09-27T13:49:17Z</time><name>PT12000</name></trkpt>
<trkpt lat="52.958529" lon="-3.128580"><ele>291</ele><time>2019-09-27T13:49:18Z</time><name>PT12001</name></trkpt>
<trkpt lat="52.958519" lon="-3.128577"><ele>291</ele><time>2019-09-27T13:49:19Z</time><name>PT12002</name></trkpt>
<trkpt lat="52.958508" lon="-3.128573"><ele>291</ele><time>2019-09-27T13:49:20Z</time><name>PT12003</name></trkpt>
<trkpt lat="52.958497" lon="-3.128566"><ele>290</ele><time>2019-09-27T13:49:21Z</time><name>PT12004</name></trkpt>
<trkpt lat="52.958487" lon="-3.128562"><ele>290</ele><time>2019-09-27T13:49:21Z</time><name>PT12005</name></trkpt>
<trkpt lat="52.958476" lon="-3.128559"><ele>290</ele><time>2019-09-27T13:49:23Z</time><name>PT12006</name></trkpt>
<trkpt lat="52.958464" lon="-3.128555"><ele>290</ele><time>2019-09-27T13:49:24Z</time><name>PT12007</name></trkpt>
<trkpt lat="52.958453" lon="-3.128551"><ele>291</ele><time>2019-09-27T13:49:25Z</time><name>PT12008</name></trkpt>
<trkpt lat="52.958442" lon="-3.128547"><ele>291</ele><time>2019-09-27T13:49:26Z</time><name>PT12009</name></trkpt>
<trkpt lat="52.958431" lon="-3.128545"><ele>291</ele><time>2019-09-27T13:49:27Z</time><name>PT12010</name></trkpt>
<trkpt lat="52.958419" lon="-3.128541"><ele>291</ele><time>2019-09-27T13:49:28Z</time><name>PT12011</name></trkpt>
<trkpt lat="52.958408" lon="-3.128538"><ele>291</ele><time>2019-09-27T13:49:29Z</time><name>PT12012</name></trkpt>
<trkpt lat="52.958399" lon="-3.128535"><ele>291</ele><time>2019-09-27T13:49:30Z</time><name>PT12013</name></trkpt>
<trkpt lat="52.958389" lon="-3.128532"><ele>291</ele><time>2019-09-27T13:49:30Z</time><name>PT12014</name></trkpt>
<trkpt lat="52.958378" lon="-3.128528"><ele>291</ele><time>2019-09-27T13:49:32Z</time><name>PT12015</name></trkpt>
<trkpt lat="52.958368" lon="-3.128524"><ele>291</ele><time>2019-09-27T13:49:33Z</time><name>PT12016</name></trkpt>
<trkpt lat="52.958359" lon="-3.128518"><ele>291</ele><time>2019-09-27T13:49:33Z</time><name>PT12017</name></trkpt>
<trkpt lat="52.958350" lon="-3.128516"><ele>291</ele><time>2019-09-27T13:49:35Z</time><name>PT12018</name></trkpt>
<trkpt lat="52.958341" lon="-3.128514"><ele>291</ele><time>2019-09-27T13:49:36Z</time><name>PT12019</name></trkpt>
<trkpt lat="52.958332" lon="-3.128510"><ele>291</ele><time>2019-09-27T13:49:36Z</time><name>PT12020</name></trkpt>
<trkpt lat="52.958323" lon="-3.128510"><ele>291</ele><time>2019-09-27T13:49:38Z</time><name>PT12021</name></trkpt>
<trkpt lat="52.958314" lon="-3.128508"><ele>291</ele><time>2019-09-27T13:49:39Z</time><name>PT12022</name></trkpt>
<trkpt lat="52.958303" lon="-3.128505"><ele>291</ele><time>2019-09-27T13:49:39Z</time><name>PT12023</name></trkpt>
<trkpt lat="52.958292" lon="-3.128503"><ele>291</ele><time>2019-09-27T13:49:41Z</time><name>PT12024</name></trkpt>
<trkpt lat="52.958280" lon="-3.128505"><ele>291</ele><time>2019-09-27T13:49:42Z</time><name>PT12025</name></trkpt>
<trkpt lat="52.958270" lon="-3.128504"><ele>291</ele><time>2019-09-27T13:49:42Z</time><name>PT12026</name></trkpt>
<trkpt lat="52.958261" lon="-3.128506"><ele>291</ele><time>2019-09-27T13:49:44Z</time><name>PT12027</name></trkpt>
<trkpt lat="52.958253" lon="-3.128508"><ele>291</ele><time>2019-09-27T13:49:45Z</time><name>PT12028</name></trkpt>
<trkpt lat="52.958245" lon="-3.128513"><ele>292</ele><time>2019-09-27T13:49:45Z</time><name>PT12029</name></trkpt>
<trkpt lat="52.958242" lon="-3.128509"><ele>292</ele><time>2019-09-27T13:49:47Z</time><name>PT12030</name></trkpt>
<trkpt lat="52.958241" lon="-3.128508"><ele>293</ele><time>2019-09-27T13:49:48Z</time><name>PT12031</name></trkpt>
<trkpt lat="52.958238" lon="-3.128502"><ele>294</ele><time>2019-09-27T13:49:48Z</time><name>PT12032</name></trkpt>
<trkpt lat="52.958234" lon="-3.128501"><ele>294</ele><time>2019-09-27T13:49:50Z</time><name>PT12033</name></trkpt>
<trkpt lat="52.958233" lon="-3.128500"><ele>295</ele><time>2019-09-27T13:49:51Z</time><name>PT12034</name></trkpt>
<trkpt lat="52.958228" lon="-3.128496"><ele>295</ele><time>2019-09-27T13:49:59Z</time><name>PT12035</name></trkpt>
<trkpt lat="52.958220" lon="-3.128488"><ele>295</ele><time>2019-09-27T13:50:00Z</time><name>PT12036</name></trkpt>
<trkpt lat="52.958210" lon="-3.128481"><ele>295</ele><time>2019-09-27T13:50:00Z</time><name>PT12037</name></trkpt>
<trkpt lat="52.958200" lon="-3.128478"><ele>295</ele><time>2019-09-27T13:50:02Z</time><name>PT12038</name></trkpt>
<trkpt lat="52.958190" lon="-3.128474"><ele>295</ele><time>2019-09-27T13:50:03Z</time><name>PT12039</name></trkpt>
<trkpt lat="52.958180" lon="-3.128472"><ele>295</ele><time>2019-09-27T13:50:03Z</time><name>PT12040</name></trkpt>
<trkpt lat="52.958170" lon="-3.128466"><ele>295</ele><time>2019-09-27T13:50:05Z</time><name>PT12041</name></trkpt>
<trkpt lat="52.958160" lon="-3.128463"><ele>295</ele><time>2019-09-27T13:50:06Z</time><name>PT12042</name></trkpt>
<trkpt lat="52.958150" lon="-3.128463"><ele>295</ele><time>2019-09-27T13:50:06Z</time><name>PT12043</name></trkpt>
<trkpt lat="52.958140" lon="-3.128460"><ele>295</ele><time>2019-09-27T13:50:08Z</time><name>PT12044</name></trkpt>
<trkpt lat="52.958130" lon="-3.128454"><ele>295</ele><time>2019-09-27T13:50:09Z</time><name>PT12045</name></trkpt>
<trkpt lat="52.958122" lon="-3.128447"><ele>295</ele><time>2019-09-27T13:50:10Z</time><name>PT12046</name></trkpt>
<trkpt lat="52.958113" lon="-3.128442"><ele>296</ele><time>2019-09-27T13:50:11Z</time><name>PT12047</name></trkpt>
<trkpt lat="52.958103" lon="-3.128439"><ele>295</ele><time>2019-09-27T13:50:12Z</time><name>PT12048</name></trkpt>
<trkpt lat="52.958093" lon="-3.128433"><ele>296</ele><time>2019-09-27T13:50:12Z</time><name>PT12049</name></trkpt>
<trkpt lat="52.958088" lon="-3.128429"><ele>295</ele><time>2019-09-27T13:50:14Z</time><name>PT12050</name></trkpt>
<trkpt lat="52.958080" lon="-3.128426"><ele>295</ele><time>2019-09-27T13:50:15Z</time><name>PT12051</name></trkpt>
<trkpt lat="52.958071" lon="-3.128423"><ele>295</ele><time>2019-09-27T13:50:15Z</time><name>PT12052</name></trkpt>
<trkpt lat="52.958063" lon="-3.128419"><ele>295</ele><time>2019-09-27T13:50:17Z</time><name>PT12053</name></trkpt>
<trkpt lat="52.958055" lon="-3.128418"><ele>295</ele><time>2019-09-27T13:50:18Z</time><name>PT12054</name></trkpt>
<trkpt lat="52.958046" lon="-3.128416"><ele>295</ele><time>2019-09-27T13:50:18Z</time><name>PT12055</name></trkpt>
<trkpt lat="52.958038" lon="-3.128415"><ele>295</ele><time>2019-09-27T13:50:20Z</time><name>PT12056</name></trkpt>
<trkpt lat="52.958029" lon="-3.128411"><ele>295</ele><time>2019-09-27T13:50:21Z</time><name>PT12057</name></trkpt>
<trkpt lat="52.958021" lon="-3.128407"><ele>295</ele><time>2019-09-27T13:50:22Z</time><name>PT12058</name></trkpt>
<trkpt lat="52.958013" lon="-3.128405"><ele>295</ele><time>2019-09-27T13:50:23Z</time><name>PT12059</name></trkpt>
<trkpt lat="52.958005" lon="-3.128404"><ele>295</ele><time>2019-09-27T13:50:24Z</time><name>PT12060</name></trkpt>
<trkpt lat="52.957995" lon="-3.128405"><ele>295</ele><time>2019-09-27T13:50:25Z</time><name>PT12061</name></trkpt>
<trkpt lat="52.957988" lon="-3.128405"><ele>296</ele><time>2019-09-27T13:50:26Z</time><name>PT12062</name></trkpt>
<trkpt lat="52.957979" lon="-3.128406"><ele>296</ele><time>2019-09-27T13:50:27Z</time><name>PT12063</name></trkpt>
<trkpt lat="52.957970" lon="-3.128405"><ele>296</ele><time>2019-09-27T13:50:28Z</time><name>PT12064</name></trkpt>
<trkpt lat="52.957962" lon="-3.128400"><ele>296</ele><time>2019-09-27T13:50:29Z</time><name>PT12065</name></trkpt>
<trkpt lat="52.957953" lon="-3.128399"><ele>296</ele><time>2019-09-27T13:50:30Z</time><name>PT12066</name></trkpt>
<trkpt lat="52.957943" lon="-3.128398"><ele>296</ele><time>2019-09-27T13:50:30Z</time><name>PT12067</name></trkpt>
<trkpt lat="52.957934" lon="-3.128394"><ele>296</ele><time>2019-09-27T13:50:32Z</time><name>PT12068</name></trkpt>
<trkpt lat="52.957926" lon="-3.128390"><ele>296</ele><time>2019-09-27T13:50:33Z</time><name>PT12069</name></trkpt>
<trkpt lat="52.957919" lon="-3.128389"><ele>296</ele><time>2019-09-27T13:50:34Z</time><name>PT12070</name></trkpt>
<trkpt lat="52.957912" lon="-3.128387"><ele>296</ele><time>2019-09-27T13:50:35Z</time><name>PT12071</name></trkpt>
<trkpt lat="52.957905" lon="-3.128387"><ele>296</ele><time>2019-09-27T13:50:36Z</time><name>PT12072</name></trkpt>
<trkpt lat="52.957897" lon="-3.128383"><ele>297</ele><time>2019-09-27T13:50:37Z</time><name>PT12073</name></trkpt>
<trkpt lat="52.957888" lon="-3.128380"><ele>297</ele><time>2019-09-27T13:50:38Z</time><name>PT12074</name></trkpt>
<trkpt lat="52.957880" lon="-3.128372"><ele>297</ele><time>2019-09-27T13:50:39Z</time><name>PT12075</name></trkpt>
<trkpt lat="52.957872" lon="-3.128362"><ele>297</ele><time>2019-09-27T13:50:40Z</time><name>PT12076</name></trkpt>
<trkpt lat="52.957864" lon="-3.128356"><ele>297</ele><time>2019-09-27T13:50:41Z</time><name>PT12077</name></trkpt>
<trkpt lat="52.957852" lon="-3.128350"><ele>297</ele><time>2019-09-27T13:50:42Z</time><name>PT12078</name></trkpt>
<trkpt lat="52.957843" lon="-3.128348"><ele>296</ele><time>2019-09-27T13:50:43Z</time><name>PT12079</name></trkpt>
<trkpt lat="52.957834" lon="-3.128339"><ele>296</ele><time>2019-09-27T13:50:44Z</time><name>PT12080</name></trkpt>
<trkpt lat="52.957827" lon="-3.128334"><ele>296</ele><time>2019-09-27T13:50:45Z</time><name>PT12081</name></trkpt>
<trkpt lat="52.957816" lon="-3.128330"><ele>296</ele><time>2019-09-27T13:50:46Z</time><name>PT12082</name></trkpt>
<trkpt lat="52.957808" lon="-3.128321"><ele>296</ele><time>2019-09-27T13:50:47Z</time><name>PT12083</name></trkpt>
<trkpt lat="52.957797" lon="-3.128321"><ele>296</ele><time>2019-09-27T13:50:48Z</time><name>PT12084</name></trkpt>
<trkpt lat="52.957789" lon="-3.128317"><ele>295</ele><time>2019-09-27T13:50:49Z</time><name>PT12085</name></trkpt>
<trkpt lat="52.957782" lon="-3.128313"><ele>295</ele><time>2019-09-27T13:50:50Z</time><name>PT12086</name></trkpt>
<trkpt lat="52.957775" lon="-3.128307"><ele>295</ele><time>2019-09-27T13:50:51Z</time><name>PT12087</name></trkpt>
<trkpt lat="52.957766" lon="-3.128300"><ele>295</ele><time>2019-09-27T13:50:51Z</time><name>PT12088</name></trkpt>
<trkpt lat="52.957758" lon="-3.128296"><ele>295</ele><time>2019-09-27T13:50:53Z</time><name>PT12089</name></trkpt>
<trkpt lat="52.957751" lon="-3.128290"><ele>295</ele><time>2019-09-27T13:50:54Z</time><name>PT12090</name></trkpt>
<trkpt lat="52.957744" lon="-3.128281"><ele>295</ele><time>2019-09-27T13:50:54Z</time><name>PT12091</name></trkpt>
<trkpt lat="52.957736" lon="-3.128274"><ele>295</ele><time>2019-09-27T13:50:56Z</time><name>PT12092</name></trkpt>
<trkpt lat="52.957728" lon="-3.128271"><ele>295</ele><time>2019-09-27T13:50:57Z</time><name>PT12093</name></trkpt>
<trkpt lat="52.957721" lon="-3.128266"><ele>295</ele><time>2019-09-27T13:50:57Z</time><name>PT12094</name></trkpt>
<trkpt lat="52.957713" lon="-3.128262"><ele>296</ele><time>2019-09-27T13:50:59Z</time><name>PT12095</name></trkpt>
<trkpt lat="52.957705" lon="-3.128258"><ele>296</ele><time>2019-09-27T13:51:00Z</time><name>PT12096</name></trkpt>
<trkpt lat="52.957696" lon="-3.128252"><ele>296</ele><time>2019-09-27T13:51:00Z</time><name>PT12097</name></trkpt>
<trkpt lat="52.957689" lon="-3.128249"><ele>295</ele><time>2019-09-27T13:51:02Z</time><name>PT12098</name></trkpt>
<trkpt lat="52.957680" lon="-3.128243"><ele>296</ele><time>2019-09-27T13:51:03Z</time><name>PT12099</name></trkpt>
<trkpt lat="52.957669" lon="-3.128238"><ele>295</ele><time>2019-09-27T13:51:03Z</time><name>PT12100</name></trkpt>
<trkpt lat="52.957662" lon="-3.128231"><ele>296</ele><time>2019-09-27T13:51:05Z</time><name>PT12101</name></trkpt>
<trkpt lat="52.957654" lon="-3.128224"><ele>296</ele><time>2019-09-27T13:51:06Z</time><name>PT12102</name></trkpt>
<trkpt lat="52.957645" lon="-3.128219"><ele>296</ele><time>2019-09-27T13:51:06Z</time><name>PT12103</name></trkpt>
<trkpt lat="52.957636" lon="-3.128212"><ele>296</ele><time>2019-09-27T13:51:08Z</time><name>PT12104</name></trkpt>
<trkpt lat="52.957628" lon="-3.128206"><ele>296</ele><time>2019-09-27T13:51:09Z</time><name>PT12105</name></trkpt>
<trkpt lat="52.957622" lon="-3.128200"><ele>296</ele><time>2019-09-27T13:51:09Z</time><name>PT12106</name></trkpt>
<trkpt lat="52.957615" lon="-3.128194"><ele>296</ele><time>2019-09-27T13:51:11Z</time><name>PT12107</name></trkpt>
<trkpt lat="52.957607" lon="-3.128188"><ele>297</ele><time>2019-09-27T13:51:12Z</time><name>PT12108</name></trkpt>
<trkpt lat="52.957598" lon="-3.128181"><ele>297</ele><time>2019-09-27T13:51:12Z</time><name>PT12109</name></trkpt>
<trkpt lat="52.957589" lon="-3.128177"><ele>297</ele><time>2019-09-27T13:51:14Z</time><name>PT12110</name></trkpt>
<trkpt lat="52.957582" lon="-3.128177"><ele>297</ele><time>2019-09-27T13:51:15Z</time><name>PT12111</name></trkpt>
<trkpt lat="52.957576" lon="-3.128171"><ele>297</ele><time>2019-09-27T13:51:15Z</time><name>PT12112</name></trkpt>
<trkpt lat="52.957570" lon="-3.128164"><ele>298</ele><time>2019-09-27T13:51:17Z</time><name>PT12113</name></trkpt>
<trkpt lat="52.957564" lon="-3.128157"><ele>297</ele><time>2019-09-27T13:51:18Z</time><name>PT12114</name></trkpt>
<trkpt lat="52.957557" lon="-3.128152"><ele>297</ele><time>2019-09-27T13:51:18Z</time><name>PT12115</name></trkpt>
<trkpt lat="52.957551" lon="-3.128144"><ele>297</ele><time>2019-09-27T13:51:20Z</time><name>PT12116</name></trkpt>
<trkpt lat="52.957545" lon="-3.128128"><ele>297</ele><time>2019-09-27T13:51:21Z</time><name>PT12117</name></trkpt>
<trkpt lat="52.957538" lon="-3.128116"><ele>298</ele><time>2019-09-27T13:51:21Z</time><name>PT12118</name></trkpt>
<trkpt lat="52.957531" lon="-3.128108"><ele>298</ele><time>2019-09-27T13:51:23Z</time><name>PT12119</name></trkpt>
<trkpt lat="52.957523" lon="-3.128100"><ele>298</ele><time>2019-09-27T13:51:24Z</time><name>PT12120</name></trkpt>
<trkpt lat="52.957516" lon="-3.128092"><ele>298</ele><time>2019-09-27T13:51:24Z</time><name>PT12121</name></trkpt>
<trkpt lat="52.957508" lon="-3.128078"><ele>298</ele><time>2019-09-27T13:51:26Z</time><name>PT12122</name></trkpt>
<trkpt lat="52.957505" lon="-3.128065"><ele>298</ele><time>2019-09-27T13:51:27Z</time><name>PT12123</name></trkpt>
<trkpt lat="52.957499" lon="-3.128059"><ele>298</ele><time>2019-09-27T13:51:27Z</time><name>PT12124</name></trkpt>
<trkpt lat="52.957493" lon="-3.128051"><ele>298</ele><time>2019-09-27T13:51:29Z</time><name>PT12125</name></trkpt>
<trkpt lat="52.957487" lon="-3.128044"><ele>298</ele><time>2019-09-27T13:51:30Z</time><name>PT12126</name></trkpt>
<trkpt lat="52.957480" lon="-3.128037"><ele>298</ele><time>2019-09-27T13:51:30Z</time><name>PT12127</name></trkpt>
<trkpt lat="52.957472" lon="-3.128031"><ele>298</ele><time>2019-09-27T13:51:32Z</time><name>PT12128</name></trkpt>
<trkpt lat="52.957467" lon="-3.128026"><ele>298</ele><time>2019-09-27T13:51:33Z</time><name>PT12129</name></trkpt>
<trkpt lat="52.957461" lon="-3.128019"><ele>298</ele><time>2019-09-27T13:51:33Z</time><name>PT12130</name></trkpt>
<trkpt lat="52.957456" lon="-3.128011"><ele>298</ele><time>2019-09-27T13:51:35Z</time><name>PT12131</name></trkpt>
<trkpt lat="52.957449" lon="-3.128003"><ele>298</ele><time>2019-09-27T13:51:36Z</time><name>PT12132</name></trkpt>
<trkpt lat="52.957443" lon="-3.127997"><ele>298</ele><time>2019-09-27T13:51:36Z</time><name>PT12133</name></trkpt>
<trkpt lat="52.957437" lon="-3.127992"><ele>298</ele><time>2019-09-27T13:51:38Z</time><name>PT12134</name></trkpt>
<trkpt lat="52.957432" lon="-3.127984"><ele>298</ele><time>2019-09-27T13:51:39Z</time><name>PT12135</name></trkpt>
<trkpt lat="52.957427" lon="-3.127974"><ele>298</ele><time>2019-09-27T13:51:39Z</time><name>PT12136</name></trkpt>
<trkpt lat="52.957421" lon="-3.127966"><ele>298</ele><time>2019-09-27T13:51:41Z</time><name>PT12137</name></trkpt>
<trkpt lat="52.957411" lon="-3.127960"><ele>298</ele><time>2019-09-27T13:51:42Z</time><name>PT12138</name></trkpt>
<trkpt lat="52.957405" lon="-3.127953"><ele>299</ele><time>2019-09-27T13:51:42Z</time><name>PT12139</name></trkpt>
<trkpt lat="52.957399" lon="-3.127943"><ele>299</ele><time>2019-09-27T13:51:44Z</time><name>PT12140</name></trkpt>
<trkpt lat="52.957391" lon="-3.127938"><ele>299</ele><time>2019-09-27T13:51:45Z</time><name>PT12141</name></trkpt>
<trkpt lat="52.957384" lon="-3.127931"><ele>299</ele><time>2019-09-27T13:51:45Z</time><name>PT12142</name></trkpt>
<trkpt lat="52.957377" lon="-3.127922"><ele>299</ele><time>2019-09-27T13:51:47Z</time><name>PT12143</name></trkpt>
<trkpt lat="52.957371" lon="-3.127917"><ele>300</ele><time>2019-09-27T13:51:48Z</time><name>PT12144</name></trkpt>
<trkpt lat="52.957364" lon="-3.127912"><ele>300</ele><time>2019-09-27T13:51:48Z</time><name>PT12145</name></trkpt>
<trkpt lat="52.957358" lon="-3.127904"><ele>300</ele><time>2019-09-27T13:51:50Z</time><name>PT12146</name></trkpt>
<trkpt lat="52.957356" lon="-3.127895"><ele>301</ele><time>2019-09-27T13:51:51Z</time><name>PT12147</name></trkpt>
<trkpt lat="52.957350" lon="-3.127888"><ele>300</ele><time>2019-09-27T13:51:51Z</time><name>PT12148</name></trkpt>
<trkpt lat="52.957345" lon="-3.127878"><ele>301</ele><time>2019-09-27T13:51:53Z</time><name>PT12149</name></trkpt>
<trkpt lat="52.957340" lon="-3.127866"><ele>300</ele><time>2019-09-27T13:51:54Z</time><name>PT12150</name></trkpt>
<trkpt lat="52.957335" lon="-3.127856"><ele>301</ele><time>2019-09-27T13:51:54Z</time><name>PT12151</name></trkpt>
<trkpt lat="52.957332" lon="-3.127844"><ele>301</ele><time>2019-09-27T13:51:56Z</time><name>PT12152</name></trkpt>
<trkpt lat="52.957327" lon="-3.127836"><ele>302</ele><time>2019-09-27T13:51:57Z</time><name>PT12153</name></trkpt>
<trkpt lat="52.957322" lon="-3.127826"><ele>302</ele><time>2019-09-27T13:51:58Z</time><name>PT12154</name></trkpt>
<trkpt lat="52.957314" lon="-3.127823"><ele>301</ele><time>2019-09-27T13:51:59Z</time><name>PT12155</name></trkpt>
<trkpt lat="52.957308" lon="-3.127812"><ele>301</ele><time>2019-09-27T13:52:00Z</time><name>PT12156</name></trkpt>
<trkpt lat="52.957304" lon="-3.127803"><ele>301</ele><time>2019-09-27T13:52:01Z</time><name>PT12157</name></trkpt>
<trkpt lat="52.957298" lon="-3.127798"><ele>302</ele><time>2019-09-27T13:52:02Z</time><name>PT12158</name></trkpt>
<trkpt lat="52.957293" lon="-3.127790"><ele>302</ele><time>2019-09-27T13:52:03Z</time><name>PT12159</name></trkpt>
<trkpt lat="52.957287" lon="-3.127787"><ele>302</ele><time>2019-09-27T13:52:04Z</time><name>PT12160</name></trkpt>
<trkpt lat="52.957282" lon="-3.127787"><ele>302</ele><time>2019-09-27T13:52:05Z</time><name>PT12161</name></trkpt>
<trkpt lat="52.957277" lon="-3.127783"><ele>302</ele><time>2019-09-27T13:52:06Z</time><name>PT12162</name></trkpt>
<trkpt lat="52.957271" lon="-3.127779"><ele>302</ele><time>2019-09-27T13:52:07Z</time><name>PT12163</name></trkpt>
<trkpt lat="52.957267" lon="-3.127773"><ele>302</ele><time>2019-09-27T13:52:08Z</time><name>PT12164</name></trkpt>
<trkpt lat="52.957263" lon="-3.127766"><ele>302</ele><time>2019-09-27T13:52:09Z</time><name>PT12165</name></trkpt>
<trkpt lat="52.957257" lon="-3.127760"><ele>302</ele><time>2019-09-27T13:52:10Z</time><name>PT12166</name></trkpt>
<trkpt lat="52.957253" lon="-3.127753"><ele>302</ele><time>2019-09-27T13:52:11Z</time><name>PT12167</name></trkpt>
<trkpt lat="52.957247" lon="-3.127745"><ele>303</ele><time>2019-09-27T13:52:12Z</time><name>PT12168</name></trkpt>
<trkpt lat="52.957241" lon="-3.127741"><ele>303</ele><time>2019-09-27T13:52:13Z</time><name>PT12169</name></trkpt>
<trkpt lat="52.957236" lon="-3.127733"><ele>303</ele><time>2019-09-27T13:52:14Z</time><name>PT12170</name></trkpt>
<trkpt lat="52.957229" lon="-3.127727"><ele>303</ele><time>2019-09-27T13:52:15Z</time><name>PT12171</name></trkpt>
<trkpt lat="52.957223" lon="-3.127716"><ele>303</ele><time>2019-09-27T13:52:16Z</time><name>PT12172</name></trkpt>
<trkpt lat="52.957216" lon="-3.127707"><ele>303</ele><time>2019-09-27T13:52:17Z</time><name>PT12173</name></trkpt>
<trkpt lat="52.957209" lon="-3.127698"><ele>303</ele><time>2019-09-27T13:52:18Z</time><name>PT12174</name></trkpt>
<trkpt lat="52.957204" lon="-3.127691"><ele>303</ele><time>2019-09-27T13:52:19Z</time><name>PT12175</name></trkpt>
<trkpt lat="52.957199" lon="-3.127682"><ele>303</ele><time>2019-09-27T13:52:20Z</time><name>PT12176</name></trkpt>
<trkpt lat="52.957193" lon="-3.127677"><ele>303</ele><time>2019-09-27T13:52:21Z</time><name>PT12177</name></trkpt>
<trkpt lat="52.957185" lon="-3.127669"><ele>303</ele><time>2019-09-27T13:52:21Z</time><name>PT12178</name></trkpt>
<trkpt lat="52.957180" lon="-3.127662"><ele>303</ele><time>2019-09-27T13:52:23Z</time><name>PT12179</name></trkpt>
<trkpt lat="52.957174" lon="-3.127651"><ele>304</ele><time>2019-09-27T13:52:24Z</time><name>PT12180</name></trkpt>
<trkpt lat="52.957168" lon="-3.127645"><ele>304</ele><time>2019-09-27T13:52:24Z</time><name>PT12181</name></trkpt>
<trkpt lat="52.957163" lon="-3.127641"><ele>304</ele><time>2019-09-27T13:52:26Z</time><name>PT12182</name></trkpt>
<trkpt lat="52.957158" lon="-3.127631"><ele>305</ele><time>2019-09-27T13:52:27Z</time><name>PT12183</name></trkpt>
<trkpt lat="52.957152" lon="-3.127623"><ele>305</ele><time>2019-09-27T13:52:27Z</time><name>PT12184</name></trkpt>
<trkpt lat="52.957147" lon="-3.127616"><ele>306</ele><time>2019-09-27T13:52:29Z</time><name>PT12185</name></trkpt>
<trkpt lat="52.957142" lon="-3.127611"><ele>306</ele><time>2019-09-27T13:52:30Z</time><name>PT12186</name></trkpt>
<trkpt lat="52.957133" lon="-3.127606"><ele>305</ele><time>2019-09-27T13:52:30Z</time><name>PT12187</name></trkpt>
<trkpt lat="52.957122" lon="-3.127597"><ele>306</ele><time>2019-09-27T13:52:32Z</time><name>PT12188</name></trkpt>
<trkpt lat="52.957115" lon="-3.127594"><ele>305</ele><time>2019-09-27T13:52:33Z</time><name>PT12189</name></trkpt>
<trkpt lat="52.957110" lon="-3.127590"><ele>306</ele><time>2019-09-27T13:52:33Z</time><name>PT12190</name></trkpt>
<trkpt lat="52.957103" lon="-3.127578"><ele>306</ele><time>2019-09-27T13:52:35Z</time><name>PT12191</name></trkpt>
<trkpt lat="52.957097" lon="-3.127567"><ele>306</ele><time>2019-09-27T13:52:36Z</time><name>PT12192</name></trkpt>
<trkpt lat="52.957090" lon="-3.127559"><ele>306</ele><time>2019-09-27T13:52:36Z</time><name>PT12193</name></trkpt>
<trkpt lat="52.957084" lon="-3.127553"><ele>306</ele><time>2019-09-27T13:52:38Z</time><name>PT12194</name></trkpt>
<trkpt lat="52.957076" lon="-3.127552"><ele>306</ele><time>2019-09-27T13:52:39Z</time><name>PT12195</name></trkpt>
<trkpt lat="52.957066" lon="-3.127546"><ele>306</ele><time>2019-09-27T13:52:39Z</time><name>PT12196</name></trkpt>
<trkpt lat="52.957058" lon="-3.127540"><ele>306</ele><time>2019-09-27T13:52:41Z</time><name>PT12197</name></trkpt>
<trkpt lat="52.957054" lon="-3.127532"><ele>306</ele><time>2019-09-27T13:52:42Z</time><name>PT12198</name></trkpt>
<trkpt lat="52.957048" lon="-3.127521"><ele>306</ele><time>2019-09-27T13:52:42Z</time><name>PT12199</name></trkpt>
<trkpt lat="52.957042" lon="-3.127513"><ele>305</ele><time>2019-09-27T13:52:44Z</time><name>PT12200</name></trkpt>
<trkpt lat="52.957039" lon="-3.127505"><ele>305</ele><time>2019-09-27T13:52:45Z</time><name>PT12201</name></trkpt>
<trkpt lat="52.957032" lon="-3.127499"><ele>305</ele><time>2019-09-27T13:52:45Z</time><name>PT12202</name></trkpt>
<trkpt lat="52.957026" lon="-3.127493"><ele>305</ele><time>2019-09-27T13:52:47Z</time><name>PT12203</name></trkpt>
<trkpt lat="52.957022" lon="-3.127484"><ele>306</ele><time>2019-09-27T13:52:48Z</time><name>PT12204</name></trkpt>
<trkpt lat="52.957016" lon="-3.127477"><ele>306</ele><time>2019-09-27T13:52:49Z</time><name>PT12205</name></trkpt>
<trkpt lat="52.957010" lon="-3.127467"><ele>305</ele><time>2019-09-27T13:52:50Z</time><name>PT12206</name></trkpt>
<trkpt lat="52.957003" lon="-3.127458"><ele>305</ele><time>2019-09-27T13:52:51Z</time><name>PT12207</name></trkpt>
<trkpt lat="52.956996" lon="-3.127449"><ele>305</ele><time>2019-09-27T13:52:52Z</time><name>PT12208</name></trkpt>
<trkpt lat="52.956990" lon="-3.127440"><ele>305</ele><time>2019-09-27T13:52:53Z</time><name>PT12209</name></trkpt>
<trkpt lat="52.956985" lon="-3.127428"><ele>305</ele><time>2019-09-27T13:52:54Z</time><name>PT12210</name></trkpt>
<trkpt lat="52.956977" lon="-3.127415"><ele>305</ele><time>2019-09-27T13:52:55Z</time><name>PT12211</name></trkpt>
<trkpt lat="52.956968" lon="-3.127405"><ele>305</ele><time>2019-09-27T13:52:56Z</time><name>PT12212</name></trkpt>
<trkpt lat="52.956961" lon="-3.127391"><ele>305</ele><time>2019-09-27T13:52:57Z</time><name>PT12213</name></trkpt>
<trkpt lat="52.956953" lon="-3.127383"><ele>306</ele><time>2019-09-27T13:52:58Z</time><name>PT12214</name></trkpt>
<trkpt lat="52.956941" lon="-3.127376"><ele>306</ele><time>2019-09-27T13:52:59Z</time><name>PT12215</name></trkpt>
<trkpt lat="52.956932" lon="-3.127368"><ele>306</ele><time>2019-09-27T13:53:00Z</time><name>PT12216</name></trkpt>
<trkpt lat="52.956924" lon="-3.127365"><ele>306</ele><time>2019-09-27T13:53:01Z</time><name>PT12217</name></trkpt>
<trkpt lat="52.956916" lon="-3.127356"><ele>306</ele><time>2019-09-27T13:53:02Z</time><name>PT12218</name></trkpt>
<trkpt lat="52.956908" lon="-3.127349"><ele>306</ele><time>2019-09-27T13:53:03Z</time><name>PT12219</name></trkpt>
<trkpt lat="52.956902" lon="-3.127340"><ele>306</ele><time>2019-09-27T13:53:03Z</time><name>PT12220</name></trkpt>
<trkpt lat="52.956893" lon="-3.127330"><ele>306</ele><time>2019-09-27T13:53:05Z</time><name>PT12221</name></trkpt>
<trkpt lat="52.956887" lon="-3.127323"><ele>306</ele><time>2019-09-27T13:53:06Z</time><name>PT12222</name></trkpt>
<trkpt lat="52.956881" lon="-3.127319"><ele>306</ele><time>2019-09-27T13:53:06Z</time><name>PT12223</name></trkpt>
<trkpt lat="52.956874" lon="-3.127308"><ele>306</ele><time>2019-09-27T13:53:08Z</time><name>PT12224</name></trkpt>
<trkpt lat="52.956868" lon="-3.127301"><ele>306</ele><time>2019-09-27T13:53:09Z</time><name>PT12225</name></trkpt>
<trkpt lat="52.956860" lon="-3.127292"><ele>306</ele><time>2019-09-27T13:53:09Z</time><name>PT12226</name></trkpt>
<trkpt lat="52.956853" lon="-3.127286"><ele>307</ele><time>2019-09-27T13:53:11Z</time><name>PT12227</name></trkpt>
<trkpt lat="52.956848" lon="-3.127278"><ele>307</ele><time>2019-09-27T13:53:12Z</time><name>PT12228</name></trkpt>
<trkpt lat="52.956842" lon="-3.127270"><ele>307</ele><time>2019-09-27T13:53:12Z</time><name>PT12229</name></trkpt>
<trkpt lat="52.956836" lon="-3.127262"><ele>307</ele><time>2019-09-27T13:53:14Z</time><name>PT12230</name></trkpt>
<trkpt lat="52.956830" lon="-3.127254"><ele>308</ele><time>2019-09-27T13:53:15Z</time><name>PT12231</name></trkpt>
<trkpt lat="52.956823" lon="-3.127246"><ele>308</ele><time>2019-09-27T13:53:15Z</time><name>PT12232</name></trkpt>
<trkpt lat="52.956817" lon="-3.127238"><ele>308</ele><time>2019-09-27T13:53:17Z</time><name>PT12233</name></trkpt>
<trkpt lat="52.956810" lon="-3.127233"><ele>308</ele><time>2019-09-27T13:53:18Z</time><name>PT12234</name></trkpt>
<trkpt lat="52.956802" lon="-3.127226"><ele>307</ele><time>2019-09-27T13:53:18Z</time><name>PT12235</name></trkpt>
<trkpt lat="52.956795" lon="-3.127222"><ele>308</ele><time>2019-09-27T13:53:20Z</time><name>PT12236</name></trkpt>
<trkpt lat="52.956788" lon="-3.127216"><ele>308</ele><time>2019-09-27T13:53:21Z</time><name>PT12237</name></trkpt>
<trkpt lat="52.956779" lon="-3.127210"><ele>308</ele><time>2019-09-27T13:53:21Z</time><name>PT12238</name></trkpt>
<trkpt lat="52.956771" lon="-3.127204"><ele>308</ele><time>2019-09-27T13:53:23Z</time><name>PT12239</name></trkpt>
<trkpt lat="52.956764" lon="-3.127201"><ele>308</ele><time>2019-09-27T13:53:24Z</time><name>PT12240</name></trkpt>
<trkpt lat="52.956755" lon="-3.127195"><ele>308</ele><time>2019-09-27T13:53:24Z</time><name>PT12241</name></trkpt>
<trkpt lat="52.956749" lon="-3.127185"><ele>309</ele><time>2019-09-27T13:53:26Z</time><name>PT12242</name></trkpt>
<trkpt lat="52.956743" lon="-3.127177"><ele>309</ele><time>2019-09-27T13:53:27Z</time><name>PT12243</name></trkpt>
<trkpt lat="52.956737" lon="-3.127169"><ele>309</ele><time>2019-09-27T13:53:27Z</time><name>PT12244</name></trkpt>
<trkpt lat="52.956733" lon="-3.127158"><ele>309</ele><time>2019-09-27T13:53:29Z</time><name>PT12245</name></trkpt>
<trkpt lat="52.956727" lon="-3.127151"><ele>309</ele><time>2019-09-27T13:53:30Z</time><name>PT12246</name></trkpt>
<trkpt lat="52.956721" lon="-3.127143"><ele>309</ele><time>2019-09-27T13:53:31Z</time><name>PT12247</name></trkpt>
<trkpt lat="52.956713" lon="-3.127129"><ele>310</ele><time>2019-09-27T13:53:32Z</time><name>PT12248</name></trkpt>
<trkpt lat="52.956707" lon="-3.127122"><ele>310</ele><time>2019-09-27T13:53:33Z</time><name>PT12249</name></trkpt>
<trkpt lat="52.956701" lon="-3.127112"><ele>310</ele><time>2019-09-27T13:53:33Z</time><name>PT12250</name></trkpt>
<trkpt lat="52.956697" lon="-3.127105"><ele>310</ele><time>2019-09-27T13:53:35Z</time><name>PT12251</name></trkpt>
<trkpt lat="52.956691" lon="-3.127095"><ele>310</ele><time>2019-09-27T13:53:36Z</time><name>PT12252</name></trkpt>
<trkpt lat="52.956684" lon="-3.127082"><ele>310</ele><time>2019-09-27T13:53:36Z</time><name>PT12253</name></trkpt>
<trkpt lat="52.956678" lon="-3.127072"><ele>310</ele><time>2019-09-27T13:53:38Z</time><name>PT12254</name></trkpt>
<trkpt lat="52.956671" lon="-3.127069"><ele>309</ele><time>2019-09-27T13:53:39Z</time><name>PT12255</name></trkpt>
<trkpt lat="52.956666" lon="-3.127060"><ele>309</ele><time>2019-09-27T13:53:39Z</time><name>PT12256</name></trkpt>
<trkpt lat="52.956662" lon="-3.127057"><ele>310</ele><time>2019-09-27T13:53:41Z</time><name>PT12257</name></trkpt>
<trkpt lat="52.956658" lon="-3.127053"><ele>311</ele><time>2019-09-27T13:53:42Z</time><name>PT12258</name></trkpt>
<trkpt lat="52.956656" lon="-3.127049"><ele>311</ele><time>2019-09-27T13:53:42Z</time><name>PT12259</name></trkpt>
<trkpt lat="52.956652" lon="-3.127044"><ele>311</ele><time>2019-09-27T13:53:44Z</time><name>PT12260</name></trkpt>
<trkpt lat="52.956646" lon="-3.127035"><ele>311</ele><time>2019-09-27T13:53:45Z</time><name>PT12261</name></trkpt>
<trkpt lat="52.956639" lon="-3.127026"><ele>311</ele><time>2019-09-27T13:53:46Z</time><name>PT12262</name></trkpt>
<trkpt lat="52.956632" lon="-3.127017"><ele>311</ele><time>2019-09-27T13:53:47Z</time><name>PT12263</name></trkpt>
<trkpt lat="52.956626" lon="-3.127007"><ele>311</ele><time>2019-09-27T13:53:48Z</time><name>PT12264</name></trkpt>
<trkpt lat="52.956623" lon="-3.127005"><ele>311</ele><time>2019-09-27T13:53:48Z</time><name>PT12265</name></trkpt>
<trkpt lat="52.956621" lon="-3.126992"><ele>312</ele><time>2019-09-27T13:53:50Z</time><name>PT12266</name></trkpt>
<trkpt lat="52.956618" lon="-3.126988"><ele>312</ele><time>2019-09-27T13:53:51Z</time><name>PT12267</name></trkpt>
<trkpt lat="52.956614" lon="-3.126980"><ele>312</ele><time>2019-09-27T13:53:52Z</time><name>PT12268</name></trkpt>
<trkpt lat="52.956608" lon="-3.126974"><ele>312</ele><time>2019-09-27T13:53:53Z</time><name>PT12269</name></trkpt>
<trkpt lat="52.956601" lon="-3.126962"><ele>312</ele><time>2019-09-27T13:53:54Z</time><name>PT12270</name></trkpt>
<trkpt lat="52.956596" lon="-3.126948"><ele>312</ele><time>2019-09-27T13:53:54Z</time><name>PT12271</name></trkpt>
<trkpt lat="52.956592" lon="-3.126937"><ele>312</ele><time>2019-09-27T13:53:56Z</time><name>PT12272</name></trkpt>
<trkpt lat="52.956586" lon="-3.126932"><ele>312</ele><time>2019-09-27T13:53:57Z</time><name>PT12273</name></trkpt>
<trkpt lat="52.956579" lon="-3.126921"><ele>312</ele><time>2019-09-27T13:53:57Z</time><name>PT12274</name></trkpt>
<trkpt lat="52.956575" lon="-3.126911"><ele>312</ele><time>2019-09-27T13:53:59Z</time><name>PT12275</name></trkpt>
<trkpt lat="52.956568" lon="-3.126897"><ele>312</ele><time>2019-09-27T13:54:00Z</time><name>PT12276</name></trkpt>
<trkpt lat="52.956561" lon="-3.126896"><ele>311</ele><time>2019-09-27T13:54:01Z</time><name>PT12277</name></trkpt>
<trkpt lat="52.956554" lon="-3.126885"><ele>311</ele><time>2019-09-27T13:54:02Z</time><name>PT12278</name></trkpt>
<trkpt lat="52.956548" lon="-3.126870"><ele>311</ele><time>2019-09-27T13:54:03Z</time><name>PT12279</name></trkpt>
<trkpt lat="52.956541" lon="-3.126856"><ele>311</ele><time>2019-09-27T13:54:04Z</time><name>PT12280</name></trkpt>
<trkpt lat="52.956536" lon="-3.126836"><ele>312</ele><time>2019-09-27T13:54:05Z</time><name>PT12281</name></trkpt>
<trkpt lat="52.956531" lon="-3.126822"><ele>313</ele><time>2019-09-27T13:54:06Z</time><name>PT12282</name></trkpt>
<trkpt lat="52.956524" lon="-3.126808"><ele>313</ele><time>2019-09-27T13:54:07Z</time><name>PT12283</name></trkpt>
<trkpt lat="52.956517" lon="-3.126796"><ele>313</ele><time>2019-09-27T13:54:08Z</time><name>PT12284</name></trkpt>
<trkpt lat="52.956512" lon="-3.126784"><ele>313</ele><time>2019-09-27T13:54:09Z</time><name>PT12285</name></trkpt>
<trkpt lat="52.956506" lon="-3.126770"><ele>313</ele><time>2019-09-27T13:54:10Z</time><name>PT12286</name></trkpt>
<trkpt lat="52.956500" lon="-3.126755"><ele>313</ele><time>2019-09-27T13:54:11Z</time><name>PT12287</name></trkpt>
<trkpt lat="52.956493" lon="-3.126745"><ele>313</ele><time>2019-09-27T13:54:12Z</time><name>PT12288</name></trkpt>
<trkpt lat="52.956489" lon="-3.126736"><ele>314</ele><time>2019-09-27T13:54:13Z</time><name>PT12289</name></trkpt>
<trkpt lat="52.956488" lon="-3.126729"><ele>314</ele><time>2019-09-27T13:54:14Z</time><name>PT12290</name></trkpt>
<trkpt lat="52.956487" lon="-3.126727"><ele>315</ele><time>2019-09-27T13:54:15Z</time><name>PT12291</name></trkpt>
<trkpt lat="52.956488" lon="-3.126725"><ele>315</ele><time>2019-09-27T13:54:16Z</time><name>PT12292</name></trkpt>
<trkpt lat="52.956486" lon="-3.126719"><ele>315</ele><time>2019-09-27T13:54:21Z</time><name>PT12293</name></trkpt>
<trkpt lat="52.956478" lon="-3.126704"><ele>315</ele><time>2019-09-27T13:54:21Z</time><name>PT12294</name></trkpt>
<trkpt lat="52.956473" lon="-3.126693"><ele>315</ele><time>2019-09-27T13:54:23Z</time><name>PT12295</name></trkpt>
<trkpt lat="52.956464" lon="-3.126681"><ele>315</ele><time>2019-09-27T13:54:24Z</time><name>PT12296</name></trkpt>
<trkpt lat="52.956457" lon="-3.126676"><ele>315</ele><time>2019-09-27T13:54:24Z</time><name>PT12297</name></trkpt>
<trkpt lat="52.956451" lon="-3.126669"><ele>315</ele><time>2019-09-27T13:54:26Z</time><name>PT12298</name></trkpt>
<trkpt lat="52.956445" lon="-3.126655"><ele>315</ele><time>2019-09-27T13:54:27Z</time><name>PT12299</name></trkpt>
<trkpt lat="52.956441" lon="-3.126638"><ele>315</ele><time>2019-09-27T13:54:27Z</time><name>PT12300</name></trkpt>
<trkpt lat="52.956433" lon="-3.126629"><ele>315</ele><time>2019-09-27T13:54:29Z</time><name>PT12301</name></trkpt>
<trkpt lat="52.956427" lon="-3.126621"><ele>314</ele><time>2019-09-27T13:54:30Z</time><name>PT12302</name></trkpt>
<trkpt lat="52.956422" lon="-3.126610"><ele>313</ele><time>2019-09-27T13:54:30Z</time><name>PT12303</name></trkpt>
<trkpt lat="52.956421" lon="-3.126599"><ele>312</ele><time>2019-09-27T13:54:32Z</time><name>PT12304</name></trkpt>
<trkpt lat="52.956417" lon="-3.126589"><ele>311</ele><time>2019-09-27T13:54:33Z</time><name>PT12305</name></trkpt>
<trkpt lat="52.956413" lon="-3.126579"><ele>310</ele><time>2019-09-27T13:54:33Z</time><name>PT12306</name></trkpt>
<trkpt lat="52.956411" lon="-3.126571"><ele>310</ele><time>2019-09-27T13:54:35Z</time><name>PT12307</name></trkpt>
<trkpt lat="52.956409" lon="-3.126557"><ele>310</ele><time>2019-09-27T13:54:36Z</time><name>PT12308</name></trkpt>
<trkpt lat="52.956405" lon="-3.126542"><ele>309</ele><time>2019-09-27T13:54:36Z</time><name>PT12309</name></trkpt>
<trkpt lat="52.956399" lon="-3.126520"><ele>309</ele><time>2019-09-27T13:54:38Z</time><name>PT12310</name></trkpt>
<trkpt lat="52.956398" lon="-3.126506"><ele>308</ele><time>2019-09-27T13:54:39Z</time><name>PT12311</name></trkpt>
<trkpt lat="52.956395" lon="-3.126492"><ele>309</ele><time>2019-09-27T13:54:39Z</time><name>PT12312</name></trkpt>
<trkpt lat="52.956392" lon="-3.126479"><ele>308</ele><time>2019-09-27T13:54:41Z</time><name>PT12313</name></trkpt>
<trkpt lat="52.956391" lon="-3.126468"><ele>308</ele><time>2019-09-27T13:54:42Z</time><name>PT12314</name></trkpt>
<trkpt lat="52.956388" lon="-3.126458"><ele>308</ele><time>2019-09-27T13:54:42Z</time><name>PT12315</name></trkpt>
<trkpt lat="52.956379" lon="-3.126447"><ele>308</ele><time>2019-09-27T13:54:44Z</time><name>PT12316</name></trkpt>
<trkpt lat="52.956374" lon="-3.126435"><ele>309</ele><time>2019-09-27T13:54:45Z</time><name>PT12317</name></trkpt>
<trkpt lat="52.956369" lon="-3.126422"><ele>309</ele><time>2019-09-27T13:54:45Z</time><name>PT12318</name></trkpt>
<trkpt lat="52.956363" lon="-3.126415"><ele>309</ele><time>2019-09-27T13:54:47Z</time><name>PT12319</name></trkpt>
<trkpt lat="52.956359" lon="-3.126405"><ele>309</ele><time>2019-09-27T13:54:48Z</time><name>PT12320</name></trkpt>
<trkpt lat="52.956353" lon="-3.126391"><ele>308</ele><time>2019-09-27T13:54:48Z</time><name>PT12321</name></trkpt>
<trkpt lat="52.956342" lon="-3.126375"><ele>308</ele><time>2019-09-27T13:54:50Z</time><name>PT12322</name></trkpt>
<trkpt lat="52.956338" lon="-3.126360"><ele>309</ele><time>2019-09-27T13:54:51Z</time><name>PT12323</name></trkpt>
<trkpt lat="52.956336" lon="-3.126346"><ele>309</ele><time>2019-09-27T13:54:51Z</time><name>PT12324</name></trkpt>
<trkpt lat="52.956334" lon="-3.126335"><ele>308</ele><time>2019-09-27T13:54:53Z</time><name>PT12325</name></trkpt>
<trkpt lat="52.956327" lon="-3.126321"><ele>308</ele><time>2019-09-27T13:54:54Z</time><name>PT12326</name></trkpt>
<trkpt lat="52.956322" lon="-3.126301"><ele>308</ele><time>2019-09-27T13:54:54Z</time><name>PT12327</name></trkpt>
<trkpt lat="52.956314" lon="-3.126286"><ele>308</ele><time>2019-09-27T13:54:56Z</time><name>PT12328</name></trkpt>
<trkpt lat="52.956310" lon="-3.126271"><ele>309</ele><time>2019-09-27T13:54:57Z</time><name>PT12329</name></trkpt>
<trkpt lat="52.956303" lon="-3.126255"><ele>309</ele><time>2019-09-27T13:54:57Z</time><name>PT12330</name></trkpt>
<trkpt lat="52.956297" lon="-3.126240"><ele>309</ele><time>2019-09-27T13:54:59Z</time><name>PT12331</name></trkpt>
<trkpt lat="52.956294" lon="-3.126226"><ele>309</ele><time>2019-09-27T13:55:00Z</time><name>PT12332</name></trkpt>
<trkpt lat="52.956290" lon="-3.126211"><ele>310</ele><time>2019-09-27T13:55:00Z</time><name>PT12333</name></trkpt>
<trkpt lat="52.956287" lon="-3.126194"><ele>310</ele><time>2019-09-27T13:55:02Z</time><name>PT12334</name></trkpt>
<trkpt lat="52.956282" lon="-3.126178"><ele>311</ele><time>2019-09-27T13:55:03Z</time><name>PT12335</name></trkpt>
<trkpt lat="52.956277" lon="-3.126162"><ele>311</ele><time>2019-09-27T13:55:03Z</time><name>PT12336</name></trkpt>
<trkpt lat="52.956278" lon="-3.126145"><ele>313</ele><time>2019-09-27T13:55:05Z</time><name>PT12337</name></trkpt>
<trkpt lat="52.956277" lon="-3.126132"><ele>313</ele><time>2019-09-27T13:55:06Z</time><name>PT12338</name></trkpt>
<trkpt lat="52.956276" lon="-3.126117"><ele>314</ele><time>2019-09-27T13:55:07Z</time><name>PT12339</name></trkpt>
<trkpt lat="52.956273" lon="-3.126105"><ele>315</ele><time>2019-09-27T13:55:08Z</time><name>PT12340</name></trkpt>
<trkpt lat="52.956270" lon="-3.126087"><ele>315</ele><time>2019-09-27T13:55:09Z</time><name>PT12341</name></trkpt>
<trkpt lat="52.956267" lon="-3.126072"><ele>314</ele><time>2019-09-27T13:55:10Z</time><name>PT12342</name></trkpt>
<trkpt lat="52.956265" lon="-3.126057"><ele>315</ele><time>2019-09-27T13:55:11Z</time><name>PT12343</name></trkpt>
<trkpt lat="52.956264" lon="-3.126049"><ele>314</ele><time>2019-09-27T13:55:12Z</time><name>PT12344</name></trkpt>
<trkpt lat="52.956262" lon="-3.126039"><ele>314</ele><time>2019-09-27T13:55:12Z</time><name>PT12345</name></trkpt>
<trkpt lat="52.956259" lon="-3.126024"><ele>314</ele><time>2019-09-27T13:55:14Z</time><name>PT12346</name></trkpt>
<trkpt lat="52.956258" lon="-3.126011"><ele>315</ele><time>2019-09-27T13:55:15Z</time><name>PT12347</name></trkpt>
<trkpt lat="52.956255" lon="-3.125996"><ele>315</ele><time>2019-09-27T13:55:16Z</time><name>PT12348</name></trkpt>
<trkpt lat="52.956254" lon="-3.125977"><ele>315</ele><time>2019-09-27T13:55:17Z</time><name>PT12349</name></trkpt>
<trkpt lat="52.956255" lon="-3.125960"><ele>316</ele><time>2019-09-27T13:55:18Z</time><name>PT12350</name></trkpt>
<trkpt lat="52.956252" lon="-3.125947"><ele>316</ele><time>2019-09-27T13:55:19Z</time><name>PT12351</name></trkpt>
<trkpt lat="52.956248" lon="-3.125932"><ele>317</ele><time>2019-09-27T13:55:20Z</time><name>PT12352</name></trkpt>
<trkpt lat="52.956243" lon="-3.125916"><ele>316</ele><time>2019-09-27T13:55:21Z</time><name>PT12353</name></trkpt>
<trkpt lat="52.956241" lon="-3.125904"><ele>317</ele><time>2019-09-27T13:55:22Z</time><name>PT12354</name></trkpt>
<trkpt lat="52.956238" lon="-3.125895"><ele>317</ele><time>2019-09-27T13:55:23Z</time><name>PT12355</name></trkpt>
<trkpt lat="52.956236" lon="-3.125886"><ele>317</ele><time>2019-09-27T13:55:24Z</time><name>PT12356</name></trkpt>
<trkpt lat="52.956231" lon="-3.125867"><ele>318</ele><time>2019-09-27T13:55:25Z</time><name>PT12357</name></trkpt>
<trkpt lat="52.956228" lon="-3.125850"><ele>319</ele><time>2019-09-27T13:55:26Z</time><name>PT12358</name></trkpt>
<trkpt lat="52.956224" lon="-3.125837"><ele>319</ele><time>2019-09-27T13:55:27Z</time><name>PT12359</name></trkpt>
<trkpt lat="52.956221" lon="-3.125824"><ele>319</ele><time>2019-09-27T13:55:27Z</time><name>PT12360</name></trkpt>
<trkpt lat="52.956219" lon="-3.125812"><ele>319</ele><time>2019-09-27T13:55:29Z</time><name>PT12361</name></trkpt>
<trkpt lat="52.956215" lon="-3.125799"><ele>319</ele><time>2019-09-27T13:55:30Z</time><name>PT12362</name></trkpt>
<trkpt lat="52.956216" lon="-3.125792"><ele>320</ele><time>2019-09-27T13:55:30Z</time><name>PT12363</name></trkpt>
<trkpt lat="52.956216" lon="-3.125789"><ele>320</ele><time>2019-09-27T13:55:32Z</time><name>PT12364</name></trkpt>
<trkpt lat="52.956216" lon="-3.125784"><ele>321</ele><time>2019-09-27T13:55:33Z</time><name>PT12365</name></trkpt>
<trkpt lat="52.956214" lon="-3.125782"><ele>321</ele><time>2019-09-27T13:55:33Z</time><name>PT12366</name></trkpt>
<trkpt lat="52.956213" lon="-3.125774"><ele>321</ele><time>2019-09-27T13:55:35Z</time><name>PT12367</name></trkpt>
<trkpt lat="52.956212" lon="-3.125771"><ele>322</ele><time>2019-09-27T13:55:36Z</time><name>PT12368</name></trkpt>
<trkpt lat="52.956210" lon="-3.125766"><ele>322</ele><time>2019-09-27T13:55:36Z</time><name>PT12369</name></trkpt>
<trkpt lat="52.956211" lon="-3.125757"><ele>322</ele><time>2019-09-27T13:55:42Z</time><name>PT12370</name></trkpt>
<trkpt lat="52.956209" lon="-3.125735"><ele>322</ele><time>2019-09-27T13:55:44Z</time><name>PT12371</name></trkpt>
<trkpt lat="52.956206" lon="-3.125712"><ele>322</ele><time>2019-09-27T13:55:45Z</time><name>PT12372</name></trkpt>
<trkpt lat="52.956200" lon="-3.125697"><ele>322</ele><time>2019-09-27T13:55:45Z</time><name>PT12373</name></trkpt>
<trkpt lat="52.956198" lon="-3.125682"><ele>322</ele><time>2019-09-27T13:55:47Z</time><name>PT12374</name></trkpt>
<trkpt lat="52.956194" lon="-3.125658"><ele>323</ele><time>2019-09-27T13:55:48Z</time><name>PT12375</name></trkpt>
<trkpt lat="52.956190" lon="-3.125635"><ele>322</ele><time>2019-09-27T13:55:48Z</time><name>PT12376</name></trkpt>
<trkpt lat="52.956184" lon="-3.125617"><ele>322</ele><time>2019-09-27T13:55:50Z</time><name>PT12377</name></trkpt>
<trkpt lat="52.956182" lon="-3.125598"><ele>322</ele><time>2019-09-27T13:55:51Z</time><name>PT12378</name></trkpt>
<trkpt lat="52.956177" lon="-3.125584"><ele>323</ele><time>2019-09-27T13:55:51Z</time><name>PT12379</name></trkpt>
<trkpt lat="52.956174" lon="-3.125565"><ele>323</ele><time>2019-09-27T13:55:53Z</time><name>PT12380</name></trkpt>
<trkpt lat="52.956170" lon="-3.125553"><ele>323</ele><time>2019-09-27T13:55:54Z</time><name>PT12381</name></trkpt>
<trkpt lat="52.956169" lon="-3.125541"><ele>323</ele><time>2019-09-27T13:55:54Z</time><name>PT12382</name></trkpt>
<trkpt lat="52.956166" lon="-3.125528"><ele>324</ele><time>2019-09-27T13:55:56Z</time><name>PT12383</name></trkpt>
<trkpt lat="52.956165" lon="-3.125522"><ele>324</ele><time>2019-09-27T13:55:57Z</time><name>PT12384</name></trkpt>
<trkpt lat="52.956161" lon="-3.125503"><ele>324</ele><time>2019-09-27T13:55:57Z</time><name>PT12385</name></trkpt>
<trkpt lat="52.956158" lon="-3.125494"><ele>325</ele><time>2019-09-27T13:55:59Z</time><name>PT12386</name></trkpt>
<trkpt lat="52.956155" lon="-3.125483"><ele>325</ele><time>2019-09-27T13:56:00Z</time><name>PT12387</name></trkpt>
<trkpt lat="52.956155" lon="-3.125479"><ele>326</ele><time>2019-09-27T13:56:00Z</time><name>PT12388</name></trkpt>
<trkpt lat="52.956152" lon="-3.125468"><ele>326</ele><time>2019-09-27T13:56:06Z</time><name>PT12389</name></trkpt>
<trkpt lat="52.956151" lon="-3.125454"><ele>326</ele><time>2019-09-27T13:56:07Z</time><name>PT12390</name></trkpt>
<trkpt lat="52.956153" lon="-3.125442"><ele>326</ele><time>2019-09-27T13:56:08Z</time><name>PT12391</name></trkpt>
<trkpt lat="52.956153" lon="-3.125427"><ele>326</ele><time>2019-09-27T13:56:09Z</time><name>PT12392</name></trkpt>
<trkpt lat="52.956150" lon="-3.125411"><ele>326</ele><time>2019-09-27T13:56:10Z</time><name>PT12393</name></trkpt>
<trkpt lat="52.956147" lon="-3.125393"><ele>326</ele><time>2019-09-27T13:56:11Z</time><name>PT12394</name></trkpt>
<trkpt lat="52.956144" lon="-3.125379"><ele>325</ele><time>2019-09-27T13:56:12Z</time><name>PT12395</name></trkpt>
<trkpt lat="52.956141" lon="-3.125365"><ele>325</ele><time>2019-09-27T13:56:13Z</time><name>PT12396</name></trkpt>
<trkpt lat="52.956139" lon="-3.125350"><ele>325</ele><time>2019-09-27T13:56:14Z</time><name>PT12397</name></trkpt>
<trkpt lat="52.956137" lon="-3.125336"><ele>325</ele><time>2019-09-27T13:56:15Z</time><name>PT12398</name></trkpt>
<trkpt lat="52.956134" lon="-3.125327"><ele>325</ele><time>2019-09-27T13:56:16Z</time><name>PT12399</name></trkpt>
<trkpt lat="52.956132" lon="-3.125315"><ele>325</ele><time>2019-09-27T13:56:17Z</time><name>PT12400</name></trkpt>
<trkpt lat="52.956133" lon="-3.125304"><ele>325</ele><time>2019-09-27T13:56:18Z</time><name>PT12401</name></trkpt>
<trkpt lat="52.956131" lon="-3.125292"><ele>326</ele><time>2019-09-27T13:56:19Z</time><name>PT12402</name></trkpt>
<trkpt lat="52.956131" lon="-3.125281"><ele>326</ele><time>2019-09-27T13:56:20Z</time><name>PT12403</name></trkpt>
<trkpt lat="52.956131" lon="-3.125276"><ele>326</ele><time>2019-09-27T13:56:21Z</time><name>PT12404</name></trkpt>
<trkpt lat="52.956129" lon="-3.125271"><ele>326</ele><time>2019-09-27T13:56:22Z</time><name>PT12405</name></trkpt>
<trkpt lat="52.956125" lon="-3.125257"><ele>327</ele><time>2019-09-27T13:56:23Z</time><name>PT12406</name></trkpt>
<trkpt lat="52.956124" lon="-3.125247"><ele>327</ele><time>2019-09-27T13:56:24Z</time><name>PT12407</name></trkpt>
<trkpt lat="52.956122" lon="-3.125234"><ele>327</ele><time>2019-09-27T13:56:25Z</time><name>PT12408</name></trkpt>
<trkpt lat="52.956122" lon="-3.125226"><ele>327</ele><time>2019-09-27T13:56:26Z</time><name>PT12409</name></trkpt>
<trkpt lat="52.956121" lon="-3.125216"><ele>327</ele><time>2019-09-27T13:56:27Z</time><name>PT12410</name></trkpt>
<trkpt lat="52.956119" lon="-3.125204"><ele>327</ele><time>2019-09-27T13:56:27Z</time><name>PT12411</name></trkpt>
<trkpt lat="52.956117" lon="-3.125195"><ele>327</ele><time>2019-09-27T13:56:29Z</time><name>PT12412</name></trkpt>
<trkpt lat="52.956115" lon="-3.125184"><ele>326</ele><time>2019-09-27T13:56:30Z</time><name>PT12413</name></trkpt>
<trkpt lat="52.956111" lon="-3.125171"><ele>326</ele><time>2019-09-27T13:56:30Z</time><name>PT12414</name></trkpt>
<trkpt lat="52.956109" lon="-3.125155"><ele>327</ele><time>2019-09-27T13:56:32Z</time><name>PT12415</name></trkpt>
<trkpt lat="52.956106" lon="-3.125140"><ele>327</ele><time>2019-09-27T13:56:33Z</time><name>PT12416</name></trkpt>
<trkpt lat="52.956104" lon="-3.125126"><ele>327</ele><time>2019-09-27T13:56:33Z</time><name>PT12417</name></trkpt>
<trkpt lat="52.956104" lon="-3.125111"><ele>327</ele><time>2019-09-27T13:56:35Z</time><name>PT12418</name></trkpt>
<trkpt lat="52.956102" lon="-3.125095"><ele>328</ele><time>2019-09-27T13:56:36Z</time><name>PT12419</name></trkpt>
<trkpt lat="52.956100" lon="-3.125077"><ele>328</ele><time>2019-09-27T13:56:36Z</time><name>PT12420</name></trkpt>
<trkpt lat="52.956098" lon="-3.125060"><ele>328</ele><time>2019-09-27T13:56:38Z</time><name>PT12421</name></trkpt>
<trkpt lat="52.956097" lon="-3.125045"><ele>329</ele><time>2019-09-27T13:56:39Z</time><name>PT12422</name></trkpt>
<trkpt lat="52.956095" lon="-3.125029"><ele>329</ele><time>2019-09-27T13:56:39Z</time><name>PT12423</name></trkpt>
<trkpt lat="52.956092" lon="-3.125013"><ele>329</ele><time>2019-09-27T13:56:41Z</time><name>PT12424</name></trkpt>
<trkpt lat="52.956091" lon="-3.125001"><ele>328</ele><time>2019-09-27T13:56:42Z</time><name>PT12425</name></trkpt>
<trkpt lat="52.956089" lon="-3.124988"><ele>328</ele><time>2019-09-27T13:56:42Z</time><name>PT12426</name></trkpt>
<trkpt lat="52.956086" lon="-3.124972"><ele>328</ele><time>2019-09-27T13:56:44Z</time><name>PT12427</name></trkpt>
<trkpt lat="52.956083" lon="-3.124954"><ele>329</ele><time>2019-09-27T13:56:45Z</time><name>PT12428</name></trkpt>
<trkpt lat="52.956081" lon="-3.124939"><ele>329</ele><time>2019-09-27T13:56:45Z</time><name>PT12429</name></trkpt>
<trkpt lat="52.956081" lon="-3.124923"><ele>330</ele><time>2019-09-27T13:56:47Z</time><name>PT12430</name></trkpt>
<trkpt lat="52.956080" lon="-3.124914"><ele>330</ele><time>2019-09-27T13:56:48Z</time><name>PT12431</name></trkpt>
<trkpt lat="52.956078" lon="-3.124902"><ele>330</ele><time>2019-09-27T13:56:48Z</time><name>PT12432</name></trkpt>
<trkpt lat="52.956076" lon="-3.124887"><ele>330</ele><time>2019-09-27T13:56:50Z</time><name>PT12433</name></trkpt>
<trkpt lat="52.956073" lon="-3.124874"><ele>330</ele><time>2019-09-27T13:56:51Z</time><name>PT12434</name></trkpt>
<trkpt lat="52.956070" lon="-3.124859"><ele>330</ele><time>2019-09-27T13:56:51Z</time><name>PT12435</name></trkpt>
<trkpt lat="52.956066" lon="-3.124847"><ele>330</ele><time>2019-09-27T13:56:53Z</time><name>PT12436</name></trkpt>
<trkpt lat="52.956063" lon="-3.124833"><ele>330</ele><time>2019-09-27T13:56:54Z</time><name>PT12437</name></trkpt>
<trkpt lat="52.956061" lon="-3.124822"><ele>330</ele><time>2019-09-27T13:56:54Z</time><name>PT12438</name></trkpt>
<trkpt lat="52.956058" lon="-3.124809"><ele>329</ele><time>2019-09-27T13:56:56Z</time><name>PT12439</name></trkpt>
<trkpt lat="52.956055" lon="-3.124794"><ele>329</ele><time>2019-09-27T13:56:57Z</time><name>PT12440</name></trkpt>
<trkpt lat="52.956053" lon="-3.124781"><ele>329</ele><time>2019-09-27T13:56:57Z</time><name>PT12441</name></trkpt>
<trkpt lat="52.956050" lon="-3.124767"><ele>330</ele><time>2019-09-27T13:56:59Z</time><name>PT12442</name></trkpt>
<trkpt lat="52.956047" lon="-3.124757"><ele>329</ele><time>2019-09-27T13:57:00Z</time><name>PT12443</name></trkpt>
<trkpt lat="52.956042" lon="-3.124743"><ele>329</ele><time>2019-09-27T13:57:00Z</time><name>PT12444</name></trkpt>
<trkpt lat="52.956039" lon="-3.124731"><ele>329</ele><time>2019-09-27T13:57:02Z</time><name>PT12445</name></trkpt>
<trkpt lat="52.956038" lon="-3.124720"><ele>329</ele><time>2019-09-27T13:57:03Z</time><name>PT12446</name></trkpt>
<trkpt lat="52.956037" lon="-3.124706"><ele>329</ele><time>2019-09-27T13:57:03Z</time><name>PT12447</name></trkpt>
<trkpt lat="52.956031" lon="-3.124691"><ele>329</ele><time>2019-09-27T13:57:05Z</time><name>PT12448</name></trkpt>
<trkpt lat="52.956026" lon="-3.124680"><ele>328</ele><time>2019-09-27T13:57:06Z</time><name>PT12449</name></trkpt>
<trkpt lat="52.956024" lon="-3.124665"><ele>328</ele><time>2019-09-27T13:57:06Z</time><name>PT12450</name></trkpt>
<trkpt lat="52.956021" lon="-3.124651"><ele>328</ele><time>2019-09-27T13:57:08Z</time><name>PT12451</name></trkpt>
<trkpt lat="52.956020" lon="-3.124640"><ele>328</ele><time>2019-09-27T13:57:09Z</time><name>PT12452</name></trkpt>
<trkpt lat="52.956017" lon="-3.124626"><ele>328</ele><time>2019-09-27T13:57:10Z</time><name>PT12453</name></trkpt>
<trkpt lat="52.956015" lon="-3.124608"><ele>329</ele><time>2019-09-27T13:57:11Z</time><name>PT12454</name></trkpt>
<trkpt lat="52.956013" lon="-3.124589"><ele>329</ele><time>2019-09-27T13:57:12Z</time><name>PT12455</name></trkpt>
<trkpt lat="52.956011" lon="-3.124571"><ele>330</ele><time>2019-09-27T13:57:13Z</time><name>PT12456</name></trkpt>
<trkpt lat="52.956011" lon="-3.124553"><ele>330</ele><time>2019-09-27T13:57:14Z</time><name>PT12457</name></trkpt>
<trkpt lat="52.956010" lon="-3.124533"><ele>330</ele><time>2019-09-27T13:57:15Z</time><name>PT12458</name></trkpt>
<trkpt lat="52.956015" lon="-3.124512"><ele>328</ele><time>2019-09-27T13:57:16Z</time><name>PT12459</name></trkpt>
<trkpt lat="52.956015" lon="-3.124493"><ele>328</ele><time>2019-09-27T13:57:17Z</time><name>PT12460</name></trkpt>
<trkpt lat="52.956013" lon="-3.124478"><ele>328</ele><time>2019-09-27T13:57:18Z</time><name>PT12461</name></trkpt>
<trkpt lat="52.956011" lon="-3.124465"><ele>328</ele><time>2019-09-27T13:57:19Z</time><name>PT12462</name></trkpt>
<trkpt lat="52.956012" lon="-3.124452"><ele>329</ele><time>2019-09-27T13:57:20Z</time><name>PT12463</name></trkpt>
<trkpt lat="52.956011" lon="-3.124435"><ele>329</ele><time>2019-09-27T13:57:21Z</time><name>PT12464</name></trkpt>
<trkpt lat="52.956008" lon="-3.124421"><ele>329</ele><time>2019-09-27T13:57:22Z</time><name>PT12465</name></trkpt>
<trkpt lat="52.956007" lon="-3.124408"><ele>330</ele><time>2019-09-27T13:57:23Z</time><name>PT12466</name></trkpt>
<trkpt lat="52.956005" lon="-3.124392"><ele>329</ele><time>2019-09-27T13:57:24Z</time><name>PT12467</name></trkpt>
<trkpt lat="52.956004" lon="-3.124372"><ele>329</ele><time>2019-09-27T13:57:25Z</time><name>PT12468</name></trkpt>
<trkpt lat="52.956002" lon="-3.124356"><ele>329</ele><time>2019-09-27T13:57:26Z</time><name>PT12469</name></trkpt>
<trkpt lat="52.956000" lon="-3.124337"><ele>329</ele><time>2019-09-27T13:57:27Z</time><name>PT12470</name></trkpt>
<trkpt lat="52.956000" lon="-3.124319"><ele>329</ele><time>2019-09-27T13:57:27Z</time><name>PT12471</name></trkpt>
<trkpt lat="52.956000" lon="-3.124301"><ele>329</ele><time>2019-09-27T13:57:29Z</time><name>PT12472</name></trkpt>
<trkpt lat="52.955999" lon="-3.124286"><ele>329</ele><time>2019-09-27T13:57:30Z</time><name>PT12473</name></trkpt>
<trkpt lat="52.955997" lon="-3.124271"><ele>329</ele><time>2019-09-27T13:57:30Z</time><name>PT12474</name></trkpt>
<trkpt lat="52.955996" lon="-3.124251"><ele>329</ele><time>2019-09-27T13:57:32Z</time><name>PT12475</name></trkpt>
<trkpt lat="52.955997" lon="-3.124236"><ele>329</ele><time>2019-09-27T13:57:33Z</time><name>PT12476</name></trkpt>
<trkpt lat="52.955996" lon="-3.124218"><ele>330</ele><time>2019-09-27T13:57:33Z</time><name>PT12477</name></trkpt>
<trkpt lat="52.955998" lon="-3.124196"><ele>330</ele><time>2019-09-27T13:57:35Z</time><name>PT12478</name></trkpt>
<trkpt lat="52.955996" lon="-3.124178"><ele>331</ele><time>2019-09-27T13:57:36Z</time><name>PT12479</name></trkpt>
<trkpt lat="52.955996" lon="-3.124158"><ele>331</ele><time>2019-09-27T13:57:36Z</time><name>PT12480</name></trkpt>
<trkpt lat="52.955998" lon="-3.124146"><ele>331</ele><time>2019-09-27T13:57:38Z</time><name>PT12481</name></trkpt>
<trkpt lat="52.955999" lon="-3.124130"><ele>332</ele><time>2019-09-27T13:57:39Z</time><name>PT12482</name></trkpt>
<trkpt lat="52.955998" lon="-3.124117"><ele>332</ele><time>2019-09-27T13:57:39Z</time><name>PT12483</name></trkpt>
<trkpt lat="52.955997" lon="-3.124097"><ele>332</ele><time>2019-09-27T13:57:41Z</time><name>PT12484</name></trkpt>
<trkpt lat="52.955996" lon="-3.124074"><ele>333</ele><time>2019-09-27T13:57:42Z</time><name>PT12485</name></trkpt>
<trkpt lat="52.955996" lon="-3.124057"><ele>333</ele><time>2019-09-27T13:57:42Z</time><name>PT12486</name></trkpt>
<trkpt lat="52.955996" lon="-3.124041"><ele>333</ele><time>2019-09-27T13:57:44Z</time><name>PT12487</name></trkpt>
<trkpt lat="52.955995" lon="-3.124024"><ele>333</ele><time>2019-09-27T13:57:45Z</time><name>PT12488</name></trkpt>
<trkpt lat="52.955993" lon="-3.124007"><ele>333</ele><time>2019-09-27T13:57:45Z</time><name>PT12489</name></trkpt>
<trkpt lat="52.955994" lon="-3.123995"><ele>333</ele><time>2019-09-27T13:57:47Z</time><name>PT12490</name></trkpt>
<trkpt lat="52.955993" lon="-3.123980"><ele>333</ele><time>2019-09-27T13:57:48Z</time><name>PT12491</name></trkpt>
<trkpt lat="52.955992" lon="-3.123962"><ele>333</ele><time>2019-09-27T13:57:48Z</time><name>PT12492</name></trkpt>
<trkpt lat="52.955990" lon="-3.123945"><ele>333</ele><time>2019-09-27T13:57:50Z</time><name>PT12493</name></trkpt>
<trkpt lat="52.955987" lon="-3.123929"><ele>332</ele><time>2019-09-27T13:57:51Z</time><name>PT12494</name></trkpt>
<trkpt lat="52.955987" lon="-3.123912"><ele>332</ele><time>2019-09-27T13:57:51Z</time><name>PT12495</name></trkpt>
<trkpt lat="52.955986" lon="-3.123896"><ele>333</ele><time>2019-09-27T13:57:53Z</time><name>PT12496</name></trkpt>
<trkpt lat="52.955985" lon="-3.123879"><ele>333</ele><time>2019-09-27T13:57:54Z</time><name>PT12497</name></trkpt>
<trkpt lat="52.955983" lon="-3.123861"><ele>333</ele><time>2019-09-27T13:57:54Z</time><name>PT12498</name></trkpt>
<trkpt lat="52.955983" lon="-3.123849"><ele>333</ele><time>2019-09-27T13:57:56Z</time><name>PT12499</name></trkpt>
<trkpt lat="52.955985" lon="-3.123835"><ele>333</ele><time>2019-09-27T13:57:57Z</time><name>PT12500</name></trkpt>
<trkpt lat="52.955986" lon="-3.123821"><ele>333</ele><time>2019-09-27T13:57:57Z</time><name>PT12501</name></trkpt>
<trkpt lat="52.955985" lon="-3.123799"><ele>333</ele><time>2019-09-27T13:57:59Z</time><name>PT12502</name></trkpt>
<trkpt lat="52.955984" lon="-3.123783"><ele>333</ele><time>2019-09-27T13:58:00Z</time><name>PT12503</name></trkpt>
<trkpt lat="52.955987" lon="-3.123766"><ele>333</ele><time>2019-09-27T13:58:00Z</time><name>PT12504</name></trkpt>
<trkpt lat="52.955988" lon="-3.123747"><ele>333</ele><time>2019-09-27T13:58:02Z</time><name>PT12505</name></trkpt>
<trkpt lat="52.955989" lon="-3.123725"><ele>334</ele><time>2019-09-27T13:58:03Z</time><name>PT12506</name></trkpt>
<trkpt lat="52.955987" lon="-3.123703"><ele>335</ele><time>2019-09-27T13:58:03Z</time><name>PT12507</name></trkpt>
<trkpt lat="52.955983" lon="-3.123681"><ele>334</ele><time>2019-09-27T13:58:05Z</time><name>PT12508</name></trkpt>
<trkpt lat="52.955983" lon="-3.123661"><ele>333</ele><time>2019-09-27T13:58:06Z</time><name>PT12509</name></trkpt>
<trkpt lat="52.955984" lon="-3.123643"><ele>333</ele><time>2019-09-27T13:58:06Z</time><name>PT12510</name></trkpt>
<trkpt lat="52.955984" lon="-3.123624"><ele>333</ele><time>2019-09-27T13:58:08Z</time><name>PT12511</name></trkpt>
<trkpt lat="52.955987" lon="-3.123604"><ele>334</ele><time>2019-09-27T13:58:09Z</time><name>PT12512</name></trkpt>
<trkpt lat="52.955986" lon="-3.123582"><ele>334</ele><time>2019-09-27T13:58:09Z</time><name>PT12513</name></trkpt>
<trkpt lat="52.955987" lon="-3.123561"><ele>334</ele><time>2019-09-27T13:58:11Z</time><name>PT12514</name></trkpt>
<trkpt lat="52.955988" lon="-3.123548"><ele>333</ele><time>2019-09-27T13:58:12Z</time><name>PT12515</name></trkpt>
<trkpt lat="52.955990" lon="-3.123533"><ele>333</ele><time>2019-09-27T13:58:12Z</time><name>PT12516</name></trkpt>
<trkpt lat="52.955994" lon="-3.123517"><ele>334</ele><time>2019-09-27T13:58:14Z</time><name>PT12517</name></trkpt>
<trkpt lat="52.955997" lon="-3.123498"><ele>334</ele><time>2019-09-27T13:58:15Z</time><name>PT12518</name></trkpt>
<trkpt lat="52.955999" lon="-3.123481"><ele>334</ele><time>2019-09-27T13:58:15Z</time><name>PT12519</name></trkpt>
<trkpt lat="52.956002" lon="-3.123466"><ele>334</ele><time>2019-09-27T13:58:17Z</time><name>PT12520</name></trkpt>
<trkpt lat="52.956005" lon="-3.123450"><ele>334</ele><time>2019-09-27T13:58:18Z</time><name>PT12521</name></trkpt>
<trkpt lat="52.956008" lon="-3.123433"><ele>334</ele><time>2019-09-27T13:58:18Z</time><name>PT12522</name></trkpt>
<trkpt lat="52.956012" lon="-3.123415"><ele>334</ele><time>2019-09-27T13:58:20Z</time><name>PT12523</name></trkpt>
<trkpt lat="52.956012" lon="-3.123403"><ele>334</ele><time>2019-09-27T13:58:21Z</time><name>PT12524</name></trkpt>
<trkpt lat="52.956014" lon="-3.123384"><ele>334</ele><time>2019-09-27T13:58:21Z</time><name>PT12525</name></trkpt>
<trkpt lat="52.956017" lon="-3.123373"><ele>334</ele><time>2019-09-27T13:58:23Z</time><name>PT12526</name></trkpt>
<trkpt lat="52.956019" lon="-3.123356"><ele>334</ele><time>2019-09-27T13:58:24Z</time><name>PT12527</name></trkpt>
<trkpt lat="52.956023" lon="-3.123336"><ele>335</ele><time>2019-09-27T13:58:25Z</time><name>PT12528</name></trkpt>
<trkpt lat="52.956028" lon="-3.123316"><ele>335</ele><time>2019-09-27T13:58:26Z</time><name>PT12529</name></trkpt>
<trkpt lat="52.956031" lon="-3.123296"><ele>335</ele><time>2019-09-27T13:58:27Z</time><name>PT12530</name></trkpt>
<trkpt lat="52.956034" lon="-3.123275"><ele>335</ele><time>2019-09-27T13:58:27Z</time><name>PT12531</name></trkpt>
<trkpt lat="52.956041" lon="-3.123255"><ele>335</ele><time>2019-09-27T13:58:29Z</time><name>PT12532</name></trkpt>
<trkpt lat="52.956044" lon="-3.123240"><ele>335</ele><time>2019-09-27T13:58:30Z</time><name>PT12533</name></trkpt>
<trkpt lat="52.956047" lon="-3.123220"><ele>335</ele><time>2019-09-27T13:58:31Z</time><name>PT12534</name></trkpt>
<trkpt lat="52.956051" lon="-3.123201"><ele>336</ele><time>2019-09-27T13:58:32Z</time><name>PT12535</name></trkpt>
<trkpt lat="52.956055" lon="-3.123188"><ele>336</ele><time>2019-09-27T13:58:33Z</time><name>PT12536</name></trkpt>
<trkpt lat="52.956059" lon="-3.123175"><ele>335</ele><time>2019-09-27T13:58:33Z</time><name>PT12537</name></trkpt>
<trkpt lat="52.956063" lon="-3.123157"><ele>336</ele><time>2019-09-27T13:58:35Z</time><name>PT12538</name></trkpt>
<trkpt lat="52.956067" lon="-3.123142"><ele>336</ele><time>2019-09-27T13:58:36Z</time><name>PT12539</name></trkpt>
<trkpt lat="52.956070" lon="-3.123124"><ele>336</ele><time>2019-09-27T13:58:36Z</time><name>PT12540</name></trkpt>
<trkpt lat="52.956071" lon="-3.123111"><ele>336</ele><time>2019-09-27T13:58:38Z</time><name>PT12541</name></trkpt>
<trkpt lat="52.956074" lon="-3.123095"><ele>336</ele><time>2019-09-27T13:58:39Z</time><name>PT12542</name></trkpt>
<trkpt lat="52.956079" lon="-3.123088"><ele>336</ele><time>2019-09-27T13:58:39Z</time><name>PT12543</name></trkpt>
<trkpt lat="52.956084" lon="-3.123074"><ele>336</ele><time>2019-09-27T13:58:41Z</time><name>PT12544</name></trkpt>
<trkpt lat="52.956087" lon="-3.123057"><ele>336</ele><time>2019-09-27T13:58:42Z</time><name>PT12545</name></trkpt>
<trkpt lat="52.956089" lon="-3.123044"><ele>336</ele><time>2019-09-27T13:58:42Z</time><name>PT12546</name></trkpt>
<trkpt lat="52.956092" lon="-3.123028"><ele>336</ele><time>2019-09-27T13:58:44Z</time><name>PT12547</name></trkpt>
<trkpt lat="52.956095" lon="-3.123013"><ele>336</ele><time>2019-09-27T13:58:45Z</time><name>PT12548</name></trkpt>
<trkpt lat="52.956098" lon="-3.122998"><ele>336</ele><time>2019-09-27T13:58:45Z</time><name>PT12549</name></trkpt>
<trkpt lat="52.956101" lon="-3.122983"><ele>336</ele><time>2019-09-27T13:58:47Z</time><name>PT12550</name></trkpt>
<trkpt lat="52.956107" lon="-3.122969"><ele>336</ele><time>2019-09-27T13:58:48Z</time><name>PT12551</name></trkpt>
<trkpt lat="52.956111" lon="-3.122955"><ele>336</ele><time>2019-09-27T13:58:48Z</time><name>PT12552</name></trkpt>
<trkpt lat="52.956114" lon="-3.122940"><ele>336</ele><time>2019-09-27T13:58:50Z</time><name>PT12553</name></trkpt>
<trkpt lat="52.956118" lon="-3.122924"><ele>336</ele><time>2019-09-27T13:58:51Z</time><name>PT12554</name></trkpt>
<trkpt lat="52.956120" lon="-3.122908"><ele>336</ele><time>2019-09-27T13:58:51Z</time><name>PT12555</name></trkpt>
<trkpt lat="52.956125" lon="-3.122895"><ele>336</ele><time>2019-09-27T13:58:53Z</time><name>PT12556</name></trkpt>
<trkpt lat="52.956128" lon="-3.122877"><ele>336</ele><time>2019-09-27T13:58:54Z</time><name>PT12557</name></trkpt>
<trkpt lat="52.956131" lon="-3.122862"><ele>336</ele><time>2019-09-27T13:58:55Z</time><name>PT12558</name></trkpt>
<trkpt lat="52.956133" lon="-3.122849"><ele>336</ele><time>2019-09-27T13:58:56Z</time><name>PT12559</name></trkpt>
<trkpt lat="52.956136" lon="-3.122830"><ele>336</ele><time>2019-09-27T13:58:57Z</time><name>PT12560</name></trkpt>
<trkpt lat="52.956141" lon="-3.122812"><ele>336</ele><time>2019-09-27T13:58:58Z</time><name>PT12561</name></trkpt>
<trkpt lat="52.956145" lon="-3.122793"><ele>336</ele><time>2019-09-27T13:58:59Z</time><name>PT12562</name></trkpt>
<trkpt lat="52.956146" lon="-3.122777"><ele>336</ele><time>2019-09-27T13:59:00Z</time><name>PT12563</name></trkpt>
<trkpt lat="52.956148" lon="-3.122764"><ele>336</ele><time>2019-09-27T13:59:01Z</time><name>PT12564</name></trkpt>
<trkpt lat="52.956152" lon="-3.122747"><ele>336</ele><time>2019-09-27T13:59:02Z</time><name>PT12565</name></trkpt>
<trkpt lat="52.956155" lon="-3.122731"><ele>336</ele><time>2019-09-27T13:59:03Z</time><name>PT12566</name></trkpt>
<trkpt lat="52.956158" lon="-3.122713"><ele>336</ele><time>2019-09-27T13:59:04Z</time><name>PT12567</name></trkpt>
<trkpt lat="52.956160" lon="-3.122695"><ele>336</ele><time>2019-09-27T13:59:05Z</time><name>PT12568</name></trkpt>
<trkpt lat="52.956165" lon="-3.122676"><ele>337</ele><time>2019-09-27T13:59:06Z</time><name>PT12569</name></trkpt>
<trkpt lat="52.956169" lon="-3.122659"><ele>337</ele><time>2019-09-27T13:59:07Z</time><name>PT12570</name></trkpt>
<trkpt lat="52.956170" lon="-3.122640"><ele>337</ele><time>2019-09-27T13:59:08Z</time><name>PT12571</name></trkpt>
<trkpt lat="52.956173" lon="-3.122621"><ele>337</ele><time>2019-09-27T13:59:09Z</time><name>PT12572</name></trkpt>
<trkpt lat="52.956174" lon="-3.122599"><ele>336</ele><time>2019-09-27T13:59:09Z</time><name>PT12573</name></trkpt>
<trkpt lat="52.956178" lon="-3.122580"><ele>336</ele><time>2019-09-27T13:59:11Z</time><name>PT12574</name></trkpt>
<trkpt lat="52.956183" lon="-3.122564"><ele>337</ele><time>2019-09-27T13:59:12Z</time><name>PT12575</name></trkpt>
<trkpt lat="52.956186" lon="-3.122548"><ele>337</ele><time>2019-09-27T13:59:12Z</time><name>PT12576</name></trkpt>
<trkpt lat="52.956190" lon="-3.122530"><ele>337</ele><time>2019-09-27T13:59:14Z</time><name>PT12577</name></trkpt>
<trkpt lat="52.956191" lon="-3.122510"><ele>337</ele><time>2019-09-27T13:59:15Z</time><name>PT12578</name></trkpt>
<trkpt lat="52.956192" lon="-3.122488"><ele>337</ele><time>2019-09-27T13:59:15Z</time><name>PT12579</name></trkpt>
<trkpt lat="52.956193" lon="-3.122469"><ele>337</ele><time>2019-09-27T13:59:17Z</time><name>PT12580</name></trkpt>
<trkpt lat="52.956196" lon="-3.122451"><ele>337</ele><time>2019-09-27T13:59:18Z</time><name>PT12581</name></trkpt>
<trkpt lat="52.956198" lon="-3.122438"><ele>337</ele><time>2019-09-27T13:59:18Z</time><name>PT12582</name></trkpt>
<trkpt lat="52.956201" lon="-3.122424"><ele>337</ele><time>2019-09-27T13:59:20Z</time><name>PT12583</name></trkpt>
<trkpt lat="52.956204" lon="-3.122408"><ele>338</ele><time>2019-09-27T13:59:21Z</time><name>PT12584</name></trkpt>
<trkpt lat="52.956205" lon="-3.122392"><ele>338</ele><time>2019-09-27T13:59:21Z</time><name>PT12585</name></trkpt>
<trkpt lat="52.956209" lon="-3.122381"><ele>338</ele><time>2019-09-27T13:59:23Z</time><name>PT12586</name></trkpt>
<trkpt lat="52.956211" lon="-3.122361"><ele>338</ele><time>2019-09-27T13:59:24Z</time><name>PT12587</name></trkpt>
<trkpt lat="52.956214" lon="-3.122340"><ele>338</ele><time>2019-09-27T13:59:24Z</time><name>PT12588</name></trkpt>
<trkpt lat="52.956217" lon="-3.122320"><ele>338</ele><time>2019-09-27T13:59:26Z</time><name>PT12589</name></trkpt>
<trkpt lat="52.956220" lon="-3.122306"><ele>338</ele><time>2019-09-27T13:59:27Z</time><name>PT12590</name></trkpt>
<trkpt lat="52.956220" lon="-3.122288"><ele>338</ele><time>2019-09-27T13:59:27Z</time><name>PT12591</name></trkpt>
<trkpt lat="52.956223" lon="-3.122268"><ele>339</ele><time>2019-09-27T13:59:29Z</time><name>PT12592</name></trkpt>
<trkpt lat="52.956223" lon="-3.122243"><ele>339</ele><time>2019-09-27T13:59:30Z</time><name>PT12593</name></trkpt>
<trkpt lat="52.956223" lon="-3.122223"><ele>340</ele><time>2019-09-27T13:59:30Z</time><name>PT12594</name></trkpt>
<trkpt lat="52.956226" lon="-3.122203"><ele>340</ele><time>2019-09-27T13:59:32Z</time><name>PT12595</name></trkpt>
<trkpt lat="52.956229" lon="-3.122182"><ele>341</ele><time>2019-09-27T13:59:33Z</time><name>PT12596</name></trkpt>
<trkpt lat="52.956230" lon="-3.122167"><ele>340</ele><time>2019-09-27T13:59:33Z</time><name>PT12597</name></trkpt>
<trkpt lat="52.956230" lon="-3.122152"><ele>340</ele><time>2019-09-27T13:59:35Z</time><name>PT12598</name></trkpt>
<trkpt lat="52.956232" lon="-3.122135"><ele>341</ele><time>2019-09-27T13:59:36Z</time><name>PT12599</name></trkpt>
<trkpt lat="52.956233" lon="-3.122117"><ele>341</ele><time>2019-09-27T13:59:36Z</time><name>PT12600</name></trkpt>
<trkpt lat="52.956234" lon="-3.122097"><ele>341</ele><time>2019-09-27T13:59:38Z</time><name>PT12601</name></trkpt>
<trkpt lat="52.956234" lon="-3.122078"><ele>341</ele><time>2019-09-27T13:59:39Z</time><name>PT12602</name></trkpt>
<trkpt lat="52.956235" lon="-3.122060"><ele>341</ele><time>2019-09-27T13:59:39Z</time><name>PT12603</name></trkpt>
<trkpt lat="52.956234" lon="-3.122041"><ele>342</ele><time>2019-09-27T13:59:41Z</time><name>PT12604</name></trkpt>
<trkpt lat="52.956233" lon="-3.122024"><ele>342</ele><time>2019-09-27T13:59:42Z</time><name>PT12605</name></trkpt>
<trkpt lat="52.956236" lon="-3.122010"><ele>342</ele><time>2019-09-27T13:59:42Z</time><name>PT12606</name></trkpt>
<trkpt lat="52.956239" lon="-3.121996"><ele>342</ele><time>2019-09-27T13:59:44Z</time><name>PT12607</name></trkpt>
<trkpt lat="52.956242" lon="-3.121979"><ele>342</ele><time>2019-09-27T13:59:45Z</time><name>PT12608</name></trkpt>
<trkpt lat="52.956244" lon="-3.121965"><ele>342</ele><time>2019-09-27T13:59:45Z</time><name>PT12609</name></trkpt>
<trkpt lat="52.956246" lon="-3.121947"><ele>342</ele><time>2019-09-27T13:59:47Z</time><name>PT12610</name></trkpt>
<trkpt lat="52.956247" lon="-3.121930"><ele>342</ele><time>2019-09-27T13:59:48Z</time><name>PT12611</name></trkpt>
<trkpt lat="52.956248" lon="-3.121913"><ele>342</ele><time>2019-09-27T13:59:48Z</time><name>PT12612</name></trkpt>
<trkpt lat="52.956249" lon="-3.121896"><ele>342</ele><time>2019-09-27T13:59:50Z</time><name>PT12613</name></trkpt>
<trkpt lat="52.956250" lon="-3.121873"><ele>343</ele><time>2019-09-27T13:59:51Z</time><name>PT12614</name></trkpt>
<trkpt lat="52.956252" lon="-3.121856"><ele>343</ele><time>2019-09-27T13:59:51Z</time><name>PT12615</name></trkpt>
<trkpt lat="52.956253" lon="-3.121842"><ele>343</ele><time>2019-09-27T13:59:53Z</time><name>PT12616</name></trkpt>
<trkpt lat="52.956254" lon="-3.121825"><ele>343</ele><time>2019-09-27T13:59:54Z</time><name>PT12617</name></trkpt>
<trkpt lat="52.956253" lon="-3.121805"><ele>343</ele><time>2019-09-27T13:59:55Z</time><name>PT12618</name></trkpt>
<trkpt lat="52.956254" lon="-3.121793"><ele>343</ele><time>2019-09-27T13:59:56Z</time><name>PT12619</name></trkpt>
<trkpt lat="52.956254" lon="-3.121777"><ele>343</ele><time>2019-09-27T13:59:57Z</time><name>PT12620</name></trkpt>
<trkpt lat="52.956255" lon="-3.121762"><ele>343</ele><time>2019-09-27T13:59:58Z</time><name>PT12621</name></trkpt>
<trkpt lat="52.956255" lon="-3.121745"><ele>343</ele><time>2019-09-27T13:59:59Z</time><name>PT12622</name></trkpt>
<trkpt lat="52.956256" lon="-3.121728"><ele>344</ele><time>2019-09-27T14:00:00Z</time><name>PT12623</name></trkpt>
<trkpt lat="52.956258" lon="-3.121713"><ele>344</ele><time>2019-09-27T14:00:01Z</time><name>PT12624</name></trkpt>
<trkpt lat="52.956259" lon="-3.121697"><ele>344</ele><time>2019-09-27T14:00:02Z</time><name>PT12625</name></trkpt>
<trkpt lat="52.956258" lon="-3.121678"><ele>344</ele><time>2019-09-27T14:00:03Z</time><name>PT12626</name></trkpt>
<trkpt lat="52.956258" lon="-3.121662"><ele>345</ele><time>2019-09-27T14:00:04Z</time><name>PT12627</name></trkpt>
<trkpt lat="52.956259" lon="-3.121645"><ele>345</ele><time>2019-09-27T14:00:05Z</time><name>PT12628</name></trkpt>
<trkpt lat="52.956260" lon="-3.121627"><ele>345</ele><time>2019-09-27T14:00:06Z</time><name>PT12629</name></trkpt>
<trkpt lat="52.956260" lon="-3.121608"><ele>345</ele><time>2019-09-27T14:00:07Z</time><name>PT12630</name></trkpt>
<trkpt lat="52.956263" lon="-3.121597"><ele>344</ele><time>2019-09-27T14:00:08Z</time><name>PT12631</name></trkpt>
<trkpt lat="52.956260" lon="-3.121582"><ele>345</ele><time>2019-09-27T14:00:09Z</time><name>PT12632</name></trkpt>
<trkpt lat="52.956260" lon="-3.121564"><ele>345</ele><time>2019-09-27T14:00:10Z</time><name>PT12633</name></trkpt>
<trkpt lat="52.956261" lon="-3.121550"><ele>345</ele><time>2019-09-27T14:00:11Z</time><name>PT12634</name></trkpt>
<trkpt lat="52.956261" lon="-3.121541"><ele>345</ele><time>2019-09-27T14:00:12Z</time><name>PT12635</name></trkpt>
<trkpt lat="52.956261" lon="-3.121531"><ele>345</ele><time>2019-09-27T14:00:12Z</time><name>PT12636</name></trkpt>
<trkpt lat="52.956260" lon="-3.121524"><ele>345</ele><time>2019-09-27T14:00:14Z</time><name>PT12637</name></trkpt>
<trkpt lat="52.956260" lon="-3.121520"><ele>345</ele><time>2019-09-27T14:00:15Z</time><name>PT12638</name></trkpt>
<trkpt lat="52.956261" lon="-3.121517"><ele>346</ele><time>2019-09-27T14:00:16Z</time><name>PT12639</name></trkpt>
<trkpt lat="52.956260" lon="-3.121516"><ele>345</ele><time>2019-09-27T14:00:20Z</time><name>PT12640</name></trkpt>
<trkpt lat="52.956262" lon="-3.121506"><ele>345</ele><time>2019-09-27T14:00:21Z</time><name>PT12641</name></trkpt>
<trkpt lat="52.956261" lon="-3.121501"><ele>345</ele><time>2019-09-27T14:00:21Z</time><name>PT12642</name></trkpt>
<trkpt lat="52.956264" lon="-3.121494"><ele>345</ele><time>2019-09-27T14:00:23Z</time><name>PT12643</name></trkpt>
<trkpt lat="52.956264" lon="-3.121479"><ele>345</ele><time>2019-09-27T14:00:24Z</time><name>PT12644</name></trkpt>
<trkpt lat="52.956266" lon="-3.121461"><ele>345</ele><time>2019-09-27T14:00:24Z</time><name>PT12645</name></trkpt>
<trkpt lat="52.956269" lon="-3.121449"><ele>345</ele><time>2019-09-27T14:00:26Z</time><name>PT12646</name></trkpt>
<trkpt lat="52.956271" lon="-3.121432"><ele>345</ele><time>2019-09-27T14:00:27Z</time><name>PT12647</name></trkpt>
<trkpt lat="52.956270" lon="-3.121412"><ele>345</ele><time>2019-09-27T14:00:27Z</time><name>PT12648</name></trkpt>
<trkpt lat="52.956270" lon="-3.121394"><ele>345</ele><time>2019-09-27T14:00:29Z</time><name>PT12649</name></trkpt>
<trkpt lat="52.956272" lon="-3.121378"><ele>346</ele><time>2019-09-27T14:00:30Z</time><name>PT12650</name></trkpt>
<trkpt lat="52.956273" lon="-3.121361"><ele>346</ele><time>2019-09-27T14:00:30Z</time><name>PT12651</name></trkpt>
<trkpt lat="52.956277" lon="-3.121344"><ele>346</ele><time>2019-09-27T14:00:32Z</time><name>PT12652</name></trkpt>
<trkpt lat="52.956278" lon="-3.121324"><ele>346</ele><time>2019-09-27T14:00:33Z</time><name>PT12653</name></trkpt>
<trkpt lat="52.956281" lon="-3.121311"><ele>346</ele><time>2019-09-27T14:00:34Z</time><name>PT12654</name></trkpt>
<trkpt lat="52.956283" lon="-3.121297"><ele>346</ele><time>2019-09-27T14:00:35Z</time><name>PT12655</name></trkpt>
<trkpt lat="52.956284" lon="-3.121281"><ele>346</ele><time>2019-09-27T14:00:36Z</time><name>PT12656</name></trkpt>
<trkpt lat="52.956287" lon="-3.121266"><ele>346</ele><time>2019-09-27T14:00:37Z</time><name>PT12657</name></trkpt>
<trkpt lat="52.956289" lon="-3.121250"><ele>346</ele><time>2019-09-27T14:00:38Z</time><name>PT12658</name></trkpt>
<trkpt lat="52.956292" lon="-3.121231"><ele>346</ele><time>2019-09-27T14:00:39Z</time><name>PT12659</name></trkpt>
<trkpt lat="52.956292" lon="-3.121215"><ele>346</ele><time>2019-09-27T14:00:40Z</time><name>PT12660</name></trkpt>
<trkpt lat="52.956292" lon="-3.121196"><ele>346</ele><time>2019-09-27T14:00:41Z</time><name>PT12661</name></trkpt>
<trkpt lat="52.956293" lon="-3.121178"><ele>346</ele><time>2019-09-27T14:00:42Z</time><name>PT12662</name></trkpt>
<trkpt lat="52.956294" lon="-3.121162"><ele>346</ele><time>2019-09-27T14:00:43Z</time><name>PT12663</name></trkpt>
<trkpt lat="52.956296" lon="-3.121148"><ele>346</ele><time>2019-09-27T14:00:44Z</time><name>PT12664</name></trkpt>
<trkpt lat="52.956299" lon="-3.121137"><ele>346</ele><time>2019-09-27T14:00:45Z</time><name>PT12665</name></trkpt>
<trkpt lat="52.956300" lon="-3.121118"><ele>346</ele><time>2019-09-27T14:00:46Z</time><name>PT12666</name></trkpt>
<trkpt lat="52.956300" lon="-3.121099"><ele>346</ele><time>2019-09-27T14:00:47Z</time><name>PT12667</name></trkpt>
<trkpt lat="52.956301" lon="-3.121081"><ele>346</ele><time>2019-09-27T14:00:48Z</time><name>PT12668</name></trkpt>
<trkpt lat="52.956304" lon="-3.121061"><ele>346</ele><time>2019-09-27T14:00:49Z</time><name>PT12669</name></trkpt>
<trkpt lat="52.956306" lon="-3.121044"><ele>346</ele><time>2019-09-27T14:00:50Z</time><name>PT12670</name></trkpt>
<trkpt lat="52.956307" lon="-3.121022"><ele>346</ele><time>2019-09-27T14:00:51Z</time><name>PT12671</name></trkpt>
<trkpt lat="52.956307" lon="-3.120998"><ele>346</ele><time>2019-09-27T14:00:52Z</time><name>PT12672</name></trkpt>
<trkpt lat="52.956308" lon="-3.120981"><ele>346</ele><time>2019-09-27T14:00:53Z</time><name>PT12673</name></trkpt>
<trkpt lat="52.956307" lon="-3.120962"><ele>346</ele><time>2019-09-27T14:00:54Z</time><name>PT12674</name></trkpt>
<trkpt lat="52.956308" lon="-3.120942"><ele>346</ele><time>2019-09-27T14:00:55Z</time><name>PT12675</name></trkpt>
<trkpt lat="52.956308" lon="-3.120923"><ele>347</ele><time>2019-09-27T14:00:56Z</time><name>PT12676</name></trkpt>
<trkpt lat="52.956307" lon="-3.120904"><ele>347</ele><time>2019-09-27T14:00:57Z</time><name>PT12677</name></trkpt>
<trkpt lat="52.956309" lon="-3.120889"><ele>348</ele><time>2019-09-27T14:00:57Z</time><name>PT12678</name></trkpt>
<trkpt lat="52.956312" lon="-3.120877"><ele>348</ele><time>2019-09-27T14:00:59Z</time><name>PT12679</name></trkpt>
<trkpt lat="52.956314" lon="-3.120864"><ele>349</ele><time>2019-09-27T14:01:00Z</time><name>PT12680</name></trkpt>
<trkpt lat="52.956314" lon="-3.120845"><ele>349</ele><time>2019-09-27T14:01:00Z</time><name>PT12681</name></trkpt>
<trkpt lat="52.956314" lon="-3.120832"><ele>348</ele><time>2019-09-27T14:01:02Z</time><name>PT12682</name></trkpt>
<trkpt lat="52.956315" lon="-3.120820"><ele>348</ele><time>2019-09-27T14:01:03Z</time><name>PT12683</name></trkpt>
<trkpt lat="52.956316" lon="-3.120809"><ele>348</ele><time>2019-09-27T14:01:03Z</time><name>PT12684</name></trkpt>
<trkpt lat="52.956316" lon="-3.120793"><ele>348</ele><time>2019-09-27T14:01:05Z</time><name>PT12685</name></trkpt>
<trkpt lat="52.956319" lon="-3.120777"><ele>348</ele><time>2019-09-27T14:01:06Z</time><name>PT12686</name></trkpt>
<trkpt lat="52.956321" lon="-3.120762"><ele>348</ele><time>2019-09-27T14:01:06Z</time><name>PT12687</name></trkpt>
<trkpt lat="52.956324" lon="-3.120744"><ele>348</ele><time>2019-09-27T14:01:08Z</time><name>PT12688</name></trkpt>
<trkpt lat="52.956327" lon="-3.120729"><ele>348</ele><time>2019-09-27T14:01:09Z</time><name>PT12689</name></trkpt>
<trkpt lat="52.956328" lon="-3.120715"><ele>348</ele><time>2019-09-27T14:01:09Z</time><name>PT12690</name></trkpt>
<trkpt lat="52.956328" lon="-3.120705"><ele>348</ele><time>2019-09-27T14:01:11Z</time><name>PT12691</name></trkpt>
<trkpt lat="52.956328" lon="-3.120693"><ele>348</ele><time>2019-09-27T14:01:12Z</time><name>PT12692</name></trkpt>
<trkpt lat="52.956329" lon="-3.120679"><ele>348</ele><time>2019-09-27T14:01:12Z</time><name>PT12693</name></trkpt>
<trkpt lat="52.956330" lon="-3.120666"><ele>348</ele><time>2019-09-27T14:01:14Z</time><name>PT12694</name></trkpt>
<trkpt lat="52.956332" lon="-3.120650"><ele>348</ele><time>2019-09-27T14:01:15Z</time><name>PT12695</name></trkpt>
<trkpt lat="52.956333" lon="-3.120635"><ele>348</ele><time>2019-09-27T14:01:15Z</time><name>PT12696</name></trkpt>
<trkpt lat="52.956334" lon="-3.120620"><ele>347</ele><time>2019-09-27T14:01:17Z</time><name>PT12697</name></trkpt>
<trkpt lat="52.956334" lon="-3.120605"><ele>347</ele><time>2019-09-27T14:01:18Z</time><name>PT12698</name></trkpt>
<trkpt lat="52.956335" lon="-3.120592"><ele>347</ele><time>2019-09-27T14:01:18Z</time><name>PT12699</name></trkpt>
<trkpt lat="52.956335" lon="-3.120578"><ele>347</ele><time>2019-09-27T14:01:20Z</time><name>PT12700</name></trkpt>
<trkpt lat="52.956334" lon="-3.120564"><ele>347</ele><time>2019-09-27T14:01:21Z</time><name>PT12701</name></trkpt>
<trkpt lat="52.956334" lon="-3.120548"><ele>347</ele><time>2019-09-27T14:01:21Z</time><name>PT12702</name></trkpt>
<trkpt lat="52.956334" lon="-3.120533"><ele>347</ele><time>2019-09-27T14:01:23Z</time><name>PT12703</name></trkpt>
<trkpt lat="52.956334" lon="-3.120515"><ele>347</ele><time>2019-09-27T14:01:24Z</time><name>PT12704</name></trkpt>
<trkpt lat="52.956335" lon="-3.120499"><ele>347</ele><time>2019-09-27T14:01:24Z</time><name>PT12705</name></trkpt>
<trkpt lat="52.956335" lon="-3.120479"><ele>347</ele><time>2019-09-27T14:01:26Z</time><name>PT12706</name></trkpt>
<trkpt lat="52.956335" lon="-3.120461"><ele>347</ele><time>2019-09-27T14:01:27Z</time><name>PT12707</name></trkpt>
<trkpt lat="52.956335" lon="-3.120446"><ele>347</ele><time>2019-09-27T14:01:27Z</time><name>PT12708</name></trkpt>
<trkpt lat="52.956336" lon="-3.120427"><ele>347</ele><time>2019-09-27T14:01:29Z</time><name>PT12709</name></trkpt>
<trkpt lat="52.956338" lon="-3.120412"><ele>347</ele><time>2019-09-27T14:01:30Z</time><name>PT12710</name></trkpt>
<trkpt lat="52.956337" lon="-3.120391"><ele>347</ele><time>2019-09-27T14:01:30Z</time><name>PT12711</name></trkpt>
<trkpt lat="52.956337" lon="-3.120375"><ele>347</ele><time>2019-09-27T14:01:32Z</time><name>PT12712</name></trkpt>
<trkpt lat="52.956338" lon="-3.120357"><ele>347</ele><time>2019-09-27T14:01:33Z</time><name>PT12713</name></trkpt>
<trkpt lat="52.956339" lon="-3.120335"><ele>347</ele><time>2019-09-27T14:01:33Z</time><name>PT12714</name></trkpt>
<trkpt lat="52.956339" lon="-3.120314"><ele>347</ele><time>2019-09-27T14:01:35Z</time><name>PT12715</name></trkpt>
<trkpt lat="52.956339" lon="-3.120293"><ele>347</ele><time>2019-09-27T14:01:36Z</time><name>PT12716</name></trkpt>
<trkpt lat="52.956340" lon="-3.120276"><ele>347</ele><time>2019-09-27T14:01:37Z</time><name>PT12717</name></trkpt>
<trkpt lat="52.956342" lon="-3.120264"><ele>346</ele><time>2019-09-27T14:01:38Z</time><name>PT12718</name></trkpt>
<trkpt lat="52.956344" lon="-3.120244"><ele>348</ele><time>2019-09-27T14:01:39Z</time><name>PT12719</name></trkpt>
<trkpt lat="52.956347" lon="-3.120231"><ele>348</ele><time>2019-09-27T14:01:39Z</time><name>PT12720</name></trkpt>
<trkpt lat="52.956347" lon="-3.120210"><ele>348</ele><time>2019-09-27T14:01:41Z</time><name>PT12721</name></trkpt>
<trkpt lat="52.956346" lon="-3.120190"><ele>348</ele><time>2019-09-27T14:01:42Z</time><name>PT12722</name></trkpt>
<trkpt lat="52.956348" lon="-3.120173"><ele>348</ele><time>2019-09-27T14:01:43Z</time><name>PT12723</name></trkpt>
<trkpt lat="52.956349" lon="-3.120154"><ele>348</ele><time>2019-09-27T14:01:44Z</time><name>PT12724</name></trkpt>
<trkpt lat="52.956350" lon="-3.120140"><ele>348</ele><time>2019-09-27T14:01:45Z</time><name>PT12725</name></trkpt>
<trkpt lat="52.956350" lon="-3.120125"><ele>348</ele><time>2019-09-27T14:01:46Z</time><name>PT12726</name></trkpt>
<trkpt lat="52.956349" lon="-3.120109"><ele>348</ele><time>2019-09-27T14:01:47Z</time><name>PT12727</name></trkpt>
<trkpt lat="52.956349" lon="-3.120089"><ele>348</ele><time>2019-09-27T14:01:48Z</time><name>PT12728</name></trkpt>
<trkpt lat="52.956349" lon="-3.120069"><ele>349</ele><time>2019-09-27T14:01:49Z</time><name>PT12729</name></trkpt>
<trkpt lat="52.956349" lon="-3.120049"><ele>349</ele><time>2019-09-27T14:01:50Z</time><name>PT12730</name></trkpt>
<trkpt lat="52.956350" lon="-3.120030"><ele>349</ele><time>2019-09-27T14:01:51Z</time><name>PT12731</name></trkpt>
<trkpt lat="52.956348" lon="-3.120006"><ele>350</ele><time>2019-09-27T14:01:52Z</time><name>PT12732</name></trkpt>
<trkpt lat="52.956347" lon="-3.119986"><ele>350</ele><time>2019-09-27T14:01:53Z</time><name>PT12733</name></trkpt>
<trkpt lat="52.956346" lon="-3.119967"><ele>350</ele><time>2019-09-27T14:01:54Z</time><name>PT12734</name></trkpt>
<trkpt lat="52.956347" lon="-3.119946"><ele>350</ele><time>2019-09-27T14:01:55Z</time><name>PT12735</name></trkpt>
<trkpt lat="52.956348" lon="-3.119927"><ele>350</ele><time>2019-09-27T14:01:56Z</time><name>PT12736</name></trkpt>
<trkpt lat="52.956348" lon="-3.119911"><ele>350</ele><time>2019-09-27T14:01:57Z</time><name>PT12737</name></trkpt>
<trkpt lat="52.956347" lon="-3.119894"><ele>350</ele><time>2019-09-27T14:01:57Z</time><name>PT12738</name></trkpt>
<trkpt lat="52.956344" lon="-3.119878"><ele>350</ele><time>2019-09-27T14:01:59Z</time><name>PT12739</name></trkpt>
<trkpt lat="52.956344" lon="-3.119859"><ele>350</ele><time>2019-09-27T14:02:00Z</time><name>PT12740</name></trkpt>
<trkpt lat="52.956344" lon="-3.119839"><ele>351</ele><time>2019-09-27T14:02:00Z</time><name>PT12741</name></trkpt>
<trkpt lat="52.956345" lon="-3.119822"><ele>351</ele><time>2019-09-27T14:02:02Z</time><name>PT12742</name></trkpt>
<trkpt lat="52.956346" lon="-3.119806"><ele>351</ele><time>2019-09-27T14:02:03Z</time><name>PT12743</name></trkpt>
<trkpt lat="52.956346" lon="-3.119787"><ele>351</ele><time>2019-09-27T14:02:03Z</time><name>PT12744</name></trkpt>
<trkpt lat="52.956342" lon="-3.119765"><ele>351</ele><time>2019-09-27T14:02:05Z</time><name>PT12745</name></trkpt>
<trkpt lat="52.956341" lon="-3.119749"><ele>351</ele><time>2019-09-27T14:02:06Z</time><name>PT12746</name></trkpt>
<trkpt lat="52.956341" lon="-3.119732"><ele>351</ele><time>2019-09-27T14:02:06Z</time><name>PT12747</name></trkpt>
<trkpt lat="52.956341" lon="-3.119713"><ele>352</ele><time>2019-09-27T14:02:08Z</time><name>PT12748</name></trkpt>
<trkpt lat="52.956340" lon="-3.119689"><ele>351</ele><time>2019-09-27T14:02:09Z</time><name>PT12749</name></trkpt>
<trkpt lat="52.956339" lon="-3.119670"><ele>352</ele><time>2019-09-27T14:02:09Z</time><name>PT12750</name></trkpt>
<trkpt lat="52.956338" lon="-3.119652"><ele>352</ele><time>2019-09-27T14:02:11Z</time><name>PT12751</name></trkpt>
<trkpt lat="52.956337" lon="-3.119639"><ele>352</ele><time>2019-09-27T14:02:12Z</time><name>PT12752</name></trkpt>
<trkpt lat="52.956336" lon="-3.119619"><ele>352</ele><time>2019-09-27T14:02:12Z</time><name>PT12753</name></trkpt>
<trkpt lat="52.956336" lon="-3.119600"><ele>352</ele><time>2019-09-27T14:02:14Z</time><name>PT12754</name></trkpt>
<trkpt lat="52.956334" lon="-3.119580"><ele>352</ele><time>2019-09-27T14:02:15Z</time><name>PT12755</name></trkpt>
<trkpt lat="52.956334" lon="-3.119562"><ele>352</ele><time>2019-09-27T14:02:15Z</time><name>PT12756</name></trkpt>
<trkpt lat="52.956336" lon="-3.119545"><ele>352</ele><time>2019-09-27T14:02:17Z</time><name>PT12757</name></trkpt>
<trkpt lat="52.956336" lon="-3.119527"><ele>352</ele><time>2019-09-27T14:02:18Z</time><name>PT12758</name></trkpt>
<trkpt lat="52.956336" lon="-3.119506"><ele>352</ele><time>2019-09-27T14:02:18Z</time><name>PT12759</name></trkpt>
<trkpt lat="52.956334" lon="-3.119489"><ele>352</ele><time>2019-09-27T14:02:20Z</time><name>PT12760</name></trkpt>
<trkpt lat="52.956333" lon="-3.119469"><ele>352</ele><time>2019-09-27T14:02:21Z</time><name>PT12761</name></trkpt>
<trkpt lat="52.956331" lon="-3.119451"><ele>352</ele><time>2019-09-27T14:02:21Z</time><name>PT12762</name></trkpt>
<trkpt lat="52.956330" lon="-3.119432"><ele>352</ele><time>2019-09-27T14:02:23Z</time><name>PT12763</name></trkpt>
<trkpt lat="52.956331" lon="-3.119418"><ele>352</ele><time>2019-09-27T14:02:24Z</time><name>PT12764</name></trkpt>
<trkpt lat="52.956332" lon="-3.119395"><ele>352</ele><time>2019-09-27T14:02:24Z</time><name>PT12765</name></trkpt>
<trkpt lat="52.956334" lon="-3.119370"><ele>353</ele><time>2019-09-27T14:02:26Z</time><name>PT12766</name></trkpt>
<trkpt lat="52.956334" lon="-3.119349"><ele>353</ele><time>2019-09-27T14:02:27Z</time><name>PT12767</name></trkpt>
<trkpt lat="52.956330" lon="-3.119337"><ele>352</ele><time>2019-09-27T14:02:28Z</time><name>PT12768</name></trkpt>
<trkpt lat="52.956327" lon="-3.119318"><ele>352</ele><time>2019-09-27T14:02:29Z</time><name>PT12769</name></trkpt>
<trkpt lat="52.956328" lon="-3.119298"><ele>352</ele><time>2019-09-27T14:02:30Z</time><name>PT12770</name></trkpt>
<trkpt lat="52.956330" lon="-3.119278"><ele>353</ele><time>2019-09-27T14:02:31Z</time><name>PT12771</name></trkpt>
<trkpt lat="52.956332" lon="-3.119265"><ele>352</ele><time>2019-09-27T14:02:32Z</time><name>PT12772</name></trkpt>
<trkpt lat="52.956334" lon="-3.119250"><ele>353</ele><time>2019-09-27T14:02:33Z</time><name>PT12773</name></trkpt>
<trkpt lat="52.956336" lon="-3.119232"><ele>353</ele><time>2019-09-27T14:02:34Z</time><name>PT12774</name></trkpt>
<trkpt lat="52.956336" lon="-3.119213"><ele>353</ele><time>2019-09-27T14:02:35Z</time><name>PT12775</name></trkpt>
<trkpt lat="52.956337" lon="-3.119201"><ele>353</ele><time>2019-09-27T14:02:36Z</time><name>PT12776</name></trkpt>
<trkpt lat="52.956335" lon="-3.119188"><ele>353</ele><time>2019-09-27T14:02:37Z</time><name>PT12777</name></trkpt>
<trkpt lat="52.956335" lon="-3.119171"><ele>353</ele><time>2019-09-27T14:02:38Z</time><name>PT12778</name></trkpt>
<trkpt lat="52.956334" lon="-3.119157"><ele>353</ele><time>2019-09-27T14:02:39Z</time><name>PT12779</name></trkpt>
<trkpt lat="52.956333" lon="-3.119152"><ele>353</ele><time>2019-09-27T14:02:40Z</time><name>PT12780</name></trkpt>
<trkpt lat="52.956330" lon="-3.119136"><ele>353</ele><time>2019-09-27T14:02:41Z</time><name>PT12781</name></trkpt>
<trkpt lat="52.956328" lon="-3.119122"><ele>353</ele><time>2019-09-27T14:02:42Z</time><name>PT12782</name></trkpt>
<trkpt lat="52.956327" lon="-3.119112"><ele>353</ele><time>2019-09-27T14:02:42Z</time><name>PT12783</name></trkpt>
<trkpt lat="52.956324" lon="-3.119092"><ele>353</ele><time>2019-09-27T14:02:44Z</time><name>PT12784</name></trkpt>
<trkpt lat="52.956323" lon="-3.119082"><ele>356</ele><time>2019-09-27T14:02:45Z</time><name>PT12785</name></trkpt>
<trkpt lat="52.956318" lon="-3.119067"><ele>356</ele><time>2019-09-27T14:02:45Z</time><name>PT12786</name></trkpt>
<trkpt lat="52.956315" lon="-3.119050"><ele>356</ele><time>2019-09-27T14:02:47Z</time><name>PT12787</name></trkpt>
<trkpt lat="52.956314" lon="-3.119026"><ele>356</ele><time>2019-09-27T14:02:48Z</time><name>PT12788</name></trkpt>
<trkpt lat="52.956309" lon="-3.119009"><ele>357</ele><time>2019-09-27T14:02:48Z</time><name>PT12789</name></trkpt>
<trkpt lat="52.956306" lon="-3.118994"><ele>356</ele><time>2019-09-27T14:02:50Z</time><name>PT12790</name></trkpt>
<trkpt lat="52.956306" lon="-3.118975"><ele>356</ele><time>2019-09-27T14:02:51Z</time><name>PT12791</name></trkpt>
<trkpt lat="52.956305" lon="-3.118957"><ele>355</ele><time>2019-09-27T14:02:51Z</time><name>PT12792</name></trkpt>
<trkpt lat="52.956305" lon="-3.118938"><ele>355</ele><time>2019-09-27T14:02:53Z</time><name>PT12793</name></trkpt>
<trkpt lat="52.956303" lon="-3.118916"><ele>355</ele><time>2019-09-27T14:02:54Z</time><name>PT12794</name></trkpt>
<trkpt lat="52.956304" lon="-3.118895"><ele>355</ele><time>2019-09-27T14:02:54Z</time><name>PT12795</name></trkpt>
<trkpt lat="52.956303" lon="-3.118874"><ele>355</ele><time>2019-09-27T14:02:56Z</time><name>PT12796</name></trkpt>
<trkpt lat="52.956302" lon="-3.118853"><ele>354</ele><time>2019-09-27T14:02:57Z</time><name>PT12797</name></trkpt>
<trkpt lat="52.956301" lon="-3.118833"><ele>354</ele><time>2019-09-27T14:02:57Z</time><name>PT12798</name></trkpt>
<trkpt lat="52.956300" lon="-3.118816"><ele>354</ele><time>2019-09-27T14:02:59Z</time><name>PT12799</name></trkpt>
<trkpt lat="52.956298" lon="-3.118800"><ele>354</ele><time>2019-09-27T14:03:00Z</time><name>PT12800</name></trkpt>
<trkpt lat="52.956297" lon="-3.118772"><ele>353</ele><time>2019-09-27T14:03:00Z</time><name>PT12801</name></trkpt>
<trkpt lat="52.956295" lon="-3.118751"><ele>353</ele><time>2019-09-27T14:03:02Z</time><name>PT12802</name></trkpt>
<trkpt lat="52.956293" lon="-3.118730"><ele>353</ele><time>2019-09-27T14:03:03Z</time><name>PT12803</name></trkpt>
<trkpt lat="52.956293" lon="-3.118708"><ele>353</ele><time>2019-09-27T14:03:03Z</time><name>PT12804</name></trkpt>
<trkpt lat="52.956294" lon="-3.118696"><ele>352</ele><time>2019-09-27T14:03:05Z</time><name>PT12805</name></trkpt>
<trkpt lat="52.956292" lon="-3.118670"><ele>352</ele><time>2019-09-27T14:03:06Z</time><name>PT12806</name></trkpt>
<trkpt lat="52.956291" lon="-3.118648"><ele>352</ele><time>2019-09-27T14:03:06Z</time><name>PT12807</name></trkpt>
<trkpt lat="52.956289" lon="-3.118631"><ele>352</ele><time>2019-09-27T14:03:08Z</time><name>PT12808</name></trkpt>
<trkpt lat="52.956289" lon="-3.118612"><ele>352</ele><time>2019-09-27T14:03:09Z</time><name>PT12809</name></trkpt>
<trkpt lat="52.956289" lon="-3.118589"><ele>351</ele><time>2019-09-27T14:03:10Z</time><name>PT12810</name></trkpt>
<trkpt lat="52.956288" lon="-3.118562"><ele>352</ele><time>2019-09-27T14:03:11Z</time><name>PT12811</name></trkpt>
<trkpt lat="52.956285" lon="-3.118543"><ele>352</ele><time>2019-09-27T14:03:12Z</time><name>PT12812</name></trkpt>
<trkpt lat="52.956283" lon="-3.118523"><ele>352</ele><time>2019-09-27T14:03:13Z</time><name>PT12813</name></trkpt>
<trkpt lat="52.956280" lon="-3.118507"><ele>352</ele><time>2019-09-27T14:03:14Z</time><name>PT12814</name></trkpt>
<trkpt lat="52.956279" lon="-3.118486"><ele>352</ele><time>2019-09-27T14:03:15Z</time><name>PT12815</name></trkpt>
<trkpt lat="52.956279" lon="-3.118468"><ele>352</ele><time>2019-09-27T14:03:16Z</time><name>PT12816</name></trkpt>
<trkpt lat="52.956277" lon="-3.118450"><ele>353</ele><time>2019-09-27T14:03:17Z</time><name>PT12817</name></trkpt>
<trkpt lat="52.956276" lon="-3.118437"><ele>353</ele><time>2019-09-27T14:03:18Z</time><name>PT12818</name></trkpt>
<trkpt lat="52.956276" lon="-3.118421"><ele>353</ele><time>2019-09-27T14:03:19Z</time><name>PT12819</name></trkpt>
<trkpt lat="52.956276" lon="-3.118404"><ele>353</ele><time>2019-09-27T14:03:20Z</time><name>PT12820</name></trkpt>
<trkpt lat="52.956277" lon="-3.118382"><ele>353</ele><time>2019-09-27T14:03:21Z</time><name>PT12821</name></trkpt>
<trkpt lat="52.956277" lon="-3.118364"><ele>353</ele><time>2019-09-27T14:03:21Z</time><name>PT12822</name></trkpt>
<trkpt lat="52.956275" lon="-3.118345"><ele>353</ele><time>2019-09-27T14:03:23Z</time><name>PT12823</name></trkpt>
<trkpt lat="52.956275" lon="-3.118327"><ele>353</ele><time>2019-09-27T14:03:24Z</time><name>PT12824</name></trkpt>
<trkpt lat="52.956275" lon="-3.118308"><ele>353</ele><time>2019-09-27T14:03:24Z</time><name>PT12825</name></trkpt>
<trkpt lat="52.956274" lon="-3.118292"><ele>352</ele><time>2019-09-27T14:03:26Z</time><name>PT12826</name></trkpt>
<trkpt lat="52.956273" lon="-3.118272"><ele>352</ele><time>2019-09-27T14:03:27Z</time><name>PT12827</name></trkpt>
<trkpt lat="52.956273" lon="-3.118252"><ele>352</ele><time>2019-09-27T14:03:27Z</time><name>PT12828</name></trkpt>
<trkpt lat="52.956272" lon="-3.118237"><ele>352</ele><time>2019-09-27T14:03:29Z</time><name>PT12829</name></trkpt>
<trkpt lat="52.956272" lon="-3.118214"><ele>352</ele><time>2019-09-27T14:03:30Z</time><name>PT12830</name></trkpt>
<trkpt lat="52.956272" lon="-3.118196"><ele>352</ele><time>2019-09-27T14:03:30Z</time><name>PT12831</name></trkpt>
<trkpt lat="52.956271" lon="-3.118180"><ele>352</ele><time>2019-09-27T14:03:32Z</time><name>PT12832</name></trkpt>
<trkpt lat="52.956269" lon="-3.118164"><ele>352</ele><time>2019-09-27T14:03:33Z</time><name>PT12833</name></trkpt>
<trkpt lat="52.956267" lon="-3.118143"><ele>353</ele><time>2019-09-27T14:03:33Z</time><name>PT12834</name></trkpt>
<trkpt lat="52.956264" lon="-3.118124"><ele>353</ele><time>2019-09-27T14:03:35Z</time><name>PT12835</name></trkpt>
<trkpt lat="52.956263" lon="-3.118108"><ele>353</ele><time>2019-09-27T14:03:36Z</time><name>PT12836</name></trkpt>
<trkpt lat="52.956262" lon="-3.118090"><ele>353</ele><time>2019-09-27T14:03:36Z</time><name>PT12837</name></trkpt>
<trkpt lat="52.956261" lon="-3.118071"><ele>353</ele><time>2019-09-27T14:03:38Z</time><name>PT12838</name></trkpt>
<trkpt lat="52.956258" lon="-3.118051"><ele>353</ele><time>2019-09-27T14:03:39Z</time><name>PT12839</name></trkpt>
<trkpt lat="52.956258" lon="-3.118035"><ele>353</ele><time>2019-09-27T14:03:39Z</time><name>PT12840</name></trkpt>
<trkpt lat="52.956257" lon="-3.118019"><ele>353</ele><time>2019-09-27T14:03:41Z</time><name>PT12841</name></trkpt>
<trkpt lat="52.956256" lon="-3.118000"><ele>353</ele><time>2019-09-27T14:03:42Z</time><name>PT12842</name></trkpt>
<trkpt lat="52.956253" lon="-3.117980"><ele>353</ele><time>2019-09-27T14:03:42Z</time><name>PT12843</name></trkpt>
<trkpt lat="52.956252" lon="-3.117967"><ele>353</ele><time>2019-09-27T14:03:44Z</time><name>PT12844</name></trkpt>
<trkpt lat="52.956250" lon="-3.117951"><ele>353</ele><time>2019-09-27T14:03:45Z</time><name>PT12845</name></trkpt>
<trkpt lat="52.956250" lon="-3.117932"><ele>352</ele><time>2019-09-27T14:03:45Z</time><name>PT12846</name></trkpt>
<trkpt lat="52.956249" lon="-3.117909"><ele>352</ele><time>2019-09-27T14:03:47Z</time><name>PT12847</name></trkpt>
<trkpt lat="52.956249" lon="-3.117889"><ele>353</ele><time>2019-09-27T14:03:48Z</time><name>PT12848</name></trkpt>
<trkpt lat="52.956248" lon="-3.117875"><ele>352</ele><time>2019-09-27T14:03:48Z</time><name>PT12849</name></trkpt>
<trkpt lat="52.956247" lon="-3.117856"><ele>353</ele><time>2019-09-27T14:03:50Z</time><name>PT12850</name></trkpt>
<trkpt lat="52.956247" lon="-3.117842"><ele>353</ele><time>2019-09-27T14:03:51Z</time><name>PT12851</name></trkpt>
<trkpt lat="52.956246" lon="-3.117826"><ele>353</ele><time>2019-09-27T14:03:51Z</time><name>PT12852</name></trkpt>
<trkpt lat="52.956243" lon="-3.117808"><ele>354</ele><time>2019-09-27T14:03:53Z</time><name>PT12853</name></trkpt>
<trkpt lat="52.956243" lon="-3.117792"><ele>354</ele><time>2019-09-27T14:03:54Z</time><name>PT12854</name></trkpt>
<trkpt lat="52.956241" lon="-3.117768"><ele>354</ele><time>2019-09-27T14:03:54Z</time><name>PT12855</name></trkpt>
<trkpt lat="52.956239" lon="-3.117749"><ele>354</ele><time>2019-09-27T14:03:56Z</time><name>PT12856</name></trkpt>
<trkpt lat="52.956238" lon="-3.117731"><ele>354</ele><time>2019-09-27T14:03:57Z</time><name>PT12857</name></trkpt>
<trkpt lat="52.956235" lon="-3.117706"><ele>354</ele><time>2019-09-27T14:03:57Z</time><name>PT12858</name></trkpt>
<trkpt lat="52.956232" lon="-3.117690"><ele>354</ele><time>2019-09-27T14:03:59Z</time><name>PT12859</name></trkpt>
<trkpt lat="52.956228" lon="-3.117671"><ele>354</ele><time>2019-09-27T14:04:00Z</time><name>PT12860</name></trkpt>
<trkpt lat="52.956226" lon="-3.117656"><ele>354</ele><time>2019-09-27T14:04:00Z</time><name>PT12861</name></trkpt>
<trkpt lat="52.956223" lon="-3.117639"><ele>353</ele><time>2019-09-27T14:04:02Z</time><name>PT12862</name></trkpt>
<trkpt lat="52.956220" lon="-3.117617"><ele>354</ele><time>2019-09-27T14:04:03Z</time><name>PT12863</name></trkpt>
<trkpt lat="52.956216" lon="-3.117598"><ele>353</ele><time>2019-09-27T14:04:03Z</time><name>PT12864</name></trkpt>
<trkpt lat="52.956213" lon="-3.117578"><ele>354</ele><time>2019-09-27T14:04:05Z</time><name>PT12865</name></trkpt>
<trkpt lat="52.956212" lon="-3.117566"><ele>354</ele><time>2019-09-27T14:04:06Z</time><name>PT12866</name></trkpt>
<trkpt lat="52.956212" lon="-3.117551"><ele>354</ele><time>2019-09-27T14:04:06Z</time><name>PT12867</name></trkpt>
<trkpt lat="52.956210" lon="-3.117535"><ele>353</ele><time>2019-09-27T14:04:08Z</time><name>PT12868</name></trkpt>
<trkpt lat="52.956209" lon="-3.117517"><ele>353</ele><time>2019-09-27T14:04:09Z</time><name>PT12869</name></trkpt>
<trkpt lat="52.956207" lon="-3.117500"><ele>353</ele><time>2019-09-27T14:04:09Z</time><name>PT12870</name></trkpt>
<trkpt lat="52.956206" lon="-3.117484"><ele>353</ele><time>2019-09-27T14:04:11Z</time><name>PT12871</name></trkpt>
<trkpt lat="52.956207" lon="-3.117466"><ele>353</ele><time>2019-09-27T14:04:12Z</time><name>PT12872</name></trkpt>
<trkpt lat="52.956210" lon="-3.117449"><ele>353</ele><time>2019-09-27T14:04:12Z</time><name>PT12873</name></trkpt>
<trkpt lat="52.956209" lon="-3.117429"><ele>353</ele><time>2019-09-27T14:04:14Z</time><name>PT12874</name></trkpt>
<trkpt lat="52.956209" lon="-3.117413"><ele>354</ele><time>2019-09-27T14:04:15Z</time><name>PT12875</name></trkpt>
<trkpt lat="52.956208" lon="-3.117396"><ele>354</ele><time>2019-09-27T14:04:15Z</time><name>PT12876</name></trkpt>
<trkpt lat="52.956207" lon="-3.117377"><ele>354</ele><time>2019-09-27T14:04:17Z</time><name>PT12877</name></trkpt>
<trkpt lat="52.956204" lon="-3.117355"><ele>354</ele><time>2019-09-27T14:04:18Z</time><name>PT12878</name></trkpt>
<trkpt lat="52.956201" lon="-3.117337"><ele>354</ele><time>2019-09-27T14:04:18Z</time><name>PT12879</name></trkpt>
<trkpt lat="52.956199" lon="-3.117321"><ele>354</ele><time>2019-09-27T14:04:20Z</time><name>PT12880</name></trkpt>
<trkpt lat="52.956197" lon="-3.117303"><ele>354</ele><time>2019-09-27T14:04:21Z</time><name>PT12881</name></trkpt>
<trkpt lat="52.956197" lon="-3.117286"><ele>354</ele><time>2019-09-27T14:04:21Z</time><name>PT12882</name></trkpt>
<trkpt lat="52.956195" lon="-3.117268"><ele>354</ele><time>2019-09-27T14:04:23Z</time><name>PT12883</name></trkpt>
<trkpt lat="52.956194" lon="-3.117250"><ele>354</ele><time>2019-09-27T14:04:24Z</time><name>PT12884</name></trkpt>
<trkpt lat="52.956192" lon="-3.117232"><ele>355</ele><time>2019-09-27T14:04:24Z</time><name>PT12885</name></trkpt>
<trkpt lat="52.956191" lon="-3.117214"><ele>355</ele><time>2019-09-27T14:04:26Z</time><name>PT12886</name></trkpt>
<trkpt lat="52.956192" lon="-3.117199"><ele>355</ele><time>2019-09-27T14:04:27Z</time><name>PT12887</name></trkpt>
<trkpt lat="52.956192" lon="-3.117180"><ele>356</ele><time>2019-09-27T14:04:27Z</time><name>PT12888</name></trkpt>
<trkpt lat="52.956191" lon="-3.117162"><ele>356</ele><time>2019-09-27T14:04:29Z</time><name>PT12889</name></trkpt>
<trkpt lat="52.956186" lon="-3.117141"><ele>356</ele><time>2019-09-27T14:04:30Z</time><name>PT12890</name></trkpt>
<trkpt lat="52.956184" lon="-3.117129"><ele>356</ele><time>2019-09-27T14:04:30Z</time><name>PT12891</name></trkpt>
<trkpt lat="52.956182" lon="-3.117114"><ele>356</ele><time>2019-09-27T14:04:32Z</time><name>PT12892</name></trkpt>
<trkpt lat="52.956180" lon="-3.117103"><ele>356</ele><time>2019-09-27T14:04:33Z</time><name>PT12893</name></trkpt>
<trkpt lat="52.956181" lon="-3.117096"><ele>356</ele><time>2019-09-27T14:04:35Z</time><name>PT12894</name></trkpt>
<trkpt lat="52.956180" lon="-3.117071"><ele>355</ele><time>2019-09-27T14:04:36Z</time><name>PT12895</name></trkpt>
<trkpt lat="52.956182" lon="-3.117049"><ele>355</ele><time>2019-09-27T14:04:36Z</time><name>PT12896</name></trkpt>
<trkpt lat="52.956179" lon="-3.117023"><ele>355</ele><time>2019-09-27T14:04:38Z</time><name>PT12897</name></trkpt>
<trkpt lat="52.956176" lon="-3.117003"><ele>355</ele><time>2019-09-27T14:04:39Z</time><name>PT12898</name></trkpt>
<trkpt lat="52.956174" lon="-3.116982"><ele>355</ele><time>2019-09-27T14:04:39Z</time><name>PT12899</name></trkpt>
<trkpt lat="52.956173" lon="-3.116959"><ele>355</ele><time>2019-09-27T14:04:41Z</time><name>PT12900</name></trkpt>
<trkpt lat="52.956170" lon="-3.116937"><ele>355</ele><time>2019-09-27T14:04:42Z</time><name>PT12901</name></trkpt>
<trkpt lat="52.956169" lon="-3.116917"><ele>355</ele><time>2019-09-27T14:04:43Z</time><name>PT12902</name></trkpt>
<trkpt lat="52.956167" lon="-3.116903"><ele>355</ele><time>2019-09-27T14:04:44Z</time><name>PT12903</name></trkpt>
<trkpt lat="52.956166" lon="-3.116886"><ele>355</ele><time>2019-09-27T14:04:45Z</time><name>PT12904</name></trkpt>
<trkpt lat="52.956164" lon="-3.116865"><ele>355</ele><time>2019-09-27T14:04:45Z</time><name>PT12905</name></trkpt>
<trkpt lat="52.956160" lon="-3.116845"><ele>355</ele><time>2019-09-27T14:04:47Z</time><name>PT12906</name></trkpt>
<trkpt lat="52.956159" lon="-3.116825"><ele>355</ele><time>2019-09-27T14:04:48Z</time><name>PT12907</name></trkpt>
<trkpt lat="52.956156" lon="-3.116808"><ele>355</ele><time>2019-09-27T14:04:48Z</time><name>PT12908</name></trkpt>
<trkpt lat="52.956155" lon="-3.116789"><ele>355</ele><time>2019-09-27T14:04:50Z</time><name>PT12909</name></trkpt>
<trkpt lat="52.956153" lon="-3.116764"><ele>355</ele><time>2019-09-27T14:04:51Z</time><name>PT12910</name></trkpt>
<trkpt lat="52.956150" lon="-3.116738"><ele>356</ele><time>2019-09-27T14:04:52Z</time><name>PT12911</name></trkpt>
<trkpt lat="52.956147" lon="-3.116720"><ele>355</ele><time>2019-09-27T14:04:53Z</time><name>PT12912</name></trkpt>
<trkpt lat="52.956145" lon="-3.116703"><ele>356</ele><time>2019-09-27T14:04:54Z</time><name>PT12913</name></trkpt>
<trkpt lat="52.956143" lon="-3.116681"><ele>356</ele><time>2019-09-27T14:04:54Z</time><name>PT12914</name></trkpt>
<trkpt lat="52.956141" lon="-3.116662"><ele>357</ele><time>2019-09-27T14:04:56Z</time><name>PT12915</name></trkpt>
<trkpt lat="52.956140" lon="-3.116641"><ele>357</ele><time>2019-09-27T14:04:57Z</time><name>PT12916</name></trkpt>
<trkpt lat="52.956138" lon="-3.116620"><ele>357</ele><time>2019-09-27T14:04:57Z</time><name>PT12917</name></trkpt>
<trkpt lat="52.956136" lon="-3.116604"><ele>357</ele><time>2019-09-27T14:04:59Z</time><name>PT12918</name></trkpt>
<trkpt lat="52.956135" lon="-3.116585"><ele>357</ele><time>2019-09-27T14:05:00Z</time><name>PT12919</name></trkpt>
<trkpt lat="52.956134" lon="-3.116567"><ele>358</ele><time>2019-09-27T14:05:00Z</time><name>PT12920</name></trkpt>
<trkpt lat="52.956132" lon="-3.116546"><ele>358</ele><time>2019-09-27T14:05:02Z</time><name>PT12921</name></trkpt>
<trkpt lat="52.956130" lon="-3.116527"><ele>358</ele><time>2019-09-27T14:05:03Z</time><name>PT12922</name></trkpt>
<trkpt lat="52.956130" lon="-3.116509"><ele>358</ele><time>2019-09-27T14:05:03Z</time><name>PT12923</name></trkpt>
<trkpt lat="52.956129" lon="-3.116490"><ele>358</ele><time>2019-09-27T14:05:05Z</time><name>PT12924</name></trkpt>
<trkpt lat="52.956128" lon="-3.116475"><ele>358</ele><time>2019-09-27T14:05:06Z</time><name>PT12925</name></trkpt>
<trkpt lat="52.956126" lon="-3.116453"><ele>359</ele><time>2019-09-27T14:05:06Z</time><name>PT12926</name></trkpt>
<trkpt lat="52.956125" lon="-3.116435"><ele>359</ele><time>2019-09-27T14:05:08Z</time><name>PT12927</name></trkpt>
<trkpt lat="52.956123" lon="-3.116419"><ele>359</ele><time>2019-09-27T14:05:09Z</time><name>PT12928</name></trkpt>
<trkpt lat="52.956123" lon="-3.116397"><ele>359</ele><time>2019-09-27T14:05:09Z</time><name>PT12929</name></trkpt>
<trkpt lat="52.956120" lon="-3.116377"><ele>359</ele><time>2019-09-27T14:05:11Z</time><name>PT12930</name></trkpt>
<trkpt lat="52.956120" lon="-3.116359"><ele>359</ele><time>2019-09-27T14:05:12Z</time><name>PT12931</name></trkpt>
<trkpt lat="52.956118" lon="-3.116338"><ele>359</ele><time>2019-09-27T14:05:12Z</time><name>PT12932</name></trkpt>
<trkpt lat="52.956117" lon="-3.116319"><ele>360</ele><time>2019-09-27T14:05:14Z</time><name>PT12933</name></trkpt>
<trkpt lat="52.956115" lon="-3.116303"><ele>360</ele><time>2019-09-27T14:05:15Z</time><name>PT12934</name></trkpt>
<trkpt lat="52.956113" lon="-3.116284"><ele>360</ele><time>2019-09-27T14:05:15Z</time><name>PT12935</name></trkpt>
<trkpt lat="52.956111" lon="-3.116267"><ele>360</ele><time>2019-09-27T14:05:17Z</time><name>PT12936</name></trkpt>
<trkpt lat="52.956110" lon="-3.116259"><ele>360</ele><time>2019-09-27T14:05:18Z</time><name>PT12937</name></trkpt>
<trkpt lat="52.956108" lon="-3.116253"><ele>360</ele><time>2019-09-27T14:05:19Z</time><name>PT12938</name></trkpt>
<trkpt lat="52.956108" lon="-3.116249"><ele>359</ele><time>2019-09-27T14:05:20Z</time><name>PT12939</name></trkpt>
<trkpt lat="52.956107" lon="-3.116245"><ele>359</ele><time>2019-09-27T14:05:21Z</time><name>PT12940</name></trkpt>
<trkpt lat="52.956106" lon="-3.116239"><ele>359</ele><time>2019-09-27T14:05:21Z</time><name>PT12941</name></trkpt>
<trkpt lat="52.956106" lon="-3.116237"><ele>360</ele><time>2019-09-27T14:05:23Z</time><name>PT12942</name></trkpt>
<trkpt lat="52.956109" lon="-3.116232"><ele>360</ele><time>2019-09-27T14:05:41Z</time><name>PT12943</name></trkpt>
<trkpt lat="52.956107" lon="-3.116226"><ele>360</ele><time>2019-09-27T14:05:42Z</time><name>PT12944</name></trkpt>
<trkpt lat="52.956105" lon="-3.116213"><ele>360</ele><time>2019-09-27T14:05:42Z</time><name>PT12945</name></trkpt>
<trkpt lat="52.956102" lon="-3.116203"><ele>360</ele><time>2019-09-27T14:05:44Z</time><name>PT12946</name></trkpt>
<trkpt lat="52.956102" lon="-3.116187"><ele>361</ele><time>2019-09-27T14:05:45Z</time><name>PT12947</name></trkpt>
<trkpt lat="52.956101" lon="-3.116175"><ele>361</ele><time>2019-09-27T14:05:45Z</time><name>PT12948</name></trkpt>
<trkpt lat="52.956098" lon="-3.116158"><ele>361</ele><time>2019-09-27T14:05:47Z</time><name>PT12949</name></trkpt>
<trkpt lat="52.956098" lon="-3.116139"><ele>361</ele><time>2019-09-27T14:05:48Z</time><name>PT12950</name></trkpt>
<trkpt lat="52.956098" lon="-3.116124"><ele>361</ele><time>2019-09-27T14:05:48Z</time><name>PT12951</name></trkpt>
<trkpt lat="52.956098" lon="-3.116105"><ele>361</ele><time>2019-09-27T14:05:50Z</time><name>PT12952</name></trkpt>
<trkpt lat="52.956099" lon="-3.116086"><ele>361</ele><time>2019-09-27T14:05:51Z</time><name>PT12953</name></trkpt>
<trkpt lat="52.956098" lon="-3.116070"><ele>361</ele><time>2019-09-27T14:05:51Z</time><name>PT12954</name></trkpt>
<trkpt lat="52.956096" lon="-3.116058"><ele>360</ele><time>2019-09-27T14:05:53Z</time><name>PT12955</name></trkpt>
<trkpt lat="52.956095" lon="-3.116044"><ele>360</ele><time>2019-09-27T14:05:54Z</time><name>PT12956</name></trkpt>
<trkpt lat="52.956094" lon="-3.116030"><ele>361</ele><time>2019-09-27T14:05:54Z</time><name>PT12957</name></trkpt>
<trkpt lat="52.956094" lon="-3.116019"><ele>360</ele><time>2019-09-27T14:05:56Z</time><name>PT12958</name></trkpt>
<trkpt lat="52.956092" lon="-3.116002"><ele>360</ele><time>2019-09-27T14:05:57Z</time><name>PT12959</name></trkpt>
<trkpt lat="52.956090" lon="-3.115987"><ele>360</ele><time>2019-09-27T14:05:57Z</time><name>PT12960</name></trkpt>
<trkpt lat="52.956090" lon="-3.115966"><ele>360</ele><time>2019-09-27T14:05:59Z</time><name>PT12961</name></trkpt>
<trkpt lat="52.956089" lon="-3.115948"><ele>361</ele><time>2019-09-27T14:06:00Z</time><name>PT12962</name></trkpt>
<trkpt lat="52.956087" lon="-3.115931"><ele>361</ele><time>2019-09-27T14:06:00Z</time><name>PT12963</name></trkpt>
<trkpt lat="52.956086" lon="-3.115915"><ele>361</ele><time>2019-09-27T14:06:02Z</time><name>PT12964</name></trkpt>
<trkpt lat="52.956087" lon="-3.115902"><ele>361</ele><time>2019-09-27T14:06:03Z</time><name>PT12965</name></trkpt>
<trkpt lat="52.956086" lon="-3.115887"><ele>361</ele><time>2019-09-27T14:06:03Z</time><name>PT12966</name></trkpt>
<trkpt lat="52.956086" lon="-3.115871"><ele>361</ele><time>2019-09-27T14:06:05Z</time><name>PT12967</name></trkpt>
<trkpt lat="52.956084" lon="-3.115853"><ele>361</ele><time>2019-09-27T14:06:06Z</time><name>PT12968</name></trkpt>
<trkpt lat="52.956082" lon="-3.115838"><ele>361</ele><time>2019-09-27T14:06:06Z</time><name>PT12969</name></trkpt>
<trkpt lat="52.956082" lon="-3.115823"><ele>361</ele><time>2019-09-27T14:06:08Z</time><name>PT12970</name></trkpt>
<trkpt lat="52.956080" lon="-3.115808"><ele>361</ele><time>2019-09-27T14:06:09Z</time><name>PT12971</name></trkpt>
<trkpt lat="52.956080" lon="-3.115792"><ele>361</ele><time>2019-09-27T14:06:09Z</time><name>PT12972</name></trkpt>
<trkpt lat="52.956081" lon="-3.115777"><ele>361</ele><time>2019-09-27T14:06:11Z</time><name>PT12973</name></trkpt>
<trkpt lat="52.956080" lon="-3.115760"><ele>361</ele><time>2019-09-27T14:06:12Z</time><name>PT12974</name></trkpt>
<trkpt lat="52.956080" lon="-3.115745"><ele>360</ele><time>2019-09-27T14:06:12Z</time><name>PT12975</name></trkpt>
<trkpt lat="52.956079" lon="-3.115725"><ele>360</ele><time>2019-09-27T14:06:14Z</time><name>PT12976</name></trkpt>
<trkpt lat="52.956079" lon="-3.115709"><ele>361</ele><time>2019-09-27T14:06:15Z</time><name>PT12977</name></trkpt>
<trkpt lat="52.956076" lon="-3.115692"><ele>361</ele><time>2019-09-27T14:06:16Z</time><name>PT12978</name></trkpt>
<trkpt lat="52.956074" lon="-3.115681"><ele>362</ele><time>2019-09-27T14:06:17Z</time><name>PT12979</name></trkpt>
<trkpt lat="52.956073" lon="-3.115667"><ele>362</ele><time>2019-09-27T14:06:18Z</time><name>PT12980</name></trkpt>
<trkpt lat="52.956072" lon="-3.115651"><ele>362</ele><time>2019-09-27T14:06:19Z</time><name>PT12981</name></trkpt>
<trkpt lat="52.956069" lon="-3.115635"><ele>362</ele><time>2019-09-27T14:06:20Z</time><name>PT12982</name></trkpt>
<trkpt lat="52.956067" lon="-3.115618"><ele>362</ele><time>2019-09-27T14:06:21Z</time><name>PT12983</name></trkpt>
<trkpt lat="52.956063" lon="-3.115599"><ele>362</ele><time>2019-09-27T14:06:22Z</time><name>PT12984</name></trkpt>
<trkpt lat="52.956062" lon="-3.115581"><ele>362</ele><time>2019-09-27T14:06:23Z</time><name>PT12985</name></trkpt>
<trkpt lat="52.956061" lon="-3.115565"><ele>362</ele><time>2019-09-27T14:06:24Z</time><name>PT12986</name></trkpt>
<trkpt lat="52.956060" lon="-3.115543"><ele>362</ele><time>2019-09-27T14:06:25Z</time><name>PT12987</name></trkpt>
<trkpt lat="52.956059" lon="-3.115525"><ele>362</ele><time>2019-09-27T14:06:26Z</time><name>PT12988</name></trkpt>
<trkpt lat="52.956056" lon="-3.115504"><ele>363</ele><time>2019-09-27T14:06:27Z</time><name>PT12989</name></trkpt>
<trkpt lat="52.956056" lon="-3.115489"><ele>363</ele><time>2019-09-27T14:06:28Z</time><name>PT12990</name></trkpt>
<trkpt lat="52.956055" lon="-3.115477"><ele>362</ele><time>2019-09-27T14:06:29Z</time><name>PT12991</name></trkpt>
<trkpt lat="52.956052" lon="-3.115458"><ele>362</ele><time>2019-09-27T14:06:30Z</time><name>PT12992</name></trkpt>
<trkpt lat="52.956051" lon="-3.115439"><ele>362</ele><time>2019-09-27T14:06:31Z</time><name>PT12993</name></trkpt>
<trkpt lat="52.956049" lon="-3.115419"><ele>362</ele><time>2019-09-27T14:06:32Z</time><name>PT12994</name></trkpt>
<trkpt lat="52.956049" lon="-3.115401"><ele>362</ele><time>2019-09-27T14:06:33Z</time><name>PT12995</name></trkpt>
<trkpt lat="52.956048" lon="-3.115388"><ele>362</ele><time>2019-09-27T14:06:34Z</time><name>PT12996</name></trkpt>
<trkpt lat="52.956047" lon="-3.115373"><ele>362</ele><time>2019-09-27T14:06:35Z</time><name>PT12997</name></trkpt>
<trkpt lat="52.956047" lon="-3.115357"><ele>363</ele><time>2019-09-27T14:06:36Z</time><name>PT12998</name></trkpt>
<trkpt lat="52.956045" lon="-3.115337"><ele>363</ele><time>2019-09-27T14:06:37Z</time><name>PT12999</name></trkpt>
<trkpt lat="52.956041" lon="-3.115319"><ele>363</ele><time>2019-09-27T14:06:38Z</time><name>PT13000</name></trkpt>
<trkpt lat="52.956038" lon="-3.115303"><ele>363</ele><time>2019-09-27T14:06:39Z</time><name>PT13001</name></trkpt>
<trkpt lat="52.956036" lon="-3.115287"><ele>363</ele><time>2019-09-27T14:06:39Z</time><name>PT13002</name></trkpt>
<trkpt lat="52.956033" lon="-3.115267"><ele>363</ele><time>2019-09-27T14:06:41Z</time><name>PT13003</name></trkpt>
<trkpt lat="52.956032" lon="-3.115250"><ele>363</ele><time>2019-09-27T14:06:42Z</time><name>PT13004</name></trkpt>
<trkpt lat="52.956028" lon="-3.115234"><ele>363</ele><time>2019-09-27T14:06:42Z</time><name>PT13005</name></trkpt>
<trkpt lat="52.956026" lon="-3.115217"><ele>363</ele><time>2019-09-27T14:06:44Z</time><name>PT13006</name></trkpt>
<trkpt lat="52.956023" lon="-3.115199"><ele>363</ele><time>2019-09-27T14:06:45Z</time><name>PT13007</name></trkpt>
<trkpt lat="52.956021" lon="-3.115180"><ele>363</ele><time>2019-09-27T14:06:45Z</time><name>PT13008</name></trkpt>
<trkpt lat="52.956019" lon="-3.115161"><ele>363</ele><time>2019-09-27T14:06:47Z</time><name>PT13009</name></trkpt>
<trkpt lat="52.956016" lon="-3.115144"><ele>363</ele><time>2019-09-27T14:06:48Z</time><name>PT13010</name></trkpt>
<trkpt lat="52.956013" lon="-3.115128"><ele>363</ele><time>2019-09-27T14:06:48Z</time><name>PT13011</name></trkpt>
<trkpt lat="52.956011" lon="-3.115109"><ele>363</ele><time>2019-09-27T14:06:50Z</time><name>PT13012</name></trkpt>
<trkpt lat="52.956009" lon="-3.115090"><ele>364</ele><time>2019-09-27T14:06:51Z</time><name>PT13013</name></trkpt>
<trkpt lat="52.956006" lon="-3.115073"><ele>364</ele><time>2019-09-27T14:06:51Z</time><name>PT13014</name></trkpt>
<trkpt lat="52.956001" lon="-3.115053"><ele>364</ele><time>2019-09-27T14:06:53Z</time><name>PT13015</name></trkpt>
<trkpt lat="52.955998" lon="-3.115032"><ele>364</ele><time>2019-09-27T14:06:54Z</time><name>PT13016</name></trkpt>
<trkpt lat="52.955996" lon="-3.115013"><ele>365</ele><time>2019-09-27T14:06:54Z</time><name>PT13017</name></trkpt>
<trkpt lat="52.955993" lon="-3.114995"><ele>365</ele><time>2019-09-27T14:06:56Z</time><name>PT13018</name></trkpt>
<trkpt lat="52.955992" lon="-3.114977"><ele>365</ele><time>2019-09-27T14:06:57Z</time><name>PT13019</name></trkpt>
<trkpt lat="52.955989" lon="-3.114956"><ele>366</ele><time>2019-09-27T14:06:57Z</time><name>PT13020</name></trkpt>
<trkpt lat="52.955986" lon="-3.114934"><ele>366</ele><time>2019-09-27T14:06:59Z</time><name>PT13021</name></trkpt>
<trkpt lat="52.955984" lon="-3.114917"><ele>366</ele><time>2019-09-27T14:07:00Z</time><name>PT13022</name></trkpt>
<trkpt lat="52.955982" lon="-3.114898"><ele>366</ele><time>2019-09-27T14:07:00Z</time><name>PT13023</name></trkpt>
<trkpt lat="52.955978" lon="-3.114881"><ele>366</ele><time>2019-09-27T14:07:02Z</time><name>PT13024</name></trkpt>
<trkpt lat="52.955975" lon="-3.114863"><ele>366</ele><time>2019-09-27T14:07:03Z</time><name>PT13025</name></trkpt>
<trkpt lat="52.955973" lon="-3.114844"><ele>366</ele><time>2019-09-27T14:07:03Z</time><name>PT13026</name></trkpt>
<trkpt lat="52.955970" lon="-3.114826"><ele>366</ele><time>2019-09-27T14:07:05Z</time><name>PT13027</name></trkpt>
<trkpt lat="52.955965" lon="-3.114803"><ele>366</ele><time>2019-09-27T14:07:06Z</time><name>PT13028</name></trkpt>
<trkpt lat="52.955961" lon="-3.114784"><ele>366</ele><time>2019-09-27T14:07:07Z</time><name>PT13029</name></trkpt>
<trkpt lat="52.955957" lon="-3.114766"><ele>367</ele><time>2019-09-27T14:07:08Z</time><name>PT13030</name></trkpt>
<trkpt lat="52.955953" lon="-3.114749"><ele>367</ele><time>2019-09-27T14:07:09Z</time><name>PT13031</name></trkpt>
<trkpt lat="52.955951" lon="-3.114731"><ele>367</ele><time>2019-09-27T14:07:10Z</time><name>PT13032</name></trkpt>
<trkpt lat="52.955947" lon="-3.114713"><ele>367</ele><time>2019-09-27T14:07:11Z</time><name>PT13033</name></trkpt>
<trkpt lat="52.955944" lon="-3.114698"><ele>367</ele><time>2019-09-27T14:07:12Z</time><name>PT13034</name></trkpt>
<trkpt lat="52.955940" lon="-3.114680"><ele>368</ele><time>2019-09-27T14:07:13Z</time><name>PT13035</name></trkpt>
<trkpt lat="52.955938" lon="-3.114664"><ele>368</ele><time>2019-09-27T14:07:14Z</time><name>PT13036</name></trkpt>
<trkpt lat="52.955934" lon="-3.114646"><ele>368</ele><time>2019-09-27T14:07:15Z</time><name>PT13037</name></trkpt>
<trkpt lat="52.955930" lon="-3.114632"><ele>368</ele><time>2019-09-27T14:07:16Z</time><name>PT13038</name></trkpt>
<trkpt lat="52.955926" lon="-3.114615"><ele>368</ele><time>2019-09-27T14:07:17Z</time><name>PT13039</name></trkpt>
<trkpt lat="52.955924" lon="-3.114598"><ele>368</ele><time>2019-09-27T14:07:18Z</time><name>PT13040</name></trkpt>
<trkpt lat="52.955922" lon="-3.114585"><ele>368</ele><time>2019-09-27T14:07:18Z</time><name>PT13041</name></trkpt>
<trkpt lat="52.955920" lon="-3.114575"><ele>368</ele><time>2019-09-27T14:07:20Z</time><name>PT13042</name></trkpt>
<trkpt lat="52.955918" lon="-3.114568"><ele>368</ele><time>2019-09-27T14:07:21Z</time><name>PT13043</name></trkpt>
<trkpt lat="52.955918" lon="-3.114566"><ele>368</ele><time>2019-09-27T14:07:22Z</time><name>PT13044</name></trkpt>
<trkpt lat="52.955917" lon="-3.114562"><ele>369</ele><time>2019-09-27T14:07:23Z</time><name>PT13045</name></trkpt>
<trkpt lat="52.955916" lon="-3.114560"><ele>369</ele><time>2019-09-27T14:07:24Z</time><name>PT13046</name></trkpt>
<trkpt lat="52.955917" lon="-3.114553"><ele>369</ele><time>2019-09-27T14:07:30Z</time><name>PT13047</name></trkpt>
<trkpt lat="52.955913" lon="-3.114540"><ele>369</ele><time>2019-09-27T14:07:30Z</time><name>PT13048</name></trkpt>
<trkpt lat="52.955909" lon="-3.114522"><ele>369</ele><time>2019-09-27T14:07:32Z</time><name>PT13049</name></trkpt>
<trkpt lat="52.955904" lon="-3.114505"><ele>369</ele><time>2019-09-27T14:07:33Z</time><name>PT13050</name></trkpt>
<trkpt lat="52.955900" lon="-3.114491"><ele>369</ele><time>2019-09-27T14:07:33Z</time><name>PT13051</name></trkpt>
<trkpt lat="52.955894" lon="-3.114478"><ele>369</ele><time>2019-09-27T14:07:35Z</time><name>PT13052</name></trkpt>
<trkpt lat="52.955892" lon="-3.114474"><ele>369</ele><time>2019-09-27T14:07:36Z</time><name>PT13053</name></trkpt>
<trkpt lat="52.955891" lon="-3.114471"><ele>369</ele><time>2019-09-27T14:07:37Z</time><name>PT13054</name></trkpt>
<trkpt lat="52.955890" lon="-3.114460"><ele>369</ele><time>2019-09-27T14:07:38Z</time><name>PT13055</name></trkpt>
<trkpt lat="52.955887" lon="-3.114447"><ele>369</ele><time>2019-09-27T14:07:39Z</time><name>PT13056</name></trkpt>
<trkpt lat="52.955883" lon="-3.114433"><ele>369</ele><time>2019-09-27T14:07:40Z</time><name>PT13057</name></trkpt>
<trkpt lat="52.955879" lon="-3.114419"><ele>369</ele><time>2019-09-27T14:07:41Z</time><name>PT13058</name></trkpt>
<trkpt lat="52.955876" lon="-3.114407"><ele>369</ele><time>2019-09-27T14:07:42Z</time><name>PT13059</name></trkpt>
<trkpt lat="52.955872" lon="-3.114393"><ele>369</ele><time>2019-09-27T14:07:43Z</time><name>PT13060</name></trkpt>
<trkpt lat="52.955867" lon="-3.114379"><ele>369</ele><time>2019-09-27T14:07:44Z</time><name>PT13061</name></trkpt>
<trkpt lat="52.955862" lon="-3.114365"><ele>369</ele><time>2019-09-27T14:07:45Z</time><name>PT13062</name></trkpt>
<trkpt lat="52.955858" lon="-3.114352"><ele>369</ele><time>2019-09-27T14:07:46Z</time><name>PT13063</name></trkpt>
<trkpt lat="52.955853" lon="-3.114337"><ele>369</ele><time>2019-09-27T14:07:47Z</time><name>PT13064</name></trkpt>
<trkpt lat="52.955848" lon="-3.114323"><ele>369</ele><time>2019-09-27T14:07:48Z</time><name>PT13065</name></trkpt>
<trkpt lat="52.955842" lon="-3.114307"><ele>369</ele><time>2019-09-27T14:07:49Z</time><name>PT13066</name></trkpt>
<trkpt lat="52.955836" lon="-3.114291"><ele>369</ele><time>2019-09-27T14:07:50Z</time><name>PT13067</name></trkpt>
<trkpt lat="52.955832" lon="-3.114276"><ele>369</ele><time>2019-09-27T14:07:51Z</time><name>PT13068</name></trkpt>
<trkpt lat="52.955827" lon="-3.114257"><ele>369</ele><time>2019-09-27T14:07:52Z</time><name>PT13069</name></trkpt>
<trkpt lat="52.955823" lon="-3.114245"><ele>370</ele><time>2019-09-27T14:07:53Z</time><name>PT13070</name></trkpt>
<trkpt lat="52.955818" lon="-3.114234"><ele>370</ele><time>2019-09-27T14:07:54Z</time><name>PT13071</name></trkpt>
<trkpt lat="52.955811" lon="-3.114223"><ele>370</ele><time>2019-09-27T14:07:55Z</time><name>PT13072</name></trkpt>
<trkpt lat="52.955804" lon="-3.114211"><ele>370</ele><time>2019-09-27T14:07:56Z</time><name>PT13073</name></trkpt>
<trkpt lat="52.955796" lon="-3.114202"><ele>369</ele><time>2019-09-27T14:07:57Z</time><name>PT13074</name></trkpt>
<trkpt lat="52.955789" lon="-3.114187"><ele>369</ele><time>2019-09-27T14:07:58Z</time><name>PT13075</name></trkpt>
<trkpt lat="52.955783" lon="-3.114174"><ele>369</ele><time>2019-09-27T14:07:59Z</time><name>PT13076</name></trkpt>
<trkpt lat="52.955778" lon="-3.114161"><ele>369</ele><time>2019-09-27T14:08:00Z</time><name>PT13077</name></trkpt>
<trkpt lat="52.955774" lon="-3.114146"><ele>369</ele><time>2019-09-27T14:08:00Z</time><name>PT13078</name></trkpt>
<trkpt lat="52.955767" lon="-3.114132"><ele>369</ele><time>2019-09-27T14:08:02Z</time><name>PT13079</name></trkpt>
<trkpt lat="52.955760" lon="-3.114121"><ele>369</ele><time>2019-09-27T14:08:03Z</time><name>PT13080</name></trkpt>
<trkpt lat="52.955752" lon="-3.114106"><ele>369</ele><time>2019-09-27T14:08:03Z</time><name>PT13081</name></trkpt>
<trkpt lat="52.955744" lon="-3.114087"><ele>369</ele><time>2019-09-27T14:08:05Z</time><name>PT13082</name></trkpt>
<trkpt lat="52.955737" lon="-3.114073"><ele>369</ele><time>2019-09-27T14:08:06Z</time><name>PT13083</name></trkpt>
<trkpt lat="52.955729" lon="-3.114064"><ele>369</ele><time>2019-09-27T14:08:06Z</time><name>PT13084</name></trkpt>
<trkpt lat="52.955721" lon="-3.114053"><ele>369</ele><time>2019-09-27T14:08:08Z</time><name>PT13085</name></trkpt>
<trkpt lat="52.955714" lon="-3.114047"><ele>369</ele><time>2019-09-27T14:08:09Z</time><name>PT13086</name></trkpt>
<trkpt lat="52.955706" lon="-3.114039"><ele>369</ele><time>2019-09-27T14:08:09Z</time><name>PT13087</name></trkpt>
<trkpt lat="52.955696" lon="-3.114025"><ele>369</ele><time>2019-09-27T14:08:11Z</time><name>PT13088</name></trkpt>
<trkpt lat="52.955686" lon="-3.114015"><ele>369</ele><time>2019-09-27T14:08:12Z</time><name>PT13089</name></trkpt>
<trkpt lat="52.955678" lon="-3.114001"><ele>369</ele><time>2019-09-27T14:08:12Z</time><name>PT13090</name></trkpt>
<trkpt lat="52.955671" lon="-3.113986"><ele>369</ele><time>2019-09-27T14:08:14Z</time><name>PT13091</name></trkpt>
<trkpt lat="52.955663" lon="-3.113970"><ele>369</ele><time>2019-09-27T14:08:15Z</time><name>PT13092</name></trkpt>
<trkpt lat="52.955654" lon="-3.113957"><ele>369</ele><time>2019-09-27T14:08:15Z</time><name>PT13093</name></trkpt>
<trkpt lat="52.955645" lon="-3.113948"><ele>369</ele><time>2019-09-27T14:08:17Z</time><name>PT13094</name></trkpt>
<trkpt lat="52.955637" lon="-3.113938"><ele>369</ele><time>2019-09-27T14:08:18Z</time><name>PT13095</name></trkpt>
<trkpt lat="52.955629" lon="-3.113925"><ele>369</ele><time>2019-09-27T14:08:18Z</time><name>PT13096</name></trkpt>
<trkpt lat="52.955622" lon="-3.113914"><ele>369</ele><time>2019-09-27T14:08:20Z</time><name>PT13097</name></trkpt>
<trkpt lat="52.955615" lon="-3.113901"><ele>369</ele><time>2019-09-27T14:08:21Z</time><name>PT13098</name></trkpt>
<trkpt lat="52.955607" lon="-3.113886"><ele>369</ele><time>2019-09-27T14:08:22Z</time><name>PT13099</name></trkpt>
<trkpt lat="52.955599" lon="-3.113876"><ele>369</ele><time>2019-09-27T14:08:23Z</time><name>PT13100</name></trkpt>
<trkpt lat="52.955590" lon="-3.113866"><ele>369</ele><time>2019-09-27T14:08:24Z</time><name>PT13101</name></trkpt>
<trkpt lat="52.955580" lon="-3.113852"><ele>369</ele><time>2019-09-27T14:08:25Z</time><name>PT13102</name></trkpt>
<trkpt lat="52.955573" lon="-3.113841"><ele>368</ele><time>2019-09-27T14:08:26Z</time><name>PT13103</name></trkpt>
<trkpt lat="52.955567" lon="-3.113826"><ele>369</ele><time>2019-09-27T14:08:27Z</time><name>PT13104</name></trkpt>
<trkpt lat="52.955559" lon="-3.113816"><ele>369</ele><time>2019-09-27T14:08:28Z</time><name>PT13105</name></trkpt>
<trkpt lat="52.955550" lon="-3.113814"><ele>368</ele><time>2019-09-27T14:08:29Z</time><name>PT13106</name></trkpt>
<trkpt lat="52.955543" lon="-3.113816"><ele>368</ele><time>2019-09-27T14:08:30Z</time><name>PT13107</name></trkpt>
<trkpt lat="52.955542" lon="-3.113817"><ele>368</ele><time>2019-09-27T14:08:30Z</time><name>PT13108</name></trkpt>
<trkpt lat="52.955543" lon="-3.113817"><ele>368</ele><time>2019-09-27T14:08:32Z</time><name>PT13109</name></trkpt>
<trkpt lat="52.955544" lon="-3.113813"><ele>369</ele><time>2019-09-27T14:08:33Z</time><name>PT13110</name></trkpt>
<trkpt lat="52.955540" lon="-3.113806"><ele>369</ele><time>2019-09-27T14:08:34Z</time><name>PT13111</name></trkpt>
<trkpt lat="52.955535" lon="-3.113799"><ele>369</ele><time>2019-09-27T14:08:35Z</time><name>PT13112</name></trkpt>
<trkpt lat="52.955530" lon="-3.113791"><ele>369</ele><time>2019-09-27T14:08:36Z</time><name>PT13113</name></trkpt>
<trkpt lat="52.955526" lon="-3.113785"><ele>369</ele><time>2019-09-27T14:08:37Z</time><name>PT13114</name></trkpt>
<trkpt lat="52.955522" lon="-3.113774"><ele>370</ele><time>2019-09-27T14:08:38Z</time><name>PT13115</name></trkpt>
<trkpt lat="52.955520" lon="-3.113771"><ele>370</ele><time>2019-09-27T14:08:39Z</time><name>PT13116</name></trkpt>
<trkpt lat="52.955520" lon="-3.113770"><ele>370</ele><time>2019-09-27T14:08:39Z</time><name>PT13117</name></trkpt>
<trkpt lat="52.955518" lon="-3.113769"><ele>370</ele><time>2019-09-27T14:08:41Z</time><name>PT13118</name></trkpt>
<trkpt lat="52.955518" lon="-3.113766"><ele>370</ele><time>2019-09-27T14:09:14Z</time><name>PT13119</name></trkpt>
<trkpt lat="52.955513" lon="-3.113771"><ele>369</ele><time>2019-09-27T14:09:15Z</time><name>PT13120</name></trkpt>
<trkpt lat="52.955513" lon="-3.113774"><ele>370</ele><time>2019-09-27T14:09:15Z</time><name>PT13121</name></trkpt>
<trkpt lat="52.955512" lon="-3.113777"><ele>370</ele><time>2019-09-27T14:09:17Z</time><name>PT13122</name></trkpt>
<trkpt lat="52.955512" lon="-3.113778"><ele>370</ele><time>2019-09-27T14:09:18Z</time><name>PT13123</name></trkpt>
<trkpt lat="52.955512" lon="-3.113780"><ele>370</ele><time>2019-09-27T14:09:18Z</time><name>PT13124</name></trkpt>
<trkpt lat="52.955512" lon="-3.113777"><ele>370</ele><time>2019-09-27T14:09:21Z</time><name>PT13125</name></trkpt>
<trkpt lat="52.955510" lon="-3.113777"><ele>370</ele><time>2019-09-27T14:09:23Z</time><name>PT13126</name></trkpt>
<trkpt lat="52.955502" lon="-3.113766"><ele>370</ele><time>2019-09-27T14:09:33Z</time><name>PT13127</name></trkpt>
<trkpt lat="52.955492" lon="-3.113761"><ele>370</ele><time>2019-09-27T14:09:34Z</time><name>PT13128</name></trkpt>
<trkpt lat="52.955484" lon="-3.113749"><ele>370</ele><time>2019-09-27T14:09:35Z</time><name>PT13129</name></trkpt>
<trkpt lat="52.955475" lon="-3.113744"><ele>370</ele><time>2019-09-27T14:09:36Z</time><name>PT13130</name></trkpt>
<trkpt lat="52.955469" lon="-3.113733"><ele>370</ele><time>2019-09-27T14:09:37Z</time><name>PT13131</name></trkpt>
<trkpt lat="52.955463" lon="-3.113723"><ele>370</ele><time>2019-09-27T14:09:38Z</time><name>PT13132</name></trkpt>
<trkpt lat="52.955457" lon="-3.113717"><ele>369</ele><time>2019-09-27T14:09:39Z</time><name>PT13133</name></trkpt>
<trkpt lat="52.955452" lon="-3.113709"><ele>369</ele><time>2019-09-27T14:09:40Z</time><name>PT13134</name></trkpt>
<trkpt lat="52.955449" lon="-3.113701"><ele>370</ele><time>2019-09-27T14:09:41Z</time><name>PT13135</name></trkpt>
<trkpt lat="52.955445" lon="-3.113702"><ele>369</ele><time>2019-09-27T14:09:42Z</time><name>PT13136</name></trkpt>
<trkpt lat="52.955443" lon="-3.113700"><ele>369</ele><time>2019-09-27T14:09:43Z</time><name>PT13137</name></trkpt>
<trkpt lat="52.955440" lon="-3.113694"><ele>369</ele><time>2019-09-27T14:09:44Z</time><name>PT13138</name></trkpt>
<trkpt lat="52.955434" lon="-3.113689"><ele>369</ele><time>2019-09-27T14:09:45Z</time><name>PT13139</name></trkpt>
<trkpt lat="52.955428" lon="-3.113680"><ele>369</ele><time>2019-09-27T14:09:46Z</time><name>PT13140</name></trkpt>
<trkpt lat="52.955421" lon="-3.113667"><ele>369</ele><time>2019-09-27T14:09:47Z</time><name>PT13141</name></trkpt>
<trkpt lat="52.955414" lon="-3.113654"><ele>369</ele><time>2019-09-27T14:09:48Z</time><name>PT13142</name></trkpt>
<trkpt lat="52.955403" lon="-3.113642"><ele>369</ele><time>2019-09-27T14:09:49Z</time><name>PT13143</name></trkpt>
<trkpt lat="52.955395" lon="-3.113631"><ele>369</ele><time>2019-09-27T14:09:50Z</time><name>PT13144</name></trkpt>
<trkpt lat="52.955385" lon="-3.113613"><ele>369</ele><time>2019-09-27T14:09:51Z</time><name>PT13145</name></trkpt>
<trkpt lat="52.955376" lon="-3.113597"><ele>369</ele><time>2019-09-27T14:09:51Z</time><name>PT13146</name></trkpt>
<trkpt lat="52.955368" lon="-3.113583"><ele>369</ele><time>2019-09-27T14:09:53Z</time><name>PT13147</name></trkpt>
<trkpt lat="52.955361" lon="-3.113572"><ele>369</ele><time>2019-09-27T14:09:54Z</time><name>PT13148</name></trkpt>
<trkpt lat="52.955355" lon="-3.113563"><ele>369</ele><time>2019-09-27T14:09:54Z</time><name>PT13149</name></trkpt>
<trkpt lat="52.955347" lon="-3.113555"><ele>369</ele><time>2019-09-27T14:09:56Z</time><name>PT13150</name></trkpt>
<trkpt lat="52.955339" lon="-3.113543"><ele>369</ele><time>2019-09-27T14:09:57Z</time><name>PT13151</name></trkpt>
<trkpt lat="52.955331" lon="-3.113531"><ele>369</ele><time>2019-09-27T14:09:57Z</time><name>PT13152</name></trkpt>
<trkpt lat="52.955325" lon="-3.113522"><ele>369</ele><time>2019-09-27T14:09:59Z</time><name>PT13153</name></trkpt>
<trkpt lat="52.955319" lon="-3.113510"><ele>369</ele><time>2019-09-27T14:10:00Z</time><name>PT13154</name></trkpt>
<trkpt lat="52.955312" lon="-3.113501"><ele>368</ele><time>2019-09-27T14:10:00Z</time><name>PT13155</name></trkpt>
<trkpt lat="52.955304" lon="-3.113492"><ele>368</ele><time>2019-09-27T14:10:02Z</time><name>PT13156</name></trkpt>
<trkpt lat="52.955298" lon="-3.113479"><ele>369</ele><time>2019-09-27T14:10:03Z</time><name>PT13157</name></trkpt>
<trkpt lat="52.955291" lon="-3.113468"><ele>369</ele><time>2019-09-27T14:10:03Z</time><name>PT13158</name></trkpt>
<trkpt lat="52.955283" lon="-3.113458"><ele>369</ele><time>2019-09-27T14:10:05Z</time><name>PT13159</name></trkpt>
<trkpt lat="52.955275" lon="-3.113449"><ele>369</ele><time>2019-09-27T14:10:06Z</time><name>PT13160</name></trkpt>
<trkpt lat="52.955269" lon="-3.113441"><ele>369</ele><time>2019-09-27T14:10:06Z</time><name>PT13161</name></trkpt>
<trkpt lat="52.955263" lon="-3.113431"><ele>369</ele><time>2019-09-27T14:10:08Z</time><name>PT13162</name></trkpt>
<trkpt lat="52.955254" lon="-3.113418"><ele>369</ele><time>2019-09-27T14:10:09Z</time><name>PT13163</name></trkpt>
<trkpt lat="52.955246" lon="-3.113407"><ele>370</ele><time>2019-09-27T14:10:09Z</time><name>PT13164</name></trkpt>
<trkpt lat="52.955237" lon="-3.113393"><ele>370</ele><time>2019-09-27T14:10:11Z</time><name>PT13165</name></trkpt>
<trkpt lat="52.955228" lon="-3.113384"><ele>369</ele><time>2019-09-27T14:10:12Z</time><name>PT13166</name></trkpt>
<trkpt lat="52.955222" lon="-3.113375"><ele>369</ele><time>2019-09-27T14:10:12Z</time><name>PT13167</name></trkpt>
<trkpt lat="52.955217" lon="-3.113358"><ele>369</ele><time>2019-09-27T14:10:14Z</time><name>PT13168</name></trkpt>
<trkpt lat="52.955209" lon="-3.113345"><ele>369</ele><time>2019-09-27T14:10:15Z</time><name>PT13169</name></trkpt>
<trkpt lat="52.955200" lon="-3.113334"><ele>369</ele><time>2019-09-27T14:10:15Z</time><name>PT13170</name></trkpt>
<trkpt lat="52.955192" lon="-3.113320"><ele>369</ele><time>2019-09-27T14:10:17Z</time><name>PT13171</name></trkpt>
<trkpt lat="52.955182" lon="-3.113313"><ele>369</ele><time>2019-09-27T14:10:18Z</time><name>PT13172</name></trkpt>
<trkpt lat="52.955176" lon="-3.113303"><ele>369</ele><time>2019-09-27T14:10:18Z</time><name>PT13173</name></trkpt>
<trkpt lat="52.955170" lon="-3.113298"><ele>369</ele><time>2019-09-27T14:10:20Z</time><name>PT13174</name></trkpt>
<trkpt lat="52.955163" lon="-3.113287"><ele>369</ele><time>2019-09-27T14:10:21Z</time><name>PT13175</name></trkpt>
<trkpt lat="52.955156" lon="-3.113280"><ele>369</ele><time>2019-09-27T14:10:21Z</time><name>PT13176</name></trkpt>
<trkpt lat="52.955148" lon="-3.113268"><ele>369</ele><time>2019-09-27T14:10:23Z</time><name>PT13177</name></trkpt>
<trkpt lat="52.955138" lon="-3.113253"><ele>369</ele><time>2019-09-27T14:10:24Z</time><name>PT13178</name></trkpt>
<trkpt lat="52.955129" lon="-3.113242"><ele>370</ele><time>2019-09-27T14:10:24Z</time><name>PT13179</name></trkpt>
<trkpt lat="52.955120" lon="-3.113233"><ele>370</ele><time>2019-09-27T14:10:26Z</time><name>PT13180</name></trkpt>
<trkpt lat="52.955108" lon="-3.113223"><ele>369</ele><time>2019-09-27T14:10:27Z</time><name>PT13181</name></trkpt>
<trkpt lat="52.955099" lon="-3.113216"><ele>369</ele><time>2019-09-27T14:10:27Z</time><name>PT13182</name></trkpt>
<trkpt lat="52.955090" lon="-3.113207"><ele>370</ele><time>2019-09-27T14:10:29Z</time><name>PT13183</name></trkpt>
<trkpt lat="52.955082" lon="-3.113198"><ele>370</ele><time>2019-09-27T14:10:30Z</time><name>PT13184</name></trkpt>
<trkpt lat="52.955076" lon="-3.113192"><ele>370</ele><time>2019-09-27T14:10:31Z</time><name>PT13185</name></trkpt>
<trkpt lat="52.955069" lon="-3.113181"><ele>370</ele><time>2019-09-27T14:10:32Z</time><name>PT13186</name></trkpt>
<trkpt lat="52.955061" lon="-3.113166"><ele>370</ele><time>2019-09-27T14:10:33Z</time><name>PT13187</name></trkpt>
<trkpt lat="52.955054" lon="-3.113154"><ele>369</ele><time>2019-09-27T14:10:34Z</time><name>PT13188</name></trkpt>
<trkpt lat="52.955046" lon="-3.113141"><ele>369</ele><time>2019-09-27T14:10:35Z</time><name>PT13189</name></trkpt>
<trkpt lat="52.955039" lon="-3.113130"><ele>370</ele><time>2019-09-27T14:10:36Z</time><name>PT13190</name></trkpt>
<trkpt lat="52.955031" lon="-3.113115"><ele>370</ele><time>2019-09-27T14:10:37Z</time><name>PT13191</name></trkpt>
<trkpt lat="52.955022" lon="-3.113106"><ele>370</ele><time>2019-09-27T14:10:38Z</time><name>PT13192</name></trkpt>
<trkpt lat="52.955013" lon="-3.113101"><ele>369</ele><time>2019-09-27T14:10:39Z</time><name>PT13193</name></trkpt>
<trkpt lat="52.955005" lon="-3.113101"><ele>368</ele><time>2019-09-27T14:10:39Z</time><name>PT13194</name></trkpt>
<trkpt lat="52.954995" lon="-3.113092"><ele>368</ele><time>2019-09-27T14:10:41Z</time><name>PT13195</name></trkpt>
<trkpt lat="52.954983" lon="-3.113078"><ele>368</ele><time>2019-09-27T14:10:42Z</time><name>PT13196</name></trkpt>
<trkpt lat="52.954975" lon="-3.113060"><ele>369</ele><time>2019-09-27T14:10:43Z</time><name>PT13197</name></trkpt>
<trkpt lat="52.954967" lon="-3.113050"><ele>369</ele><time>2019-09-27T14:10:44Z</time><name>PT13198</name></trkpt>
<trkpt lat="52.954960" lon="-3.113042"><ele>370</ele><time>2019-09-27T14:10:45Z</time><name>PT13199</name></trkpt>
<trkpt lat="52.954953" lon="-3.113033"><ele>370</ele><time>2019-09-27T14:10:46Z</time><name>PT13200</name></trkpt>
<trkpt lat="52.954944" lon="-3.113027"><ele>370</ele><time>2019-09-27T14:10:47Z</time><name>PT13201</name></trkpt>
<trkpt lat="52.954936" lon="-3.113018"><ele>371</ele><time>2019-09-27T14:10:48Z</time><name>PT13202</name></trkpt>
<trkpt lat="52.954927" lon="-3.113012"><ele>371</ele><time>2019-09-27T14:10:49Z</time><name>PT13203</name></trkpt>
<trkpt lat="52.954918" lon="-3.113001"><ele>371</ele><time>2019-09-27T14:10:50Z</time><name>PT13204</name></trkpt>
<trkpt lat="52.954907" lon="-3.112986"><ele>371</ele><time>2019-09-27T14:10:51Z</time><name>PT13205</name></trkpt>
<trkpt lat="52.954897" lon="-3.112969"><ele>372</ele><time>2019-09-27T14:10:52Z</time><name>PT13206</name></trkpt>
<trkpt lat="52.954886" lon="-3.112952"><ele>372</ele><time>2019-09-27T14:10:53Z</time><name>PT13207</name></trkpt>
<trkpt lat="52.954875" lon="-3.112934"><ele>373</ele><time>2019-09-27T14:10:54Z</time><name>PT13208</name></trkpt>
<trkpt lat="52.954865" lon="-3.112922"><ele>373</ele><time>2019-09-27T14:10:54Z</time><name>PT13209</name></trkpt>
<trkpt lat="52.954855" lon="-3.112908"><ele>373</ele><time>2019-09-27T14:10:56Z</time><name>PT13210</name></trkpt>
<trkpt lat="52.954844" lon="-3.112894"><ele>373</ele><time>2019-09-27T14:10:57Z</time><name>PT13211</name></trkpt>
<trkpt lat="52.954834" lon="-3.112880"><ele>373</ele><time>2019-09-27T14:10:57Z</time><name>PT13212</name></trkpt>
<trkpt lat="52.954823" lon="-3.112874"><ele>373</ele><time>2019-09-27T14:10:59Z</time><name>PT13213</name></trkpt>
<trkpt lat="52.954811" lon="-3.112869"><ele>372</ele><time>2019-09-27T14:11:00Z</time><name>PT13214</name></trkpt>
<trkpt lat="52.954802" lon="-3.112857"><ele>372</ele><time>2019-09-27T14:11:00Z</time><name>PT13215</name></trkpt>
<trkpt lat="52.954791" lon="-3.112847"><ele>372</ele><time>2019-09-27T14:11:02Z</time><name>PT13216</name></trkpt>
<trkpt lat="52.954781" lon="-3.112834"><ele>372</ele><time>2019-09-27T14:11:03Z</time><name>PT13217</name></trkpt>
<trkpt lat="52.954770" lon="-3.112820"><ele>372</ele><time>2019-09-27T14:11:03Z</time><name>PT13218</name></trkpt>
<trkpt lat="52.954759" lon="-3.112808"><ele>371</ele><time>2019-09-27T14:11:05Z</time><name>PT13219</name></trkpt>
<trkpt lat="52.954749" lon="-3.112793"><ele>372</ele><time>2019-09-27T14:11:06Z</time><name>PT13220</name></trkpt>
<trkpt lat="52.954739" lon="-3.112777"><ele>372</ele><time>2019-09-27T14:11:06Z</time><name>PT13221</name></trkpt>
<trkpt lat="52.954728" lon="-3.112759"><ele>372</ele><time>2019-09-27T14:11:08Z</time><name>PT13222</name></trkpt>
<trkpt lat="52.954718" lon="-3.112740"><ele>371</ele><time>2019-09-27T14:11:09Z</time><name>PT13223</name></trkpt>
<trkpt lat="52.954708" lon="-3.112727"><ele>372</ele><time>2019-09-27T14:11:09Z</time><name>PT13224</name></trkpt>
<trkpt lat="52.954697" lon="-3.112714"><ele>372</ele><time>2019-09-27T14:11:11Z</time><name>PT13225</name></trkpt>
<trkpt lat="52.954689" lon="-3.112703"><ele>372</ele><time>2019-09-27T14:11:12Z</time><name>PT13226</name></trkpt>
<trkpt lat="52.954679" lon="-3.112689"><ele>372</ele><time>2019-09-27T14:11:12Z</time><name>PT13227</name></trkpt>
<trkpt lat="52.954668" lon="-3.112676"><ele>372</ele><time>2019-09-27T14:11:14Z</time><name>PT13228</name></trkpt>
<trkpt lat="52.954658" lon="-3.112663"><ele>372</ele><time>2019-09-27T14:11:15Z</time><name>PT13229</name></trkpt>
<trkpt lat="52.954647" lon="-3.112649"><ele>372</ele><time>2019-09-27T14:11:15Z</time><name>PT13230</name></trkpt>
<trkpt lat="52.954637" lon="-3.112636"><ele>372</ele><time>2019-09-27T14:11:17Z</time><name>PT13231</name></trkpt>
<trkpt lat="52.954626" lon="-3.112602"><ele>372</ele><time>2019-09-27T14:11:18Z</time><name>PT13232</name></trkpt>
<trkpt lat="52.954617" lon="-3.112587"><ele>372</ele><time>2019-09-27T14:11:18Z</time><name>PT13233</name></trkpt>
<trkpt lat="52.954607" lon="-3.112572"><ele>372</ele><time>2019-09-27T14:11:20Z</time><name>PT13234</name></trkpt>
<trkpt lat="52.954596" lon="-3.112558"><ele>372</ele><time>2019-09-27T14:11:21Z</time><name>PT13235</name></trkpt>
<trkpt lat="52.954586" lon="-3.112550"><ele>371</ele><time>2019-09-27T14:11:21Z</time><name>PT13236</name></trkpt>
<trkpt lat="52.954575" lon="-3.112539"><ele>371</ele><time>2019-09-27T14:11:23Z</time><name>PT13237</name></trkpt>
<trkpt lat="52.954565" lon="-3.112528"><ele>371</ele><time>2019-09-27T14:11:24Z</time><name>PT13238</name></trkpt>
<trkpt lat="52.954555" lon="-3.112518"><ele>371</ele><time>2019-09-27T14:11:24Z</time><name>PT13239</name></trkpt>
<trkpt lat="52.954546" lon="-3.112505"><ele>371</ele><time>2019-09-27T14:11:26Z</time><name>PT13240</name></trkpt>
<trkpt lat="52.954536" lon="-3.112495"><ele>371</ele><time>2019-09-27T14:11:27Z</time><name>PT13241</name></trkpt>
<trkpt lat="52.954527" lon="-3.112483"><ele>371</ele><time>2019-09-27T14:11:27Z</time><name>PT13242</name></trkpt>
<trkpt lat="52.954516" lon="-3.112470"><ele>371</ele><time>2019-09-27T14:11:29Z</time><name>PT13243</name></trkpt>
<trkpt lat="52.954506" lon="-3.112458"><ele>371</ele><time>2019-09-27T14:11:30Z</time><name>PT13244</name></trkpt>
<trkpt lat="52.954498" lon="-3.112444"><ele>371</ele><time>2019-09-27T14:11:30Z</time><name>PT13245</name></trkpt>
<trkpt lat="52.954489" lon="-3.112429"><ele>370</ele><time>2019-09-27T14:11:32Z</time><name>PT13246</name></trkpt>
<trkpt lat="52.954480" lon="-3.112416"><ele>371</ele><time>2019-09-27T14:11:33Z</time><name>PT13247</name></trkpt>
<trkpt lat="52.954471" lon="-3.112403"><ele>371</ele><time>2019-09-27T14:11:33Z</time><name>PT13248</name></trkpt>
<trkpt lat="52.954459" lon="-3.112397"><ele>370</ele><time>2019-09-27T14:11:35Z</time><name>PT13249</name></trkpt>
<trkpt lat="52.954448" lon="-3.112386"><ele>370</ele><time>2019-09-27T14:11:36Z</time><name>PT13250</name></trkpt>
<trkpt lat="52.954440" lon="-3.112374"><ele>370</ele><time>2019-09-27T14:11:37Z</time><name>PT13251</name></trkpt>
<trkpt lat="52.954431" lon="-3.112358"><ele>370</ele><time>2019-09-27T14:11:38Z</time><name>PT13252</name></trkpt>
<trkpt lat="52.954420" lon="-3.112344"><ele>371</ele><time>2019-09-27T14:11:39Z</time><name>PT13253</name></trkpt>
<trkpt lat="52.954410" lon="-3.112334"><ele>371</ele><time>2019-09-27T14:11:40Z</time><name>PT13254</name></trkpt>
<trkpt lat="52.954400" lon="-3.112320"><ele>371</ele><time>2019-09-27T14:11:41Z</time><name>PT13255</name></trkpt>
<trkpt lat="52.954390" lon="-3.112309"><ele>371</ele><time>2019-09-27T14:11:42Z</time><name>PT13256</name></trkpt>
<trkpt lat="52.954380" lon="-3.112297"><ele>371</ele><time>2019-09-27T14:11:43Z</time><name>PT13257</name></trkpt>
<trkpt lat="52.954371" lon="-3.112283"><ele>371</ele><time>2019-09-27T14:11:44Z</time><name>PT13258</name></trkpt>
<trkpt lat="52.954361" lon="-3.112272"><ele>371</ele><time>2019-09-27T14:11:45Z</time><name>PT13259</name></trkpt>
<trkpt lat="52.954351" lon="-3.112259"><ele>372</ele><time>2019-09-27T14:11:46Z</time><name>PT13260</name></trkpt>
<trkpt lat="52.954339" lon="-3.112249"><ele>372</ele><time>2019-09-27T14:11:47Z</time><name>PT13261</name></trkpt>
<trkpt lat="52.954330" lon="-3.112237"><ele>372</ele><time>2019-09-27T14:11:48Z</time><name>PT13262</name></trkpt>
<trkpt lat="52.954321" lon="-3.112225"><ele>372</ele><time>2019-09-27T14:11:49Z</time><name>PT13263</name></trkpt>
<trkpt lat="52.954311" lon="-3.112210"><ele>372</ele><time>2019-09-27T14:11:50Z</time><name>PT13264</name></trkpt>
<trkpt lat="52.954301" lon="-3.112196"><ele>372</ele><time>2019-09-27T14:11:51Z</time><name>PT13265</name></trkpt>
<trkpt lat="52.954292" lon="-3.112183"><ele>372</ele><time>2019-09-27T14:11:52Z</time><name>PT13266</name></trkpt>
<trkpt lat="52.954281" lon="-3.112172"><ele>372</ele><time>2019-09-27T14:11:53Z</time><name>PT13267</name></trkpt>
<trkpt lat="52.954273" lon="-3.112160"><ele>372</ele><time>2019-09-27T14:11:54Z</time><name>PT13268</name></trkpt>
<trkpt lat="52.954264" lon="-3.112149"><ele>372</ele><time>2019-09-27T14:11:55Z</time><name>PT13269</name></trkpt>
<trkpt lat="52.954255" lon="-3.112137"><ele>372</ele><time>2019-09-27T14:11:56Z</time><name>PT13270</name></trkpt>
<trkpt lat="52.954246" lon="-3.112133"><ele>372</ele><time>2019-09-27T14:11:57Z</time><name>PT13271</name></trkpt>
<trkpt lat="52.954237" lon="-3.112124"><ele>373</ele><time>2019-09-27T14:11:57Z</time><name>PT13272</name></trkpt>
<trkpt lat="52.954227" lon="-3.112114"><ele>373</ele><time>2019-09-27T14:11:59Z</time><name>PT13273</name></trkpt>
<trkpt lat="52.954219" lon="-3.112105"><ele>372</ele><time>2019-09-27T14:12:00Z</time><name>PT13274</name></trkpt>
<trkpt lat="52.954209" lon="-3.112092"><ele>373</ele><time>2019-09-27T14:12:00Z</time><name>PT13275</name></trkpt>
<trkpt lat="52.954198" lon="-3.112078"><ele>373</ele><time>2019-09-27T14:12:02Z</time><name>PT13276</name></trkpt>
<trkpt lat="52.954188" lon="-3.112067"><ele>373</ele><time>2019-09-27T14:12:03Z</time><name>PT13277</name></trkpt>
<trkpt lat="52.954178" lon="-3.112055"><ele>373</ele><time>2019-09-27T14:12:03Z</time><name>PT13278</name></trkpt>
<trkpt lat="52.954168" lon="-3.112040"><ele>373</ele><time>2019-09-27T14:12:05Z</time><name>PT13279</name></trkpt>
<trkpt lat="52.954159" lon="-3.112024"><ele>373</ele><time>2019-09-27T14:12:06Z</time><name>PT13280</name></trkpt>
<trkpt lat="52.954150" lon="-3.112008"><ele>373</ele><time>2019-09-27T14:12:06Z</time><name>PT13281</name></trkpt>
<trkpt lat="52.954140" lon="-3.111991"><ele>373</ele><time>2019-09-27T14:12:08Z</time><name>PT13282</name></trkpt>
<trkpt lat="52.954131" lon="-3.111978"><ele>373</ele><time>2019-09-27T14:12:09Z</time><name>PT13283</name></trkpt>
<trkpt lat="52.954122" lon="-3.111966"><ele>373</ele><time>2019-09-27T14:12:09Z</time><name>PT13284</name></trkpt>
<trkpt lat="52.954112" lon="-3.111951"><ele>373</ele><time>2019-09-27T14:12:11Z</time><name>PT13285</name></trkpt>
<trkpt lat="52.954102" lon="-3.111935"><ele>373</ele><time>2019-09-27T14:12:12Z</time><name>PT13286</name></trkpt>
<trkpt lat="52.954093" lon="-3.111921"><ele>373</ele><time>2019-09-27T14:12:12Z</time><name>PT13287</name></trkpt>
<trkpt lat="52.954084" lon="-3.111908"><ele>373</ele><time>2019-09-27T14:12:14Z</time><name>PT13288</name></trkpt>
<trkpt lat="52.954075" lon="-3.111898"><ele>372</ele><time>2019-09-27T14:12:15Z</time><name>PT13289</name></trkpt>
<trkpt lat="52.954065" lon="-3.111889"><ele>372</ele><time>2019-09-27T14:12:15Z</time><name>PT13290</name></trkpt>
<trkpt lat="52.954056" lon="-3.111879"><ele>372</ele><time>2019-09-27T14:12:17Z</time><name>PT13291</name></trkpt>
<trkpt lat="52.954048" lon="-3.111866"><ele>372</ele><time>2019-09-27T14:12:18Z</time><name>PT13292</name></trkpt>
<trkpt lat="52.954039" lon="-3.111855"><ele>372</ele><time>2019-09-27T14:12:18Z</time><name>PT13293</name></trkpt>
<trkpt lat="52.954030" lon="-3.111841"><ele>372</ele><time>2019-09-27T14:12:20Z</time><name>PT13294</name></trkpt>
<trkpt lat="52.954023" lon="-3.111825"><ele>372</ele><time>2019-09-27T14:12:21Z</time><name>PT13295</name></trkpt>
<trkpt lat="52.954013" lon="-3.111811"><ele>372</ele><time>2019-09-27T14:12:21Z</time><name>PT13296</name></trkpt>
<trkpt lat="52.954002" lon="-3.111794"><ele>372</ele><time>2019-09-27T14:12:23Z</time><name>PT13297</name></trkpt>
<trkpt lat="52.953994" lon="-3.111781"><ele>372</ele><time>2019-09-27T14:12:24Z</time><name>PT13298</name></trkpt>
<trkpt lat="52.953988" lon="-3.111766"><ele>372</ele><time>2019-09-27T14:12:24Z</time><name>PT13299</name></trkpt>
<trkpt lat="52.953981" lon="-3.111748"><ele>372</ele><time>2019-09-27T14:12:26Z</time><name>PT13300</name></trkpt>
<trkpt lat="52.953973" lon="-3.111732"><ele>371</ele><time>2019-09-27T14:12:27Z</time><name>PT13301</name></trkpt>
<trkpt lat="52.953964" lon="-3.111718"><ele>371</ele><time>2019-09-27T14:12:27Z</time><name>PT13302</name></trkpt>
<trkpt lat="52.953959" lon="-3.111706"><ele>371</ele><time>2019-09-27T14:12:29Z</time><name>PT13303</name></trkpt>
<trkpt lat="52.953951" lon="-3.111692"><ele>371</ele><time>2019-09-27T14:12:30Z</time><name>PT13304</name></trkpt>
<trkpt lat="52.953941" lon="-3.111678"><ele>371</ele><time>2019-09-27T14:12:30Z</time><name>PT13305</name></trkpt>
<trkpt lat="52.953933" lon="-3.111664"><ele>370</ele><time>2019-09-27T14:12:32Z</time><name>PT13306</name></trkpt>
<trkpt lat="52.953926" lon="-3.111647"><ele>370</ele><time>2019-09-27T14:12:33Z</time><name>PT13307</name></trkpt>
<trkpt lat="52.953918" lon="-3.111628"><ele>370</ele><time>2019-09-27T14:12:33Z</time><name>PT13308</name></trkpt>
<trkpt lat="52.953909" lon="-3.111611"><ele>370</ele><time>2019-09-27T14:12:35Z</time><name>PT13309</name></trkpt>
<trkpt lat="52.953900" lon="-3.111589"><ele>370</ele><time>2019-09-27T14:12:36Z</time><name>PT13310</name></trkpt>
<trkpt lat="52.953894" lon="-3.111573"><ele>370</ele><time>2019-09-27T14:12:37Z</time><name>PT13311</name></trkpt>
<trkpt lat="52.953885" lon="-3.111556"><ele>370</ele><time>2019-09-27T14:12:38Z</time><name>PT13312</name></trkpt>
<trkpt lat="52.953876" lon="-3.111541"><ele>370</ele><time>2019-09-27T14:12:39Z</time><name>PT13313</name></trkpt>
<trkpt lat="52.953869" lon="-3.111524"><ele>370</ele><time>2019-09-27T14:12:39Z</time><name>PT13314</name></trkpt>
<trkpt lat="52.953860" lon="-3.111507"><ele>370</ele><time>2019-09-27T14:12:41Z</time><name>PT13315</name></trkpt>
<trkpt lat="52.953852" lon="-3.111491"><ele>370</ele><time>2019-09-27T14:12:42Z</time><name>PT13316</name></trkpt>
<trkpt lat="52.953842" lon="-3.111473"><ele>370</ele><time>2019-09-27T14:12:43Z</time><name>PT13317</name></trkpt>
<trkpt lat="52.953832" lon="-3.111453"><ele>370</ele><time>2019-09-27T14:12:44Z</time><name>PT13318</name></trkpt>
<trkpt lat="52.953824" lon="-3.111435"><ele>370</ele><time>2019-09-27T14:12:45Z</time><name>PT13319</name></trkpt>
<trkpt lat="52.953817" lon="-3.111420"><ele>370</ele><time>2019-09-27T14:12:46Z</time><name>PT13320</name></trkpt>
<trkpt lat="52.953809" lon="-3.111404"><ele>370</ele><time>2019-09-27T14:12:47Z</time><name>PT13321</name></trkpt>
<trkpt lat="52.953799" lon="-3.111387"><ele>370</ele><time>2019-09-27T14:12:48Z</time><name>PT13322</name></trkpt>
<trkpt lat="52.953790" lon="-3.111371"><ele>370</ele><time>2019-09-27T14:12:49Z</time><name>PT13323</name></trkpt>
<trkpt lat="52.953783" lon="-3.111352"><ele>370</ele><time>2019-09-27T14:12:50Z</time><name>PT13324</name></trkpt>
<trkpt lat="52.953773" lon="-3.111336"><ele>371</ele><time>2019-09-27T14:12:51Z</time><name>PT13325</name></trkpt>
<trkpt lat="52.953763" lon="-3.111319"><ele>371</ele><time>2019-09-27T14:12:52Z</time><name>PT13326</name></trkpt>
<trkpt lat="52.953755" lon="-3.111301"><ele>370</ele><time>2019-09-27T14:12:53Z</time><name>PT13327</name></trkpt>
<trkpt lat="52.953749" lon="-3.111282"><ele>370</ele><time>2019-09-27T14:12:54Z</time><name>PT13328</name></trkpt>
<trkpt lat="52.953742" lon="-3.111264"><ele>371</ele><time>2019-09-27T14:12:54Z</time><name>PT13329</name></trkpt>
<trkpt lat="52.953733" lon="-3.111248"><ele>371</ele><time>2019-09-27T14:12:56Z</time><name>PT13330</name></trkpt>
<trkpt lat="52.953728" lon="-3.111234"><ele>371</ele><time>2019-09-27T14:12:57Z</time><name>PT13331</name></trkpt>
<trkpt lat="52.953722" lon="-3.111221"><ele>371</ele><time>2019-09-27T14:12:57Z</time><name>PT13332</name></trkpt>
<trkpt lat="52.953713" lon="-3.111206"><ele>371</ele><time>2019-09-27T14:12:59Z</time><name>PT13333</name></trkpt>
<trkpt lat="52.953705" lon="-3.111192"><ele>371</ele><time>2019-09-27T14:13:00Z</time><name>PT13334</name></trkpt>
<trkpt lat="52.953698" lon="-3.111178"><ele>371</ele><time>2019-09-27T14:13:00Z</time><name>PT13335</name></trkpt>
<trkpt lat="52.953690" lon="-3.111162"><ele>371</ele><time>2019-09-27T14:13:02Z</time><name>PT13336</name></trkpt>
<trkpt lat="52.953682" lon="-3.111142"><ele>371</ele><time>2019-09-27T14:13:03Z</time><name>PT13337</name></trkpt>
<trkpt lat="52.953674" lon="-3.111125"><ele>371</ele><time>2019-09-27T14:13:03Z</time><name>PT13338</name></trkpt>
<trkpt lat="52.953667" lon="-3.111109"><ele>371</ele><time>2019-09-27T14:13:05Z</time><name>PT13339</name></trkpt>
<trkpt lat="52.953659" lon="-3.111091"><ele>371</ele><time>2019-09-27T14:13:06Z</time><name>PT13340</name></trkpt>
<trkpt lat="52.953651" lon="-3.111074"><ele>371</ele><time>2019-09-27T14:13:06Z</time><name>PT13341</name></trkpt>
<trkpt lat="52.953641" lon="-3.111057"><ele>371</ele><time>2019-09-27T14:13:08Z</time><name>PT13342</name></trkpt>
<trkpt lat="52.953633" lon="-3.111039"><ele>371</ele><time>2019-09-27T14:13:09Z</time><name>PT13343</name></trkpt>
<trkpt lat="52.953625" lon="-3.111020"><ele>371</ele><time>2019-09-27T14:13:09Z</time><name>PT13344</name></trkpt>
<trkpt lat="52.953618" lon="-3.111003"><ele>371</ele><time>2019-09-27T14:13:11Z</time><name>PT13345</name></trkpt>
<trkpt lat="52.953609" lon="-3.110986"><ele>371</ele><time>2019-09-27T14:13:12Z</time><name>PT13346</name></trkpt>
<trkpt lat="52.953601" lon="-3.110968"><ele>371</ele><time>2019-09-27T14:13:12Z</time><name>PT13347</name></trkpt>
<trkpt lat="52.953591" lon="-3.110949"><ele>371</ele><time>2019-09-27T14:13:14Z</time><name>PT13348</name></trkpt>
<trkpt lat="52.953585" lon="-3.110935"><ele>371</ele><time>2019-09-27T14:13:15Z</time><name>PT13349</name></trkpt>
<trkpt lat="52.953579" lon="-3.110919"><ele>371</ele><time>2019-09-27T14:13:15Z</time><name>PT13350</name></trkpt>
<trkpt lat="52.953573" lon="-3.110904"><ele>372</ele><time>2019-09-27T14:13:17Z</time><name>PT13351</name></trkpt>
<trkpt lat="52.953570" lon="-3.110892"><ele>372</ele><time>2019-09-27T14:13:18Z</time><name>PT13352</name></trkpt>
<trkpt lat="52.953567" lon="-3.110878"><ele>372</ele><time>2019-09-27T14:13:18Z</time><name>PT13353</name></trkpt>
<trkpt lat="52.953565" lon="-3.110872"><ele>372</ele><time>2019-09-27T14:13:20Z</time><name>PT13354</name></trkpt>
<trkpt lat="52.953566" lon="-3.110870"><ele>372</ele><time>2019-09-27T14:13:21Z</time><name>PT13355</name></trkpt>
<trkpt lat="52.953566" lon="-3.110863"><ele>372</ele><time>2019-09-27T14:13:21Z</time><name>PT13356</name></trkpt>
<trkpt lat="52.953566" lon="-3.110854"><ele>372</ele><time>2019-09-27T14:13:23Z</time><name>PT13357</name></trkpt>
<trkpt lat="52.953567" lon="-3.110846"><ele>372</ele><time>2019-09-27T14:13:24Z</time><name>PT13358</name></trkpt>
<trkpt lat="52.953567" lon="-3.110844"><ele>372</ele><time>2019-09-27T14:13:24Z</time><name>PT13359</name></trkpt>
<trkpt lat="52.953568" lon="-3.110845"><ele>372</ele><time>2019-09-27T14:13:26Z</time><name>PT13360</name></trkpt>
<trkpt lat="52.953568" lon="-3.110841"><ele>372</ele><time>2019-09-27T14:13:27Z</time><name>PT13361</name></trkpt>
<trkpt lat="52.953565" lon="-3.110839"><ele>372</ele><time>2019-09-27T14:13:33Z</time><name>PT13362</name></trkpt>
<trkpt lat="52.953553" lon="-3.110833"><ele>372</ele><time>2019-09-27T14:13:35Z</time><name>PT13363</name></trkpt>
<trkpt lat="52.953542" lon="-3.110820"><ele>372</ele><time>2019-09-27T14:13:36Z</time><name>PT13364</name></trkpt>
<trkpt lat="52.953535" lon="-3.110805"><ele>372</ele><time>2019-09-27T14:13:36Z</time><name>PT13365</name></trkpt>
<trkpt lat="52.953530" lon="-3.110790"><ele>372</ele><time>2019-09-27T14:13:38Z</time><name>PT13366</name></trkpt>
<trkpt lat="52.953523" lon="-3.110775"><ele>371</ele><time>2019-09-27T14:13:39Z</time><name>PT13367</name></trkpt>
<trkpt lat="52.953515" lon="-3.110758"><ele>371</ele><time>2019-09-27T14:13:40Z</time><name>PT13368</name></trkpt>
<trkpt lat="52.953508" lon="-3.110745"><ele>371</ele><time>2019-09-27T14:13:41Z</time><name>PT13369</name></trkpt>
<trkpt lat="52.953501" lon="-3.110731"><ele>371</ele><time>2019-09-27T14:13:42Z</time><name>PT13370</name></trkpt>
<trkpt lat="52.953492" lon="-3.110713"><ele>371</ele><time>2019-09-27T14:13:42Z</time><name>PT13371</name></trkpt>
<trkpt lat="52.953484" lon="-3.110698"><ele>371</ele><time>2019-09-27T14:13:44Z</time><name>PT13372</name></trkpt>
<trkpt lat="52.953477" lon="-3.110682"><ele>371</ele><time>2019-09-27T14:13:45Z</time><name>PT13373</name></trkpt>
<trkpt lat="52.953470" lon="-3.110664"><ele>371</ele><time>2019-09-27T14:13:45Z</time><name>PT13374</name></trkpt>
<trkpt lat="52.953462" lon="-3.110648"><ele>370</ele><time>2019-09-27T14:13:47Z</time><name>PT13375</name></trkpt>
<trkpt lat="52.953455" lon="-3.110634"><ele>370</ele><time>2019-09-27T14:13:48Z</time><name>PT13376</name></trkpt>
<trkpt lat="52.953449" lon="-3.110621"><ele>370</ele><time>2019-09-27T14:13:48Z</time><name>PT13377</name></trkpt>
<trkpt lat="52.953441" lon="-3.110604"><ele>370</ele><time>2019-09-27T14:13:50Z</time><name>PT13378</name></trkpt>
<trkpt lat="52.953433" lon="-3.110587"><ele>370</ele><time>2019-09-27T14:13:51Z</time><name>PT13379</name></trkpt>
<trkpt lat="52.953427" lon="-3.110572"><ele>369</ele><time>2019-09-27T14:13:51Z</time><name>PT13380</name></trkpt>
<trkpt lat="52.953420" lon="-3.110554"><ele>369</ele><time>2019-09-27T14:13:53Z</time><name>PT13381</name></trkpt>
<trkpt lat="52.953414" lon="-3.110537"><ele>369</ele><time>2019-09-27T14:13:54Z</time><name>PT13382</name></trkpt>
<trkpt lat="52.953406" lon="-3.110522"><ele>369</ele><time>2019-09-27T14:13:54Z</time><name>PT13383</name></trkpt>
<trkpt lat="52.953399" lon="-3.110508"><ele>369</ele><time>2019-09-27T14:13:56Z</time><name>PT13384</name></trkpt>
<trkpt lat="52.953392" lon="-3.110493"><ele>369</ele><time>2019-09-27T14:13:57Z</time><name>PT13385</name></trkpt>
<trkpt lat="52.953384" lon="-3.110477"><ele>369</ele><time>2019-09-27T14:13:57Z</time><name>PT13386</name></trkpt>
<trkpt lat="52.953376" lon="-3.110460"><ele>368</ele><time>2019-09-27T14:13:59Z</time><name>PT13387</name></trkpt>
<trkpt lat="52.953370" lon="-3.110443"><ele>368</ele><time>2019-09-27T14:14:00Z</time><name>PT13388</name></trkpt>
<trkpt lat="52.953364" lon="-3.110425"><ele>368</ele><time>2019-09-27T14:14:00Z</time><name>PT13389</name></trkpt>
<trkpt lat="52.953358" lon="-3.110408"><ele>368</ele><time>2019-09-27T14:14:02Z</time><name>PT13390</name></trkpt>
<trkpt lat="52.953351" lon="-3.110390"><ele>368</ele><time>2019-09-27T14:14:03Z</time><name>PT13391</name></trkpt>
<trkpt lat="52.953345" lon="-3.110377"><ele>367</ele><time>2019-09-27T14:14:03Z</time><name>PT13392</name></trkpt>
<trkpt lat="52.953339" lon="-3.110359"><ele>367</ele><time>2019-09-27T14:14:05Z</time><name>PT13393</name></trkpt>
<trkpt lat="52.953334" lon="-3.110342"><ele>367</ele><time>2019-09-27T14:14:06Z</time><name>PT13394</name></trkpt>
<trkpt lat="52.953329" lon="-3.110325"><ele>367</ele><time>2019-09-27T14:14:06Z</time><name>PT13395</name></trkpt>
<trkpt lat="52.953322" lon="-3.110309"><ele>367</ele><time>2019-09-27T14:14:08Z</time><name>PT13396</name></trkpt>
<trkpt lat="52.953315" lon="-3.110295"><ele>366</ele><time>2019-09-27T14:14:09Z</time><name>PT13397</name></trkpt>
<trkpt lat="52.953308" lon="-3.110280"><ele>366</ele><time>2019-09-27T14:14:09Z</time><name>PT13398</name></trkpt>
<trkpt lat="52.953300" lon="-3.110264"><ele>366</ele><time>2019-09-27T14:14:11Z</time><name>PT13399</name></trkpt>
<trkpt lat="52.953292" lon="-3.110248"><ele>366</ele><time>2019-09-27T14:14:12Z</time><name>PT13400</name></trkpt>
<trkpt lat="52.953286" lon="-3.110232"><ele>366</ele><time>2019-09-27T14:14:12Z</time><name>PT13401</name></trkpt>
<trkpt lat="52.953281" lon="-3.110217"><ele>366</ele><time>2019-09-27T14:14:14Z</time><name>PT13402</name></trkpt>
<trkpt lat="52.953272" lon="-3.110201"><ele>365</ele><time>2019-09-27T14:14:15Z</time><name>PT13403</name></trkpt>
<trkpt lat="52.953263" lon="-3.110182"><ele>365</ele><time>2019-09-27T14:14:15Z</time><name>PT13404</name></trkpt>
<trkpt lat="52.953259" lon="-3.110166"><ele>365</ele><time>2019-09-27T14:14:17Z</time><name>PT13405</name></trkpt>
<trkpt lat="52.953256" lon="-3.110151"><ele>365</ele><time>2019-09-27T14:14:18Z</time><name>PT13406</name></trkpt>
<trkpt lat="52.953250" lon="-3.110142"><ele>365</ele><time>2019-09-27T14:14:18Z</time><name>PT13407</name></trkpt>
<trkpt lat="52.953245" lon="-3.110130"><ele>365</ele><time>2019-09-27T14:14:20Z</time><name>PT13408</name></trkpt>
<trkpt lat="52.953240" lon="-3.110113"><ele>365</ele><time>2019-09-27T14:14:21Z</time><name>PT13409</name></trkpt>
<trkpt lat="52.953234" lon="-3.110094"><ele>365</ele><time>2019-09-27T14:14:21Z</time><name>PT13410</name></trkpt>
<trkpt lat="52.953227" lon="-3.110077"><ele>365</ele><time>2019-09-27T14:14:23Z</time><name>PT13411</name></trkpt>
<trkpt lat="52.953219" lon="-3.110062"><ele>365</ele><time>2019-09-27T14:14:24Z</time><name>PT13412</name></trkpt>
<trkpt lat="52.953212" lon="-3.110043"><ele>365</ele><time>2019-09-27T14:14:24Z</time><name>PT13413</name></trkpt>
<trkpt lat="52.953206" lon="-3.110027"><ele>365</ele><time>2019-09-27T14:14:26Z</time><name>PT13414</name></trkpt>
<trkpt lat="52.953197" lon="-3.110012"><ele>366</ele><time>2019-09-27T14:14:27Z</time><name>PT13415</name></trkpt>
<trkpt lat="52.953189" lon="-3.109996"><ele>366</ele><time>2019-09-27T14:14:27Z</time><name>PT13416</name></trkpt>
<trkpt lat="52.953180" lon="-3.109979"><ele>366</ele><time>2019-09-27T14:14:29Z</time><name>PT13417</name></trkpt>
<trkpt lat="52.953173" lon="-3.109964"><ele>366</ele><time>2019-09-27T14:14:30Z</time><name>PT13418</name></trkpt>
<trkpt lat="52.953167" lon="-3.109946"><ele>366</ele><time>2019-09-27T14:14:30Z</time><name>PT13419</name></trkpt>
<trkpt lat="52.953159" lon="-3.109926"><ele>366</ele><time>2019-09-27T14:14:32Z</time><name>PT13420</name></trkpt>
<trkpt lat="52.953151" lon="-3.109909"><ele>366</ele><time>2019-09-27T14:14:33Z</time><name>PT13421</name></trkpt>
<trkpt lat="52.953142" lon="-3.109892"><ele>366</ele><time>2019-09-27T14:14:34Z</time><name>PT13422</name></trkpt>
<trkpt lat="52.953134" lon="-3.109874"><ele>366</ele><time>2019-09-27T14:14:35Z</time><name>PT13423</name></trkpt>
<trkpt lat="52.953126" lon="-3.109857"><ele>366</ele><time>2019-09-27T14:14:36Z</time><name>PT13424</name></trkpt>
<trkpt lat="52.953118" lon="-3.109837"><ele>366</ele><time>2019-09-27T14:14:37Z</time><name>PT13425</name></trkpt>
<trkpt lat="52.953108" lon="-3.109818"><ele>367</ele><time>2019-09-27T14:14:38Z</time><name>PT13426</name></trkpt>
<trkpt lat="52.953102" lon="-3.109801"><ele>367</ele><time>2019-09-27T14:14:39Z</time><name>PT13427</name></trkpt>
<trkpt lat="52.953093" lon="-3.109785"><ele>367</ele><time>2019-09-27T14:14:40Z</time><name>PT13428</name></trkpt>
<trkpt lat="52.953084" lon="-3.109767"><ele>367</ele><time>2019-09-27T14:14:41Z</time><name>PT13429</name></trkpt>
<trkpt lat="52.953078" lon="-3.109750"><ele>367</ele><time>2019-09-27T14:14:42Z</time><name>PT13430</name></trkpt>
<trkpt lat="52.953069" lon="-3.109733"><ele>368</ele><time>2019-09-27T14:14:43Z</time><name>PT13431</name></trkpt>
<trkpt lat="52.953062" lon="-3.109716"><ele>368</ele><time>2019-09-27T14:14:44Z</time><name>PT13432</name></trkpt>
<trkpt lat="52.953054" lon="-3.109699"><ele>368</ele><time>2019-09-27T14:14:45Z</time><name>PT13433</name></trkpt>
<trkpt lat="52.953046" lon="-3.109682"><ele>368</ele><time>2019-09-27T14:14:46Z</time><name>PT13434</name></trkpt>
<trkpt lat="52.953039" lon="-3.109666"><ele>368</ele><time>2019-09-27T14:14:47Z</time><name>PT13435</name></trkpt>
<trkpt lat="52.953033" lon="-3.109650"><ele>368</ele><time>2019-09-27T14:14:48Z</time><name>PT13436</name></trkpt>
<trkpt lat="52.953027" lon="-3.109633"><ele>367</ele><time>2019-09-27T14:14:49Z</time><name>PT13437</name></trkpt>
<trkpt lat="52.953020" lon="-3.109615"><ele>367</ele><time>2019-09-27T14:14:50Z</time><name>PT13438</name></trkpt>
<trkpt lat="52.953013" lon="-3.109603"><ele>367</ele><time>2019-09-27T14:14:51Z</time><name>PT13439</name></trkpt>
<trkpt lat="52.953007" lon="-3.109588"><ele>367</ele><time>2019-09-27T14:14:52Z</time><name>PT13440</name></trkpt>
<trkpt lat="52.952999" lon="-3.109571"><ele>366</ele><time>2019-09-27T14:14:53Z</time><name>PT13441</name></trkpt>
<trkpt lat="52.952990" lon="-3.109553"><ele>366</ele><time>2019-09-27T14:14:54Z</time><name>PT13442</name></trkpt>
<trkpt lat="52.952984" lon="-3.109536"><ele>366</ele><time>2019-09-27T14:14:54Z</time><name>PT13443</name></trkpt>
<trkpt lat="52.952977" lon="-3.109520"><ele>366</ele><time>2019-09-27T14:14:56Z</time><name>PT13444</name></trkpt>
<trkpt lat="52.952970" lon="-3.109503"><ele>366</ele><time>2019-09-27T14:14:57Z</time><name>PT13445</name></trkpt>
<trkpt lat="52.952963" lon="-3.109484"><ele>365</ele><time>2019-09-27T14:14:57Z</time><name>PT13446</name></trkpt>
<trkpt lat="52.952956" lon="-3.109468"><ele>365</ele><time>2019-09-27T14:14:59Z</time><name>PT13447</name></trkpt>
<trkpt lat="52.952948" lon="-3.109452"><ele>365</ele><time>2019-09-27T14:15:00Z</time><name>PT13448</name></trkpt>
<trkpt lat="52.952940" lon="-3.109436"><ele>364</ele><time>2019-09-27T14:15:00Z</time><name>PT13449</name></trkpt>
<trkpt lat="52.952932" lon="-3.109423"><ele>364</ele><time>2019-09-27T14:15:02Z</time><name>PT13450</name></trkpt>
<trkpt lat="52.952924" lon="-3.109406"><ele>364</ele><time>2019-09-27T14:15:03Z</time><name>PT13451</name></trkpt>
<trkpt lat="52.952918" lon="-3.109394"><ele>364</ele><time>2019-09-27T14:15:03Z</time><name>PT13452</name></trkpt>
<trkpt lat="52.952914" lon="-3.109376"><ele>364</ele><time>2019-09-27T14:15:05Z</time><name>PT13453</name></trkpt>
<trkpt lat="52.952908" lon="-3.109359"><ele>363</ele><time>2019-09-27T14:15:06Z</time><name>PT13454</name></trkpt>
<trkpt lat="52.952901" lon="-3.109338"><ele>363</ele><time>2019-09-27T14:15:06Z</time><name>PT13455</name></trkpt>
<trkpt lat="52.952893" lon="-3.109322"><ele>362</ele><time>2019-09-27T14:15:08Z</time><name>PT13456</name></trkpt>
<trkpt lat="52.952886" lon="-3.109307"><ele>362</ele><time>2019-09-27T14:15:09Z</time><name>PT13457</name></trkpt>
<trkpt lat="52.952877" lon="-3.109290"><ele>362</ele><time>2019-09-27T14:15:09Z</time><name>PT13458</name></trkpt>
<trkpt lat="52.952869" lon="-3.109272"><ele>362</ele><time>2019-09-27T14:15:11Z</time><name>PT13459</name></trkpt>
<trkpt lat="52.952863" lon="-3.109256"><ele>362</ele><time>2019-09-27T14:15:12Z</time><name>PT13460</name></trkpt>
<trkpt lat="52.952858" lon="-3.109241"><ele>362</ele><time>2019-09-27T14:15:12Z</time><name>PT13461</name></trkpt>
<trkpt lat="52.952853" lon="-3.109223"><ele>362</ele><time>2019-09-27T14:15:14Z</time><name>PT13462</name></trkpt>
<trkpt lat="52.952848" lon="-3.109208"><ele>362</ele><time>2019-09-27T14:15:15Z</time><name>PT13463</name></trkpt>
<trkpt lat="52.952841" lon="-3.109192"><ele>362</ele><time>2019-09-27T14:15:15Z</time><name>PT13464</name></trkpt>
<trkpt lat="52.952835" lon="-3.109177"><ele>362</ele><time>2019-09-27T14:15:17Z</time><name>PT13465</name></trkpt>
<trkpt lat="52.952829" lon="-3.109160"><ele>362</ele><time>2019-09-27T14:15:18Z</time><name>PT13466</name></trkpt>
<trkpt lat="52.952824" lon="-3.109141"><ele>362</ele><time>2019-09-27T14:15:18Z</time><name>PT13467</name></trkpt>
<trkpt lat="52.952821" lon="-3.109123"><ele>361</ele><time>2019-09-27T14:15:20Z</time><name>PT13468</name></trkpt>
<trkpt lat="52.952816" lon="-3.109104"><ele>361</ele><time>2019-09-27T14:15:21Z</time><name>PT13469</name></trkpt>
<trkpt lat="52.952810" lon="-3.109087"><ele>361</ele><time>2019-09-27T14:15:21Z</time><name>PT13470</name></trkpt>
<trkpt lat="52.952805" lon="-3.109070"><ele>361</ele><time>2019-09-27T14:15:23Z</time><name>PT13471</name></trkpt>
<trkpt lat="52.952797" lon="-3.109051"><ele>361</ele><time>2019-09-27T14:15:24Z</time><name>PT13472</name></trkpt>
<trkpt lat="52.952791" lon="-3.109033"><ele>361</ele><time>2019-09-27T14:15:24Z</time><name>PT13473</name></trkpt>
<trkpt lat="52.952785" lon="-3.109014"><ele>361</ele><time>2019-09-27T14:15:26Z</time><name>PT13474</name></trkpt>
<trkpt lat="52.952777" lon="-3.108997"><ele>361</ele><time>2019-09-27T14:15:27Z</time><name>PT13475</name></trkpt>
<trkpt lat="52.952768" lon="-3.108977"><ele>361</ele><time>2019-09-27T14:15:27Z</time><name>PT13476</name></trkpt>
<trkpt lat="52.952759" lon="-3.108960"><ele>360</ele><time>2019-09-27T14:15:29Z</time><name>PT13477</name></trkpt>
<trkpt lat="52.952750" lon="-3.108942"><ele>360</ele><time>2019-09-27T14:15:30Z</time><name>PT13478</name></trkpt>
<trkpt lat="52.952744" lon="-3.108924"><ele>360</ele><time>2019-09-27T14:15:30Z</time><name>PT13479</name></trkpt>
<trkpt lat="52.952737" lon="-3.108907"><ele>360</ele><time>2019-09-27T14:15:32Z</time><name>PT13480</name></trkpt>
<trkpt lat="52.952730" lon="-3.108890"><ele>360</ele><time>2019-09-27T14:15:33Z</time><name>PT13481</name></trkpt>
<trkpt lat="52.952722" lon="-3.108872"><ele>360</ele><time>2019-09-27T14:15:33Z</time><name>PT13482</name></trkpt>
<trkpt lat="52.952715" lon="-3.108856"><ele>360</ele><time>2019-09-27T14:15:35Z</time><name>PT13483</name></trkpt>
<trkpt lat="52.952706" lon="-3.108839"><ele>360</ele><time>2019-09-27T14:15:36Z</time><name>PT13484</name></trkpt>
<trkpt lat="52.952699" lon="-3.108822"><ele>359</ele><time>2019-09-27T14:15:36Z</time><name>PT13485</name></trkpt>
<trkpt lat="52.952692" lon="-3.108803"><ele>360</ele><time>2019-09-27T14:15:38Z</time><name>PT13486</name></trkpt>
<trkpt lat="52.952687" lon="-3.108791"><ele>359</ele><time>2019-09-27T14:15:39Z</time><name>PT13487</name></trkpt>
<trkpt lat="52.952681" lon="-3.108775"><ele>359</ele><time>2019-09-27T14:15:39Z</time><name>PT13488</name></trkpt>
<trkpt lat="52.952674" lon="-3.108755"><ele>359</ele><time>2019-09-27T14:15:41Z</time><name>PT13489</name></trkpt>
<trkpt lat="52.952667" lon="-3.108734"><ele>359</ele><time>2019-09-27T14:15:42Z</time><name>PT13490</name></trkpt>
<trkpt lat="52.952659" lon="-3.108716"><ele>359</ele><time>2019-09-27T14:15:42Z</time><name>PT13491</name></trkpt>
<trkpt lat="52.952651" lon="-3.108698"><ele>359</ele><time>2019-09-27T14:15:44Z</time><name>PT13492</name></trkpt>
<trkpt lat="52.952643" lon="-3.108681"><ele>359</ele><time>2019-09-27T14:15:45Z</time><name>PT13493</name></trkpt>
<trkpt lat="52.952635" lon="-3.108661"><ele>359</ele><time>2019-09-27T14:15:45Z</time><name>PT13494</name></trkpt>
<trkpt lat="52.952629" lon="-3.108642"><ele>360</ele><time>2019-09-27T14:15:47Z</time><name>PT13495</name></trkpt>
<trkpt lat="52.952622" lon="-3.108621"><ele>360</ele><time>2019-09-27T14:15:48Z</time><name>PT13496</name></trkpt>
<trkpt lat="52.952615" lon="-3.108599"><ele>360</ele><time>2019-09-27T14:15:48Z</time><name>PT13497</name></trkpt>
<trkpt lat="52.952609" lon="-3.108578"><ele>360</ele><time>2019-09-27T14:15:50Z</time><name>PT13498</name></trkpt>
<trkpt lat="52.952603" lon="-3.108561"><ele>360</ele><time>2019-09-27T14:15:51Z</time><name>PT13499</name></trkpt>
<trkpt lat="52.952595" lon="-3.108542"><ele>360</ele><time>2019-09-27T14:15:51Z</time><name>PT13500</name></trkpt>
<trkpt lat="52.952586" lon="-3.108523"><ele>360</ele><time>2019-09-27T14:15:53Z</time><name>PT13501</name></trkpt>
<trkpt lat="52.952577" lon="-3.108502"><ele>360</ele><time>2019-09-27T14:15:54Z</time><name>PT13502</name></trkpt>
<trkpt lat="52.952571" lon="-3.108486"><ele>359</ele><time>2019-09-27T14:15:54Z</time><name>PT13503</name></trkpt>
<trkpt lat="52.952565" lon="-3.108466"><ele>360</ele><time>2019-09-27T14:15:56Z</time><name>PT13504</name></trkpt>
<trkpt lat="52.952560" lon="-3.108448"><ele>359</ele><time>2019-09-27T14:15:57Z</time><name>PT13505</name></trkpt>
<trkpt lat="52.952552" lon="-3.108426"><ele>359</ele><time>2019-09-27T14:15:57Z</time><name>PT13506</name></trkpt>
<trkpt lat="52.952545" lon="-3.108410"><ele>359</ele><time>2019-09-27T14:15:59Z</time><name>PT13507</name></trkpt>
<trkpt lat="52.952538" lon="-3.108393"><ele>359</ele><time>2019-09-27T14:16:00Z</time><name>PT13508</name></trkpt>
<trkpt lat="52.952530" lon="-3.108375"><ele>359</ele><time>2019-09-27T14:16:01Z</time><name>PT13509</name></trkpt>
<trkpt lat="52.952522" lon="-3.108356"><ele>359</ele><time>2019-09-27T14:16:02Z</time><name>PT13510</name></trkpt>
<trkpt lat="52.952514" lon="-3.108334"><ele>359</ele><time>2019-09-27T14:16:03Z</time><name>PT13511</name></trkpt>
<trkpt lat="52.952506" lon="-3.108316"><ele>359</ele><time>2019-09-27T14:16:04Z</time><name>PT13512</name></trkpt>
<trkpt lat="52.952501" lon="-3.108300"><ele>359</ele><time>2019-09-27T14:16:05Z</time><name>PT13513</name></trkpt>
<trkpt lat="52.952493" lon="-3.108282"><ele>359</ele><time>2019-09-27T14:16:06Z</time><name>PT13514</name></trkpt>
<trkpt lat="52.952486" lon="-3.108261"><ele>359</ele><time>2019-09-27T14:16:07Z</time><name>PT13515</name></trkpt>
<trkpt lat="52.952478" lon="-3.108244"><ele>359</ele><time>2019-09-27T14:16:08Z</time><name>PT13516</name></trkpt>
<trkpt lat="52.952467" lon="-3.108222"><ele>360</ele><time>2019-09-27T14:16:09Z</time><name>PT13517</name></trkpt>
<trkpt lat="52.952459" lon="-3.108201"><ele>360</ele><time>2019-09-27T14:16:09Z</time><name>PT13518</name></trkpt>
<trkpt lat="52.952446" lon="-3.108177"><ele>361</ele><time>2019-09-27T14:16:11Z</time><name>PT13519</name></trkpt>
<trkpt lat="52.952439" lon="-3.108157"><ele>361</ele><time>2019-09-27T14:16:12Z</time><name>PT13520</name></trkpt>
<trkpt lat="52.952431" lon="-3.108136"><ele>361</ele><time>2019-09-27T14:16:13Z</time><name>PT13521</name></trkpt>
<trkpt lat="52.952424" lon="-3.108118"><ele>361</ele><time>2019-09-27T14:16:14Z</time><name>PT13522</name></trkpt>
<trkpt lat="52.952416" lon="-3.108099"><ele>361</ele><time>2019-09-27T14:16:15Z</time><name>PT13523</name></trkpt>
<trkpt lat="52.952409" lon="-3.108083"><ele>361</ele><time>2019-09-27T14:16:16Z</time><name>PT13524</name></trkpt>
<trkpt lat="52.952402" lon="-3.108064"><ele>361</ele><time>2019-09-27T14:16:17Z</time><name>PT13525</name></trkpt>
<trkpt lat="52.952395" lon="-3.108046"><ele>361</ele><time>2019-09-27T14:16:18Z</time><name>PT13526</name></trkpt>
<trkpt lat="52.952388" lon="-3.108027"><ele>361</ele><time>2019-09-27T14:16:19Z</time><name>PT13527</name></trkpt>
<trkpt lat="52.952383" lon="-3.108010"><ele>361</ele><time>2019-09-27T14:16:20Z</time><name>PT13528</name></trkpt>
<trkpt lat="52.952377" lon="-3.107992"><ele>361</ele><time>2019-09-27T14:16:21Z</time><name>PT13529</name></trkpt>
<trkpt lat="52.952372" lon="-3.107974"><ele>361</ele><time>2019-09-27T14:16:21Z</time><name>PT13530</name></trkpt>
<trkpt lat="52.952364" lon="-3.107954"><ele>361</ele><time>2019-09-27T14:16:23Z</time><name>PT13531</name></trkpt>
<trkpt lat="52.952357" lon="-3.107939"><ele>361</ele><time>2019-09-27T14:16:24Z</time><name>PT13532</name></trkpt>
<trkpt lat="52.952350" lon="-3.107923"><ele>361</ele><time>2019-09-27T14:16:24Z</time><name>PT13533</name></trkpt>
<trkpt lat="52.952344" lon="-3.107908"><ele>361</ele><time>2019-09-27T14:16:26Z</time><name>PT13534</name></trkpt>
<trkpt lat="52.952337" lon="-3.107892"><ele>360</ele><time>2019-09-27T14:16:27Z</time><name>PT13535</name></trkpt>
<trkpt lat="52.952330" lon="-3.107878"><ele>360</ele><time>2019-09-27T14:16:27Z</time><name>PT13536</name></trkpt>
<trkpt lat="52.952323" lon="-3.107862"><ele>360</ele><time>2019-09-27T14:16:29Z</time><name>PT13537</name></trkpt>
<trkpt lat="52.952316" lon="-3.107843"><ele>360</ele><time>2019-09-27T14:16:30Z</time><name>PT13538</name></trkpt>
<trkpt lat="52.952308" lon="-3.107828"><ele>360</ele><time>2019-09-27T14:16:30Z</time><name>PT13539</name></trkpt>
<trkpt lat="52.952299" lon="-3.107811"><ele>360</ele><time>2019-09-27T14:16:32Z</time><name>PT13540</name></trkpt>
<trkpt lat="52.952294" lon="-3.107796"><ele>360</ele><time>2019-09-27T14:16:33Z</time><name>PT13541</name></trkpt>
<trkpt lat="52.952287" lon="-3.107781"><ele>360</ele><time>2019-09-27T14:16:33Z</time><name>PT13542</name></trkpt>
<trkpt lat="52.952277" lon="-3.107767"><ele>360</ele><time>2019-09-27T14:16:35Z</time><name>PT13543</name></trkpt>
<trkpt lat="52.952271" lon="-3.107751"><ele>359</ele><time>2019-09-27T14:16:36Z</time><name>PT13544</name></trkpt>
<trkpt lat="52.952265" lon="-3.107735"><ele>359</ele><time>2019-09-27T14:16:36Z</time><name>PT13545</name></trkpt>
<trkpt lat="52.952254" lon="-3.107718"><ele>359</ele><time>2019-09-27T14:16:38Z</time><name>PT13546</name></trkpt>
<trkpt lat="52.952244" lon="-3.107701"><ele>359</ele><time>2019-09-27T14:16:39Z</time><name>PT13547</name></trkpt>
<trkpt lat="52.952236" lon="-3.107684"><ele>359</ele><time>2019-09-27T14:16:39Z</time><name>PT13548</name></trkpt>
<trkpt lat="52.952228" lon="-3.107668"><ele>359</ele><time>2019-09-27T14:16:41Z</time><name>PT13549</name></trkpt>
<trkpt lat="52.952220" lon="-3.107652"><ele>358</ele><time>2019-09-27T14:16:42Z</time><name>PT13550</name></trkpt>
<trkpt lat="52.952211" lon="-3.107638"><ele>358</ele><time>2019-09-27T14:16:42Z</time><name>PT13551</name></trkpt>
<trkpt lat="52.952201" lon="-3.107621"><ele>358</ele><time>2019-09-27T14:16:44Z</time><name>PT13552</name></trkpt>
<trkpt lat="52.952196" lon="-3.107606"><ele>358</ele><time>2019-09-27T14:16:45Z</time><name>PT13553</name></trkpt>
<trkpt lat="52.952190" lon="-3.107588"><ele>357</ele><time>2019-09-27T14:16:45Z</time><name>PT13554</name></trkpt>
<trkpt lat="52.952183" lon="-3.107568"><ele>357</ele><time>2019-09-27T14:16:47Z</time><name>PT13555</name></trkpt>
<trkpt lat="52.952174" lon="-3.107550"><ele>357</ele><time>2019-09-27T14:16:48Z</time><name>PT13556</name></trkpt>
<trkpt lat="52.952167" lon="-3.107536"><ele>357</ele><time>2019-09-27T14:16:48Z</time><name>PT13557</name></trkpt>
<trkpt lat="52.952159" lon="-3.107521"><ele>357</ele><time>2019-09-27T14:16:50Z</time><name>PT13558</name></trkpt>
<trkpt lat="52.952151" lon="-3.107505"><ele>357</ele><time>2019-09-27T14:16:51Z</time><name>PT13559</name></trkpt>
<trkpt lat="52.952144" lon="-3.107489"><ele>357</ele><time>2019-09-27T14:16:51Z</time><name>PT13560</name></trkpt>
<trkpt lat="52.952137" lon="-3.107474"><ele>357</ele><time>2019-09-27T14:16:53Z</time><name>PT13561</name></trkpt>
<trkpt lat="52.952129" lon="-3.107459"><ele>357</ele><time>2019-09-27T14:16:54Z</time><name>PT13562</name></trkpt>
<trkpt lat="52.952121" lon="-3.107439"><ele>357</ele><time>2019-09-27T14:16:54Z</time><name>PT13563</name></trkpt>
<trkpt lat="52.952113" lon="-3.107420"><ele>357</ele><time>2019-09-27T14:16:56Z</time><name>PT13564</name></trkpt>
<trkpt lat="52.952105" lon="-3.107406"><ele>358</ele><time>2019-09-27T14:16:57Z</time><name>PT13565</name></trkpt>
<trkpt lat="52.952096" lon="-3.107385"><ele>358</ele><time>2019-09-27T14:16:57Z</time><name>PT13566</name></trkpt>
<trkpt lat="52.952089" lon="-3.107367"><ele>358</ele><time>2019-09-27T14:16:59Z</time><name>PT13567</name></trkpt>
<trkpt lat="52.952079" lon="-3.107350"><ele>358</ele><time>2019-09-27T14:17:00Z</time><name>PT13568</name></trkpt>
<trkpt lat="52.952074" lon="-3.107334"><ele>357</ele><time>2019-09-27T14:17:00Z</time><name>PT13569</name></trkpt>
<trkpt lat="52.952066" lon="-3.107320"><ele>357</ele><time>2019-09-27T14:17:02Z</time><name>PT13570</name></trkpt>
<trkpt lat="52.952058" lon="-3.107303"><ele>357</ele><time>2019-09-27T14:17:03Z</time><name>PT13571</name></trkpt>
<trkpt lat="52.952051" lon="-3.107286"><ele>357</ele><time>2019-09-27T14:17:03Z</time><name>PT13572</name></trkpt>
<trkpt lat="52.952044" lon="-3.107267"><ele>357</ele><time>2019-09-27T14:17:05Z</time><name>PT13573</name></trkpt>
<trkpt lat="52.952038" lon="-3.107249"><ele>357</ele><time>2019-09-27T14:17:06Z</time><name>PT13574</name></trkpt>
<trkpt lat="52.952032" lon="-3.107236"><ele>357</ele><time>2019-09-27T14:17:06Z</time><name>PT13575</name></trkpt>
<trkpt lat="52.952023" lon="-3.107222"><ele>357</ele><time>2019-09-27T14:17:08Z</time><name>PT13576</name></trkpt>
<trkpt lat="52.952012" lon="-3.107206"><ele>356</ele><time>2019-09-27T14:17:09Z</time><name>PT13577</name></trkpt>
<trkpt lat="52.952002" lon="-3.107188"><ele>356</ele><time>2019-09-27T14:17:10Z</time><name>PT13578</name></trkpt>
<trkpt lat="52.951994" lon="-3.107171"><ele>356</ele><time>2019-09-27T14:17:11Z</time><name>PT13579</name></trkpt>
<trkpt lat="52.951985" lon="-3.107155"><ele>356</ele><time>2019-09-27T14:17:12Z</time><name>PT13580</name></trkpt>
<trkpt lat="52.951977" lon="-3.107137"><ele>356</ele><time>2019-09-27T14:17:12Z</time><name>PT13581</name></trkpt>
<trkpt lat="52.951972" lon="-3.107120"><ele>356</ele><time>2019-09-27T14:17:14Z</time><name>PT13582</name></trkpt>
<trkpt lat="52.951962" lon="-3.107104"><ele>356</ele><time>2019-09-27T14:17:15Z</time><name>PT13583</name></trkpt>
<trkpt lat="52.951952" lon="-3.107087"><ele>357</ele><time>2019-09-27T14:17:16Z</time><name>PT13584</name></trkpt>
<trkpt lat="52.951944" lon="-3.107066"><ele>357</ele><time>2019-09-27T14:17:17Z</time><name>PT13585</name></trkpt>
<trkpt lat="52.951934" lon="-3.107048"><ele>357</ele><time>2019-09-27T14:17:18Z</time><name>PT13586</name></trkpt>
<trkpt lat="52.951927" lon="-3.107031"><ele>356</ele><time>2019-09-27T14:17:18Z</time><name>PT13587</name></trkpt>
<trkpt lat="52.951918" lon="-3.107018"><ele>356</ele><time>2019-09-27T14:17:20Z</time><name>PT13588</name></trkpt>
<trkpt lat="52.951911" lon="-3.107004"><ele>356</ele><time>2019-09-27T14:17:21Z</time><name>PT13589</name></trkpt>
<trkpt lat="52.951901" lon="-3.106986"><ele>356</ele><time>2019-09-27T14:17:22Z</time><name>PT13590</name></trkpt>
<trkpt lat="52.951890" lon="-3.106971"><ele>356</ele><time>2019-09-27T14:17:23Z</time><name>PT13591</name></trkpt>
<trkpt lat="52.951879" lon="-3.106953"><ele>357</ele><time>2019-09-27T14:17:24Z</time><name>PT13592</name></trkpt>
<trkpt lat="52.951872" lon="-3.106939"><ele>356</ele><time>2019-09-27T14:17:25Z</time><name>PT13593</name></trkpt>
<trkpt lat="52.951863" lon="-3.106921"><ele>357</ele><time>2019-09-27T14:17:26Z</time><name>PT13594</name></trkpt>
<trkpt lat="52.951855" lon="-3.106901"><ele>356</ele><time>2019-09-27T14:17:27Z</time><name>PT13595</name></trkpt>
<trkpt lat="52.951846" lon="-3.106882"><ele>356</ele><time>2019-09-27T14:17:28Z</time><name>PT13596</name></trkpt>
<trkpt lat="52.951838" lon="-3.106865"><ele>356</ele><time>2019-09-27T14:17:29Z</time><name>PT13597</name></trkpt>
<trkpt lat="52.951830" lon="-3.106841"><ele>356</ele><time>2019-09-27T14:17:30Z</time><name>PT13598</name></trkpt>
<trkpt lat="52.951822" lon="-3.106822"><ele>356</ele><time>2019-09-27T14:17:31Z</time><name>PT13599</name></trkpt>
<trkpt lat="52.951814" lon="-3.106805"><ele>357</ele><time>2019-09-27T14:17:32Z</time><name>PT13600</name></trkpt>
<trkpt lat="52.951806" lon="-3.106788"><ele>357</ele><time>2019-09-27T14:17:33Z</time><name>PT13601</name></trkpt>
<trkpt lat="52.951796" lon="-3.106773"><ele>357</ele><time>2019-09-27T14:17:34Z</time><name>PT13602</name></trkpt>
<trkpt lat="52.951787" lon="-3.106753"><ele>357</ele><time>2019-09-27T14:17:35Z</time><name>PT13603</name></trkpt>
<trkpt lat="52.951779" lon="-3.106735"><ele>357</ele><time>2019-09-27T14:17:36Z</time><name>PT13604</name></trkpt>
<trkpt lat="52.951772" lon="-3.106720"><ele>357</ele><time>2019-09-27T14:17:37Z</time><name>PT13605</name></trkpt>
<trkpt lat="52.951764" lon="-3.106701"><ele>357</ele><time>2019-09-27T14:17:38Z</time><name>PT13606</name></trkpt>
<trkpt lat="52.951756" lon="-3.106683"><ele>357</ele><time>2019-09-27T14:17:39Z</time><name>PT13607</name></trkpt>
<trkpt lat="52.951748" lon="-3.106670"><ele>357</ele><time>2019-09-27T14:17:39Z</time><name>PT13608</name></trkpt>
<trkpt lat="52.951741" lon="-3.106653"><ele>357</ele><time>2019-09-27T14:17:41Z</time><name>PT13609</name></trkpt>
<trkpt lat="52.951732" lon="-3.106637"><ele>357</ele><time>2019-09-27T14:17:42Z</time><name>PT13610</name></trkpt>
<trkpt lat="52.951723" lon="-3.106617"><ele>358</ele><time>2019-09-27T14:17:42Z</time><name>PT13611</name></trkpt>
<trkpt lat="52.951715" lon="-3.106603"><ele>358</ele><time>2019-09-27T14:17:44Z</time><name>PT13612</name></trkpt>
<trkpt lat="52.951706" lon="-3.106587"><ele>358</ele><time>2019-09-27T14:17:45Z</time><name>PT13613</name></trkpt>
<trkpt lat="52.951699" lon="-3.106573"><ele>357</ele><time>2019-09-27T14:17:45Z</time><name>PT13614</name></trkpt>
<trkpt lat="52.951691" lon="-3.106559"><ele>357</ele><time>2019-09-27T14:17:47Z</time><name>PT13615</name></trkpt>
<trkpt lat="52.951681" lon="-3.106545"><ele>357</ele><time>2019-09-27T14:17:48Z</time><name>PT13616</name></trkpt>
<trkpt lat="52.951672" lon="-3.106532"><ele>357</ele><time>2019-09-27T14:17:48Z</time><name>PT13617</name></trkpt>
<trkpt lat="52.951663" lon="-3.106518"><ele>357</ele><time>2019-09-27T14:17:50Z</time><name>PT13618</name></trkpt>
<trkpt lat="52.951655" lon="-3.106505"><ele>357</ele><time>2019-09-27T14:17:51Z</time><name>PT13619</name></trkpt>
<trkpt lat="52.951647" lon="-3.106489"><ele>357</ele><time>2019-09-27T14:17:51Z</time><name>PT13620</name></trkpt>
<trkpt lat="52.951639" lon="-3.106471"><ele>357</ele><time>2019-09-27T14:17:53Z</time><name>PT13621</name></trkpt>
<trkpt lat="52.951630" lon="-3.106452"><ele>357</ele><time>2019-09-27T14:17:54Z</time><name>PT13622</name></trkpt>
<trkpt lat="52.951621" lon="-3.106441"><ele>357</ele><time>2019-09-27T14:17:55Z</time><name>PT13623</name></trkpt>
<trkpt lat="52.951610" lon="-3.106426"><ele>357</ele><time>2019-09-27T14:17:56Z</time><name>PT13624</name></trkpt>
<trkpt lat="52.951599" lon="-3.106409"><ele>357</ele><time>2019-09-27T14:17:57Z</time><name>PT13625</name></trkpt>
<trkpt lat="52.951589" lon="-3.106390"><ele>357</ele><time>2019-09-27T14:17:58Z</time><name>PT13626</name></trkpt>
<trkpt lat="52.951580" lon="-3.106376"><ele>357</ele><time>2019-09-27T14:17:59Z</time><name>PT13627</name></trkpt>
<trkpt lat="52.951574" lon="-3.106360"><ele>356</ele><time>2019-09-27T14:18:00Z</time><name>PT13628</name></trkpt>
<trkpt lat="52.951563" lon="-3.106339"><ele>356</ele><time>2019-09-27T14:18:00Z</time><name>PT13629</name></trkpt>
<trkpt lat="52.951553" lon="-3.106324"><ele>356</ele><time>2019-09-27T14:18:02Z</time><name>PT13630</name></trkpt>
<trkpt lat="52.951544" lon="-3.106308"><ele>356</ele><time>2019-09-27T14:18:03Z</time><name>PT13631</name></trkpt>
<trkpt lat="52.951534" lon="-3.106293"><ele>356</ele><time>2019-09-27T14:18:03Z</time><name>PT13632</name></trkpt>
<trkpt lat="52.951527" lon="-3.106280"><ele>356</ele><time>2019-09-27T14:18:05Z</time><name>PT13633</name></trkpt>
<trkpt lat="52.951518" lon="-3.106265"><ele>356</ele><time>2019-09-27T14:18:06Z</time><name>PT13634</name></trkpt>
<trkpt lat="52.951511" lon="-3.106249"><ele>356</ele><time>2019-09-27T14:18:06Z</time><name>PT13635</name></trkpt>
<trkpt lat="52.951506" lon="-3.106232"><ele>355</ele><time>2019-09-27T14:18:08Z</time><name>PT13636</name></trkpt>
<trkpt lat="52.951495" lon="-3.106222"><ele>355</ele><time>2019-09-27T14:18:09Z</time><name>PT13637</name></trkpt>
<trkpt lat="52.951486" lon="-3.106207"><ele>355</ele><time>2019-09-27T14:18:09Z</time><name>PT13638</name></trkpt>
<trkpt lat="52.951478" lon="-3.106191"><ele>355</ele><time>2019-09-27T14:18:11Z</time><name>PT13639</name></trkpt>
<trkpt lat="52.951468" lon="-3.106174"><ele>355</ele><time>2019-09-27T14:18:12Z</time><name>PT13640</name></trkpt>
<trkpt lat="52.951460" lon="-3.106161"><ele>355</ele><time>2019-09-27T14:18:12Z</time><name>PT13641</name></trkpt>
<trkpt lat="52.951454" lon="-3.106147"><ele>355</ele><time>2019-09-27T14:18:14Z</time><name>PT13642</name></trkpt>
<trkpt lat="52.951449" lon="-3.106135"><ele>355</ele><time>2019-09-27T14:18:15Z</time><name>PT13643</name></trkpt>
<trkpt lat="52.951444" lon="-3.106129"><ele>355</ele><time>2019-09-27T14:18:15Z</time><name>PT13644</name></trkpt>
<trkpt lat="52.951438" lon="-3.106121"><ele>355</ele><time>2019-09-27T14:18:17Z</time><name>PT13645</name></trkpt>
<trkpt lat="52.951433" lon="-3.106111"><ele>355</ele><time>2019-09-27T14:18:18Z</time><name>PT13646</name></trkpt>
<trkpt lat="52.951428" lon="-3.106100"><ele>355</ele><time>2019-09-27T14:18:18Z</time><name>PT13647</name></trkpt>
<trkpt lat="52.951430" lon="-3.106089"><ele>355</ele><time>2019-09-27T14:18:20Z</time><name>PT13648</name></trkpt>
<trkpt lat="52.951431" lon="-3.106079"><ele>355</ele><time>2019-09-27T14:18:21Z</time><name>PT13649</name></trkpt>
<trkpt lat="52.951430" lon="-3.106077"><ele>355</ele><time>2019-09-27T14:18:21Z</time><name>PT13650</name></trkpt>
<trkpt lat="52.951429" lon="-3.106077"><ele>355</ele><time>2019-09-27T14:18:23Z</time><name>PT13651</name></trkpt>
<trkpt lat="52.951428" lon="-3.106075"><ele>355</ele><time>2019-09-27T14:18:24Z</time><name>PT13652</name></trkpt>
<trkpt lat="52.951423" lon="-3.106070"><ele>355</ele><time>2019-09-27T14:18:27Z</time><name>PT13653</name></trkpt>
<trkpt lat="52.951414" lon="-3.106055"><ele>355</ele><time>2019-09-27T14:18:29Z</time><name>PT13654</name></trkpt>
<trkpt lat="52.951404" lon="-3.106044"><ele>354</ele><time>2019-09-27T14:18:30Z</time><name>PT13655</name></trkpt>
<trkpt lat="52.951399" lon="-3.106033"><ele>354</ele><time>2019-09-27T14:18:30Z</time><name>PT13656</name></trkpt>
<trkpt lat="52.951394" lon="-3.106025"><ele>355</ele><time>2019-09-27T14:18:32Z</time><name>PT13657</name></trkpt>
<trkpt lat="52.951387" lon="-3.106017"><ele>354</ele><time>2019-09-27T14:18:33Z</time><name>PT13658</name></trkpt>
<trkpt lat="52.951379" lon="-3.106009"><ele>354</ele><time>2019-09-27T14:18:33Z</time><name>PT13659</name></trkpt>
<trkpt lat="52.951370" lon="-3.105995"><ele>354</ele><time>2019-09-27T14:18:35Z</time><name>PT13660</name></trkpt>
<trkpt lat="52.951362" lon="-3.105986"><ele>354</ele><time>2019-09-27T14:18:36Z</time><name>PT13661</name></trkpt>
<trkpt lat="52.951353" lon="-3.105975"><ele>354</ele><time>2019-09-27T14:18:36Z</time><name>PT13662</name></trkpt>
<trkpt lat="52.951345" lon="-3.105965"><ele>354</ele><time>2019-09-27T14:18:38Z</time><name>PT13663</name></trkpt>
<trkpt lat="52.951339" lon="-3.105953"><ele>354</ele><time>2019-09-27T14:18:39Z</time><name>PT13664</name></trkpt>
<trkpt lat="52.951331" lon="-3.105941"><ele>354</ele><time>2019-09-27T14:18:39Z</time><name>PT13665</name></trkpt>
<trkpt lat="52.951325" lon="-3.105932"><ele>353</ele><time>2019-09-27T14:18:41Z</time><name>PT13666</name></trkpt>
<trkpt lat="52.951317" lon="-3.105915"><ele>354</ele><time>2019-09-27T14:18:42Z</time><name>PT13667</name></trkpt>
<trkpt lat="52.951310" lon="-3.105901"><ele>353</ele><time>2019-09-27T14:18:42Z</time><name>PT13668</name></trkpt>
<trkpt lat="52.951305" lon="-3.105889"><ele>354</ele><time>2019-09-27T14:18:44Z</time><name>PT13669</name></trkpt>
<trkpt lat="52.951299" lon="-3.105876"><ele>354</ele><time>2019-09-27T14:18:45Z</time><name>PT13670</name></trkpt>
<trkpt lat="52.951290" lon="-3.105861"><ele>355</ele><time>2019-09-27T14:18:45Z</time><name>PT13671</name></trkpt>
<trkpt lat="52.951281" lon="-3.105849"><ele>356</ele><time>2019-09-27T14:18:47Z</time><name>PT13672</name></trkpt>
<trkpt lat="52.951276" lon="-3.105837"><ele>356</ele><time>2019-09-27T14:18:48Z</time><name>PT13673</name></trkpt>
<trkpt lat="52.951270" lon="-3.105825"><ele>355</ele><time>2019-09-27T14:18:48Z</time><name>PT13674</name></trkpt>
<trkpt lat="52.951262" lon="-3.105816"><ele>355</ele><time>2019-09-27T14:18:50Z</time><name>PT13675</name></trkpt>
<trkpt lat="52.951254" lon="-3.105804"><ele>355</ele><time>2019-09-27T14:18:51Z</time><name>PT13676</name></trkpt>
<trkpt lat="52.951245" lon="-3.105794"><ele>355</ele><time>2019-09-27T14:18:51Z</time><name>PT13677</name></trkpt>
<trkpt lat="52.951233" lon="-3.105783"><ele>354</ele><time>2019-09-27T14:18:53Z</time><name>PT13678</name></trkpt>
<trkpt lat="52.951223" lon="-3.105773"><ele>354</ele><time>2019-09-27T14:18:54Z</time><name>PT13679</name></trkpt>
<trkpt lat="52.951212" lon="-3.105767"><ele>354</ele><time>2019-09-27T14:18:54Z</time><name>PT13680</name></trkpt>
<trkpt lat="52.951203" lon="-3.105762"><ele>354</ele><time>2019-09-27T14:18:56Z</time><name>PT13681</name></trkpt>
<trkpt lat="52.951192" lon="-3.105748"><ele>354</ele><time>2019-09-27T14:18:57Z</time><name>PT13682</name></trkpt>
<trkpt lat="52.951184" lon="-3.105739"><ele>353</ele><time>2019-09-27T14:18:58Z</time><name>PT13683</name></trkpt>
<trkpt lat="52.951174" lon="-3.105726"><ele>353</ele><time>2019-09-27T14:18:59Z</time><name>PT13684</name></trkpt>
<trkpt lat="52.951166" lon="-3.105714"><ele>353</ele><time>2019-09-27T14:19:00Z</time><name>PT13685</name></trkpt>
<trkpt lat="52.951159" lon="-3.105702"><ele>352</ele><time>2019-09-27T14:19:01Z</time><name>PT13686</name></trkpt>
<trkpt lat="52.951149" lon="-3.105689"><ele>353</ele><time>2019-09-27T14:19:02Z</time><name>PT13687</name></trkpt>
<trkpt lat="52.951135" lon="-3.105676"><ele>353</ele><time>2019-09-27T14:19:03Z</time><name>PT13688</name></trkpt>
<trkpt lat="52.951123" lon="-3.105662"><ele>353</ele><time>2019-09-27T14:19:04Z</time><name>PT13689</name></trkpt>
<trkpt lat="52.951115" lon="-3.105649"><ele>353</ele><time>2019-09-27T14:19:05Z</time><name>PT13690</name></trkpt>
<trkpt lat="52.951105" lon="-3.105637"><ele>353</ele><time>2019-09-27T14:19:06Z</time><name>PT13691</name></trkpt>
<trkpt lat="52.951095" lon="-3.105627"><ele>353</ele><time>2019-09-27T14:19:07Z</time><name>PT13692</name></trkpt>
<trkpt lat="52.951086" lon="-3.105615"><ele>352</ele><time>2019-09-27T14:19:08Z</time><name>PT13693</name></trkpt>
<trkpt lat="52.951074" lon="-3.105601"><ele>352</ele><time>2019-09-27T14:19:09Z</time><name>PT13694</name></trkpt>
<trkpt lat="52.951062" lon="-3.105589"><ele>353</ele><time>2019-09-27T14:19:10Z</time><name>PT13695</name></trkpt>
<trkpt lat="52.951052" lon="-3.105577"><ele>353</ele><time>2019-09-27T14:19:11Z</time><name>PT13696</name></trkpt>
<trkpt lat="52.951042" lon="-3.105566"><ele>353</ele><time>2019-09-27T14:19:12Z</time><name>PT13697</name></trkpt>
<trkpt lat="52.951035" lon="-3.105556"><ele>353</ele><time>2019-09-27T14:19:13Z</time><name>PT13698</name></trkpt>
<trkpt lat="52.951028" lon="-3.105544"><ele>353</ele><time>2019-09-27T14:19:14Z</time><name>PT13699</name></trkpt>
<trkpt lat="52.951020" lon="-3.105534"><ele>352</ele><time>2019-09-27T14:19:15Z</time><name>PT13700</name></trkpt>
<trkpt lat="52.951011" lon="-3.105522"><ele>352</ele><time>2019-09-27T14:19:16Z</time><name>PT13701</name></trkpt>
<trkpt lat="52.951004" lon="-3.105518"><ele>352</ele><time>2019-09-27T14:19:17Z</time><name>PT13702</name></trkpt>
<trkpt lat="52.950997" lon="-3.105506"><ele>351</ele><time>2019-09-27T14:19:18Z</time><name>PT13703</name></trkpt>
<trkpt lat="52.950988" lon="-3.105490"><ele>351</ele><time>2019-09-27T14:19:19Z</time><name>PT13704</name></trkpt>
<trkpt lat="52.950979" lon="-3.105480"><ele>351</ele><time>2019-09-27T14:19:20Z</time><name>PT13705</name></trkpt>
<trkpt lat="52.950966" lon="-3.105468"><ele>352</ele><time>2019-09-27T14:19:21Z</time><name>PT13706</name></trkpt>
<trkpt lat="52.950955" lon="-3.105452"><ele>352</ele><time>2019-09-27T14:19:22Z</time><name>PT13707</name></trkpt>
<trkpt lat="52.950945" lon="-3.105442"><ele>352</ele><time>2019-09-27T14:19:23Z</time><name>PT13708</name></trkpt>
<trkpt lat="52.950935" lon="-3.105430"><ele>352</ele><time>2019-09-27T14:19:24Z</time><name>PT13709</name></trkpt>
<trkpt lat="52.950922" lon="-3.105416"><ele>352</ele><time>2019-09-27T14:19:24Z</time><name>PT13710</name></trkpt>
<trkpt lat="52.950912" lon="-3.105402"><ele>352</ele><time>2019-09-27T14:19:26Z</time><name>PT13711</name></trkpt>
<trkpt lat="52.950901" lon="-3.105389"><ele>352</ele><time>2019-09-27T14:19:27Z</time><name>PT13712</name></trkpt>
<trkpt lat="52.950888" lon="-3.105376"><ele>352</ele><time>2019-09-27T14:19:27Z</time><name>PT13713</name></trkpt>
<trkpt lat="52.950877" lon="-3.105362"><ele>352</ele><time>2019-09-27T14:19:29Z</time><name>PT13714</name></trkpt>
<trkpt lat="52.950868" lon="-3.105356"><ele>352</ele><time>2019-09-27T14:19:30Z</time><name>PT13715</name></trkpt>
<trkpt lat="52.950858" lon="-3.105344"><ele>352</ele><time>2019-09-27T14:19:30Z</time><name>PT13716</name></trkpt>
<trkpt lat="52.950849" lon="-3.105325"><ele>353</ele><time>2019-09-27T14:19:32Z</time><name>PT13717</name></trkpt>
<trkpt lat="52.950840" lon="-3.105310"><ele>353</ele><time>2019-09-27T14:19:33Z</time><name>PT13718</name></trkpt>
<trkpt lat="52.950830" lon="-3.105296"><ele>353</ele><time>2019-09-27T14:19:33Z</time><name>PT13719</name></trkpt>
<trkpt lat="52.950820" lon="-3.105282"><ele>353</ele><time>2019-09-27T14:19:35Z</time><name>PT13720</name></trkpt>
<trkpt lat="52.950809" lon="-3.105268"><ele>353</ele><time>2019-09-27T14:19:36Z</time><name>PT13721</name></trkpt>
<trkpt lat="52.950799" lon="-3.105257"><ele>353</ele><time>2019-09-27T14:19:36Z</time><name>PT13722</name></trkpt>
<trkpt lat="52.950790" lon="-3.105244"><ele>353</ele><time>2019-09-27T14:19:38Z</time><name>PT13723</name></trkpt>
<trkpt lat="52.950779" lon="-3.105229"><ele>353</ele><time>2019-09-27T14:19:39Z</time><name>PT13724</name></trkpt>
<trkpt lat="52.950769" lon="-3.105215"><ele>353</ele><time>2019-09-27T14:19:39Z</time><name>PT13725</name></trkpt>
<trkpt lat="52.950760" lon="-3.105197"><ele>353</ele><time>2019-09-27T14:19:41Z</time><name>PT13726</name></trkpt>
<trkpt lat="52.950750" lon="-3.105184"><ele>353</ele><time>2019-09-27T14:19:42Z</time><name>PT13727</name></trkpt>
<trkpt lat="52.950739" lon="-3.105166"><ele>353</ele><time>2019-09-27T14:19:42Z</time><name>PT13728</name></trkpt>
<trkpt lat="52.950727" lon="-3.105153"><ele>353</ele><time>2019-09-27T14:19:44Z</time><name>PT13729</name></trkpt>
<trkpt lat="52.950717" lon="-3.105143"><ele>353</ele><time>2019-09-27T14:19:45Z</time><name>PT13730</name></trkpt>
<trkpt lat="52.950707" lon="-3.105124"><ele>353</ele><time>2019-09-27T14:19:45Z</time><name>PT13731</name></trkpt>
<trkpt lat="52.950698" lon="-3.105113"><ele>353</ele><time>2019-09-27T14:19:47Z</time><name>PT13732</name></trkpt>
<trkpt lat="52.950687" lon="-3.105102"><ele>353</ele><time>2019-09-27T14:19:48Z</time><name>PT13733</name></trkpt>
<trkpt lat="52.950675" lon="-3.105091"><ele>353</ele><time>2019-09-27T14:19:48Z</time><name>PT13734</name></trkpt>
<trkpt lat="52.950665" lon="-3.105080"><ele>353</ele><time>2019-09-27T14:19:50Z</time><name>PT13735</name></trkpt>
<trkpt lat="52.950656" lon="-3.105064"><ele>353</ele><time>2019-09-27T14:19:51Z</time><name>PT13736</name></trkpt>
<trkpt lat="52.950645" lon="-3.105047"><ele>353</ele><time>2019-09-27T14:19:51Z</time><name>PT13737</name></trkpt>
<trkpt lat="52.950636" lon="-3.105036"><ele>353</ele><time>2019-09-27T14:19:53Z</time><name>PT13738</name></trkpt>
<trkpt lat="52.950627" lon="-3.105024"><ele>353</ele><time>2019-09-27T14:19:54Z</time><name>PT13739</name></trkpt>
<trkpt lat="52.950617" lon="-3.105011"><ele>353</ele><time>2019-09-27T14:19:54Z</time><name>PT13740</name></trkpt>
<trkpt lat="52.950606" lon="-3.104996"><ele>353</ele><time>2019-09-27T14:19:56Z</time><name>PT13741</name></trkpt>
<trkpt lat="52.950598" lon="-3.104981"><ele>353</ele><time>2019-09-27T14:19:57Z</time><name>PT13742</name></trkpt>
<trkpt lat="52.950590" lon="-3.104970"><ele>353</ele><time>2019-09-27T14:19:57Z</time><name>PT13743</name></trkpt>
<trkpt lat="52.950581" lon="-3.104959"><ele>353</ele><time>2019-09-27T14:19:59Z</time><name>PT13744</name></trkpt>
<trkpt lat="52.950571" lon="-3.104951"><ele>353</ele><time>2019-09-27T14:20:00Z</time><name>PT13745</name></trkpt>
<trkpt lat="52.950561" lon="-3.104942"><ele>353</ele><time>2019-09-27T14:20:00Z</time><name>PT13746</name></trkpt>
<trkpt lat="52.950553" lon="-3.104935"><ele>352</ele><time>2019-09-27T14:20:02Z</time><name>PT13747</name></trkpt>
<trkpt lat="52.950544" lon="-3.104928"><ele>352</ele><time>2019-09-27T14:20:03Z</time><name>PT13748</name></trkpt>
<trkpt lat="52.950535" lon="-3.104921"><ele>352</ele><time>2019-09-27T14:20:03Z</time><name>PT13749</name></trkpt>
<trkpt lat="52.950527" lon="-3.104911"><ele>352</ele><time>2019-09-27T14:20:05Z</time><name>PT13750</name></trkpt>
<trkpt lat="52.950519" lon="-3.104902"><ele>352</ele><time>2019-09-27T14:20:06Z</time><name>PT13751</name></trkpt>
<trkpt lat="52.950512" lon="-3.104897"><ele>352</ele><time>2019-09-27T14:20:06Z</time><name>PT13752</name></trkpt>
<trkpt lat="52.950503" lon="-3.104886"><ele>352</ele><time>2019-09-27T14:20:08Z</time><name>PT13753</name></trkpt>
<trkpt lat="52.950495" lon="-3.104879"><ele>351</ele><time>2019-09-27T14:20:09Z</time><name>PT13754</name></trkpt>
<trkpt lat="52.950486" lon="-3.104883"><ele>350</ele><time>2019-09-27T14:20:09Z</time><name>PT13755</name></trkpt>
<trkpt lat="52.950479" lon="-3.104870"><ele>350</ele><time>2019-09-27T14:20:11Z</time><name>PT13756</name></trkpt>
<trkpt lat="52.950470" lon="-3.104856"><ele>349</ele><time>2019-09-27T14:20:12Z</time><name>PT13757</name></trkpt>
<trkpt lat="52.950460" lon="-3.104844"><ele>349</ele><time>2019-09-27T14:20:12Z</time><name>PT13758</name></trkpt>
<trkpt lat="52.950451" lon="-3.104835"><ele>348</ele><time>2019-09-27T14:20:14Z</time><name>PT13759</name></trkpt>
<trkpt lat="52.950445" lon="-3.104821"><ele>348</ele><time>2019-09-27T14:20:15Z</time><name>PT13760</name></trkpt>
<trkpt lat="52.950438" lon="-3.104805"><ele>347</ele><time>2019-09-27T14:20:15Z</time><name>PT13761</name></trkpt>
<trkpt lat="52.950428" lon="-3.104788"><ele>347</ele><time>2019-09-27T14:20:17Z</time><name>PT13762</name></trkpt>
<trkpt lat="52.950419" lon="-3.104776"><ele>347</ele><time>2019-09-27T14:20:18Z</time><name>PT13763</name></trkpt>
<trkpt lat="52.950411" lon="-3.104762"><ele>347</ele><time>2019-09-27T14:20:18Z</time><name>PT13764</name></trkpt>
<trkpt lat="52.950399" lon="-3.104751"><ele>348</ele><time>2019-09-27T14:20:20Z</time><name>PT13765</name></trkpt>
<trkpt lat="52.950387" lon="-3.104738"><ele>347</ele><time>2019-09-27T14:20:21Z</time><name>PT13766</name></trkpt>
<trkpt lat="52.950378" lon="-3.104729"><ele>347</ele><time>2019-09-27T14:20:21Z</time><name>PT13767</name></trkpt>
<trkpt lat="52.950367" lon="-3.104712"><ele>347</ele><time>2019-09-27T14:20:23Z</time><name>PT13768</name></trkpt>
<trkpt lat="52.950358" lon="-3.104700"><ele>346</ele><time>2019-09-27T14:20:24Z</time><name>PT13769</name></trkpt>
<trkpt lat="52.950348" lon="-3.104689"><ele>346</ele><time>2019-09-27T14:20:24Z</time><name>PT13770</name></trkpt>
<trkpt lat="52.950339" lon="-3.104672"><ele>347</ele><time>2019-09-27T14:20:26Z</time><name>PT13771</name></trkpt>
<trkpt lat="52.950329" lon="-3.104654"><ele>347</ele><time>2019-09-27T14:20:27Z</time><name>PT13772</name></trkpt>
<trkpt lat="52.950322" lon="-3.104643"><ele>347</ele><time>2019-09-27T14:20:27Z</time><name>PT13773</name></trkpt>
<trkpt lat="52.950311" lon="-3.104617"><ele>347</ele><time>2019-09-27T14:20:29Z</time><name>PT13774</name></trkpt>
<trkpt lat="52.950298" lon="-3.104592"><ele>347</ele><time>2019-09-27T14:20:30Z</time><name>PT13775</name></trkpt>
<trkpt lat="52.950286" lon="-3.104570"><ele>347</ele><time>2019-09-27T14:20:31Z</time><name>PT13776</name></trkpt>
<trkpt lat="52.950273" lon="-3.104552"><ele>348</ele><time>2019-09-27T14:20:32Z</time><name>PT13777</name></trkpt>
<trkpt lat="52.950260" lon="-3.104527"><ele>348</ele><time>2019-09-27T14:20:33Z</time><name>PT13778</name></trkpt>
<trkpt lat="52.950252" lon="-3.104508"><ele>348</ele><time>2019-09-27T14:20:33Z</time><name>PT13779</name></trkpt>
<trkpt lat="52.950239" lon="-3.104483"><ele>348</ele><time>2019-09-27T14:20:35Z</time><name>PT13780</name></trkpt>
<trkpt lat="52.950229" lon="-3.104469"><ele>348</ele><time>2019-09-27T14:20:36Z</time><name>PT13781</name></trkpt>
<trkpt lat="52.950220" lon="-3.104454"><ele>348</ele><time>2019-09-27T14:20:37Z</time><name>PT13782</name></trkpt>
<trkpt lat="52.950211" lon="-3.104437"><ele>348</ele><time>2019-09-27T14:20:38Z</time><name>PT13783</name></trkpt>
<trkpt lat="52.950201" lon="-3.104426"><ele>348</ele><time>2019-09-27T14:20:39Z</time><name>PT13784</name></trkpt>
<trkpt lat="52.950191" lon="-3.104414"><ele>348</ele><time>2019-09-27T14:20:40Z</time><name>PT13785</name></trkpt>
<trkpt lat="52.950183" lon="-3.104399"><ele>347</ele><time>2019-09-27T14:20:41Z</time><name>PT13786</name></trkpt>
<trkpt lat="52.950174" lon="-3.104386"><ele>347</ele><time>2019-09-27T14:20:42Z</time><name>PT13787</name></trkpt>
<trkpt lat="52.950162" lon="-3.104378"><ele>347</ele><time>2019-09-27T14:20:42Z</time><name>PT13788</name></trkpt>
<trkpt lat="52.950152" lon="-3.104364"><ele>346</ele><time>2019-09-27T14:20:44Z</time><name>PT13789</name></trkpt>
<trkpt lat="52.950141" lon="-3.104350"><ele>346</ele><time>2019-09-27T14:20:45Z</time><name>PT13790</name></trkpt>
<trkpt lat="52.950131" lon="-3.104340"><ele>346</ele><time>2019-09-27T14:20:46Z</time><name>PT13791</name></trkpt>
<trkpt lat="52.950119" lon="-3.104328"><ele>346</ele><time>2019-09-27T14:20:47Z</time><name>PT13792</name></trkpt>
<trkpt lat="52.950113" lon="-3.104318"><ele>345</ele><time>2019-09-27T14:20:48Z</time><name>PT13793</name></trkpt>
<trkpt lat="52.950104" lon="-3.104307"><ele>345</ele><time>2019-09-27T14:20:48Z</time><name>PT13794</name></trkpt>
<trkpt lat="52.950093" lon="-3.104295"><ele>345</ele><time>2019-09-27T14:20:50Z</time><name>PT13795</name></trkpt>
<trkpt lat="52.950083" lon="-3.104285"><ele>344</ele><time>2019-09-27T14:20:51Z</time><name>PT13796</name></trkpt>
<trkpt lat="52.950074" lon="-3.104269"><ele>344</ele><time>2019-09-27T14:20:51Z</time><name>PT13797</name></trkpt>
<trkpt lat="52.950064" lon="-3.104252"><ele>344</ele><time>2019-09-27T14:20:53Z</time><name>PT13798</name></trkpt>
<trkpt lat="52.950055" lon="-3.104240"><ele>343</ele><time>2019-09-27T14:20:54Z</time><name>PT13799</name></trkpt>
<trkpt lat="52.950047" lon="-3.104229"><ele>343</ele><time>2019-09-27T14:20:54Z</time><name>PT13800</name></trkpt>
<trkpt lat="52.950038" lon="-3.104220"><ele>343</ele><time>2019-09-27T14:20:56Z</time><name>PT13801</name></trkpt>
<trkpt lat="52.950028" lon="-3.104208"><ele>343</ele><time>2019-09-27T14:20:57Z</time><name>PT13802</name></trkpt>
<trkpt lat="52.950016" lon="-3.104198"><ele>343</ele><time>2019-09-27T14:20:57Z</time><name>PT13803</name></trkpt>
<trkpt lat="52.950005" lon="-3.104185"><ele>342</ele><time>2019-09-27T14:20:59Z</time><name>PT13804</name></trkpt>
<trkpt lat="52.949992" lon="-3.104178"><ele>342</ele><time>2019-09-27T14:21:00Z</time><name>PT13805</name></trkpt>
<trkpt lat="52.949983" lon="-3.104167"><ele>342</ele><time>2019-09-27T14:21:00Z</time><name>PT13806</name></trkpt>
<trkpt lat="52.949972" lon="-3.104156"><ele>342</ele><time>2019-09-27T14:21:02Z</time><name>PT13807</name></trkpt>
<trkpt lat="52.949959" lon="-3.104144"><ele>342</ele><time>2019-09-27T14:21:03Z</time><name>PT13808</name></trkpt>
<trkpt lat="52.949945" lon="-3.104136"><ele>342</ele><time>2019-09-27T14:21:03Z</time><name>PT13809</name></trkpt>
<trkpt lat="52.949934" lon="-3.104124"><ele>343</ele><time>2019-09-27T14:21:05Z</time><name>PT13810</name></trkpt>
<trkpt lat="52.949922" lon="-3.104106"><ele>343</ele><time>2019-09-27T14:21:06Z</time><name>PT13811</name></trkpt>
<trkpt lat="52.949911" lon="-3.104096"><ele>343</ele><time>2019-09-27T14:21:06Z</time><name>PT13812</name></trkpt>
<trkpt lat="52.949900" lon="-3.104081"><ele>343</ele><time>2019-09-27T14:21:08Z</time><name>PT13813</name></trkpt>
<trkpt lat="52.949885" lon="-3.104068"><ele>343</ele><time>2019-09-27T14:21:09Z</time><name>PT13814</name></trkpt>
<trkpt lat="52.949872" lon="-3.104056"><ele>344</ele><time>2019-09-27T14:21:10Z</time><name>PT13815</name></trkpt>
<trkpt lat="52.949858" lon="-3.104044"><ele>343</ele><time>2019-09-27T14:21:11Z</time><name>PT13816</name></trkpt>
<trkpt lat="52.949846" lon="-3.104031"><ele>343</ele><time>2019-09-27T14:21:12Z</time><name>PT13817</name></trkpt>
<trkpt lat="52.949835" lon="-3.104018"><ele>343</ele><time>2019-09-27T14:21:12Z</time><name>PT13818</name></trkpt>
<trkpt lat="52.949825" lon="-3.104005"><ele>343</ele><time>2019-09-27T14:21:14Z</time><name>PT13819</name></trkpt>
<trkpt lat="52.949814" lon="-3.103993"><ele>343</ele><time>2019-09-27T14:21:15Z</time><name>PT13820</name></trkpt>
<trkpt lat="52.949803" lon="-3.103982"><ele>343</ele><time>2019-09-27T14:21:16Z</time><name>PT13821</name></trkpt>
<trkpt lat="52.949791" lon="-3.103978"><ele>342</ele><time>2019-09-27T14:21:17Z</time><name>PT13822</name></trkpt>
<trkpt lat="52.949781" lon="-3.103969"><ele>343</ele><time>2019-09-27T14:21:18Z</time><name>PT13823</name></trkpt>
<trkpt lat="52.949772" lon="-3.103956"><ele>342</ele><time>2019-09-27T14:21:19Z</time><name>PT13824</name></trkpt>
<trkpt lat="52.949764" lon="-3.103944"><ele>342</ele><time>2019-09-27T14:21:20Z</time><name>PT13825</name></trkpt>
<trkpt lat="52.949755" lon="-3.103939"><ele>343</ele><time>2019-09-27T14:21:21Z</time><name>PT13826</name></trkpt>
<trkpt lat="52.949747" lon="-3.103932"><ele>343</ele><time>2019-09-27T14:21:21Z</time><name>PT13827</name></trkpt>
<trkpt lat="52.949742" lon="-3.103936"><ele>343</ele><time>2019-09-27T14:21:23Z</time><name>PT13828</name></trkpt>
<trkpt lat="52.949734" lon="-3.103937"><ele>344</ele><time>2019-09-27T14:21:24Z</time><name>PT13829</name></trkpt>
<trkpt lat="52.949727" lon="-3.103931"><ele>343</ele><time>2019-09-27T14:21:25Z</time><name>PT13830</name></trkpt>
<trkpt lat="52.949719" lon="-3.103929"><ele>342</ele><time>2019-09-27T14:21:26Z</time><name>PT13831</name></trkpt>
<trkpt lat="52.949709" lon="-3.103928"><ele>341</ele><time>2019-09-27T14:21:27Z</time><name>PT13832</name></trkpt>
<trkpt lat="52.949702" lon="-3.103926"><ele>340</ele><time>2019-09-27T14:21:27Z</time><name>PT13833</name></trkpt>
<trkpt lat="52.949692" lon="-3.103921"><ele>340</ele><time>2019-09-27T14:21:29Z</time><name>PT13834</name></trkpt>
<trkpt lat="52.949689" lon="-3.103926"><ele>339</ele><time>2019-09-27T14:21:30Z</time><name>PT13835</name></trkpt>
<trkpt lat="52.949679" lon="-3.103921"><ele>338</ele><time>2019-09-27T14:21:30Z</time><name>PT13836</name></trkpt>
<trkpt lat="52.949671" lon="-3.103910"><ele>339</ele><time>2019-09-27T14:21:32Z</time><name>PT13837</name></trkpt>
<trkpt lat="52.949664" lon="-3.103900"><ele>339</ele><time>2019-09-27T14:21:33Z</time><name>PT13838</name></trkpt>
<trkpt lat="52.949652" lon="-3.103895"><ele>338</ele><time>2019-09-27T14:21:33Z</time><name>PT13839</name></trkpt>
<trkpt lat="52.949640" lon="-3.103884"><ele>337</ele><time>2019-09-27T14:21:35Z</time><name>PT13840</name></trkpt>
<trkpt lat="52.949635" lon="-3.103874"><ele>335</ele><time>2019-09-27T14:21:36Z</time><name>PT13841</name></trkpt>
<trkpt lat="52.949624" lon="-3.103856"><ele>335</ele><time>2019-09-27T14:21:36Z</time><name>PT13842</name></trkpt>
<trkpt lat="52.949612" lon="-3.103839"><ele>335</ele><time>2019-09-27T14:21:38Z</time><name>PT13843</name></trkpt>
<trkpt lat="52.949603" lon="-3.103822"><ele>334</ele><time>2019-09-27T14:21:39Z</time><name>PT13844</name></trkpt>
<trkpt lat="52.949595" lon="-3.103807"><ele>334</ele><time>2019-09-27T14:21:39Z</time><name>PT13845</name></trkpt>
<trkpt lat="52.949587" lon="-3.103800"><ele>333</ele><time>2019-09-27T14:21:41Z</time><name>PT13846</name></trkpt>
<trkpt lat="52.949576" lon="-3.103780"><ele>333</ele><time>2019-09-27T14:21:42Z</time><name>PT13847</name></trkpt>
<trkpt lat="52.949568" lon="-3.103769"><ele>332</ele><time>2019-09-27T14:21:42Z</time><name>PT13848</name></trkpt>
<trkpt lat="52.949561" lon="-3.103764"><ele>331</ele><time>2019-09-27T14:21:44Z</time><name>PT13849</name></trkpt>
<trkpt lat="52.949550" lon="-3.103763"><ele>331</ele><time>2019-09-27T14:21:45Z</time><name>PT13850</name></trkpt>
<trkpt lat="52.949543" lon="-3.103765"><ele>330</ele><time>2019-09-27T14:21:45Z</time><name>PT13851</name></trkpt>
<trkpt lat="52.949539" lon="-3.103761"><ele>328</ele><time>2019-09-27T14:21:47Z</time><name>PT13852</name></trkpt>
<trkpt lat="52.949535" lon="-3.103748"><ele>327</ele><time>2019-09-27T14:21:48Z</time><name>PT13853</name></trkpt>
<trkpt lat="52.949526" lon="-3.103735"><ele>327</ele><time>2019-09-27T14:21:48Z</time><name>PT13854</name></trkpt>
<trkpt lat="52.949517" lon="-3.103719"><ele>327</ele><time>2019-09-27T14:21:50Z</time><name>PT13855</name></trkpt>
<trkpt lat="52.949512" lon="-3.103711"><ele>326</ele><time>2019-09-27T14:21:51Z</time><name>PT13856</name></trkpt>
<trkpt lat="52.949502" lon="-3.103706"><ele>326</ele><time>2019-09-27T14:21:51Z</time><name>PT13857</name></trkpt>
<trkpt lat="52.949496" lon="-3.103701"><ele>325</ele><time>2019-09-27T14:21:53Z</time><name>PT13858</name></trkpt>
<trkpt lat="52.949483" lon="-3.103691"><ele>325</ele><time>2019-09-27T14:21:54Z</time><name>PT13859</name></trkpt>
<trkpt lat="52.949473" lon="-3.103680"><ele>325</ele><time>2019-09-27T14:21:54Z</time><name>PT13860</name></trkpt>
<trkpt lat="52.949452" lon="-3.103655"><ele>328</ele><time>2019-09-27T14:21:56Z</time><name>PT13861</name></trkpt>
<trkpt lat="52.949443" lon="-3.103662"><ele>327</ele><time>2019-09-27T14:21:57Z</time><name>PT13862</name></trkpt>
<trkpt lat="52.949422" lon="-3.103652"><ele>329</ele><time>2019-09-27T14:21:57Z</time><name>PT13863</name></trkpt>
<trkpt lat="52.949413" lon="-3.103631"><ele>329</ele><time>2019-09-27T14:21:59Z</time><name>PT13864</name></trkpt>
<trkpt lat="52.949401" lon="-3.103620"><ele>329</ele><time>2019-09-27T14:22:00Z</time><name>PT13865</name></trkpt>
<trkpt lat="52.949392" lon="-3.103611"><ele>329</ele><time>2019-09-27T14:22:00Z</time><name>PT13866</name></trkpt>
<trkpt lat="52.949385" lon="-3.103590"><ele>329</ele><time>2019-09-27T14:22:02Z</time><name>PT13867</name></trkpt>
<trkpt lat="52.949379" lon="-3.103576"><ele>329</ele><time>2019-09-27T14:22:03Z</time><name>PT13868</name></trkpt>
<trkpt lat="52.949362" lon="-3.103559"><ele>329</ele><time>2019-09-27T14:22:03Z</time><name>PT13869</name></trkpt>
<trkpt lat="52.949351" lon="-3.103549"><ele>329</ele><time>2019-09-27T14:22:05Z</time><name>PT13870</name></trkpt>
<trkpt lat="52.949340" lon="-3.103552"><ele>329</ele><time>2019-09-27T14:22:06Z</time><name>PT13871</name></trkpt>
<trkpt lat="52.949331" lon="-3.103549"><ele>329</ele><time>2019-09-27T14:22:06Z</time><name>PT13872</name></trkpt>
<trkpt lat="52.949325" lon="-3.103540"><ele>329</ele><time>2019-09-27T14:22:08Z</time><name>PT13873</name></trkpt>
<trkpt lat="52.949315" lon="-3.103538"><ele>329</ele><time>2019-09-27T14:22:09Z</time><name>PT13874</name></trkpt>
<trkpt lat="52.949299" lon="-3.103528"><ele>329</ele><time>2019-09-27T14:22:09Z</time><name>PT13875</name></trkpt>
<trkpt lat="52.949284" lon="-3.103515"><ele>330</ele><time>2019-09-27T14:22:11Z</time><name>PT13876</name></trkpt>
<trkpt lat="52.949272" lon="-3.103503"><ele>330</ele><time>2019-09-27T14:22:12Z</time><name>PT13877</name></trkpt>
<trkpt lat="52.949264" lon="-3.103492"><ele>329</ele><time>2019-09-27T14:22:13Z</time><name>PT13878</name></trkpt>
<trkpt lat="52.949254" lon="-3.103485"><ele>329</ele><time>2019-09-27T14:22:14Z</time><name>PT13879</name></trkpt>
<trkpt lat="52.949237" lon="-3.103479"><ele>329</ele><time>2019-09-27T14:22:15Z</time><name>PT13880</name></trkpt>
<trkpt lat="52.949225" lon="-3.103477"><ele>328</ele><time>2019-09-27T14:22:15Z</time><name>PT13881</name></trkpt>
<trkpt lat="52.949212" lon="-3.103480"><ele>327</ele><time>2019-09-27T14:22:17Z</time><name>PT13882</name></trkpt>
<trkpt lat="52.949200" lon="-3.103471"><ele>328</ele><time>2019-09-27T14:22:18Z</time><name>PT13883</name></trkpt>
<trkpt lat="52.949188" lon="-3.103460"><ele>328</ele><time>2019-09-27T14:22:18Z</time><name>PT13884</name></trkpt>
<trkpt lat="52.949173" lon="-3.103454"><ele>328</ele><time>2019-09-27T14:22:20Z</time><name>PT13885</name></trkpt>
<trkpt lat="52.949160" lon="-3.103442"><ele>328</ele><time>2019-09-27T14:22:21Z</time><name>PT13886</name></trkpt>
<trkpt lat="52.949150" lon="-3.103436"><ele>327</ele><time>2019-09-27T14:22:21Z</time><name>PT13887</name></trkpt>
<trkpt lat="52.949142" lon="-3.103431"><ele>327</ele><time>2019-09-27T14:22:23Z</time><name>PT13888</name></trkpt>
<trkpt lat="52.949123" lon="-3.103427"><ele>327</ele><time>2019-09-27T14:22:24Z</time><name>PT13889</name></trkpt>
<trkpt lat="52.949108" lon="-3.103427"><ele>326</ele><time>2019-09-27T14:22:24Z</time><name>PT13890</name></trkpt>
<trkpt lat="52.949093" lon="-3.103425"><ele>326</ele><time>2019-09-27T14:22:26Z</time><name>PT13891</name></trkpt>
<trkpt lat="52.949080" lon="-3.103418"><ele>326</ele><time>2019-09-27T14:22:27Z</time><name>PT13892</name></trkpt>
<trkpt lat="52.949070" lon="-3.103414"><ele>326</ele><time>2019-09-27T14:22:27Z</time><name>PT13893</name></trkpt>
<trkpt lat="52.949059" lon="-3.103408"><ele>326</ele><time>2019-09-27T14:22:29Z</time><name>PT13894</name></trkpt>
<trkpt lat="52.949046" lon="-3.103410"><ele>326</ele><time>2019-09-27T14:22:30Z</time><name>PT13895</name></trkpt>
<trkpt lat="52.949035" lon="-3.103411"><ele>325</ele><time>2019-09-27T14:22:30Z</time><name>PT13896</name></trkpt>
<trkpt lat="52.949024" lon="-3.103411"><ele>325</ele><time>2019-09-27T14:22:32Z</time><name>PT13897</name></trkpt>
<trkpt lat="52.949011" lon="-3.103412"><ele>325</ele><time>2019-09-27T14:22:33Z</time><name>PT13898</name></trkpt>
<trkpt lat="52.948999" lon="-3.103408"><ele>325</ele><time>2019-09-27T14:22:33Z</time><name>PT13899</name></trkpt>
<trkpt lat="52.948990" lon="-3.103399"><ele>324</ele><time>2019-09-27T14:22:35Z</time><name>PT13900</name></trkpt>
<trkpt lat="52.948977" lon="-3.103384"><ele>326</ele><time>2019-09-27T14:22:36Z</time><name>PT13901</name></trkpt>
<trkpt lat="52.948970" lon="-3.103373"><ele>325</ele><time>2019-09-27T14:22:36Z</time><name>PT13902</name></trkpt>
<trkpt lat="52.948976" lon="-3.103368"><ele>324</ele><time>2019-09-27T14:22:38Z</time><name>PT13903</name></trkpt>
<trkpt lat="52.948967" lon="-3.103366"><ele>324</ele><time>2019-09-27T14:22:39Z</time><name>PT13904</name></trkpt>
<trkpt lat="52.948953" lon="-3.103367"><ele>325</ele><time>2019-09-27T14:22:39Z</time><name>PT13905</name></trkpt>
<trkpt lat="52.948939" lon="-3.103359"><ele>325</ele><time>2019-09-27T14:22:41Z</time><name>PT13906</name></trkpt>
<trkpt lat="52.948930" lon="-3.103357"><ele>325</ele><time>2019-09-27T14:22:42Z</time><name>PT13907</name></trkpt>
<trkpt lat="52.948923" lon="-3.103355"><ele>325</ele><time>2019-09-27T14:22:42Z</time><name>PT13908</name></trkpt>
<trkpt lat="52.948915" lon="-3.103346"><ele>326</ele><time>2019-09-27T14:22:44Z</time><name>PT13909</name></trkpt>
<trkpt lat="52.948904" lon="-3.103337"><ele>325</ele><time>2019-09-27T14:22:45Z</time><name>PT13910</name></trkpt>
<trkpt lat="52.948903" lon="-3.103339"><ele>324</ele><time>2019-09-27T14:22:45Z</time><name>PT13911</name></trkpt>
<trkpt lat="52.948894" lon="-3.103334"><ele>324</ele><time>2019-09-27T14:22:47Z</time><name>PT13912</name></trkpt>
<trkpt lat="52.948877" lon="-3.103324"><ele>325</ele><time>2019-09-27T14:22:48Z</time><name>PT13913</name></trkpt>
<trkpt lat="52.948867" lon="-3.103321"><ele>325</ele><time>2019-09-27T14:22:48Z</time><name>PT13914</name></trkpt>
<trkpt lat="52.948850" lon="-3.103305"><ele>326</ele><time>2019-09-27T14:22:50Z</time><name>PT13915</name></trkpt>
<trkpt lat="52.948831" lon="-3.103302"><ele>326</ele><time>2019-09-27T14:22:51Z</time><name>PT13916</name></trkpt>
<trkpt lat="52.948812" lon="-3.103298"><ele>327</ele><time>2019-09-27T14:22:51Z</time><name>PT13917</name></trkpt>
<trkpt lat="52.948797" lon="-3.103297"><ele>327</ele><time>2019-09-27T14:22:53Z</time><name>PT13918</name></trkpt>
<trkpt lat="52.948786" lon="-3.103292"><ele>328</ele><time>2019-09-27T14:22:54Z</time><name>PT13919</name></trkpt>
<trkpt lat="52.948777" lon="-3.103286"><ele>328</ele><time>2019-09-27T14:22:54Z</time><name>PT13920</name></trkpt>
<trkpt lat="52.948757" lon="-3.103284"><ele>328</ele><time>2019-09-27T14:22:56Z</time><name>PT13921</name></trkpt>
<trkpt lat="52.948747" lon="-3.103283"><ele>327</ele><time>2019-09-27T14:22:57Z</time><name>PT13922</name></trkpt>
<trkpt lat="52.948734" lon="-3.103271"><ele>327</ele><time>2019-09-27T14:22:57Z</time><name>PT13923</name></trkpt>
<trkpt lat="52.948718" lon="-3.103260"><ele>327</ele><time>2019-09-27T14:22:59Z</time><name>PT13924</name></trkpt>
<trkpt lat="52.948702" lon="-3.103247"><ele>327</ele><time>2019-09-27T14:23:00Z</time><name>PT13925</name></trkpt>
<trkpt lat="52.948686" lon="-3.103239"><ele>327</ele><time>2019-09-27T14:23:00Z</time><name>PT13926</name></trkpt>
<trkpt lat="52.948674" lon="-3.103232"><ele>327</ele><time>2019-09-27T14:23:02Z</time><name>PT13927</name></trkpt>
<trkpt lat="52.948664" lon="-3.103220"><ele>328</ele><time>2019-09-27T14:23:03Z</time><name>PT13928</name></trkpt>
<trkpt lat="52.948648" lon="-3.103210"><ele>328</ele><time>2019-09-27T14:23:03Z</time><name>PT13929</name></trkpt>
<trkpt lat="52.948635" lon="-3.103199"><ele>329</ele><time>2019-09-27T14:23:05Z</time><name>PT13930</name></trkpt>
<trkpt lat="52.948616" lon="-3.103203"><ele>329</ele><time>2019-09-27T14:23:06Z</time><name>PT13931</name></trkpt>
<trkpt lat="52.948604" lon="-3.103198"><ele>328</ele><time>2019-09-27T14:23:06Z</time><name>PT13932</name></trkpt>
<trkpt lat="52.948588" lon="-3.103190"><ele>328</ele><time>2019-09-27T14:23:08Z</time><name>PT13933</name></trkpt>
<trkpt lat="52.948574" lon="-3.103188"><ele>328</ele><time>2019-09-27T14:23:09Z</time><name>PT13934</name></trkpt>
<trkpt lat="52.948564" lon="-3.103185"><ele>327</ele><time>2019-09-27T14:23:09Z</time><name>PT13935</name></trkpt>
<trkpt lat="52.948552" lon="-3.103183"><ele>327</ele><time>2019-09-27T14:23:11Z</time><name>PT13936</name></trkpt>
<trkpt lat="52.948540" lon="-3.103179"><ele>327</ele><time>2019-09-27T14:23:12Z</time><name>PT13937</name></trkpt>
<trkpt lat="52.948526" lon="-3.103179"><ele>326</ele><time>2019-09-27T14:23:12Z</time><name>PT13938</name></trkpt>
<trkpt lat="52.948518" lon="-3.103177"><ele>325</ele><time>2019-09-27T14:23:14Z</time><name>PT13939</name></trkpt>
<trkpt lat="52.948504" lon="-3.103175"><ele>325</ele><time>2019-09-27T14:23:15Z</time><name>PT13940</name></trkpt>
<trkpt lat="52.948489" lon="-3.103169"><ele>325</ele><time>2019-09-27T14:23:16Z</time><name>PT13941</name></trkpt>
<trkpt lat="52.948470" lon="-3.103179"><ele>325</ele><time>2019-09-27T14:23:17Z</time><name>PT13942</name></trkpt>
<trkpt lat="52.948462" lon="-3.103179"><ele>324</ele><time>2019-09-27T14:23:18Z</time><name>PT13943</name></trkpt>
<trkpt lat="52.948452" lon="-3.103177"><ele>324</ele><time>2019-09-27T14:23:19Z</time><name>PT13944</name></trkpt>
<trkpt lat="52.948439" lon="-3.103169"><ele>324</ele><time>2019-09-27T14:23:20Z</time><name>PT13945</name></trkpt>
<trkpt lat="52.948424" lon="-3.103155"><ele>324</ele><time>2019-09-27T14:23:21Z</time><name>PT13946</name></trkpt>
<trkpt lat="52.948411" lon="-3.103147"><ele>325</ele><time>2019-09-27T14:23:22Z</time><name>PT13947</name></trkpt>
<trkpt lat="52.948403" lon="-3.103134"><ele>325</ele><time>2019-09-27T14:23:23Z</time><name>PT13948</name></trkpt>
<trkpt lat="52.948395" lon="-3.103127"><ele>325</ele><time>2019-09-27T14:23:24Z</time><name>PT13949</name></trkpt>
<trkpt lat="52.948386" lon="-3.103124"><ele>324</ele><time>2019-09-27T14:23:25Z</time><name>PT13950</name></trkpt>
<trkpt lat="52.948374" lon="-3.103122"><ele>324</ele><time>2019-09-27T14:23:26Z</time><name>PT13951</name></trkpt>
<trkpt lat="52.948368" lon="-3.103120"><ele>324</ele><time>2019-09-27T14:23:27Z</time><name>PT13952</name></trkpt>
<trkpt lat="52.948360" lon="-3.103118"><ele>324</ele><time>2019-09-27T14:23:28Z</time><name>PT13953</name></trkpt>
<trkpt lat="52.948348" lon="-3.103120"><ele>324</ele><time>2019-09-27T14:23:29Z</time><name>PT13954</name></trkpt>
<trkpt lat="52.948340" lon="-3.103110"><ele>323</ele><time>2019-09-27T14:23:30Z</time><name>PT13955</name></trkpt>
<trkpt lat="52.948336" lon="-3.103099"><ele>322</ele><time>2019-09-27T14:23:31Z</time><name>PT13956</name></trkpt>
<trkpt lat="52.948322" lon="-3.103102"><ele>322</ele><time>2019-09-27T14:23:32Z</time><name>PT13957</name></trkpt>
<trkpt lat="52.948307" lon="-3.103104"><ele>323</ele><time>2019-09-27T14:23:33Z</time><name>PT13958</name></trkpt>
<trkpt lat="52.948299" lon="-3.103089"><ele>323</ele><time>2019-09-27T14:23:34Z</time><name>PT13959</name></trkpt>
<trkpt lat="52.948293" lon="-3.103081"><ele>323</ele><time>2019-09-27T14:23:35Z</time><name>PT13960</name></trkpt>
<trkpt lat="52.948280" lon="-3.103080"><ele>322</ele><time>2019-09-27T14:23:36Z</time><name>PT13961</name></trkpt>
<trkpt lat="52.948271" lon="-3.103082"><ele>321</ele><time>2019-09-27T14:23:36Z</time><name>PT13962</name></trkpt>
<trkpt lat="52.948261" lon="-3.103084"><ele>321</ele><time>2019-09-27T14:23:38Z</time><name>PT13963</name></trkpt>
<trkpt lat="52.948250" lon="-3.103076"><ele>320</ele><time>2019-09-27T14:23:39Z</time><name>PT13964</name></trkpt>
<trkpt lat="52.948234" lon="-3.103071"><ele>320</ele><time>2019-09-27T14:23:39Z</time><name>PT13965</name></trkpt>
<trkpt lat="52.948221" lon="-3.103065"><ele>319</ele><time>2019-09-27T14:23:41Z</time><name>PT13966</name></trkpt>
<trkpt lat="52.948213" lon="-3.103059"><ele>319</ele><time>2019-09-27T14:23:42Z</time><name>PT13967</name></trkpt>
<trkpt lat="52.948205" lon="-3.103052"><ele>318</ele><time>2019-09-27T14:23:42Z</time><name>PT13968</name></trkpt>
<trkpt lat="52.948190" lon="-3.103049"><ele>319</ele><time>2019-09-27T14:23:44Z</time><name>PT13969</name></trkpt>
<trkpt lat="52.948177" lon="-3.103044"><ele>319</ele><time>2019-09-27T14:23:45Z</time><name>PT13970</name></trkpt>
<trkpt lat="52.948171" lon="-3.103038"><ele>319</ele><time>2019-09-27T14:23:45Z</time><name>PT13971</name></trkpt>
<trkpt lat="52.948160" lon="-3.103035"><ele>319</ele><time>2019-09-27T14:23:47Z</time><name>PT13972</name></trkpt>
<trkpt lat="52.948145" lon="-3.103032"><ele>319</ele><time>2019-09-27T14:23:48Z</time><name>PT13973</name></trkpt>
<trkpt lat="52.948130" lon="-3.103037"><ele>319</ele><time>2019-09-27T14:23:48Z</time><name>PT13974</name></trkpt>
<trkpt lat="52.948119" lon="-3.103035"><ele>319</ele><time>2019-09-27T14:23:50Z</time><name>PT13975</name></trkpt>
<trkpt lat="52.948109" lon="-3.103029"><ele>318</ele><time>2019-09-27T14:23:51Z</time><name>PT13976</name></trkpt>
<trkpt lat="52.948092" lon="-3.103033"><ele>318</ele><time>2019-09-27T14:23:51Z</time><name>PT13977</name></trkpt>
<trkpt lat="52.948074" lon="-3.103034"><ele>318</ele><time>2019-09-27T14:23:53Z</time><name>PT13978</name></trkpt>
<trkpt lat="52.948063" lon="-3.103032"><ele>317</ele><time>2019-09-27T14:23:54Z</time><name>PT13979</name></trkpt>
<trkpt lat="52.948047" lon="-3.103028"><ele>318</ele><time>2019-09-27T14:23:54Z</time><name>PT13980</name></trkpt>
<trkpt lat="52.948033" lon="-3.103026"><ele>318</ele><time>2019-09-27T14:23:56Z</time><name>PT13981</name></trkpt>
<trkpt lat="52.948025" lon="-3.103028"><ele>318</ele><time>2019-09-27T14:23:57Z</time><name>PT13982</name></trkpt>
<trkpt lat="52.948018" lon="-3.103030"><ele>317</ele><time>2019-09-27T14:23:57Z</time><name>PT13983</name></trkpt>
<trkpt lat="52.948011" lon="-3.103031"><ele>318</ele><time>2019-09-27T14:23:59Z</time><name>PT13984</name></trkpt>
<trkpt lat="52.947995" lon="-3.103036"><ele>319</ele><time>2019-09-27T14:24:00Z</time><name>PT13985</name></trkpt>
<trkpt lat="52.947991" lon="-3.103033"><ele>319</ele><time>2019-09-27T14:24:00Z</time><name>PT13986</name></trkpt>
<trkpt lat="52.947986" lon="-3.103034"><ele>320</ele><time>2019-09-27T14:24:02Z</time><name>PT13987</name></trkpt>
<trkpt lat="52.947982" lon="-3.103018"><ele>321</ele><time>2019-09-27T14:24:09Z</time><name>PT13988</name></trkpt>
<trkpt lat="52.947980" lon="-3.103020"><ele>320</ele><time>2019-09-27T14:24:09Z</time><name>PT13989</name></trkpt>
<trkpt lat="52.947972" lon="-3.103015"><ele>320</ele><time>2019-09-27T14:24:11Z</time><name>PT13990</name></trkpt>
<trkpt lat="52.947966" lon="-3.103013"><ele>320</ele><time>2019-09-27T14:24:12Z</time><name>PT13991</name></trkpt>
<trkpt lat="52.947958" lon="-3.103009"><ele>319</ele><time>2019-09-27T14:24:12Z</time><name>PT13992</name></trkpt>
<trkpt lat="52.947951" lon="-3.103000"><ele>320</ele><time>2019-09-27T14:24:14Z</time><name>PT13993</name></trkpt>
<trkpt lat="52.947937" lon="-3.102998"><ele>319</ele><time>2019-09-27T14:24:15Z</time><name>PT13994</name></trkpt>
<trkpt lat="52.947922" lon="-3.102994"><ele>319</ele><time>2019-09-27T14:24:16Z</time><name>PT13995</name></trkpt>
<trkpt lat="52.947908" lon="-3.102990"><ele>319</ele><time>2019-09-27T14:24:17Z</time><name>PT13996</name></trkpt>
<trkpt lat="52.947896" lon="-3.102990"><ele>318</ele><time>2019-09-27T14:24:18Z</time><name>PT13997</name></trkpt>
<trkpt lat="52.947886" lon="-3.102997"><ele>318</ele><time>2019-09-27T14:24:19Z</time><name>PT13998</name></trkpt>
<trkpt lat="52.947875" lon="-3.102997"><ele>318</ele><time>2019-09-27T14:24:20Z</time><name>PT13999</name></trkpt>
<trkpt lat="52.947863" lon="-3.103003"><ele>317</ele><time>2019-09-27T14:24:21Z</time><name>PT14000</name></trkpt>
<trkpt lat="52.947855" lon="-3.103015"><ele>317</ele><time>2019-09-27T14:24:22Z</time><name>PT14001</name></trkpt>
<trkpt lat="52.947847" lon="-3.103013"><ele>316</ele><time>2019-09-27T14:24:23Z</time><name>PT14002</name></trkpt>
<trkpt lat="52.947835" lon="-3.103010"><ele>316</ele><time>2019-09-27T14:24:24Z</time><name>PT14003</name></trkpt>
<trkpt lat="52.947823" lon="-3.103012"><ele>315</ele><time>2019-09-27T14:24:25Z</time><name>PT14004</name></trkpt>
<trkpt lat="52.947815" lon="-3.103009"><ele>315</ele><time>2019-09-27T14:24:26Z</time><name>PT14005</name></trkpt>
<trkpt lat="52.947805" lon="-3.103010"><ele>315</ele><time>2019-09-27T14:24:27Z</time><name>PT14006</name></trkpt>
<trkpt lat="52.947799" lon="-3.103008"><ele>315</ele><time>2019-09-27T14:24:28Z</time><name>PT14007</name></trkpt>
<trkpt lat="52.947789" lon="-3.103006"><ele>316</ele><time>2019-09-27T14:24:29Z</time><name>PT14008</name></trkpt>
<trkpt lat="52.947778" lon="-3.103002"><ele>316</ele><time>2019-09-27T14:24:30Z</time><name>PT14009</name></trkpt>
<trkpt lat="52.947766" lon="-3.102999"><ele>315</ele><time>2019-09-27T14:24:31Z</time><name>PT14010</name></trkpt>
<trkpt lat="52.947758" lon="-3.102997"><ele>315</ele><time>2019-09-27T14:24:32Z</time><name>PT14011</name></trkpt>
<trkpt lat="52.947749" lon="-3.103003"><ele>313</ele><time>2019-09-27T14:24:33Z</time><name>PT14012</name></trkpt>
<trkpt lat="52.947740" lon="-3.102999"><ele>314</ele><time>2019-09-27T14:24:33Z</time><name>PT14013</name></trkpt>
<trkpt lat="52.947732" lon="-3.102999"><ele>312</ele><time>2019-09-27T14:24:35Z</time><name>PT14014</name></trkpt>
<trkpt lat="52.947715" lon="-3.103009"><ele>313</ele><time>2019-09-27T14:24:36Z</time><name>PT14015</name></trkpt>
<trkpt lat="52.947704" lon="-3.103019"><ele>314</ele><time>2019-09-27T14:24:36Z</time><name>PT14016</name></trkpt>
<trkpt lat="52.947687" lon="-3.103032"><ele>314</ele><time>2019-09-27T14:24:38Z</time><name>PT14017</name></trkpt>
<trkpt lat="52.947676" lon="-3.103040"><ele>313</ele><time>2019-09-27T14:24:39Z</time><name>PT14018</name></trkpt>
<trkpt lat="52.947663" lon="-3.103035"><ele>312</ele><time>2019-09-27T14:24:39Z</time><name>PT14019</name></trkpt>
<trkpt lat="52.947651" lon="-3.103032"><ele>312</ele><time>2019-09-27T14:24:41Z</time><name>PT14020</name></trkpt>
<trkpt lat="52.947645" lon="-3.103024"><ele>311</ele><time>2019-09-27T14:24:42Z</time><name>PT14021</name></trkpt>
<trkpt lat="52.947637" lon="-3.103025"><ele>311</ele><time>2019-09-27T14:24:42Z</time><name>PT14022</name></trkpt>
<trkpt lat="52.947633" lon="-3.103024"><ele>310</ele><time>2019-09-27T14:24:44Z</time><name>PT14023</name></trkpt>
<trkpt lat="52.947627" lon="-3.103023"><ele>310</ele><time>2019-09-27T14:24:45Z</time><name>PT14024</name></trkpt>
<trkpt lat="52.947608" lon="-3.103038"><ele>309</ele><time>2019-09-27T14:24:47Z</time><name>PT14025</name></trkpt>
<trkpt lat="52.947594" lon="-3.103034"><ele>308</ele><time>2019-09-27T14:24:48Z</time><name>PT14026</name></trkpt>
<trkpt lat="52.947584" lon="-3.103026"><ele>308</ele><time>2019-09-27T14:24:48Z</time><name>PT14027</name></trkpt>
<trkpt lat="52.947573" lon="-3.103025"><ele>308</ele><time>2019-09-27T14:24:50Z</time><name>PT14028</name></trkpt>
<trkpt lat="52.947555" lon="-3.103041"><ele>308</ele><time>2019-09-27T14:24:51Z</time><name>PT14029</name></trkpt>
<trkpt lat="52.947533" lon="-3.103045"><ele>306</ele><time>2019-09-27T14:24:51Z</time><name>PT14030</name></trkpt>
<trkpt lat="52.947519" lon="-3.103042"><ele>305</ele><time>2019-09-27T14:24:53Z</time><name>PT14031</name></trkpt>
<trkpt lat="52.947508" lon="-3.103043"><ele>305</ele><time>2019-09-27T14:24:54Z</time><name>PT14032</name></trkpt>
<trkpt lat="52.947498" lon="-3.103039"><ele>304</ele><time>2019-09-27T14:24:54Z</time><name>PT14033</name></trkpt>
<trkpt lat="52.947483" lon="-3.103045"><ele>304</ele><time>2019-09-27T14:24:56Z</time><name>PT14034</name></trkpt>
<trkpt lat="52.947470" lon="-3.103049"><ele>303</ele><time>2019-09-27T14:24:57Z</time><name>PT14035</name></trkpt>
<trkpt lat="52.947457" lon="-3.103058"><ele>303</ele><time>2019-09-27T14:24:57Z</time><name>PT14036</name></trkpt>
<trkpt lat="52.947443" lon="-3.103062"><ele>302</ele><time>2019-09-27T14:24:59Z</time><name>PT14037</name></trkpt>
<trkpt lat="52.947432" lon="-3.103058"><ele>301</ele><time>2019-09-27T14:25:00Z</time><name>PT14038</name></trkpt>
<trkpt lat="52.947417" lon="-3.103064"><ele>300</ele><time>2019-09-27T14:25:00Z</time><name>PT14039</name></trkpt>
<trkpt lat="52.947406" lon="-3.103066"><ele>300</ele><time>2019-09-27T14:25:02Z</time><name>PT14040</name></trkpt>
<trkpt lat="52.947398" lon="-3.103066"><ele>300</ele><time>2019-09-27T14:25:03Z</time><name>PT14041</name></trkpt>
<trkpt lat="52.947391" lon="-3.103066"><ele>300</ele><time>2019-09-27T14:25:03Z</time><name>PT14042</name></trkpt>
<trkpt lat="52.947377" lon="-3.103067"><ele>300</ele><time>2019-09-27T14:25:05Z</time><name>PT14043</name></trkpt>
<trkpt lat="52.947368" lon="-3.103068"><ele>299</ele><time>2019-09-27T14:25:06Z</time><name>PT14044</name></trkpt>
<trkpt lat="52.947354" lon="-3.103075"><ele>300</ele><time>2019-09-27T14:25:06Z</time><name>PT14045</name></trkpt>
<trkpt lat="52.947340" lon="-3.103079"><ele>300</ele><time>2019-09-27T14:25:08Z</time><name>PT14046</name></trkpt>
<trkpt lat="52.947328" lon="-3.103087"><ele>300</ele><time>2019-09-27T14:25:09Z</time><name>PT14047</name></trkpt>
<trkpt lat="52.947315" lon="-3.103093"><ele>300</ele><time>2019-09-27T14:25:10Z</time><name>PT14048</name></trkpt>
<trkpt lat="52.947298" lon="-3.103098"><ele>301</ele><time>2019-09-27T14:25:11Z</time><name>PT14049</name></trkpt>
<trkpt lat="52.947285" lon="-3.103105"><ele>302</ele><time>2019-09-27T14:25:12Z</time><name>PT14050</name></trkpt>
<trkpt lat="52.947275" lon="-3.103105"><ele>301</ele><time>2019-09-27T14:25:13Z</time><name>PT14051</name></trkpt>
<trkpt lat="52.947264" lon="-3.103110"><ele>300</ele><time>2019-09-27T14:25:14Z</time><name>PT14052</name></trkpt>
<trkpt lat="52.947252" lon="-3.103114"><ele>299</ele><time>2019-09-27T14:25:15Z</time><name>PT14053</name></trkpt>
<trkpt lat="52.947239" lon="-3.103114"><ele>299</ele><time>2019-09-27T14:25:16Z</time><name>PT14054</name></trkpt>
<trkpt lat="52.947228" lon="-3.103119"><ele>298</ele><time>2019-09-27T14:25:17Z</time><name>PT14055</name></trkpt>
<trkpt lat="52.947217" lon="-3.103131"><ele>297</ele><time>2019-09-27T14:25:18Z</time><name>PT14056</name></trkpt>
<trkpt lat="52.947206" lon="-3.103139"><ele>298</ele><time>2019-09-27T14:25:18Z</time><name>PT14057</name></trkpt>
<trkpt lat="52.947196" lon="-3.103145"><ele>297</ele><time>2019-09-27T14:25:20Z</time><name>PT14058</name></trkpt>
<trkpt lat="52.947189" lon="-3.103150"><ele>296</ele><time>2019-09-27T14:25:21Z</time><name>PT14059</name></trkpt>
<trkpt lat="52.947175" lon="-3.103152"><ele>296</ele><time>2019-09-27T14:25:21Z</time><name>PT14060</name></trkpt>
<trkpt lat="52.947162" lon="-3.103151"><ele>296</ele><time>2019-09-27T14:25:23Z</time><name>PT14061</name></trkpt>
<trkpt lat="52.947149" lon="-3.103151"><ele>295</ele><time>2019-09-27T14:25:24Z</time><name>PT14062</name></trkpt>
<trkpt lat="52.947137" lon="-3.103147"><ele>295</ele><time>2019-09-27T14:25:24Z</time><name>PT14063</name></trkpt>
<trkpt lat="52.947123" lon="-3.103153"><ele>295</ele><time>2019-09-27T14:25:26Z</time><name>PT14064</name></trkpt>
<trkpt lat="52.947109" lon="-3.103160"><ele>295</ele><time>2019-09-27T14:25:27Z</time><name>PT14065</name></trkpt>
<trkpt lat="52.947097" lon="-3.103160"><ele>295</ele><time>2019-09-27T14:25:27Z</time><name>PT14066</name></trkpt>
<trkpt lat="52.947087" lon="-3.103157"><ele>295</ele><time>2019-09-27T14:25:29Z</time><name>PT14067</name></trkpt>
<trkpt lat="52.947076" lon="-3.103154"><ele>296</ele><time>2019-09-27T14:25:30Z</time><name>PT14068</name></trkpt>
<trkpt lat="52.947063" lon="-3.103160"><ele>295</ele><time>2019-09-27T14:25:30Z</time><name>PT14069</name></trkpt>
<trkpt lat="52.947049" lon="-3.103168"><ele>296</ele><time>2019-09-27T14:25:32Z</time><name>PT14070</name></trkpt>
<trkpt lat="52.947028" lon="-3.103177"><ele>297</ele><time>2019-09-27T14:25:33Z</time><name>PT14071</name></trkpt>
<trkpt lat="52.947011" lon="-3.103178"><ele>298</ele><time>2019-09-27T14:25:33Z</time><name>PT14072</name></trkpt>
<trkpt lat="52.946999" lon="-3.103189"><ele>297</ele><time>2019-09-27T14:25:35Z</time><name>PT14073</name></trkpt>
<trkpt lat="52.946981" lon="-3.103201"><ele>298</ele><time>2019-09-27T14:25:36Z</time><name>PT14074</name></trkpt>
<trkpt lat="52.946962" lon="-3.103215"><ele>299</ele><time>2019-09-27T14:25:36Z</time><name>PT14075</name></trkpt>
<trkpt lat="52.946945" lon="-3.103222"><ele>300</ele><time>2019-09-27T14:25:38Z</time><name>PT14076</name></trkpt>
<trkpt lat="52.946933" lon="-3.103232"><ele>300</ele><time>2019-09-27T14:25:39Z</time><name>PT14077</name></trkpt>
<trkpt lat="52.946922" lon="-3.103244"><ele>300</ele><time>2019-09-27T14:25:39Z</time><name>PT14078</name></trkpt>
<trkpt lat="52.946910" lon="-3.103251"><ele>300</ele><time>2019-09-27T14:25:41Z</time><name>PT14079</name></trkpt>
<trkpt lat="52.946899" lon="-3.103260"><ele>299</ele><time>2019-09-27T14:25:42Z</time><name>PT14080</name></trkpt>
<trkpt lat="52.946887" lon="-3.103269"><ele>299</ele><time>2019-09-27T14:25:43Z</time><name>PT14081</name></trkpt>
<trkpt lat="52.946875" lon="-3.103277"><ele>298</ele><time>2019-09-27T14:25:44Z</time><name>PT14082</name></trkpt>
<trkpt lat="52.946864" lon="-3.103283"><ele>298</ele><time>2019-09-27T14:25:45Z</time><name>PT14083</name></trkpt>
<trkpt lat="52.946854" lon="-3.103287"><ele>299</ele><time>2019-09-27T14:25:45Z</time><name>PT14084</name></trkpt>
<trkpt lat="52.946844" lon="-3.103298"><ele>298</ele><time>2019-09-27T14:25:47Z</time><name>PT14085</name></trkpt>
<trkpt lat="52.946831" lon="-3.103306"><ele>297</ele><time>2019-09-27T14:25:48Z</time><name>PT14086</name></trkpt>
<trkpt lat="52.946817" lon="-3.103314"><ele>299</ele><time>2019-09-27T14:25:48Z</time><name>PT14087</name></trkpt>
<trkpt lat="52.946804" lon="-3.103324"><ele>299</ele><time>2019-09-27T14:25:50Z</time><name>PT14088</name></trkpt>
<trkpt lat="52.946790" lon="-3.103331"><ele>299</ele><time>2019-09-27T14:25:51Z</time><name>PT14089</name></trkpt>
<trkpt lat="52.946779" lon="-3.103341"><ele>299</ele><time>2019-09-27T14:25:51Z</time><name>PT14090</name></trkpt>
<trkpt lat="52.946773" lon="-3.103351"><ele>298</ele><time>2019-09-27T14:25:53Z</time><name>PT14091</name></trkpt>
<trkpt lat="52.946762" lon="-3.103361"><ele>298</ele><time>2019-09-27T14:25:54Z</time><name>PT14092</name></trkpt>
<trkpt lat="52.946752" lon="-3.103370"><ele>298</ele><time>2019-09-27T14:25:55Z</time><name>PT14093</name></trkpt>
<trkpt lat="52.946738" lon="-3.103382"><ele>298</ele><time>2019-09-27T14:25:56Z</time><name>PT14094</name></trkpt>
<trkpt lat="52.946726" lon="-3.103394"><ele>297</ele><time>2019-09-27T14:25:57Z</time><name>PT14095</name></trkpt>
<trkpt lat="52.946709" lon="-3.103404"><ele>300</ele><time>2019-09-27T14:25:57Z</time><name>PT14096</name></trkpt>
<trkpt lat="52.946695" lon="-3.103409"><ele>300</ele><time>2019-09-27T14:25:59Z</time><name>PT14097</name></trkpt>
<trkpt lat="52.946687" lon="-3.103416"><ele>300</ele><time>2019-09-27T14:26:00Z</time><name>PT14098</name></trkpt>
<trkpt lat="52.946676" lon="-3.103428"><ele>300</ele><time>2019-09-27T14:26:01Z</time><name>PT14099</name></trkpt>
<trkpt lat="52.946669" lon="-3.103436"><ele>299</ele><time>2019-09-27T14:26:02Z</time><name>PT14100</name></trkpt>
<trkpt lat="52.946659" lon="-3.103444"><ele>299</ele><time>2019-09-27T14:26:03Z</time><name>PT14101</name></trkpt>
<trkpt lat="52.946648" lon="-3.103457"><ele>300</ele><time>2019-09-27T14:26:03Z</time><name>PT14102</name></trkpt>
<trkpt lat="52.946638" lon="-3.103470"><ele>299</ele><time>2019-09-27T14:26:05Z</time><name>PT14103</name></trkpt>
<trkpt lat="52.946631" lon="-3.103481"><ele>299</ele><time>2019-09-27T14:26:06Z</time><name>PT14104</name></trkpt>
<trkpt lat="52.946622" lon="-3.103490"><ele>299</ele><time>2019-09-27T14:26:06Z</time><name>PT14105</name></trkpt>
<trkpt lat="52.946612" lon="-3.103503"><ele>300</ele><time>2019-09-27T14:26:08Z</time><name>PT14106</name></trkpt>
<trkpt lat="52.946602" lon="-3.103511"><ele>300</ele><time>2019-09-27T14:26:09Z</time><name>PT14107</name></trkpt>
<trkpt lat="52.946592" lon="-3.103516"><ele>302</ele><time>2019-09-27T14:26:09Z</time><name>PT14108</name></trkpt>
<trkpt lat="52.946584" lon="-3.103523"><ele>302</ele><time>2019-09-27T14:26:11Z</time><name>PT14109</name></trkpt>
<trkpt lat="52.946570" lon="-3.103531"><ele>304</ele><time>2019-09-27T14:26:12Z</time><name>PT14110</name></trkpt>
<trkpt lat="52.946561" lon="-3.103545"><ele>303</ele><time>2019-09-27T14:26:12Z</time><name>PT14111</name></trkpt>
<trkpt lat="52.946554" lon="-3.103556"><ele>303</ele><time>2019-09-27T14:26:14Z</time><name>PT14112</name></trkpt>
<trkpt lat="52.946551" lon="-3.103568"><ele>302</ele><time>2019-09-27T14:26:15Z</time><name>PT14113</name></trkpt>
<trkpt lat="52.946550" lon="-3.103582"><ele>302</ele><time>2019-09-27T14:26:15Z</time><name>PT14114</name></trkpt>
<trkpt lat="52.946549" lon="-3.103596"><ele>302</ele><time>2019-09-27T14:26:17Z</time><name>PT14115</name></trkpt>
<trkpt lat="52.946538" lon="-3.103611"><ele>302</ele><time>2019-09-27T14:26:18Z</time><name>PT14116</name></trkpt>
<trkpt lat="52.946534" lon="-3.103604"><ele>301</ele><time>2019-09-27T14:26:18Z</time><name>PT14117</name></trkpt>
<trkpt lat="52.946525" lon="-3.103606"><ele>300</ele><time>2019-09-27T14:26:20Z</time><name>PT14118</name></trkpt>
<trkpt lat="52.946520" lon="-3.103615"><ele>299</ele><time>2019-09-27T14:26:21Z</time><name>PT14119</name></trkpt>
<trkpt lat="52.946510" lon="-3.103632"><ele>300</ele><time>2019-09-27T14:26:21Z</time><name>PT14120</name></trkpt>
<trkpt lat="52.946505" lon="-3.103649"><ele>300</ele><time>2019-09-27T14:26:23Z</time><name>PT14121</name></trkpt>
<trkpt lat="52.946496" lon="-3.103664"><ele>299</ele><time>2019-09-27T14:26:24Z</time><name>PT14122</name></trkpt>
<trkpt lat="52.946486" lon="-3.103680"><ele>299</ele><time>2019-09-27T14:26:24Z</time><name>PT14123</name></trkpt>
<trkpt lat="52.946480" lon="-3.103690"><ele>298</ele><time>2019-09-27T14:26:26Z</time><name>PT14124</name></trkpt>
<trkpt lat="52.946476" lon="-3.103702"><ele>298</ele><time>2019-09-27T14:26:27Z</time><name>PT14125</name></trkpt>
<trkpt lat="52.946466" lon="-3.103722"><ele>298</ele><time>2019-09-27T14:26:27Z</time><name>PT14126</name></trkpt>
<trkpt lat="52.946456" lon="-3.103736"><ele>297</ele><time>2019-09-27T14:26:29Z</time><name>PT14127</name></trkpt>
<trkpt lat="52.946448" lon="-3.103752"><ele>298</ele><time>2019-09-27T14:26:30Z</time><name>PT14128</name></trkpt>
<trkpt lat="52.946446" lon="-3.103766"><ele>297</ele><time>2019-09-27T14:26:30Z</time><name>PT14129</name></trkpt>
<trkpt lat="52.946439" lon="-3.103782"><ele>297</ele><time>2019-09-27T14:26:32Z</time><name>PT14130</name></trkpt>
<trkpt lat="52.946431" lon="-3.103805"><ele>298</ele><time>2019-09-27T14:26:33Z</time><name>PT14131</name></trkpt>
<trkpt lat="52.946423" lon="-3.103825"><ele>297</ele><time>2019-09-27T14:26:33Z</time><name>PT14132</name></trkpt>
<trkpt lat="52.946416" lon="-3.103844"><ele>298</ele><time>2019-09-27T14:26:35Z</time><name>PT14133</name></trkpt>
<trkpt lat="52.946405" lon="-3.103865"><ele>298</ele><time>2019-09-27T14:26:36Z</time><name>PT14134</name></trkpt>
<trkpt lat="52.946392" lon="-3.103885"><ele>298</ele><time>2019-09-27T14:26:36Z</time><name>PT14135</name></trkpt>
<trkpt lat="52.946386" lon="-3.103900"><ele>297</ele><time>2019-09-27T14:26:38Z</time><name>PT14136</name></trkpt>
<trkpt lat="52.946380" lon="-3.103919"><ele>297</ele><time>2019-09-27T14:26:39Z</time><name>PT14137</name></trkpt>
<trkpt lat="52.946372" lon="-3.103932"><ele>297</ele><time>2019-09-27T14:26:39Z</time><name>PT14138</name></trkpt>
<trkpt lat="52.946360" lon="-3.103953"><ele>298</ele><time>2019-09-27T14:26:41Z</time><name>PT14139</name></trkpt>
<trkpt lat="52.946348" lon="-3.103972"><ele>298</ele><time>2019-09-27T14:26:42Z</time><name>PT14140</name></trkpt>
<trkpt lat="52.946338" lon="-3.103994"><ele>298</ele><time>2019-09-27T14:26:42Z</time><name>PT14141</name></trkpt>
<trkpt lat="52.946328" lon="-3.104014"><ele>298</ele><time>2019-09-27T14:26:44Z</time><name>PT14142</name></trkpt>
<trkpt lat="52.946318" lon="-3.104037"><ele>298</ele><time>2019-09-27T14:26:45Z</time><name>PT14143</name></trkpt>
<trkpt lat="52.946313" lon="-3.104054"><ele>298</ele><time>2019-09-27T14:26:45Z</time><name>PT14144</name></trkpt>
<trkpt lat="52.946305" lon="-3.104069"><ele>297</ele><time>2019-09-27T14:26:47Z</time><name>PT14145</name></trkpt>
<trkpt lat="52.946300" lon="-3.104089"><ele>296</ele><time>2019-09-27T14:26:48Z</time><name>PT14146</name></trkpt>
<trkpt lat="52.946294" lon="-3.104108"><ele>295</ele><time>2019-09-27T14:26:48Z</time><name>PT14147</name></trkpt>
<trkpt lat="52.946290" lon="-3.104121"><ele>295</ele><time>2019-09-27T14:26:50Z</time><name>PT14148</name></trkpt>
<trkpt lat="52.946282" lon="-3.104130"><ele>294</ele><time>2019-09-27T14:26:51Z</time><name>PT14149</name></trkpt>
<trkpt lat="52.946276" lon="-3.104143"><ele>294</ele><time>2019-09-27T14:26:51Z</time><name>PT14150</name></trkpt>
<trkpt lat="52.946268" lon="-3.104161"><ele>293</ele><time>2019-09-27T14:26:53Z</time><name>PT14151</name></trkpt>
<trkpt lat="52.946260" lon="-3.104177"><ele>293</ele><time>2019-09-27T14:26:54Z</time><name>PT14152</name></trkpt>
<trkpt lat="52.946253" lon="-3.104191"><ele>293</ele><time>2019-09-27T14:26:54Z</time><name>PT14153</name></trkpt>
<trkpt lat="52.946247" lon="-3.104202"><ele>293</ele><time>2019-09-27T14:26:56Z</time><name>PT14154</name></trkpt>
<trkpt lat="52.946242" lon="-3.104216"><ele>292</ele><time>2019-09-27T14:26:57Z</time><name>PT14155</name></trkpt>
<trkpt lat="52.946240" lon="-3.104225"><ele>293</ele><time>2019-09-27T14:26:57Z</time><name>PT14156</name></trkpt>
<trkpt lat="52.946233" lon="-3.104234"><ele>293</ele><time>2019-09-27T14:26:59Z</time><name>PT14157</name></trkpt>
<trkpt lat="52.946224" lon="-3.104246"><ele>292</ele><time>2019-09-27T14:27:00Z</time><name>PT14158</name></trkpt>
<trkpt lat="52.946212" lon="-3.104256"><ele>292</ele><time>2019-09-27T14:27:00Z</time><name>PT14159</name></trkpt>
<trkpt lat="52.946205" lon="-3.104267"><ele>291</ele><time>2019-09-27T14:27:02Z</time><name>PT14160</name></trkpt>
<trkpt lat="52.946200" lon="-3.104286"><ele>290</ele><time>2019-09-27T14:27:03Z</time><name>PT14161</name></trkpt>
<trkpt lat="52.946192" lon="-3.104313"><ele>290</ele><time>2019-09-27T14:27:03Z</time><name>PT14162</name></trkpt>
<trkpt lat="52.946187" lon="-3.104320"><ele>290</ele><time>2019-09-27T14:27:05Z</time><name>PT14163</name></trkpt>
<trkpt lat="52.946180" lon="-3.104324"><ele>289</ele><time>2019-09-27T14:27:06Z</time><name>PT14164</name></trkpt>
<trkpt lat="52.946172" lon="-3.104333"><ele>288</ele><time>2019-09-27T14:27:06Z</time><name>PT14165</name></trkpt>
<trkpt lat="52.946165" lon="-3.104348"><ele>287</ele><time>2019-09-27T14:27:08Z</time><name>PT14166</name></trkpt>
<trkpt lat="52.946158" lon="-3.104355"><ele>286</ele><time>2019-09-27T14:27:09Z</time><name>PT14167</name></trkpt>
<trkpt lat="52.946145" lon="-3.104368"><ele>286</ele><time>2019-09-27T14:27:09Z</time><name>PT14168</name></trkpt>
<trkpt lat="52.946137" lon="-3.104380"><ele>285</ele><time>2019-09-27T14:27:11Z</time><name>PT14169</name></trkpt>
<trkpt lat="52.946128" lon="-3.104392"><ele>284</ele><time>2019-09-27T14:27:12Z</time><name>PT14170</name></trkpt>
<trkpt lat="52.946119" lon="-3.104399"><ele>283</ele><time>2019-09-27T14:27:12Z</time><name>PT14171</name></trkpt>
<trkpt lat="52.946112" lon="-3.104399"><ele>282</ele><time>2019-09-27T14:27:14Z</time><name>PT14172</name></trkpt>
<trkpt lat="52.946103" lon="-3.104404"><ele>282</ele><time>2019-09-27T14:27:15Z</time><name>PT14173</name></trkpt>
<trkpt lat="52.946097" lon="-3.104412"><ele>281</ele><time>2019-09-27T14:27:15Z</time><name>PT14174</name></trkpt>
<trkpt lat="52.946092" lon="-3.104419"><ele>280</ele><time>2019-09-27T14:27:17Z</time><name>PT14175</name></trkpt>
<trkpt lat="52.946087" lon="-3.104434"><ele>280</ele><time>2019-09-27T14:27:18Z</time><name>PT14176</name></trkpt>
<trkpt lat="52.946079" lon="-3.104442"><ele>279</ele><time>2019-09-27T14:27:18Z</time><name>PT14177</name></trkpt>
<trkpt lat="52.946069" lon="-3.104442"><ele>279</ele><time>2019-09-27T14:27:20Z</time><name>PT14178</name></trkpt>
<trkpt lat="52.946064" lon="-3.104438"><ele>278</ele><time>2019-09-27T14:27:21Z</time><name>PT14179</name></trkpt>
<trkpt lat="52.946055" lon="-3.104440"><ele>278</ele><time>2019-09-27T14:27:22Z</time><name>PT14180</name></trkpt>
<trkpt lat="52.946051" lon="-3.104443"><ele>278</ele><time>2019-09-27T14:27:23Z</time><name>PT14181</name></trkpt>
<trkpt lat="52.946024" lon="-3.104452"><ele>278</ele><time>2019-09-27T14:27:24Z</time><name>PT14182</name></trkpt>
<trkpt lat="52.946008" lon="-3.104454"><ele>278</ele><time>2019-09-27T14:27:25Z</time><name>PT14183</name></trkpt>
<trkpt lat="52.945998" lon="-3.104453"><ele>278</ele><time>2019-09-27T14:27:26Z</time><name>PT14184</name></trkpt>
<trkpt lat="52.945982" lon="-3.104459"><ele>279</ele><time>2019-09-27T14:27:27Z</time><name>PT14185</name></trkpt>
<trkpt lat="52.945969" lon="-3.104463"><ele>279</ele><time>2019-09-27T14:27:28Z</time><name>PT14186</name></trkpt>
<trkpt lat="52.945957" lon="-3.104456"><ele>279</ele><time>2019-09-27T14:27:29Z</time><name>PT14187</name></trkpt>
<trkpt lat="52.945942" lon="-3.104454"><ele>279</ele><time>2019-09-27T14:27:30Z</time><name>PT14188</name></trkpt>
<trkpt lat="52.945926" lon="-3.104451"><ele>280</ele><time>2019-09-27T14:27:31Z</time><name>PT14189</name></trkpt>
<trkpt lat="52.945906" lon="-3.104450"><ele>280</ele><time>2019-09-27T14:27:32Z</time><name>PT14190</name></trkpt>
<trkpt lat="52.945891" lon="-3.104442"><ele>281</ele><time>2019-09-27T14:27:33Z</time><name>PT14191</name></trkpt>
<trkpt lat="52.945881" lon="-3.104445"><ele>279</ele><time>2019-09-27T14:27:34Z</time><name>PT14192</name></trkpt>
<trkpt lat="52.945859" lon="-3.104446"><ele>280</ele><time>2019-09-27T14:27:35Z</time><name>PT14193</name></trkpt>
<trkpt lat="52.945845" lon="-3.104446"><ele>279</ele><time>2019-09-27T14:27:36Z</time><name>PT14194</name></trkpt>
<trkpt lat="52.945825" lon="-3.104449"><ele>280</ele><time>2019-09-27T14:27:37Z</time><name>PT14195</name></trkpt>
<trkpt lat="52.945805" lon="-3.104452"><ele>280</ele><time>2019-09-27T14:27:38Z</time><name>PT14196</name></trkpt>
<trkpt lat="52.945793" lon="-3.104445"><ele>280</ele><time>2019-09-27T14:27:39Z</time><name>PT14197</name></trkpt>
<trkpt lat="52.945769" lon="-3.104440"><ele>283</ele><time>2019-09-27T14:27:40Z</time><name>PT14198</name></trkpt>
<trkpt lat="52.945749" lon="-3.104443"><ele>283</ele><time>2019-09-27T14:27:41Z</time><name>PT14199</name></trkpt>
<trkpt lat="52.945734" lon="-3.104446"><ele>283</ele><time>2019-09-27T14:27:42Z</time><name>PT14200</name></trkpt>
<trkpt lat="52.945718" lon="-3.104448"><ele>283</ele><time>2019-09-27T14:27:42Z</time><name>PT14201</name></trkpt>
<trkpt lat="52.945701" lon="-3.104444"><ele>284</ele><time>2019-09-27T14:27:44Z</time><name>PT14202</name></trkpt>
<trkpt lat="52.945698" lon="-3.104446"><ele>281</ele><time>2019-09-27T14:27:45Z</time><name>PT14203</name></trkpt>
<trkpt lat="52.945678" lon="-3.104439"><ele>282</ele><time>2019-09-27T14:27:45Z</time><name>PT14204</name></trkpt>
<trkpt lat="52.945662" lon="-3.104436"><ele>281</ele><time>2019-09-27T14:27:47Z</time><name>PT14205</name></trkpt>
<trkpt lat="52.945645" lon="-3.104432"><ele>281</ele><time>2019-09-27T14:27:48Z</time><name>PT14206</name></trkpt>
<trkpt lat="52.945625" lon="-3.104436"><ele>282</ele><time>2019-09-27T14:27:48Z</time><name>PT14207</name></trkpt>
<trkpt lat="52.945614" lon="-3.104441"><ele>281</ele><time>2019-09-27T14:27:50Z</time><name>PT14208</name></trkpt>
<trkpt lat="52.945604" lon="-3.104439"><ele>281</ele><time>2019-09-27T14:27:51Z</time><name>PT14209</name></trkpt>
<trkpt lat="52.945593" lon="-3.104436"><ele>280</ele><time>2019-09-27T14:27:51Z</time><name>PT14210</name></trkpt>
<trkpt lat="52.945580" lon="-3.104435"><ele>280</ele><time>2019-09-27T14:27:53Z</time><name>PT14211</name></trkpt>
<trkpt lat="52.945572" lon="-3.104436"><ele>280</ele><time>2019-09-27T14:27:54Z</time><name>PT14212</name></trkpt>
<trkpt lat="52.945560" lon="-3.104429"><ele>280</ele><time>2019-09-27T14:27:54Z</time><name>PT14213</name></trkpt>
<trkpt lat="52.945549" lon="-3.104424"><ele>279</ele><time>2019-09-27T14:27:56Z</time><name>PT14214</name></trkpt>
<trkpt lat="52.945535" lon="-3.104421"><ele>279</ele><time>2019-09-27T14:27:57Z</time><name>PT14215</name></trkpt>
<trkpt lat="52.945523" lon="-3.104419"><ele>279</ele><time>2019-09-27T14:27:57Z</time><name>PT14216</name></trkpt>
<trkpt lat="52.945503" lon="-3.104416"><ele>280</ele><time>2019-09-27T14:27:59Z</time><name>PT14217</name></trkpt>
<trkpt lat="52.945492" lon="-3.104417"><ele>280</ele><time>2019-09-27T14:28:00Z</time><name>PT14218</name></trkpt>
<trkpt lat="52.945481" lon="-3.104418"><ele>280</ele><time>2019-09-27T14:28:00Z</time><name>PT14219</name></trkpt>
<trkpt lat="52.945466" lon="-3.104425"><ele>280</ele><time>2019-09-27T14:28:02Z</time><name>PT14220</name></trkpt>
<trkpt lat="52.945463" lon="-3.104426"><ele>280</ele><time>2019-09-27T14:28:03Z</time><name>PT14221</name></trkpt>
<trkpt lat="52.945461" lon="-3.104423"><ele>281</ele><time>2019-09-27T14:28:03Z</time><name>PT14222</name></trkpt>
<trkpt lat="52.945454" lon="-3.104420"><ele>281</ele><time>2019-09-27T14:28:05Z</time><name>PT14223</name></trkpt>
<trkpt lat="52.945446" lon="-3.104421"><ele>281</ele><time>2019-09-27T14:28:06Z</time><name>PT14224</name></trkpt>
<trkpt lat="52.945438" lon="-3.104419"><ele>281</ele><time>2019-09-27T14:28:07Z</time><name>PT14225</name></trkpt>
<trkpt lat="52.945428" lon="-3.104414"><ele>281</ele><time>2019-09-27T14:28:08Z</time><name>PT14226</name></trkpt>
<trkpt lat="52.945422" lon="-3.104414"><ele>280</ele><time>2019-09-27T14:28:09Z</time><name>PT14227</name></trkpt>
<trkpt lat="52.945414" lon="-3.104411"><ele>280</ele><time>2019-09-27T14:28:09Z</time><name>PT14228</name></trkpt>
<trkpt lat="52.945407" lon="-3.104409"><ele>279</ele><time>2019-09-27T14:28:11Z</time><name>PT14229</name></trkpt>
<trkpt lat="52.945398" lon="-3.104416"><ele>279</ele><time>2019-09-27T14:28:12Z</time><name>PT14230</name></trkpt>
<trkpt lat="52.945391" lon="-3.104421"><ele>278</ele><time>2019-09-27T14:28:12Z</time><name>PT14231</name></trkpt>
<trkpt lat="52.945383" lon="-3.104418"><ele>278</ele><time>2019-09-27T14:28:14Z</time><name>PT14232</name></trkpt>
<trkpt lat="52.945374" lon="-3.104419"><ele>277</ele><time>2019-09-27T14:28:15Z</time><name>PT14233</name></trkpt>
<trkpt lat="52.945368" lon="-3.104420"><ele>276</ele><time>2019-09-27T14:28:15Z</time><name>PT14234</name></trkpt>
<trkpt lat="52.945351" lon="-3.104427"><ele>276</ele><time>2019-09-27T14:28:17Z</time><name>PT14235</name></trkpt>
<trkpt lat="52.945335" lon="-3.104431"><ele>277</ele><time>2019-09-27T14:28:18Z</time><name>PT14236</name></trkpt>
<trkpt lat="52.945323" lon="-3.104437"><ele>276</ele><time>2019-09-27T14:28:18Z</time><name>PT14237</name></trkpt>
<trkpt lat="52.945304" lon="-3.104440"><ele>276</ele><time>2019-09-27T14:28:20Z</time><name>PT14238</name></trkpt>
<trkpt lat="52.945289" lon="-3.104443"><ele>277</ele><time>2019-09-27T14:28:21Z</time><name>PT14239</name></trkpt>
<trkpt lat="52.945269" lon="-3.104447"><ele>279</ele><time>2019-09-27T14:28:21Z</time><name>PT14240</name></trkpt>
<trkpt lat="52.945257" lon="-3.104448"><ele>278</ele><time>2019-09-27T14:28:23Z</time><name>PT14241</name></trkpt>
<trkpt lat="52.945245" lon="-3.104450"><ele>278</ele><time>2019-09-27T14:28:24Z</time><name>PT14242</name></trkpt>
<trkpt lat="52.945232" lon="-3.104452"><ele>278</ele><time>2019-09-27T14:28:24Z</time><name>PT14243</name></trkpt>
<trkpt lat="52.945218" lon="-3.104448"><ele>278</ele><time>2019-09-27T14:28:26Z</time><name>PT14244</name></trkpt>
<trkpt lat="52.945202" lon="-3.104443"><ele>278</ele><time>2019-09-27T14:28:27Z</time><name>PT14245</name></trkpt>
<trkpt lat="52.945192" lon="-3.104448"><ele>277</ele><time>2019-09-27T14:28:27Z</time><name>PT14246</name></trkpt>
<trkpt lat="52.945183" lon="-3.104444"><ele>277</ele><time>2019-09-27T14:28:29Z</time><name>PT14247</name></trkpt>
<trkpt lat="52.945166" lon="-3.104436"><ele>276</ele><time>2019-09-27T14:28:30Z</time><name>PT14248</name></trkpt>
<trkpt lat="52.945156" lon="-3.104424"><ele>276</ele><time>2019-09-27T14:28:30Z</time><name>PT14249</name></trkpt>
<trkpt lat="52.945150" lon="-3.104419"><ele>276</ele><time>2019-09-27T14:28:32Z</time><name>PT14250</name></trkpt>
<trkpt lat="52.945139" lon="-3.104413"><ele>275</ele><time>2019-09-27T14:28:33Z</time><name>PT14251</name></trkpt>
<trkpt lat="52.945127" lon="-3.104403"><ele>276</ele><time>2019-09-27T14:28:33Z</time><name>PT14252</name></trkpt>
<trkpt lat="52.945118" lon="-3.104394"><ele>276</ele><time>2019-09-27T14:28:35Z</time><name>PT14253</name></trkpt>
<trkpt lat="52.945111" lon="-3.104386"><ele>276</ele><time>2019-09-27T14:28:36Z</time><name>PT14254</name></trkpt>
<trkpt lat="52.945105" lon="-3.104375"><ele>276</ele><time>2019-09-27T14:28:37Z</time><name>PT14255</name></trkpt>
<trkpt lat="52.945094" lon="-3.104354"><ele>276</ele><time>2019-09-27T14:28:38Z</time><name>PT14256</name></trkpt>
<trkpt lat="52.945085" lon="-3.104339"><ele>275</ele><time>2019-09-27T14:28:39Z</time><name>PT14257</name></trkpt>
<trkpt lat="52.945078" lon="-3.104325"><ele>276</ele><time>2019-09-27T14:28:40Z</time><name>PT14258</name></trkpt>
<trkpt lat="52.945073" lon="-3.104313"><ele>276</ele><time>2019-09-27T14:28:41Z</time><name>PT14259</name></trkpt>
<trkpt lat="52.945069" lon="-3.104302"><ele>275</ele><time>2019-09-27T14:28:42Z</time><name>PT14260</name></trkpt>
<trkpt lat="52.945063" lon="-3.104289"><ele>275</ele><time>2019-09-27T14:28:43Z</time><name>PT14261</name></trkpt>
<trkpt lat="52.945056" lon="-3.104275"><ele>276</ele><time>2019-09-27T14:28:44Z</time><name>PT14262</name></trkpt>
<trkpt lat="52.945048" lon="-3.104260"><ele>276</ele><time>2019-09-27T14:28:45Z</time><name>PT14263</name></trkpt>
<trkpt lat="52.945039" lon="-3.104243"><ele>276</ele><time>2019-09-27T14:28:46Z</time><name>PT14264</name></trkpt>
<trkpt lat="52.945030" lon="-3.104230"><ele>276</ele><time>2019-09-27T14:28:47Z</time><name>PT14265</name></trkpt>
<trkpt lat="52.945022" lon="-3.104216"><ele>275</ele><time>2019-09-27T14:28:48Z</time><name>PT14266</name></trkpt>
<trkpt lat="52.945015" lon="-3.104193"><ele>275</ele><time>2019-09-27T14:28:49Z</time><name>PT14267</name></trkpt>
<trkpt lat="52.945008" lon="-3.104177"><ele>275</ele><time>2019-09-27T14:28:50Z</time><name>PT14268</name></trkpt>
<trkpt lat="52.945003" lon="-3.104164"><ele>274</ele><time>2019-09-27T14:28:51Z</time><name>PT14269</name></trkpt>
<trkpt lat="52.944995" lon="-3.104149"><ele>274</ele><time>2019-09-27T14:28:51Z</time><name>PT14270</name></trkpt>
<trkpt lat="52.944986" lon="-3.104134"><ele>274</ele><time>2019-09-27T14:28:53Z</time><name>PT14271</name></trkpt>
<trkpt lat="52.944977" lon="-3.104116"><ele>275</ele><time>2019-09-27T14:28:54Z</time><name>PT14272</name></trkpt>
<trkpt lat="52.944971" lon="-3.104099"><ele>275</ele><time>2019-09-27T14:28:54Z</time><name>PT14273</name></trkpt>
<trkpt lat="52.944962" lon="-3.104079"><ele>275</ele><time>2019-09-27T14:28:56Z</time><name>PT14274</name></trkpt>
<trkpt lat="52.944955" lon="-3.104059"><ele>274</ele><time>2019-09-27T14:28:57Z</time><name>PT14275</name></trkpt>
<trkpt lat="52.944947" lon="-3.104040"><ele>275</ele><time>2019-09-27T14:28:57Z</time><name>PT14276</name></trkpt>
<trkpt lat="52.944939" lon="-3.104018"><ele>275</ele><time>2019-09-27T14:28:59Z</time><name>PT14277</name></trkpt>
<trkpt lat="52.944933" lon="-3.103999"><ele>275</ele><time>2019-09-27T14:29:00Z</time><name>PT14278</name></trkpt>
<trkpt lat="52.944924" lon="-3.103983"><ele>275</ele><time>2019-09-27T14:29:00Z</time><name>PT14279</name></trkpt>
<trkpt lat="52.944917" lon="-3.103966"><ele>274</ele><time>2019-09-27T14:29:02Z</time><name>PT14280</name></trkpt>
<trkpt lat="52.944911" lon="-3.103950"><ele>274</ele><time>2019-09-27T14:29:03Z</time><name>PT14281</name></trkpt>
<trkpt lat="52.944903" lon="-3.103938"><ele>274</ele><time>2019-09-27T14:29:03Z</time><name>PT14282</name></trkpt>
<trkpt lat="52.944897" lon="-3.103925"><ele>274</ele><time>2019-09-27T14:29:05Z</time><name>PT14283</name></trkpt>
<trkpt lat="52.944890" lon="-3.103905"><ele>274</ele><time>2019-09-27T14:29:06Z</time><name>PT14284</name></trkpt>
<trkpt lat="52.944884" lon="-3.103886"><ele>274</ele><time>2019-09-27T14:29:06Z</time><name>PT14285</name></trkpt>
<trkpt lat="52.944877" lon="-3.103868"><ele>273</ele><time>2019-09-27T14:29:08Z</time><name>PT14286</name></trkpt>
<trkpt lat="52.944869" lon="-3.103853"><ele>273</ele><time>2019-09-27T14:29:09Z</time><name>PT14287</name></trkpt>
<trkpt lat="52.944861" lon="-3.103837"><ele>273</ele><time>2019-09-27T14:29:09Z</time><name>PT14288</name></trkpt>
<trkpt lat="52.944852" lon="-3.103820"><ele>273</ele><time>2019-09-27T14:29:11Z</time><name>PT14289</name></trkpt>
<trkpt lat="52.944843" lon="-3.103802"><ele>273</ele><time>2019-09-27T14:29:12Z</time><name>PT14290</name></trkpt>
<trkpt lat="52.944836" lon="-3.103784"><ele>273</ele><time>2019-09-27T14:29:12Z</time><name>PT14291</name></trkpt>
<trkpt lat="52.944829" lon="-3.103765"><ele>272</ele><time>2019-09-27T14:29:14Z</time><name>PT14292</name></trkpt>
<trkpt lat="52.944822" lon="-3.103746"><ele>272</ele><time>2019-09-27T14:29:15Z</time><name>PT14293</name></trkpt>
<trkpt lat="52.944814" lon="-3.103729"><ele>273</ele><time>2019-09-27T14:29:15Z</time><name>PT14294</name></trkpt>
<trkpt lat="52.944808" lon="-3.103711"><ele>273</ele><time>2019-09-27T14:29:17Z</time><name>PT14295</name></trkpt>
<trkpt lat="52.944803" lon="-3.103698"><ele>272</ele><time>2019-09-27T14:29:18Z</time><name>PT14296</name></trkpt>
<trkpt lat="52.944795" lon="-3.103681"><ele>272</ele><time>2019-09-27T14:29:18Z</time><name>PT14297</name></trkpt>
<trkpt lat="52.944788" lon="-3.103667"><ele>272</ele><time>2019-09-27T14:29:20Z</time><name>PT14298</name></trkpt>
<trkpt lat="52.944781" lon="-3.103651"><ele>271</ele><time>2019-09-27T14:29:21Z</time><name>PT14299</name></trkpt>
<trkpt lat="52.944776" lon="-3.103637"><ele>271</ele><time>2019-09-27T14:29:21Z</time><name>PT14300</name></trkpt>
<trkpt lat="52.944770" lon="-3.103623"><ele>271</ele><time>2019-09-27T14:29:23Z</time><name>PT14301</name></trkpt>
<trkpt lat="52.944765" lon="-3.103609"><ele>271</ele><time>2019-09-27T14:29:24Z</time><name>PT14302</name></trkpt>
<trkpt lat="52.944759" lon="-3.103592"><ele>271</ele><time>2019-09-27T14:29:24Z</time><name>PT14303</name></trkpt>
<trkpt lat="52.944752" lon="-3.103571"><ele>271</ele><time>2019-09-27T14:29:26Z</time><name>PT14304</name></trkpt>
<trkpt lat="52.944747" lon="-3.103554"><ele>271</ele><time>2019-09-27T14:29:27Z</time><name>PT14305</name></trkpt>
<trkpt lat="52.944742" lon="-3.103544"><ele>270</ele><time>2019-09-27T14:29:27Z</time><name>PT14306</name></trkpt>
<trkpt lat="52.944737" lon="-3.103533"><ele>270</ele><time>2019-09-27T14:29:29Z</time><name>PT14307</name></trkpt>
<trkpt lat="52.944730" lon="-3.103517"><ele>269</ele><time>2019-09-27T14:29:30Z</time><name>PT14308</name></trkpt>
<trkpt lat="52.944723" lon="-3.103499"><ele>270</ele><time>2019-09-27T14:29:30Z</time><name>PT14309</name></trkpt>
<trkpt lat="52.944714" lon="-3.103479"><ele>269</ele><time>2019-09-27T14:29:32Z</time><name>PT14310</name></trkpt>
<trkpt lat="52.944706" lon="-3.103463"><ele>269</ele><time>2019-09-27T14:29:33Z</time><name>PT14311</name></trkpt>
<trkpt lat="52.944700" lon="-3.103452"><ele>268</ele><time>2019-09-27T14:29:33Z</time><name>PT14312</name></trkpt>
<trkpt lat="52.944693" lon="-3.103443"><ele>268</ele><time>2019-09-27T14:29:35Z</time><name>PT14313</name></trkpt>
<trkpt lat="52.944687" lon="-3.103434"><ele>268</ele><time>2019-09-27T14:29:36Z</time><name>PT14314</name></trkpt>
<trkpt lat="52.944683" lon="-3.103423"><ele>268</ele><time>2019-09-27T14:29:36Z</time><name>PT14315</name></trkpt>
<trkpt lat="52.944679" lon="-3.103409"><ele>267</ele><time>2019-09-27T14:29:38Z</time><name>PT14316</name></trkpt>
<trkpt lat="52.944670" lon="-3.103390"><ele>267</ele><time>2019-09-27T14:29:39Z</time><name>PT14317</name></trkpt>
<trkpt lat="52.944662" lon="-3.103378"><ele>267</ele><time>2019-09-27T14:29:39Z</time><name>PT14318</name></trkpt>
<trkpt lat="52.944653" lon="-3.103367"><ele>266</ele><time>2019-09-27T14:29:41Z</time><name>PT14319</name></trkpt>
<trkpt lat="52.944645" lon="-3.103355"><ele>266</ele><time>2019-09-27T14:29:42Z</time><name>PT14320</name></trkpt>
<trkpt lat="52.944638" lon="-3.103344"><ele>265</ele><time>2019-09-27T14:29:42Z</time><name>PT14321</name></trkpt>
<trkpt lat="52.944633" lon="-3.103332"><ele>264</ele><time>2019-09-27T14:29:44Z</time><name>PT14322</name></trkpt>
<trkpt lat="52.944629" lon="-3.103320"><ele>264</ele><time>2019-09-27T14:29:45Z</time><name>PT14323</name></trkpt>
<trkpt lat="52.944621" lon="-3.103299"><ele>264</ele><time>2019-09-27T14:29:46Z</time><name>PT14324</name></trkpt>
<trkpt lat="52.944613" lon="-3.103277"><ele>264</ele><time>2019-09-27T14:29:47Z</time><name>PT14325</name></trkpt>
<trkpt lat="52.944606" lon="-3.103259"><ele>264</ele><time>2019-09-27T14:29:48Z</time><name>PT14326</name></trkpt>
<trkpt lat="52.944600" lon="-3.103245"><ele>264</ele><time>2019-09-27T14:29:48Z</time><name>PT14327</name></trkpt>
<trkpt lat="52.944592" lon="-3.103227"><ele>263</ele><time>2019-09-27T14:29:50Z</time><name>PT14328</name></trkpt>
<trkpt lat="52.944587" lon="-3.103216"><ele>262</ele><time>2019-09-27T14:29:51Z</time><name>PT14329</name></trkpt>
<trkpt lat="52.944579" lon="-3.103201"><ele>262</ele><time>2019-09-27T14:29:52Z</time><name>PT14330</name></trkpt>
<trkpt lat="52.944573" lon="-3.103185"><ele>263</ele><time>2019-09-27T14:29:53Z</time><name>PT14331</name></trkpt>
<trkpt lat="52.944568" lon="-3.103163"><ele>263</ele><time>2019-09-27T14:29:54Z</time><name>PT14332</name></trkpt>
<trkpt lat="52.944563" lon="-3.103152"><ele>263</ele><time>2019-09-27T14:29:55Z</time><name>PT14333</name></trkpt>
<trkpt lat="52.944553" lon="-3.103137"><ele>263</ele><time>2019-09-27T14:29:56Z</time><name>PT14334</name></trkpt>
<trkpt lat="52.944547" lon="-3.103121"><ele>262</ele><time>2019-09-27T14:29:57Z</time><name>PT14335</name></trkpt>
<trkpt lat="52.944542" lon="-3.103102"><ele>262</ele><time>2019-09-27T14:29:58Z</time><name>PT14336</name></trkpt>
<trkpt lat="52.944536" lon="-3.103081"><ele>262</ele><time>2019-09-27T14:29:59Z</time><name>PT14337</name></trkpt>
<trkpt lat="52.944535" lon="-3.103057"><ele>261</ele><time>2019-09-27T14:30:00Z</time><name>PT14338</name></trkpt>
<trkpt lat="52.944534" lon="-3.103036"><ele>261</ele><time>2019-09-27T14:30:01Z</time><name>PT14339</name></trkpt>
<trkpt lat="52.944529" lon="-3.103014"><ele>261</ele><time>2019-09-27T14:30:02Z</time><name>PT14340</name></trkpt>
<trkpt lat="52.944523" lon="-3.102995"><ele>261</ele><time>2019-09-27T14:30:03Z</time><name>PT14341</name></trkpt>
<trkpt lat="52.944517" lon="-3.102967"><ele>261</ele><time>2019-09-27T14:30:03Z</time><name>PT14342</name></trkpt>
<trkpt lat="52.944511" lon="-3.102946"><ele>260</ele><time>2019-09-27T14:30:05Z</time><name>PT14343</name></trkpt>
<trkpt lat="52.944507" lon="-3.102929"><ele>260</ele><time>2019-09-27T14:30:06Z</time><name>PT14344</name></trkpt>
<trkpt lat="52.944505" lon="-3.102909"><ele>260</ele><time>2019-09-27T14:30:06Z</time><name>PT14345</name></trkpt>
<trkpt lat="52.944504" lon="-3.102892"><ele>259</ele><time>2019-09-27T14:30:08Z</time><name>PT14346</name></trkpt>
<trkpt lat="52.944500" lon="-3.102871"><ele>259</ele><time>2019-09-27T14:30:09Z</time><name>PT14347</name></trkpt>
<trkpt lat="52.944498" lon="-3.102852"><ele>259</ele><time>2019-09-27T14:30:09Z</time><name>PT14348</name></trkpt>
<trkpt lat="52.944492" lon="-3.102830"><ele>259</ele><time>2019-09-27T14:30:11Z</time><name>PT14349</name></trkpt>
<trkpt lat="52.944483" lon="-3.102808"><ele>260</ele><time>2019-09-27T14:30:12Z</time><name>PT14350</name></trkpt>
<trkpt lat="52.944477" lon="-3.102787"><ele>260</ele><time>2019-09-27T14:30:12Z</time><name>PT14351</name></trkpt>
<trkpt lat="52.944471" lon="-3.102769"><ele>260</ele><time>2019-09-27T14:30:14Z</time><name>PT14352</name></trkpt>
<trkpt lat="52.944471" lon="-3.102755"><ele>259</ele><time>2019-09-27T14:30:15Z</time><name>PT14353</name></trkpt>
<trkpt lat="52.944466" lon="-3.102735"><ele>259</ele><time>2019-09-27T14:30:15Z</time><name>PT14354</name></trkpt>
<trkpt lat="52.944464" lon="-3.102718"><ele>259</ele><time>2019-09-27T14:30:17Z</time><name>PT14355</name></trkpt>
<trkpt lat="52.944460" lon="-3.102698"><ele>259</ele><time>2019-09-27T14:30:18Z</time><name>PT14356</name></trkpt>
<trkpt lat="52.944458" lon="-3.102680"><ele>259</ele><time>2019-09-27T14:30:18Z</time><name>PT14357</name></trkpt>
<trkpt lat="52.944457" lon="-3.102665"><ele>258</ele><time>2019-09-27T14:30:20Z</time><name>PT14358</name></trkpt>
<trkpt lat="52.944457" lon="-3.102648"><ele>258</ele><time>2019-09-27T14:30:21Z</time><name>PT14359</name></trkpt>
<trkpt lat="52.944455" lon="-3.102631"><ele>257</ele><time>2019-09-27T14:30:21Z</time><name>PT14360</name></trkpt>
<trkpt lat="52.944454" lon="-3.102609"><ele>257</ele><time>2019-09-27T14:30:23Z</time><name>PT14361</name></trkpt>
<trkpt lat="52.944455" lon="-3.102591"><ele>257</ele><time>2019-09-27T14:30:24Z</time><name>PT14362</name></trkpt>
<trkpt lat="52.944454" lon="-3.102573"><ele>256</ele><time>2019-09-27T14:30:24Z</time><name>PT14363</name></trkpt>
<trkpt lat="52.944452" lon="-3.102562"><ele>256</ele><time>2019-09-27T14:30:26Z</time><name>PT14364</name></trkpt>
<trkpt lat="52.944445" lon="-3.102548"><ele>255</ele><time>2019-09-27T14:30:27Z</time><name>PT14365</name></trkpt>
<trkpt lat="52.944442" lon="-3.102510"><ele>254</ele><time>2019-09-27T14:30:27Z</time><name>PT14366</name></trkpt>
<trkpt lat="52.944437" lon="-3.102489"><ele>253</ele><time>2019-09-27T14:30:29Z</time><name>PT14367</name></trkpt>
<trkpt lat="52.944431" lon="-3.102473"><ele>253</ele><time>2019-09-27T14:30:30Z</time><name>PT14368</name></trkpt>
<trkpt lat="52.944427" lon="-3.102458"><ele>254</ele><time>2019-09-27T14:30:30Z</time><name>PT14369</name></trkpt>
<trkpt lat="52.944424" lon="-3.102442"><ele>253</ele><time>2019-09-27T14:30:32Z</time><name>PT14370</name></trkpt>
<trkpt lat="52.944428" lon="-3.102433"><ele>253</ele><time>2019-09-27T14:30:33Z</time><name>PT14371</name></trkpt>
<trkpt lat="52.944428" lon="-3.102417"><ele>252</ele><time>2019-09-27T14:30:33Z</time><name>PT14372</name></trkpt>
<trkpt lat="52.944427" lon="-3.102401"><ele>251</ele><time>2019-09-27T14:30:35Z</time><name>PT14373</name></trkpt>
<trkpt lat="52.944430" lon="-3.102397"><ele>250</ele><time>2019-09-27T14:30:36Z</time><name>PT14374</name></trkpt>
<trkpt lat="52.944428" lon="-3.102383"><ele>250</ele><time>2019-09-27T14:30:36Z</time><name>PT14375</name></trkpt>
<trkpt lat="52.944422" lon="-3.102369"><ele>250</ele><time>2019-09-27T14:30:38Z</time><name>PT14376</name></trkpt>
<trkpt lat="52.944419" lon="-3.102360"><ele>249</ele><time>2019-09-27T14:30:39Z</time><name>PT14377</name></trkpt>
<trkpt lat="52.944410" lon="-3.102337"><ele>249</ele><time>2019-09-27T14:30:39Z</time><name>PT14378</name></trkpt>
<trkpt lat="52.944402" lon="-3.102309"><ele>248</ele><time>2019-09-27T14:30:41Z</time><name>PT14379</name></trkpt>
<trkpt lat="52.944395" lon="-3.102291"><ele>248</ele><time>2019-09-27T14:30:42Z</time><name>PT14380</name></trkpt>
<trkpt lat="52.944389" lon="-3.102266"><ele>247</ele><time>2019-09-27T14:30:42Z</time><name>PT14381</name></trkpt>
<trkpt lat="52.944387" lon="-3.102254"><ele>247</ele><time>2019-09-27T14:30:44Z</time><name>PT14382</name></trkpt>
<trkpt lat="52.944382" lon="-3.102234"><ele>247</ele><time>2019-09-27T14:30:45Z</time><name>PT14383</name></trkpt>
<trkpt lat="52.944378" lon="-3.102218"><ele>248</ele><time>2019-09-27T14:30:45Z</time><name>PT14384</name></trkpt>
<trkpt lat="52.944372" lon="-3.102200"><ele>247</ele><time>2019-09-27T14:30:47Z</time><name>PT14385</name></trkpt>
<trkpt lat="52.944372" lon="-3.102190"><ele>246</ele><time>2019-09-27T14:30:48Z</time><name>PT14386</name></trkpt>
<trkpt lat="52.944367" lon="-3.102167"><ele>246</ele><time>2019-09-27T14:30:48Z</time><name>PT14387</name></trkpt>
<trkpt lat="52.944366" lon="-3.102152"><ele>246</ele><time>2019-09-27T14:30:50Z</time><name>PT14388</name></trkpt>
<trkpt lat="52.944362" lon="-3.102129"><ele>246</ele><time>2019-09-27T14:30:51Z</time><name>PT14389</name></trkpt>
<trkpt lat="52.944361" lon="-3.102111"><ele>246</ele><time>2019-09-27T14:30:51Z</time><name>PT14390</name></trkpt>
<trkpt lat="52.944355" lon="-3.102091"><ele>247</ele><time>2019-09-27T14:30:53Z</time><name>PT14391</name></trkpt>
<trkpt lat="52.944345" lon="-3.102068"><ele>248</ele><time>2019-09-27T14:30:54Z</time><name>PT14392</name></trkpt>
<trkpt lat="52.944339" lon="-3.102050"><ele>248</ele><time>2019-09-27T14:30:55Z</time><name>PT14393</name></trkpt>
<trkpt lat="52.944334" lon="-3.102024"><ele>248</ele><time>2019-09-27T14:30:56Z</time><name>PT14394</name></trkpt>
<trkpt lat="52.944330" lon="-3.102003"><ele>249</ele><time>2019-09-27T14:30:57Z</time><name>PT14395</name></trkpt>
<trkpt lat="52.944323" lon="-3.101980"><ele>250</ele><time>2019-09-27T14:30:57Z</time><name>PT14396</name></trkpt>
<trkpt lat="52.944314" lon="-3.101959"><ele>251</ele><time>2019-09-27T14:30:59Z</time><name>PT14397</name></trkpt>
<trkpt lat="52.944313" lon="-3.101944"><ele>251</ele><time>2019-09-27T14:31:00Z</time><name>PT14398</name></trkpt>
<trkpt lat="52.944307" lon="-3.101916"><ele>252</ele><time>2019-09-27T14:31:00Z</time><name>PT14399</name></trkpt>
<trkpt lat="52.944302" lon="-3.101893"><ele>252</ele><time>2019-09-27T14:31:02Z</time><name>PT14400</name></trkpt>
<trkpt lat="52.944296" lon="-3.101871"><ele>253</ele><time>2019-09-27T14:31:03Z</time><name>PT14401</name></trkpt>
<trkpt lat="52.944291" lon="-3.101854"><ele>253</ele><time>2019-09-27T14:31:03Z</time><name>PT14402</name></trkpt>
<trkpt lat="52.944288" lon="-3.101842"><ele>253</ele><time>2019-09-27T14:31:05Z</time><name>PT14403</name></trkpt>
<trkpt lat="52.944286" lon="-3.101822"><ele>253</ele><time>2019-09-27T14:31:06Z</time><name>PT14404</name></trkpt>
<trkpt lat="52.944286" lon="-3.101801"><ele>252</ele><time>2019-09-27T14:31:06Z</time><name>PT14405</name></trkpt>
<trkpt lat="52.944285" lon="-3.101778"><ele>253</ele><time>2019-09-27T14:31:08Z</time><name>PT14406</name></trkpt>
<trkpt lat="52.944280" lon="-3.101752"><ele>253</ele><time>2019-09-27T14:31:09Z</time><name>PT14407</name></trkpt>
<trkpt lat="52.944278" lon="-3.101731"><ele>253</ele><time>2019-09-27T14:31:09Z</time><name>PT14408</name></trkpt>
<trkpt lat="52.944276" lon="-3.101722"><ele>252</ele><time>2019-09-27T14:31:11Z</time><name>PT14409</name></trkpt>
<trkpt lat="52.944276" lon="-3.101710"><ele>251</ele><time>2019-09-27T14:31:12Z</time><name>PT14410</name></trkpt>
<trkpt lat="52.944273" lon="-3.101686"><ele>251</ele><time>2019-09-27T14:31:13Z</time><name>PT14411</name></trkpt>
<trkpt lat="52.944269" lon="-3.101659"><ele>252</ele><time>2019-09-27T14:31:14Z</time><name>PT14412</name></trkpt>
<trkpt lat="52.944267" lon="-3.101641"><ele>252</ele><time>2019-09-27T14:31:15Z</time><name>PT14413</name></trkpt>
<trkpt lat="52.944264" lon="-3.101621"><ele>252</ele><time>2019-09-27T14:31:15Z</time><name>PT14414</name></trkpt>
<trkpt lat="52.944253" lon="-3.101563"><ele>253</ele><time>2019-09-27T14:31:17Z</time><name>PT14415</name></trkpt>
<trkpt lat="52.944249" lon="-3.101543"><ele>253</ele><time>2019-09-27T14:31:18Z</time><name>PT14416</name></trkpt>
<trkpt lat="52.944245" lon="-3.101530"><ele>252</ele><time>2019-09-27T14:31:19Z</time><name>PT14417</name></trkpt>
<trkpt lat="52.944242" lon="-3.101512"><ele>252</ele><time>2019-09-27T14:31:20Z</time><name>PT14418</name></trkpt>
<trkpt lat="52.944239" lon="-3.101503"><ele>252</ele><time>2019-09-27T14:31:21Z</time><name>PT14419</name></trkpt>
<trkpt lat="52.944235" lon="-3.101482"><ele>252</ele><time>2019-09-27T14:31:22Z</time><name>PT14420</name></trkpt>
<trkpt lat="52.944231" lon="-3.101463"><ele>253</ele><time>2019-09-27T14:31:23Z</time><name>PT14421</name></trkpt>
<trkpt lat="52.944217" lon="-3.101457"><ele>253</ele><time>2019-09-27T14:31:24Z</time><name>PT14422</name></trkpt>
<trkpt lat="52.944212" lon="-3.101450"><ele>253</ele><time>2019-09-27T14:31:25Z</time><name>PT14423</name></trkpt>
<trkpt lat="52.944211" lon="-3.101440"><ele>253</ele><time>2019-09-27T14:31:26Z</time><name>PT14424</name></trkpt>
<trkpt lat="52.944210" lon="-3.101420"><ele>252</ele><time>2019-09-27T14:31:27Z</time><name>PT14425</name></trkpt>
<trkpt lat="52.944212" lon="-3.101400"><ele>250</ele><time>2019-09-27T14:31:27Z</time><name>PT14426</name></trkpt>
<trkpt lat="52.944220" lon="-3.101388"><ele>248</ele><time>2019-09-27T14:31:29Z</time><name>PT14427</name></trkpt>
<trkpt lat="52.944223" lon="-3.101376"><ele>246</ele><time>2019-09-27T14:31:30Z</time><name>PT14428</name></trkpt>
<trkpt lat="52.944220" lon="-3.101355"><ele>246</ele><time>2019-09-27T14:31:30Z</time><name>PT14429</name></trkpt>
<trkpt lat="52.944220" lon="-3.101338"><ele>245</ele><time>2019-09-27T14:31:32Z</time><name>PT14430</name></trkpt>
<trkpt lat="52.944217" lon="-3.101324"><ele>245</ele><time>2019-09-27T14:31:33Z</time><name>PT14431</name></trkpt>
<trkpt lat="52.944217" lon="-3.101302"><ele>244</ele><time>2019-09-27T14:31:33Z</time><name>PT14432</name></trkpt>
<trkpt lat="52.944216" lon="-3.101283"><ele>244</ele><time>2019-09-27T14:31:35Z</time><name>PT14433</name></trkpt>
<trkpt lat="52.944220" lon="-3.101265"><ele>243</ele><time>2019-09-27T14:31:36Z</time><name>PT14434</name></trkpt>
<trkpt lat="52.944220" lon="-3.101241"><ele>243</ele><time>2019-09-27T14:31:36Z</time><name>PT14435</name></trkpt>
<trkpt lat="52.944218" lon="-3.101221"><ele>242</ele><time>2019-09-27T14:31:38Z</time><name>PT14436</name></trkpt>
<trkpt lat="52.944214" lon="-3.101198"><ele>242</ele><time>2019-09-27T14:31:39Z</time><name>PT14437</name></trkpt>
<trkpt lat="52.944212" lon="-3.101180"><ele>242</ele><time>2019-09-27T14:31:39Z</time><name>PT14438</name></trkpt>
<trkpt lat="52.944211" lon="-3.101164"><ele>241</ele><time>2019-09-27T14:31:41Z</time><name>PT14439</name></trkpt>
<trkpt lat="52.944204" lon="-3.101135"><ele>241</ele><time>2019-09-27T14:31:42Z</time><name>PT14440</name></trkpt>
<trkpt lat="52.944198" lon="-3.101110"><ele>242</ele><time>2019-09-27T14:31:42Z</time><name>PT14441</name></trkpt>
<trkpt lat="52.944199" lon="-3.101098"><ele>241</ele><time>2019-09-27T14:31:44Z</time><name>PT14442</name></trkpt>
<trkpt lat="52.944196" lon="-3.101081"><ele>241</ele><time>2019-09-27T14:31:45Z</time><name>PT14443</name></trkpt>
<trkpt lat="52.944191" lon="-3.101056"><ele>242</ele><time>2019-09-27T14:31:45Z</time><name>PT14444</name></trkpt>
<trkpt lat="52.944183" lon="-3.101028"><ele>243</ele><time>2019-09-27T14:31:47Z</time><name>PT14445</name></trkpt>
<trkpt lat="52.944182" lon="-3.101008"><ele>243</ele><time>2019-09-27T14:31:48Z</time><name>PT14446</name></trkpt>
<trkpt lat="52.944182" lon="-3.100997"><ele>242</ele><time>2019-09-27T14:31:48Z</time><name>PT14447</name></trkpt>
<trkpt lat="52.944178" lon="-3.100976"><ele>241</ele><time>2019-09-27T14:31:50Z</time><name>PT14448</name></trkpt>
<trkpt lat="52.944176" lon="-3.100955"><ele>242</ele><time>2019-09-27T14:31:51Z</time><name>PT14449</name></trkpt>
<trkpt lat="52.944175" lon="-3.100937"><ele>242</ele><time>2019-09-27T14:31:51Z</time><name>PT14450</name></trkpt>
<trkpt lat="52.944171" lon="-3.100913"><ele>243</ele><time>2019-09-27T14:31:53Z</time><name>PT14451</name></trkpt>
<trkpt lat="52.944168" lon="-3.100897"><ele>242</ele><time>2019-09-27T14:31:54Z</time><name>PT14452</name></trkpt>
<trkpt lat="52.944164" lon="-3.100880"><ele>243</ele><time>2019-09-27T14:31:54Z</time><name>PT14453</name></trkpt>
<trkpt lat="52.944159" lon="-3.100862"><ele>244</ele><time>2019-09-27T14:31:56Z</time><name>PT14454</name></trkpt>
<trkpt lat="52.944158" lon="-3.100849"><ele>243</ele><time>2019-09-27T14:31:57Z</time><name>PT14455</name></trkpt>
<trkpt lat="52.944157" lon="-3.100852"><ele>241</ele><time>2019-09-27T14:31:57Z</time><name>PT14456</name></trkpt>
<trkpt lat="52.944156" lon="-3.100835"><ele>241</ele><time>2019-09-27T14:31:59Z</time><name>PT14457</name></trkpt>
<trkpt lat="52.944155" lon="-3.100815"><ele>241</ele><time>2019-09-27T14:32:00Z</time><name>PT14458</name></trkpt>
<trkpt lat="52.944160" lon="-3.100796"><ele>241</ele><time>2019-09-27T14:32:00Z</time><name>PT14459</name></trkpt>
<trkpt lat="52.944158" lon="-3.100763"><ele>241</ele><time>2019-09-27T14:32:02Z</time><name>PT14460</name></trkpt>
<trkpt lat="52.944161" lon="-3.100749"><ele>240</ele><time>2019-09-27T14:32:03Z</time><name>PT14461</name></trkpt>
<trkpt lat="52.944156" lon="-3.100726"><ele>240</ele><time>2019-09-27T14:32:03Z</time><name>PT14462</name></trkpt>
<trkpt lat="52.944148" lon="-3.100705"><ele>240</ele><time>2019-09-27T14:32:05Z</time><name>PT14463</name></trkpt>
<trkpt lat="52.944144" lon="-3.100681"><ele>241</ele><time>2019-09-27T14:32:06Z</time><name>PT14464</name></trkpt>
<trkpt lat="52.944145" lon="-3.100664"><ele>240</ele><time>2019-09-27T14:32:06Z</time><name>PT14465</name></trkpt>
<trkpt lat="52.944140" lon="-3.100641"><ele>240</ele><time>2019-09-27T14:32:08Z</time><name>PT14466</name></trkpt>
<trkpt lat="52.944137" lon="-3.100621"><ele>239</ele><time>2019-09-27T14:32:09Z</time><name>PT14467</name></trkpt>
<trkpt lat="52.944135" lon="-3.100599"><ele>239</ele><time>2019-09-27T14:32:10Z</time><name>PT14468</name></trkpt>
<trkpt lat="52.944132" lon="-3.100582"><ele>239</ele><time>2019-09-27T14:32:11Z</time><name>PT14469</name></trkpt>
<trkpt lat="52.944128" lon="-3.100560"><ele>239</ele><time>2019-09-27T14:32:12Z</time><name>PT14470</name></trkpt>
<trkpt lat="52.944125" lon="-3.100541"><ele>239</ele><time>2019-09-27T14:32:13Z</time><name>PT14471</name></trkpt>
<trkpt lat="52.944118" lon="-3.100514"><ele>240</ele><time>2019-09-27T14:32:14Z</time><name>PT14472</name></trkpt>
<trkpt lat="52.944114" lon="-3.100495"><ele>240</ele><time>2019-09-27T14:32:15Z</time><name>PT14473</name></trkpt>
<trkpt lat="52.944113" lon="-3.100476"><ele>239</ele><time>2019-09-27T14:32:16Z</time><name>PT14474</name></trkpt>
<trkpt lat="52.944114" lon="-3.100460"><ele>239</ele><time>2019-09-27T14:32:17Z</time><name>PT14475</name></trkpt>
<trkpt lat="52.944111" lon="-3.100428"><ele>239</ele><time>2019-09-27T14:32:18Z</time><name>PT14476</name></trkpt>
<trkpt lat="52.944115" lon="-3.100407"><ele>240</ele><time>2019-09-27T14:32:19Z</time><name>PT14477</name></trkpt>
<trkpt lat="52.944116" lon="-3.100391"><ele>239</ele><time>2019-09-27T14:32:20Z</time><name>PT14478</name></trkpt>
<trkpt lat="52.944114" lon="-3.100379"><ele>239</ele><time>2019-09-27T14:32:21Z</time><name>PT14479</name></trkpt>
<trkpt lat="52.944111" lon="-3.100349"><ele>239</ele><time>2019-09-27T14:32:22Z</time><name>PT14480</name></trkpt>
<trkpt lat="52.944112" lon="-3.100331"><ele>238</ele><time>2019-09-27T14:32:23Z</time><name>PT14481</name></trkpt>
<trkpt lat="52.944111" lon="-3.100313"><ele>238</ele><time>2019-09-27T14:32:24Z</time><name>PT14482</name></trkpt>
<trkpt lat="52.944110" lon="-3.100295"><ele>237</ele><time>2019-09-27T14:32:25Z</time><name>PT14483</name></trkpt>
<trkpt lat="52.944106" lon="-3.100267"><ele>238</ele><time>2019-09-27T14:32:26Z</time><name>PT14484</name></trkpt>
<trkpt lat="52.944097" lon="-3.100235"><ele>239</ele><time>2019-09-27T14:32:27Z</time><name>PT14485</name></trkpt>
<trkpt lat="52.944095" lon="-3.100216"><ele>239</ele><time>2019-09-27T14:32:27Z</time><name>PT14486</name></trkpt>
<trkpt lat="52.944094" lon="-3.100200"><ele>239</ele><time>2019-09-27T14:32:29Z</time><name>PT14487</name></trkpt>
<trkpt lat="52.944090" lon="-3.100169"><ele>239</ele><time>2019-09-27T14:32:30Z</time><name>PT14488</name></trkpt>
<trkpt lat="52.944085" lon="-3.100141"><ele>240</ele><time>2019-09-27T14:32:30Z</time><name>PT14489</name></trkpt>
<trkpt lat="52.944083" lon="-3.100122"><ele>239</ele><time>2019-09-27T14:32:32Z</time><name>PT14490</name></trkpt>
<trkpt lat="52.944080" lon="-3.100100"><ele>239</ele><time>2019-09-27T14:32:33Z</time><name>PT14491</name></trkpt>
<trkpt lat="52.944075" lon="-3.100074"><ele>240</ele><time>2019-09-27T14:32:33Z</time><name>PT14492</name></trkpt>
<trkpt lat="52.944070" lon="-3.100058"><ele>240</ele><time>2019-09-27T14:32:35Z</time><name>PT14493</name></trkpt>
<trkpt lat="52.944067" lon="-3.100038"><ele>240</ele><time>2019-09-27T14:32:36Z</time><name>PT14494</name></trkpt>
<trkpt lat="52.944063" lon="-3.100024"><ele>239</ele><time>2019-09-27T14:32:36Z</time><name>PT14495</name></trkpt>
<trkpt lat="52.944059" lon="-3.100002"><ele>239</ele><time>2019-09-27T14:32:38Z</time><name>PT14496</name></trkpt>
<trkpt lat="52.944055" lon="-3.099974"><ele>239</ele><time>2019-09-27T14:32:39Z</time><name>PT14497</name></trkpt>
<trkpt lat="52.944055" lon="-3.099954"><ele>239</ele><time>2019-09-27T14:32:39Z</time><name>PT14498</name></trkpt>
<trkpt lat="52.944053" lon="-3.099931"><ele>239</ele><time>2019-09-27T14:32:41Z</time><name>PT14499</name></trkpt>
<trkpt lat="52.944052" lon="-3.099911"><ele>239</ele><time>2019-09-27T14:32:42Z</time><name>PT14500</name></trkpt>
<trkpt lat="52.944052" lon="-3.099895"><ele>239</ele><time>2019-09-27T14:32:42Z</time><name>PT14501</name></trkpt>
<trkpt lat="52.944052" lon="-3.099883"><ele>239</ele><time>2019-09-27T14:32:44Z</time><name>PT14502</name></trkpt>
<trkpt lat="52.944049" lon="-3.099872"><ele>239</ele><time>2019-09-27T14:32:45Z</time><name>PT14503</name></trkpt>
<trkpt lat="52.944047" lon="-3.099855"><ele>238</ele><time>2019-09-27T14:32:45Z</time><name>PT14504</name></trkpt>
<trkpt lat="52.944046" lon="-3.099832"><ele>239</ele><time>2019-09-27T14:32:47Z</time><name>PT14505</name></trkpt>
<trkpt lat="52.944045" lon="-3.099812"><ele>238</ele><time>2019-09-27T14:32:48Z</time><name>PT14506</name></trkpt>
<trkpt lat="52.944044" lon="-3.099796"><ele>238</ele><time>2019-09-27T14:32:48Z</time><name>PT14507</name></trkpt>
<trkpt lat="52.944041" lon="-3.099777"><ele>238</ele><time>2019-09-27T14:32:50Z</time><name>PT14508</name></trkpt>
<trkpt lat="52.944041" lon="-3.099759"><ele>238</ele><time>2019-09-27T14:32:51Z</time><name>PT14509</name></trkpt>
<trkpt lat="52.944042" lon="-3.099742"><ele>237</ele><time>2019-09-27T14:32:51Z</time><name>PT14510</name></trkpt>
<trkpt lat="52.944043" lon="-3.099717"><ele>237</ele><time>2019-09-27T14:32:53Z</time><name>PT14511</name></trkpt>
<trkpt lat="52.944045" lon="-3.099695"><ele>237</ele><time>2019-09-27T14:32:54Z</time><name>PT14512</name></trkpt>
<trkpt lat="52.944044" lon="-3.099667"><ele>238</ele><time>2019-09-27T14:32:54Z</time><name>PT14513</name></trkpt>
<trkpt lat="52.944046" lon="-3.099648"><ele>237</ele><time>2019-09-27T14:32:56Z</time><name>PT14514</name></trkpt>
<trkpt lat="52.944048" lon="-3.099624"><ele>237</ele><time>2019-09-27T14:32:57Z</time><name>PT14515</name></trkpt>
<trkpt lat="52.944051" lon="-3.099607"><ele>238</ele><time>2019-09-27T14:32:57Z</time><name>PT14516</name></trkpt>
<trkpt lat="52.944052" lon="-3.099589"><ele>237</ele><time>2019-09-27T14:32:59Z</time><name>PT14517</name></trkpt>
<trkpt lat="52.944054" lon="-3.099570"><ele>237</ele><time>2019-09-27T14:33:00Z</time><name>PT14518</name></trkpt>
<trkpt lat="52.944057" lon="-3.099557"><ele>236</ele><time>2019-09-27T14:33:00Z</time><name>PT14519</name></trkpt>
<trkpt lat="52.944058" lon="-3.099523"><ele>236</ele><time>2019-09-27T14:33:02Z</time><name>PT14520</name></trkpt>
<trkpt lat="52.944058" lon="-3.099503"><ele>236</ele><time>2019-09-27T14:33:03Z</time><name>PT14521</name></trkpt>
<trkpt lat="52.944058" lon="-3.099487"><ele>236</ele><time>2019-09-27T14:33:03Z</time><name>PT14522</name></trkpt>
<trkpt lat="52.944057" lon="-3.099469"><ele>236</ele><time>2019-09-27T14:33:05Z</time><name>PT14523</name></trkpt>
<trkpt lat="52.944054" lon="-3.099449"><ele>235</ele><time>2019-09-27T14:33:06Z</time><name>PT14524</name></trkpt>
<trkpt lat="52.944053" lon="-3.099426"><ele>235</ele><time>2019-09-27T14:33:06Z</time><name>PT14525</name></trkpt>
<trkpt lat="52.944051" lon="-3.099400"><ele>235</ele><time>2019-09-27T14:33:08Z</time><name>PT14526</name></trkpt>
<trkpt lat="52.944050" lon="-3.099377"><ele>235</ele><time>2019-09-27T14:33:09Z</time><name>PT14527</name></trkpt>
<trkpt lat="52.944048" lon="-3.099355"><ele>235</ele><time>2019-09-27T14:33:09Z</time><name>PT14528</name></trkpt>
<trkpt lat="52.944044" lon="-3.099334"><ele>235</ele><time>2019-09-27T14:33:11Z</time><name>PT14529</name></trkpt>
<trkpt lat="52.944039" lon="-3.099309"><ele>235</ele><time>2019-09-27T14:33:12Z</time><name>PT14530</name></trkpt>
<trkpt lat="52.944036" lon="-3.099285"><ele>235</ele><time>2019-09-27T14:33:12Z</time><name>PT14531</name></trkpt>
<trkpt lat="52.944034" lon="-3.099264"><ele>234</ele><time>2019-09-27T14:33:14Z</time><name>PT14532</name></trkpt>
<trkpt lat="52.944030" lon="-3.099234"><ele>235</ele><time>2019-09-27T14:33:15Z</time><name>PT14533</name></trkpt>
<trkpt lat="52.944024" lon="-3.099209"><ele>234</ele><time>2019-09-27T14:33:15Z</time><name>PT14534</name></trkpt>
<trkpt lat="52.944015" lon="-3.099184"><ele>234</ele><time>2019-09-27T14:33:17Z</time><name>PT14535</name></trkpt>
<trkpt lat="52.944012" lon="-3.099165"><ele>234</ele><time>2019-09-27T14:33:18Z</time><name>PT14536</name></trkpt>
<trkpt lat="52.944006" lon="-3.099144"><ele>234</ele><time>2019-09-27T14:33:18Z</time><name>PT14537</name></trkpt>
<trkpt lat="52.944000" lon="-3.099119"><ele>235</ele><time>2019-09-27T14:33:20Z</time><name>PT14538</name></trkpt>
<trkpt lat="52.943996" lon="-3.099104"><ele>234</ele><time>2019-09-27T14:33:21Z</time><name>PT14539</name></trkpt>
<trkpt lat="52.943991" lon="-3.099089"><ele>234</ele><time>2019-09-27T14:33:21Z</time><name>PT14540</name></trkpt>
<trkpt lat="52.943985" lon="-3.099069"><ele>233</ele><time>2019-09-27T14:33:23Z</time><name>PT14541</name></trkpt>
<trkpt lat="52.943982" lon="-3.099054"><ele>233</ele><time>2019-09-27T14:33:24Z</time><name>PT14542</name></trkpt>
<trkpt lat="52.943972" lon="-3.099049"><ele>231</ele><time>2019-09-27T14:33:24Z</time><name>PT14543</name></trkpt>
<trkpt lat="52.943965" lon="-3.099040"><ele>231</ele><time>2019-09-27T14:33:26Z</time><name>PT14544</name></trkpt>
<trkpt lat="52.943959" lon="-3.099024"><ele>230</ele><time>2019-09-27T14:33:27Z</time><name>PT14545</name></trkpt>
<trkpt lat="52.943952" lon="-3.099010"><ele>230</ele><time>2019-09-27T14:33:27Z</time><name>PT14546</name></trkpt>
<trkpt lat="52.943943" lon="-3.098995"><ele>229</ele><time>2019-09-27T14:33:29Z</time><name>PT14547</name></trkpt>
<trkpt lat="52.943936" lon="-3.098981"><ele>228</ele><time>2019-09-27T14:33:30Z</time><name>PT14548</name></trkpt>
<trkpt lat="52.943932" lon="-3.098966"><ele>228</ele><time>2019-09-27T14:33:30Z</time><name>PT14549</name></trkpt>
<trkpt lat="52.943924" lon="-3.098947"><ele>228</ele><time>2019-09-27T14:33:32Z</time><name>PT14550</name></trkpt>
<trkpt lat="52.943917" lon="-3.098935"><ele>227</ele><time>2019-09-27T14:33:33Z</time><name>PT14551</name></trkpt>
<trkpt lat="52.943908" lon="-3.098921"><ele>227</ele><time>2019-09-27T14:33:33Z</time><name>PT14552</name></trkpt>
<trkpt lat="52.943902" lon="-3.098905"><ele>227</ele><time>2019-09-27T14:33:35Z</time><name>PT14553</name></trkpt>
<trkpt lat="52.943895" lon="-3.098892"><ele>226</ele><time>2019-09-27T14:33:36Z</time><name>PT14554</name></trkpt>
<trkpt lat="52.943888" lon="-3.098875"><ele>226</ele><time>2019-09-27T14:33:36Z</time><name>PT14555</name></trkpt>
<trkpt lat="52.943879" lon="-3.098856"><ele>226</ele><time>2019-09-27T14:33:38Z</time><name>PT14556</name></trkpt>
<trkpt lat="52.943872" lon="-3.098838"><ele>226</ele><time>2019-09-27T14:33:39Z</time><name>PT14557</name></trkpt>
<trkpt lat="52.943868" lon="-3.098824"><ele>225</ele><time>2019-09-27T14:33:40Z</time><name>PT14558</name></trkpt>
<trkpt lat="52.943863" lon="-3.098814"><ele>224</ele><time>2019-09-27T14:33:41Z</time><name>PT14559</name></trkpt>
<trkpt lat="52.943859" lon="-3.098802"><ele>224</ele><time>2019-09-27T14:33:42Z</time><name>PT14560</name></trkpt>
<trkpt lat="52.943851" lon="-3.098790"><ele>223</ele><time>2019-09-27T14:33:43Z</time><name>PT14561</name></trkpt>
<trkpt lat="52.943843" lon="-3.098775"><ele>223</ele><time>2019-09-27T14:33:44Z</time><name>PT14562</name></trkpt>
<trkpt lat="52.943833" lon="-3.098756"><ele>223</ele><time>2019-09-27T14:33:45Z</time><name>PT14563</name></trkpt>
<trkpt lat="52.943826" lon="-3.098747"><ele>223</ele><time>2019-09-27T14:33:46Z</time><name>PT14564</name></trkpt>
<trkpt lat="52.943817" lon="-3.098733"><ele>223</ele><time>2019-09-27T14:33:47Z</time><name>PT14565</name></trkpt>
<trkpt lat="52.943810" lon="-3.098722"><ele>222</ele><time>2019-09-27T14:33:48Z</time><name>PT14566</name></trkpt>
<trkpt lat="52.943800" lon="-3.098706"><ele>222</ele><time>2019-09-27T14:33:48Z</time><name>PT14567</name></trkpt>
<trkpt lat="52.943790" lon="-3.098689"><ele>222</ele><time>2019-09-27T14:33:50Z</time><name>PT14568</name></trkpt>
<trkpt lat="52.943782" lon="-3.098676"><ele>222</ele><time>2019-09-27T14:33:51Z</time><name>PT14569</name></trkpt>
<trkpt lat="52.943771" lon="-3.098660"><ele>223</ele><time>2019-09-27T14:33:51Z</time><name>PT14570</name></trkpt>
<trkpt lat="52.943762" lon="-3.098644"><ele>223</ele><time>2019-09-27T14:33:53Z</time><name>PT14571</name></trkpt>
<trkpt lat="52.943752" lon="-3.098626"><ele>223</ele><time>2019-09-27T14:33:54Z</time><name>PT14572</name></trkpt>
<trkpt lat="52.943740" lon="-3.098611"><ele>223</ele><time>2019-09-27T14:33:54Z</time><name>PT14573</name></trkpt>
<trkpt lat="52.943730" lon="-3.098598"><ele>223</ele><time>2019-09-27T14:33:56Z</time><name>PT14574</name></trkpt>
<trkpt lat="52.943720" lon="-3.098580"><ele>223</ele><time>2019-09-27T14:33:57Z</time><name>PT14575</name></trkpt>
<trkpt lat="52.943712" lon="-3.098565"><ele>223</ele><time>2019-09-27T14:33:57Z</time><name>PT14576</name></trkpt>
<trkpt lat="52.943702" lon="-3.098548"><ele>223</ele><time>2019-09-27T14:33:59Z</time><name>PT14577</name></trkpt>
<trkpt lat="52.943690" lon="-3.098528"><ele>224</ele><time>2019-09-27T14:34:00Z</time><name>PT14578</name></trkpt>
<trkpt lat="52.943679" lon="-3.098506"><ele>225</ele><time>2019-09-27T14:34:00Z</time><name>PT14579</name></trkpt>
<trkpt lat="52.943668" lon="-3.098490"><ele>225</ele><time>2019-09-27T14:34:02Z</time><name>PT14580</name></trkpt>
<trkpt lat="52.943658" lon="-3.098478"><ele>225</ele><time>2019-09-27T14:34:03Z</time><name>PT14581</name></trkpt>
<trkpt lat="52.943650" lon="-3.098460"><ele>226</ele><time>2019-09-27T14:34:03Z</time><name>PT14582</name></trkpt>
<trkpt lat="52.943641" lon="-3.098453"><ele>224</ele><time>2019-09-27T14:34:05Z</time><name>PT14583</name></trkpt>
<trkpt lat="52.943632" lon="-3.098444"><ele>224</ele><time>2019-09-27T14:34:06Z</time><name>PT14584</name></trkpt>
<trkpt lat="52.943625" lon="-3.098434"><ele>224</ele><time>2019-09-27T14:34:06Z</time><name>PT14585</name></trkpt>
<trkpt lat="52.943616" lon="-3.098427"><ele>223</ele><time>2019-09-27T14:34:08Z</time><name>PT14586</name></trkpt>
<trkpt lat="52.943605" lon="-3.098417"><ele>223</ele><time>2019-09-27T14:34:09Z</time><name>PT14587</name></trkpt>
<trkpt lat="52.943594" lon="-3.098404"><ele>222</ele><time>2019-09-27T14:34:09Z</time><name>PT14588</name></trkpt>
<trkpt lat="52.943587" lon="-3.098393"><ele>221</ele><time>2019-09-27T14:34:11Z</time><name>PT14589</name></trkpt>
<trkpt lat="52.943580" lon="-3.098386"><ele>221</ele><time>2019-09-27T14:34:12Z</time><name>PT14590</name></trkpt>
<trkpt lat="52.943572" lon="-3.098378"><ele>221</ele><time>2019-09-27T14:34:12Z</time><name>PT14591</name></trkpt>
<trkpt lat="52.943561" lon="-3.098366"><ele>222</ele><time>2019-09-27T14:34:14Z</time><name>PT14592</name></trkpt>
<trkpt lat="52.943551" lon="-3.098352"><ele>221</ele><time>2019-09-27T14:34:15Z</time><name>PT14593</name></trkpt>
<trkpt lat="52.943544" lon="-3.098340"><ele>221</ele><time>2019-09-27T14:34:15Z</time><name>PT14594</name></trkpt>
<trkpt lat="52.943537" lon="-3.098332"><ele>220</ele><time>2019-09-27T14:34:17Z</time><name>PT14595</name></trkpt>
<trkpt lat="52.943527" lon="-3.098325"><ele>219</ele><time>2019-09-27T14:34:18Z</time><name>PT14596</name></trkpt>
<trkpt lat="52.943514" lon="-3.098314"><ele>219</ele><time>2019-09-27T14:34:18Z</time><name>PT14597</name></trkpt>
<trkpt lat="52.943502" lon="-3.098307"><ele>218</ele><time>2019-09-27T14:34:20Z</time><name>PT14598</name></trkpt>
<trkpt lat="52.943493" lon="-3.098300"><ele>218</ele><time>2019-09-27T14:34:21Z</time><name>PT14599</name></trkpt>
<trkpt lat="52.943479" lon="-3.098291"><ele>218</ele><time>2019-09-27T14:34:21Z</time><name>PT14600</name></trkpt>
<trkpt lat="52.943465" lon="-3.098279"><ele>217</ele><time>2019-09-27T14:34:23Z</time><name>PT14601</name></trkpt>
<trkpt lat="52.943453" lon="-3.098267"><ele>217</ele><time>2019-09-27T14:34:24Z</time><name>PT14602</name></trkpt>
<trkpt lat="52.943440" lon="-3.098254"><ele>218</ele><time>2019-09-27T14:34:24Z</time><name>PT14603</name></trkpt>
<trkpt lat="52.943428" lon="-3.098238"><ele>218</ele><time>2019-09-27T14:34:26Z</time><name>PT14604</name></trkpt>
<trkpt lat="52.943417" lon="-3.098227"><ele>218</ele><time>2019-09-27T14:34:27Z</time><name>PT14605</name></trkpt>
<trkpt lat="52.943411" lon="-3.098220"><ele>218</ele><time>2019-09-27T14:34:27Z</time><name>PT14606</name></trkpt>
<trkpt lat="52.943401" lon="-3.098211"><ele>218</ele><time>2019-09-27T14:34:29Z</time><name>PT14607</name></trkpt>
<trkpt lat="52.943386" lon="-3.098201"><ele>219</ele><time>2019-09-27T14:34:30Z</time><name>PT14608</name></trkpt>
<trkpt lat="52.943377" lon="-3.098195"><ele>218</ele><time>2019-09-27T14:34:30Z</time><name>PT14609</name></trkpt>
<trkpt lat="52.943364" lon="-3.098189"><ele>218</ele><time>2019-09-27T14:34:32Z</time><name>PT14610</name></trkpt>
<trkpt lat="52.943352" lon="-3.098174"><ele>218</ele><time>2019-09-27T14:34:33Z</time><name>PT14611</name></trkpt>
<trkpt lat="52.943344" lon="-3.098165"><ele>218</ele><time>2019-09-27T14:34:33Z</time><name>PT14612</name></trkpt>
<trkpt lat="52.943332" lon="-3.098156"><ele>218</ele><time>2019-09-27T14:34:35Z</time><name>PT14613</name></trkpt>
<trkpt lat="52.943322" lon="-3.098148"><ele>217</ele><time>2019-09-27T14:34:36Z</time><name>PT14614</name></trkpt>
<trkpt lat="52.943310" lon="-3.098138"><ele>216</ele><time>2019-09-27T14:34:36Z</time><name>PT14615</name></trkpt>
<trkpt lat="52.943298" lon="-3.098123"><ele>216</ele><time>2019-09-27T14:34:38Z</time><name>PT14616</name></trkpt>
<trkpt lat="52.943292" lon="-3.098115"><ele>216</ele><time>2019-09-27T14:34:39Z</time><name>PT14617</name></trkpt>
<trkpt lat="52.943282" lon="-3.098109"><ele>215</ele><time>2019-09-27T14:34:39Z</time><name>PT14618</name></trkpt>
<trkpt lat="52.943272" lon="-3.098097"><ele>215</ele><time>2019-09-27T14:34:41Z</time><name>PT14619</name></trkpt>
<trkpt lat="52.943257" lon="-3.098066"><ele>215</ele><time>2019-09-27T14:34:42Z</time><name>PT14620</name></trkpt>
<trkpt lat="52.943246" lon="-3.098038"><ele>215</ele><time>2019-09-27T14:34:42Z</time><name>PT14621</name></trkpt>
<trkpt lat="52.943234" lon="-3.098011"><ele>216</ele><time>2019-09-27T14:34:44Z</time><name>PT14622</name></trkpt>
<trkpt lat="52.943223" lon="-3.097995"><ele>216</ele><time>2019-09-27T14:34:45Z</time><name>PT14623</name></trkpt>
<trkpt lat="52.943209" lon="-3.097975"><ele>216</ele><time>2019-09-27T14:34:46Z</time><name>PT14624</name></trkpt>
<trkpt lat="52.943204" lon="-3.097967"><ele>215</ele><time>2019-09-27T14:34:47Z</time><name>PT14625</name></trkpt>
<trkpt lat="52.943194" lon="-3.097960"><ele>215</ele><time>2019-09-27T14:34:48Z</time><name>PT14626</name></trkpt>
<trkpt lat="52.943187" lon="-3.097954"><ele>214</ele><time>2019-09-27T14:34:48Z</time><name>PT14627</name></trkpt>
<trkpt lat="52.943177" lon="-3.097948"><ele>213</ele><time>2019-09-27T14:34:50Z</time><name>PT14628</name></trkpt>
<trkpt lat="52.943165" lon="-3.097937"><ele>213</ele><time>2019-09-27T14:34:51Z</time><name>PT14629</name></trkpt>
<trkpt lat="52.943149" lon="-3.097929"><ele>213</ele><time>2019-09-27T14:34:51Z</time><name>PT14630</name></trkpt>
<trkpt lat="52.943136" lon="-3.097909"><ele>213</ele><time>2019-09-27T14:34:53Z</time><name>PT14631</name></trkpt>
<trkpt lat="52.943125" lon="-3.097894"><ele>212</ele><time>2019-09-27T14:34:54Z</time><name>PT14632</name></trkpt>
<trkpt lat="52.943112" lon="-3.097884"><ele>212</ele><time>2019-09-27T14:34:54Z</time><name>PT14633</name></trkpt>
<trkpt lat="52.943101" lon="-3.097874"><ele>212</ele><time>2019-09-27T14:34:56Z</time><name>PT14634</name></trkpt>
<trkpt lat="52.943089" lon="-3.097867"><ele>212</ele><time>2019-09-27T14:34:57Z</time><name>PT14635</name></trkpt>
<trkpt lat="52.943077" lon="-3.097857"><ele>212</ele><time>2019-09-27T14:34:57Z</time><name>PT14636</name></trkpt>
<trkpt lat="52.943065" lon="-3.097841"><ele>212</ele><time>2019-09-27T14:34:59Z</time><name>PT14637</name></trkpt>
<trkpt lat="52.943056" lon="-3.097828"><ele>212</ele><time>2019-09-27T14:35:00Z</time><name>PT14638</name></trkpt>
<trkpt lat="52.943049" lon="-3.097818"><ele>212</ele><time>2019-09-27T14:35:00Z</time><name>PT14639</name></trkpt>
<trkpt lat="52.943042" lon="-3.097807"><ele>211</ele><time>2019-09-27T14:35:02Z</time><name>PT14640</name></trkpt>
<trkpt lat="52.943026" lon="-3.097780"><ele>212</ele><time>2019-09-27T14:35:03Z</time><name>PT14641</name></trkpt>
<trkpt lat="52.943016" lon="-3.097771"><ele>211</ele><time>2019-09-27T14:35:03Z</time><name>PT14642</name></trkpt>
<trkpt lat="52.943000" lon="-3.097750"><ele>212</ele><time>2019-09-27T14:35:05Z</time><name>PT14643</name></trkpt>
<trkpt lat="52.942989" lon="-3.097734"><ele>212</ele><time>2019-09-27T14:35:06Z</time><name>PT14644</name></trkpt>
<trkpt lat="52.942974" lon="-3.097714"><ele>213</ele><time>2019-09-27T14:35:07Z</time><name>PT14645</name></trkpt>
<trkpt lat="52.942961" lon="-3.097694"><ele>213</ele><time>2019-09-27T14:35:08Z</time><name>PT14646</name></trkpt>
<trkpt lat="52.942952" lon="-3.097681"><ele>212</ele><time>2019-09-27T14:35:09Z</time><name>PT14647</name></trkpt>
<trkpt lat="52.942940" lon="-3.097664"><ele>213</ele><time>2019-09-27T14:35:09Z</time><name>PT14648</name></trkpt>
<trkpt lat="52.942931" lon="-3.097648"><ele>213</ele><time>2019-09-27T14:35:11Z</time><name>PT14649</name></trkpt>
<trkpt lat="52.942922" lon="-3.097631"><ele>213</ele><time>2019-09-27T14:35:12Z</time><name>PT14650</name></trkpt>
<trkpt lat="52.942916" lon="-3.097614"><ele>213</ele><time>2019-09-27T14:35:13Z</time><name>PT14651</name></trkpt>
<trkpt lat="52.942908" lon="-3.097597"><ele>214</ele><time>2019-09-27T14:35:14Z</time><name>PT14652</name></trkpt>
<trkpt lat="52.942901" lon="-3.097582"><ele>214</ele><time>2019-09-27T14:35:15Z</time><name>PT14653</name></trkpt>
<trkpt lat="52.942899" lon="-3.097577"><ele>214</ele><time>2019-09-27T14:35:16Z</time><name>PT14654</name></trkpt>
<trkpt lat="52.942898" lon="-3.097574"><ele>214</ele><time>2019-09-27T14:35:17Z</time><name>PT14655</name></trkpt>
<trkpt lat="52.942895" lon="-3.097565"><ele>214</ele><time>2019-09-27T14:35:18Z</time><name>PT14656</name></trkpt>
<trkpt lat="52.942894" lon="-3.097551"><ele>214</ele><time>2019-09-27T14:35:19Z</time><name>PT14657</name></trkpt>
<trkpt lat="52.942892" lon="-3.097542"><ele>213</ele><time>2019-09-27T14:35:20Z</time><name>PT14658</name></trkpt>
<trkpt lat="52.942884" lon="-3.097525"><ele>215</ele><time>2019-09-27T14:35:21Z</time><name>PT14659</name></trkpt>
<trkpt lat="52.942880" lon="-3.097508"><ele>215</ele><time>2019-09-27T14:35:22Z</time><name>PT14660</name></trkpt>
<trkpt lat="52.942879" lon="-3.097495"><ele>215</ele><time>2019-09-27T14:35:23Z</time><name>PT14661</name></trkpt>
<trkpt lat="52.942878" lon="-3.097482"><ele>215</ele><time>2019-09-27T14:35:24Z</time><name>PT14662</name></trkpt>
<trkpt lat="52.942876" lon="-3.097468"><ele>215</ele><time>2019-09-27T14:35:25Z</time><name>PT14663</name></trkpt>
<trkpt lat="52.942873" lon="-3.097455"><ele>216</ele><time>2019-09-27T14:35:26Z</time><name>PT14664</name></trkpt>
<trkpt lat="52.942870" lon="-3.097448"><ele>216</ele><time>2019-09-27T14:35:27Z</time><name>PT14665</name></trkpt>
<trkpt lat="52.942870" lon="-3.097439"><ele>215</ele><time>2019-09-27T14:35:28Z</time><name>PT14666</name></trkpt>
<trkpt lat="52.942868" lon="-3.097431"><ele>216</ele><time>2019-09-27T14:35:29Z</time><name>PT14667</name></trkpt>
<trkpt lat="52.942866" lon="-3.097426"><ele>216</ele><time>2019-09-27T14:35:30Z</time><name>PT14668</name></trkpt>
<trkpt lat="52.942865" lon="-3.097421"><ele>216</ele><time>2019-09-27T14:35:31Z</time><name>PT14669</name></trkpt>
<trkpt lat="52.942866" lon="-3.097420"><ele>216</ele><time>2019-09-27T14:35:32Z</time><name>PT14670</name></trkpt>
<trkpt lat="52.942866" lon="-3.097418"><ele>216</ele><time>2019-09-27T14:35:33Z</time><name>PT14671</name></trkpt>
<trkpt lat="52.942865" lon="-3.097415"><ele>216</ele><time>2019-09-27T14:35:33Z</time><name>PT14672</name></trkpt>
<trkpt lat="52.942863" lon="-3.097409"><ele>217</ele><time>2019-09-27T14:35:35Z</time><name>PT14673</name></trkpt>
<trkpt lat="52.942867" lon="-3.097407"><ele>217</ele><time>2019-09-27T14:35:51Z</time><name>PT14674</name></trkpt>
<trkpt lat="52.942868" lon="-3.097404"><ele>217</ele><time>2019-09-27T14:35:53Z</time><name>PT14675</name></trkpt>
<trkpt lat="52.942872" lon="-3.097402"><ele>217</ele><time>2019-09-27T14:35:54Z</time><name>PT14676</name></trkpt>
<trkpt lat="52.942873" lon="-3.097401"><ele>217</ele><time>2019-09-27T14:35:54Z</time><name>PT14677</name></trkpt>
<trkpt lat="52.942873" lon="-3.097393"><ele>217</ele><time>2019-09-27T14:35:56Z</time><name>PT14678</name></trkpt>
<trkpt lat="52.942873" lon="-3.097388"><ele>218</ele><time>2019-09-27T14:35:57Z</time><name>PT14679</name></trkpt>
<trkpt lat="52.942874" lon="-3.097376"><ele>219</ele><time>2019-09-27T14:36:05Z</time><name>PT14680</name></trkpt>
<trkpt lat="52.942870" lon="-3.097376"><ele>219</ele><time>2019-09-27T14:36:06Z</time><name>PT14681</name></trkpt>
<trkpt lat="52.942871" lon="-3.097371"><ele>219</ele><time>2019-09-27T14:36:35Z</time><name>PT14682</name></trkpt>
<trkpt lat="52.942875" lon="-3.097360"><ele>218</ele><time>2019-09-27T14:36:36Z</time><name>PT14683</name></trkpt>
<trkpt lat="52.942879" lon="-3.097339"><ele>218</ele><time>2019-09-27T14:36:37Z</time><name>PT14684</name></trkpt>
<trkpt lat="52.942880" lon="-3.097327"><ele>218</ele><time>2019-09-27T14:36:38Z</time><name>PT14685</name></trkpt>
<trkpt lat="52.942881" lon="-3.097320"><ele>218</ele><time>2019-09-27T14:36:39Z</time><name>PT14686</name></trkpt>
<trkpt lat="52.942881" lon="-3.097314"><ele>219</ele><time>2019-09-27T14:36:40Z</time><name>PT14687</name></trkpt>
<trkpt lat="52.942880" lon="-3.097309"><ele>219</ele><time>2019-09-27T14:36:41Z</time><name>PT14688</name></trkpt>
<trkpt lat="52.942878" lon="-3.097306"><ele>219</ele><time>2019-09-27T14:36:42Z</time><name>PT14689</name></trkpt>
<trkpt lat="52.942881" lon="-3.097299"><ele>219</ele><time>2019-09-27T14:37:08Z</time><name>PT14690</name></trkpt>
<trkpt lat="52.942878" lon="-3.097303"><ele>219</ele><time>2019-09-27T14:37:09Z</time><name>PT14691</name></trkpt>
<trkpt lat="52.942876" lon="-3.097301"><ele>218</ele><time>2019-09-27T14:37:09Z</time><name>PT14692</name></trkpt>
<trkpt lat="52.942877" lon="-3.097298"><ele>218</ele><time>2019-09-27T14:37:11Z</time><name>PT14693</name></trkpt>
<trkpt lat="52.942876" lon="-3.097290"><ele>218</ele><time>2019-09-27T14:37:12Z</time><name>PT14694</name></trkpt>
<trkpt lat="52.942872" lon="-3.097295"><ele>217</ele><time>2019-09-27T14:37:14Z</time><name>PT14695</name></trkpt>
<trkpt lat="52.942865" lon="-3.097297"><ele>217</ele><time>2019-09-27T14:37:15Z</time><name>PT14696</name></trkpt>
<trkpt lat="52.942860" lon="-3.097291"><ele>217</ele><time>2019-09-27T14:37:15Z</time><name>PT14697</name></trkpt>
<trkpt lat="52.942856" lon="-3.097281"><ele>217</ele><time>2019-09-27T14:37:17Z</time><name>PT14698</name></trkpt>
<trkpt lat="52.942847" lon="-3.097270"><ele>216</ele><time>2019-09-27T14:37:18Z</time><name>PT14699</name></trkpt>
<trkpt lat="52.942838" lon="-3.097260"><ele>216</ele><time>2019-09-27T14:37:18Z</time><name>PT14700</name></trkpt>
<trkpt lat="52.942831" lon="-3.097247"><ele>216</ele><time>2019-09-27T14:37:20Z</time><name>PT14701</name></trkpt>
<trkpt lat="52.942821" lon="-3.097236"><ele>216</ele><time>2019-09-27T14:37:21Z</time><name>PT14702</name></trkpt>
<trkpt lat="52.942813" lon="-3.097226"><ele>216</ele><time>2019-09-27T14:37:21Z</time><name>PT14703</name></trkpt>
<trkpt lat="52.942802" lon="-3.097215"><ele>216</ele><time>2019-09-27T14:37:23Z</time><name>PT14704</name></trkpt>
<trkpt lat="52.942794" lon="-3.097201"><ele>216</ele><time>2019-09-27T14:37:24Z</time><name>PT14705</name></trkpt>
<trkpt lat="52.942785" lon="-3.097189"><ele>216</ele><time>2019-09-27T14:37:24Z</time><name>PT14706</name></trkpt>
<trkpt lat="52.942778" lon="-3.097184"><ele>215</ele><time>2019-09-27T14:37:26Z</time><name>PT14707</name></trkpt>
<trkpt lat="52.942766" lon="-3.097174"><ele>215</ele><time>2019-09-27T14:37:27Z</time><name>PT14708</name></trkpt>
<trkpt lat="52.942759" lon="-3.097169"><ele>215</ele><time>2019-09-27T14:37:27Z</time><name>PT14709</name></trkpt>
<trkpt lat="52.942747" lon="-3.097159"><ele>215</ele><time>2019-09-27T14:37:29Z</time><name>PT14710</name></trkpt>
<trkpt lat="52.942734" lon="-3.097149"><ele>215</ele><time>2019-09-27T14:37:30Z</time><name>PT14711</name></trkpt>
<trkpt lat="52.942723" lon="-3.097139"><ele>215</ele><time>2019-09-27T14:37:31Z</time><name>PT14712</name></trkpt>
<trkpt lat="52.942713" lon="-3.097128"><ele>215</ele><time>2019-09-27T14:37:32Z</time><name>PT14713</name></trkpt>
<trkpt lat="52.942705" lon="-3.097111"><ele>215</ele><time>2019-09-27T14:37:33Z</time><name>PT14714</name></trkpt>
<trkpt lat="52.942698" lon="-3.097090"><ele>215</ele><time>2019-09-27T14:37:34Z</time><name>PT14715</name></trkpt>
<trkpt lat="52.942692" lon="-3.097074"><ele>215</ele><time>2019-09-27T14:37:35Z</time><name>PT14716</name></trkpt>
<trkpt lat="52.942681" lon="-3.097062"><ele>215</ele><time>2019-09-27T14:37:36Z</time><name>PT14717</name></trkpt>
<trkpt lat="52.942669" lon="-3.097047"><ele>214</ele><time>2019-09-27T14:37:37Z</time><name>PT14718</name></trkpt>
<trkpt lat="52.942659" lon="-3.097040"><ele>214</ele><time>2019-09-27T14:37:38Z</time><name>PT14719</name></trkpt>
<trkpt lat="52.942649" lon="-3.097030"><ele>214</ele><time>2019-09-27T14:37:39Z</time><name>PT14720</name></trkpt>
<trkpt lat="52.942635" lon="-3.097017"><ele>214</ele><time>2019-09-27T14:37:40Z</time><name>PT14721</name></trkpt>
<trkpt lat="52.942621" lon="-3.097004"><ele>214</ele><time>2019-09-27T14:37:41Z</time><name>PT14722</name></trkpt>
<trkpt lat="52.942610" lon="-3.096994"><ele>215</ele><time>2019-09-27T14:37:42Z</time><name>PT14723</name></trkpt>
<trkpt lat="52.942598" lon="-3.096986"><ele>214</ele><time>2019-09-27T14:37:43Z</time><name>PT14724</name></trkpt>
<trkpt lat="52.942585" lon="-3.096969"><ele>214</ele><time>2019-09-27T14:37:44Z</time><name>PT14725</name></trkpt>
<trkpt lat="52.942572" lon="-3.096958"><ele>214</ele><time>2019-09-27T14:37:45Z</time><name>PT14726</name></trkpt>
<trkpt lat="52.942561" lon="-3.096949"><ele>214</ele><time>2019-09-27T14:37:46Z</time><name>PT14727</name></trkpt>
<trkpt lat="52.942550" lon="-3.096935"><ele>214</ele><time>2019-09-27T14:37:47Z</time><name>PT14728</name></trkpt>
<trkpt lat="52.942538" lon="-3.096918"><ele>214</ele><time>2019-09-27T14:37:48Z</time><name>PT14729</name></trkpt>
<trkpt lat="52.942529" lon="-3.096900"><ele>214</ele><time>2019-09-27T14:37:49Z</time><name>PT14730</name></trkpt>
<trkpt lat="52.942518" lon="-3.096883"><ele>214</ele><time>2019-09-27T14:37:50Z</time><name>PT14731</name></trkpt>
<trkpt lat="52.942506" lon="-3.096872"><ele>214</ele><time>2019-09-27T14:37:51Z</time><name>PT14732</name></trkpt>
<trkpt lat="52.942495" lon="-3.096867"><ele>214</ele><time>2019-09-27T14:37:51Z</time><name>PT14733</name></trkpt>
<trkpt lat="52.942484" lon="-3.096863"><ele>214</ele><time>2019-09-27T14:37:53Z</time><name>PT14734</name></trkpt>
<trkpt lat="52.942472" lon="-3.096861"><ele>214</ele><time>2019-09-27T14:37:54Z</time><name>PT14735</name></trkpt>
<trkpt lat="52.942458" lon="-3.096858"><ele>214</ele><time>2019-09-27T14:37:54Z</time><name>PT14736</name></trkpt>
<trkpt lat="52.942448" lon="-3.096851"><ele>214</ele><time>2019-09-27T14:37:56Z</time><name>PT14737</name></trkpt>
<trkpt lat="52.942439" lon="-3.096843"><ele>214</ele><time>2019-09-27T14:37:57Z</time><name>PT14738</name></trkpt>
<trkpt lat="52.942429" lon="-3.096834"><ele>214</ele><time>2019-09-27T14:37:57Z</time><name>PT14739</name></trkpt>
<trkpt lat="52.942420" lon="-3.096823"><ele>214</ele><time>2019-09-27T14:37:59Z</time><name>PT14740</name></trkpt>
<trkpt lat="52.942411" lon="-3.096817"><ele>214</ele><time>2019-09-27T14:38:00Z</time><name>PT14741</name></trkpt>
<trkpt lat="52.942401" lon="-3.096806"><ele>214</ele><time>2019-09-27T14:38:00Z</time><name>PT14742</name></trkpt>
<trkpt lat="52.942390" lon="-3.096793"><ele>214</ele><time>2019-09-27T14:38:02Z</time><name>PT14743</name></trkpt>
<trkpt lat="52.942380" lon="-3.096783"><ele>214</ele><time>2019-09-27T14:38:03Z</time><name>PT14744</name></trkpt>
<trkpt lat="52.942371" lon="-3.096768"><ele>214</ele><time>2019-09-27T14:38:03Z</time><name>PT14745</name></trkpt>
<trkpt lat="52.942361" lon="-3.096753"><ele>214</ele><time>2019-09-27T14:38:05Z</time><name>PT14746</name></trkpt>
<trkpt lat="52.942350" lon="-3.096741"><ele>214</ele><time>2019-09-27T14:38:06Z</time><name>PT14747</name></trkpt>
<trkpt lat="52.942338" lon="-3.096727"><ele>214</ele><time>2019-09-27T14:38:07Z</time><name>PT14748</name></trkpt>
<trkpt lat="52.942326" lon="-3.096716"><ele>214</ele><time>2019-09-27T14:38:08Z</time><name>PT14749</name></trkpt>
<trkpt lat="52.942315" lon="-3.096703"><ele>214</ele><time>2019-09-27T14:38:09Z</time><name>PT14750</name></trkpt>
<trkpt lat="52.942305" lon="-3.096688"><ele>214</ele><time>2019-09-27T14:38:10Z</time><name>PT14751</name></trkpt>
<trkpt lat="52.942295" lon="-3.096672"><ele>214</ele><time>2019-09-27T14:38:11Z</time><name>PT14752</name></trkpt>
<trkpt lat="52.942285" lon="-3.096655"><ele>214</ele><time>2019-09-27T14:38:12Z</time><name>PT14753</name></trkpt>
<trkpt lat="52.942274" lon="-3.096643"><ele>214</ele><time>2019-09-27T14:38:13Z</time><name>PT14754</name></trkpt>
<trkpt lat="52.942264" lon="-3.096633"><ele>214</ele><time>2019-09-27T14:38:14Z</time><name>PT14755</name></trkpt>
<trkpt lat="52.942253" lon="-3.096623"><ele>214</ele><time>2019-09-27T14:38:15Z</time><name>PT14756</name></trkpt>
<trkpt lat="52.942244" lon="-3.096615"><ele>213</ele><time>2019-09-27T14:38:16Z</time><name>PT14757</name></trkpt>
<trkpt lat="52.942234" lon="-3.096604"><ele>213</ele><time>2019-09-27T14:38:17Z</time><name>PT14758</name></trkpt>
<trkpt lat="52.942225" lon="-3.096594"><ele>213</ele><time>2019-09-27T14:38:18Z</time><name>PT14759</name></trkpt>
<trkpt lat="52.942214" lon="-3.096581"><ele>213</ele><time>2019-09-27T14:38:18Z</time><name>PT14760</name></trkpt>
<trkpt lat="52.942204" lon="-3.096569"><ele>212</ele><time>2019-09-27T14:38:20Z</time><name>PT14761</name></trkpt>
<trkpt lat="52.942194" lon="-3.096559"><ele>212</ele><time>2019-09-27T14:38:21Z</time><name>PT14762</name></trkpt>
<trkpt lat="52.942185" lon="-3.096547"><ele>212</ele><time>2019-09-27T14:38:21Z</time><name>PT14763</name></trkpt>
<trkpt lat="52.942175" lon="-3.096536"><ele>211</ele><time>2019-09-27T14:38:23Z</time><name>PT14764</name></trkpt>
<trkpt lat="52.942164" lon="-3.096525"><ele>211</ele><time>2019-09-27T14:38:24Z</time><name>PT14765</name></trkpt>
<trkpt lat="52.942154" lon="-3.096514"><ele>212</ele><time>2019-09-27T14:38:24Z</time><name>PT14766</name></trkpt>
<trkpt lat="52.942143" lon="-3.096502"><ele>212</ele><time>2019-09-27T14:38:26Z</time><name>PT14767</name></trkpt>
<trkpt lat="52.942134" lon="-3.096481"><ele>213</ele><time>2019-09-27T14:38:27Z</time><name>PT14768</name></trkpt>
<trkpt lat="52.942124" lon="-3.096465"><ele>213</ele><time>2019-09-27T14:38:27Z</time><name>PT14769</name></trkpt>
<trkpt lat="52.942113" lon="-3.096451"><ele>213</ele><time>2019-09-27T14:38:29Z</time><name>PT14770</name></trkpt>
<trkpt lat="52.942104" lon="-3.096441"><ele>213</ele><time>2019-09-27T14:38:30Z</time><name>PT14771</name></trkpt>
<trkpt lat="52.942094" lon="-3.096427"><ele>213</ele><time>2019-09-27T14:38:30Z</time><name>PT14772</name></trkpt>
<trkpt lat="52.942083" lon="-3.096412"><ele>213</ele><time>2019-09-27T14:38:32Z</time><name>PT14773</name></trkpt>
<trkpt lat="52.942074" lon="-3.096399"><ele>213</ele><time>2019-09-27T14:38:33Z</time><name>PT14774</name></trkpt>
<trkpt lat="52.942065" lon="-3.096385"><ele>213</ele><time>2019-09-27T14:38:33Z</time><name>PT14775</name></trkpt>
<trkpt lat="52.942055" lon="-3.096373"><ele>212</ele><time>2019-09-27T14:38:35Z</time><name>PT14776</name></trkpt>
<trkpt lat="52.942047" lon="-3.096359"><ele>213</ele><time>2019-09-27T14:38:36Z</time><name>PT14777</name></trkpt>
<trkpt lat="52.942039" lon="-3.096348"><ele>213</ele><time>2019-09-27T14:38:36Z</time><name>PT14778</name></trkpt>
<trkpt lat="52.942028" lon="-3.096333"><ele>213</ele><time>2019-09-27T14:38:38Z</time><name>PT14779</name></trkpt>
<trkpt lat="52.942018" lon="-3.096321"><ele>213</ele><time>2019-09-27T14:38:39Z</time><name>PT14780</name></trkpt>
<trkpt lat="52.942010" lon="-3.096309"><ele>213</ele><time>2019-09-27T14:38:39Z</time><name>PT14781</name></trkpt>
<trkpt lat="52.942005" lon="-3.096301"><ele>213</ele><time>2019-09-27T14:38:41Z</time><name>PT14782</name></trkpt>
<trkpt lat="52.941998" lon="-3.096295"><ele>213</ele><time>2019-09-27T14:38:42Z</time><name>PT14783</name></trkpt>
<trkpt lat="52.941993" lon="-3.096290"><ele>212</ele><time>2019-09-27T14:38:42Z</time><name>PT14784</name></trkpt>
<trkpt lat="52.941984" lon="-3.096278"><ele>212</ele><time>2019-09-27T14:38:44Z</time><name>PT14785</name></trkpt>
<trkpt lat="52.941974" lon="-3.096267"><ele>212</ele><time>2019-09-27T14:38:45Z</time><name>PT14786</name></trkpt>
<trkpt lat="52.941964" lon="-3.096257"><ele>212</ele><time>2019-09-27T14:38:45Z</time><name>PT14787</name></trkpt>
<trkpt lat="52.941953" lon="-3.096248"><ele>212</ele><time>2019-09-27T14:38:47Z</time><name>PT14788</name></trkpt>
<trkpt lat="52.941944" lon="-3.096241"><ele>212</ele><time>2019-09-27T14:38:48Z</time><name>PT14789</name></trkpt>
<trkpt lat="52.941935" lon="-3.096233"><ele>212</ele><time>2019-09-27T14:38:48Z</time><name>PT14790</name></trkpt>
<trkpt lat="52.941927" lon="-3.096220"><ele>212</ele><time>2019-09-27T14:38:50Z</time><name>PT14791</name></trkpt>
<trkpt lat="52.941918" lon="-3.096207"><ele>212</ele><time>2019-09-27T14:38:51Z</time><name>PT14792</name></trkpt>
<trkpt lat="52.941909" lon="-3.096194"><ele>212</ele><time>2019-09-27T14:38:51Z</time><name>PT14793</name></trkpt>
<trkpt lat="52.941899" lon="-3.096184"><ele>211</ele><time>2019-09-27T14:38:53Z</time><name>PT14794</name></trkpt>
<trkpt lat="52.941887" lon="-3.096174"><ele>211</ele><time>2019-09-27T14:38:54Z</time><name>PT14795</name></trkpt>
<trkpt lat="52.941877" lon="-3.096162"><ele>211</ele><time>2019-09-27T14:38:55Z</time><name>PT14796</name></trkpt>
<trkpt lat="52.941866" lon="-3.096147"><ele>211</ele><time>2019-09-27T14:38:56Z</time><name>PT14797</name></trkpt>
<trkpt lat="52.941856" lon="-3.096139"><ele>211</ele><time>2019-09-27T14:38:57Z</time><name>PT14798</name></trkpt>
<trkpt lat="52.941847" lon="-3.096132"><ele>210</ele><time>2019-09-27T14:38:57Z</time><name>PT14799</name></trkpt>
<trkpt lat="52.941837" lon="-3.096125"><ele>210</ele><time>2019-09-27T14:38:59Z</time><name>PT14800</name></trkpt>
<trkpt lat="52.941827" lon="-3.096116"><ele>210</ele><time>2019-09-27T14:39:00Z</time><name>PT14801</name></trkpt>
<trkpt lat="52.941817" lon="-3.096104"><ele>210</ele><time>2019-09-27T14:39:00Z</time><name>PT14802</name></trkpt>
<trkpt lat="52.941809" lon="-3.096085"><ele>210</ele><time>2019-09-27T14:39:02Z</time><name>PT14803</name></trkpt>
<trkpt lat="52.941800" lon="-3.096068"><ele>210</ele><time>2019-09-27T14:39:03Z</time><name>PT14804</name></trkpt>
<trkpt lat="52.941789" lon="-3.096060"><ele>210</ele><time>2019-09-27T14:39:03Z</time><name>PT14805</name></trkpt>
<trkpt lat="52.941781" lon="-3.096053"><ele>210</ele><time>2019-09-27T14:39:05Z</time><name>PT14806</name></trkpt>
<trkpt lat="52.941772" lon="-3.096048"><ele>209</ele><time>2019-09-27T14:39:06Z</time><name>PT14807</name></trkpt>
<trkpt lat="52.941761" lon="-3.096035"><ele>209</ele><time>2019-09-27T14:39:06Z</time><name>PT14808</name></trkpt>
<trkpt lat="52.941753" lon="-3.096023"><ele>209</ele><time>2019-09-27T14:39:08Z</time><name>PT14809</name></trkpt>
<trkpt lat="52.941745" lon="-3.096006"><ele>209</ele><time>2019-09-27T14:39:09Z</time><name>PT14810</name></trkpt>
<trkpt lat="52.941738" lon="-3.095994"><ele>209</ele><time>2019-09-27T14:39:09Z</time><name>PT14811</name></trkpt>
<trkpt lat="52.941733" lon="-3.095985"><ele>208</ele><time>2019-09-27T14:39:11Z</time><name>PT14812</name></trkpt>
<trkpt lat="52.941729" lon="-3.095979"><ele>208</ele><time>2019-09-27T14:39:12Z</time><name>PT14813</name></trkpt>
<trkpt lat="52.941728" lon="-3.095970"><ele>208</ele><time>2019-09-27T14:39:12Z</time><name>PT14814</name></trkpt>
<trkpt lat="52.941728" lon="-3.095958"><ele>208</ele><time>2019-09-27T14:39:14Z</time><name>PT14815</name></trkpt>
<trkpt lat="52.941728" lon="-3.095943"><ele>208</ele><time>2019-09-27T14:39:15Z</time><name>PT14816</name></trkpt>
<trkpt lat="52.941727" lon="-3.095929"><ele>209</ele><time>2019-09-27T14:39:15Z</time><name>PT14817</name></trkpt>
<trkpt lat="52.941726" lon="-3.095914"><ele>209</ele><time>2019-09-27T14:39:17Z</time><name>PT14818</name></trkpt>
<trkpt lat="52.941726" lon="-3.095909"><ele>209</ele><time>2019-09-27T14:39:18Z</time><name>PT14819</name></trkpt>
<trkpt lat="52.941724" lon="-3.095891"><ele>209</ele><time>2019-09-27T14:39:21Z</time><name>PT14820</name></trkpt>
<trkpt lat="52.941714" lon="-3.095874"><ele>209</ele><time>2019-09-27T14:39:21Z</time><name>PT14821</name></trkpt>
<trkpt lat="52.941701" lon="-3.095858"><ele>208</ele><time>2019-09-27T14:39:23Z</time><name>PT14822</name></trkpt>
<trkpt lat="52.941687" lon="-3.095841"><ele>208</ele><time>2019-09-27T14:39:24Z</time><name>PT14823</name></trkpt>
<trkpt lat="52.941676" lon="-3.095831"><ele>208</ele><time>2019-09-27T14:39:24Z</time><name>PT14824</name></trkpt>
<trkpt lat="52.941663" lon="-3.095821"><ele>208</ele><time>2019-09-27T14:39:26Z</time><name>PT14825</name></trkpt>
<trkpt lat="52.941653" lon="-3.095810"><ele>207</ele><time>2019-09-27T14:39:27Z</time><name>PT14826</name></trkpt>
<trkpt lat="52.941645" lon="-3.095797"><ele>207</ele><time>2019-09-27T14:39:27Z</time><name>PT14827</name></trkpt>
<trkpt lat="52.941634" lon="-3.095782"><ele>207</ele><time>2019-09-27T14:39:29Z</time><name>PT14828</name></trkpt>
<trkpt lat="52.941621" lon="-3.095763"><ele>207</ele><time>2019-09-27T14:39:30Z</time><name>PT14829</name></trkpt>
<trkpt lat="52.941610" lon="-3.095749"><ele>207</ele><time>2019-09-27T14:39:30Z</time><name>PT14830</name></trkpt>
<trkpt lat="52.941600" lon="-3.095736"><ele>207</ele><time>2019-09-27T14:39:32Z</time><name>PT14831</name></trkpt>
<trkpt lat="52.941592" lon="-3.095723"><ele>206</ele><time>2019-09-27T14:39:33Z</time><name>PT14832</name></trkpt>
<trkpt lat="52.941584" lon="-3.095710"><ele>206</ele><time>2019-09-27T14:39:33Z</time><name>PT14833</name></trkpt>
<trkpt lat="52.941574" lon="-3.095694"><ele>206</ele><time>2019-09-27T14:39:35Z</time><name>PT14834</name></trkpt>
<trkpt lat="52.941564" lon="-3.095673"><ele>206</ele><time>2019-09-27T14:39:36Z</time><name>PT14835</name></trkpt>
<trkpt lat="52.941554" lon="-3.095658"><ele>206</ele><time>2019-09-27T14:39:37Z</time><name>PT14836</name></trkpt>
<trkpt lat="52.941545" lon="-3.095650"><ele>206</ele><time>2019-09-27T14:39:38Z</time><name>PT14837</name></trkpt>
<trkpt lat="52.941534" lon="-3.095637"><ele>206</ele><time>2019-09-27T14:39:39Z</time><name>PT14838</name></trkpt>
<trkpt lat="52.941525" lon="-3.095627"><ele>206</ele><time>2019-09-27T14:39:39Z</time><name>PT14839</name></trkpt>
<trkpt lat="52.941517" lon="-3.095613"><ele>206</ele><time>2019-09-27T14:39:41Z</time><name>PT14840</name></trkpt>
<trkpt lat="52.941508" lon="-3.095606"><ele>206</ele><time>2019-09-27T14:39:42Z</time><name>PT14841</name></trkpt>
<trkpt lat="52.941499" lon="-3.095596"><ele>206</ele><time>2019-09-27T14:39:42Z</time><name>PT14842</name></trkpt>
<trkpt lat="52.941488" lon="-3.095585"><ele>206</ele><time>2019-09-27T14:39:44Z</time><name>PT14843</name></trkpt>
<trkpt lat="52.941478" lon="-3.095574"><ele>206</ele><time>2019-09-27T14:39:45Z</time><name>PT14844</name></trkpt>
<trkpt lat="52.941469" lon="-3.095561"><ele>206</ele><time>2019-09-27T14:39:45Z</time><name>PT14845</name></trkpt>
<trkpt lat="52.941460" lon="-3.095548"><ele>206</ele><time>2019-09-27T14:39:47Z</time><name>PT14846</name></trkpt>
<trkpt lat="52.941453" lon="-3.095539"><ele>206</ele><time>2019-09-27T14:39:48Z</time><name>PT14847</name></trkpt>
<trkpt lat="52.941443" lon="-3.095530"><ele>206</ele><time>2019-09-27T14:39:49Z</time><name>PT14848</name></trkpt>
<trkpt lat="52.941432" lon="-3.095520"><ele>206</ele><time>2019-09-27T14:39:50Z</time><name>PT14849</name></trkpt>
<trkpt lat="52.941422" lon="-3.095509"><ele>206</ele><time>2019-09-27T14:39:51Z</time><name>PT14850</name></trkpt>
<trkpt lat="52.941411" lon="-3.095496"><ele>206</ele><time>2019-09-27T14:39:51Z</time><name>PT14851</name></trkpt>
<trkpt lat="52.941402" lon="-3.095481"><ele>206</ele><time>2019-09-27T14:39:53Z</time><name>PT14852</name></trkpt>
<trkpt lat="52.941392" lon="-3.095467"><ele>206</ele><time>2019-09-27T14:39:54Z</time><name>PT14853</name></trkpt>
<trkpt lat="52.941382" lon="-3.095461"><ele>205</ele><time>2019-09-27T14:39:54Z</time><name>PT14854</name></trkpt>
<trkpt lat="52.941373" lon="-3.095451"><ele>205</ele><time>2019-09-27T14:39:56Z</time><name>PT14855</name></trkpt>
<trkpt lat="52.941362" lon="-3.095439"><ele>205</ele><time>2019-09-27T14:39:57Z</time><name>PT14856</name></trkpt>
<trkpt lat="52.941355" lon="-3.095426"><ele>205</ele><time>2019-09-27T14:39:58Z</time><name>PT14857</name></trkpt>
<trkpt lat="52.941346" lon="-3.095414"><ele>205</ele><time>2019-09-27T14:39:59Z</time><name>PT14858</name></trkpt>
<trkpt lat="52.941337" lon="-3.095403"><ele>205</ele><time>2019-09-27T14:40:00Z</time><name>PT14859</name></trkpt>
<trkpt lat="52.941327" lon="-3.095391"><ele>205</ele><time>2019-09-27T14:40:01Z</time><name>PT14860</name></trkpt>
<trkpt lat="52.941317" lon="-3.095380"><ele>205</ele><time>2019-09-27T14:40:02Z</time><name>PT14861</name></trkpt>
<trkpt lat="52.941307" lon="-3.095369"><ele>205</ele><time>2019-09-27T14:40:03Z</time><name>PT14862</name></trkpt>
<trkpt lat="52.941301" lon="-3.095361"><ele>204</ele><time>2019-09-27T14:40:04Z</time><name>PT14863</name></trkpt>
<trkpt lat="52.941294" lon="-3.095351"><ele>204</ele><time>2019-09-27T14:40:05Z</time><name>PT14864</name></trkpt>
<trkpt lat="52.941286" lon="-3.095335"><ele>204</ele><time>2019-09-27T14:40:06Z</time><name>PT14865</name></trkpt>
<trkpt lat="52.941279" lon="-3.095321"><ele>204</ele><time>2019-09-27T14:40:07Z</time><name>PT14866</name></trkpt>
<trkpt lat="52.941271" lon="-3.095312"><ele>204</ele><time>2019-09-27T14:40:08Z</time><name>PT14867</name></trkpt>
<trkpt lat="52.941262" lon="-3.095302"><ele>203</ele><time>2019-09-27T14:40:09Z</time><name>PT14868</name></trkpt>
<trkpt lat="52.941251" lon="-3.095288"><ele>203</ele><time>2019-09-27T14:40:10Z</time><name>PT14869</name></trkpt>
<trkpt lat="52.941241" lon="-3.095277"><ele>203</ele><time>2019-09-27T14:40:11Z</time><name>PT14870</name></trkpt>
<trkpt lat="52.941231" lon="-3.095263"><ele>203</ele><time>2019-09-27T14:40:12Z</time><name>PT14871</name></trkpt>
<trkpt lat="52.941222" lon="-3.095251"><ele>203</ele><time>2019-09-27T14:40:13Z</time><name>PT14872</name></trkpt>
<trkpt lat="52.941213" lon="-3.095241"><ele>203</ele><time>2019-09-27T14:40:14Z</time><name>PT14873</name></trkpt>
<trkpt lat="52.941202" lon="-3.095226"><ele>203</ele><time>2019-09-27T14:40:15Z</time><name>PT14874</name></trkpt>
<trkpt lat="52.941193" lon="-3.095211"><ele>203</ele><time>2019-09-27T14:40:16Z</time><name>PT14875</name></trkpt>
<trkpt lat="52.941185" lon="-3.095201"><ele>203</ele><time>2019-09-27T14:40:17Z</time><name>PT14876</name></trkpt>
<trkpt lat="52.941175" lon="-3.095188"><ele>203</ele><time>2019-09-27T14:40:18Z</time><name>PT14877</name></trkpt>
<trkpt lat="52.941166" lon="-3.095180"><ele>203</ele><time>2019-09-27T14:40:18Z</time><name>PT14878</name></trkpt>
<trkpt lat="52.941156" lon="-3.095169"><ele>203</ele><time>2019-09-27T14:40:20Z</time><name>PT14879</name></trkpt>
<trkpt lat="52.941147" lon="-3.095162"><ele>202</ele><time>2019-09-27T14:40:21Z</time><name>PT14880</name></trkpt>
<trkpt lat="52.941136" lon="-3.095148"><ele>203</ele><time>2019-09-27T14:40:21Z</time><name>PT14881</name></trkpt>
<trkpt lat="52.941127" lon="-3.095133"><ele>203</ele><time>2019-09-27T14:40:23Z</time><name>PT14882</name></trkpt>
<trkpt lat="52.941117" lon="-3.095124"><ele>203</ele><time>2019-09-27T14:40:24Z</time><name>PT14883</name></trkpt>
<trkpt lat="52.941108" lon="-3.095114"><ele>203</ele><time>2019-09-27T14:40:24Z</time><name>PT14884</name></trkpt>
<trkpt lat="52.941098" lon="-3.095103"><ele>203</ele><time>2019-09-27T14:40:26Z</time><name>PT14885</name></trkpt>
<trkpt lat="52.941089" lon="-3.095092"><ele>203</ele><time>2019-09-27T14:40:27Z</time><name>PT14886</name></trkpt>
<trkpt lat="52.941080" lon="-3.095082"><ele>203</ele><time>2019-09-27T14:40:27Z</time><name>PT14887</name></trkpt>
<trkpt lat="52.941070" lon="-3.095072"><ele>203</ele><time>2019-09-27T14:40:29Z</time><name>PT14888</name></trkpt>
<trkpt lat="52.941060" lon="-3.095062"><ele>203</ele><time>2019-09-27T14:40:30Z</time><name>PT14889</name></trkpt>
<trkpt lat="52.941049" lon="-3.095048"><ele>203</ele><time>2019-09-27T14:40:30Z</time><name>PT14890</name></trkpt>
<trkpt lat="52.941039" lon="-3.095035"><ele>203</ele><time>2019-09-27T14:40:32Z</time><name>PT14891</name></trkpt>
<trkpt lat="52.941028" lon="-3.095022"><ele>203</ele><time>2019-09-27T14:40:33Z</time><name>PT14892</name></trkpt>
<trkpt lat="52.941019" lon="-3.095008"><ele>203</ele><time>2019-09-27T14:40:33Z</time><name>PT14893</name></trkpt>
<trkpt lat="52.941008" lon="-3.094994"><ele>203</ele><time>2019-09-27T14:40:35Z</time><name>PT14894</name></trkpt>
<trkpt lat="52.940999" lon="-3.094982"><ele>203</ele><time>2019-09-27T14:40:36Z</time><name>PT14895</name></trkpt>
<trkpt lat="52.940990" lon="-3.094969"><ele>203</ele><time>2019-09-27T14:40:36Z</time><name>PT14896</name></trkpt>
<trkpt lat="52.940980" lon="-3.094960"><ele>203</ele><time>2019-09-27T14:40:38Z</time><name>PT14897</name></trkpt>
<trkpt lat="52.940971" lon="-3.094945"><ele>203</ele><time>2019-09-27T14:40:39Z</time><name>PT14898</name></trkpt>
<trkpt lat="52.940962" lon="-3.094931"><ele>203</ele><time>2019-09-27T14:40:39Z</time><name>PT14899</name></trkpt>
<trkpt lat="52.940953" lon="-3.094920"><ele>203</ele><time>2019-09-27T14:40:41Z</time><name>PT14900</name></trkpt>
<trkpt lat="52.940943" lon="-3.094908"><ele>202</ele><time>2019-09-27T14:40:42Z</time><name>PT14901</name></trkpt>
<trkpt lat="52.940932" lon="-3.094895"><ele>203</ele><time>2019-09-27T14:40:42Z</time><name>PT14902</name></trkpt>
<trkpt lat="52.940920" lon="-3.094882"><ele>203</ele><time>2019-09-27T14:40:44Z</time><name>PT14903</name></trkpt>
<trkpt lat="52.940910" lon="-3.094866"><ele>203</ele><time>2019-09-27T14:40:45Z</time><name>PT14904</name></trkpt>
<trkpt lat="52.940901" lon="-3.094855"><ele>203</ele><time>2019-09-27T14:40:45Z</time><name>PT14905</name></trkpt>
<trkpt lat="52.940892" lon="-3.094841"><ele>202</ele><time>2019-09-27T14:40:47Z</time><name>PT14906</name></trkpt>
<trkpt lat="52.940883" lon="-3.094832"><ele>202</ele><time>2019-09-27T14:40:48Z</time><name>PT14907</name></trkpt>
<trkpt lat="52.940871" lon="-3.094820"><ele>202</ele><time>2019-09-27T14:40:48Z</time><name>PT14908</name></trkpt>
<trkpt lat="52.940862" lon="-3.094809"><ele>202</ele><time>2019-09-27T14:40:50Z</time><name>PT14909</name></trkpt>
<trkpt lat="52.940852" lon="-3.094793"><ele>202</ele><time>2019-09-27T14:40:51Z</time><name>PT14910</name></trkpt>
<trkpt lat="52.940841" lon="-3.094777"><ele>202</ele><time>2019-09-27T14:40:51Z</time><name>PT14911</name></trkpt>
<trkpt lat="52.940831" lon="-3.094765"><ele>202</ele><time>2019-09-27T14:40:53Z</time><name>PT14912</name></trkpt>
<trkpt lat="52.940820" lon="-3.094753"><ele>202</ele><time>2019-09-27T14:40:54Z</time><name>PT14913</name></trkpt>
<trkpt lat="52.940810" lon="-3.094741"><ele>202</ele><time>2019-09-27T14:40:54Z</time><name>PT14914</name></trkpt>
<trkpt lat="52.940800" lon="-3.094729"><ele>202</ele><time>2019-09-27T14:40:56Z</time><name>PT14915</name></trkpt>
<trkpt lat="52.940790" lon="-3.094716"><ele>202</ele><time>2019-09-27T14:40:57Z</time><name>PT14916</name></trkpt>
<trkpt lat="52.940778" lon="-3.094701"><ele>203</ele><time>2019-09-27T14:40:57Z</time><name>PT14917</name></trkpt>
<trkpt lat="52.940767" lon="-3.094683"><ele>203</ele><time>2019-09-27T14:40:59Z</time><name>PT14918</name></trkpt>
<trkpt lat="52.940757" lon="-3.094673"><ele>203</ele><time>2019-09-27T14:41:00Z</time><name>PT14919</name></trkpt>
<trkpt lat="52.940747" lon="-3.094661"><ele>203</ele><time>2019-09-27T14:41:00Z</time><name>PT14920</name></trkpt>
<trkpt lat="52.940737" lon="-3.094648"><ele>203</ele><time>2019-09-27T14:41:02Z</time><name>PT14921</name></trkpt>
<trkpt lat="52.940726" lon="-3.094636"><ele>203</ele><time>2019-09-27T14:41:03Z</time><name>PT14922</name></trkpt>
<trkpt lat="52.940717" lon="-3.094625"><ele>202</ele><time>2019-09-27T14:41:03Z</time><name>PT14923</name></trkpt>
<trkpt lat="52.940707" lon="-3.094613"><ele>202</ele><time>2019-09-27T14:41:05Z</time><name>PT14924</name></trkpt>
<trkpt lat="52.940698" lon="-3.094602"><ele>202</ele><time>2019-09-27T14:41:06Z</time><name>PT14925</name></trkpt>
<trkpt lat="52.940689" lon="-3.094590"><ele>202</ele><time>2019-09-27T14:41:06Z</time><name>PT14926</name></trkpt>
<trkpt lat="52.940679" lon="-3.094580"><ele>202</ele><time>2019-09-27T14:41:08Z</time><name>PT14927</name></trkpt>
<trkpt lat="52.940669" lon="-3.094568"><ele>201</ele><time>2019-09-27T14:41:09Z</time><name>PT14928</name></trkpt>
<trkpt lat="52.940661" lon="-3.094558"><ele>201</ele><time>2019-09-27T14:41:09Z</time><name>PT14929</name></trkpt>
<trkpt lat="52.940653" lon="-3.094546"><ele>201</ele><time>2019-09-27T14:41:11Z</time><name>PT14930</name></trkpt>
<trkpt lat="52.940644" lon="-3.094537"><ele>201</ele><time>2019-09-27T14:41:12Z</time><name>PT14931</name></trkpt>
<trkpt lat="52.940636" lon="-3.094526"><ele>201</ele><time>2019-09-27T14:41:12Z</time><name>PT14932</name></trkpt>
<trkpt lat="52.940624" lon="-3.094510"><ele>201</ele><time>2019-09-27T14:41:14Z</time><name>PT14933</name></trkpt>
<trkpt lat="52.940614" lon="-3.094496"><ele>201</ele><time>2019-09-27T14:41:15Z</time><name>PT14934</name></trkpt>
<trkpt lat="52.940604" lon="-3.094483"><ele>202</ele><time>2019-09-27T14:41:15Z</time><name>PT14935</name></trkpt>
<trkpt lat="52.940594" lon="-3.094468"><ele>202</ele><time>2019-09-27T14:41:17Z</time><name>PT14936</name></trkpt>
<trkpt lat="52.940586" lon="-3.094456"><ele>202</ele><time>2019-09-27T14:41:18Z</time><name>PT14937</name></trkpt>
<trkpt lat="52.940578" lon="-3.094441"><ele>202</ele><time>2019-09-27T14:41:19Z</time><name>PT14938</name></trkpt>
<trkpt lat="52.940568" lon="-3.094427"><ele>202</ele><time>2019-09-27T14:41:20Z</time><name>PT14939</name></trkpt>
<trkpt lat="52.940559" lon="-3.094406"><ele>202</ele><time>2019-09-27T14:41:21Z</time><name>PT14940</name></trkpt>
<trkpt lat="52.940548" lon="-3.094392"><ele>202</ele><time>2019-09-27T14:41:22Z</time><name>PT14941</name></trkpt>
<trkpt lat="52.940538" lon="-3.094380"><ele>202</ele><time>2019-09-27T14:41:23Z</time><name>PT14942</name></trkpt>
<trkpt lat="52.940528" lon="-3.094369"><ele>203</ele><time>2019-09-27T14:41:24Z</time><name>PT14943</name></trkpt>
<trkpt lat="52.940518" lon="-3.094356"><ele>202</ele><time>2019-09-27T14:41:25Z</time><name>PT14944</name></trkpt>
<trkpt lat="52.940507" lon="-3.094341"><ele>203</ele><time>2019-09-27T14:41:26Z</time><name>PT14945</name></trkpt>
<trkpt lat="52.940498" lon="-3.094327"><ele>203</ele><time>2019-09-27T14:41:27Z</time><name>PT14946</name></trkpt>
<trkpt lat="52.940489" lon="-3.094315"><ele>202</ele><time>2019-09-27T14:41:28Z</time><name>PT14947</name></trkpt>
<trkpt lat="52.940480" lon="-3.094305"><ele>202</ele><time>2019-09-27T14:41:29Z</time><name>PT14948</name></trkpt>
<trkpt lat="52.940470" lon="-3.094294"><ele>202</ele><time>2019-09-27T14:41:30Z</time><name>PT14949</name></trkpt>
<trkpt lat="52.940461" lon="-3.094281"><ele>202</ele><time>2019-09-27T14:41:31Z</time><name>PT14950</name></trkpt>
<trkpt lat="52.940453" lon="-3.094266"><ele>202</ele><time>2019-09-27T14:41:32Z</time><name>PT14951</name></trkpt>
<trkpt lat="52.940445" lon="-3.094253"><ele>202</ele><time>2019-09-27T14:41:33Z</time><name>PT14952</name></trkpt>
<trkpt lat="52.940435" lon="-3.094241"><ele>202</ele><time>2019-09-27T14:41:34Z</time><name>PT14953</name></trkpt>
<trkpt lat="52.940424" lon="-3.094227"><ele>202</ele><time>2019-09-27T14:41:35Z</time><name>PT14954</name></trkpt>
<trkpt lat="52.940417" lon="-3.094217"><ele>202</ele><time>2019-09-27T14:41:36Z</time><name>PT14955</name></trkpt>
<trkpt lat="52.940409" lon="-3.094210"><ele>202</ele><time>2019-09-27T14:41:37Z</time><name>PT14956</name></trkpt>
<trkpt lat="52.940398" lon="-3.094197"><ele>202</ele><time>2019-09-27T14:41:38Z</time><name>PT14957</name></trkpt>
<trkpt lat="52.940388" lon="-3.094187"><ele>202</ele><time>2019-09-27T14:41:39Z</time><name>PT14958</name></trkpt>
<trkpt lat="52.940379" lon="-3.094176"><ele>202</ele><time>2019-09-27T14:41:40Z</time><name>PT14959</name></trkpt>
<trkpt lat="52.940370" lon="-3.094163"><ele>202</ele><time>2019-09-27T14:41:41Z</time><name>PT14960</name></trkpt>
<trkpt lat="52.940362" lon="-3.094147"><ele>202</ele><time>2019-09-27T14:41:42Z</time><name>PT14961</name></trkpt>
<trkpt lat="52.940354" lon="-3.094133"><ele>202</ele><time>2019-09-27T14:41:42Z</time><name>PT14962</name></trkpt>
<trkpt lat="52.940345" lon="-3.094124"><ele>202</ele><time>2019-09-27T14:41:44Z</time><name>PT14963</name></trkpt>
<trkpt lat="52.940335" lon="-3.094109"><ele>202</ele><time>2019-09-27T14:41:45Z</time><name>PT14964</name></trkpt>
<trkpt lat="52.940326" lon="-3.094099"><ele>201</ele><time>2019-09-27T14:41:45Z</time><name>PT14965</name></trkpt>
<trkpt lat="52.940314" lon="-3.094080"><ele>202</ele><time>2019-09-27T14:41:47Z</time><name>PT14966</name></trkpt>
<trkpt lat="52.940302" lon="-3.094070"><ele>201</ele><time>2019-09-27T14:41:48Z</time><name>PT14967</name></trkpt>
<trkpt lat="52.940289" lon="-3.094057"><ele>202</ele><time>2019-09-27T14:41:48Z</time><name>PT14968</name></trkpt>
<trkpt lat="52.940280" lon="-3.094045"><ele>202</ele><time>2019-09-27T14:41:50Z</time><name>PT14969</name></trkpt>
<trkpt lat="52.940272" lon="-3.094033"><ele>202</ele><time>2019-09-27T14:41:51Z</time><name>PT14970</name></trkpt>
<trkpt lat="52.940264" lon="-3.094021"><ele>202</ele><time>2019-09-27T14:41:51Z</time><name>PT14971</name></trkpt>
<trkpt lat="52.940255" lon="-3.094004"><ele>202</ele><time>2019-09-27T14:41:53Z</time><name>PT14972</name></trkpt>
<trkpt lat="52.940247" lon="-3.093985"><ele>202</ele><time>2019-09-27T14:41:54Z</time><name>PT14973</name></trkpt>
<trkpt lat="52.940238" lon="-3.093972"><ele>202</ele><time>2019-09-27T14:41:54Z</time><name>PT14974</name></trkpt>
<trkpt lat="52.940229" lon="-3.093960"><ele>202</ele><time>2019-09-27T14:41:56Z</time><name>PT14975</name></trkpt>
<trkpt lat="52.940220" lon="-3.093944"><ele>202</ele><time>2019-09-27T14:41:57Z</time><name>PT14976</name></trkpt>
<trkpt lat="52.940209" lon="-3.093929"><ele>203</ele><time>2019-09-27T14:41:57Z</time><name>PT14977</name></trkpt>
<trkpt lat="52.940201" lon="-3.093920"><ele>202</ele><time>2019-09-27T14:41:59Z</time><name>PT14978</name></trkpt>
<trkpt lat="52.940191" lon="-3.093910"><ele>202</ele><time>2019-09-27T14:42:00Z</time><name>PT14979</name></trkpt>
<trkpt lat="52.940182" lon="-3.093897"><ele>203</ele><time>2019-09-27T14:42:00Z</time><name>PT14980</name></trkpt>
<trkpt lat="52.940174" lon="-3.093883"><ele>203</ele><time>2019-09-27T14:42:02Z</time><name>PT14981</name></trkpt>
<trkpt lat="52.940166" lon="-3.093869"><ele>203</ele><time>2019-09-27T14:42:03Z</time><name>PT14982</name></trkpt>
<trkpt lat="52.940159" lon="-3.093857"><ele>202</ele><time>2019-09-27T14:42:03Z</time><name>PT14983</name></trkpt>
<trkpt lat="52.940150" lon="-3.093844"><ele>203</ele><time>2019-09-27T14:42:05Z</time><name>PT14984</name></trkpt>
<trkpt lat="52.940142" lon="-3.093832"><ele>203</ele><time>2019-09-27T14:42:06Z</time><name>PT14985</name></trkpt>
<trkpt lat="52.940131" lon="-3.093815"><ele>203</ele><time>2019-09-27T14:42:06Z</time><name>PT14986</name></trkpt>
<trkpt lat="52.940124" lon="-3.093799"><ele>203</ele><time>2019-09-27T14:42:08Z</time><name>PT14987</name></trkpt>
<trkpt lat="52.940116" lon="-3.093781"><ele>203</ele><time>2019-09-27T14:42:09Z</time><name>PT14988</name></trkpt>
<trkpt lat="52.940107" lon="-3.093765"><ele>204</ele><time>2019-09-27T14:42:09Z</time><name>PT14989</name></trkpt>
<trkpt lat="52.940099" lon="-3.093751"><ele>203</ele><time>2019-09-27T14:42:11Z</time><name>PT14990</name></trkpt>
<trkpt lat="52.940090" lon="-3.093739"><ele>204</ele><time>2019-09-27T14:42:12Z</time><name>PT14991</name></trkpt>
<trkpt lat="52.940082" lon="-3.093725"><ele>204</ele><time>2019-09-27T14:42:12Z</time><name>PT14992</name></trkpt>
<trkpt lat="52.940073" lon="-3.093710"><ele>204</ele><time>2019-09-27T14:42:14Z</time><name>PT14993</name></trkpt>
<trkpt lat="52.940065" lon="-3.093697"><ele>203</ele><time>2019-09-27T14:42:15Z</time><name>PT14994</name></trkpt>
<trkpt lat="52.940056" lon="-3.093686"><ele>203</ele><time>2019-09-27T14:42:15Z</time><name>PT14995</name></trkpt>
<trkpt lat="52.940047" lon="-3.093681"><ele>203</ele><time>2019-09-27T14:42:17Z</time><name>PT14996</name></trkpt>
<trkpt lat="52.940036" lon="-3.093669"><ele>203</ele><time>2019-09-27T14:42:18Z</time><name>PT14997</name></trkpt>
<trkpt lat="52.940027" lon="-3.093659"><ele>202</ele><time>2019-09-27T14:42:18Z</time><name>PT14998</name></trkpt>
<trkpt lat="52.940019" lon="-3.093649"><ele>202</ele><time>2019-09-27T14:42:20Z</time><name>PT14999</name></trkpt>
<trkpt lat="52.940010" lon="-3.093640"><ele>202</ele><time>2019-09-27T14:42:21Z</time><name>PT15000</name></trkpt>
<trkpt lat="52.940002" lon="-3.093629"><ele>202</ele><time>2019-09-27T14:42:21Z</time><name>PT15001</name></trkpt>
<trkpt lat="52.939993" lon="-3.093619"><ele>202</ele><time>2019-09-27T14:42:23Z</time><name>PT15002</name></trkpt>
<trkpt lat="52.939983" lon="-3.093607"><ele>202</ele><time>2019-09-27T14:42:24Z</time><name>PT15003</name></trkpt>
<trkpt lat="52.939976" lon="-3.093598"><ele>201</ele><time>2019-09-27T14:42:24Z</time><name>PT15004</name></trkpt>
<trkpt lat="52.939970" lon="-3.093586"><ele>201</ele><time>2019-09-27T14:42:26Z</time><name>PT15005</name></trkpt>
<trkpt lat="52.939962" lon="-3.093574"><ele>201</ele><time>2019-09-27T14:42:27Z</time><name>PT15006</name></trkpt>
<trkpt lat="52.939953" lon="-3.093562"><ele>201</ele><time>2019-09-27T14:42:27Z</time><name>PT15007</name></trkpt>
<trkpt lat="52.939945" lon="-3.093551"><ele>200</ele><time>2019-09-27T14:42:29Z</time><name>PT15008</name></trkpt>
<trkpt lat="52.939930" lon="-3.093537"><ele>201</ele><time>2019-09-27T14:42:30Z</time><name>PT15009</name></trkpt>
<trkpt lat="52.939918" lon="-3.093528"><ele>200</ele><time>2019-09-27T14:42:30Z</time><name>PT15010</name></trkpt>
<trkpt lat="52.939908" lon="-3.093519"><ele>200</ele><time>2019-09-27T14:42:32Z</time><name>PT15011</name></trkpt>
<trkpt lat="52.939899" lon="-3.093508"><ele>200</ele><time>2019-09-27T14:42:33Z</time><name>PT15012</name></trkpt>
<trkpt lat="52.939890" lon="-3.093500"><ele>200</ele><time>2019-09-27T14:42:33Z</time><name>PT15013</name></trkpt>
<trkpt lat="52.939881" lon="-3.093497"><ele>200</ele><time>2019-09-27T14:42:35Z</time><name>PT15014</name></trkpt>
<trkpt lat="52.939871" lon="-3.093493"><ele>199</ele><time>2019-09-27T14:42:36Z</time><name>PT15015</name></trkpt>
<trkpt lat="52.939864" lon="-3.093485"><ele>199</ele><time>2019-09-27T14:42:36Z</time><name>PT15016</name></trkpt>
<trkpt lat="52.939859" lon="-3.093479"><ele>199</ele><time>2019-09-27T14:42:38Z</time><name>PT15017</name></trkpt>
<trkpt lat="52.939852" lon="-3.093476"><ele>198</ele><time>2019-09-27T14:42:39Z</time><name>PT15018</name></trkpt>
<trkpt lat="52.939849" lon="-3.093471"><ele>199</ele><time>2019-09-27T14:42:40Z</time><name>PT15019</name></trkpt>
<trkpt lat="52.939847" lon="-3.093466"><ele>199</ele><time>2019-09-27T14:42:41Z</time><name>PT15020</name></trkpt>
<trkpt lat="52.939846" lon="-3.093463"><ele>199</ele><time>2019-09-27T14:42:42Z</time><name>PT15021</name></trkpt>
<trkpt lat="52.939845" lon="-3.093460"><ele>200</ele><time>2019-09-27T14:42:42Z</time><name>PT15022</name></trkpt>
<trkpt lat="52.939844" lon="-3.093458"><ele>200</ele><time>2019-09-27T14:42:44Z</time><name>PT15023</name></trkpt>
<trkpt lat="52.939841" lon="-3.093457"><ele>199</ele><time>2019-09-27T14:42:59Z</time><name>PT15024</name></trkpt>
<trkpt lat="52.939840" lon="-3.093453"><ele>199</ele><time>2019-09-27T14:43:00Z</time><name>PT15025</name></trkpt>
<trkpt lat="52.939840" lon="-3.093441"><ele>199</ele><time>2019-09-27T14:43:03Z</time><name>PT15026</name></trkpt>
<trkpt lat="52.939822" lon="-3.093441"><ele>200</ele><time>2019-09-27T14:43:05Z</time><name>PT15027</name></trkpt>
<trkpt lat="52.939820" lon="-3.093439"><ele>200</ele><time>2019-09-27T14:43:06Z</time><name>PT15028</name></trkpt>
<trkpt lat="52.939816" lon="-3.093437"><ele>200</ele><time>2019-09-27T14:43:06Z</time><name>PT15029</name></trkpt>
<trkpt lat="52.939811" lon="-3.093445"><ele>200</ele><time>2019-09-27T14:43:09Z</time><name>PT15030</name></trkpt>
<trkpt lat="52.939807" lon="-3.093451"><ele>200</ele><time>2019-09-27T14:43:11Z</time><name>PT15031</name></trkpt>
<trkpt lat="52.939799" lon="-3.093454"><ele>199</ele><time>2019-09-27T14:43:12Z</time><name>PT15032</name></trkpt>
<trkpt lat="52.939788" lon="-3.093453"><ele>199</ele><time>2019-09-27T14:43:13Z</time><name>PT15033</name></trkpt>
<trkpt lat="52.939778" lon="-3.093451"><ele>199</ele><time>2019-09-27T14:43:14Z</time><name>PT15034</name></trkpt>
<trkpt lat="52.939768" lon="-3.093446"><ele>199</ele><time>2019-09-27T14:43:15Z</time><name>PT15035</name></trkpt>
<trkpt lat="52.939758" lon="-3.093442"><ele>198</ele><time>2019-09-27T14:43:15Z</time><name>PT15036</name></trkpt>
<trkpt lat="52.939749" lon="-3.093436"><ele>198</ele><time>2019-09-27T14:43:17Z</time><name>PT15037</name></trkpt>
<trkpt lat="52.939737" lon="-3.093430"><ele>198</ele><time>2019-09-27T14:43:18Z</time><name>PT15038</name></trkpt>
<trkpt lat="52.939723" lon="-3.093425"><ele>198</ele><time>2019-09-27T14:43:19Z</time><name>PT15039</name></trkpt>
<trkpt lat="52.939713" lon="-3.093425"><ele>197</ele><time>2019-09-27T14:43:20Z</time><name>PT15040</name></trkpt>
<trkpt lat="52.939704" lon="-3.093422"><ele>197</ele><time>2019-09-27T14:43:21Z</time><name>PT15041</name></trkpt>
<trkpt lat="52.939694" lon="-3.093418"><ele>198</ele><time>2019-09-27T14:43:21Z</time><name>PT15042</name></trkpt>
<trkpt lat="52.939684" lon="-3.093414"><ele>197</ele><time>2019-09-27T14:43:23Z</time><name>PT15043</name></trkpt>
<trkpt lat="52.939675" lon="-3.093414"><ele>197</ele><time>2019-09-27T14:43:24Z</time><name>PT15044</name></trkpt>
<trkpt lat="52.939665" lon="-3.093416"><ele>197</ele><time>2019-09-27T14:43:24Z</time><name>PT15045</name></trkpt>
<trkpt lat="52.939654" lon="-3.093417"><ele>196</ele><time>2019-09-27T14:43:26Z</time><name>PT15046</name></trkpt>
<trkpt lat="52.939646" lon="-3.093418"><ele>196</ele><time>2019-09-27T14:43:27Z</time><name>PT15047</name></trkpt>
<trkpt lat="52.939636" lon="-3.093413"><ele>196</ele><time>2019-09-27T14:43:27Z</time><name>PT15048</name></trkpt>
<trkpt lat="52.939624" lon="-3.093405"><ele>196</ele><time>2019-09-27T14:43:29Z</time><name>PT15049</name></trkpt>
<trkpt lat="52.939612" lon="-3.093393"><ele>196</ele><time>2019-09-27T14:43:30Z</time><name>PT15050</name></trkpt>
<trkpt lat="52.939604" lon="-3.093393"><ele>196</ele><time>2019-09-27T14:43:30Z</time><name>PT15051</name></trkpt>
<trkpt lat="52.939593" lon="-3.093391"><ele>196</ele><time>2019-09-27T14:43:32Z</time><name>PT15052</name></trkpt>
<trkpt lat="52.939581" lon="-3.093392"><ele>195</ele><time>2019-09-27T14:43:33Z</time><name>PT15053</name></trkpt>
<trkpt lat="52.939572" lon="-3.093384"><ele>195</ele><time>2019-09-27T14:43:33Z</time><name>PT15054</name></trkpt>
<trkpt lat="52.939563" lon="-3.093374"><ele>195</ele><time>2019-09-27T14:43:35Z</time><name>PT15055</name></trkpt>
<trkpt lat="52.939554" lon="-3.093371"><ele>195</ele><time>2019-09-27T14:43:36Z</time><name>PT15056</name></trkpt>
<trkpt lat="52.939542" lon="-3.093371"><ele>195</ele><time>2019-09-27T14:43:37Z</time><name>PT15057</name></trkpt>
<trkpt lat="52.939526" lon="-3.093368"><ele>195</ele><time>2019-09-27T14:43:38Z</time><name>PT15058</name></trkpt>
<trkpt lat="52.939517" lon="-3.093359"><ele>194</ele><time>2019-09-27T14:43:39Z</time><name>PT15059</name></trkpt>
<trkpt lat="52.939506" lon="-3.093358"><ele>195</ele><time>2019-09-27T14:43:39Z</time><name>PT15060</name></trkpt>
<trkpt lat="52.939491" lon="-3.093356"><ele>195</ele><time>2019-09-27T14:43:41Z</time><name>PT15061</name></trkpt>
<trkpt lat="52.939478" lon="-3.093355"><ele>195</ele><time>2019-09-27T14:43:42Z</time><name>PT15062</name></trkpt>
<trkpt lat="52.939466" lon="-3.093353"><ele>194</ele><time>2019-09-27T14:43:43Z</time><name>PT15063</name></trkpt>
<trkpt lat="52.939454" lon="-3.093347"><ele>194</ele><time>2019-09-27T14:43:44Z</time><name>PT15064</name></trkpt>
<trkpt lat="52.939444" lon="-3.093345"><ele>194</ele><time>2019-09-27T14:43:45Z</time><name>PT15065</name></trkpt>
<trkpt lat="52.939430" lon="-3.093344"><ele>194</ele><time>2019-09-27T14:43:45Z</time><name>PT15066</name></trkpt>
<trkpt lat="52.939419" lon="-3.093343"><ele>194</ele><time>2019-09-27T14:43:47Z</time><name>PT15067</name></trkpt>
<trkpt lat="52.939407" lon="-3.093340"><ele>194</ele><time>2019-09-27T14:43:48Z</time><name>PT15068</name></trkpt>
<trkpt lat="52.939394" lon="-3.093338"><ele>194</ele><time>2019-09-27T14:43:48Z</time><name>PT15069</name></trkpt>
<trkpt lat="52.939383" lon="-3.093337"><ele>194</ele><time>2019-09-27T14:43:50Z</time><name>PT15070</name></trkpt>
<trkpt lat="52.939372" lon="-3.093335"><ele>194</ele><time>2019-09-27T14:43:51Z</time><name>PT15071</name></trkpt>
<trkpt lat="52.939359" lon="-3.093334"><ele>195</ele><time>2019-09-27T14:43:52Z</time><name>PT15072</name></trkpt>
<trkpt lat="52.939348" lon="-3.093337"><ele>194</ele><time>2019-09-27T14:43:53Z</time><name>PT15073</name></trkpt>
<trkpt lat="52.939336" lon="-3.093334"><ele>194</ele><time>2019-09-27T14:43:54Z</time><name>PT15074</name></trkpt>
<trkpt lat="52.939322" lon="-3.093330"><ele>194</ele><time>2019-09-27T14:43:54Z</time><name>PT15075</name></trkpt>
<trkpt lat="52.939311" lon="-3.093328"><ele>194</ele><time>2019-09-27T14:43:56Z</time><name>PT15076</name></trkpt>
<trkpt lat="52.939302" lon="-3.093328"><ele>194</ele><time>2019-09-27T14:43:57Z</time><name>PT15077</name></trkpt>
<trkpt lat="52.939290" lon="-3.093326"><ele>194</ele><time>2019-09-27T14:43:57Z</time><name>PT15078</name></trkpt>
<trkpt lat="52.939280" lon="-3.093327"><ele>194</ele><time>2019-09-27T14:43:59Z</time><name>PT15079</name></trkpt>
<trkpt lat="52.939266" lon="-3.093322"><ele>194</ele><time>2019-09-27T14:44:00Z</time><name>PT15080</name></trkpt>
<trkpt lat="52.939253" lon="-3.093318"><ele>194</ele><time>2019-09-27T14:44:00Z</time><name>PT15081</name></trkpt>
<trkpt lat="52.939241" lon="-3.093317"><ele>194</ele><time>2019-09-27T14:44:02Z</time><name>PT15082</name></trkpt>
<trkpt lat="52.939231" lon="-3.093317"><ele>194</ele><time>2019-09-27T14:44:03Z</time><name>PT15083</name></trkpt>
<trkpt lat="52.939218" lon="-3.093316"><ele>193</ele><time>2019-09-27T14:44:03Z</time><name>PT15084</name></trkpt>
<trkpt lat="52.939209" lon="-3.093316"><ele>193</ele><time>2019-09-27T14:44:05Z</time><name>PT15085</name></trkpt>
<trkpt lat="52.939197" lon="-3.093313"><ele>193</ele><time>2019-09-27T14:44:06Z</time><name>PT15086</name></trkpt>
<trkpt lat="52.939190" lon="-3.093309"><ele>192</ele><time>2019-09-27T14:44:06Z</time><name>PT15087</name></trkpt>
<trkpt lat="52.939180" lon="-3.093303"><ele>192</ele><time>2019-09-27T14:44:08Z</time><name>PT15088</name></trkpt>
<trkpt lat="52.939168" lon="-3.093303"><ele>192</ele><time>2019-09-27T14:44:09Z</time><name>PT15089</name></trkpt>
<trkpt lat="52.939156" lon="-3.093301"><ele>192</ele><time>2019-09-27T14:44:09Z</time><name>PT15090</name></trkpt>
<trkpt lat="52.939143" lon="-3.093298"><ele>193</ele><time>2019-09-27T14:44:11Z</time><name>PT15091</name></trkpt>
<trkpt lat="52.939136" lon="-3.093295"><ele>192</ele><time>2019-09-27T14:44:12Z</time><name>PT15092</name></trkpt>
<trkpt lat="52.939128" lon="-3.093289"><ele>192</ele><time>2019-09-27T14:44:12Z</time><name>PT15093</name></trkpt>
<trkpt lat="52.939119" lon="-3.093285"><ele>192</ele><time>2019-09-27T14:44:14Z</time><name>PT15094</name></trkpt>
<trkpt lat="52.939109" lon="-3.093283"><ele>192</ele><time>2019-09-27T14:44:15Z</time><name>PT15095</name></trkpt>
<trkpt lat="52.939098" lon="-3.093280"><ele>192</ele><time>2019-09-27T14:44:15Z</time><name>PT15096</name></trkpt>
<trkpt lat="52.939084" lon="-3.093273"><ele>192</ele><time>2019-09-27T14:44:17Z</time><name>PT15097</name></trkpt>
<trkpt lat="52.939073" lon="-3.093268"><ele>192</ele><time>2019-09-27T14:44:18Z</time><name>PT15098</name></trkpt>
<trkpt lat="52.939060" lon="-3.093267"><ele>192</ele><time>2019-09-27T14:44:18Z</time><name>PT15099</name></trkpt>
<trkpt lat="52.939048" lon="-3.093263"><ele>192</ele><time>2019-09-27T14:44:20Z</time><name>PT15100</name></trkpt>
<trkpt lat="52.939038" lon="-3.093256"><ele>192</ele><time>2019-09-27T14:44:21Z</time><name>PT15101</name></trkpt>
<trkpt lat="52.939026" lon="-3.093249"><ele>193</ele><time>2019-09-27T14:44:22Z</time><name>PT15102</name></trkpt>
<trkpt lat="52.939013" lon="-3.093242"><ele>193</ele><time>2019-09-27T14:44:23Z</time><name>PT15103</name></trkpt>
<trkpt lat="52.939003" lon="-3.093234"><ele>192</ele><time>2019-09-27T14:44:24Z</time><name>PT15104</name></trkpt>
<trkpt lat="52.938989" lon="-3.093225"><ele>193</ele><time>2019-09-27T14:44:24Z</time><name>PT15105</name></trkpt>
<trkpt lat="52.938976" lon="-3.093217"><ele>193</ele><time>2019-09-27T14:44:26Z</time><name>PT15106</name></trkpt>
<trkpt lat="52.938963" lon="-3.093209"><ele>193</ele><time>2019-09-27T14:44:27Z</time><name>PT15107</name></trkpt>
<trkpt lat="52.938948" lon="-3.093199"><ele>194</ele><time>2019-09-27T14:44:27Z</time><name>PT15108</name></trkpt>
<trkpt lat="52.938935" lon="-3.093197"><ele>194</ele><time>2019-09-27T14:44:29Z</time><name>PT15109</name></trkpt>
<trkpt lat="52.938925" lon="-3.093192"><ele>194</ele><time>2019-09-27T14:44:30Z</time><name>PT15110</name></trkpt>
<trkpt lat="52.938914" lon="-3.093185"><ele>195</ele><time>2019-09-27T14:44:30Z</time><name>PT15111</name></trkpt>
<trkpt lat="52.938905" lon="-3.093176"><ele>195</ele><time>2019-09-27T14:44:32Z</time><name>PT15112</name></trkpt>
<trkpt lat="52.938897" lon="-3.093167"><ele>195</ele><time>2019-09-27T14:44:33Z</time><name>PT15113</name></trkpt>
<trkpt lat="52.938887" lon="-3.093160"><ele>194</ele><time>2019-09-27T14:44:33Z</time><name>PT15114</name></trkpt>
<trkpt lat="52.938875" lon="-3.093154"><ele>194</ele><time>2019-09-27T14:44:35Z</time><name>PT15115</name></trkpt>
<trkpt lat="52.938861" lon="-3.093151"><ele>194</ele><time>2019-09-27T14:44:36Z</time><name>PT15116</name></trkpt>
<trkpt lat="52.938848" lon="-3.093148"><ele>195</ele><time>2019-09-27T14:44:36Z</time><name>PT15117</name></trkpt>
<trkpt lat="52.938836" lon="-3.093140"><ele>195</ele><time>2019-09-27T14:44:38Z</time><name>PT15118</name></trkpt>
<trkpt lat="52.938825" lon="-3.093132"><ele>195</ele><time>2019-09-27T14:44:39Z</time><name>PT15119</name></trkpt>
<trkpt lat="52.938814" lon="-3.093126"><ele>196</ele><time>2019-09-27T14:44:39Z</time><name>PT15120</name></trkpt>
<trkpt lat="52.938803" lon="-3.093122"><ele>196</ele><time>2019-09-27T14:44:41Z</time><name>PT15121</name></trkpt>
<trkpt lat="52.938795" lon="-3.093113"><ele>196</ele><time>2019-09-27T14:44:42Z</time><name>PT15122</name></trkpt>
<trkpt lat="52.938785" lon="-3.093105"><ele>196</ele><time>2019-09-27T14:44:43Z</time><name>PT15123</name></trkpt>
<trkpt lat="52.938776" lon="-3.093096"><ele>196</ele><time>2019-09-27T14:44:44Z</time><name>PT15124</name></trkpt>
<trkpt lat="52.938767" lon="-3.093089"><ele>196</ele><time>2019-09-27T14:44:45Z</time><name>PT15125</name></trkpt>
<trkpt lat="52.938758" lon="-3.093082"><ele>196</ele><time>2019-09-27T14:44:46Z</time><name>PT15126</name></trkpt>
<trkpt lat="52.938749" lon="-3.093075"><ele>196</ele><time>2019-09-27T14:44:47Z</time><name>PT15127</name></trkpt>
<trkpt lat="52.938742" lon="-3.093070"><ele>196</ele><time>2019-09-27T14:44:48Z</time><name>PT15128</name></trkpt>
<trkpt lat="52.938733" lon="-3.093065"><ele>197</ele><time>2019-09-27T14:44:49Z</time><name>PT15129</name></trkpt>
<trkpt lat="52.938732" lon="-3.093062"><ele>197</ele><time>2019-09-27T14:44:50Z</time><name>PT15130</name></trkpt>
<trkpt lat="52.938734" lon="-3.093063"><ele>197</ele><time>2019-09-27T14:44:51Z</time><name>PT15131</name></trkpt>
<trkpt lat="52.938736" lon="-3.093066"><ele>197</ele><time>2019-09-27T14:44:52Z</time><name>PT15132</name></trkpt>
<trkpt lat="52.938737" lon="-3.093067"><ele>197</ele><time>2019-09-27T14:44:53Z</time><name>PT15133</name></trkpt>
<trkpt lat="52.938736" lon="-3.093065"><ele>197</ele><time>2019-09-27T14:44:54Z</time><name>PT15134</name></trkpt>
<trkpt lat="52.938734" lon="-3.093065"><ele>198</ele><time>2019-09-27T14:44:55Z</time><name>PT15135</name></trkpt>
<trkpt lat="52.938729" lon="-3.093065"><ele>198</ele><time>2019-09-27T14:44:59Z</time><name>PT15136</name></trkpt>
<trkpt lat="52.938722" lon="-3.093065"><ele>198</ele><time>2019-09-27T14:45:00Z</time><name>PT15137</name></trkpt>
<trkpt lat="52.938716" lon="-3.093061"><ele>198</ele><time>2019-09-27T14:45:01Z</time><name>PT15138</name></trkpt>
<trkpt lat="52.938709" lon="-3.093053"><ele>198</ele><time>2019-09-27T14:45:02Z</time><name>PT15139</name></trkpt>
<trkpt lat="52.938707" lon="-3.093050"><ele>198</ele><time>2019-09-27T14:45:03Z</time><name>PT15140</name></trkpt>
<trkpt lat="52.938706" lon="-3.093051"><ele>198</ele><time>2019-09-27T14:45:03Z</time><name>PT15141</name></trkpt>
<trkpt lat="52.938707" lon="-3.093052"><ele>198</ele><time>2019-09-27T14:45:05Z</time><name>PT15142</name></trkpt>
<trkpt lat="52.938707" lon="-3.093052"><ele>198</ele><time>2019-09-27T14:45:06Z</time><name>PT15143</name></trkpt>
<trkpt lat="52.938705" lon="-3.093044"><ele>198</ele><time>2019-09-27T14:45:08Z</time><name>PT15144</name></trkpt>
<trkpt lat="52.938695" lon="-3.093031"><ele>198</ele><time>2019-09-27T14:45:09Z</time><name>PT15145</name></trkpt>
<trkpt lat="52.938687" lon="-3.093011"><ele>198</ele><time>2019-09-27T14:45:09Z</time><name>PT15146</name></trkpt>
<trkpt lat="52.938683" lon="-3.093006"><ele>197</ele><time>2019-09-27T14:45:11Z</time><name>PT15147</name></trkpt>
<trkpt lat="52.938671" lon="-3.092995"><ele>198</ele><time>2019-09-27T14:45:12Z</time><name>PT15148</name></trkpt>
<trkpt lat="52.938656" lon="-3.092978"><ele>198</ele><time>2019-09-27T14:45:12Z</time><name>PT15149</name></trkpt>
<trkpt lat="52.938648" lon="-3.092955"><ele>198</ele><time>2019-09-27T14:45:14Z</time><name>PT15150</name></trkpt>
<trkpt lat="52.938639" lon="-3.092934"><ele>198</ele><time>2019-09-27T14:45:15Z</time><name>PT15151</name></trkpt>
<trkpt lat="52.938632" lon="-3.092915"><ele>198</ele><time>2019-09-27T14:45:15Z</time><name>PT15152</name></trkpt>
<trkpt lat="52.938626" lon="-3.092897"><ele>198</ele><time>2019-09-27T14:45:17Z</time><name>PT15153</name></trkpt>
<trkpt lat="52.938618" lon="-3.092876"><ele>198</ele><time>2019-09-27T14:45:18Z</time><name>PT15154</name></trkpt>
<trkpt lat="52.938610" lon="-3.092856"><ele>198</ele><time>2019-09-27T14:45:18Z</time><name>PT15155</name></trkpt>
<trkpt lat="52.938602" lon="-3.092834"><ele>197</ele><time>2019-09-27T14:45:20Z</time><name>PT15156</name></trkpt>
<trkpt lat="52.938595" lon="-3.092811"><ele>197</ele><time>2019-09-27T14:45:21Z</time><name>PT15157</name></trkpt>
<trkpt lat="52.938588" lon="-3.092791"><ele>197</ele><time>2019-09-27T14:45:21Z</time><name>PT15158</name></trkpt>
<trkpt lat="52.938582" lon="-3.092771"><ele>197</ele><time>2019-09-27T14:45:23Z</time><name>PT15159</name></trkpt>
<trkpt lat="52.938575" lon="-3.092752"><ele>197</ele><time>2019-09-27T14:45:24Z</time><name>PT15160</name></trkpt>
<trkpt lat="52.938568" lon="-3.092735"><ele>197</ele><time>2019-09-27T14:45:24Z</time><name>PT15161</name></trkpt>
<trkpt lat="52.938561" lon="-3.092722"><ele>197</ele><time>2019-09-27T14:45:26Z</time><name>PT15162</name></trkpt>
<trkpt lat="52.938553" lon="-3.092712"><ele>196</ele><time>2019-09-27T14:45:27Z</time><name>PT15163</name></trkpt>
<trkpt lat="52.938543" lon="-3.092701"><ele>196</ele><time>2019-09-27T14:45:27Z</time><name>PT15164</name></trkpt>
<trkpt lat="52.938534" lon="-3.092688"><ele>196</ele><time>2019-09-27T14:45:29Z</time><name>PT15165</name></trkpt>
<trkpt lat="52.938524" lon="-3.092675"><ele>196</ele><time>2019-09-27T14:45:30Z</time><name>PT15166</name></trkpt>
<trkpt lat="52.938514" lon="-3.092652"><ele>197</ele><time>2019-09-27T14:45:30Z</time><name>PT15167</name></trkpt>
<trkpt lat="52.938508" lon="-3.092638"><ele>196</ele><time>2019-09-27T14:45:32Z</time><name>PT15168</name></trkpt>
<trkpt lat="52.938501" lon="-3.092624"><ele>196</ele><time>2019-09-27T14:45:33Z</time><name>PT15169</name></trkpt>
<trkpt lat="52.938492" lon="-3.092606"><ele>196</ele><time>2019-09-27T14:45:33Z</time><name>PT15170</name></trkpt>
<trkpt lat="52.938483" lon="-3.092593"><ele>196</ele><time>2019-09-27T14:45:35Z</time><name>PT15171</name></trkpt>
<trkpt lat="52.938475" lon="-3.092582"><ele>196</ele><time>2019-09-27T14:45:36Z</time><name>PT15172</name></trkpt>
<trkpt lat="52.938466" lon="-3.092572"><ele>196</ele><time>2019-09-27T14:45:36Z</time><name>PT15173</name></trkpt>
<trkpt lat="52.938459" lon="-3.092555"><ele>196</ele><time>2019-09-27T14:45:38Z</time><name>PT15174</name></trkpt>
<trkpt lat="52.938450" lon="-3.092541"><ele>196</ele><time>2019-09-27T14:45:39Z</time><name>PT15175</name></trkpt>
<trkpt lat="52.938442" lon="-3.092523"><ele>196</ele><time>2019-09-27T14:45:39Z</time><name>PT15176</name></trkpt>
<trkpt lat="52.938431" lon="-3.092510"><ele>196</ele><time>2019-09-27T14:45:41Z</time><name>PT15177</name></trkpt>
<trkpt lat="52.938423" lon="-3.092495"><ele>196</ele><time>2019-09-27T14:45:42Z</time><name>PT15178</name></trkpt>
<trkpt lat="52.938415" lon="-3.092481"><ele>196</ele><time>2019-09-27T14:45:42Z</time><name>PT15179</name></trkpt>
<trkpt lat="52.938408" lon="-3.092468"><ele>196</ele><time>2019-09-27T14:45:44Z</time><name>PT15180</name></trkpt>
<trkpt lat="52.938400" lon="-3.092453"><ele>196</ele><time>2019-09-27T14:45:45Z</time><name>PT15181</name></trkpt>
<trkpt lat="52.938391" lon="-3.092439"><ele>195</ele><time>2019-09-27T14:45:45Z</time><name>PT15182</name></trkpt>
<trkpt lat="52.938382" lon="-3.092427"><ele>195</ele><time>2019-09-27T14:45:47Z</time><name>PT15183</name></trkpt>
<trkpt lat="52.938373" lon="-3.092413"><ele>195</ele><time>2019-09-27T14:45:48Z</time><name>PT15184</name></trkpt>
<trkpt lat="52.938365" lon="-3.092401"><ele>195</ele><time>2019-09-27T14:45:48Z</time><name>PT15185</name></trkpt>
<trkpt lat="52.938356" lon="-3.092388"><ele>195</ele><time>2019-09-27T14:45:50Z</time><name>PT15186</name></trkpt>
<trkpt lat="52.938347" lon="-3.092376"><ele>195</ele><time>2019-09-27T14:45:51Z</time><name>PT15187</name></trkpt>
<trkpt lat="52.938337" lon="-3.092364"><ele>195</ele><time>2019-09-27T14:45:51Z</time><name>PT15188</name></trkpt>
<trkpt lat="52.938328" lon="-3.092352"><ele>195</ele><time>2019-09-27T14:45:53Z</time><name>PT15189</name></trkpt>
<trkpt lat="52.938318" lon="-3.092342"><ele>195</ele><time>2019-09-27T14:45:54Z</time><name>PT15190</name></trkpt>
<trkpt lat="52.938309" lon="-3.092333"><ele>195</ele><time>2019-09-27T14:45:54Z</time><name>PT15191</name></trkpt>
<trkpt lat="52.938301" lon="-3.092321"><ele>195</ele><time>2019-09-27T14:45:56Z</time><name>PT15192</name></trkpt>
<trkpt lat="52.938294" lon="-3.092308"><ele>195</ele><time>2019-09-27T14:45:57Z</time><name>PT15193</name></trkpt>
<trkpt lat="52.938286" lon="-3.092292"><ele>195</ele><time>2019-09-27T14:45:57Z</time><name>PT15194</name></trkpt>
<trkpt lat="52.938278" lon="-3.092275"><ele>195</ele><time>2019-09-27T14:45:59Z</time><name>PT15195</name></trkpt>
<trkpt lat="52.938269" lon="-3.092265"><ele>195</ele><time>2019-09-27T14:46:00Z</time><name>PT15196</name></trkpt>
<trkpt lat="52.938259" lon="-3.092258"><ele>195</ele><time>2019-09-27T14:46:00Z</time><name>PT15197</name></trkpt>
<trkpt lat="52.938249" lon="-3.092247"><ele>195</ele><time>2019-09-27T14:46:02Z</time><name>PT15198</name></trkpt>
<trkpt lat="52.938243" lon="-3.092230"><ele>195</ele><time>2019-09-27T14:46:03Z</time><name>PT15199</name></trkpt>
<trkpt lat="52.938241" lon="-3.092209"><ele>196</ele><time>2019-09-27T14:46:03Z</time><name>PT15200</name></trkpt>
<trkpt lat="52.938239" lon="-3.092190"><ele>195</ele><time>2019-09-27T14:46:05Z</time><name>PT15201</name></trkpt>
<trkpt lat="52.938238" lon="-3.092170"><ele>195</ele><time>2019-09-27T14:46:06Z</time><name>PT15202</name></trkpt>
<trkpt lat="52.938236" lon="-3.092150"><ele>195</ele><time>2019-09-27T14:46:07Z</time><name>PT15203</name></trkpt>
<trkpt lat="52.938230" lon="-3.092131"><ele>195</ele><time>2019-09-27T14:46:08Z</time><name>PT15204</name></trkpt>
<trkpt lat="52.938224" lon="-3.092113"><ele>195</ele><time>2019-09-27T14:46:09Z</time><name>PT15205</name></trkpt>
<trkpt lat="52.938220" lon="-3.092095"><ele>195</ele><time>2019-09-27T14:46:09Z</time><name>PT15206</name></trkpt>
<trkpt lat="52.938216" lon="-3.092074"><ele>195</ele><time>2019-09-27T14:46:11Z</time><name>PT15207</name></trkpt>
<trkpt lat="52.938209" lon="-3.092058"><ele>195</ele><time>2019-09-27T14:46:12Z</time><name>PT15208</name></trkpt>
<trkpt lat="52.938200" lon="-3.092045"><ele>195</ele><time>2019-09-27T14:46:12Z</time><name>PT15209</name></trkpt>
<trkpt lat="52.938191" lon="-3.092030"><ele>195</ele><time>2019-09-27T14:46:14Z</time><name>PT15210</name></trkpt>
<trkpt lat="52.938183" lon="-3.092016"><ele>195</ele><time>2019-09-27T14:46:15Z</time><name>PT15211</name></trkpt>
<trkpt lat="52.938176" lon="-3.092000"><ele>195</ele><time>2019-09-27T14:46:15Z</time><name>PT15212</name></trkpt>
<trkpt lat="52.938169" lon="-3.091982"><ele>195</ele><time>2019-09-27T14:46:17Z</time><name>PT15213</name></trkpt>
<trkpt lat="52.938161" lon="-3.091967"><ele>195</ele><time>2019-09-27T14:46:18Z</time><name>PT15214</name></trkpt>
<trkpt lat="52.938153" lon="-3.091952"><ele>195</ele><time>2019-09-27T14:46:18Z</time><name>PT15215</name></trkpt>
<trkpt lat="52.938144" lon="-3.091936"><ele>195</ele><time>2019-09-27T14:46:20Z</time><name>PT15216</name></trkpt>
<trkpt lat="52.938136" lon="-3.091921"><ele>195</ele><time>2019-09-27T14:46:21Z</time><name>PT15217</name></trkpt>
<trkpt lat="52.938129" lon="-3.091905"><ele>195</ele><time>2019-09-27T14:46:21Z</time><name>PT15218</name></trkpt>
<trkpt lat="52.938120" lon="-3.091890"><ele>195</ele><time>2019-09-27T14:46:23Z</time><name>PT15219</name></trkpt>
<trkpt lat="52.938110" lon="-3.091879"><ele>194</ele><time>2019-09-27T14:46:24Z</time><name>PT15220</name></trkpt>
<trkpt lat="52.938100" lon="-3.091867"><ele>195</ele><time>2019-09-27T14:46:24Z</time><name>PT15221</name></trkpt>
<trkpt lat="52.938090" lon="-3.091853"><ele>195</ele><time>2019-09-27T14:46:26Z</time><name>PT15222</name></trkpt>
<trkpt lat="52.938080" lon="-3.091843"><ele>195</ele><time>2019-09-27T14:46:27Z</time><name>PT15223</name></trkpt>
<trkpt lat="52.938070" lon="-3.091831"><ele>195</ele><time>2019-09-27T14:46:27Z</time><name>PT15224</name></trkpt>
<trkpt lat="52.938060" lon="-3.091820"><ele>195</ele><time>2019-09-27T14:46:29Z</time><name>PT15225</name></trkpt>
<trkpt lat="52.938050" lon="-3.091809"><ele>194</ele><time>2019-09-27T14:46:30Z</time><name>PT15226</name></trkpt>
<trkpt lat="52.938041" lon="-3.091798"><ele>195</ele><time>2019-09-27T14:46:30Z</time><name>PT15227</name></trkpt>
<trkpt lat="52.938030" lon="-3.091788"><ele>194</ele><time>2019-09-27T14:46:32Z</time><name>PT15228</name></trkpt>
<trkpt lat="52.938017" lon="-3.091782"><ele>194</ele><time>2019-09-27T14:46:33Z</time><name>PT15229</name></trkpt>
<trkpt lat="52.938007" lon="-3.091775"><ele>194</ele><time>2019-09-27T14:46:33Z</time><name>PT15230</name></trkpt>
<trkpt lat="52.937998" lon="-3.091764"><ele>194</ele><time>2019-09-27T14:46:35Z</time><name>PT15231</name></trkpt>
<trkpt lat="52.937988" lon="-3.091750"><ele>194</ele><time>2019-09-27T14:46:36Z</time><name>PT15232</name></trkpt>
<trkpt lat="52.937981" lon="-3.091735"><ele>194</ele><time>2019-09-27T14:46:36Z</time><name>PT15233</name></trkpt>
<trkpt lat="52.937971" lon="-3.091721"><ele>194</ele><time>2019-09-27T14:46:38Z</time><name>PT15234</name></trkpt>
<trkpt lat="52.937959" lon="-3.091707"><ele>194</ele><time>2019-09-27T14:46:39Z</time><name>PT15235</name></trkpt>
<trkpt lat="52.937948" lon="-3.091697"><ele>194</ele><time>2019-09-27T14:46:39Z</time><name>PT15236</name></trkpt>
<trkpt lat="52.937938" lon="-3.091688"><ele>194</ele><time>2019-09-27T14:46:41Z</time><name>PT15237</name></trkpt>
<trkpt lat="52.937928" lon="-3.091677"><ele>194</ele><time>2019-09-27T14:46:42Z</time><name>PT15238</name></trkpt>
<trkpt lat="52.937917" lon="-3.091664"><ele>194</ele><time>2019-09-27T14:46:42Z</time><name>PT15239</name></trkpt>
<trkpt lat="52.937908" lon="-3.091650"><ele>194</ele><time>2019-09-27T14:46:44Z</time><name>PT15240</name></trkpt>
<trkpt lat="52.937898" lon="-3.091635"><ele>194</ele><time>2019-09-27T14:46:45Z</time><name>PT15241</name></trkpt>
<trkpt lat="52.937889" lon="-3.091621"><ele>194</ele><time>2019-09-27T14:46:45Z</time><name>PT15242</name></trkpt></trkseg></trk></gpx>